<?xml version="1.0" encoding="UTF-8" standalone="no" ?>
<gpx xmlns="http://www.topografix.com/GPX/1/1" xmlns:xsi="http://www.w3.org/2001/XMLSchema-instance" xsi:schemaLocation="http://www.topografix.com/GPX/1/1 http://www.topografix.com/GPX/1/1/gpx.xsd" version="1.1" creator="VisuGPX - https://www.visugpx.com">
  <metadata>
    <name>Convoyage Ajaccio</name>
    <desc><![CDATA[Convoyage Ajaccio]]></desc>
  </metadata>
  <trk>
    <name><![CDATA[Convoyage Ajaccio test]]></name>
    <trkseg>
      <trkpt lat="43.41021" lon="6.78116">
        <ele>12.634399414062</ele>
        <time>2015-07-24T23:05:32Z</time>
      </trkpt>
      <trkpt lat="43.41021" lon="6.78116">
        <ele>12.634399414062</ele>
        <time>2015-07-24T23:05:34Z</time>
      </trkpt>
      <trkpt lat="43.41021" lon="6.78115">
        <ele>14.557006835938</ele>
        <time>2015-07-24T23:05:36Z</time>
      </trkpt>
      <trkpt lat="43.41023" lon="6.78115">
        <ele>13.595825195312</ele>
        <time>2015-07-24T23:05:53Z</time>
      </trkpt>
      <trkpt lat="43.41024" lon="6.78115">
        <ele>13.595825195312</ele>
        <time>2015-07-24T23:06:31Z</time>
      </trkpt>
      <trkpt lat="43.41026" lon="6.78115">
        <ele>13.115112304688</ele>
        <time>2015-07-24T23:07:23Z</time>
      </trkpt>
      <trkpt lat="43.41026" lon="6.78117">
        <ele>12.15380859375</ele>
        <time>2015-07-24T23:20:04Z</time>
      </trkpt>
      <trkpt lat="43.41026" lon="6.78117">
        <ele>8.7891845703125</ele>
        <time>2015-07-24T23:21:20Z</time>
      </trkpt>
      <trkpt lat="43.41027" lon="6.78117">
        <ele>8.7891845703125</ele>
        <time>2015-07-24T23:21:21Z</time>
      </trkpt>
      <trkpt lat="43.41027" lon="6.78117">
        <ele>12.15380859375</ele>
        <time>2015-07-24T23:21:22Z</time>
      </trkpt>
      <trkpt lat="43.41027" lon="6.78117">
        <ele>12.15380859375</ele>
        <time>2015-07-24T23:21:23Z</time>
      </trkpt>
      <trkpt lat="43.41043" lon="6.78119">
        <ele>10.711791992188</ele>
        <time>2015-07-24T23:23:16Z</time>
      </trkpt>
      <trkpt lat="43.41037" lon="6.78123">
        <ele>10.231201171875</ele>
        <time>2015-07-24T23:24:54Z</time>
      </trkpt>
      <trkpt lat="43.4104" lon="6.78134">
        <ele>10.231201171875</ele>
        <time>2015-07-24T23:31:33Z</time>
      </trkpt>
      <trkpt lat="43.41033" lon="6.7814">
        <ele>10.231201171875</ele>
        <time>2015-07-24T23:32:05Z</time>
      </trkpt>
      <trkpt lat="43.41012" lon="6.78139">
        <ele>10.711791992188</ele>
        <time>2015-07-24T23:32:32Z</time>
      </trkpt>
      <trkpt lat="43.40977" lon="6.78143">
        <ele>10.711791992188</ele>
        <time>2015-07-24T23:33:04Z</time>
      </trkpt>
      <trkpt lat="43.40949" lon="6.7816">
        <ele>10.231201171875</ele>
        <time>2015-07-24T23:33:34Z</time>
      </trkpt>
      <trkpt lat="43.40929" lon="6.78174">
        <ele>10.231201171875</ele>
        <time>2015-07-24T23:33:59Z</time>
      </trkpt>
      <trkpt lat="43.40906" lon="6.7818">
        <ele>10.711791992188</ele>
        <time>2015-07-24T23:34:19Z</time>
      </trkpt>
      <trkpt lat="43.40887" lon="6.78161">
        <ele>10.711791992188</ele>
        <time>2015-07-24T23:34:43Z</time>
      </trkpt>
      <trkpt lat="43.40872" lon="6.78139">
        <ele>10.711791992188</ele>
        <time>2015-07-24T23:35:11Z</time>
      </trkpt>
      <trkpt lat="43.40856" lon="6.78123">
        <ele>10.711791992188</ele>
        <time>2015-07-24T23:35:30Z</time>
      </trkpt>
      <trkpt lat="43.40833" lon="6.78099">
        <ele>10.711791992188</ele>
        <time>2015-07-24T23:35:49Z</time>
      </trkpt>
      <trkpt lat="43.40803" lon="6.78075">
        <ele>10.231201171875</ele>
        <time>2015-07-24T23:36:10Z</time>
      </trkpt>
      <trkpt lat="43.40773" lon="6.78059">
        <ele>10.711791992188</ele>
        <time>2015-07-24T23:36:28Z</time>
      </trkpt>
      <trkpt lat="43.40738" lon="6.78053">
        <ele>10.231201171875</ele>
        <time>2015-07-24T23:36:50Z</time>
      </trkpt>
      <trkpt lat="43.40715" lon="6.78059">
        <ele>10.231201171875</ele>
        <time>2015-07-24T23:37:05Z</time>
      </trkpt>
      <trkpt lat="43.40693" lon="6.78072">
        <ele>10.711791992188</ele>
        <time>2015-07-24T23:37:20Z</time>
      </trkpt>
      <trkpt lat="43.40661" lon="6.78092">
        <ele>10.231201171875</ele>
        <time>2015-07-24T23:37:41Z</time>
      </trkpt>
      <trkpt lat="43.40641" lon="6.78112">
        <ele>10.711791992188</ele>
        <time>2015-07-24T23:37:57Z</time>
      </trkpt>
      <trkpt lat="43.40617" lon="6.78137">
        <ele>9.7506103515625</ele>
        <time>2015-07-24T23:38:14Z</time>
      </trkpt>
      <trkpt lat="43.40592" lon="6.78164">
        <ele>10.231201171875</ele>
        <time>2015-07-24T23:38:33Z</time>
      </trkpt>
      <trkpt lat="43.40568" lon="6.78189">
        <ele>10.711791992188</ele>
        <time>2015-07-24T23:38:51Z</time>
      </trkpt>
      <trkpt lat="43.4054" lon="6.78216">
        <ele>10.231201171875</ele>
        <time>2015-07-24T23:39:10Z</time>
      </trkpt>
      <trkpt lat="43.40521" lon="6.78242">
        <ele>10.231201171875</ele>
        <time>2015-07-24T23:39:25Z</time>
      </trkpt>
      <trkpt lat="43.40499" lon="6.78267">
        <ele>10.231201171875</ele>
        <time>2015-07-24T23:39:40Z</time>
      </trkpt>
      <trkpt lat="43.40479" lon="6.78295">
        <ele>9.7506103515625</ele>
        <time>2015-07-24T23:39:56Z</time>
      </trkpt>
      <trkpt lat="43.40457" lon="6.78328">
        <ele>9.7506103515625</ele>
        <time>2015-07-24T23:40:13Z</time>
      </trkpt>
      <trkpt lat="43.40432" lon="6.78368">
        <ele>9.7506103515625</ele>
        <time>2015-07-24T23:40:31Z</time>
      </trkpt>
      <trkpt lat="43.40409" lon="6.78406">
        <ele>9.2698974609375</ele>
        <time>2015-07-24T23:40:48Z</time>
      </trkpt>
      <trkpt lat="43.40385" lon="6.7845">
        <ele>9.7506103515625</ele>
        <time>2015-07-24T23:41:08Z</time>
      </trkpt>
      <trkpt lat="43.40371" lon="6.78484">
        <ele>9.2698974609375</ele>
        <time>2015-07-24T23:41:21Z</time>
      </trkpt>
      <trkpt lat="43.4035" lon="6.78518">
        <ele>9.2698974609375</ele>
        <time>2015-07-24T23:41:36Z</time>
      </trkpt>
      <trkpt lat="43.40328" lon="6.78544">
        <ele>9.2698974609375</ele>
        <time>2015-07-24T23:41:51Z</time>
      </trkpt>
      <trkpt lat="43.4031" lon="6.78578">
        <ele>9.2698974609375</ele>
        <time>2015-07-24T23:42:05Z</time>
      </trkpt>
      <trkpt lat="43.40291" lon="6.78621">
        <ele>9.2698974609375</ele>
        <time>2015-07-24T23:42:23Z</time>
      </trkpt>
      <trkpt lat="43.40279" lon="6.78657">
        <ele>9.2698974609375</ele>
        <time>2015-07-24T23:42:37Z</time>
      </trkpt>
      <trkpt lat="43.40259" lon="6.78688">
        <ele>9.2698974609375</ele>
        <time>2015-07-24T23:42:52Z</time>
      </trkpt>
      <trkpt lat="43.40228" lon="6.7872">
        <ele>9.2698974609375</ele>
        <time>2015-07-24T23:43:12Z</time>
      </trkpt>
      <trkpt lat="43.40198" lon="6.78761">
        <ele>8.7891845703125</ele>
        <time>2015-07-24T23:43:32Z</time>
      </trkpt>
      <trkpt lat="43.40175" lon="6.78787">
        <ele>9.2698974609375</ele>
        <time>2015-07-24T23:43:47Z</time>
      </trkpt>
      <trkpt lat="43.40146" lon="6.78825">
        <ele>8.7891845703125</ele>
        <time>2015-07-24T23:44:06Z</time>
      </trkpt>
      <trkpt lat="43.40118" lon="6.78862">
        <ele>8.7891845703125</ele>
        <time>2015-07-24T23:44:26Z</time>
      </trkpt>
      <trkpt lat="43.40094" lon="6.78894">
        <ele>8.30859375</ele>
        <time>2015-07-24T23:44:41Z</time>
      </trkpt>
      <trkpt lat="43.40065" lon="6.78928">
        <ele>8.7891845703125</ele>
        <time>2015-07-24T23:44:59Z</time>
      </trkpt>
      <trkpt lat="43.40043" lon="6.78955">
        <ele>8.7891845703125</ele>
        <time>2015-07-24T23:45:14Z</time>
      </trkpt>
      <trkpt lat="43.40016" lon="6.78994">
        <ele>8.30859375</ele>
        <time>2015-07-24T23:45:33Z</time>
      </trkpt>
      <trkpt lat="43.39991" lon="6.7903">
        <ele>8.30859375</ele>
        <time>2015-07-24T23:45:49Z</time>
      </trkpt>
      <trkpt lat="43.39963" lon="6.79065">
        <ele>8.7891845703125</ele>
        <time>2015-07-24T23:46:07Z</time>
      </trkpt>
      <trkpt lat="43.39928" lon="6.79105">
        <ele>8.30859375</ele>
        <time>2015-07-24T23:46:29Z</time>
      </trkpt>
      <trkpt lat="43.39903" lon="6.79138">
        <ele>8.30859375</ele>
        <time>2015-07-24T23:46:44Z</time>
      </trkpt>
      <trkpt lat="43.39882" lon="6.79167">
        <ele>8.7891845703125</ele>
        <time>2015-07-24T23:46:59Z</time>
      </trkpt>
      <trkpt lat="43.39858" lon="6.79195">
        <ele>8.7891845703125</ele>
        <time>2015-07-24T23:47:14Z</time>
      </trkpt>
      <trkpt lat="43.39833" lon="6.79223">
        <ele>8.30859375</ele>
        <time>2015-07-24T23:47:30Z</time>
      </trkpt>
      <trkpt lat="43.39807" lon="6.79263">
        <ele>8.30859375</ele>
        <time>2015-07-24T23:47:49Z</time>
      </trkpt>
      <trkpt lat="43.39783" lon="6.79286">
        <ele>8.30859375</ele>
        <time>2015-07-24T23:48:04Z</time>
      </trkpt>
      <trkpt lat="43.3976" lon="6.79321">
        <ele>8.30859375</ele>
        <time>2015-07-24T23:48:21Z</time>
      </trkpt>
      <trkpt lat="43.39738" lon="6.79348">
        <ele>8.7891845703125</ele>
        <time>2015-07-24T23:48:35Z</time>
      </trkpt>
      <trkpt lat="43.39713" lon="6.79382">
        <ele>8.30859375</ele>
        <time>2015-07-24T23:48:52Z</time>
      </trkpt>
      <trkpt lat="43.3968" lon="6.7942">
        <ele>8.30859375</ele>
        <time>2015-07-24T23:49:12Z</time>
      </trkpt>
      <trkpt lat="43.39656" lon="6.79448">
        <ele>8.7891845703125</ele>
        <time>2015-07-24T23:49:27Z</time>
      </trkpt>
      <trkpt lat="43.39635" lon="6.79476">
        <ele>8.7891845703125</ele>
        <time>2015-07-24T23:49:41Z</time>
      </trkpt>
      <trkpt lat="43.39611" lon="6.79506">
        <ele>8.7891845703125</ele>
        <time>2015-07-24T23:49:58Z</time>
      </trkpt>
      <trkpt lat="43.39583" lon="6.79543">
        <ele>8.30859375</ele>
        <time>2015-07-24T23:50:17Z</time>
      </trkpt>
      <trkpt lat="43.39553" lon="6.79575">
        <ele>8.7891845703125</ele>
        <time>2015-07-24T23:50:34Z</time>
      </trkpt>
      <trkpt lat="43.39523" lon="6.79608">
        <ele>8.7891845703125</ele>
        <time>2015-07-24T23:50:53Z</time>
      </trkpt>
      <trkpt lat="43.39495" lon="6.79649">
        <ele>8.7891845703125</ele>
        <time>2015-07-24T23:51:11Z</time>
      </trkpt>
      <trkpt lat="43.39473" lon="6.79678">
        <ele>8.7891845703125</ele>
        <time>2015-07-24T23:51:27Z</time>
      </trkpt>
      <trkpt lat="43.39448" lon="6.79714">
        <ele>8.7891845703125</ele>
        <time>2015-07-24T23:51:43Z</time>
      </trkpt>
      <trkpt lat="43.39423" lon="6.79743">
        <ele>8.7891845703125</ele>
        <time>2015-07-24T23:51:59Z</time>
      </trkpt>
      <trkpt lat="43.39394" lon="6.79771">
        <ele>9.2698974609375</ele>
        <time>2015-07-24T23:52:17Z</time>
      </trkpt>
      <trkpt lat="43.39366" lon="6.79806">
        <ele>8.7891845703125</ele>
        <time>2015-07-24T23:52:34Z</time>
      </trkpt>
      <trkpt lat="43.39333" lon="6.79846">
        <ele>8.30859375</ele>
        <time>2015-07-24T23:52:56Z</time>
      </trkpt>
      <trkpt lat="43.39307" lon="6.79876">
        <ele>8.7891845703125</ele>
        <time>2015-07-24T23:53:12Z</time>
      </trkpt>
      <trkpt lat="43.39273" lon="6.79913">
        <ele>8.30859375</ele>
        <time>2015-07-24T23:53:33Z</time>
      </trkpt>
      <trkpt lat="43.39241" lon="6.79947">
        <ele>8.30859375</ele>
        <time>2015-07-24T23:53:52Z</time>
      </trkpt>
      <trkpt lat="43.39219" lon="6.79974">
        <ele>8.7891845703125</ele>
        <time>2015-07-24T23:54:07Z</time>
      </trkpt>
      <trkpt lat="43.39188" lon="6.80009">
        <ele>8.30859375</ele>
        <time>2015-07-24T23:54:27Z</time>
      </trkpt>
      <trkpt lat="43.39161" lon="6.80042">
        <ele>8.30859375</ele>
        <time>2015-07-24T23:54:44Z</time>
      </trkpt>
      <trkpt lat="43.39139" lon="6.8007">
        <ele>8.7891845703125</ele>
        <time>2015-07-24T23:54:59Z</time>
      </trkpt>
      <trkpt lat="43.39106" lon="6.8011">
        <ele>8.30859375</ele>
        <time>2015-07-24T23:55:19Z</time>
      </trkpt>
      <trkpt lat="43.39083" lon="6.80139">
        <ele>8.30859375</ele>
        <time>2015-07-24T23:55:35Z</time>
      </trkpt>
      <trkpt lat="43.39053" lon="6.80174">
        <ele>8.30859375</ele>
        <time>2015-07-24T23:55:53Z</time>
      </trkpt>
      <trkpt lat="43.39024" lon="6.80205">
        <ele>8.30859375</ele>
        <time>2015-07-24T23:56:11Z</time>
      </trkpt>
      <trkpt lat="43.38996" lon="6.80237">
        <ele>8.30859375</ele>
        <time>2015-07-24T23:56:29Z</time>
      </trkpt>
      <trkpt lat="43.38971" lon="6.80269">
        <ele>8.30859375</ele>
        <time>2015-07-24T23:56:46Z</time>
      </trkpt>
      <trkpt lat="43.38936" lon="6.8031">
        <ele>8.30859375</ele>
        <time>2015-07-24T23:57:07Z</time>
      </trkpt>
      <trkpt lat="43.3891" lon="6.80341">
        <ele>8.7891845703125</ele>
        <time>2015-07-24T23:57:24Z</time>
      </trkpt>
      <trkpt lat="43.38877" lon="6.80379">
        <ele>8.7891845703125</ele>
        <time>2015-07-24T23:57:44Z</time>
      </trkpt>
      <trkpt lat="43.38844" lon="6.80418">
        <ele>8.7891845703125</ele>
        <time>2015-07-24T23:58:06Z</time>
      </trkpt>
      <trkpt lat="43.38825" lon="6.80444">
        <ele>8.7891845703125</ele>
        <time>2015-07-24T23:58:21Z</time>
      </trkpt>
      <trkpt lat="43.38805" lon="6.80468">
        <ele>8.7891845703125</ele>
        <time>2015-07-24T23:58:36Z</time>
      </trkpt>
      <trkpt lat="43.38782" lon="6.80494">
        <ele>8.7891845703125</ele>
        <time>2015-07-24T23:58:52Z</time>
      </trkpt>
      <trkpt lat="43.38768" lon="6.80508">
        <ele>9.2698974609375</ele>
        <time>2015-07-24T23:59:03Z</time>
      </trkpt>
      <trkpt lat="43.38742" lon="6.80539">
        <ele>8.7891845703125</ele>
        <time>2015-07-24T23:59:23Z</time>
      </trkpt>
      <trkpt lat="43.38714" lon="6.80566">
        <ele>9.2698974609375</ele>
        <time>2015-07-24T23:59:43Z</time>
      </trkpt>
      <trkpt lat="43.38687" lon="6.80585">
        <ele>8.7891845703125</ele>
        <time>2015-07-25T00:00:00Z</time>
      </trkpt>
      <trkpt lat="43.38662" lon="6.80615">
        <ele>8.7891845703125</ele>
        <time>2015-07-25T00:00:19Z</time>
      </trkpt>
      <trkpt lat="43.38645" lon="6.80641">
        <ele>8.30859375</ele>
        <time>2015-07-25T00:00:34Z</time>
      </trkpt>
      <trkpt lat="43.38627" lon="6.80659">
        <ele>8.7891845703125</ele>
        <time>2015-07-25T00:00:47Z</time>
      </trkpt>
      <trkpt lat="43.38601" lon="6.80695">
        <ele>8.30859375</ele>
        <time>2015-07-25T00:01:08Z</time>
      </trkpt>
      <trkpt lat="43.38576" lon="6.80702">
        <ele>8.7891845703125</ele>
        <time>2015-07-25T00:01:23Z</time>
      </trkpt>
      <trkpt lat="43.38559" lon="6.80675">
        <ele>9.2698974609375</ele>
        <time>2015-07-25T00:01:42Z</time>
      </trkpt>
      <trkpt lat="43.38556" lon="6.80646">
        <ele>8.7891845703125</ele>
        <time>2015-07-25T00:01:58Z</time>
      </trkpt>
      <trkpt lat="43.38568" lon="6.80621">
        <ele>8.7891845703125</ele>
        <time>2015-07-25T00:02:16Z</time>
      </trkpt>
      <trkpt lat="43.38587" lon="6.80599">
        <ele>8.7891845703125</ele>
        <time>2015-07-25T00:02:36Z</time>
      </trkpt>
      <trkpt lat="43.386" lon="6.80576">
        <ele>8.30859375</ele>
        <time>2015-07-25T00:02:56Z</time>
      </trkpt>
      <trkpt lat="43.38603" lon="6.80547">
        <ele>8.7891845703125</ele>
        <time>2015-07-25T00:03:15Z</time>
      </trkpt>
      <trkpt lat="43.38606" lon="6.80515">
        <ele>8.30859375</ele>
        <time>2015-07-25T00:03:35Z</time>
      </trkpt>
      <trkpt lat="43.38609" lon="6.80495">
        <ele>8.30859375</ele>
        <time>2015-07-25T00:03:49Z</time>
      </trkpt>
      <trkpt lat="43.38612" lon="6.80487">
        <ele>8.30859375</ele>
        <time>2015-07-25T00:03:54Z</time>
      </trkpt>
      <trkpt lat="43.38619" lon="6.80461">
        <ele>8.30859375</ele>
        <time>2015-07-25T00:04:09Z</time>
      </trkpt>
      <trkpt lat="43.38631" lon="6.8043">
        <ele>8.30859375</ele>
        <time>2015-07-25T00:04:29Z</time>
      </trkpt>
      <trkpt lat="43.38642" lon="6.80408">
        <ele>8.30859375</ele>
        <time>2015-07-25T00:04:46Z</time>
      </trkpt>
      <trkpt lat="43.38656" lon="6.80375">
        <ele>7.827880859375</ele>
        <time>2015-07-25T00:05:08Z</time>
      </trkpt>
      <trkpt lat="43.38671" lon="6.80344">
        <ele>8.7891845703125</ele>
        <time>2015-07-25T00:05:30Z</time>
      </trkpt>
      <trkpt lat="43.38687" lon="6.80313">
        <ele>8.30859375</ele>
        <time>2015-07-25T00:05:52Z</time>
      </trkpt>
      <trkpt lat="43.387" lon="6.80282">
        <ele>8.30859375</ele>
        <time>2015-07-25T00:06:12Z</time>
      </trkpt>
      <trkpt lat="43.38712" lon="6.80257">
        <ele>7.827880859375</ele>
        <time>2015-07-25T00:06:32Z</time>
      </trkpt>
      <trkpt lat="43.38729" lon="6.80221">
        <ele>7.827880859375</ele>
        <time>2015-07-25T00:06:57Z</time>
      </trkpt>
      <trkpt lat="43.3874" lon="6.80193">
        <ele>7.827880859375</ele>
        <time>2015-07-25T00:07:16Z</time>
      </trkpt>
      <trkpt lat="43.38752" lon="6.80167">
        <ele>7.827880859375</ele>
        <time>2015-07-25T00:07:33Z</time>
      </trkpt>
      <trkpt lat="43.38763" lon="6.80142">
        <ele>7.827880859375</ele>
        <time>2015-07-25T00:07:52Z</time>
      </trkpt>
      <trkpt lat="43.38777" lon="6.80111">
        <ele>7.827880859375</ele>
        <time>2015-07-25T00:08:15Z</time>
      </trkpt>
      <trkpt lat="43.38786" lon="6.80091">
        <ele>7.827880859375</ele>
        <time>2015-07-25T00:08:28Z</time>
      </trkpt>
      <trkpt lat="43.38795" lon="6.80068">
        <ele>7.827880859375</ele>
        <time>2015-07-25T00:08:44Z</time>
      </trkpt>
      <trkpt lat="43.38795" lon="6.8006">
        <ele>8.30859375</ele>
        <time>2015-07-25T00:08:47Z</time>
      </trkpt>
      <trkpt lat="43.3878" lon="6.80047">
        <ele>7.827880859375</ele>
        <time>2015-07-25T00:09:01Z</time>
      </trkpt>
      <trkpt lat="43.38767" lon="6.80056">
        <ele>7.34716796875</ele>
        <time>2015-07-25T00:09:12Z</time>
      </trkpt>
      <trkpt lat="43.38755" lon="6.80085">
        <ele>7.827880859375</ele>
        <time>2015-07-25T00:09:29Z</time>
      </trkpt>
      <trkpt lat="43.38723" lon="6.80118">
        <ele>7.34716796875</ele>
        <time>2015-07-25T00:09:54Z</time>
      </trkpt>
      <trkpt lat="43.38703" lon="6.80142">
        <ele>7.827880859375</ele>
        <time>2015-07-25T00:10:11Z</time>
      </trkpt>
      <trkpt lat="43.38689" lon="6.80161">
        <ele>7.827880859375</ele>
        <time>2015-07-25T00:10:24Z</time>
      </trkpt>
      <trkpt lat="43.38663" lon="6.80193">
        <ele>7.34716796875</ele>
        <time>2015-07-25T00:10:45Z</time>
      </trkpt>
      <trkpt lat="43.38635" lon="6.80227">
        <ele>7.827880859375</ele>
        <time>2015-07-25T00:11:04Z</time>
      </trkpt>
      <trkpt lat="43.38607" lon="6.80263">
        <ele>7.34716796875</ele>
        <time>2015-07-25T00:11:24Z</time>
      </trkpt>
      <trkpt lat="43.38573" lon="6.80292">
        <ele>7.827880859375</ele>
        <time>2015-07-25T00:11:44Z</time>
      </trkpt>
      <trkpt lat="43.38539" lon="6.80316">
        <ele>7.827880859375</ele>
        <time>2015-07-25T00:12:03Z</time>
      </trkpt>
      <trkpt lat="43.38516" lon="6.80341">
        <ele>7.827880859375</ele>
        <time>2015-07-25T00:12:18Z</time>
      </trkpt>
      <trkpt lat="43.3849" lon="6.80383">
        <ele>7.827880859375</ele>
        <time>2015-07-25T00:12:39Z</time>
      </trkpt>
      <trkpt lat="43.38463" lon="6.80428">
        <ele>7.827880859375</ele>
        <time>2015-07-25T00:13:01Z</time>
      </trkpt>
      <trkpt lat="43.38435" lon="6.8045">
        <ele>7.827880859375</ele>
        <time>2015-07-25T00:13:18Z</time>
      </trkpt>
      <trkpt lat="43.384" lon="6.80469">
        <ele>7.827880859375</ele>
        <time>2015-07-25T00:13:37Z</time>
      </trkpt>
      <trkpt lat="43.38368" lon="6.80501">
        <ele>7.827880859375</ele>
        <time>2015-07-25T00:13:57Z</time>
      </trkpt>
      <trkpt lat="43.38346" lon="6.80548">
        <ele>7.827880859375</ele>
        <time>2015-07-25T00:14:18Z</time>
      </trkpt>
      <trkpt lat="43.38339" lon="6.806">
        <ele>7.827880859375</ele>
        <time>2015-07-25T00:14:38Z</time>
      </trkpt>
      <trkpt lat="43.38327" lon="6.80635">
        <ele>7.827880859375</ele>
        <time>2015-07-25T00:14:53Z</time>
      </trkpt>
      <trkpt lat="43.38315" lon="6.80643">
        <ele>7.827880859375</ele>
        <time>2015-07-25T00:15:00Z</time>
      </trkpt>
      <trkpt lat="43.38275" lon="6.80658">
        <ele>7.827880859375</ele>
        <time>2015-07-25T00:15:21Z</time>
      </trkpt>
      <trkpt lat="43.38258" lon="6.80701">
        <ele>7.827880859375</ele>
        <time>2015-07-25T00:15:40Z</time>
      </trkpt>
      <trkpt lat="43.38245" lon="6.80744">
        <ele>8.30859375</ele>
        <time>2015-07-25T00:15:59Z</time>
      </trkpt>
      <trkpt lat="43.3821" lon="6.8078">
        <ele>7.827880859375</ele>
        <time>2015-07-25T00:16:20Z</time>
      </trkpt>
      <trkpt lat="43.38181" lon="6.80803">
        <ele>7.827880859375</ele>
        <time>2015-07-25T00:16:37Z</time>
      </trkpt>
      <trkpt lat="43.38157" lon="6.80842">
        <ele>7.34716796875</ele>
        <time>2015-07-25T00:16:56Z</time>
      </trkpt>
      <trkpt lat="43.38138" lon="6.80886">
        <ele>7.827880859375</ele>
        <time>2015-07-25T00:17:16Z</time>
      </trkpt>
      <trkpt lat="43.38109" lon="6.80931">
        <ele>7.34716796875</ele>
        <time>2015-07-25T00:17:37Z</time>
      </trkpt>
      <trkpt lat="43.38081" lon="6.80967">
        <ele>8.30859375</ele>
        <time>2015-07-25T00:17:56Z</time>
      </trkpt>
      <trkpt lat="43.38057" lon="6.81006">
        <ele>8.30859375</ele>
        <time>2015-07-25T00:18:16Z</time>
      </trkpt>
      <trkpt lat="43.38033" lon="6.81043">
        <ele>7.827880859375</ele>
        <time>2015-07-25T00:18:34Z</time>
      </trkpt>
      <trkpt lat="43.38" lon="6.81073">
        <ele>7.827880859375</ele>
        <time>2015-07-25T00:18:54Z</time>
      </trkpt>
      <trkpt lat="43.37981" lon="6.81105">
        <ele>8.30859375</ele>
        <time>2015-07-25T00:19:10Z</time>
      </trkpt>
      <trkpt lat="43.37954" lon="6.81152">
        <ele>8.30859375</ele>
        <time>2015-07-25T00:19:33Z</time>
      </trkpt>
      <trkpt lat="43.3792" lon="6.81171">
        <ele>8.30859375</ele>
        <time>2015-07-25T00:19:52Z</time>
      </trkpt>
      <trkpt lat="43.37889" lon="6.812">
        <ele>8.30859375</ele>
        <time>2015-07-25T00:20:12Z</time>
      </trkpt>
      <trkpt lat="43.37866" lon="6.8124">
        <ele>8.30859375</ele>
        <time>2015-07-25T00:20:32Z</time>
      </trkpt>
      <trkpt lat="43.37844" lon="6.81283">
        <ele>8.30859375</ele>
        <time>2015-07-25T00:20:51Z</time>
      </trkpt>
      <trkpt lat="43.37816" lon="6.81328">
        <ele>8.30859375</ele>
        <time>2015-07-25T00:21:13Z</time>
      </trkpt>
      <trkpt lat="43.37804" lon="6.81369">
        <ele>7.827880859375</ele>
        <time>2015-07-25T00:21:30Z</time>
      </trkpt>
      <trkpt lat="43.37779" lon="6.81403">
        <ele>8.30859375</ele>
        <time>2015-07-25T00:21:48Z</time>
      </trkpt>
      <trkpt lat="43.37748" lon="6.81433">
        <ele>8.30859375</ele>
        <time>2015-07-25T00:22:07Z</time>
      </trkpt>
      <trkpt lat="43.37726" lon="6.81474">
        <ele>7.827880859375</ele>
        <time>2015-07-25T00:22:26Z</time>
      </trkpt>
      <trkpt lat="43.37697" lon="6.81509">
        <ele>8.30859375</ele>
        <time>2015-07-25T00:22:45Z</time>
      </trkpt>
      <trkpt lat="43.37674" lon="6.81554">
        <ele>8.30859375</ele>
        <time>2015-07-25T00:23:05Z</time>
      </trkpt>
      <trkpt lat="43.37658" lon="6.81583">
        <ele>7.827880859375</ele>
        <time>2015-07-25T00:23:19Z</time>
      </trkpt>
      <trkpt lat="43.37634" lon="6.81602">
        <ele>7.827880859375</ele>
        <time>2015-07-25T00:23:34Z</time>
      </trkpt>
      <trkpt lat="43.37603" lon="6.81621">
        <ele>8.30859375</ele>
        <time>2015-07-25T00:23:51Z</time>
      </trkpt>
      <trkpt lat="43.37584" lon="6.81645">
        <ele>7.827880859375</ele>
        <time>2015-07-25T00:24:04Z</time>
      </trkpt>
      <trkpt lat="43.37575" lon="6.81663">
        <ele>7.827880859375</ele>
        <time>2015-07-25T00:24:13Z</time>
      </trkpt>
      <trkpt lat="43.37554" lon="6.81695">
        <ele>9.2698974609375</ele>
        <time>2015-07-25T00:24:31Z</time>
      </trkpt>
      <trkpt lat="43.37532" lon="6.81709">
        <ele>10.231201171875</ele>
        <time>2015-07-25T00:24:43Z</time>
      </trkpt>
      <trkpt lat="43.37513" lon="6.81724">
        <ele>8.7891845703125</ele>
        <time>2015-07-25T00:24:54Z</time>
      </trkpt>
      <trkpt lat="43.3749" lon="6.8176">
        <ele>10.231201171875</ele>
        <time>2015-07-25T00:25:13Z</time>
      </trkpt>
      <trkpt lat="43.37454" lon="6.81813">
        <ele>8.7891845703125</ele>
        <time>2015-07-25T00:25:39Z</time>
      </trkpt>
      <trkpt lat="43.37445" lon="6.81822">
        <ele>8.7891845703125</ele>
        <time>2015-07-25T00:25:45Z</time>
      </trkpt>
      <trkpt lat="43.37437" lon="6.81829">
        <ele>9.2698974609375</ele>
        <time>2015-07-25T00:25:50Z</time>
      </trkpt>
      <trkpt lat="43.37399" lon="6.8187">
        <ele>9.2698974609375</ele>
        <time>2015-07-25T00:26:15Z</time>
      </trkpt>
      <trkpt lat="43.37379" lon="6.8191">
        <ele>8.30859375</ele>
        <time>2015-07-25T00:26:34Z</time>
      </trkpt>
      <trkpt lat="43.37356" lon="6.81962">
        <ele>8.7891845703125</ele>
        <time>2015-07-25T00:26:57Z</time>
      </trkpt>
      <trkpt lat="43.37345" lon="6.81978">
        <ele>8.7891845703125</ele>
        <time>2015-07-25T00:27:06Z</time>
      </trkpt>
      <trkpt lat="43.37312" lon="6.82015">
        <ele>8.30859375</ele>
        <time>2015-07-25T00:27:28Z</time>
      </trkpt>
      <trkpt lat="43.3731" lon="6.82019">
        <ele>8.30859375</ele>
        <time>2015-07-25T00:27:30Z</time>
      </trkpt>
      <trkpt lat="43.37293" lon="6.82056">
        <ele>7.827880859375</ele>
        <time>2015-07-25T00:27:47Z</time>
      </trkpt>
      <trkpt lat="43.37269" lon="6.82079">
        <ele>8.7891845703125</ele>
        <time>2015-07-25T00:28:00Z</time>
      </trkpt>
      <trkpt lat="43.37265" lon="6.82082">
        <ele>7.34716796875</ele>
        <time>2015-07-25T00:28:02Z</time>
      </trkpt>
      <trkpt lat="43.37252" lon="6.82093">
        <ele>10.231201171875</ele>
        <time>2015-07-25T00:28:10Z</time>
      </trkpt>
      <trkpt lat="43.37251" lon="6.82095">
        <ele>10.231201171875</ele>
        <time>2015-07-25T00:28:11Z</time>
      </trkpt>
      <trkpt lat="43.37248" lon="6.82098">
        <ele>8.7891845703125</ele>
        <time>2015-07-25T00:28:13Z</time>
      </trkpt>
      <trkpt lat="43.37227" lon="6.82133">
        <ele>8.30859375</ele>
        <time>2015-07-25T00:28:31Z</time>
      </trkpt>
      <trkpt lat="43.37214" lon="6.82146">
        <ele>9.2698974609375</ele>
        <time>2015-07-25T00:28:39Z</time>
      </trkpt>
      <trkpt lat="43.37211" lon="6.82149">
        <ele>7.827880859375</ele>
        <time>2015-07-25T00:28:41Z</time>
      </trkpt>
      <trkpt lat="43.37198" lon="6.82165">
        <ele>8.30859375</ele>
        <time>2015-07-25T00:28:50Z</time>
      </trkpt>
      <trkpt lat="43.37174" lon="6.82211">
        <ele>8.30859375</ele>
        <time>2015-07-25T00:29:11Z</time>
      </trkpt>
      <trkpt lat="43.37155" lon="6.82247">
        <ele>7.34716796875</ele>
        <time>2015-07-25T00:29:29Z</time>
      </trkpt>
      <trkpt lat="43.37128" lon="6.82272">
        <ele>7.827880859375</ele>
        <time>2015-07-25T00:29:46Z</time>
      </trkpt>
      <trkpt lat="43.37102" lon="6.82307">
        <ele>8.30859375</ele>
        <time>2015-07-25T00:30:05Z</time>
      </trkpt>
      <trkpt lat="43.37082" lon="6.82352">
        <ele>8.30859375</ele>
        <time>2015-07-25T00:30:24Z</time>
      </trkpt>
      <trkpt lat="43.3706" lon="6.82384">
        <ele>7.827880859375</ele>
        <time>2015-07-25T00:30:41Z</time>
      </trkpt>
      <trkpt lat="43.3704" lon="6.82413">
        <ele>8.30859375</ele>
        <time>2015-07-25T00:30:57Z</time>
      </trkpt>
      <trkpt lat="43.37009" lon="6.82445">
        <ele>7.827880859375</ele>
        <time>2015-07-25T00:31:16Z</time>
      </trkpt>
      <trkpt lat="43.36983" lon="6.82466">
        <ele>8.30859375</ele>
        <time>2015-07-25T00:31:32Z</time>
      </trkpt>
      <trkpt lat="43.36961" lon="6.82491">
        <ele>8.30859375</ele>
        <time>2015-07-25T00:31:47Z</time>
      </trkpt>
      <trkpt lat="43.36932" lon="6.82536">
        <ele>8.7891845703125</ele>
        <time>2015-07-25T00:32:09Z</time>
      </trkpt>
      <trkpt lat="43.36901" lon="6.82565">
        <ele>8.30859375</ele>
        <time>2015-07-25T00:32:28Z</time>
      </trkpt>
      <trkpt lat="43.36884" lon="6.82596">
        <ele>8.30859375</ele>
        <time>2015-07-25T00:32:44Z</time>
      </trkpt>
      <trkpt lat="43.36872" lon="6.82616">
        <ele>8.30859375</ele>
        <time>2015-07-25T00:32:54Z</time>
      </trkpt>
      <trkpt lat="43.36839" lon="6.82641">
        <ele>7.827880859375</ele>
        <time>2015-07-25T00:33:14Z</time>
      </trkpt>
      <trkpt lat="43.36832" lon="6.8265">
        <ele>9.2698974609375</ele>
        <time>2015-07-25T00:33:19Z</time>
      </trkpt>
      <trkpt lat="43.3682" lon="6.82669">
        <ele>6.866455078125</ele>
        <time>2015-07-25T00:33:28Z</time>
      </trkpt>
      <trkpt lat="43.36819" lon="6.82673">
        <ele>8.30859375</ele>
        <time>2015-07-25T00:33:30Z</time>
      </trkpt>
      <trkpt lat="43.36814" lon="6.82683">
        <ele>7.34716796875</ele>
        <time>2015-07-25T00:33:35Z</time>
      </trkpt>
      <trkpt lat="43.36792" lon="6.82711">
        <ele>8.7891845703125</ele>
        <time>2015-07-25T00:33:49Z</time>
      </trkpt>
      <trkpt lat="43.36757" lon="6.82733">
        <ele>7.827880859375</ele>
        <time>2015-07-25T00:34:08Z</time>
      </trkpt>
      <trkpt lat="43.36735" lon="6.82753">
        <ele>8.7891845703125</ele>
        <time>2015-07-25T00:34:23Z</time>
      </trkpt>
      <trkpt lat="43.3672" lon="6.82783">
        <ele>7.827880859375</ele>
        <time>2015-07-25T00:34:38Z</time>
      </trkpt>
      <trkpt lat="43.36716" lon="6.82791">
        <ele>8.30859375</ele>
        <time>2015-07-25T00:34:41Z</time>
      </trkpt>
      <trkpt lat="43.36697" lon="6.82833">
        <ele>7.827880859375</ele>
        <time>2015-07-25T00:34:59Z</time>
      </trkpt>
      <trkpt lat="43.36675" lon="6.8287">
        <ele>7.827880859375</ele>
        <time>2015-07-25T00:35:17Z</time>
      </trkpt>
      <trkpt lat="43.36651" lon="6.82898">
        <ele>7.34716796875</ele>
        <time>2015-07-25T00:35:34Z</time>
      </trkpt>
      <trkpt lat="43.36621" lon="6.82939">
        <ele>7.827880859375</ele>
        <time>2015-07-25T00:35:56Z</time>
      </trkpt>
      <trkpt lat="43.36597" lon="6.8298">
        <ele>8.30859375</ele>
        <time>2015-07-25T00:36:16Z</time>
      </trkpt>
      <trkpt lat="43.36575" lon="6.83014">
        <ele>7.827880859375</ele>
        <time>2015-07-25T00:36:33Z</time>
      </trkpt>
      <trkpt lat="43.36562" lon="6.8303">
        <ele>8.30859375</ele>
        <time>2015-07-25T00:36:42Z</time>
      </trkpt>
      <trkpt lat="43.36539" lon="6.83064">
        <ele>7.827880859375</ele>
        <time>2015-07-25T00:37:00Z</time>
      </trkpt>
      <trkpt lat="43.36523" lon="6.83099">
        <ele>7.827880859375</ele>
        <time>2015-07-25T00:37:16Z</time>
      </trkpt>
      <trkpt lat="43.36489" lon="6.83127">
        <ele>7.827880859375</ele>
        <time>2015-07-25T00:37:35Z</time>
      </trkpt>
      <trkpt lat="43.36462" lon="6.83142">
        <ele>7.827880859375</ele>
        <time>2015-07-25T00:37:50Z</time>
      </trkpt>
      <trkpt lat="43.36438" lon="6.83163">
        <ele>6.866455078125</ele>
        <time>2015-07-25T00:38:04Z</time>
      </trkpt>
      <trkpt lat="43.36435" lon="6.83166">
        <ele>8.7891845703125</ele>
        <time>2015-07-25T00:38:06Z</time>
      </trkpt>
      <trkpt lat="43.36433" lon="6.83167">
        <ele>5.424560546875</ele>
        <time>2015-07-25T00:38:07Z</time>
      </trkpt>
      <trkpt lat="43.36432" lon="6.83168">
        <ele>7.34716796875</ele>
        <time>2015-07-25T00:38:08Z</time>
      </trkpt>
      <trkpt lat="43.36424" lon="6.83178">
        <ele>10.231201171875</ele>
        <time>2015-07-25T00:38:13Z</time>
      </trkpt>
      <trkpt lat="43.36422" lon="6.83181">
        <ele>7.827880859375</ele>
        <time>2015-07-25T00:38:15Z</time>
      </trkpt>
      <trkpt lat="43.36397" lon="6.83226">
        <ele>7.827880859375</ele>
        <time>2015-07-25T00:38:37Z</time>
      </trkpt>
      <trkpt lat="43.36365" lon="6.83268">
        <ele>7.827880859375</ele>
        <time>2015-07-25T00:39:00Z</time>
      </trkpt>
      <trkpt lat="43.3634" lon="6.83302">
        <ele>7.827880859375</ele>
        <time>2015-07-25T00:39:19Z</time>
      </trkpt>
      <trkpt lat="43.36317" lon="6.8334">
        <ele>7.827880859375</ele>
        <time>2015-07-25T00:39:38Z</time>
      </trkpt>
      <trkpt lat="43.36288" lon="6.83371">
        <ele>6.866455078125</ele>
        <time>2015-07-25T00:39:57Z</time>
      </trkpt>
      <trkpt lat="43.36264" lon="6.83413">
        <ele>7.827880859375</ele>
        <time>2015-07-25T00:40:17Z</time>
      </trkpt>
      <trkpt lat="43.36238" lon="6.83442">
        <ele>7.827880859375</ele>
        <time>2015-07-25T00:40:34Z</time>
      </trkpt>
      <trkpt lat="43.36208" lon="6.83472">
        <ele>7.34716796875</ele>
        <time>2015-07-25T00:40:53Z</time>
      </trkpt>
      <trkpt lat="43.36173" lon="6.83511">
        <ele>7.827880859375</ele>
        <time>2015-07-25T00:41:16Z</time>
      </trkpt>
      <trkpt lat="43.3615" lon="6.83556">
        <ele>7.827880859375</ele>
        <time>2015-07-25T00:41:37Z</time>
      </trkpt>
      <trkpt lat="43.36114" lon="6.8359">
        <ele>7.827880859375</ele>
        <time>2015-07-25T00:42:00Z</time>
      </trkpt>
      <trkpt lat="43.36085" lon="6.83607">
        <ele>7.827880859375</ele>
        <time>2015-07-25T00:42:16Z</time>
      </trkpt>
      <trkpt lat="43.36061" lon="6.83645">
        <ele>7.34716796875</ele>
        <time>2015-07-25T00:42:35Z</time>
      </trkpt>
      <trkpt lat="43.36035" lon="6.83688">
        <ele>7.827880859375</ele>
        <time>2015-07-25T00:42:56Z</time>
      </trkpt>
      <trkpt lat="43.36001" lon="6.83711">
        <ele>7.34716796875</ele>
        <time>2015-07-25T00:43:15Z</time>
      </trkpt>
      <trkpt lat="43.35979" lon="6.83735">
        <ele>7.34716796875</ele>
        <time>2015-07-25T00:43:30Z</time>
      </trkpt>
      <trkpt lat="43.35963" lon="6.83774">
        <ele>7.34716796875</ele>
        <time>2015-07-25T00:43:47Z</time>
      </trkpt>
      <trkpt lat="43.35955" lon="6.83811">
        <ele>7.34716796875</ele>
        <time>2015-07-25T00:44:03Z</time>
      </trkpt>
      <trkpt lat="43.35928" lon="6.83848">
        <ele>7.827880859375</ele>
        <time>2015-07-25T00:44:22Z</time>
      </trkpt>
      <trkpt lat="43.35897" lon="6.83874">
        <ele>7.34716796875</ele>
        <time>2015-07-25T00:44:39Z</time>
      </trkpt>
      <trkpt lat="43.35873" lon="6.83915">
        <ele>6.866455078125</ele>
        <time>2015-07-25T00:44:59Z</time>
      </trkpt>
      <trkpt lat="43.35861" lon="6.83956">
        <ele>7.827880859375</ele>
        <time>2015-07-25T00:45:16Z</time>
      </trkpt>
      <trkpt lat="43.35843" lon="6.84001">
        <ele>7.827880859375</ele>
        <time>2015-07-25T00:45:35Z</time>
      </trkpt>
      <trkpt lat="43.35817" lon="6.84046">
        <ele>7.827880859375</ele>
        <time>2015-07-25T00:45:56Z</time>
      </trkpt>
      <trkpt lat="43.35793" lon="6.84093">
        <ele>7.34716796875</ele>
        <time>2015-07-25T00:46:18Z</time>
      </trkpt>
      <trkpt lat="43.35771" lon="6.8413">
        <ele>7.34716796875</ele>
        <time>2015-07-25T00:46:35Z</time>
      </trkpt>
      <trkpt lat="43.35744" lon="6.84166">
        <ele>7.827880859375</ele>
        <time>2015-07-25T00:46:54Z</time>
      </trkpt>
      <trkpt lat="43.35722" lon="6.84206">
        <ele>7.827880859375</ele>
        <time>2015-07-25T00:47:13Z</time>
      </trkpt>
      <trkpt lat="43.35705" lon="6.84245">
        <ele>7.34716796875</ele>
        <time>2015-07-25T00:47:30Z</time>
      </trkpt>
      <trkpt lat="43.3567" lon="6.84278">
        <ele>7.827880859375</ele>
        <time>2015-07-25T00:47:51Z</time>
      </trkpt>
      <trkpt lat="43.35642" lon="6.84316">
        <ele>7.827880859375</ele>
        <time>2015-07-25T00:48:12Z</time>
      </trkpt>
      <trkpt lat="43.35621" lon="6.84354">
        <ele>7.827880859375</ele>
        <time>2015-07-25T00:48:29Z</time>
      </trkpt>
      <trkpt lat="43.35586" lon="6.8442">
        <ele>7.34716796875</ele>
        <time>2015-07-25T00:49:00Z</time>
      </trkpt>
      <trkpt lat="43.35551" lon="6.84469">
        <ele>7.827880859375</ele>
        <time>2015-07-25T00:49:25Z</time>
      </trkpt>
      <trkpt lat="43.35536" lon="6.84496">
        <ele>7.827880859375</ele>
        <time>2015-07-25T00:49:37Z</time>
      </trkpt>
      <trkpt lat="43.35529" lon="6.84512">
        <ele>6.3858642578125</ele>
        <time>2015-07-25T00:49:43Z</time>
      </trkpt>
      <trkpt lat="43.35507" lon="6.84532">
        <ele>7.34716796875</ele>
        <time>2015-07-25T00:49:56Z</time>
      </trkpt>
      <trkpt lat="43.3548" lon="6.84558">
        <ele>7.34716796875</ele>
        <time>2015-07-25T00:50:13Z</time>
      </trkpt>
      <trkpt lat="43.3547" lon="6.84577">
        <ele>9.2698974609375</ele>
        <time>2015-07-25T00:50:23Z</time>
      </trkpt>
      <trkpt lat="43.35447" lon="6.84619">
        <ele>7.827880859375</ele>
        <time>2015-07-25T00:50:42Z</time>
      </trkpt>
      <trkpt lat="43.35443" lon="6.84625">
        <ele>9.2698974609375</ele>
        <time>2015-07-25T00:50:45Z</time>
      </trkpt>
      <trkpt lat="43.35407" lon="6.84656">
        <ele>7.827880859375</ele>
        <time>2015-07-25T00:51:06Z</time>
      </trkpt>
      <trkpt lat="43.35385" lon="6.8468">
        <ele>8.30859375</ele>
        <time>2015-07-25T00:51:20Z</time>
      </trkpt>
      <trkpt lat="43.35381" lon="6.84687">
        <ele>6.3858642578125</ele>
        <time>2015-07-25T00:51:23Z</time>
      </trkpt>
      <trkpt lat="43.35364" lon="6.84722">
        <ele>5.9052734375</ele>
        <time>2015-07-25T00:51:38Z</time>
      </trkpt>
      <trkpt lat="43.35351" lon="6.84738">
        <ele>7.34716796875</ele>
        <time>2015-07-25T00:51:48Z</time>
      </trkpt>
      <trkpt lat="43.35336" lon="6.84773">
        <ele>6.866455078125</ele>
        <time>2015-07-25T00:52:05Z</time>
      </trkpt>
      <trkpt lat="43.35332" lon="6.84816">
        <ele>6.866455078125</ele>
        <time>2015-07-25T00:52:22Z</time>
      </trkpt>
      <trkpt lat="43.35313" lon="6.8484">
        <ele>6.866455078125</ele>
        <time>2015-07-25T00:52:35Z</time>
      </trkpt>
      <trkpt lat="43.35286" lon="6.84855">
        <ele>6.866455078125</ele>
        <time>2015-07-25T00:52:49Z</time>
      </trkpt>
      <trkpt lat="43.3527" lon="6.84886">
        <ele>6.3858642578125</ele>
        <time>2015-07-25T00:53:02Z</time>
      </trkpt>
      <trkpt lat="43.35259" lon="6.8491">
        <ele>6.866455078125</ele>
        <time>2015-07-25T00:53:13Z</time>
      </trkpt>
      <trkpt lat="43.3524" lon="6.84931">
        <ele>6.866455078125</ele>
        <time>2015-07-25T00:53:25Z</time>
      </trkpt>
      <trkpt lat="43.35221" lon="6.84946">
        <ele>6.3858642578125</ele>
        <time>2015-07-25T00:53:36Z</time>
      </trkpt>
      <trkpt lat="43.35205" lon="6.84964">
        <ele>6.866455078125</ele>
        <time>2015-07-25T00:53:47Z</time>
      </trkpt>
      <trkpt lat="43.3519" lon="6.84987">
        <ele>6.866455078125</ele>
        <time>2015-07-25T00:53:57Z</time>
      </trkpt>
      <trkpt lat="43.35187" lon="6.84992">
        <ele>6.3858642578125</ele>
        <time>2015-07-25T00:53:59Z</time>
      </trkpt>
      <trkpt lat="43.35171" lon="6.85016">
        <ele>6.866455078125</ele>
        <time>2015-07-25T00:54:10Z</time>
      </trkpt>
      <trkpt lat="43.35149" lon="6.85034">
        <ele>6.866455078125</ele>
        <time>2015-07-25T00:54:24Z</time>
      </trkpt>
      <trkpt lat="43.35134" lon="6.85048">
        <ele>6.866455078125</ele>
        <time>2015-07-25T00:54:33Z</time>
      </trkpt>
      <trkpt lat="43.35112" lon="6.8508">
        <ele>6.866455078125</ele>
        <time>2015-07-25T00:54:47Z</time>
      </trkpt>
      <trkpt lat="43.35095" lon="6.85104">
        <ele>6.866455078125</ele>
        <time>2015-07-25T00:54:59Z</time>
      </trkpt>
      <trkpt lat="43.35079" lon="6.85124">
        <ele>7.34716796875</ele>
        <time>2015-07-25T00:55:09Z</time>
      </trkpt>
      <trkpt lat="43.35062" lon="6.85138">
        <ele>6.866455078125</ele>
        <time>2015-07-25T00:55:21Z</time>
      </trkpt>
      <trkpt lat="43.35043" lon="6.85164">
        <ele>6.866455078125</ele>
        <time>2015-07-25T00:55:34Z</time>
      </trkpt>
      <trkpt lat="43.35026" lon="6.85184">
        <ele>6.866455078125</ele>
        <time>2015-07-25T00:55:45Z</time>
      </trkpt>
      <trkpt lat="43.3501" lon="6.85199">
        <ele>6.866455078125</ele>
        <time>2015-07-25T00:55:54Z</time>
      </trkpt>
      <trkpt lat="43.34992" lon="6.85221">
        <ele>6.866455078125</ele>
        <time>2015-07-25T00:56:06Z</time>
      </trkpt>
      <trkpt lat="43.34972" lon="6.8525">
        <ele>6.3858642578125</ele>
        <time>2015-07-25T00:56:19Z</time>
      </trkpt>
      <trkpt lat="43.34967" lon="6.85256">
        <ele>6.866455078125</ele>
        <time>2015-07-25T00:56:22Z</time>
      </trkpt>
      <trkpt lat="43.34946" lon="6.85281">
        <ele>6.3858642578125</ele>
        <time>2015-07-25T00:56:36Z</time>
      </trkpt>
      <trkpt lat="43.34925" lon="6.85306">
        <ele>6.866455078125</ele>
        <time>2015-07-25T00:56:48Z</time>
      </trkpt>
      <trkpt lat="43.34905" lon="6.85329">
        <ele>6.3858642578125</ele>
        <time>2015-07-25T00:57:01Z</time>
      </trkpt>
      <trkpt lat="43.34893" lon="6.85344">
        <ele>6.866455078125</ele>
        <time>2015-07-25T00:57:10Z</time>
      </trkpt>
      <trkpt lat="43.3488" lon="6.85358">
        <ele>6.866455078125</ele>
        <time>2015-07-25T00:57:20Z</time>
      </trkpt>
      <trkpt lat="43.34862" lon="6.85381">
        <ele>6.866455078125</ele>
        <time>2015-07-25T00:57:30Z</time>
      </trkpt>
      <trkpt lat="43.34839" lon="6.85408">
        <ele>6.866455078125</ele>
        <time>2015-07-25T00:57:44Z</time>
      </trkpt>
      <trkpt lat="43.34818" lon="6.85431">
        <ele>6.3858642578125</ele>
        <time>2015-07-25T00:57:57Z</time>
      </trkpt>
      <trkpt lat="43.34807" lon="6.85442">
        <ele>6.3858642578125</ele>
        <time>2015-07-25T00:58:04Z</time>
      </trkpt>
      <trkpt lat="43.34791" lon="6.85463">
        <ele>6.3858642578125</ele>
        <time>2015-07-25T00:58:15Z</time>
      </trkpt>
      <trkpt lat="43.34775" lon="6.85484">
        <ele>5.9052734375</ele>
        <time>2015-07-25T00:58:26Z</time>
      </trkpt>
      <trkpt lat="43.34753" lon="6.85508">
        <ele>5.9052734375</ele>
        <time>2015-07-25T00:58:38Z</time>
      </trkpt>
      <trkpt lat="43.34736" lon="6.8553">
        <ele>7.34716796875</ele>
        <time>2015-07-25T00:58:50Z</time>
      </trkpt>
      <trkpt lat="43.34712" lon="6.85558">
        <ele>6.866455078125</ele>
        <time>2015-07-25T00:59:05Z</time>
      </trkpt>
      <trkpt lat="43.34676" lon="6.85597">
        <ele>6.866455078125</ele>
        <time>2015-07-25T00:59:27Z</time>
      </trkpt>
      <trkpt lat="43.34648" lon="6.85626">
        <ele>7.827880859375</ele>
        <time>2015-07-25T00:59:44Z</time>
      </trkpt>
      <trkpt lat="43.34623" lon="6.85654">
        <ele>5.9052734375</ele>
        <time>2015-07-25T00:59:59Z</time>
      </trkpt>
      <trkpt lat="43.34606" lon="6.85687">
        <ele>6.3858642578125</ele>
        <time>2015-07-25T01:00:14Z</time>
      </trkpt>
      <trkpt lat="43.34583" lon="6.85716">
        <ele>6.3858642578125</ele>
        <time>2015-07-25T01:00:28Z</time>
      </trkpt>
      <trkpt lat="43.34565" lon="6.8573">
        <ele>5.9052734375</ele>
        <time>2015-07-25T01:00:38Z</time>
      </trkpt>
      <trkpt lat="43.34542" lon="6.8575">
        <ele>6.866455078125</ele>
        <time>2015-07-25T01:00:51Z</time>
      </trkpt>
      <trkpt lat="43.3452" lon="6.85776">
        <ele>5.9052734375</ele>
        <time>2015-07-25T01:01:05Z</time>
      </trkpt>
      <trkpt lat="43.34505" lon="6.85796">
        <ele>5.9052734375</ele>
        <time>2015-07-25T01:01:16Z</time>
      </trkpt>
      <trkpt lat="43.34489" lon="6.85813">
        <ele>5.9052734375</ele>
        <time>2015-07-25T01:01:25Z</time>
      </trkpt>
      <trkpt lat="43.34472" lon="6.8583">
        <ele>6.3858642578125</ele>
        <time>2015-07-25T01:01:35Z</time>
      </trkpt>
      <trkpt lat="43.34455" lon="6.85853">
        <ele>5.9052734375</ele>
        <time>2015-07-25T01:01:47Z</time>
      </trkpt>
      <trkpt lat="43.3444" lon="6.85869">
        <ele>5.9052734375</ele>
        <time>2015-07-25T01:01:57Z</time>
      </trkpt>
      <trkpt lat="43.34422" lon="6.85892">
        <ele>5.9052734375</ele>
        <time>2015-07-25T01:02:08Z</time>
      </trkpt>
      <trkpt lat="43.34405" lon="6.85911">
        <ele>5.9052734375</ele>
        <time>2015-07-25T01:02:19Z</time>
      </trkpt>
      <trkpt lat="43.34397" lon="6.8592">
        <ele>5.9052734375</ele>
        <time>2015-07-25T01:02:24Z</time>
      </trkpt>
      <trkpt lat="43.34374" lon="6.85944">
        <ele>5.9052734375</ele>
        <time>2015-07-25T01:02:36Z</time>
      </trkpt>
      <trkpt lat="43.34357" lon="6.85958">
        <ele>5.9052734375</ele>
        <time>2015-07-25T01:02:46Z</time>
      </trkpt>
      <trkpt lat="43.3433" lon="6.85996">
        <ele>5.424560546875</ele>
        <time>2015-07-25T01:03:03Z</time>
      </trkpt>
      <trkpt lat="43.34308" lon="6.86028">
        <ele>5.9052734375</ele>
        <time>2015-07-25T01:03:17Z</time>
      </trkpt>
      <trkpt lat="43.34293" lon="6.8605">
        <ele>5.424560546875</ele>
        <time>2015-07-25T01:03:29Z</time>
      </trkpt>
      <trkpt lat="43.34273" lon="6.86074">
        <ele>5.9052734375</ele>
        <time>2015-07-25T01:03:42Z</time>
      </trkpt>
      <trkpt lat="43.34254" lon="6.86087">
        <ele>5.9052734375</ele>
        <time>2015-07-25T01:03:54Z</time>
      </trkpt>
      <trkpt lat="43.34231" lon="6.86114">
        <ele>5.424560546875</ele>
        <time>2015-07-25T01:04:07Z</time>
      </trkpt>
      <trkpt lat="43.34212" lon="6.86141">
        <ele>5.424560546875</ele>
        <time>2015-07-25T01:04:20Z</time>
      </trkpt>
      <trkpt lat="43.34194" lon="6.86163">
        <ele>5.424560546875</ele>
        <time>2015-07-25T01:04:32Z</time>
      </trkpt>
      <trkpt lat="43.34173" lon="6.86187">
        <ele>5.9052734375</ele>
        <time>2015-07-25T01:04:45Z</time>
      </trkpt>
      <trkpt lat="43.34154" lon="6.86206">
        <ele>5.424560546875</ele>
        <time>2015-07-25T01:04:56Z</time>
      </trkpt>
      <trkpt lat="43.34132" lon="6.86227">
        <ele>5.9052734375</ele>
        <time>2015-07-25T01:05:09Z</time>
      </trkpt>
      <trkpt lat="43.34112" lon="6.86244">
        <ele>5.9052734375</ele>
        <time>2015-07-25T01:05:21Z</time>
      </trkpt>
      <trkpt lat="43.3409" lon="6.8627">
        <ele>4.94384765625</ele>
        <time>2015-07-25T01:05:34Z</time>
      </trkpt>
      <trkpt lat="43.34072" lon="6.86299">
        <ele>4.94384765625</ele>
        <time>2015-07-25T01:05:46Z</time>
      </trkpt>
      <trkpt lat="43.34057" lon="6.86324">
        <ele>4.4632568359375</ele>
        <time>2015-07-25T01:05:57Z</time>
      </trkpt>
      <trkpt lat="43.34054" lon="6.86329">
        <ele>4.94384765625</ele>
        <time>2015-07-25T01:06:00Z</time>
      </trkpt>
      <trkpt lat="43.34046" lon="6.86341">
        <ele>4.94384765625</ele>
        <time>2015-07-25T01:06:05Z</time>
      </trkpt>
      <trkpt lat="43.34027" lon="6.86367">
        <ele>5.424560546875</ele>
        <time>2015-07-25T01:06:18Z</time>
      </trkpt>
      <trkpt lat="43.34008" lon="6.86386">
        <ele>5.9052734375</ele>
        <time>2015-07-25T01:06:28Z</time>
      </trkpt>
      <trkpt lat="43.33989" lon="6.86405">
        <ele>5.9052734375</ele>
        <time>2015-07-25T01:06:39Z</time>
      </trkpt>
      <trkpt lat="43.33964" lon="6.86432">
        <ele>5.9052734375</ele>
        <time>2015-07-25T01:06:53Z</time>
      </trkpt>
      <trkpt lat="43.33946" lon="6.86448">
        <ele>4.94384765625</ele>
        <time>2015-07-25T01:07:03Z</time>
      </trkpt>
      <trkpt lat="43.33926" lon="6.86479">
        <ele>4.94384765625</ele>
        <time>2015-07-25T01:07:17Z</time>
      </trkpt>
      <trkpt lat="43.33918" lon="6.86496">
        <ele>5.424560546875</ele>
        <time>2015-07-25T01:07:24Z</time>
      </trkpt>
      <trkpt lat="43.33894" lon="6.86515">
        <ele>5.424560546875</ele>
        <time>2015-07-25T01:07:37Z</time>
      </trkpt>
      <trkpt lat="43.33861" lon="6.86513">
        <ele>5.9052734375</ele>
        <time>2015-07-25T01:07:52Z</time>
      </trkpt>
      <trkpt lat="43.33823" lon="6.86497">
        <ele>5.9052734375</ele>
        <time>2015-07-25T01:08:09Z</time>
      </trkpt>
      <trkpt lat="43.33792" lon="6.86489">
        <ele>5.9052734375</ele>
        <time>2015-07-25T01:08:24Z</time>
      </trkpt>
      <trkpt lat="43.33759" lon="6.865">
        <ele>5.424560546875</ele>
        <time>2015-07-25T01:08:40Z</time>
      </trkpt>
      <trkpt lat="43.33739" lon="6.86525">
        <ele>4.94384765625</ele>
        <time>2015-07-25T01:08:53Z</time>
      </trkpt>
      <trkpt lat="43.33729" lon="6.86565">
        <ele>4.94384765625</ele>
        <time>2015-07-25T01:09:08Z</time>
      </trkpt>
      <trkpt lat="43.33722" lon="6.86602">
        <ele>4.94384765625</ele>
        <time>2015-07-25T01:09:22Z</time>
      </trkpt>
      <trkpt lat="43.33706" lon="6.86629">
        <ele>5.424560546875</ele>
        <time>2015-07-25T01:09:36Z</time>
      </trkpt>
      <trkpt lat="43.33681" lon="6.86645">
        <ele>5.424560546875</ele>
        <time>2015-07-25T01:09:48Z</time>
      </trkpt>
      <trkpt lat="43.33657" lon="6.86657">
        <ele>5.9052734375</ele>
        <time>2015-07-25T01:10:00Z</time>
      </trkpt>
      <trkpt lat="43.33633" lon="6.86669">
        <ele>5.9052734375</ele>
        <time>2015-07-25T01:10:12Z</time>
      </trkpt>
      <trkpt lat="43.33604" lon="6.86691">
        <ele>4.4632568359375</ele>
        <time>2015-07-25T01:10:26Z</time>
      </trkpt>
      <trkpt lat="43.33599" lon="6.86696">
        <ele>5.9052734375</ele>
        <time>2015-07-25T01:10:29Z</time>
      </trkpt>
      <trkpt lat="43.33565" lon="6.86732">
        <ele>4.94384765625</ele>
        <time>2015-07-25T01:10:49Z</time>
      </trkpt>
      <trkpt lat="43.33537" lon="6.86769">
        <ele>4.94384765625</ele>
        <time>2015-07-25T01:11:07Z</time>
      </trkpt>
      <trkpt lat="43.3351" lon="6.86802">
        <ele>5.424560546875</ele>
        <time>2015-07-25T01:11:24Z</time>
      </trkpt>
      <trkpt lat="43.33476" lon="6.86834">
        <ele>5.9052734375</ele>
        <time>2015-07-25T01:11:41Z</time>
      </trkpt>
      <trkpt lat="43.3344" lon="6.86854">
        <ele>5.424560546875</ele>
        <time>2015-07-25T01:11:58Z</time>
      </trkpt>
      <trkpt lat="43.33434" lon="6.86855">
        <ele>9.7506103515625</ele>
        <time>2015-07-25T01:12:01Z</time>
      </trkpt>
      <trkpt lat="43.33431" lon="6.86854">
        <ele>9.7506103515625</ele>
        <time>2015-07-25T01:12:02Z</time>
      </trkpt>
      <trkpt lat="43.33429" lon="6.86854">
        <ele>5.424560546875</ele>
        <time>2015-07-25T01:12:03Z</time>
      </trkpt>
      <trkpt lat="43.33428" lon="6.86852">
        <ele>5.424560546875</ele>
        <time>2015-07-25T01:12:04Z</time>
      </trkpt>
      <trkpt lat="43.33391" lon="6.86849">
        <ele>5.9052734375</ele>
        <time>2015-07-25T01:12:21Z</time>
      </trkpt>
      <trkpt lat="43.33368" lon="6.86865">
        <ele>3.982666015625</ele>
        <time>2015-07-25T01:12:35Z</time>
      </trkpt>
      <trkpt lat="43.33367" lon="6.86867">
        <ele>3.982666015625</ele>
        <time>2015-07-25T01:12:36Z</time>
      </trkpt>
      <trkpt lat="43.33362" lon="6.869">
        <ele>5.424560546875</ele>
        <time>2015-07-25T01:12:48Z</time>
      </trkpt>
      <trkpt lat="43.3335" lon="6.86921">
        <ele>5.9052734375</ele>
        <time>2015-07-25T01:12:58Z</time>
      </trkpt>
      <trkpt lat="43.33318" lon="6.8694">
        <ele>5.9052734375</ele>
        <time>2015-07-25T01:13:12Z</time>
      </trkpt>
      <trkpt lat="43.33296" lon="6.86955">
        <ele>4.94384765625</ele>
        <time>2015-07-25T01:13:23Z</time>
      </trkpt>
      <trkpt lat="43.33276" lon="6.8698">
        <ele>4.94384765625</ele>
        <time>2015-07-25T01:13:34Z</time>
      </trkpt>
      <trkpt lat="43.33252" lon="6.8701">
        <ele>5.424560546875</ele>
        <time>2015-07-25T01:13:49Z</time>
      </trkpt>
      <trkpt lat="43.33226" lon="6.87035">
        <ele>5.424560546875</ele>
        <time>2015-07-25T01:14:03Z</time>
      </trkpt>
      <trkpt lat="43.3321" lon="6.87052">
        <ele>4.94384765625</ele>
        <time>2015-07-25T01:14:14Z</time>
      </trkpt>
      <trkpt lat="43.33197" lon="6.8707">
        <ele>4.94384765625</ele>
        <time>2015-07-25T01:14:22Z</time>
      </trkpt>
      <trkpt lat="43.33171" lon="6.87097">
        <ele>4.94384765625</ele>
        <time>2015-07-25T01:14:36Z</time>
      </trkpt>
      <trkpt lat="43.33151" lon="6.87118">
        <ele>4.94384765625</ele>
        <time>2015-07-25T01:14:47Z</time>
      </trkpt>
      <trkpt lat="43.33129" lon="6.87138">
        <ele>4.94384765625</ele>
        <time>2015-07-25T01:14:59Z</time>
      </trkpt>
      <trkpt lat="43.33101" lon="6.87163">
        <ele>4.94384765625</ele>
        <time>2015-07-25T01:15:14Z</time>
      </trkpt>
      <trkpt lat="43.33083" lon="6.8718">
        <ele>4.94384765625</ele>
        <time>2015-07-25T01:15:26Z</time>
      </trkpt>
      <trkpt lat="43.33059" lon="6.87209">
        <ele>4.94384765625</ele>
        <time>2015-07-25T01:15:41Z</time>
      </trkpt>
      <trkpt lat="43.33032" lon="6.87243">
        <ele>4.94384765625</ele>
        <time>2015-07-25T01:15:55Z</time>
      </trkpt>
      <trkpt lat="43.33011" lon="6.87268">
        <ele>5.424560546875</ele>
        <time>2015-07-25T01:16:08Z</time>
      </trkpt>
      <trkpt lat="43.32999" lon="6.87278">
        <ele>4.94384765625</ele>
        <time>2015-07-25T01:16:15Z</time>
      </trkpt>
      <trkpt lat="43.32975" lon="6.87311">
        <ele>4.94384765625</ele>
        <time>2015-07-25T01:16:30Z</time>
      </trkpt>
      <trkpt lat="43.3295" lon="6.87344">
        <ele>5.424560546875</ele>
        <time>2015-07-25T01:16:45Z</time>
      </trkpt>
      <trkpt lat="43.32928" lon="6.87367">
        <ele>4.94384765625</ele>
        <time>2015-07-25T01:16:59Z</time>
      </trkpt>
      <trkpt lat="43.32902" lon="6.87396">
        <ele>5.424560546875</ele>
        <time>2015-07-25T01:17:15Z</time>
      </trkpt>
      <trkpt lat="43.32877" lon="6.87421">
        <ele>4.94384765625</ele>
        <time>2015-07-25T01:17:27Z</time>
      </trkpt>
      <trkpt lat="43.32865" lon="6.87432">
        <ele>4.94384765625</ele>
        <time>2015-07-25T01:17:33Z</time>
      </trkpt>
      <trkpt lat="43.32847" lon="6.87445">
        <ele>5.424560546875</ele>
        <time>2015-07-25T01:17:44Z</time>
      </trkpt>
      <trkpt lat="43.32822" lon="6.87471">
        <ele>5.424560546875</ele>
        <time>2015-07-25T01:17:59Z</time>
      </trkpt>
      <trkpt lat="43.328" lon="6.87492">
        <ele>4.94384765625</ele>
        <time>2015-07-25T01:18:09Z</time>
      </trkpt>
      <trkpt lat="43.3278" lon="6.87516">
        <ele>4.94384765625</ele>
        <time>2015-07-25T01:18:23Z</time>
      </trkpt>
      <trkpt lat="43.32754" lon="6.87543">
        <ele>5.424560546875</ele>
        <time>2015-07-25T01:18:38Z</time>
      </trkpt>
      <trkpt lat="43.32725" lon="6.8757">
        <ele>5.424560546875</ele>
        <time>2015-07-25T01:18:52Z</time>
      </trkpt>
      <trkpt lat="43.32703" lon="6.87594">
        <ele>4.94384765625</ele>
        <time>2015-07-25T01:19:05Z</time>
      </trkpt>
      <trkpt lat="43.32679" lon="6.87619">
        <ele>5.424560546875</ele>
        <time>2015-07-25T01:19:18Z</time>
      </trkpt>
      <trkpt lat="43.32661" lon="6.87642">
        <ele>5.424560546875</ele>
        <time>2015-07-25T01:19:30Z</time>
      </trkpt>
      <trkpt lat="43.32639" lon="6.87676">
        <ele>4.94384765625</ele>
        <time>2015-07-25T01:19:43Z</time>
      </trkpt>
      <trkpt lat="43.32625" lon="6.87701">
        <ele>4.94384765625</ele>
        <time>2015-07-25T01:19:55Z</time>
      </trkpt>
      <trkpt lat="43.32605" lon="6.87726">
        <ele>4.94384765625</ele>
        <time>2015-07-25T01:20:09Z</time>
      </trkpt>
      <trkpt lat="43.32581" lon="6.87759">
        <ele>4.94384765625</ele>
        <time>2015-07-25T01:20:23Z</time>
      </trkpt>
      <trkpt lat="43.32567" lon="6.87774">
        <ele>5.424560546875</ele>
        <time>2015-07-25T01:20:31Z</time>
      </trkpt>
      <trkpt lat="43.32543" lon="6.87805">
        <ele>4.94384765625</ele>
        <time>2015-07-25T01:20:45Z</time>
      </trkpt>
      <trkpt lat="43.3252" lon="6.87837">
        <ele>4.94384765625</ele>
        <time>2015-07-25T01:20:59Z</time>
      </trkpt>
      <trkpt lat="43.32497" lon="6.87864">
        <ele>5.424560546875</ele>
        <time>2015-07-25T01:21:12Z</time>
      </trkpt>
      <trkpt lat="43.32477" lon="6.87886">
        <ele>4.94384765625</ele>
        <time>2015-07-25T01:21:24Z</time>
      </trkpt>
      <trkpt lat="43.32455" lon="6.87909">
        <ele>4.94384765625</ele>
        <time>2015-07-25T01:21:37Z</time>
      </trkpt>
      <trkpt lat="43.32433" lon="6.87935">
        <ele>5.424560546875</ele>
        <time>2015-07-25T01:21:50Z</time>
      </trkpt>
      <trkpt lat="43.32408" lon="6.87955">
        <ele>5.424560546875</ele>
        <time>2015-07-25T01:22:02Z</time>
      </trkpt>
      <trkpt lat="43.32393" lon="6.87974">
        <ele>5.424560546875</ele>
        <time>2015-07-25T01:22:12Z</time>
      </trkpt>
      <trkpt lat="43.32366" lon="6.87998">
        <ele>5.424560546875</ele>
        <time>2015-07-25T01:22:26Z</time>
      </trkpt>
      <trkpt lat="43.32339" lon="6.88018">
        <ele>4.94384765625</ele>
        <time>2015-07-25T01:22:39Z</time>
      </trkpt>
      <trkpt lat="43.32309" lon="6.88034">
        <ele>4.94384765625</ele>
        <time>2015-07-25T01:22:53Z</time>
      </trkpt>
      <trkpt lat="43.32286" lon="6.88045">
        <ele>5.9052734375</ele>
        <time>2015-07-25T01:23:04Z</time>
      </trkpt>
      <trkpt lat="43.3226" lon="6.88051">
        <ele>5.424560546875</ele>
        <time>2015-07-25T01:23:16Z</time>
      </trkpt>
      <trkpt lat="43.32227" lon="6.88057">
        <ele>5.424560546875</ele>
        <time>2015-07-25T01:23:30Z</time>
      </trkpt>
      <trkpt lat="43.322" lon="6.88063">
        <ele>5.424560546875</ele>
        <time>2015-07-25T01:23:43Z</time>
      </trkpt>
      <trkpt lat="43.32182" lon="6.88063">
        <ele>5.424560546875</ele>
        <time>2015-07-25T01:23:50Z</time>
      </trkpt>
      <trkpt lat="43.32169" lon="6.88063">
        <ele>5.424560546875</ele>
        <time>2015-07-25T01:23:56Z</time>
      </trkpt>
      <trkpt lat="43.32134" lon="6.88061">
        <ele>5.424560546875</ele>
        <time>2015-07-25T01:24:11Z</time>
      </trkpt>
      <trkpt lat="43.32105" lon="6.88054">
        <ele>5.9052734375</ele>
        <time>2015-07-25T01:24:26Z</time>
      </trkpt>
      <trkpt lat="43.32079" lon="6.88057">
        <ele>5.9052734375</ele>
        <time>2015-07-25T01:24:39Z</time>
      </trkpt>
      <trkpt lat="43.32057" lon="6.88081">
        <ele>4.4632568359375</ele>
        <time>2015-07-25T01:24:51Z</time>
      </trkpt>
      <trkpt lat="43.32056" lon="6.88082">
        <ele>4.94384765625</ele>
        <time>2015-07-25T01:24:52Z</time>
      </trkpt>
      <trkpt lat="43.32037" lon="6.88107">
        <ele>4.94384765625</ele>
        <time>2015-07-25T01:25:04Z</time>
      </trkpt>
      <trkpt lat="43.32009" lon="6.88129">
        <ele>4.4632568359375</ele>
        <time>2015-07-25T01:25:17Z</time>
      </trkpt>
      <trkpt lat="43.32008" lon="6.88131">
        <ele>4.4632568359375</ele>
        <time>2015-07-25T01:25:18Z</time>
      </trkpt>
      <trkpt lat="43.32003" lon="6.88137">
        <ele>4.94384765625</ele>
        <time>2015-07-25T01:25:21Z</time>
      </trkpt>
      <trkpt lat="43.31982" lon="6.8817">
        <ele>5.424560546875</ele>
        <time>2015-07-25T01:25:36Z</time>
      </trkpt>
      <trkpt lat="43.31957" lon="6.88191">
        <ele>4.94384765625</ele>
        <time>2015-07-25T01:25:48Z</time>
      </trkpt>
      <trkpt lat="43.31939" lon="6.88217">
        <ele>5.424560546875</ele>
        <time>2015-07-25T01:26:00Z</time>
      </trkpt>
      <trkpt lat="43.31917" lon="6.88235">
        <ele>4.94384765625</ele>
        <time>2015-07-25T01:26:12Z</time>
      </trkpt>
      <trkpt lat="43.31903" lon="6.88246">
        <ele>4.4632568359375</ele>
        <time>2015-07-25T01:26:20Z</time>
      </trkpt>
      <trkpt lat="43.31878" lon="6.88275">
        <ele>4.4632568359375</ele>
        <time>2015-07-25T01:26:34Z</time>
      </trkpt>
      <trkpt lat="43.31873" lon="6.8828">
        <ele>3.982666015625</ele>
        <time>2015-07-25T01:26:36Z</time>
      </trkpt>
      <trkpt lat="43.31853" lon="6.8831">
        <ele>4.4632568359375</ele>
        <time>2015-07-25T01:26:50Z</time>
      </trkpt>
      <trkpt lat="43.31831" lon="6.88334">
        <ele>4.94384765625</ele>
        <time>2015-07-25T01:27:02Z</time>
      </trkpt>
      <trkpt lat="43.31808" lon="6.88352">
        <ele>4.4632568359375</ele>
        <time>2015-07-25T01:27:14Z</time>
      </trkpt>
      <trkpt lat="43.31791" lon="6.88376">
        <ele>4.4632568359375</ele>
        <time>2015-07-25T01:27:25Z</time>
      </trkpt>
      <trkpt lat="43.31766" lon="6.88398">
        <ele>4.94384765625</ele>
        <time>2015-07-25T01:27:38Z</time>
      </trkpt>
      <trkpt lat="43.31745" lon="6.88418">
        <ele>4.4632568359375</ele>
        <time>2015-07-25T01:27:49Z</time>
      </trkpt>
      <trkpt lat="43.31723" lon="6.88441">
        <ele>4.4632568359375</ele>
        <time>2015-07-25T01:28:01Z</time>
      </trkpt>
      <trkpt lat="43.31698" lon="6.88468">
        <ele>4.4632568359375</ele>
        <time>2015-07-25T01:28:15Z</time>
      </trkpt>
      <trkpt lat="43.31666" lon="6.88493">
        <ele>4.94384765625</ele>
        <time>2015-07-25T01:28:30Z</time>
      </trkpt>
      <trkpt lat="43.31641" lon="6.8852">
        <ele>3.982666015625</ele>
        <time>2015-07-25T01:28:43Z</time>
      </trkpt>
      <trkpt lat="43.31614" lon="6.88559">
        <ele>4.4632568359375</ele>
        <time>2015-07-25T01:29:00Z</time>
      </trkpt>
      <trkpt lat="43.31592" lon="6.88585">
        <ele>3.982666015625</ele>
        <time>2015-07-25T01:29:13Z</time>
      </trkpt>
      <trkpt lat="43.31564" lon="6.88611">
        <ele>3.982666015625</ele>
        <time>2015-07-25T01:29:28Z</time>
      </trkpt>
      <trkpt lat="43.31542" lon="6.8863">
        <ele>3.982666015625</ele>
        <time>2015-07-25T01:29:39Z</time>
      </trkpt>
      <trkpt lat="43.31517" lon="6.88658">
        <ele>4.4632568359375</ele>
        <time>2015-07-25T01:29:51Z</time>
      </trkpt>
      <trkpt lat="43.31509" lon="6.88667">
        <ele>3.501953125</ele>
        <time>2015-07-25T01:29:55Z</time>
      </trkpt>
      <trkpt lat="43.31488" lon="6.887">
        <ele>3.982666015625</ele>
        <time>2015-07-25T01:30:09Z</time>
      </trkpt>
      <trkpt lat="43.31465" lon="6.88726">
        <ele>3.982666015625</ele>
        <time>2015-07-25T01:30:23Z</time>
      </trkpt>
      <trkpt lat="43.3145" lon="6.88753">
        <ele>3.982666015625</ele>
        <time>2015-07-25T01:30:34Z</time>
      </trkpt>
      <trkpt lat="43.31433" lon="6.88774">
        <ele>3.982666015625</ele>
        <time>2015-07-25T01:30:45Z</time>
      </trkpt>
      <trkpt lat="43.31407" lon="6.88795">
        <ele>3.501953125</ele>
        <time>2015-07-25T01:30:59Z</time>
      </trkpt>
      <trkpt lat="43.31386" lon="6.88819">
        <ele>3.982666015625</ele>
        <time>2015-07-25T01:31:11Z</time>
      </trkpt>
      <trkpt lat="43.31362" lon="6.88852">
        <ele>3.501953125</ele>
        <time>2015-07-25T01:31:26Z</time>
      </trkpt>
      <trkpt lat="43.3134" lon="6.88878">
        <ele>3.501953125</ele>
        <time>2015-07-25T01:31:39Z</time>
      </trkpt>
      <trkpt lat="43.31312" lon="6.88901">
        <ele>3.501953125</ele>
        <time>2015-07-25T01:31:53Z</time>
      </trkpt>
      <trkpt lat="43.31306" lon="6.88907">
        <ele>3.021240234375</ele>
        <time>2015-07-25T01:31:56Z</time>
      </trkpt>
      <trkpt lat="43.31294" lon="6.88928">
        <ele>3.021240234375</ele>
        <time>2015-07-25T01:32:05Z</time>
      </trkpt>
      <trkpt lat="43.31288" lon="6.88937">
        <ele>3.021240234375</ele>
        <time>2015-07-25T01:32:09Z</time>
      </trkpt>
      <trkpt lat="43.31262" lon="6.88962">
        <ele>3.982666015625</ele>
        <time>2015-07-25T01:32:24Z</time>
      </trkpt>
      <trkpt lat="43.31238" lon="6.8898">
        <ele>3.021240234375</ele>
        <time>2015-07-25T01:32:37Z</time>
      </trkpt>
      <trkpt lat="43.31211" lon="6.89022">
        <ele>3.021240234375</ele>
        <time>2015-07-25T01:32:55Z</time>
      </trkpt>
      <trkpt lat="43.31188" lon="6.89046">
        <ele>3.501953125</ele>
        <time>2015-07-25T01:33:08Z</time>
      </trkpt>
      <trkpt lat="43.31164" lon="6.89069">
        <ele>3.021240234375</ele>
        <time>2015-07-25T01:33:20Z</time>
      </trkpt>
      <trkpt lat="43.31143" lon="6.89098">
        <ele>3.501953125</ele>
        <time>2015-07-25T01:33:34Z</time>
      </trkpt>
      <trkpt lat="43.31124" lon="6.89122">
        <ele>3.021240234375</ele>
        <time>2015-07-25T01:33:46Z</time>
      </trkpt>
      <trkpt lat="43.31101" lon="6.89139">
        <ele>3.501953125</ele>
        <time>2015-07-25T01:33:57Z</time>
      </trkpt>
      <trkpt lat="43.31077" lon="6.8916">
        <ele>2.5406494140625</ele>
        <time>2015-07-25T01:34:09Z</time>
      </trkpt>
      <trkpt lat="43.31066" lon="6.89176">
        <ele>2.5406494140625</ele>
        <time>2015-07-25T01:34:16Z</time>
      </trkpt>
      <trkpt lat="43.31042" lon="6.89206">
        <ele>2.5406494140625</ele>
        <time>2015-07-25T01:34:29Z</time>
      </trkpt>
      <trkpt lat="43.31022" lon="6.89227">
        <ele>3.021240234375</ele>
        <time>2015-07-25T01:34:43Z</time>
      </trkpt>
      <trkpt lat="43.31003" lon="6.89239">
        <ele>3.021240234375</ele>
        <time>2015-07-25T01:34:53Z</time>
      </trkpt>
      <trkpt lat="43.30979" lon="6.89259">
        <ele>3.021240234375</ele>
        <time>2015-07-25T01:35:05Z</time>
      </trkpt>
      <trkpt lat="43.30958" lon="6.89285">
        <ele>2.5406494140625</ele>
        <time>2015-07-25T01:35:18Z</time>
      </trkpt>
      <trkpt lat="43.30942" lon="6.89304">
        <ele>2.5406494140625</ele>
        <time>2015-07-25T01:35:27Z</time>
      </trkpt>
      <trkpt lat="43.30919" lon="6.89332">
        <ele>2.5406494140625</ele>
        <time>2015-07-25T01:35:41Z</time>
      </trkpt>
      <trkpt lat="43.30895" lon="6.89362">
        <ele>3.021240234375</ele>
        <time>2015-07-25T01:35:56Z</time>
      </trkpt>
      <trkpt lat="43.30875" lon="6.89386">
        <ele>2.5406494140625</ele>
        <time>2015-07-25T01:36:08Z</time>
      </trkpt>
      <trkpt lat="43.3085" lon="6.89415">
        <ele>2.5406494140625</ele>
        <time>2015-07-25T01:36:22Z</time>
      </trkpt>
      <trkpt lat="43.30823" lon="6.8945">
        <ele>2.5406494140625</ele>
        <time>2015-07-25T01:36:38Z</time>
      </trkpt>
      <trkpt lat="43.30797" lon="6.89479">
        <ele>2.5406494140625</ele>
        <time>2015-07-25T01:36:52Z</time>
      </trkpt>
      <trkpt lat="43.30766" lon="6.89503">
        <ele>3.021240234375</ele>
        <time>2015-07-25T01:37:07Z</time>
      </trkpt>
      <trkpt lat="43.30737" lon="6.89518">
        <ele>3.021240234375</ele>
        <time>2015-07-25T01:37:20Z</time>
      </trkpt>
      <trkpt lat="43.30717" lon="6.89528">
        <ele>3.021240234375</ele>
        <time>2015-07-25T01:37:29Z</time>
      </trkpt>
      <trkpt lat="43.30696" lon="6.89539">
        <ele>2.5406494140625</ele>
        <time>2015-07-25T01:37:39Z</time>
      </trkpt>
      <trkpt lat="43.30678" lon="6.89552">
        <ele>2.5406494140625</ele>
        <time>2015-07-25T01:37:48Z</time>
      </trkpt>
      <trkpt lat="43.30647" lon="6.89565">
        <ele>3.501953125</ele>
        <time>2015-07-25T01:38:02Z</time>
      </trkpt>
      <trkpt lat="43.30628" lon="6.89568">
        <ele>3.021240234375</ele>
        <time>2015-07-25T01:38:11Z</time>
      </trkpt>
      <trkpt lat="43.30604" lon="6.89589">
        <ele>2.5406494140625</ele>
        <time>2015-07-25T01:38:23Z</time>
      </trkpt>
      <trkpt lat="43.30574" lon="6.89623">
        <ele>2.5406494140625</ele>
        <time>2015-07-25T01:38:40Z</time>
      </trkpt>
      <trkpt lat="43.30552" lon="6.89648">
        <ele>2.5406494140625</ele>
        <time>2015-07-25T01:38:53Z</time>
      </trkpt>
      <trkpt lat="43.30524" lon="6.89679">
        <ele>3.021240234375</ele>
        <time>2015-07-25T01:39:09Z</time>
      </trkpt>
      <trkpt lat="43.30507" lon="6.89692">
        <ele>3.021240234375</ele>
        <time>2015-07-25T01:39:18Z</time>
      </trkpt>
      <trkpt lat="43.30477" lon="6.8973">
        <ele>2.06005859375</ele>
        <time>2015-07-25T01:39:35Z</time>
      </trkpt>
      <trkpt lat="43.30451" lon="6.89757">
        <ele>2.5406494140625</ele>
        <time>2015-07-25T01:39:49Z</time>
      </trkpt>
      <trkpt lat="43.30425" lon="6.89786">
        <ele>2.5406494140625</ele>
        <time>2015-07-25T01:40:03Z</time>
      </trkpt>
      <trkpt lat="43.30401" lon="6.89808">
        <ele>2.5406494140625</ele>
        <time>2015-07-25T01:40:15Z</time>
      </trkpt>
      <trkpt lat="43.30376" lon="6.89836">
        <ele>2.06005859375</ele>
        <time>2015-07-25T01:40:30Z</time>
      </trkpt>
      <trkpt lat="43.30353" lon="6.89862">
        <ele>2.5406494140625</ele>
        <time>2015-07-25T01:40:44Z</time>
      </trkpt>
      <trkpt lat="43.30331" lon="6.89881">
        <ele>2.5406494140625</ele>
        <time>2015-07-25T01:40:57Z</time>
      </trkpt>
      <trkpt lat="43.30318" lon="6.89891">
        <ele>3.021240234375</ele>
        <time>2015-07-25T01:41:06Z</time>
      </trkpt>
      <trkpt lat="43.30304" lon="6.89897">
        <ele>3.021240234375</ele>
        <time>2015-07-25T01:41:15Z</time>
      </trkpt>
      <trkpt lat="43.30292" lon="6.89906">
        <ele>3.021240234375</ele>
        <time>2015-07-25T01:41:23Z</time>
      </trkpt>
      <trkpt lat="43.30283" lon="6.89913">
        <ele>2.5406494140625</ele>
        <time>2015-07-25T01:41:30Z</time>
      </trkpt>
      <trkpt lat="43.30263" lon="6.89931">
        <ele>2.5406494140625</ele>
        <time>2015-07-25T01:41:44Z</time>
      </trkpt>
      <trkpt lat="43.3025" lon="6.89945">
        <ele>3.501953125</ele>
        <time>2015-07-25T01:41:54Z</time>
      </trkpt>
      <trkpt lat="43.30228" lon="6.89963">
        <ele>1.579345703125</ele>
        <time>2015-07-25T01:42:12Z</time>
      </trkpt>
      <trkpt lat="43.30226" lon="6.89965">
        <ele>2.5406494140625</ele>
        <time>2015-07-25T01:42:14Z</time>
      </trkpt>
      <trkpt lat="43.3022" lon="6.89972">
        <ele>2.06005859375</ele>
        <time>2015-07-25T01:42:19Z</time>
      </trkpt>
      <trkpt lat="43.30215" lon="6.89979">
        <ele>2.5406494140625</ele>
        <time>2015-07-25T01:42:24Z</time>
      </trkpt>
      <trkpt lat="43.30209" lon="6.89984">
        <ele>2.06005859375</ele>
        <time>2015-07-25T01:42:29Z</time>
      </trkpt>
      <trkpt lat="43.30185" lon="6.90006">
        <ele>2.5406494140625</ele>
        <time>2015-07-25T01:42:51Z</time>
      </trkpt>
      <trkpt lat="43.30161" lon="6.90033">
        <ele>1.579345703125</ele>
        <time>2015-07-25T01:43:13Z</time>
      </trkpt>
      <trkpt lat="43.30132" lon="6.90047">
        <ele>2.5406494140625</ele>
        <time>2015-07-25T01:43:34Z</time>
      </trkpt>
      <trkpt lat="43.30098" lon="6.90059">
        <ele>2.06005859375</ele>
        <time>2015-07-25T01:43:57Z</time>
      </trkpt>
      <trkpt lat="43.30067" lon="6.9008">
        <ele>2.06005859375</ele>
        <time>2015-07-25T01:44:18Z</time>
      </trkpt>
      <trkpt lat="43.30056" lon="6.90086">
        <ele>1.0986328125</ele>
        <time>2015-07-25T01:44:25Z</time>
      </trkpt>
      <trkpt lat="43.30036" lon="6.90105">
        <ele>1.0986328125</ele>
        <time>2015-07-25T01:44:40Z</time>
      </trkpt>
      <trkpt lat="43.30033" lon="6.9011">
        <ele>1.0986328125</ele>
        <time>2015-07-25T01:44:43Z</time>
      </trkpt>
      <trkpt lat="43.3002" lon="6.9013">
        <ele>1.0986328125</ele>
        <time>2015-07-25T01:44:58Z</time>
      </trkpt>
      <trkpt lat="43.30013" lon="6.90138">
        <ele>1.579345703125</ele>
        <time>2015-07-25T01:45:03Z</time>
      </trkpt>
      <trkpt lat="43.30008" lon="6.9014">
        <ele>0.6180419921875</ele>
        <time>2015-07-25T01:45:06Z</time>
      </trkpt>
      <trkpt lat="43.29993" lon="6.90155">
        <ele>0.6180419921875</ele>
        <time>2015-07-25T01:45:18Z</time>
      </trkpt>
      <trkpt lat="43.29982" lon="6.90173">
        <ele>0.137451171875</ele>
        <time>2015-07-25T01:45:27Z</time>
      </trkpt>
      <trkpt lat="43.29976" lon="6.90178">
        <ele>1.0986328125</ele>
        <time>2015-07-25T01:45:32Z</time>
      </trkpt>
      <trkpt lat="43.29958" lon="6.90192">
        <ele>0.6180419921875</ele>
        <time>2015-07-25T01:45:45Z</time>
      </trkpt>
      <trkpt lat="43.29941" lon="6.90212">
        <ele>0.137451171875</ele>
        <time>2015-07-25T01:45:57Z</time>
      </trkpt>
      <trkpt lat="43.29928" lon="6.90228">
        <ele>0.6180419921875</ele>
        <time>2015-07-25T01:46:06Z</time>
      </trkpt>
      <trkpt lat="43.29904" lon="6.9025">
        <ele>0.137451171875</ele>
        <time>2015-07-25T01:46:23Z</time>
      </trkpt>
      <trkpt lat="43.29895" lon="6.90259">
        <ele>0.137451171875</ele>
        <time>2015-07-25T01:46:29Z</time>
      </trkpt>
      <trkpt lat="43.29872" lon="6.90279">
        <ele>-0.3433837890625</ele>
        <time>2015-07-25T01:46:44Z</time>
      </trkpt>
      <trkpt lat="43.29855" lon="6.903">
        <ele>0.137451171875</ele>
        <time>2015-07-25T01:46:58Z</time>
      </trkpt>
      <trkpt lat="43.29849" lon="6.90305">
        <ele>-0.3433837890625</ele>
        <time>2015-07-25T01:47:02Z</time>
      </trkpt>
      <trkpt lat="43.29821" lon="6.90324">
        <ele>0.137451171875</ele>
        <time>2015-07-25T01:47:20Z</time>
      </trkpt>
      <trkpt lat="43.29812" lon="6.90337">
        <ele>-0.3433837890625</ele>
        <time>2015-07-25T01:47:28Z</time>
      </trkpt>
      <trkpt lat="43.29792" lon="6.90355">
        <ele>-0.3433837890625</ele>
        <time>2015-07-25T01:47:43Z</time>
      </trkpt>
      <trkpt lat="43.29779" lon="6.90367">
        <ele>-0.3433837890625</ele>
        <time>2015-07-25T01:47:54Z</time>
      </trkpt>
      <trkpt lat="43.29758" lon="6.90388">
        <ele>-0.3433837890625</ele>
        <time>2015-07-25T01:48:08Z</time>
      </trkpt>
      <trkpt lat="43.29738" lon="6.90407">
        <ele>-0.3433837890625</ele>
        <time>2015-07-25T01:48:22Z</time>
      </trkpt>
      <trkpt lat="43.29718" lon="6.9043">
        <ele>0.137451171875</ele>
        <time>2015-07-25T01:48:38Z</time>
      </trkpt>
      <trkpt lat="43.29706" lon="6.90438">
        <ele>0.137451171875</ele>
        <time>2015-07-25T01:48:48Z</time>
      </trkpt>
      <trkpt lat="43.29688" lon="6.9045">
        <ele>0.137451171875</ele>
        <time>2015-07-25T01:49:01Z</time>
      </trkpt>
      <trkpt lat="43.29664" lon="6.90472">
        <ele>-0.3433837890625</ele>
        <time>2015-07-25T01:49:17Z</time>
      </trkpt>
      <trkpt lat="43.29646" lon="6.90493">
        <ele>-0.3433837890625</ele>
        <time>2015-07-25T01:49:30Z</time>
      </trkpt>
      <trkpt lat="43.29629" lon="6.90507">
        <ele>-0.8240966796875</ele>
        <time>2015-07-25T01:49:42Z</time>
      </trkpt>
      <trkpt lat="43.29607" lon="6.90527">
        <ele>0.137451171875</ele>
        <time>2015-07-25T01:49:57Z</time>
      </trkpt>
      <trkpt lat="43.29585" lon="6.90551">
        <ele>-0.3433837890625</ele>
        <time>2015-07-25T01:50:13Z</time>
      </trkpt>
      <trkpt lat="43.29567" lon="6.90574">
        <ele>-0.3433837890625</ele>
        <time>2015-07-25T01:50:27Z</time>
      </trkpt>
      <trkpt lat="43.29545" lon="6.90592">
        <ele>0.137451171875</ele>
        <time>2015-07-25T01:50:39Z</time>
      </trkpt>
      <trkpt lat="43.29524" lon="6.90614">
        <ele>0.137451171875</ele>
        <time>2015-07-25T01:50:52Z</time>
      </trkpt>
      <trkpt lat="43.295" lon="6.90635">
        <ele>0.137451171875</ele>
        <time>2015-07-25T01:51:05Z</time>
      </trkpt>
      <trkpt lat="43.29466" lon="6.90652">
        <ele>0.6180419921875</ele>
        <time>2015-07-25T01:51:19Z</time>
      </trkpt>
      <trkpt lat="43.29437" lon="6.90683">
        <ele>0.137451171875</ele>
        <time>2015-07-25T01:51:33Z</time>
      </trkpt>
      <trkpt lat="43.29407" lon="6.90715">
        <ele>0.6180419921875</ele>
        <time>2015-07-25T01:51:48Z</time>
      </trkpt>
      <trkpt lat="43.29373" lon="6.90741">
        <ele>0.137451171875</ele>
        <time>2015-07-25T01:52:02Z</time>
      </trkpt>
      <trkpt lat="43.29342" lon="6.90775">
        <ele>-0.3433837890625</ele>
        <time>2015-07-25T01:52:17Z</time>
      </trkpt>
      <trkpt lat="43.2932" lon="6.90804">
        <ele>-0.3433837890625</ele>
        <time>2015-07-25T01:52:31Z</time>
      </trkpt>
      <trkpt lat="43.29284" lon="6.90832">
        <ele>-0.3433837890625</ele>
        <time>2015-07-25T01:52:46Z</time>
      </trkpt>
      <trkpt lat="43.29255" lon="6.90871">
        <ele>-0.3433837890625</ele>
        <time>2015-07-25T01:53:01Z</time>
      </trkpt>
      <trkpt lat="43.29231" lon="6.90897">
        <ele>-0.3433837890625</ele>
        <time>2015-07-25T01:53:14Z</time>
      </trkpt>
      <trkpt lat="43.29201" lon="6.90928">
        <ele>-0.3433837890625</ele>
        <time>2015-07-25T01:53:29Z</time>
      </trkpt>
      <trkpt lat="43.29178" lon="6.90953">
        <ele>0.137451171875</ele>
        <time>2015-07-25T01:53:42Z</time>
      </trkpt>
      <trkpt lat="43.29148" lon="6.90979">
        <ele>0.6180419921875</ele>
        <time>2015-07-25T01:53:56Z</time>
      </trkpt>
      <trkpt lat="43.29119" lon="6.91015">
        <ele>-0.3433837890625</ele>
        <time>2015-07-25T01:54:09Z</time>
      </trkpt>
      <trkpt lat="43.29088" lon="6.91049">
        <ele>-0.3433837890625</ele>
        <time>2015-07-25T01:54:23Z</time>
      </trkpt>
      <trkpt lat="43.2906" lon="6.91079">
        <ele>0.137451171875</ele>
        <time>2015-07-25T01:54:36Z</time>
      </trkpt>
      <trkpt lat="43.29056" lon="6.91091">
        <ele>0.137451171875</ele>
        <time>2015-07-25T01:54:40Z</time>
      </trkpt>
      <trkpt lat="43.29035" lon="6.91123">
        <ele>0.137451171875</ele>
        <time>2015-07-25T01:54:53Z</time>
      </trkpt>
      <trkpt lat="43.29016" lon="6.91163">
        <ele>-0.3433837890625</ele>
        <time>2015-07-25T01:55:07Z</time>
      </trkpt>
      <trkpt lat="43.2901" lon="6.91175">
        <ele>0.137451171875</ele>
        <time>2015-07-25T01:55:13Z</time>
      </trkpt>
      <trkpt lat="43.28982" lon="6.91204">
        <ele>0.137451171875</ele>
        <time>2015-07-25T01:55:28Z</time>
      </trkpt>
      <trkpt lat="43.28965" lon="6.91232">
        <ele>0.137451171875</ele>
        <time>2015-07-25T01:55:39Z</time>
      </trkpt>
      <trkpt lat="43.28929" lon="6.91274">
        <ele>0.137451171875</ele>
        <time>2015-07-25T01:55:58Z</time>
      </trkpt>
      <trkpt lat="43.2891" lon="6.91298">
        <ele>0.6180419921875</ele>
        <time>2015-07-25T01:56:09Z</time>
      </trkpt>
      <trkpt lat="43.28888" lon="6.91336">
        <ele>0.137451171875</ele>
        <time>2015-07-25T01:56:23Z</time>
      </trkpt>
      <trkpt lat="43.28865" lon="6.91366">
        <ele>0.137451171875</ele>
        <time>2015-07-25T01:56:36Z</time>
      </trkpt>
      <trkpt lat="43.28837" lon="6.91405">
        <ele>0.137451171875</ele>
        <time>2015-07-25T01:56:53Z</time>
      </trkpt>
      <trkpt lat="43.28828" lon="6.91417">
        <ele>0.137451171875</ele>
        <time>2015-07-25T01:56:59Z</time>
      </trkpt>
      <trkpt lat="43.28801" lon="6.91449">
        <ele>0.137451171875</ele>
        <time>2015-07-25T01:57:14Z</time>
      </trkpt>
      <trkpt lat="43.28773" lon="6.91482">
        <ele>0.6180419921875</ele>
        <time>2015-07-25T01:57:28Z</time>
      </trkpt>
      <trkpt lat="43.28754" lon="6.91509">
        <ele>0.6180419921875</ele>
        <time>2015-07-25T01:57:40Z</time>
      </trkpt>
      <trkpt lat="43.28728" lon="6.91545">
        <ele>0.137451171875</ele>
        <time>2015-07-25T01:57:55Z</time>
      </trkpt>
      <trkpt lat="43.28704" lon="6.9157">
        <ele>0.137451171875</ele>
        <time>2015-07-25T01:58:08Z</time>
      </trkpt>
      <trkpt lat="43.28675" lon="6.91604">
        <ele>0.137451171875</ele>
        <time>2015-07-25T01:58:24Z</time>
      </trkpt>
      <trkpt lat="43.28643" lon="6.91639">
        <ele>0.6180419921875</ele>
        <time>2015-07-25T01:58:40Z</time>
      </trkpt>
      <trkpt lat="43.28625" lon="6.91674">
        <ele>0.137451171875</ele>
        <time>2015-07-25T01:58:54Z</time>
      </trkpt>
      <trkpt lat="43.28603" lon="6.91699">
        <ele>0.137451171875</ele>
        <time>2015-07-25T01:59:07Z</time>
      </trkpt>
      <trkpt lat="43.28576" lon="6.91729">
        <ele>0.137451171875</ele>
        <time>2015-07-25T01:59:22Z</time>
      </trkpt>
      <trkpt lat="43.28558" lon="6.91764">
        <ele>0.6180419921875</ele>
        <time>2015-07-25T01:59:36Z</time>
      </trkpt>
      <trkpt lat="43.28536" lon="6.91792">
        <ele>0.6180419921875</ele>
        <time>2015-07-25T01:59:50Z</time>
      </trkpt>
      <trkpt lat="43.28505" lon="6.91828">
        <ele>0.6180419921875</ele>
        <time>2015-07-25T02:00:07Z</time>
      </trkpt>
      <trkpt lat="43.28478" lon="6.91855">
        <ele>0.6180419921875</ele>
        <time>2015-07-25T02:00:20Z</time>
      </trkpt>
      <trkpt lat="43.28452" lon="6.91883">
        <ele>0.6180419921875</ele>
        <time>2015-07-25T02:00:34Z</time>
      </trkpt>
      <trkpt lat="43.28428" lon="6.91912">
        <ele>1.0986328125</ele>
        <time>2015-07-25T02:00:47Z</time>
      </trkpt>
      <trkpt lat="43.284" lon="6.91943">
        <ele>0.6180419921875</ele>
        <time>2015-07-25T02:01:02Z</time>
      </trkpt>
      <trkpt lat="43.28381" lon="6.91971">
        <ele>0.6180419921875</ele>
        <time>2015-07-25T02:01:15Z</time>
      </trkpt>
      <trkpt lat="43.2836" lon="6.92005">
        <ele>0.6180419921875</ele>
        <time>2015-07-25T02:01:30Z</time>
      </trkpt>
      <trkpt lat="43.28331" lon="6.92037">
        <ele>0.6180419921875</ele>
        <time>2015-07-25T02:01:46Z</time>
      </trkpt>
      <trkpt lat="43.28308" lon="6.92068">
        <ele>0.6180419921875</ele>
        <time>2015-07-25T02:02:00Z</time>
      </trkpt>
      <trkpt lat="43.28303" lon="6.92077">
        <ele>0.137451171875</ele>
        <time>2015-07-25T02:02:04Z</time>
      </trkpt>
      <trkpt lat="43.28289" lon="6.92093">
        <ele>0.6180419921875</ele>
        <time>2015-07-25T02:02:11Z</time>
      </trkpt>
      <trkpt lat="43.28266" lon="6.92126">
        <ele>0.6180419921875</ele>
        <time>2015-07-25T02:02:26Z</time>
      </trkpt>
      <trkpt lat="43.28237" lon="6.92153">
        <ele>1.0986328125</ele>
        <time>2015-07-25T02:02:40Z</time>
      </trkpt>
      <trkpt lat="43.28228" lon="6.92161">
        <ele>0.137451171875</ele>
        <time>2015-07-25T02:02:44Z</time>
      </trkpt>
      <trkpt lat="43.28204" lon="6.92196">
        <ele>0.6180419921875</ele>
        <time>2015-07-25T02:02:58Z</time>
      </trkpt>
      <trkpt lat="43.28178" lon="6.92225">
        <ele>0.6180419921875</ele>
        <time>2015-07-25T02:03:12Z</time>
      </trkpt>
      <trkpt lat="43.2815" lon="6.92254">
        <ele>0.137451171875</ele>
        <time>2015-07-25T02:03:26Z</time>
      </trkpt>
      <trkpt lat="43.28126" lon="6.9228">
        <ele>0.6180419921875</ele>
        <time>2015-07-25T02:03:39Z</time>
      </trkpt>
      <trkpt lat="43.28122" lon="6.92284">
        <ele>0.6180419921875</ele>
        <time>2015-07-25T02:03:41Z</time>
      </trkpt>
      <trkpt lat="43.28091" lon="6.92318">
        <ele>0.137451171875</ele>
        <time>2015-07-25T02:03:58Z</time>
      </trkpt>
      <trkpt lat="43.28063" lon="6.92345">
        <ele>0.137451171875</ele>
        <time>2015-07-25T02:04:12Z</time>
      </trkpt>
      <trkpt lat="43.28039" lon="6.92369">
        <ele>0.6180419921875</ele>
        <time>2015-07-25T02:04:25Z</time>
      </trkpt>
      <trkpt lat="43.28029" lon="6.92376">
        <ele>1.0986328125</ele>
        <time>2015-07-25T02:04:30Z</time>
      </trkpt>
      <trkpt lat="43.28005" lon="6.92397">
        <ele>0.6180419921875</ele>
        <time>2015-07-25T02:04:41Z</time>
      </trkpt>
      <trkpt lat="43.2798" lon="6.92431">
        <ele>0.6180419921875</ele>
        <time>2015-07-25T02:04:55Z</time>
      </trkpt>
      <trkpt lat="43.27958" lon="6.92453">
        <ele>0.6180419921875</ele>
        <time>2015-07-25T02:05:08Z</time>
      </trkpt>
      <trkpt lat="43.27928" lon="6.9249">
        <ele>0.6180419921875</ele>
        <time>2015-07-25T02:05:25Z</time>
      </trkpt>
      <trkpt lat="43.27907" lon="6.92511">
        <ele>0.137451171875</ele>
        <time>2015-07-25T02:05:38Z</time>
      </trkpt>
      <trkpt lat="43.27884" lon="6.92539">
        <ele>0.137451171875</ele>
        <time>2015-07-25T02:05:52Z</time>
      </trkpt>
      <trkpt lat="43.27871" lon="6.92557">
        <ele>0.137451171875</ele>
        <time>2015-07-25T02:06:01Z</time>
      </trkpt>
      <trkpt lat="43.27853" lon="6.92584">
        <ele>0.6180419921875</ele>
        <time>2015-07-25T02:06:13Z</time>
      </trkpt>
      <trkpt lat="43.2782" lon="6.92617">
        <ele>0.6180419921875</ele>
        <time>2015-07-25T02:06:31Z</time>
      </trkpt>
      <trkpt lat="43.27793" lon="6.92651">
        <ele>0.6180419921875</ele>
        <time>2015-07-25T02:06:46Z</time>
      </trkpt>
      <trkpt lat="43.27766" lon="6.92681">
        <ele>0.137451171875</ele>
        <time>2015-07-25T02:06:59Z</time>
      </trkpt>
      <trkpt lat="43.27738" lon="6.92714">
        <ele>0.6180419921875</ele>
        <time>2015-07-25T02:07:13Z</time>
      </trkpt>
      <trkpt lat="43.27702" lon="6.92749">
        <ele>0.137451171875</ele>
        <time>2015-07-25T02:07:30Z</time>
      </trkpt>
      <trkpt lat="43.27678" lon="6.9278">
        <ele>0.137451171875</ele>
        <time>2015-07-25T02:07:44Z</time>
      </trkpt>
      <trkpt lat="43.27651" lon="6.92822">
        <ele>0.6180419921875</ele>
        <time>2015-07-25T02:08:00Z</time>
      </trkpt>
      <trkpt lat="43.27623" lon="6.9286">
        <ele>1.0986328125</ele>
        <time>2015-07-25T02:08:17Z</time>
      </trkpt>
      <trkpt lat="43.27601" lon="6.92886">
        <ele>0.6180419921875</ele>
        <time>2015-07-25T02:08:29Z</time>
      </trkpt>
      <trkpt lat="43.27571" lon="6.92917">
        <ele>0.6180419921875</ele>
        <time>2015-07-25T02:08:44Z</time>
      </trkpt>
      <trkpt lat="43.27554" lon="6.92938">
        <ele>0.137451171875</ele>
        <time>2015-07-25T02:08:52Z</time>
      </trkpt>
      <trkpt lat="43.27516" lon="6.92978">
        <ele>0.137451171875</ele>
        <time>2015-07-25T02:09:11Z</time>
      </trkpt>
      <trkpt lat="43.27491" lon="6.93008">
        <ele>0.6180419921875</ele>
        <time>2015-07-25T02:09:25Z</time>
      </trkpt>
      <trkpt lat="43.27467" lon="6.93038">
        <ele>0.6180419921875</ele>
        <time>2015-07-25T02:09:38Z</time>
      </trkpt>
      <trkpt lat="43.27438" lon="6.93073">
        <ele>0.137451171875</ele>
        <time>2015-07-25T02:09:54Z</time>
      </trkpt>
      <trkpt lat="43.27408" lon="6.9311">
        <ele>-1.7852783203125</ele>
        <time>2015-07-25T02:10:11Z</time>
      </trkpt>
      <trkpt lat="43.27406" lon="6.93112">
        <ele>2.5406494140625</ele>
        <time>2015-07-25T02:10:12Z</time>
      </trkpt>
      <trkpt lat="43.27404" lon="6.93115">
        <ele>2.5406494140625</ele>
        <time>2015-07-25T02:10:13Z</time>
      </trkpt>
      <trkpt lat="43.274" lon="6.9312">
        <ele>0.137451171875</ele>
        <time>2015-07-25T02:10:15Z</time>
      </trkpt>
      <trkpt lat="43.27389" lon="6.93139">
        <ele>-0.3433837890625</ele>
        <time>2015-07-25T02:10:23Z</time>
      </trkpt>
      <trkpt lat="43.27384" lon="6.93148">
        <ele>-0.3433837890625</ele>
        <time>2015-07-25T02:10:27Z</time>
      </trkpt>
      <trkpt lat="43.27379" lon="6.93161">
        <ele>0.137451171875</ele>
        <time>2015-07-25T02:10:33Z</time>
      </trkpt>
      <trkpt lat="43.27378" lon="6.93168">
        <ele>0.137451171875</ele>
        <time>2015-07-25T02:10:36Z</time>
      </trkpt>
      <trkpt lat="43.27366" lon="6.93182">
        <ele>0.6180419921875</ele>
        <time>2015-07-25T02:10:45Z</time>
      </trkpt>
      <trkpt lat="43.27356" lon="6.93188">
        <ele>0.137451171875</ele>
        <time>2015-07-25T02:10:50Z</time>
      </trkpt>
      <trkpt lat="43.27349" lon="6.93197">
        <ele>-0.3433837890625</ele>
        <time>2015-07-25T02:10:55Z</time>
      </trkpt>
      <trkpt lat="43.27329" lon="6.93223">
        <ele>0.6180419921875</ele>
        <time>2015-07-25T02:11:08Z</time>
      </trkpt>
      <trkpt lat="43.27299" lon="6.93255">
        <ele>0.6180419921875</ele>
        <time>2015-07-25T02:11:27Z</time>
      </trkpt>
      <trkpt lat="43.2728" lon="6.93279">
        <ele>0.6180419921875</ele>
        <time>2015-07-25T02:11:39Z</time>
      </trkpt>
      <trkpt lat="43.27258" lon="6.93312">
        <ele>0.137451171875</ele>
        <time>2015-07-25T02:11:55Z</time>
      </trkpt>
      <trkpt lat="43.27239" lon="6.93344">
        <ele>0.137451171875</ele>
        <time>2015-07-25T02:12:09Z</time>
      </trkpt>
      <trkpt lat="43.27215" lon="6.93373">
        <ele>-0.3433837890625</ele>
        <time>2015-07-25T02:12:23Z</time>
      </trkpt>
      <trkpt lat="43.27192" lon="6.93401">
        <ele>0.6180419921875</ele>
        <time>2015-07-25T02:12:37Z</time>
      </trkpt>
      <trkpt lat="43.27189" lon="6.93405">
        <ele>0.6180419921875</ele>
        <time>2015-07-25T02:12:39Z</time>
      </trkpt>
      <trkpt lat="43.27157" lon="6.93443">
        <ele>0.6180419921875</ele>
        <time>2015-07-25T02:12:58Z</time>
      </trkpt>
      <trkpt lat="43.27131" lon="6.93474">
        <ele>-0.3433837890625</ele>
        <time>2015-07-25T02:13:15Z</time>
      </trkpt>
      <trkpt lat="43.27129" lon="6.93476">
        <ele>-0.3433837890625</ele>
        <time>2015-07-25T02:13:16Z</time>
      </trkpt>
      <trkpt lat="43.2712" lon="6.93486">
        <ele>-0.3433837890625</ele>
        <time>2015-07-25T02:13:22Z</time>
      </trkpt>
      <trkpt lat="43.27117" lon="6.9349">
        <ele>0.137451171875</ele>
        <time>2015-07-25T02:13:24Z</time>
      </trkpt>
      <trkpt lat="43.27084" lon="6.9352">
        <ele>-0.3433837890625</ele>
        <time>2015-07-25T02:13:42Z</time>
      </trkpt>
      <trkpt lat="43.27061" lon="6.9355">
        <ele>-0.3433837890625</ele>
        <time>2015-07-25T02:13:57Z</time>
      </trkpt>
      <trkpt lat="43.27041" lon="6.93577">
        <ele>-0.8240966796875</ele>
        <time>2015-07-25T02:14:12Z</time>
      </trkpt>
      <trkpt lat="43.27038" lon="6.93583">
        <ele>-0.8240966796875</ele>
        <time>2015-07-25T02:14:15Z</time>
      </trkpt>
      <trkpt lat="43.27035" lon="6.9359">
        <ele>-0.8240966796875</ele>
        <time>2015-07-25T02:14:18Z</time>
      </trkpt>
      <trkpt lat="43.27029" lon="6.93606">
        <ele>0.6180419921875</ele>
        <time>2015-07-25T02:14:26Z</time>
      </trkpt>
      <trkpt lat="43.27027" lon="6.93608">
        <ele>1.0986328125</ele>
        <time>2015-07-25T02:14:27Z</time>
      </trkpt>
      <trkpt lat="43.27022" lon="6.93615">
        <ele>0.137451171875</ele>
        <time>2015-07-25T02:14:31Z</time>
      </trkpt>
      <trkpt lat="43.26995" lon="6.93652">
        <ele>0.6180419921875</ele>
        <time>2015-07-25T02:14:50Z</time>
      </trkpt>
      <trkpt lat="43.26981" lon="6.93666">
        <ele>0.137451171875</ele>
        <time>2015-07-25T02:14:58Z</time>
      </trkpt>
      <trkpt lat="43.26954" lon="6.93696">
        <ele>0.137451171875</ele>
        <time>2015-07-25T02:15:13Z</time>
      </trkpt>
      <trkpt lat="43.26927" lon="6.93737">
        <ele>0.137451171875</ele>
        <time>2015-07-25T02:15:32Z</time>
      </trkpt>
      <trkpt lat="43.26909" lon="6.93771">
        <ele>0.6180419921875</ele>
        <time>2015-07-25T02:15:48Z</time>
      </trkpt>
      <trkpt lat="43.26906" lon="6.93775">
        <ele>0.6180419921875</ele>
        <time>2015-07-25T02:15:50Z</time>
      </trkpt>
      <trkpt lat="43.26885" lon="6.93814">
        <ele>0.6180419921875</ele>
        <time>2015-07-25T02:16:09Z</time>
      </trkpt>
      <trkpt lat="43.26867" lon="6.93839">
        <ele>-1.3046875</ele>
        <time>2015-07-25T02:16:22Z</time>
      </trkpt>
      <trkpt lat="43.26849" lon="6.93863">
        <ele>0.6180419921875</ele>
        <time>2015-07-25T02:16:35Z</time>
      </trkpt>
      <trkpt lat="43.26846" lon="6.9387">
        <ele>0.6180419921875</ele>
        <time>2015-07-25T02:16:38Z</time>
      </trkpt>
      <trkpt lat="43.2684" lon="6.93877">
        <ele>0.137451171875</ele>
        <time>2015-07-25T02:16:42Z</time>
      </trkpt>
      <trkpt lat="43.26824" lon="6.93904">
        <ele>-0.3433837890625</ele>
        <time>2015-07-25T02:16:57Z</time>
      </trkpt>
      <trkpt lat="43.26804" lon="6.9393">
        <ele>0.137451171875</ele>
        <time>2015-07-25T02:17:14Z</time>
      </trkpt>
      <trkpt lat="43.26789" lon="6.93959">
        <ele>0.137451171875</ele>
        <time>2015-07-25T02:17:28Z</time>
      </trkpt>
      <trkpt lat="43.26776" lon="6.93989">
        <ele>0.6180419921875</ele>
        <time>2015-07-25T02:17:45Z</time>
      </trkpt>
      <trkpt lat="43.26745" lon="6.94018">
        <ele>0.6180419921875</ele>
        <time>2015-07-25T02:18:02Z</time>
      </trkpt>
      <trkpt lat="43.26707" lon="6.94056">
        <ele>0.137451171875</ele>
        <time>2015-07-25T02:18:22Z</time>
      </trkpt>
      <trkpt lat="43.26671" lon="6.94076">
        <ele>0.6180419921875</ele>
        <time>2015-07-25T02:18:38Z</time>
      </trkpt>
      <trkpt lat="43.2663" lon="6.941">
        <ele>1.0986328125</ele>
        <time>2015-07-25T02:18:55Z</time>
      </trkpt>
      <trkpt lat="43.26596" lon="6.94122">
        <ele>0.137451171875</ele>
        <time>2015-07-25T02:19:10Z</time>
      </trkpt>
      <trkpt lat="43.26573" lon="6.9415">
        <ele>0.137451171875</ele>
        <time>2015-07-25T02:19:24Z</time>
      </trkpt>
      <trkpt lat="43.26564" lon="6.94162">
        <ele>0.137451171875</ele>
        <time>2015-07-25T02:19:30Z</time>
      </trkpt>
      <trkpt lat="43.26558" lon="6.9417">
        <ele>1.579345703125</ele>
        <time>2015-07-25T02:19:34Z</time>
      </trkpt>
      <trkpt lat="43.26555" lon="6.94175">
        <ele>0.6180419921875</ele>
        <time>2015-07-25T02:19:36Z</time>
      </trkpt>
      <trkpt lat="43.26545" lon="6.94191">
        <ele>0.6180419921875</ele>
        <time>2015-07-25T02:19:44Z</time>
      </trkpt>
      <trkpt lat="43.26529" lon="6.94223">
        <ele>1.579345703125</ele>
        <time>2015-07-25T02:19:58Z</time>
      </trkpt>
      <trkpt lat="43.26517" lon="6.94245">
        <ele>0.6180419921875</ele>
        <time>2015-07-25T02:20:09Z</time>
      </trkpt>
      <trkpt lat="43.26513" lon="6.94251">
        <ele>0.137451171875</ele>
        <time>2015-07-25T02:20:12Z</time>
      </trkpt>
      <trkpt lat="43.26505" lon="6.94268">
        <ele>1.0986328125</ele>
        <time>2015-07-25T02:20:19Z</time>
      </trkpt>
      <trkpt lat="43.26481" lon="6.94314">
        <ele>1.0986328125</ele>
        <time>2015-07-25T02:20:39Z</time>
      </trkpt>
      <trkpt lat="43.2647" lon="6.94337">
        <ele>1.0986328125</ele>
        <time>2015-07-25T02:20:50Z</time>
      </trkpt>
      <trkpt lat="43.26465" lon="6.94349">
        <ele>0.6180419921875</ele>
        <time>2015-07-25T02:20:55Z</time>
      </trkpt>
      <trkpt lat="43.26455" lon="6.94374">
        <ele>1.0986328125</ele>
        <time>2015-07-25T02:21:07Z</time>
      </trkpt>
      <trkpt lat="43.26442" lon="6.944">
        <ele>1.0986328125</ele>
        <time>2015-07-25T02:21:20Z</time>
      </trkpt>
      <trkpt lat="43.26438" lon="6.94407">
        <ele>1.0986328125</ele>
        <time>2015-07-25T02:21:24Z</time>
      </trkpt>
      <trkpt lat="43.26424" lon="6.94427">
        <ele>1.579345703125</ele>
        <time>2015-07-25T02:21:34Z</time>
      </trkpt>
      <trkpt lat="43.26405" lon="6.94449">
        <ele>1.0986328125</ele>
        <time>2015-07-25T02:21:46Z</time>
      </trkpt>
      <trkpt lat="43.26383" lon="6.94472">
        <ele>1.0986328125</ele>
        <time>2015-07-25T02:21:59Z</time>
      </trkpt>
      <trkpt lat="43.26364" lon="6.94494">
        <ele>1.579345703125</ele>
        <time>2015-07-25T02:22:11Z</time>
      </trkpt>
      <trkpt lat="43.26335" lon="6.94526">
        <ele>1.0986328125</ele>
        <time>2015-07-25T02:22:29Z</time>
      </trkpt>
      <trkpt lat="43.26318" lon="6.94547">
        <ele>1.579345703125</ele>
        <time>2015-07-25T02:22:40Z</time>
      </trkpt>
      <trkpt lat="43.26298" lon="6.94577">
        <ele>1.0986328125</ele>
        <time>2015-07-25T02:22:54Z</time>
      </trkpt>
      <trkpt lat="43.26276" lon="6.94604">
        <ele>1.579345703125</ele>
        <time>2015-07-25T02:23:08Z</time>
      </trkpt>
      <trkpt lat="43.26271" lon="6.94609">
        <ele>0.6180419921875</ele>
        <time>2015-07-25T02:23:11Z</time>
      </trkpt>
      <trkpt lat="43.26258" lon="6.94621">
        <ele>0.6180419921875</ele>
        <time>2015-07-25T02:23:18Z</time>
      </trkpt>
      <trkpt lat="43.2624" lon="6.94644">
        <ele>1.0986328125</ele>
        <time>2015-07-25T02:23:30Z</time>
      </trkpt>
      <trkpt lat="43.26214" lon="6.94668">
        <ele>1.0986328125</ele>
        <time>2015-07-25T02:23:44Z</time>
      </trkpt>
      <trkpt lat="43.2619" lon="6.94695">
        <ele>1.0986328125</ele>
        <time>2015-07-25T02:23:58Z</time>
      </trkpt>
      <trkpt lat="43.26157" lon="6.94729">
        <ele>0.6180419921875</ele>
        <time>2015-07-25T02:24:16Z</time>
      </trkpt>
      <trkpt lat="43.26133" lon="6.9475">
        <ele>1.0986328125</ele>
        <time>2015-07-25T02:24:30Z</time>
      </trkpt>
      <trkpt lat="43.26105" lon="6.94772">
        <ele>1.0986328125</ele>
        <time>2015-07-25T02:24:44Z</time>
      </trkpt>
      <trkpt lat="43.26094" lon="6.94783">
        <ele>1.579345703125</ele>
        <time>2015-07-25T02:24:51Z</time>
      </trkpt>
      <trkpt lat="43.26086" lon="6.94788">
        <ele>1.0986328125</ele>
        <time>2015-07-25T02:24:55Z</time>
      </trkpt>
      <trkpt lat="43.26054" lon="6.948">
        <ele>1.0986328125</ele>
        <time>2015-07-25T02:25:08Z</time>
      </trkpt>
      <trkpt lat="43.26019" lon="6.94828">
        <ele>1.0986328125</ele>
        <time>2015-07-25T02:25:23Z</time>
      </trkpt>
      <trkpt lat="43.2599" lon="6.94857">
        <ele>1.0986328125</ele>
        <time>2015-07-25T02:25:38Z</time>
      </trkpt>
      <trkpt lat="43.25977" lon="6.94869">
        <ele>1.0986328125</ele>
        <time>2015-07-25T02:25:44Z</time>
      </trkpt>
      <trkpt lat="43.25951" lon="6.94893">
        <ele>1.0986328125</ele>
        <time>2015-07-25T02:25:57Z</time>
      </trkpt>
      <trkpt lat="43.25928" lon="6.94917">
        <ele>1.0986328125</ele>
        <time>2015-07-25T02:26:09Z</time>
      </trkpt>
      <trkpt lat="43.25901" lon="6.94934">
        <ele>1.579345703125</ele>
        <time>2015-07-25T02:26:20Z</time>
      </trkpt>
      <trkpt lat="43.259" lon="6.94936">
        <ele>1.579345703125</ele>
        <time>2015-07-25T02:26:21Z</time>
      </trkpt>
      <trkpt lat="43.25871" lon="6.94965">
        <ele>0.6180419921875</ele>
        <time>2015-07-25T02:26:35Z</time>
      </trkpt>
      <trkpt lat="43.25855" lon="6.94981">
        <ele>1.0986328125</ele>
        <time>2015-07-25T02:26:43Z</time>
      </trkpt>
      <trkpt lat="43.25835" lon="6.95011">
        <ele>1.0986328125</ele>
        <time>2015-07-25T02:26:56Z</time>
      </trkpt>
      <trkpt lat="43.25818" lon="6.95043">
        <ele>0.6180419921875</ele>
        <time>2015-07-25T02:27:10Z</time>
      </trkpt>
      <trkpt lat="43.25817" lon="6.95044">
        <ele>1.0986328125</ele>
        <time>2015-07-25T02:27:11Z</time>
      </trkpt>
      <trkpt lat="43.25811" lon="6.95053">
        <ele>1.0986328125</ele>
        <time>2015-07-25T02:27:15Z</time>
      </trkpt>
      <trkpt lat="43.25791" lon="6.95078">
        <ele>0.137451171875</ele>
        <time>2015-07-25T02:27:27Z</time>
      </trkpt>
      <trkpt lat="43.25767" lon="6.95106">
        <ele>1.0986328125</ele>
        <time>2015-07-25T02:27:39Z</time>
      </trkpt>
      <trkpt lat="43.25743" lon="6.95132">
        <ele>1.0986328125</ele>
        <time>2015-07-25T02:27:51Z</time>
      </trkpt>
      <trkpt lat="43.25725" lon="6.95159">
        <ele>1.0986328125</ele>
        <time>2015-07-25T02:28:03Z</time>
      </trkpt>
      <trkpt lat="43.25719" lon="6.95167">
        <ele>0.6180419921875</ele>
        <time>2015-07-25T02:28:07Z</time>
      </trkpt>
      <trkpt lat="43.25698" lon="6.95193">
        <ele>1.0986328125</ele>
        <time>2015-07-25T02:28:19Z</time>
      </trkpt>
      <trkpt lat="43.25675" lon="6.95212">
        <ele>1.0986328125</ele>
        <time>2015-07-25T02:28:30Z</time>
      </trkpt>
      <trkpt lat="43.25673" lon="6.95214">
        <ele>1.0986328125</ele>
        <time>2015-07-25T02:28:31Z</time>
      </trkpt>
      <trkpt lat="43.25664" lon="6.95222">
        <ele>1.0986328125</ele>
        <time>2015-07-25T02:28:35Z</time>
      </trkpt>
      <trkpt lat="43.25646" lon="6.95238">
        <ele>1.579345703125</ele>
        <time>2015-07-25T02:28:43Z</time>
      </trkpt>
      <trkpt lat="43.25617" lon="6.95255">
        <ele>1.579345703125</ele>
        <time>2015-07-25T02:28:54Z</time>
      </trkpt>
      <trkpt lat="43.25594" lon="6.95296">
        <ele>1.0986328125</ele>
        <time>2015-07-25T02:29:09Z</time>
      </trkpt>
      <trkpt lat="43.25592" lon="6.95302">
        <ele>1.0986328125</ele>
        <time>2015-07-25T02:29:11Z</time>
      </trkpt>
      <trkpt lat="43.25584" lon="6.95315">
        <ele>0.6180419921875</ele>
        <time>2015-07-25T02:29:16Z</time>
      </trkpt>
      <trkpt lat="43.25562" lon="6.95356">
        <ele>1.0986328125</ele>
        <time>2015-07-25T02:29:31Z</time>
      </trkpt>
      <trkpt lat="43.25541" lon="6.95389">
        <ele>1.0986328125</ele>
        <time>2015-07-25T02:29:45Z</time>
      </trkpt>
      <trkpt lat="43.25531" lon="6.95425">
        <ele>1.0986328125</ele>
        <time>2015-07-25T02:29:58Z</time>
      </trkpt>
      <trkpt lat="43.25527" lon="6.95432">
        <ele>1.0986328125</ele>
        <time>2015-07-25T02:30:01Z</time>
      </trkpt>
      <trkpt lat="43.25515" lon="6.9545">
        <ele>1.579345703125</ele>
        <time>2015-07-25T02:30:08Z</time>
      </trkpt>
      <trkpt lat="43.25494" lon="6.95493">
        <ele>0.6180419921875</ele>
        <time>2015-07-25T02:30:24Z</time>
      </trkpt>
      <trkpt lat="43.25492" lon="6.95496">
        <ele>1.0986328125</ele>
        <time>2015-07-25T02:30:25Z</time>
      </trkpt>
      <trkpt lat="43.2548" lon="6.95522">
        <ele>1.0986328125</ele>
        <time>2015-07-25T02:30:35Z</time>
      </trkpt>
      <trkpt lat="43.25477" lon="6.95533">
        <ele>1.579345703125</ele>
        <time>2015-07-25T02:30:39Z</time>
      </trkpt>
      <trkpt lat="43.25472" lon="6.95544">
        <ele>1.579345703125</ele>
        <time>2015-07-25T02:30:43Z</time>
      </trkpt>
      <trkpt lat="43.25448" lon="6.95585">
        <ele>1.0986328125</ele>
        <time>2015-07-25T02:30:59Z</time>
      </trkpt>
      <trkpt lat="43.25424" lon="6.95631">
        <ele>0.6180419921875</ele>
        <time>2015-07-25T02:31:17Z</time>
      </trkpt>
      <trkpt lat="43.25418" lon="6.95641">
        <ele>1.0986328125</ele>
        <time>2015-07-25T02:31:21Z</time>
      </trkpt>
      <trkpt lat="43.25413" lon="6.95657">
        <ele>1.0986328125</ele>
        <time>2015-07-25T02:31:26Z</time>
      </trkpt>
      <trkpt lat="43.25395" lon="6.95681">
        <ele>1.579345703125</ele>
        <time>2015-07-25T02:31:37Z</time>
      </trkpt>
      <trkpt lat="43.25393" lon="6.95686">
        <ele>1.579345703125</ele>
        <time>2015-07-25T02:31:39Z</time>
      </trkpt>
      <trkpt lat="43.25385" lon="6.95699">
        <ele>1.0986328125</ele>
        <time>2015-07-25T02:31:44Z</time>
      </trkpt>
      <trkpt lat="43.25364" lon="6.9574">
        <ele>1.579345703125</ele>
        <time>2015-07-25T02:31:59Z</time>
      </trkpt>
      <trkpt lat="43.2535" lon="6.95769">
        <ele>1.579345703125</ele>
        <time>2015-07-25T02:32:10Z</time>
      </trkpt>
      <trkpt lat="43.25337" lon="6.95792">
        <ele>1.579345703125</ele>
        <time>2015-07-25T02:32:19Z</time>
      </trkpt>
      <trkpt lat="43.25328" lon="6.95801">
        <ele>2.06005859375</ele>
        <time>2015-07-25T02:32:23Z</time>
      </trkpt>
      <trkpt lat="43.2531" lon="6.95841">
        <ele>1.579345703125</ele>
        <time>2015-07-25T02:32:38Z</time>
      </trkpt>
      <trkpt lat="43.25295" lon="6.95871">
        <ele>1.579345703125</ele>
        <time>2015-07-25T02:32:49Z</time>
      </trkpt>
      <trkpt lat="43.25271" lon="6.9592">
        <ele>1.579345703125</ele>
        <time>2015-07-25T02:33:09Z</time>
      </trkpt>
      <trkpt lat="43.2527" lon="6.95925">
        <ele>1.579345703125</ele>
        <time>2015-07-25T02:33:11Z</time>
      </trkpt>
      <trkpt lat="43.25268" lon="6.9593">
        <ele>2.06005859375</ele>
        <time>2015-07-25T02:33:13Z</time>
      </trkpt>
      <trkpt lat="43.25262" lon="6.95941">
        <ele>1.579345703125</ele>
        <time>2015-07-25T02:33:18Z</time>
      </trkpt>
      <trkpt lat="43.25261" lon="6.95947">
        <ele>1.0986328125</ele>
        <time>2015-07-25T02:33:20Z</time>
      </trkpt>
      <trkpt lat="43.25257" lon="6.95956">
        <ele>1.0986328125</ele>
        <time>2015-07-25T02:33:24Z</time>
      </trkpt>
      <trkpt lat="43.25253" lon="6.95963">
        <ele>1.579345703125</ele>
        <time>2015-07-25T02:33:27Z</time>
      </trkpt>
      <trkpt lat="43.25228" lon="6.95988">
        <ele>2.5406494140625</ele>
        <time>2015-07-25T02:33:39Z</time>
      </trkpt>
      <trkpt lat="43.25216" lon="6.95997">
        <ele>2.06005859375</ele>
        <time>2015-07-25T02:33:44Z</time>
      </trkpt>
      <trkpt lat="43.25204" lon="6.96007">
        <ele>2.06005859375</ele>
        <time>2015-07-25T02:33:49Z</time>
      </trkpt>
      <trkpt lat="43.25177" lon="6.96041">
        <ele>2.06005859375</ele>
        <time>2015-07-25T02:34:03Z</time>
      </trkpt>
      <trkpt lat="43.25169" lon="6.96053">
        <ele>2.06005859375</ele>
        <time>2015-07-25T02:34:08Z</time>
      </trkpt>
      <trkpt lat="43.2514" lon="6.96085">
        <ele>1.579345703125</ele>
        <time>2015-07-25T02:34:22Z</time>
      </trkpt>
      <trkpt lat="43.25114" lon="6.96116">
        <ele>1.579345703125</ele>
        <time>2015-07-25T02:34:36Z</time>
      </trkpt>
      <trkpt lat="43.25093" lon="6.96149">
        <ele>1.579345703125</ele>
        <time>2015-07-25T02:34:50Z</time>
      </trkpt>
      <trkpt lat="43.25068" lon="6.96189">
        <ele>1.579345703125</ele>
        <time>2015-07-25T02:35:07Z</time>
      </trkpt>
      <trkpt lat="43.25053" lon="6.96222">
        <ele>1.579345703125</ele>
        <time>2015-07-25T02:35:20Z</time>
      </trkpt>
      <trkpt lat="43.25029" lon="6.96246">
        <ele>1.579345703125</ele>
        <time>2015-07-25T02:35:33Z</time>
      </trkpt>
      <trkpt lat="43.24994" lon="6.96293">
        <ele>1.579345703125</ele>
        <time>2015-07-25T02:35:51Z</time>
      </trkpt>
      <trkpt lat="43.2496" lon="6.96326">
        <ele>1.579345703125</ele>
        <time>2015-07-25T02:36:06Z</time>
      </trkpt>
      <trkpt lat="43.24934" lon="6.96349">
        <ele>2.06005859375</ele>
        <time>2015-07-25T02:36:17Z</time>
      </trkpt>
      <trkpt lat="43.24906" lon="6.9637">
        <ele>1.579345703125</ele>
        <time>2015-07-25T02:36:29Z</time>
      </trkpt>
      <trkpt lat="43.24879" lon="6.96397">
        <ele>1.579345703125</ele>
        <time>2015-07-25T02:36:42Z</time>
      </trkpt>
      <trkpt lat="43.24856" lon="6.96436">
        <ele>1.579345703125</ele>
        <time>2015-07-25T02:36:56Z</time>
      </trkpt>
      <trkpt lat="43.2483" lon="6.96467">
        <ele>1.579345703125</ele>
        <time>2015-07-25T02:37:09Z</time>
      </trkpt>
      <trkpt lat="43.24817" lon="6.96489">
        <ele>1.579345703125</ele>
        <time>2015-07-25T02:37:18Z</time>
      </trkpt>
      <trkpt lat="43.24804" lon="6.96515">
        <ele>1.579345703125</ele>
        <time>2015-07-25T02:37:29Z</time>
      </trkpt>
      <trkpt lat="43.24791" lon="6.96542">
        <ele>1.579345703125</ele>
        <time>2015-07-25T02:37:41Z</time>
      </trkpt>
      <trkpt lat="43.2476" lon="6.96576">
        <ele>2.06005859375</ele>
        <time>2015-07-25T02:37:57Z</time>
      </trkpt>
      <trkpt lat="43.24732" lon="6.96603">
        <ele>2.06005859375</ele>
        <time>2015-07-25T02:38:10Z</time>
      </trkpt>
      <trkpt lat="43.24702" lon="6.96637">
        <ele>1.579345703125</ele>
        <time>2015-07-25T02:38:24Z</time>
      </trkpt>
      <trkpt lat="43.24683" lon="6.96661">
        <ele>2.06005859375</ele>
        <time>2015-07-25T02:38:34Z</time>
      </trkpt>
      <trkpt lat="43.24653" lon="6.96697">
        <ele>1.579345703125</ele>
        <time>2015-07-25T02:38:49Z</time>
      </trkpt>
      <trkpt lat="43.24644" lon="6.96704">
        <ele>2.06005859375</ele>
        <time>2015-07-25T02:38:52Z</time>
      </trkpt>
      <trkpt lat="43.24607" lon="6.9674">
        <ele>1.579345703125</ele>
        <time>2015-07-25T02:39:08Z</time>
      </trkpt>
      <trkpt lat="43.24575" lon="6.96775">
        <ele>1.579345703125</ele>
        <time>2015-07-25T02:39:23Z</time>
      </trkpt>
      <trkpt lat="43.24548" lon="6.96805">
        <ele>1.579345703125</ele>
        <time>2015-07-25T02:39:36Z</time>
      </trkpt>
      <trkpt lat="43.24522" lon="6.96836">
        <ele>1.579345703125</ele>
        <time>2015-07-25T02:39:50Z</time>
      </trkpt>
      <trkpt lat="43.2452" lon="6.96839">
        <ele>1.0986328125</ele>
        <time>2015-07-25T02:39:51Z</time>
      </trkpt>
      <trkpt lat="43.24517" lon="6.96843">
        <ele>1.0986328125</ele>
        <time>2015-07-25T02:39:53Z</time>
      </trkpt>
      <trkpt lat="43.2448" lon="6.96893">
        <ele>1.579345703125</ele>
        <time>2015-07-25T02:40:13Z</time>
      </trkpt>
      <trkpt lat="43.24449" lon="6.96933">
        <ele>1.579345703125</ele>
        <time>2015-07-25T02:40:30Z</time>
      </trkpt>
      <trkpt lat="43.24428" lon="6.96974">
        <ele>1.0986328125</ele>
        <time>2015-07-25T02:40:44Z</time>
      </trkpt>
      <trkpt lat="43.24414" lon="6.97014">
        <ele>1.0986328125</ele>
        <time>2015-07-25T02:40:58Z</time>
      </trkpt>
      <trkpt lat="43.24401" lon="6.97047">
        <ele>1.579345703125</ele>
        <time>2015-07-25T02:41:12Z</time>
      </trkpt>
      <trkpt lat="43.2437" lon="6.97094">
        <ele>1.0986328125</ele>
        <time>2015-07-25T02:41:30Z</time>
      </trkpt>
      <trkpt lat="43.24346" lon="6.97126">
        <ele>1.0986328125</ele>
        <time>2015-07-25T02:41:43Z</time>
      </trkpt>
      <trkpt lat="43.24339" lon="6.97135">
        <ele>1.0986328125</ele>
        <time>2015-07-25T02:41:47Z</time>
      </trkpt>
      <trkpt lat="43.24309" lon="6.97187">
        <ele>1.579345703125</ele>
        <time>2015-07-25T02:42:05Z</time>
      </trkpt>
      <trkpt lat="43.24288" lon="6.97223">
        <ele>1.0986328125</ele>
        <time>2015-07-25T02:42:19Z</time>
      </trkpt>
      <trkpt lat="43.24268" lon="6.97252">
        <ele>1.0986328125</ele>
        <time>2015-07-25T02:42:30Z</time>
      </trkpt>
      <trkpt lat="43.24264" lon="6.9726">
        <ele>1.579345703125</ele>
        <time>2015-07-25T02:42:33Z</time>
      </trkpt>
      <trkpt lat="43.24239" lon="6.97294">
        <ele>0.6180419921875</ele>
        <time>2015-07-25T02:42:47Z</time>
      </trkpt>
      <trkpt lat="43.24222" lon="6.97321">
        <ele>1.579345703125</ele>
        <time>2015-07-25T02:42:56Z</time>
      </trkpt>
      <trkpt lat="43.24185" lon="6.97367">
        <ele>1.0986328125</ele>
        <time>2015-07-25T02:43:14Z</time>
      </trkpt>
      <trkpt lat="43.24153" lon="6.97395">
        <ele>1.0986328125</ele>
        <time>2015-07-25T02:43:29Z</time>
      </trkpt>
      <trkpt lat="43.24142" lon="6.97407">
        <ele>1.0986328125</ele>
        <time>2015-07-25T02:43:34Z</time>
      </trkpt>
      <trkpt lat="43.24139" lon="6.97413">
        <ele>0.137451171875</ele>
        <time>2015-07-25T02:43:36Z</time>
      </trkpt>
      <trkpt lat="43.24134" lon="6.97417">
        <ele>0.6180419921875</ele>
        <time>2015-07-25T02:43:38Z</time>
      </trkpt>
      <trkpt lat="43.24104" lon="6.97453">
        <ele>1.0986328125</ele>
        <time>2015-07-25T02:43:52Z</time>
      </trkpt>
      <trkpt lat="43.24071" lon="6.97486">
        <ele>0.6180419921875</ele>
        <time>2015-07-25T02:44:06Z</time>
      </trkpt>
      <trkpt lat="43.24042" lon="6.9752">
        <ele>0.6180419921875</ele>
        <time>2015-07-25T02:44:19Z</time>
      </trkpt>
      <trkpt lat="43.24018" lon="6.97566">
        <ele>1.0986328125</ele>
        <time>2015-07-25T02:44:36Z</time>
      </trkpt>
      <trkpt lat="43.23997" lon="6.97607">
        <ele>0.6180419921875</ele>
        <time>2015-07-25T02:44:50Z</time>
      </trkpt>
      <trkpt lat="43.23982" lon="6.97646">
        <ele>1.0986328125</ele>
        <time>2015-07-25T02:45:02Z</time>
      </trkpt>
      <trkpt lat="43.2396" lon="6.97685">
        <ele>1.0986328125</ele>
        <time>2015-07-25T02:45:16Z</time>
      </trkpt>
      <trkpt lat="43.23936" lon="6.97729">
        <ele>0.6180419921875</ele>
        <time>2015-07-25T02:45:31Z</time>
      </trkpt>
      <trkpt lat="43.23925" lon="6.97756">
        <ele>0.6180419921875</ele>
        <time>2015-07-25T02:45:40Z</time>
      </trkpt>
      <trkpt lat="43.23914" lon="6.97784">
        <ele>0.137451171875</ele>
        <time>2015-07-25T02:45:50Z</time>
      </trkpt>
      <trkpt lat="43.2389" lon="6.97826">
        <ele>0.6180419921875</ele>
        <time>2015-07-25T02:46:06Z</time>
      </trkpt>
      <trkpt lat="43.23868" lon="6.97851">
        <ele>1.0986328125</ele>
        <time>2015-07-25T02:46:16Z</time>
      </trkpt>
      <trkpt lat="43.23843" lon="6.97879">
        <ele>0.6180419921875</ele>
        <time>2015-07-25T02:46:27Z</time>
      </trkpt>
      <trkpt lat="43.23819" lon="6.97918">
        <ele>0.6180419921875</ele>
        <time>2015-07-25T02:46:40Z</time>
      </trkpt>
      <trkpt lat="43.23816" lon="6.97926">
        <ele>1.0986328125</ele>
        <time>2015-07-25T02:46:42Z</time>
      </trkpt>
      <trkpt lat="43.23783" lon="6.97965">
        <ele>0.6180419921875</ele>
        <time>2015-07-25T02:46:58Z</time>
      </trkpt>
      <trkpt lat="43.23758" lon="6.98006">
        <ele>0.6180419921875</ele>
        <time>2015-07-25T02:47:13Z</time>
      </trkpt>
      <trkpt lat="43.23731" lon="6.98046">
        <ele>0.6180419921875</ele>
        <time>2015-07-25T02:47:27Z</time>
      </trkpt>
      <trkpt lat="43.23702" lon="6.98078">
        <ele>0.6180419921875</ele>
        <time>2015-07-25T02:47:40Z</time>
      </trkpt>
      <trkpt lat="43.23673" lon="6.98107">
        <ele>1.0986328125</ele>
        <time>2015-07-25T02:47:53Z</time>
      </trkpt>
      <trkpt lat="43.23635" lon="6.98136">
        <ele>1.0986328125</ele>
        <time>2015-07-25T02:48:08Z</time>
      </trkpt>
      <trkpt lat="43.236" lon="6.9817">
        <ele>0.6180419921875</ele>
        <time>2015-07-25T02:48:23Z</time>
      </trkpt>
      <trkpt lat="43.23569" lon="6.98201">
        <ele>1.0986328125</ele>
        <time>2015-07-25T02:48:36Z</time>
      </trkpt>
      <trkpt lat="43.23522" lon="6.98254">
        <ele>0.6180419921875</ele>
        <time>2015-07-25T02:48:58Z</time>
      </trkpt>
      <trkpt lat="43.23496" lon="6.98292">
        <ele>0.6180419921875</ele>
        <time>2015-07-25T02:49:13Z</time>
      </trkpt>
      <trkpt lat="43.23468" lon="6.98363">
        <ele>0.6180419921875</ele>
        <time>2015-07-25T02:49:38Z</time>
      </trkpt>
      <trkpt lat="43.23418" lon="6.98437">
        <ele>1.579345703125</ele>
        <time>2015-07-25T02:50:08Z</time>
      </trkpt>
      <trkpt lat="43.23383" lon="6.98462">
        <ele>2.06005859375</ele>
        <time>2015-07-25T02:50:22Z</time>
      </trkpt>
      <trkpt lat="43.2336" lon="6.98491">
        <ele>1.0986328125</ele>
        <time>2015-07-25T02:50:33Z</time>
      </trkpt>
      <trkpt lat="43.23329" lon="6.98517">
        <ele>1.0986328125</ele>
        <time>2015-07-25T02:50:45Z</time>
      </trkpt>
      <trkpt lat="43.23303" lon="6.98555">
        <ele>0.137451171875</ele>
        <time>2015-07-25T02:50:59Z</time>
      </trkpt>
      <trkpt lat="43.23275" lon="6.98608">
        <ele>1.0986328125</ele>
        <time>2015-07-25T02:51:18Z</time>
      </trkpt>
      <trkpt lat="43.23249" lon="6.9865">
        <ele>1.0986328125</ele>
        <time>2015-07-25T02:51:34Z</time>
      </trkpt>
      <trkpt lat="43.23209" lon="6.98714">
        <ele>1.579345703125</ele>
        <time>2015-07-25T02:51:58Z</time>
      </trkpt>
      <trkpt lat="43.23189" lon="6.98748">
        <ele>1.0986328125</ele>
        <time>2015-07-25T02:52:10Z</time>
      </trkpt>
      <trkpt lat="43.23164" lon="6.98785">
        <ele>0.6180419921875</ele>
        <time>2015-07-25T02:52:22Z</time>
      </trkpt>
      <trkpt lat="43.23111" lon="6.98832">
        <ele>-1.7852783203125</ele>
        <time>2015-07-25T02:52:42Z</time>
      </trkpt>
      <trkpt lat="43.23065" lon="6.98875">
        <ele>-0.8240966796875</ele>
        <time>2015-07-25T02:52:58Z</time>
      </trkpt>
      <trkpt lat="43.23043" lon="6.98907">
        <ele>0.6180419921875</ele>
        <time>2015-07-25T02:53:08Z</time>
      </trkpt>
      <trkpt lat="43.23004" lon="6.98968">
        <ele>-1.7852783203125</ele>
        <time>2015-07-25T02:53:32Z</time>
      </trkpt>
      <trkpt lat="43.22961" lon="6.99025">
        <ele>0.6180419921875</ele>
        <time>2015-07-25T02:53:56Z</time>
      </trkpt>
      <trkpt lat="43.22938" lon="6.99065">
        <ele>-0.3433837890625</ele>
        <time>2015-07-25T02:54:11Z</time>
      </trkpt>
      <trkpt lat="43.22906" lon="6.99122">
        <ele>0.137451171875</ele>
        <time>2015-07-25T02:54:32Z</time>
      </trkpt>
      <trkpt lat="43.22885" lon="6.99163">
        <ele>0.137451171875</ele>
        <time>2015-07-25T02:54:46Z</time>
      </trkpt>
      <trkpt lat="43.22865" lon="6.99203">
        <ele>0.137451171875</ele>
        <time>2015-07-25T02:55:00Z</time>
      </trkpt>
      <trkpt lat="43.2285" lon="6.99253">
        <ele>-0.3433837890625</ele>
        <time>2015-07-25T02:55:17Z</time>
      </trkpt>
      <trkpt lat="43.2283" lon="6.99297">
        <ele>-1.3046875</ele>
        <time>2015-07-25T02:55:32Z</time>
      </trkpt>
      <trkpt lat="43.22795" lon="6.99333">
        <ele>0.6180419921875</ele>
        <time>2015-07-25T02:55:47Z</time>
      </trkpt>
      <trkpt lat="43.22766" lon="6.9936">
        <ele>0.137451171875</ele>
        <time>2015-07-25T02:55:59Z</time>
      </trkpt>
      <trkpt lat="43.22742" lon="6.99399">
        <ele>0.6180419921875</ele>
        <time>2015-07-25T02:56:11Z</time>
      </trkpt>
      <trkpt lat="43.22716" lon="6.99435">
        <ele>0.6180419921875</ele>
        <time>2015-07-25T02:56:25Z</time>
      </trkpt>
      <trkpt lat="43.22688" lon="6.99487">
        <ele>1.0986328125</ele>
        <time>2015-07-25T02:56:45Z</time>
      </trkpt>
      <trkpt lat="43.22659" lon="6.99529">
        <ele>1.0986328125</ele>
        <time>2015-07-25T02:57:00Z</time>
      </trkpt>
      <trkpt lat="43.22636" lon="6.99574">
        <ele>0.137451171875</ele>
        <time>2015-07-25T02:57:14Z</time>
      </trkpt>
      <trkpt lat="43.22613" lon="6.99606">
        <ele>0.6180419921875</ele>
        <time>2015-07-25T02:57:27Z</time>
      </trkpt>
      <trkpt lat="43.22588" lon="6.99637">
        <ele>0.137451171875</ele>
        <time>2015-07-25T02:57:38Z</time>
      </trkpt>
      <trkpt lat="43.22552" lon="6.99702">
        <ele>0.137451171875</ele>
        <time>2015-07-25T02:58:00Z</time>
      </trkpt>
      <trkpt lat="43.22532" lon="6.99755">
        <ele>0.137451171875</ele>
        <time>2015-07-25T02:58:17Z</time>
      </trkpt>
      <trkpt lat="43.22507" lon="6.99789">
        <ele>2.06005859375</ele>
        <time>2015-07-25T02:58:30Z</time>
      </trkpt>
      <trkpt lat="43.22481" lon="6.99833">
        <ele>0.137451171875</ele>
        <time>2015-07-25T02:58:47Z</time>
      </trkpt>
      <trkpt lat="43.22456" lon="6.99868">
        <ele>0.6180419921875</ele>
        <time>2015-07-25T02:59:01Z</time>
      </trkpt>
      <trkpt lat="43.22423" lon="6.99907">
        <ele>0.137451171875</ele>
        <time>2015-07-25T02:59:15Z</time>
      </trkpt>
      <trkpt lat="43.22405" lon="6.99948">
        <ele>0.6180419921875</ele>
        <time>2015-07-25T02:59:28Z</time>
      </trkpt>
      <trkpt lat="43.22377" lon="6.99979">
        <ele>0.137451171875</ele>
        <time>2015-07-25T02:59:41Z</time>
      </trkpt>
      <trkpt lat="43.22342" lon="7.00041">
        <ele>0.137451171875</ele>
        <time>2015-07-25T03:00:04Z</time>
      </trkpt>
      <trkpt lat="43.22328" lon="7.00082">
        <ele>0.137451171875</ele>
        <time>2015-07-25T03:00:19Z</time>
      </trkpt>
      <trkpt lat="43.22295" lon="7.00141">
        <ele>0.137451171875</ele>
        <time>2015-07-25T03:00:40Z</time>
      </trkpt>
      <trkpt lat="43.22276" lon="7.00173">
        <ele>0.6180419921875</ele>
        <time>2015-07-25T03:00:52Z</time>
      </trkpt>
      <trkpt lat="43.22248" lon="7.00213">
        <ele>0.137451171875</ele>
        <time>2015-07-25T03:01:05Z</time>
      </trkpt>
      <trkpt lat="43.22229" lon="7.00248">
        <ele>-0.3433837890625</ele>
        <time>2015-07-25T03:01:17Z</time>
      </trkpt>
      <trkpt lat="43.22205" lon="7.00282">
        <ele>0.137451171875</ele>
        <time>2015-07-25T03:01:29Z</time>
      </trkpt>
      <trkpt lat="43.22182" lon="7.00319">
        <ele>-0.8240966796875</ele>
        <time>2015-07-25T03:01:41Z</time>
      </trkpt>
      <trkpt lat="43.22153" lon="7.00373">
        <ele>0.137451171875</ele>
        <time>2015-07-25T03:01:59Z</time>
      </trkpt>
      <trkpt lat="43.2213" lon="7.00414">
        <ele>0.137451171875</ele>
        <time>2015-07-25T03:02:13Z</time>
      </trkpt>
      <trkpt lat="43.22104" lon="7.00446">
        <ele>-1.3046875</ele>
        <time>2015-07-25T03:02:26Z</time>
      </trkpt>
      <trkpt lat="43.22079" lon="7.0049">
        <ele>0.137451171875</ele>
        <time>2015-07-25T03:02:41Z</time>
      </trkpt>
      <trkpt lat="43.22038" lon="7.00538">
        <ele>-0.3433837890625</ele>
        <time>2015-07-25T03:02:59Z</time>
      </trkpt>
      <trkpt lat="43.22017" lon="7.00582">
        <ele>0.137451171875</ele>
        <time>2015-07-25T03:03:13Z</time>
      </trkpt>
      <trkpt lat="43.21996" lon="7.00622">
        <ele>1.579345703125</ele>
        <time>2015-07-25T03:03:26Z</time>
      </trkpt>
      <trkpt lat="43.21961" lon="7.00645">
        <ele>2.06005859375</ele>
        <time>2015-07-25T03:03:40Z</time>
      </trkpt>
      <trkpt lat="43.21926" lon="7.00671">
        <ele>1.0986328125</ele>
        <time>2015-07-25T03:03:54Z</time>
      </trkpt>
      <trkpt lat="43.21906" lon="7.00709">
        <ele>0.6180419921875</ele>
        <time>2015-07-25T03:04:06Z</time>
      </trkpt>
      <trkpt lat="43.21865" lon="7.00759">
        <ele>1.579345703125</ele>
        <time>2015-07-25T03:04:26Z</time>
      </trkpt>
      <trkpt lat="43.21838" lon="7.00794">
        <ele>1.0986328125</ele>
        <time>2015-07-25T03:04:38Z</time>
      </trkpt>
      <trkpt lat="43.21808" lon="7.00824">
        <ele>1.579345703125</ele>
        <time>2015-07-25T03:04:50Z</time>
      </trkpt>
      <trkpt lat="43.21782" lon="7.0086">
        <ele>0.137451171875</ele>
        <time>2015-07-25T03:05:02Z</time>
      </trkpt>
      <trkpt lat="43.21754" lon="7.00889">
        <ele>1.0986328125</ele>
        <time>2015-07-25T03:05:14Z</time>
      </trkpt>
      <trkpt lat="43.21721" lon="7.00932">
        <ele>1.0986328125</ele>
        <time>2015-07-25T03:05:30Z</time>
      </trkpt>
      <trkpt lat="43.21688" lon="7.00985">
        <ele>1.0986328125</ele>
        <time>2015-07-25T03:05:48Z</time>
      </trkpt>
      <trkpt lat="43.21668" lon="7.01024">
        <ele>1.0986328125</ele>
        <time>2015-07-25T03:06:01Z</time>
      </trkpt>
      <trkpt lat="43.21618" lon="7.0108">
        <ele>2.06005859375</ele>
        <time>2015-07-25T03:06:24Z</time>
      </trkpt>
      <trkpt lat="43.21588" lon="7.01107">
        <ele>1.579345703125</ele>
        <time>2015-07-25T03:06:36Z</time>
      </trkpt>
      <trkpt lat="43.21563" lon="7.01136">
        <ele>1.579345703125</ele>
        <time>2015-07-25T03:06:47Z</time>
      </trkpt>
      <trkpt lat="43.2154" lon="7.01168">
        <ele>1.579345703125</ele>
        <time>2015-07-25T03:06:58Z</time>
      </trkpt>
      <trkpt lat="43.21482" lon="7.01232">
        <ele>1.579345703125</ele>
        <time>2015-07-25T03:07:23Z</time>
      </trkpt>
      <trkpt lat="43.21448" lon="7.01268">
        <ele>2.5406494140625</ele>
        <time>2015-07-25T03:07:38Z</time>
      </trkpt>
      <trkpt lat="43.21413" lon="7.01303">
        <ele>1.579345703125</ele>
        <time>2015-07-25T03:07:52Z</time>
      </trkpt>
      <trkpt lat="43.21381" lon="7.01336">
        <ele>1.0986328125</ele>
        <time>2015-07-25T03:08:05Z</time>
      </trkpt>
      <trkpt lat="43.21348" lon="7.01375">
        <ele>1.0986328125</ele>
        <time>2015-07-25T03:08:19Z</time>
      </trkpt>
      <trkpt lat="43.21314" lon="7.01405">
        <ele>1.579345703125</ele>
        <time>2015-07-25T03:08:33Z</time>
      </trkpt>
      <trkpt lat="43.21287" lon="7.01427">
        <ele>1.579345703125</ele>
        <time>2015-07-25T03:08:44Z</time>
      </trkpt>
      <trkpt lat="43.21245" lon="7.01472">
        <ele>0.6180419921875</ele>
        <time>2015-07-25T03:09:01Z</time>
      </trkpt>
      <trkpt lat="43.21211" lon="7.01519">
        <ele>0.6180419921875</ele>
        <time>2015-07-25T03:09:17Z</time>
      </trkpt>
      <trkpt lat="43.21181" lon="7.01563">
        <ele>1.579345703125</ele>
        <time>2015-07-25T03:09:32Z</time>
      </trkpt>
      <trkpt lat="43.21149" lon="7.0161">
        <ele>1.0986328125</ele>
        <time>2015-07-25T03:09:48Z</time>
      </trkpt>
      <trkpt lat="43.21115" lon="7.0165">
        <ele>0.6180419921875</ele>
        <time>2015-07-25T03:10:03Z</time>
      </trkpt>
      <trkpt lat="43.21091" lon="7.01684">
        <ele>1.579345703125</ele>
        <time>2015-07-25T03:10:15Z</time>
      </trkpt>
      <trkpt lat="43.21067" lon="7.01717">
        <ele>0.6180419921875</ele>
        <time>2015-07-25T03:10:27Z</time>
      </trkpt>
      <trkpt lat="43.21041" lon="7.01758">
        <ele>1.0986328125</ele>
        <time>2015-07-25T03:10:42Z</time>
      </trkpt>
      <trkpt lat="43.20996" lon="7.01823">
        <ele>0.6180419921875</ele>
        <time>2015-07-25T03:11:07Z</time>
      </trkpt>
      <trkpt lat="43.20971" lon="7.01851">
        <ele>1.0986328125</ele>
        <time>2015-07-25T03:11:18Z</time>
      </trkpt>
      <trkpt lat="43.20939" lon="7.0188">
        <ele>1.579345703125</ele>
        <time>2015-07-25T03:11:31Z</time>
      </trkpt>
      <trkpt lat="43.20895" lon="7.01939">
        <ele>0.137451171875</ele>
        <time>2015-07-25T03:11:52Z</time>
      </trkpt>
      <trkpt lat="43.20875" lon="7.01973">
        <ele>1.0986328125</ele>
        <time>2015-07-25T03:12:04Z</time>
      </trkpt>
      <trkpt lat="43.20855" lon="7.02011">
        <ele>0.6180419921875</ele>
        <time>2015-07-25T03:12:17Z</time>
      </trkpt>
      <trkpt lat="43.2083" lon="7.0204">
        <ele>0.6180419921875</ele>
        <time>2015-07-25T03:12:29Z</time>
      </trkpt>
      <trkpt lat="43.20803" lon="7.02066">
        <ele>1.0986328125</ele>
        <time>2015-07-25T03:12:40Z</time>
      </trkpt>
      <trkpt lat="43.20768" lon="7.02109">
        <ele>0.6180419921875</ele>
        <time>2015-07-25T03:12:56Z</time>
      </trkpt>
      <trkpt lat="43.20748" lon="7.02147">
        <ele>1.579345703125</ele>
        <time>2015-07-25T03:13:09Z</time>
      </trkpt>
      <trkpt lat="43.2071" lon="7.02191">
        <ele>1.579345703125</ele>
        <time>2015-07-25T03:13:27Z</time>
      </trkpt>
      <trkpt lat="43.20684" lon="7.02224">
        <ele>0.6180419921875</ele>
        <time>2015-07-25T03:13:39Z</time>
      </trkpt>
      <trkpt lat="43.20649" lon="7.02271">
        <ele>0.6180419921875</ele>
        <time>2015-07-25T03:13:57Z</time>
      </trkpt>
      <trkpt lat="43.20619" lon="7.02307">
        <ele>1.0986328125</ele>
        <time>2015-07-25T03:14:11Z</time>
      </trkpt>
      <trkpt lat="43.20593" lon="7.02341">
        <ele>1.0986328125</ele>
        <time>2015-07-25T03:14:24Z</time>
      </trkpt>
      <trkpt lat="43.20567" lon="7.02375">
        <ele>1.0986328125</ele>
        <time>2015-07-25T03:14:37Z</time>
      </trkpt>
      <trkpt lat="43.20535" lon="7.02404">
        <ele>0.6180419921875</ele>
        <time>2015-07-25T03:14:50Z</time>
      </trkpt>
      <trkpt lat="43.20512" lon="7.02433">
        <ele>0.6180419921875</ele>
        <time>2015-07-25T03:15:01Z</time>
      </trkpt>
      <trkpt lat="43.20484" lon="7.02467">
        <ele>0.137451171875</ele>
        <time>2015-07-25T03:15:14Z</time>
      </trkpt>
      <trkpt lat="43.2045" lon="7.02518">
        <ele>0.137451171875</ele>
        <time>2015-07-25T03:15:34Z</time>
      </trkpt>
      <trkpt lat="43.20426" lon="7.0256">
        <ele>-0.3433837890625</ele>
        <time>2015-07-25T03:15:50Z</time>
      </trkpt>
      <trkpt lat="43.20386" lon="7.026">
        <ele>0.6180419921875</ele>
        <time>2015-07-25T03:16:09Z</time>
      </trkpt>
      <trkpt lat="43.20358" lon="7.02636">
        <ele>0.6180419921875</ele>
        <time>2015-07-25T03:16:23Z</time>
      </trkpt>
      <trkpt lat="43.20322" lon="7.02667">
        <ele>0.6180419921875</ele>
        <time>2015-07-25T03:16:38Z</time>
      </trkpt>
      <trkpt lat="43.203" lon="7.027">
        <ele>0.6180419921875</ele>
        <time>2015-07-25T03:16:49Z</time>
      </trkpt>
      <trkpt lat="43.20258" lon="7.02755">
        <ele>0.137451171875</ele>
        <time>2015-07-25T03:17:10Z</time>
      </trkpt>
      <trkpt lat="43.20219" lon="7.02812">
        <ele>0.137451171875</ele>
        <time>2015-07-25T03:17:31Z</time>
      </trkpt>
      <trkpt lat="43.20179" lon="7.02868">
        <ele>0.6180419921875</ele>
        <time>2015-07-25T03:17:53Z</time>
      </trkpt>
      <trkpt lat="43.20152" lon="7.02893">
        <ele>0.6180419921875</ele>
        <time>2015-07-25T03:18:04Z</time>
      </trkpt>
      <trkpt lat="43.20109" lon="7.02949">
        <ele>0.137451171875</ele>
        <time>2015-07-25T03:18:26Z</time>
      </trkpt>
      <trkpt lat="43.20071" lon="7.02992">
        <ele>0.137451171875</ele>
        <time>2015-07-25T03:18:43Z</time>
      </trkpt>
      <trkpt lat="43.20041" lon="7.03032">
        <ele>0.137451171875</ele>
        <time>2015-07-25T03:18:59Z</time>
      </trkpt>
      <trkpt lat="43.20019" lon="7.03066">
        <ele>0.137451171875</ele>
        <time>2015-07-25T03:19:12Z</time>
      </trkpt>
      <trkpt lat="43.19969" lon="7.03126">
        <ele>1.0986328125</ele>
        <time>2015-07-25T03:19:37Z</time>
      </trkpt>
      <trkpt lat="43.19924" lon="7.03155">
        <ele>0.6180419921875</ele>
        <time>2015-07-25T03:19:54Z</time>
      </trkpt>
      <trkpt lat="43.19894" lon="7.03187">
        <ele>0.6180419921875</ele>
        <time>2015-07-25T03:20:07Z</time>
      </trkpt>
      <trkpt lat="43.19846" lon="7.03252">
        <ele>-0.3433837890625</ele>
        <time>2015-07-25T03:20:31Z</time>
      </trkpt>
      <trkpt lat="43.19809" lon="7.03303">
        <ele>0.6180419921875</ele>
        <time>2015-07-25T03:20:52Z</time>
      </trkpt>
      <trkpt lat="43.1977" lon="7.03366">
        <ele>0.137451171875</ele>
        <time>2015-07-25T03:21:16Z</time>
      </trkpt>
      <trkpt lat="43.19733" lon="7.03401">
        <ele>0.137451171875</ele>
        <time>2015-07-25T03:21:32Z</time>
      </trkpt>
      <trkpt lat="43.19708" lon="7.0343">
        <ele>0.137451171875</ele>
        <time>2015-07-25T03:21:44Z</time>
      </trkpt>
      <trkpt lat="43.19667" lon="7.03475">
        <ele>-0.3433837890625</ele>
        <time>2015-07-25T03:22:04Z</time>
      </trkpt>
      <trkpt lat="43.19633" lon="7.03524">
        <ele>-0.3433837890625</ele>
        <time>2015-07-25T03:22:23Z</time>
      </trkpt>
      <trkpt lat="43.19609" lon="7.0356">
        <ele>0.6180419921875</ele>
        <time>2015-07-25T03:22:37Z</time>
      </trkpt>
      <trkpt lat="43.19578" lon="7.03585">
        <ele>0.6180419921875</ele>
        <time>2015-07-25T03:22:49Z</time>
      </trkpt>
      <trkpt lat="43.19537" lon="7.0361">
        <ele>0.137451171875</ele>
        <time>2015-07-25T03:23:04Z</time>
      </trkpt>
      <trkpt lat="43.19505" lon="7.03669">
        <ele>0.137451171875</ele>
        <time>2015-07-25T03:23:25Z</time>
      </trkpt>
      <trkpt lat="43.19476" lon="7.0371">
        <ele>-0.3433837890625</ele>
        <time>2015-07-25T03:23:41Z</time>
      </trkpt>
      <trkpt lat="43.19445" lon="7.03745">
        <ele>0.137451171875</ele>
        <time>2015-07-25T03:23:56Z</time>
      </trkpt>
      <trkpt lat="43.19419" lon="7.03773">
        <ele>-0.3433837890625</ele>
        <time>2015-07-25T03:24:08Z</time>
      </trkpt>
      <trkpt lat="43.19397" lon="7.03805">
        <ele>0.137451171875</ele>
        <time>2015-07-25T03:24:21Z</time>
      </trkpt>
      <trkpt lat="43.19369" lon="7.03832">
        <ele>0.6180419921875</ele>
        <time>2015-07-25T03:24:34Z</time>
      </trkpt>
      <trkpt lat="43.19339" lon="7.03873">
        <ele>-0.3433837890625</ele>
        <time>2015-07-25T03:24:49Z</time>
      </trkpt>
      <trkpt lat="43.1932" lon="7.03911">
        <ele>0.137451171875</ele>
        <time>2015-07-25T03:25:03Z</time>
      </trkpt>
      <trkpt lat="43.19274" lon="7.03963">
        <ele>0.6180419921875</ele>
        <time>2015-07-25T03:25:24Z</time>
      </trkpt>
      <trkpt lat="43.19243" lon="7.04">
        <ele>0.137451171875</ele>
        <time>2015-07-25T03:25:39Z</time>
      </trkpt>
      <trkpt lat="43.19198" lon="7.04076">
        <ele>-0.3433837890625</ele>
        <time>2015-07-25T03:26:06Z</time>
      </trkpt>
      <trkpt lat="43.19178" lon="7.04111">
        <ele>-0.3433837890625</ele>
        <time>2015-07-25T03:26:18Z</time>
      </trkpt>
      <trkpt lat="43.19141" lon="7.04154">
        <ele>0.6180419921875</ele>
        <time>2015-07-25T03:26:34Z</time>
      </trkpt>
      <trkpt lat="43.19106" lon="7.04202">
        <ele>-0.3433837890625</ele>
        <time>2015-07-25T03:26:51Z</time>
      </trkpt>
      <trkpt lat="43.19074" lon="7.04255">
        <ele>0.137451171875</ele>
        <time>2015-07-25T03:27:08Z</time>
      </trkpt>
      <trkpt lat="43.19044" lon="7.04297">
        <ele>0.6180419921875</ele>
        <time>2015-07-25T03:27:23Z</time>
      </trkpt>
      <trkpt lat="43.1902" lon="7.0434">
        <ele>-0.3433837890625</ele>
        <time>2015-07-25T03:27:38Z</time>
      </trkpt>
      <trkpt lat="43.18966" lon="7.04407">
        <ele>0.6180419921875</ele>
        <time>2015-07-25T03:28:04Z</time>
      </trkpt>
      <trkpt lat="43.18939" lon="7.04448">
        <ele>0.137451171875</ele>
        <time>2015-07-25T03:28:18Z</time>
      </trkpt>
      <trkpt lat="43.18894" lon="7.04502">
        <ele>0.6180419921875</ele>
        <time>2015-07-25T03:28:39Z</time>
      </trkpt>
      <trkpt lat="43.18857" lon="7.04528">
        <ele>0.6180419921875</ele>
        <time>2015-07-25T03:28:53Z</time>
      </trkpt>
      <trkpt lat="43.18832" lon="7.04564">
        <ele>0.137451171875</ele>
        <time>2015-07-25T03:29:06Z</time>
      </trkpt>
      <trkpt lat="43.18801" lon="7.0461">
        <ele>-0.3433837890625</ele>
        <time>2015-07-25T03:29:22Z</time>
      </trkpt>
      <trkpt lat="43.18777" lon="7.04646">
        <ele>-0.3433837890625</ele>
        <time>2015-07-25T03:29:35Z</time>
      </trkpt>
      <trkpt lat="43.18757" lon="7.04685">
        <ele>-0.8240966796875</ele>
        <time>2015-07-25T03:29:49Z</time>
      </trkpt>
      <trkpt lat="43.18723" lon="7.04734">
        <ele>0.137451171875</ele>
        <time>2015-07-25T03:30:07Z</time>
      </trkpt>
      <trkpt lat="43.18701" lon="7.04765">
        <ele>-0.3433837890625</ele>
        <time>2015-07-25T03:30:20Z</time>
      </trkpt>
      <trkpt lat="43.18673" lon="7.04806">
        <ele>-0.3433837890625</ele>
        <time>2015-07-25T03:30:36Z</time>
      </trkpt>
      <trkpt lat="43.18639" lon="7.04836">
        <ele>0.137451171875</ele>
        <time>2015-07-25T03:30:50Z</time>
      </trkpt>
      <trkpt lat="43.18618" lon="7.04877">
        <ele>-0.8240966796875</ele>
        <time>2015-07-25T03:31:05Z</time>
      </trkpt>
      <trkpt lat="43.18592" lon="7.04912">
        <ele>-0.3433837890625</ele>
        <time>2015-07-25T03:31:19Z</time>
      </trkpt>
      <trkpt lat="43.18562" lon="7.04945">
        <ele>-0.8240966796875</ele>
        <time>2015-07-25T03:31:33Z</time>
      </trkpt>
      <trkpt lat="43.18521" lon="7.04986">
        <ele>0.137451171875</ele>
        <time>2015-07-25T03:31:51Z</time>
      </trkpt>
      <trkpt lat="43.18485" lon="7.05041">
        <ele>-0.3433837890625</ele>
        <time>2015-07-25T03:32:13Z</time>
      </trkpt>
      <trkpt lat="43.1846" lon="7.051">
        <ele>-0.3433837890625</ele>
        <time>2015-07-25T03:32:37Z</time>
      </trkpt>
      <trkpt lat="43.18416" lon="7.05173">
        <ele>-0.3433837890625</ele>
        <time>2015-07-25T03:33:04Z</time>
      </trkpt>
      <trkpt lat="43.18401" lon="7.05212">
        <ele>-0.3433837890625</ele>
        <time>2015-07-25T03:33:17Z</time>
      </trkpt>
      <trkpt lat="43.18378" lon="7.05245">
        <ele>-0.3433837890625</ele>
        <time>2015-07-25T03:33:30Z</time>
      </trkpt>
      <trkpt lat="43.18352" lon="7.05275">
        <ele>0.137451171875</ele>
        <time>2015-07-25T03:33:43Z</time>
      </trkpt>
      <trkpt lat="43.18327" lon="7.05314">
        <ele>-0.8240966796875</ele>
        <time>2015-07-25T03:33:57Z</time>
      </trkpt>
      <trkpt lat="43.18276" lon="7.05365">
        <ele>-0.3433837890625</ele>
        <time>2015-07-25T03:34:19Z</time>
      </trkpt>
      <trkpt lat="43.1825" lon="7.05395">
        <ele>-0.3433837890625</ele>
        <time>2015-07-25T03:34:31Z</time>
      </trkpt>
      <trkpt lat="43.18222" lon="7.0543">
        <ele>-0.3433837890625</ele>
        <time>2015-07-25T03:34:45Z</time>
      </trkpt>
      <trkpt lat="43.18195" lon="7.05466">
        <ele>-0.3433837890625</ele>
        <time>2015-07-25T03:34:59Z</time>
      </trkpt>
      <trkpt lat="43.1817" lon="7.05494">
        <ele>0.137451171875</ele>
        <time>2015-07-25T03:35:10Z</time>
      </trkpt>
      <trkpt lat="43.18131" lon="7.05558">
        <ele>-0.8240966796875</ele>
        <time>2015-07-25T03:35:34Z</time>
      </trkpt>
      <trkpt lat="43.18109" lon="7.05595">
        <ele>-0.3433837890625</ele>
        <time>2015-07-25T03:35:47Z</time>
      </trkpt>
      <trkpt lat="43.18086" lon="7.05638">
        <ele>-0.3433837890625</ele>
        <time>2015-07-25T03:36:03Z</time>
      </trkpt>
      <trkpt lat="43.18034" lon="7.05694">
        <ele>-0.3433837890625</ele>
        <time>2015-07-25T03:36:29Z</time>
      </trkpt>
      <trkpt lat="43.17979" lon="7.05753">
        <ele>-0.8240966796875</ele>
        <time>2015-07-25T03:36:52Z</time>
      </trkpt>
      <trkpt lat="43.17952" lon="7.05784">
        <ele>0.6180419921875</ele>
        <time>2015-07-25T03:37:06Z</time>
      </trkpt>
      <trkpt lat="43.1792" lon="7.05806">
        <ele>0.137451171875</ele>
        <time>2015-07-25T03:37:18Z</time>
      </trkpt>
      <trkpt lat="43.17869" lon="7.05873">
        <ele>-0.3433837890625</ele>
        <time>2015-07-25T03:37:43Z</time>
      </trkpt>
      <trkpt lat="43.17842" lon="7.05904">
        <ele>-0.8240966796875</ele>
        <time>2015-07-25T03:37:57Z</time>
      </trkpt>
      <trkpt lat="43.17815" lon="7.05933">
        <ele>-0.8240966796875</ele>
        <time>2015-07-25T03:38:09Z</time>
      </trkpt>
      <trkpt lat="43.17772" lon="7.05981">
        <ele>-0.3433837890625</ele>
        <time>2015-07-25T03:38:30Z</time>
      </trkpt>
      <trkpt lat="43.17747" lon="7.0601">
        <ele>-0.3433837890625</ele>
        <time>2015-07-25T03:38:43Z</time>
      </trkpt>
      <trkpt lat="43.17718" lon="7.06036">
        <ele>-0.8240966796875</ele>
        <time>2015-07-25T03:38:54Z</time>
      </trkpt>
      <trkpt lat="43.17687" lon="7.06073">
        <ele>-0.8240966796875</ele>
        <time>2015-07-25T03:39:09Z</time>
      </trkpt>
      <trkpt lat="43.17639" lon="7.06114">
        <ele>-0.8240966796875</ele>
        <time>2015-07-25T03:39:31Z</time>
      </trkpt>
      <trkpt lat="43.17614" lon="7.06145">
        <ele>-0.8240966796875</ele>
        <time>2015-07-25T03:39:43Z</time>
      </trkpt>
      <trkpt lat="43.17584" lon="7.06178">
        <ele>-0.8240966796875</ele>
        <time>2015-07-25T03:39:57Z</time>
      </trkpt>
      <trkpt lat="43.17532" lon="7.06243">
        <ele>-0.8240966796875</ele>
        <time>2015-07-25T03:40:24Z</time>
      </trkpt>
      <trkpt lat="43.1749" lon="7.0629">
        <ele>-0.3433837890625</ele>
        <time>2015-07-25T03:40:47Z</time>
      </trkpt>
      <trkpt lat="43.17463" lon="7.06322">
        <ele>-0.8240966796875</ele>
        <time>2015-07-25T03:41:02Z</time>
      </trkpt>
      <trkpt lat="43.17427" lon="7.06372">
        <ele>-0.8240966796875</ele>
        <time>2015-07-25T03:41:23Z</time>
      </trkpt>
      <trkpt lat="43.17392" lon="7.06405">
        <ele>-0.3433837890625</ele>
        <time>2015-07-25T03:41:39Z</time>
      </trkpt>
      <trkpt lat="43.17355" lon="7.06446">
        <ele>-0.3433837890625</ele>
        <time>2015-07-25T03:41:57Z</time>
      </trkpt>
      <trkpt lat="43.17317" lon="7.0649">
        <ele>0.137451171875</ele>
        <time>2015-07-25T03:42:16Z</time>
      </trkpt>
      <trkpt lat="43.17284" lon="7.06523">
        <ele>-0.3433837890625</ele>
        <time>2015-07-25T03:42:30Z</time>
      </trkpt>
      <trkpt lat="43.17247" lon="7.06561">
        <ele>0.137451171875</ele>
        <time>2015-07-25T03:42:46Z</time>
      </trkpt>
      <trkpt lat="43.17216" lon="7.06597">
        <ele>-1.3046875</ele>
        <time>2015-07-25T03:43:01Z</time>
      </trkpt>
      <trkpt lat="43.17189" lon="7.06625">
        <ele>-0.8240966796875</ele>
        <time>2015-07-25T03:43:12Z</time>
      </trkpt>
      <trkpt lat="43.17163" lon="7.06651">
        <ele>-0.3433837890625</ele>
        <time>2015-07-25T03:43:23Z</time>
      </trkpt>
      <trkpt lat="43.17144" lon="7.06687">
        <ele>-0.8240966796875</ele>
        <time>2015-07-25T03:43:36Z</time>
      </trkpt>
      <trkpt lat="43.171" lon="7.06759">
        <ele>-0.8240966796875</ele>
        <time>2015-07-25T03:44:04Z</time>
      </trkpt>
      <trkpt lat="43.17073" lon="7.06818">
        <ele>-0.8240966796875</ele>
        <time>2015-07-25T03:44:26Z</time>
      </trkpt>
      <trkpt lat="43.17043" lon="7.06854">
        <ele>-1.3046875</ele>
        <time>2015-07-25T03:44:42Z</time>
      </trkpt>
      <trkpt lat="43.17012" lon="7.06895">
        <ele>-0.8240966796875</ele>
        <time>2015-07-25T03:44:58Z</time>
      </trkpt>
      <trkpt lat="43.16991" lon="7.06937">
        <ele>-1.3046875</ele>
        <time>2015-07-25T03:45:15Z</time>
      </trkpt>
      <trkpt lat="43.16965" lon="7.06968">
        <ele>-0.8240966796875</ele>
        <time>2015-07-25T03:45:30Z</time>
      </trkpt>
      <trkpt lat="43.16935" lon="7.06995">
        <ele>-1.3046875</ele>
        <time>2015-07-25T03:45:44Z</time>
      </trkpt>
      <trkpt lat="43.16906" lon="7.07024">
        <ele>-0.8240966796875</ele>
        <time>2015-07-25T03:45:58Z</time>
      </trkpt>
      <trkpt lat="43.16876" lon="7.07053">
        <ele>-1.3046875</ele>
        <time>2015-07-25T03:46:12Z</time>
      </trkpt>
      <trkpt lat="43.1684" lon="7.07092">
        <ele>-1.7852783203125</ele>
        <time>2015-07-25T03:46:31Z</time>
      </trkpt>
      <trkpt lat="43.16813" lon="7.07124">
        <ele>-1.7852783203125</ele>
        <time>2015-07-25T03:46:47Z</time>
      </trkpt>
      <trkpt lat="43.16792" lon="7.07158">
        <ele>-1.7852783203125</ele>
        <time>2015-07-25T03:47:03Z</time>
      </trkpt>
      <trkpt lat="43.16768" lon="7.07189">
        <ele>-2.2659912109375</ele>
        <time>2015-07-25T03:47:20Z</time>
      </trkpt>
      <trkpt lat="43.16729" lon="7.07241">
        <ele>-2.2659912109375</ele>
        <time>2015-07-25T03:47:43Z</time>
      </trkpt>
      <trkpt lat="43.16705" lon="7.07275">
        <ele>-2.7467041015625</ele>
        <time>2015-07-25T03:47:59Z</time>
      </trkpt>
      <trkpt lat="43.16666" lon="7.07327">
        <ele>-2.2659912109375</ele>
        <time>2015-07-25T03:48:22Z</time>
      </trkpt>
      <trkpt lat="43.16625" lon="7.07379">
        <ele>-3.227294921875</ele>
        <time>2015-07-25T03:48:48Z</time>
      </trkpt>
      <trkpt lat="43.16605" lon="7.07412">
        <ele>-3.227294921875</ele>
        <time>2015-07-25T03:49:01Z</time>
      </trkpt>
      <trkpt lat="43.16546" lon="7.07463">
        <ele>-3.7078857421875</ele>
        <time>2015-07-25T03:49:25Z</time>
      </trkpt>
      <trkpt lat="43.16514" lon="7.07507">
        <ele>-2.7467041015625</ele>
        <time>2015-07-25T03:49:42Z</time>
      </trkpt>
      <trkpt lat="43.1648" lon="7.07547">
        <ele>-3.227294921875</ele>
        <time>2015-07-25T03:49:58Z</time>
      </trkpt>
      <trkpt lat="43.16434" lon="7.07611">
        <ele>-3.7078857421875</ele>
        <time>2015-07-25T03:50:23Z</time>
      </trkpt>
      <trkpt lat="43.16407" lon="7.07641">
        <ele>-2.7467041015625</ele>
        <time>2015-07-25T03:50:36Z</time>
      </trkpt>
      <trkpt lat="43.16382" lon="7.07674">
        <ele>-2.7467041015625</ele>
        <time>2015-07-25T03:50:50Z</time>
      </trkpt>
      <trkpt lat="43.16359" lon="7.07704">
        <ele>-3.227294921875</ele>
        <time>2015-07-25T03:51:03Z</time>
      </trkpt>
      <trkpt lat="43.16325" lon="7.07732">
        <ele>-2.7467041015625</ele>
        <time>2015-07-25T03:51:18Z</time>
      </trkpt>
      <trkpt lat="43.16293" lon="7.07766">
        <ele>-3.227294921875</ele>
        <time>2015-07-25T03:51:32Z</time>
      </trkpt>
      <trkpt lat="43.16263" lon="7.07825">
        <ele>-3.227294921875</ele>
        <time>2015-07-25T03:51:56Z</time>
      </trkpt>
      <trkpt lat="43.16229" lon="7.07865">
        <ele>-3.227294921875</ele>
        <time>2015-07-25T03:52:15Z</time>
      </trkpt>
      <trkpt lat="43.16199" lon="7.07898">
        <ele>-3.7078857421875</ele>
        <time>2015-07-25T03:52:28Z</time>
      </trkpt>
      <trkpt lat="43.16168" lon="7.07944">
        <ele>-3.227294921875</ele>
        <time>2015-07-25T03:52:44Z</time>
      </trkpt>
      <trkpt lat="43.16121" lon="7.08001">
        <ele>-3.7078857421875</ele>
        <time>2015-07-25T03:53:07Z</time>
      </trkpt>
      <trkpt lat="43.16079" lon="7.08053">
        <ele>-3.227294921875</ele>
        <time>2015-07-25T03:53:30Z</time>
      </trkpt>
      <trkpt lat="43.16022" lon="7.08118">
        <ele>-3.7078857421875</ele>
        <time>2015-07-25T03:53:59Z</time>
      </trkpt>
      <trkpt lat="43.15989" lon="7.08169">
        <ele>-3.227294921875</ele>
        <time>2015-07-25T03:54:22Z</time>
      </trkpt>
      <trkpt lat="43.1596" lon="7.08195">
        <ele>-3.227294921875</ele>
        <time>2015-07-25T03:54:36Z</time>
      </trkpt>
      <trkpt lat="43.15924" lon="7.08252">
        <ele>-2.7467041015625</ele>
        <time>2015-07-25T03:55:00Z</time>
      </trkpt>
      <trkpt lat="43.15896" lon="7.08291">
        <ele>-3.227294921875</ele>
        <time>2015-07-25T03:55:17Z</time>
      </trkpt>
      <trkpt lat="43.15875" lon="7.08325">
        <ele>-3.227294921875</ele>
        <time>2015-07-25T03:55:32Z</time>
      </trkpt>
      <trkpt lat="43.15851" lon="7.08355">
        <ele>-3.227294921875</ele>
        <time>2015-07-25T03:55:47Z</time>
      </trkpt>
      <trkpt lat="43.15808" lon="7.08405">
        <ele>-3.7078857421875</ele>
        <time>2015-07-25T03:56:12Z</time>
      </trkpt>
      <trkpt lat="43.15766" lon="7.08436">
        <ele>-4.1885986328125</ele>
        <time>2015-07-25T03:56:32Z</time>
      </trkpt>
      <trkpt lat="43.15726" lon="7.08491">
        <ele>-3.7078857421875</ele>
        <time>2015-07-25T03:56:57Z</time>
      </trkpt>
      <trkpt lat="43.157" lon="7.08516">
        <ele>-3.7078857421875</ele>
        <time>2015-07-25T03:57:10Z</time>
      </trkpt>
      <trkpt lat="43.15674" lon="7.08544">
        <ele>-4.1885986328125</ele>
        <time>2015-07-25T03:57:24Z</time>
      </trkpt>
      <trkpt lat="43.1565" lon="7.08575">
        <ele>-4.1885986328125</ele>
        <time>2015-07-25T03:57:40Z</time>
      </trkpt>
      <trkpt lat="43.15616" lon="7.08621">
        <ele>-4.6693115234375</ele>
        <time>2015-07-25T03:58:00Z</time>
      </trkpt>
      <trkpt lat="43.15592" lon="7.08668">
        <ele>-4.1885986328125</ele>
        <time>2015-07-25T03:58:20Z</time>
      </trkpt>
      <trkpt lat="43.15554" lon="7.08716">
        <ele>-4.1885986328125</ele>
        <time>2015-07-25T03:58:42Z</time>
      </trkpt>
      <trkpt lat="43.15529" lon="7.08777">
        <ele>-3.7078857421875</ele>
        <time>2015-07-25T03:59:07Z</time>
      </trkpt>
      <trkpt lat="43.15485" lon="7.0883">
        <ele>-4.6693115234375</ele>
        <time>2015-07-25T03:59:32Z</time>
      </trkpt>
      <trkpt lat="43.15463" lon="7.08864">
        <ele>-4.1885986328125</ele>
        <time>2015-07-25T03:59:46Z</time>
      </trkpt>
      <trkpt lat="43.15419" lon="7.08917">
        <ele>-3.227294921875</ele>
        <time>2015-07-25T04:00:10Z</time>
      </trkpt>
      <trkpt lat="43.15391" lon="7.08938">
        <ele>-3.7078857421875</ele>
        <time>2015-07-25T04:00:20Z</time>
      </trkpt>
      <trkpt lat="43.15351" lon="7.09">
        <ele>-6.1112060546875</ele>
        <time>2015-07-25T04:00:43Z</time>
      </trkpt>
      <trkpt lat="43.15329" lon="7.09035">
        <ele>-3.7078857421875</ele>
        <time>2015-07-25T04:00:59Z</time>
      </trkpt>
      <trkpt lat="43.15301" lon="7.09061">
        <ele>-3.7078857421875</ele>
        <time>2015-07-25T04:01:12Z</time>
      </trkpt>
      <trkpt lat="43.15265" lon="7.09093">
        <ele>-3.7078857421875</ele>
        <time>2015-07-25T04:01:26Z</time>
      </trkpt>
      <trkpt lat="43.15216" lon="7.09127">
        <ele>-3.7078857421875</ele>
        <time>2015-07-25T04:01:45Z</time>
      </trkpt>
      <trkpt lat="43.15193" lon="7.09163">
        <ele>-3.227294921875</ele>
        <time>2015-07-25T04:01:58Z</time>
      </trkpt>
      <trkpt lat="43.15161" lon="7.09197">
        <ele>-3.227294921875</ele>
        <time>2015-07-25T04:02:13Z</time>
      </trkpt>
      <trkpt lat="43.15114" lon="7.09254">
        <ele>-3.7078857421875</ele>
        <time>2015-07-25T04:02:36Z</time>
      </trkpt>
      <trkpt lat="43.15095" lon="7.09288">
        <ele>-3.7078857421875</ele>
        <time>2015-07-25T04:02:49Z</time>
      </trkpt>
      <trkpt lat="43.15062" lon="7.09327">
        <ele>-3.7078857421875</ele>
        <time>2015-07-25T04:03:04Z</time>
      </trkpt>
      <trkpt lat="43.15028" lon="7.09369">
        <ele>-4.1885986328125</ele>
        <time>2015-07-25T04:03:21Z</time>
      </trkpt>
      <trkpt lat="43.14982" lon="7.09416">
        <ele>-4.1885986328125</ele>
        <time>2015-07-25T04:03:41Z</time>
      </trkpt>
      <trkpt lat="43.14956" lon="7.09453">
        <ele>-4.1885986328125</ele>
        <time>2015-07-25T04:03:55Z</time>
      </trkpt>
      <trkpt lat="43.14927" lon="7.095">
        <ele>-4.6693115234375</ele>
        <time>2015-07-25T04:04:11Z</time>
      </trkpt>
      <trkpt lat="43.14895" lon="7.09544">
        <ele>-4.6693115234375</ele>
        <time>2015-07-25T04:04:28Z</time>
      </trkpt>
      <trkpt lat="43.14849" lon="7.09594">
        <ele>-4.6693115234375</ele>
        <time>2015-07-25T04:04:52Z</time>
      </trkpt>
      <trkpt lat="43.14824" lon="7.09631">
        <ele>-4.1885986328125</ele>
        <time>2015-07-25T04:05:07Z</time>
      </trkpt>
      <trkpt lat="43.14798" lon="7.09667">
        <ele>-4.1885986328125</ele>
        <time>2015-07-25T04:05:22Z</time>
      </trkpt>
      <trkpt lat="43.14756" lon="7.09721">
        <ele>-4.1885986328125</ele>
        <time>2015-07-25T04:05:45Z</time>
      </trkpt>
      <trkpt lat="43.14716" lon="7.09775">
        <ele>-4.6693115234375</ele>
        <time>2015-07-25T04:06:07Z</time>
      </trkpt>
      <trkpt lat="43.14675" lon="7.09831">
        <ele>-4.6693115234375</ele>
        <time>2015-07-25T04:06:30Z</time>
      </trkpt>
      <trkpt lat="43.14655" lon="7.09869">
        <ele>-4.6693115234375</ele>
        <time>2015-07-25T04:06:44Z</time>
      </trkpt>
      <trkpt lat="43.14625" lon="7.09906">
        <ele>-4.1885986328125</ele>
        <time>2015-07-25T04:07:00Z</time>
      </trkpt>
      <trkpt lat="43.14593" lon="7.09952">
        <ele>-4.1885986328125</ele>
        <time>2015-07-25T04:07:18Z</time>
      </trkpt>
      <trkpt lat="43.14569" lon="7.09981">
        <ele>-4.1885986328125</ele>
        <time>2015-07-25T04:07:30Z</time>
      </trkpt>
      <trkpt lat="43.14531" lon="7.10025">
        <ele>-4.1885986328125</ele>
        <time>2015-07-25T04:07:49Z</time>
      </trkpt>
      <trkpt lat="43.14505" lon="7.10059">
        <ele>-4.6693115234375</ele>
        <time>2015-07-25T04:08:02Z</time>
      </trkpt>
      <trkpt lat="43.1445" lon="7.10125">
        <ele>-4.1885986328125</ele>
        <time>2015-07-25T04:08:28Z</time>
      </trkpt>
      <trkpt lat="43.14409" lon="7.10182">
        <ele>-4.1885986328125</ele>
        <time>2015-07-25T04:08:50Z</time>
      </trkpt>
      <trkpt lat="43.14379" lon="7.10211">
        <ele>-4.1885986328125</ele>
        <time>2015-07-25T04:09:03Z</time>
      </trkpt>
      <trkpt lat="43.14352" lon="7.10244">
        <ele>-4.1885986328125</ele>
        <time>2015-07-25T04:09:16Z</time>
      </trkpt>
      <trkpt lat="43.14312" lon="7.10306">
        <ele>-3.7078857421875</ele>
        <time>2015-07-25T04:09:40Z</time>
      </trkpt>
      <trkpt lat="43.14265" lon="7.10359">
        <ele>-4.1885986328125</ele>
        <time>2015-07-25T04:10:05Z</time>
      </trkpt>
      <trkpt lat="43.14234" lon="7.10407">
        <ele>-4.1885986328125</ele>
        <time>2015-07-25T04:10:24Z</time>
      </trkpt>
      <trkpt lat="43.14208" lon="7.10434">
        <ele>-4.1885986328125</ele>
        <time>2015-07-25T04:10:37Z</time>
      </trkpt>
      <trkpt lat="43.14181" lon="7.10466">
        <ele>-4.1885986328125</ele>
        <time>2015-07-25T04:10:51Z</time>
      </trkpt>
      <trkpt lat="43.14145" lon="7.10522">
        <ele>-4.1885986328125</ele>
        <time>2015-07-25T04:11:15Z</time>
      </trkpt>
      <trkpt lat="43.14121" lon="7.10553">
        <ele>-3.7078857421875</ele>
        <time>2015-07-25T04:11:28Z</time>
      </trkpt>
      <trkpt lat="43.14067" lon="7.10606">
        <ele>-4.6693115234375</ele>
        <time>2015-07-25T04:11:51Z</time>
      </trkpt>
      <trkpt lat="43.14042" lon="7.10637">
        <ele>-3.7078857421875</ele>
        <time>2015-07-25T04:12:02Z</time>
      </trkpt>
      <trkpt lat="43.13996" lon="7.10683">
        <ele>-4.1885986328125</ele>
        <time>2015-07-25T04:12:22Z</time>
      </trkpt>
      <trkpt lat="43.13946" lon="7.10741">
        <ele>-3.7078857421875</ele>
        <time>2015-07-25T04:12:48Z</time>
      </trkpt>
      <trkpt lat="43.13902" lon="7.10797">
        <ele>-4.1885986328125</ele>
        <time>2015-07-25T04:13:10Z</time>
      </trkpt>
      <trkpt lat="43.13847" lon="7.10836">
        <ele>-3.7078857421875</ele>
        <time>2015-07-25T04:13:31Z</time>
      </trkpt>
      <trkpt lat="43.13821" lon="7.10862">
        <ele>-4.6693115234375</ele>
        <time>2015-07-25T04:13:42Z</time>
      </trkpt>
      <trkpt lat="43.13789" lon="7.10903">
        <ele>-4.1885986328125</ele>
        <time>2015-07-25T04:13:58Z</time>
      </trkpt>
      <trkpt lat="43.13744" lon="7.10947">
        <ele>-4.6693115234375</ele>
        <time>2015-07-25T04:14:20Z</time>
      </trkpt>
      <trkpt lat="43.137" lon="7.10997">
        <ele>-4.6693115234375</ele>
        <time>2015-07-25T04:14:40Z</time>
      </trkpt>
      <trkpt lat="43.1366" lon="7.11033">
        <ele>-4.1885986328125</ele>
        <time>2015-07-25T04:14:55Z</time>
      </trkpt>
      <trkpt lat="43.13605" lon="7.11078">
        <ele>-3.7078857421875</ele>
        <time>2015-07-25T04:15:16Z</time>
      </trkpt>
      <trkpt lat="43.13561" lon="7.11132">
        <ele>-4.1885986328125</ele>
        <time>2015-07-25T04:15:38Z</time>
      </trkpt>
      <trkpt lat="43.13522" lon="7.11186">
        <ele>-4.6693115234375</ele>
        <time>2015-07-25T04:15:58Z</time>
      </trkpt>
      <trkpt lat="43.13491" lon="7.11223">
        <ele>-4.1885986328125</ele>
        <time>2015-07-25T04:16:16Z</time>
      </trkpt>
      <trkpt lat="43.13464" lon="7.11261">
        <ele>-4.6693115234375</ele>
        <time>2015-07-25T04:16:31Z</time>
      </trkpt>
      <trkpt lat="43.1344" lon="7.11293">
        <ele>-4.1885986328125</ele>
        <time>2015-07-25T04:16:44Z</time>
      </trkpt>
      <trkpt lat="43.13398" lon="7.11333">
        <ele>-3.7078857421875</ele>
        <time>2015-07-25T04:17:03Z</time>
      </trkpt>
      <trkpt lat="43.13359" lon="7.11389">
        <ele>-3.7078857421875</ele>
        <time>2015-07-25T04:17:23Z</time>
      </trkpt>
      <trkpt lat="43.13323" lon="7.11426">
        <ele>-3.7078857421875</ele>
        <time>2015-07-25T04:17:39Z</time>
      </trkpt>
      <trkpt lat="43.1328" lon="7.11466">
        <ele>-3.7078857421875</ele>
        <time>2015-07-25T04:17:55Z</time>
      </trkpt>
      <trkpt lat="43.13251" lon="7.11512">
        <ele>-4.1885986328125</ele>
        <time>2015-07-25T04:18:11Z</time>
      </trkpt>
      <trkpt lat="43.13222" lon="7.1155">
        <ele>-4.1885986328125</ele>
        <time>2015-07-25T04:18:26Z</time>
      </trkpt>
      <trkpt lat="43.13184" lon="7.11612">
        <ele>-4.1885986328125</ele>
        <time>2015-07-25T04:18:49Z</time>
      </trkpt>
      <trkpt lat="43.13141" lon="7.11669">
        <ele>-4.6693115234375</ele>
        <time>2015-07-25T04:19:12Z</time>
      </trkpt>
      <trkpt lat="43.13114" lon="7.11697">
        <ele>-4.1885986328125</ele>
        <time>2015-07-25T04:19:24Z</time>
      </trkpt>
      <trkpt lat="43.13078" lon="7.11743">
        <ele>-3.7078857421875</ele>
        <time>2015-07-25T04:19:44Z</time>
      </trkpt>
      <trkpt lat="43.13047" lon="7.11813">
        <ele>-4.6693115234375</ele>
        <time>2015-07-25T04:20:07Z</time>
      </trkpt>
      <trkpt lat="43.13019" lon="7.11849">
        <ele>-4.1885986328125</ele>
        <time>2015-07-25T04:20:22Z</time>
      </trkpt>
      <trkpt lat="43.12981" lon="7.11899">
        <ele>-4.6693115234375</ele>
        <time>2015-07-25T04:20:41Z</time>
      </trkpt>
      <trkpt lat="43.12957" lon="7.11936">
        <ele>-4.1885986328125</ele>
        <time>2015-07-25T04:20:55Z</time>
      </trkpt>
      <trkpt lat="43.1292" lon="7.11977">
        <ele>-4.1885986328125</ele>
        <time>2015-07-25T04:21:12Z</time>
      </trkpt>
      <trkpt lat="43.12876" lon="7.12018">
        <ele>-4.1885986328125</ele>
        <time>2015-07-25T04:21:31Z</time>
      </trkpt>
      <trkpt lat="43.12829" lon="7.12071">
        <ele>-4.1885986328125</ele>
        <time>2015-07-25T04:21:53Z</time>
      </trkpt>
      <trkpt lat="43.12809" lon="7.12109">
        <ele>-4.1885986328125</ele>
        <time>2015-07-25T04:22:06Z</time>
      </trkpt>
      <trkpt lat="43.12774" lon="7.12154">
        <ele>-4.1885986328125</ele>
        <time>2015-07-25T04:22:23Z</time>
      </trkpt>
      <trkpt lat="43.12728" lon="7.12206">
        <ele>-3.7078857421875</ele>
        <time>2015-07-25T04:22:43Z</time>
      </trkpt>
      <trkpt lat="43.12693" lon="7.12232">
        <ele>-3.7078857421875</ele>
        <time>2015-07-25T04:22:56Z</time>
      </trkpt>
      <trkpt lat="43.12659" lon="7.12253">
        <ele>-3.7078857421875</ele>
        <time>2015-07-25T04:23:07Z</time>
      </trkpt>
      <trkpt lat="43.12616" lon="7.12317">
        <ele>-4.1885986328125</ele>
        <time>2015-07-25T04:23:29Z</time>
      </trkpt>
      <trkpt lat="43.12573" lon="7.12381">
        <ele>-4.6693115234375</ele>
        <time>2015-07-25T04:23:51Z</time>
      </trkpt>
      <trkpt lat="43.12528" lon="7.12435">
        <ele>-4.1885986328125</ele>
        <time>2015-07-25T04:24:15Z</time>
      </trkpt>
      <trkpt lat="43.12502" lon="7.12462">
        <ele>-3.7078857421875</ele>
        <time>2015-07-25T04:24:27Z</time>
      </trkpt>
      <trkpt lat="43.12475" lon="7.12495">
        <ele>-3.7078857421875</ele>
        <time>2015-07-25T04:24:40Z</time>
      </trkpt>
      <trkpt lat="43.12444" lon="7.12531">
        <ele>-4.1885986328125</ele>
        <time>2015-07-25T04:24:55Z</time>
      </trkpt>
      <trkpt lat="43.12414" lon="7.1256">
        <ele>-4.1885986328125</ele>
        <time>2015-07-25T04:25:07Z</time>
      </trkpt>
      <trkpt lat="43.12387" lon="7.12599">
        <ele>-4.6693115234375</ele>
        <time>2015-07-25T04:25:20Z</time>
      </trkpt>
      <trkpt lat="43.12348" lon="7.12647">
        <ele>-5.14990234375</ele>
        <time>2015-07-25T04:25:41Z</time>
      </trkpt>
      <trkpt lat="43.12329" lon="7.12686">
        <ele>-4.6693115234375</ele>
        <time>2015-07-25T04:25:54Z</time>
      </trkpt>
      <trkpt lat="43.12299" lon="7.12721">
        <ele>-3.7078857421875</ele>
        <time>2015-07-25T04:26:08Z</time>
      </trkpt>
      <trkpt lat="43.12238" lon="7.12773">
        <ele>-3.227294921875</ele>
        <time>2015-07-25T04:26:32Z</time>
      </trkpt>
      <trkpt lat="43.12202" lon="7.12817">
        <ele>-3.7078857421875</ele>
        <time>2015-07-25T04:26:49Z</time>
      </trkpt>
      <trkpt lat="43.1217" lon="7.12844">
        <ele>-3.227294921875</ele>
        <time>2015-07-25T04:27:01Z</time>
      </trkpt>
      <trkpt lat="43.12127" lon="7.12882">
        <ele>-3.7078857421875</ele>
        <time>2015-07-25T04:27:17Z</time>
      </trkpt>
      <trkpt lat="43.12078" lon="7.12938">
        <ele>-3.7078857421875</ele>
        <time>2015-07-25T04:27:39Z</time>
      </trkpt>
      <trkpt lat="43.12047" lon="7.12991">
        <ele>-3.7078857421875</ele>
        <time>2015-07-25T04:27:58Z</time>
      </trkpt>
      <trkpt lat="43.12018" lon="7.13038">
        <ele>-3.7078857421875</ele>
        <time>2015-07-25T04:28:15Z</time>
      </trkpt>
      <trkpt lat="43.11993" lon="7.13073">
        <ele>-2.7467041015625</ele>
        <time>2015-07-25T04:28:30Z</time>
      </trkpt>
      <trkpt lat="43.11948" lon="7.13102">
        <ele>-3.227294921875</ele>
        <time>2015-07-25T04:28:47Z</time>
      </trkpt>
      <trkpt lat="43.11912" lon="7.13144">
        <ele>-2.2659912109375</ele>
        <time>2015-07-25T04:29:04Z</time>
      </trkpt>
      <trkpt lat="43.1188" lon="7.1318">
        <ele>-5.14990234375</ele>
        <time>2015-07-25T04:29:19Z</time>
      </trkpt>
      <trkpt lat="43.11852" lon="7.13225">
        <ele>-2.2659912109375</ele>
        <time>2015-07-25T04:29:37Z</time>
      </trkpt>
      <trkpt lat="43.11804" lon="7.13269">
        <ele>-2.2659912109375</ele>
        <time>2015-07-25T04:29:58Z</time>
      </trkpt>
      <trkpt lat="43.11762" lon="7.1333">
        <ele>-3.7078857421875</ele>
        <time>2015-07-25T04:30:21Z</time>
      </trkpt>
      <trkpt lat="43.11711" lon="7.13396">
        <ele>-2.7467041015625</ele>
        <time>2015-07-25T04:30:49Z</time>
      </trkpt>
      <trkpt lat="43.11683" lon="7.13421">
        <ele>-2.2659912109375</ele>
        <time>2015-07-25T04:31:01Z</time>
      </trkpt>
      <trkpt lat="43.11661" lon="7.13452">
        <ele>-3.227294921875</ele>
        <time>2015-07-25T04:31:12Z</time>
      </trkpt>
      <trkpt lat="43.11624" lon="7.13488">
        <ele>-2.7467041015625</ele>
        <time>2015-07-25T04:31:28Z</time>
      </trkpt>
      <trkpt lat="43.11602" lon="7.13529">
        <ele>-3.7078857421875</ele>
        <time>2015-07-25T04:31:43Z</time>
      </trkpt>
      <trkpt lat="43.11562" lon="7.13578">
        <ele>-3.227294921875</ele>
        <time>2015-07-25T04:32:03Z</time>
      </trkpt>
      <trkpt lat="43.1152" lon="7.13645">
        <ele>-3.227294921875</ele>
        <time>2015-07-25T04:32:30Z</time>
      </trkpt>
      <trkpt lat="43.11479" lon="7.13699">
        <ele>-2.2659912109375</ele>
        <time>2015-07-25T04:32:52Z</time>
      </trkpt>
      <trkpt lat="43.11435" lon="7.13752">
        <ele>-1.7852783203125</ele>
        <time>2015-07-25T04:33:15Z</time>
      </trkpt>
      <trkpt lat="43.114" lon="7.138">
        <ele>-2.7467041015625</ele>
        <time>2015-07-25T04:33:32Z</time>
      </trkpt>
      <trkpt lat="43.11368" lon="7.13826">
        <ele>-2.2659912109375</ele>
        <time>2015-07-25T04:33:45Z</time>
      </trkpt>
      <trkpt lat="43.11344" lon="7.13856">
        <ele>-1.7852783203125</ele>
        <time>2015-07-25T04:33:57Z</time>
      </trkpt>
      <trkpt lat="43.11306" lon="7.13875">
        <ele>-1.7852783203125</ele>
        <time>2015-07-25T04:34:10Z</time>
      </trkpt>
      <trkpt lat="43.11262" lon="7.13925">
        <ele>-3.227294921875</ele>
        <time>2015-07-25T04:34:30Z</time>
      </trkpt>
      <trkpt lat="43.1124" lon="7.13967">
        <ele>-2.7467041015625</ele>
        <time>2015-07-25T04:34:46Z</time>
      </trkpt>
      <trkpt lat="43.11217" lon="7.14003">
        <ele>-2.2659912109375</ele>
        <time>2015-07-25T04:35:00Z</time>
      </trkpt>
      <trkpt lat="43.11188" lon="7.14033">
        <ele>-2.2659912109375</ele>
        <time>2015-07-25T04:35:15Z</time>
      </trkpt>
      <trkpt lat="43.11144" lon="7.14086">
        <ele>-3.227294921875</ele>
        <time>2015-07-25T04:35:34Z</time>
      </trkpt>
      <trkpt lat="43.11125" lon="7.1412">
        <ele>-3.227294921875</ele>
        <time>2015-07-25T04:35:47Z</time>
      </trkpt>
      <trkpt lat="43.11091" lon="7.14151">
        <ele>-2.2659912109375</ele>
        <time>2015-07-25T04:36:01Z</time>
      </trkpt>
      <trkpt lat="43.11059" lon="7.14181">
        <ele>-3.227294921875</ele>
        <time>2015-07-25T04:36:14Z</time>
      </trkpt>
      <trkpt lat="43.11007" lon="7.14231">
        <ele>-2.7467041015625</ele>
        <time>2015-07-25T04:36:36Z</time>
      </trkpt>
      <trkpt lat="43.10981" lon="7.14267">
        <ele>-3.7078857421875</ele>
        <time>2015-07-25T04:36:49Z</time>
      </trkpt>
      <trkpt lat="43.10951" lon="7.14299">
        <ele>-2.2659912109375</ele>
        <time>2015-07-25T04:37:03Z</time>
      </trkpt>
      <trkpt lat="43.10921" lon="7.14327">
        <ele>-2.2659912109375</ele>
        <time>2015-07-25T04:37:16Z</time>
      </trkpt>
      <trkpt lat="43.10894" lon="7.14354">
        <ele>-3.227294921875</ele>
        <time>2015-07-25T04:37:28Z</time>
      </trkpt>
      <trkpt lat="43.10857" lon="7.14401">
        <ele>-2.7467041015625</ele>
        <time>2015-07-25T04:37:46Z</time>
      </trkpt>
      <trkpt lat="43.10813" lon="7.1443">
        <ele>-3.227294921875</ele>
        <time>2015-07-25T04:38:02Z</time>
      </trkpt>
      <trkpt lat="43.10763" lon="7.14488">
        <ele>-3.227294921875</ele>
        <time>2015-07-25T04:38:24Z</time>
      </trkpt>
      <trkpt lat="43.10735" lon="7.14515">
        <ele>-2.2659912109375</ele>
        <time>2015-07-25T04:38:37Z</time>
      </trkpt>
      <trkpt lat="43.10681" lon="7.14548">
        <ele>-2.7467041015625</ele>
        <time>2015-07-25T04:38:56Z</time>
      </trkpt>
      <trkpt lat="43.10644" lon="7.14586">
        <ele>-2.7467041015625</ele>
        <time>2015-07-25T04:39:10Z</time>
      </trkpt>
      <trkpt lat="43.10608" lon="7.14609">
        <ele>-2.7467041015625</ele>
        <time>2015-07-25T04:39:23Z</time>
      </trkpt>
      <trkpt lat="43.10575" lon="7.14623">
        <ele>-3.227294921875</ele>
        <time>2015-07-25T04:39:35Z</time>
      </trkpt>
      <trkpt lat="43.10536" lon="7.14652">
        <ele>-3.7078857421875</ele>
        <time>2015-07-25T04:39:49Z</time>
      </trkpt>
      <trkpt lat="43.10505" lon="7.14702">
        <ele>-3.7078857421875</ele>
        <time>2015-07-25T04:40:05Z</time>
      </trkpt>
      <trkpt lat="43.10464" lon="7.14747">
        <ele>-3.7078857421875</ele>
        <time>2015-07-25T04:40:24Z</time>
      </trkpt>
      <trkpt lat="43.10436" lon="7.14793">
        <ele>-4.1885986328125</ele>
        <time>2015-07-25T04:40:42Z</time>
      </trkpt>
      <trkpt lat="43.10419" lon="7.14839">
        <ele>-3.7078857421875</ele>
        <time>2015-07-25T04:40:59Z</time>
      </trkpt>
      <trkpt lat="43.10378" lon="7.14883">
        <ele>-3.7078857421875</ele>
        <time>2015-07-25T04:41:20Z</time>
      </trkpt>
      <trkpt lat="43.10356" lon="7.14916">
        <ele>-3.7078857421875</ele>
        <time>2015-07-25T04:41:31Z</time>
      </trkpt>
      <trkpt lat="43.10333" lon="7.14956">
        <ele>-3.7078857421875</ele>
        <time>2015-07-25T04:41:43Z</time>
      </trkpt>
      <trkpt lat="43.10313" lon="7.15005">
        <ele>-3.7078857421875</ele>
        <time>2015-07-25T04:42:01Z</time>
      </trkpt>
      <trkpt lat="43.10272" lon="7.15054">
        <ele>-3.7078857421875</ele>
        <time>2015-07-25T04:42:21Z</time>
      </trkpt>
      <trkpt lat="43.10253" lon="7.15094">
        <ele>-4.1885986328125</ele>
        <time>2015-07-25T04:42:34Z</time>
      </trkpt>
      <trkpt lat="43.10227" lon="7.15166">
        <ele>-4.6693115234375</ele>
        <time>2015-07-25T04:42:57Z</time>
      </trkpt>
      <trkpt lat="43.10206" lon="7.152">
        <ele>-3.7078857421875</ele>
        <time>2015-07-25T04:43:11Z</time>
      </trkpt>
      <trkpt lat="43.10172" lon="7.15235">
        <ele>-4.1885986328125</ele>
        <time>2015-07-25T04:43:27Z</time>
      </trkpt>
      <trkpt lat="43.10138" lon="7.15287">
        <ele>-3.7078857421875</ele>
        <time>2015-07-25T04:43:47Z</time>
      </trkpt>
      <trkpt lat="43.10107" lon="7.15343">
        <ele>-4.6693115234375</ele>
        <time>2015-07-25T04:44:10Z</time>
      </trkpt>
      <trkpt lat="43.10055" lon="7.15406">
        <ele>-4.1885986328125</ele>
        <time>2015-07-25T04:44:34Z</time>
      </trkpt>
      <trkpt lat="43.10024" lon="7.15429">
        <ele>-3.7078857421875</ele>
        <time>2015-07-25T04:44:46Z</time>
      </trkpt>
      <trkpt lat="43.09998" lon="7.15457">
        <ele>-4.6693115234375</ele>
        <time>2015-07-25T04:44:55Z</time>
      </trkpt>
      <trkpt lat="43.09962" lon="7.15498">
        <ele>-3.227294921875</ele>
        <time>2015-07-25T04:45:11Z</time>
      </trkpt>
      <trkpt lat="43.09919" lon="7.15542">
        <ele>-4.6693115234375</ele>
        <time>2015-07-25T04:45:29Z</time>
      </trkpt>
      <trkpt lat="43.09894" lon="7.15589">
        <ele>-4.1885986328125</ele>
        <time>2015-07-25T04:45:44Z</time>
      </trkpt>
      <trkpt lat="43.09879" lon="7.15636">
        <ele>-4.1885986328125</ele>
        <time>2015-07-25T04:46:00Z</time>
      </trkpt>
      <trkpt lat="43.09859" lon="7.15678">
        <ele>-4.1885986328125</ele>
        <time>2015-07-25T04:46:16Z</time>
      </trkpt>
      <trkpt lat="43.09811" lon="7.15746">
        <ele>-3.7078857421875</ele>
        <time>2015-07-25T04:46:42Z</time>
      </trkpt>
      <trkpt lat="43.09784" lon="7.15791">
        <ele>-4.1885986328125</ele>
        <time>2015-07-25T04:46:58Z</time>
      </trkpt>
      <trkpt lat="43.0976" lon="7.15836">
        <ele>-4.1885986328125</ele>
        <time>2015-07-25T04:47:14Z</time>
      </trkpt>
      <trkpt lat="43.09734" lon="7.15884">
        <ele>-3.7078857421875</ele>
        <time>2015-07-25T04:47:32Z</time>
      </trkpt>
      <trkpt lat="43.09693" lon="7.15924">
        <ele>-3.227294921875</ele>
        <time>2015-07-25T04:47:51Z</time>
      </trkpt>
      <trkpt lat="43.09654" lon="7.1595">
        <ele>-3.227294921875</ele>
        <time>2015-07-25T04:48:05Z</time>
      </trkpt>
      <trkpt lat="43.09626" lon="7.15998">
        <ele>-3.7078857421875</ele>
        <time>2015-07-25T04:48:22Z</time>
      </trkpt>
      <trkpt lat="43.09597" lon="7.16039">
        <ele>-3.7078857421875</ele>
        <time>2015-07-25T04:48:38Z</time>
      </trkpt>
      <trkpt lat="43.09573" lon="7.16092">
        <ele>-3.7078857421875</ele>
        <time>2015-07-25T04:48:58Z</time>
      </trkpt>
      <trkpt lat="43.09548" lon="7.16135">
        <ele>-3.227294921875</ele>
        <time>2015-07-25T04:49:15Z</time>
      </trkpt>
      <trkpt lat="43.09509" lon="7.16178">
        <ele>-3.227294921875</ele>
        <time>2015-07-25T04:49:34Z</time>
      </trkpt>
      <trkpt lat="43.09473" lon="7.16225">
        <ele>-3.7078857421875</ele>
        <time>2015-07-25T04:49:53Z</time>
      </trkpt>
      <trkpt lat="43.09435" lon="7.16267">
        <ele>-2.7467041015625</ele>
        <time>2015-07-25T04:50:11Z</time>
      </trkpt>
      <trkpt lat="43.09385" lon="7.16306">
        <ele>-3.227294921875</ele>
        <time>2015-07-25T04:50:30Z</time>
      </trkpt>
      <trkpt lat="43.09345" lon="7.16327">
        <ele>-4.6693115234375</ele>
        <time>2015-07-25T04:50:44Z</time>
      </trkpt>
      <trkpt lat="43.09309" lon="7.16344">
        <ele>-3.7078857421875</ele>
        <time>2015-07-25T04:50:55Z</time>
      </trkpt>
      <trkpt lat="43.09272" lon="7.1637">
        <ele>-3.7078857421875</ele>
        <time>2015-07-25T04:51:08Z</time>
      </trkpt>
      <trkpt lat="43.09231" lon="7.16411">
        <ele>-4.1885986328125</ele>
        <time>2015-07-25T04:51:24Z</time>
      </trkpt>
      <trkpt lat="43.09189" lon="7.16468">
        <ele>-4.6693115234375</ele>
        <time>2015-07-25T04:51:46Z</time>
      </trkpt>
      <trkpt lat="43.09159" lon="7.16502">
        <ele>-4.6693115234375</ele>
        <time>2015-07-25T04:52:00Z</time>
      </trkpt>
      <trkpt lat="43.09109" lon="7.1655">
        <ele>-4.1885986328125</ele>
        <time>2015-07-25T04:52:22Z</time>
      </trkpt>
      <trkpt lat="43.09076" lon="7.16574">
        <ele>-3.227294921875</ele>
        <time>2015-07-25T04:52:35Z</time>
      </trkpt>
      <trkpt lat="43.0905" lon="7.16599">
        <ele>-4.1885986328125</ele>
        <time>2015-07-25T04:52:46Z</time>
      </trkpt>
      <trkpt lat="43.09011" lon="7.16637">
        <ele>-4.6693115234375</ele>
        <time>2015-07-25T04:53:01Z</time>
      </trkpt>
      <trkpt lat="43.08978" lon="7.16679">
        <ele>-4.1885986328125</ele>
        <time>2015-07-25T04:53:16Z</time>
      </trkpt>
      <trkpt lat="43.08936" lon="7.16741">
        <ele>-4.6693115234375</ele>
        <time>2015-07-25T04:53:38Z</time>
      </trkpt>
      <trkpt lat="43.0891" lon="7.16787">
        <ele>-4.6693115234375</ele>
        <time>2015-07-25T04:53:54Z</time>
      </trkpt>
      <trkpt lat="43.08887" lon="7.16828">
        <ele>-5.14990234375</ele>
        <time>2015-07-25T04:54:09Z</time>
      </trkpt>
      <trkpt lat="43.08866" lon="7.16861">
        <ele>-4.6693115234375</ele>
        <time>2015-07-25T04:54:21Z</time>
      </trkpt>
      <trkpt lat="43.08839" lon="7.16894">
        <ele>-4.6693115234375</ele>
        <time>2015-07-25T04:54:34Z</time>
      </trkpt>
      <trkpt lat="43.08813" lon="7.16928">
        <ele>-4.6693115234375</ele>
        <time>2015-07-25T04:54:47Z</time>
      </trkpt>
      <trkpt lat="43.08781" lon="7.1697">
        <ele>-4.6693115234375</ele>
        <time>2015-07-25T04:55:04Z</time>
      </trkpt>
      <trkpt lat="43.08759" lon="7.17007">
        <ele>-4.6693115234375</ele>
        <time>2015-07-25T04:55:18Z</time>
      </trkpt>
      <trkpt lat="43.08722" lon="7.17062">
        <ele>-4.1885986328125</ele>
        <time>2015-07-25T04:55:42Z</time>
      </trkpt>
      <trkpt lat="43.08693" lon="7.17088">
        <ele>-4.1885986328125</ele>
        <time>2015-07-25T04:55:56Z</time>
      </trkpt>
      <trkpt lat="43.08665" lon="7.17115">
        <ele>-3.7078857421875</ele>
        <time>2015-07-25T04:56:09Z</time>
      </trkpt>
      <trkpt lat="43.0863" lon="7.17135">
        <ele>-3.227294921875</ele>
        <time>2015-07-25T04:56:21Z</time>
      </trkpt>
      <trkpt lat="43.08595" lon="7.17158">
        <ele>-3.7078857421875</ele>
        <time>2015-07-25T04:56:33Z</time>
      </trkpt>
      <trkpt lat="43.08552" lon="7.17195">
        <ele>-3.7078857421875</ele>
        <time>2015-07-25T04:56:48Z</time>
      </trkpt>
      <trkpt lat="43.08527" lon="7.17226">
        <ele>-4.1885986328125</ele>
        <time>2015-07-25T04:56:59Z</time>
      </trkpt>
      <trkpt lat="43.085" lon="7.17254">
        <ele>-4.1885986328125</ele>
        <time>2015-07-25T04:57:10Z</time>
      </trkpt>
      <trkpt lat="43.08474" lon="7.17288">
        <ele>-4.6693115234375</ele>
        <time>2015-07-25T04:57:23Z</time>
      </trkpt>
      <trkpt lat="43.08435" lon="7.17356">
        <ele>-4.1885986328125</ele>
        <time>2015-07-25T04:57:48Z</time>
      </trkpt>
      <trkpt lat="43.08411" lon="7.17384">
        <ele>-3.227294921875</ele>
        <time>2015-07-25T04:58:00Z</time>
      </trkpt>
      <trkpt lat="43.08383" lon="7.17412">
        <ele>-3.227294921875</ele>
        <time>2015-07-25T04:58:12Z</time>
      </trkpt>
      <trkpt lat="43.08357" lon="7.17445">
        <ele>-3.7078857421875</ele>
        <time>2015-07-25T04:58:25Z</time>
      </trkpt>
      <trkpt lat="43.08335" lon="7.17485">
        <ele>-3.7078857421875</ele>
        <time>2015-07-25T04:58:39Z</time>
      </trkpt>
      <trkpt lat="43.0831" lon="7.17531">
        <ele>-3.7078857421875</ele>
        <time>2015-07-25T04:58:55Z</time>
      </trkpt>
      <trkpt lat="43.08274" lon="7.17605">
        <ele>-4.1885986328125</ele>
        <time>2015-07-25T04:59:20Z</time>
      </trkpt>
      <trkpt lat="43.08253" lon="7.17648">
        <ele>-4.6693115234375</ele>
        <time>2015-07-25T04:59:35Z</time>
      </trkpt>
      <trkpt lat="43.08223" lon="7.17692">
        <ele>-3.7078857421875</ele>
        <time>2015-07-25T04:59:53Z</time>
      </trkpt>
      <trkpt lat="43.08178" lon="7.17764">
        <ele>-3.227294921875</ele>
        <time>2015-07-25T05:00:20Z</time>
      </trkpt>
      <trkpt lat="43.08153" lon="7.17792">
        <ele>-3.227294921875</ele>
        <time>2015-07-25T05:00:31Z</time>
      </trkpt>
      <trkpt lat="43.08132" lon="7.17824">
        <ele>-4.6693115234375</ele>
        <time>2015-07-25T05:00:43Z</time>
      </trkpt>
      <trkpt lat="43.0811" lon="7.17861">
        <ele>-3.7078857421875</ele>
        <time>2015-07-25T05:00:55Z</time>
      </trkpt>
      <trkpt lat="43.08085" lon="7.17924">
        <ele>-3.7078857421875</ele>
        <time>2015-07-25T05:01:18Z</time>
      </trkpt>
      <trkpt lat="43.08068" lon="7.17961">
        <ele>-3.227294921875</ele>
        <time>2015-07-25T05:01:33Z</time>
      </trkpt>
      <trkpt lat="43.0804" lon="7.18002">
        <ele>-3.227294921875</ele>
        <time>2015-07-25T05:01:49Z</time>
      </trkpt>
      <trkpt lat="43.08013" lon="7.18069">
        <ele>-3.7078857421875</ele>
        <time>2015-07-25T05:02:13Z</time>
      </trkpt>
      <trkpt lat="43.07994" lon="7.18105">
        <ele>-3.7078857421875</ele>
        <time>2015-07-25T05:02:27Z</time>
      </trkpt>
      <trkpt lat="43.07962" lon="7.18153">
        <ele>-3.7078857421875</ele>
        <time>2015-07-25T05:02:45Z</time>
      </trkpt>
      <trkpt lat="43.07928" lon="7.18213">
        <ele>-2.7467041015625</ele>
        <time>2015-07-25T05:03:08Z</time>
      </trkpt>
      <trkpt lat="43.07896" lon="7.18266">
        <ele>-3.227294921875</ele>
        <time>2015-07-25T05:03:30Z</time>
      </trkpt>
      <trkpt lat="43.07881" lon="7.18306">
        <ele>-3.227294921875</ele>
        <time>2015-07-25T05:03:47Z</time>
      </trkpt>
      <trkpt lat="43.07853" lon="7.18348">
        <ele>-2.7467041015625</ele>
        <time>2015-07-25T05:04:08Z</time>
      </trkpt>
      <trkpt lat="43.07814" lon="7.18374">
        <ele>-2.2659912109375</ele>
        <time>2015-07-25T05:04:24Z</time>
      </trkpt>
      <trkpt lat="43.07779" lon="7.184">
        <ele>-2.2659912109375</ele>
        <time>2015-07-25T05:04:37Z</time>
      </trkpt>
      <trkpt lat="43.0774" lon="7.18433">
        <ele>-2.2659912109375</ele>
        <time>2015-07-25T05:04:51Z</time>
      </trkpt>
      <trkpt lat="43.0771" lon="7.18455">
        <ele>-2.2659912109375</ele>
        <time>2015-07-25T05:05:02Z</time>
      </trkpt>
      <trkpt lat="43.07668" lon="7.18484">
        <ele>-2.2659912109375</ele>
        <time>2015-07-25T05:05:17Z</time>
      </trkpt>
      <trkpt lat="43.07607" lon="7.18508">
        <ele>-1.3046875</ele>
        <time>2015-07-25T05:05:39Z</time>
      </trkpt>
      <trkpt lat="43.07565" lon="7.18524">
        <ele>-2.2659912109375</ele>
        <time>2015-07-25T05:05:53Z</time>
      </trkpt>
      <trkpt lat="43.0753" lon="7.18542">
        <ele>-1.7852783203125</ele>
        <time>2015-07-25T05:06:05Z</time>
      </trkpt>
      <trkpt lat="43.07486" lon="7.18564">
        <ele>-1.7852783203125</ele>
        <time>2015-07-25T05:06:20Z</time>
      </trkpt>
      <trkpt lat="43.07455" lon="7.18586">
        <ele>-1.7852783203125</ele>
        <time>2015-07-25T05:06:31Z</time>
      </trkpt>
      <trkpt lat="43.0742" lon="7.18617">
        <ele>-2.2659912109375</ele>
        <time>2015-07-25T05:06:44Z</time>
      </trkpt>
      <trkpt lat="43.07382" lon="7.18647">
        <ele>-1.7852783203125</ele>
        <time>2015-07-25T05:06:58Z</time>
      </trkpt>
      <trkpt lat="43.07348" lon="7.1867">
        <ele>-1.3046875</ele>
        <time>2015-07-25T05:07:11Z</time>
      </trkpt>
      <trkpt lat="43.07314" lon="7.18687">
        <ele>-1.7852783203125</ele>
        <time>2015-07-25T05:07:22Z</time>
      </trkpt>
      <trkpt lat="43.0728" lon="7.18703">
        <ele>-1.7852783203125</ele>
        <time>2015-07-25T05:07:34Z</time>
      </trkpt>
      <trkpt lat="43.07241" lon="7.18722">
        <ele>-1.3046875</ele>
        <time>2015-07-25T05:07:49Z</time>
      </trkpt>
      <trkpt lat="43.07199" lon="7.18729">
        <ele>-1.3046875</ele>
        <time>2015-07-25T05:08:03Z</time>
      </trkpt>
      <trkpt lat="43.07163" lon="7.18741">
        <ele>-1.7852783203125</ele>
        <time>2015-07-25T05:08:15Z</time>
      </trkpt>
      <trkpt lat="43.07123" lon="7.18752">
        <ele>-1.3046875</ele>
        <time>2015-07-25T05:08:28Z</time>
      </trkpt>
      <trkpt lat="43.07087" lon="7.18761">
        <ele>-1.3046875</ele>
        <time>2015-07-25T05:08:40Z</time>
      </trkpt>
      <trkpt lat="43.07025" lon="7.18787">
        <ele>-1.3046875</ele>
        <time>2015-07-25T05:09:02Z</time>
      </trkpt>
      <trkpt lat="43.06995" lon="7.18811">
        <ele>-1.3046875</ele>
        <time>2015-07-25T05:09:14Z</time>
      </trkpt>
      <trkpt lat="43.06963" lon="7.18832">
        <ele>-1.7852783203125</ele>
        <time>2015-07-25T05:09:26Z</time>
      </trkpt>
      <trkpt lat="43.0693" lon="7.18846">
        <ele>-1.7852783203125</ele>
        <time>2015-07-25T05:09:38Z</time>
      </trkpt>
      <trkpt lat="43.06889" lon="7.18861">
        <ele>-0.8240966796875</ele>
        <time>2015-07-25T05:09:53Z</time>
      </trkpt>
      <trkpt lat="43.06852" lon="7.18878">
        <ele>-1.7852783203125</ele>
        <time>2015-07-25T05:10:05Z</time>
      </trkpt>
      <trkpt lat="43.06791" lon="7.18912">
        <ele>-1.7852783203125</ele>
        <time>2015-07-25T05:10:28Z</time>
      </trkpt>
      <trkpt lat="43.06762" lon="7.1893">
        <ele>-1.3046875</ele>
        <time>2015-07-25T05:10:40Z</time>
      </trkpt>
      <trkpt lat="43.06715" lon="7.18949">
        <ele>-2.2659912109375</ele>
        <time>2015-07-25T05:10:57Z</time>
      </trkpt>
      <trkpt lat="43.06677" lon="7.1897">
        <ele>-1.3046875</ele>
        <time>2015-07-25T05:11:10Z</time>
      </trkpt>
      <trkpt lat="43.06643" lon="7.18988">
        <ele>-0.8240966796875</ele>
        <time>2015-07-25T05:11:23Z</time>
      </trkpt>
      <trkpt lat="43.06587" lon="7.19013">
        <ele>-1.7852783203125</ele>
        <time>2015-07-25T05:11:42Z</time>
      </trkpt>
      <trkpt lat="43.06539" lon="7.19054">
        <ele>-1.7852783203125</ele>
        <time>2015-07-25T05:12:02Z</time>
      </trkpt>
      <trkpt lat="43.06489" lon="7.19094">
        <ele>-1.7852783203125</ele>
        <time>2015-07-25T05:12:23Z</time>
      </trkpt>
      <trkpt lat="43.06431" lon="7.19124">
        <ele>-1.3046875</ele>
        <time>2015-07-25T05:12:43Z</time>
      </trkpt>
      <trkpt lat="43.06394" lon="7.19149">
        <ele>-1.7852783203125</ele>
        <time>2015-07-25T05:12:58Z</time>
      </trkpt>
      <trkpt lat="43.06361" lon="7.19171">
        <ele>-1.3046875</ele>
        <time>2015-07-25T05:13:12Z</time>
      </trkpt>
      <trkpt lat="43.06333" lon="7.19191">
        <ele>-1.7852783203125</ele>
        <time>2015-07-25T05:13:23Z</time>
      </trkpt>
      <trkpt lat="43.06304" lon="7.19216">
        <ele>-1.7852783203125</ele>
        <time>2015-07-25T05:13:35Z</time>
      </trkpt>
      <trkpt lat="43.06273" lon="7.19241">
        <ele>-1.7852783203125</ele>
        <time>2015-07-25T05:13:47Z</time>
      </trkpt>
      <trkpt lat="43.06234" lon="7.1927">
        <ele>-1.3046875</ele>
        <time>2015-07-25T05:14:02Z</time>
      </trkpt>
      <trkpt lat="43.06176" lon="7.19311">
        <ele>-1.7852783203125</ele>
        <time>2015-07-25T05:14:24Z</time>
      </trkpt>
      <trkpt lat="43.06149" lon="7.19335">
        <ele>-1.7852783203125</ele>
        <time>2015-07-25T05:14:37Z</time>
      </trkpt>
      <trkpt lat="43.06105" lon="7.19384">
        <ele>-1.7852783203125</ele>
        <time>2015-07-25T05:15:01Z</time>
      </trkpt>
      <trkpt lat="43.06057" lon="7.19423">
        <ele>-1.3046875</ele>
        <time>2015-07-25T05:15:22Z</time>
      </trkpt>
      <trkpt lat="43.06015" lon="7.19462">
        <ele>-0.3433837890625</ele>
        <time>2015-07-25T05:15:41Z</time>
      </trkpt>
      <trkpt lat="43.05976" lon="7.19507">
        <ele>-1.3046875</ele>
        <time>2015-07-25T05:16:01Z</time>
      </trkpt>
      <trkpt lat="43.05933" lon="7.19562">
        <ele>-0.8240966796875</ele>
        <time>2015-07-25T05:16:24Z</time>
      </trkpt>
      <trkpt lat="43.05882" lon="7.19602">
        <ele>-0.8240966796875</ele>
        <time>2015-07-25T05:16:44Z</time>
      </trkpt>
      <trkpt lat="43.05846" lon="7.19629">
        <ele>-0.8240966796875</ele>
        <time>2015-07-25T05:16:58Z</time>
      </trkpt>
      <trkpt lat="43.05812" lon="7.19667">
        <ele>-0.8240966796875</ele>
        <time>2015-07-25T05:17:16Z</time>
      </trkpt>
      <trkpt lat="43.05758" lon="7.19716">
        <ele>-0.8240966796875</ele>
        <time>2015-07-25T05:17:40Z</time>
      </trkpt>
      <trkpt lat="43.05705" lon="7.19755">
        <ele>-0.8240966796875</ele>
        <time>2015-07-25T05:18:02Z</time>
      </trkpt>
      <trkpt lat="43.05672" lon="7.19778">
        <ele>-0.8240966796875</ele>
        <time>2015-07-25T05:18:15Z</time>
      </trkpt>
      <trkpt lat="43.05642" lon="7.19824">
        <ele>-0.8240966796875</ele>
        <time>2015-07-25T05:18:34Z</time>
      </trkpt>
      <trkpt lat="43.05617" lon="7.19867">
        <ele>-1.3046875</ele>
        <time>2015-07-25T05:18:52Z</time>
      </trkpt>
      <trkpt lat="43.05578" lon="7.19897">
        <ele>-0.3433837890625</ele>
        <time>2015-07-25T05:19:11Z</time>
      </trkpt>
      <trkpt lat="43.05549" lon="7.19917">
        <ele>-0.8240966796875</ele>
        <time>2015-07-25T05:19:25Z</time>
      </trkpt>
      <trkpt lat="43.05522" lon="7.19942">
        <ele>-0.8240966796875</ele>
        <time>2015-07-25T05:19:38Z</time>
      </trkpt>
      <trkpt lat="43.05503" lon="7.19978">
        <ele>-0.8240966796875</ele>
        <time>2015-07-25T05:19:52Z</time>
      </trkpt>
      <trkpt lat="43.05466" lon="7.20028">
        <ele>-0.8240966796875</ele>
        <time>2015-07-25T05:20:15Z</time>
      </trkpt>
      <trkpt lat="43.0543" lon="7.20073">
        <ele>-1.3046875</ele>
        <time>2015-07-25T05:20:36Z</time>
      </trkpt>
      <trkpt lat="43.05411" lon="7.20109">
        <ele>-0.8240966796875</ele>
        <time>2015-07-25T05:20:51Z</time>
      </trkpt>
      <trkpt lat="43.05376" lon="7.20144">
        <ele>-0.3433837890625</ele>
        <time>2015-07-25T05:21:10Z</time>
      </trkpt>
      <trkpt lat="43.0533" lon="7.20176">
        <ele>-0.8240966796875</ele>
        <time>2015-07-25T05:21:30Z</time>
      </trkpt>
      <trkpt lat="43.05296" lon="7.20237">
        <ele>-0.8240966796875</ele>
        <time>2015-07-25T05:21:55Z</time>
      </trkpt>
      <trkpt lat="43.05245" lon="7.20266">
        <ele>-0.8240966796875</ele>
        <time>2015-07-25T05:22:15Z</time>
      </trkpt>
      <trkpt lat="43.0521" lon="7.20288">
        <ele>-0.3433837890625</ele>
        <time>2015-07-25T05:22:29Z</time>
      </trkpt>
      <trkpt lat="43.05179" lon="7.20317">
        <ele>-1.3046875</ele>
        <time>2015-07-25T05:22:43Z</time>
      </trkpt>
      <trkpt lat="43.05129" lon="7.20347">
        <ele>0.137451171875</ele>
        <time>2015-07-25T05:23:03Z</time>
      </trkpt>
      <trkpt lat="43.05099" lon="7.2036">
        <ele>-0.3433837890625</ele>
        <time>2015-07-25T05:23:13Z</time>
      </trkpt>
      <trkpt lat="43.05059" lon="7.20407">
        <ele>-1.3046875</ele>
        <time>2015-07-25T05:23:32Z</time>
      </trkpt>
      <trkpt lat="43.05032" lon="7.20432">
        <ele>-0.3433837890625</ele>
        <time>2015-07-25T05:23:44Z</time>
      </trkpt>
      <trkpt lat="43.05002" lon="7.20446">
        <ele>-0.3433837890625</ele>
        <time>2015-07-25T05:23:55Z</time>
      </trkpt>
      <trkpt lat="43.04947" lon="7.20472">
        <ele>-0.3433837890625</ele>
        <time>2015-07-25T05:24:16Z</time>
      </trkpt>
      <trkpt lat="43.04921" lon="7.20501">
        <ele>-1.3046875</ele>
        <time>2015-07-25T05:24:28Z</time>
      </trkpt>
      <trkpt lat="43.04893" lon="7.20559">
        <ele>-1.3046875</ele>
        <time>2015-07-25T05:24:50Z</time>
      </trkpt>
      <trkpt lat="43.04865" lon="7.20624">
        <ele>-0.8240966796875</ele>
        <time>2015-07-25T05:25:17Z</time>
      </trkpt>
      <trkpt lat="43.04827" lon="7.20648">
        <ele>0.137451171875</ele>
        <time>2015-07-25T05:25:34Z</time>
      </trkpt>
      <trkpt lat="43.0479" lon="7.20663">
        <ele>-1.3046875</ele>
        <time>2015-07-25T05:25:47Z</time>
      </trkpt>
      <trkpt lat="43.0475" lon="7.20722">
        <ele>-1.7852783203125</ele>
        <time>2015-07-25T05:26:09Z</time>
      </trkpt>
      <trkpt lat="43.04727" lon="7.20752">
        <ele>-1.3046875</ele>
        <time>2015-07-25T05:26:22Z</time>
      </trkpt>
      <trkpt lat="43.04698" lon="7.2078">
        <ele>-0.8240966796875</ele>
        <time>2015-07-25T05:26:34Z</time>
      </trkpt>
      <trkpt lat="43.0464" lon="7.2081">
        <ele>-0.3433837890625</ele>
        <time>2015-07-25T05:26:55Z</time>
      </trkpt>
      <trkpt lat="43.04608" lon="7.20841">
        <ele>-1.7852783203125</ele>
        <time>2015-07-25T05:27:08Z</time>
      </trkpt>
      <trkpt lat="43.04579" lon="7.20869">
        <ele>-1.7852783203125</ele>
        <time>2015-07-25T05:27:20Z</time>
      </trkpt>
      <trkpt lat="43.04547" lon="7.20911">
        <ele>-1.7852783203125</ele>
        <time>2015-07-25T05:27:36Z</time>
      </trkpt>
      <trkpt lat="43.04495" lon="7.2096">
        <ele>-0.8240966796875</ele>
        <time>2015-07-25T05:28:00Z</time>
      </trkpt>
      <trkpt lat="43.04442" lon="7.21">
        <ele>-0.8240966796875</ele>
        <time>2015-07-25T05:28:20Z</time>
      </trkpt>
      <trkpt lat="43.04406" lon="7.21023">
        <ele>-1.7852783203125</ele>
        <time>2015-07-25T05:28:33Z</time>
      </trkpt>
      <trkpt lat="43.04374" lon="7.21051">
        <ele>-1.7852783203125</ele>
        <time>2015-07-25T05:28:45Z</time>
      </trkpt>
      <trkpt lat="43.04357" lon="7.21092">
        <ele>-1.7852783203125</ele>
        <time>2015-07-25T05:28:59Z</time>
      </trkpt>
      <trkpt lat="43.043" lon="7.21133">
        <ele>-1.3046875</ele>
        <time>2015-07-25T05:29:22Z</time>
      </trkpt>
      <trkpt lat="43.04247" lon="7.21164">
        <ele>-1.7852783203125</ele>
        <time>2015-07-25T05:29:40Z</time>
      </trkpt>
      <trkpt lat="43.0423" lon="7.21203">
        <ele>-2.7467041015625</ele>
        <time>2015-07-25T05:29:53Z</time>
      </trkpt>
      <trkpt lat="43.04207" lon="7.21234">
        <ele>-1.3046875</ele>
        <time>2015-07-25T05:30:06Z</time>
      </trkpt>
      <trkpt lat="43.04171" lon="7.21256">
        <ele>-1.7852783203125</ele>
        <time>2015-07-25T05:30:19Z</time>
      </trkpt>
      <trkpt lat="43.04113" lon="7.21305">
        <ele>-2.7467041015625</ele>
        <time>2015-07-25T05:30:40Z</time>
      </trkpt>
      <trkpt lat="43.04058" lon="7.21334">
        <ele>-2.2659912109375</ele>
        <time>2015-07-25T05:31:00Z</time>
      </trkpt>
      <trkpt lat="43.04012" lon="7.21388">
        <ele>-2.2659912109375</ele>
        <time>2015-07-25T05:31:24Z</time>
      </trkpt>
      <trkpt lat="43.03968" lon="7.2144">
        <ele>-2.7467041015625</ele>
        <time>2015-07-25T05:31:46Z</time>
      </trkpt>
      <trkpt lat="43.0393" lon="7.21478">
        <ele>-1.7852783203125</ele>
        <time>2015-07-25T05:32:03Z</time>
      </trkpt>
      <trkpt lat="43.03895" lon="7.21517">
        <ele>-2.7467041015625</ele>
        <time>2015-07-25T05:32:19Z</time>
      </trkpt>
      <trkpt lat="43.03868" lon="7.21544">
        <ele>-2.7467041015625</ele>
        <time>2015-07-25T05:32:32Z</time>
      </trkpt>
      <trkpt lat="43.03839" lon="7.21579">
        <ele>-2.2659912109375</ele>
        <time>2015-07-25T05:32:46Z</time>
      </trkpt>
      <trkpt lat="43.03814" lon="7.21611">
        <ele>-2.7467041015625</ele>
        <time>2015-07-25T05:32:59Z</time>
      </trkpt>
      <trkpt lat="43.03789" lon="7.21645">
        <ele>-2.7467041015625</ele>
        <time>2015-07-25T05:33:13Z</time>
      </trkpt>
      <trkpt lat="43.03748" lon="7.21697">
        <ele>-2.2659912109375</ele>
        <time>2015-07-25T05:33:34Z</time>
      </trkpt>
      <trkpt lat="43.03704" lon="7.21756">
        <ele>-3.227294921875</ele>
        <time>2015-07-25T05:33:57Z</time>
      </trkpt>
      <trkpt lat="43.03675" lon="7.21791">
        <ele>-2.7467041015625</ele>
        <time>2015-07-25T05:34:11Z</time>
      </trkpt>
      <trkpt lat="43.0365" lon="7.21824">
        <ele>-2.7467041015625</ele>
        <time>2015-07-25T05:34:24Z</time>
      </trkpt>
      <trkpt lat="43.03621" lon="7.21857">
        <ele>-2.7467041015625</ele>
        <time>2015-07-25T05:34:37Z</time>
      </trkpt>
      <trkpt lat="43.03578" lon="7.21906">
        <ele>-2.2659912109375</ele>
        <time>2015-07-25T05:34:57Z</time>
      </trkpt>
      <trkpt lat="43.03531" lon="7.21969">
        <ele>-2.7467041015625</ele>
        <time>2015-07-25T05:35:21Z</time>
      </trkpt>
      <trkpt lat="43.03489" lon="7.22024">
        <ele>-3.227294921875</ele>
        <time>2015-07-25T05:35:43Z</time>
      </trkpt>
      <trkpt lat="43.03452" lon="7.22083">
        <ele>-2.7467041015625</ele>
        <time>2015-07-25T05:36:06Z</time>
      </trkpt>
      <trkpt lat="43.03415" lon="7.22154">
        <ele>-3.227294921875</ele>
        <time>2015-07-25T05:36:33Z</time>
      </trkpt>
      <trkpt lat="43.034" lon="7.22193">
        <ele>-3.227294921875</ele>
        <time>2015-07-25T05:36:47Z</time>
      </trkpt>
      <trkpt lat="43.03379" lon="7.22229">
        <ele>-3.227294921875</ele>
        <time>2015-07-25T05:37:01Z</time>
      </trkpt>
      <trkpt lat="43.03361" lon="7.22265">
        <ele>-3.7078857421875</ele>
        <time>2015-07-25T05:37:14Z</time>
      </trkpt>
      <trkpt lat="43.0334" lon="7.22316">
        <ele>-3.227294921875</ele>
        <time>2015-07-25T05:37:33Z</time>
      </trkpt>
      <trkpt lat="43.03313" lon="7.22354">
        <ele>-3.7078857421875</ele>
        <time>2015-07-25T05:37:50Z</time>
      </trkpt>
      <trkpt lat="43.03293" lon="7.22394">
        <ele>-2.7467041015625</ele>
        <time>2015-07-25T05:38:07Z</time>
      </trkpt>
      <trkpt lat="43.03264" lon="7.22459">
        <ele>-2.7467041015625</ele>
        <time>2015-07-25T05:38:32Z</time>
      </trkpt>
      <trkpt lat="43.03235" lon="7.22507">
        <ele>-2.7467041015625</ele>
        <time>2015-07-25T05:38:52Z</time>
      </trkpt>
      <trkpt lat="43.03204" lon="7.22551">
        <ele>-2.7467041015625</ele>
        <time>2015-07-25T05:39:11Z</time>
      </trkpt>
      <trkpt lat="43.03172" lon="7.22591">
        <ele>-3.227294921875</ele>
        <time>2015-07-25T05:39:28Z</time>
      </trkpt>
      <trkpt lat="43.03143" lon="7.22643">
        <ele>-2.7467041015625</ele>
        <time>2015-07-25T05:39:49Z</time>
      </trkpt>
      <trkpt lat="43.03113" lon="7.22697">
        <ele>-3.227294921875</ele>
        <time>2015-07-25T05:40:12Z</time>
      </trkpt>
      <trkpt lat="43.03085" lon="7.22748">
        <ele>-2.7467041015625</ele>
        <time>2015-07-25T05:40:34Z</time>
      </trkpt>
      <trkpt lat="43.03051" lon="7.22819">
        <ele>-2.7467041015625</ele>
        <time>2015-07-25T05:41:01Z</time>
      </trkpt>
      <trkpt lat="43.03024" lon="7.22904">
        <ele>-3.227294921875</ele>
        <time>2015-07-25T05:41:30Z</time>
      </trkpt>
      <trkpt lat="43.03005" lon="7.22964">
        <ele>-2.2659912109375</ele>
        <time>2015-07-25T05:41:51Z</time>
      </trkpt>
      <trkpt lat="43.02977" lon="7.23052">
        <ele>-2.7467041015625</ele>
        <time>2015-07-25T05:42:23Z</time>
      </trkpt>
      <trkpt lat="43.02955" lon="7.23096">
        <ele>-2.2659912109375</ele>
        <time>2015-07-25T05:42:40Z</time>
      </trkpt>
      <trkpt lat="43.0292" lon="7.23182">
        <ele>-2.2659912109375</ele>
        <time>2015-07-25T05:43:10Z</time>
      </trkpt>
      <trkpt lat="43.02907" lon="7.23237">
        <ele>-2.2659912109375</ele>
        <time>2015-07-25T05:43:27Z</time>
      </trkpt>
      <trkpt lat="43.02891" lon="7.23311">
        <ele>-2.2659912109375</ele>
        <time>2015-07-25T05:43:51Z</time>
      </trkpt>
      <trkpt lat="43.02885" lon="7.23353">
        <ele>-1.7852783203125</ele>
        <time>2015-07-25T05:44:04Z</time>
      </trkpt>
      <trkpt lat="43.02872" lon="7.23407">
        <ele>-2.2659912109375</ele>
        <time>2015-07-25T05:44:22Z</time>
      </trkpt>
      <trkpt lat="43.02854" lon="7.2346">
        <ele>-1.7852783203125</ele>
        <time>2015-07-25T05:44:40Z</time>
      </trkpt>
      <trkpt lat="43.02822" lon="7.2353">
        <ele>-1.7852783203125</ele>
        <time>2015-07-25T05:45:04Z</time>
      </trkpt>
      <trkpt lat="43.02801" lon="7.23568">
        <ele>-1.7852783203125</ele>
        <time>2015-07-25T05:45:19Z</time>
      </trkpt>
      <trkpt lat="43.02789" lon="7.23613">
        <ele>-1.3046875</ele>
        <time>2015-07-25T05:45:35Z</time>
      </trkpt>
      <trkpt lat="43.0278" lon="7.23668">
        <ele>-1.7852783203125</ele>
        <time>2015-07-25T05:45:53Z</time>
      </trkpt>
      <trkpt lat="43.0276" lon="7.2374">
        <ele>-1.3046875</ele>
        <time>2015-07-25T05:46:16Z</time>
      </trkpt>
      <trkpt lat="43.02739" lon="7.2379">
        <ele>-1.3046875</ele>
        <time>2015-07-25T05:46:32Z</time>
      </trkpt>
      <trkpt lat="43.02724" lon="7.23872">
        <ele>-1.3046875</ele>
        <time>2015-07-25T05:46:59Z</time>
      </trkpt>
      <trkpt lat="43.02706" lon="7.23931">
        <ele>-0.8240966796875</ele>
        <time>2015-07-25T05:47:23Z</time>
      </trkpt>
      <trkpt lat="43.02682" lon="7.23995">
        <ele>-0.8240966796875</ele>
        <time>2015-07-25T05:47:49Z</time>
      </trkpt>
      <trkpt lat="43.02671" lon="7.24042">
        <ele>-0.8240966796875</ele>
        <time>2015-07-25T05:48:07Z</time>
      </trkpt>
      <trkpt lat="43.02654" lon="7.24111">
        <ele>-0.3433837890625</ele>
        <time>2015-07-25T05:48:31Z</time>
      </trkpt>
      <trkpt lat="43.02641" lon="7.2417">
        <ele>-0.3433837890625</ele>
        <time>2015-07-25T05:48:53Z</time>
      </trkpt>
      <trkpt lat="43.02625" lon="7.24208">
        <ele>0.137451171875</ele>
        <time>2015-07-25T05:49:08Z</time>
      </trkpt>
      <trkpt lat="43.02582" lon="7.2427">
        <ele>-0.3433837890625</ele>
        <time>2015-07-25T05:49:36Z</time>
      </trkpt>
      <trkpt lat="43.0254" lon="7.24316">
        <ele>-0.3433837890625</ele>
        <time>2015-07-25T05:49:59Z</time>
      </trkpt>
      <trkpt lat="43.02496" lon="7.2435">
        <ele>0.137451171875</ele>
        <time>2015-07-25T05:50:18Z</time>
      </trkpt>
      <trkpt lat="43.02449" lon="7.24398">
        <ele>-0.8240966796875</ele>
        <time>2015-07-25T05:50:41Z</time>
      </trkpt>
      <trkpt lat="43.02422" lon="7.24428">
        <ele>-0.3433837890625</ele>
        <time>2015-07-25T05:50:56Z</time>
      </trkpt>
      <trkpt lat="43.02385" lon="7.24465">
        <ele>0.137451171875</ele>
        <time>2015-07-25T05:51:17Z</time>
      </trkpt>
      <trkpt lat="43.02333" lon="7.24515">
        <ele>-0.3433837890625</ele>
        <time>2015-07-25T05:51:42Z</time>
      </trkpt>
      <trkpt lat="43.02309" lon="7.24551">
        <ele>-0.8240966796875</ele>
        <time>2015-07-25T05:51:55Z</time>
      </trkpt>
      <trkpt lat="43.02263" lon="7.24605">
        <ele>-0.3433837890625</ele>
        <time>2015-07-25T05:52:19Z</time>
      </trkpt>
      <trkpt lat="43.02233" lon="7.24639">
        <ele>0.137451171875</ele>
        <time>2015-07-25T05:52:35Z</time>
      </trkpt>
      <trkpt lat="43.0219" lon="7.24692">
        <ele>-0.8240966796875</ele>
        <time>2015-07-25T05:52:59Z</time>
      </trkpt>
      <trkpt lat="43.02157" lon="7.24721">
        <ele>-0.3433837890625</ele>
        <time>2015-07-25T05:53:16Z</time>
      </trkpt>
      <trkpt lat="43.0212" lon="7.24769">
        <ele>-0.3433837890625</ele>
        <time>2015-07-25T05:53:39Z</time>
      </trkpt>
      <trkpt lat="43.02084" lon="7.24804">
        <ele>-0.8240966796875</ele>
        <time>2015-07-25T05:53:57Z</time>
      </trkpt>
      <trkpt lat="43.02053" lon="7.24834">
        <ele>-0.8240966796875</ele>
        <time>2015-07-25T05:54:11Z</time>
      </trkpt>
      <trkpt lat="43.02021" lon="7.24863">
        <ele>-0.3433837890625</ele>
        <time>2015-07-25T05:54:25Z</time>
      </trkpt>
      <trkpt lat="43.01982" lon="7.24911">
        <ele>-0.8240966796875</ele>
        <time>2015-07-25T05:54:49Z</time>
      </trkpt>
      <trkpt lat="43.01944" lon="7.24937">
        <ele>-0.3433837890625</ele>
        <time>2015-07-25T05:55:06Z</time>
      </trkpt>
      <trkpt lat="43.01899" lon="7.24986">
        <ele>-1.3046875</ele>
        <time>2015-07-25T05:55:29Z</time>
      </trkpt>
      <trkpt lat="43.01846" lon="7.25039">
        <ele>-0.3433837890625</ele>
        <time>2015-07-25T05:55:54Z</time>
      </trkpt>
      <trkpt lat="43.01797" lon="7.25092">
        <ele>-0.3433837890625</ele>
        <time>2015-07-25T05:56:19Z</time>
      </trkpt>
      <trkpt lat="43.01755" lon="7.25138">
        <ele>-0.3433837890625</ele>
        <time>2015-07-25T05:56:40Z</time>
      </trkpt>
      <trkpt lat="43.01707" lon="7.2518">
        <ele>-0.3433837890625</ele>
        <time>2015-07-25T05:57:02Z</time>
      </trkpt>
      <trkpt lat="43.01657" lon="7.25219">
        <ele>-1.3046875</ele>
        <time>2015-07-25T05:57:24Z</time>
      </trkpt>
      <trkpt lat="43.01616" lon="7.25265">
        <ele>0.137451171875</ele>
        <time>2015-07-25T05:57:47Z</time>
      </trkpt>
      <trkpt lat="43.0157" lon="7.25293">
        <ele>-1.3046875</ele>
        <time>2015-07-25T05:58:03Z</time>
      </trkpt>
      <trkpt lat="43.01522" lon="7.25344">
        <ele>-1.3046875</ele>
        <time>2015-07-25T05:58:25Z</time>
      </trkpt>
      <trkpt lat="43.01471" lon="7.2539">
        <ele>-0.8240966796875</ele>
        <time>2015-07-25T05:58:48Z</time>
      </trkpt>
      <trkpt lat="43.01448" lon="7.25419">
        <ele>-1.3046875</ele>
        <time>2015-07-25T05:59:00Z</time>
      </trkpt>
      <trkpt lat="43.0142" lon="7.2545">
        <ele>-1.3046875</ele>
        <time>2015-07-25T05:59:13Z</time>
      </trkpt>
      <trkpt lat="43.01393" lon="7.25472">
        <ele>-1.3046875</ele>
        <time>2015-07-25T05:59:24Z</time>
      </trkpt>
      <trkpt lat="43.01362" lon="7.25513">
        <ele>-0.8240966796875</ele>
        <time>2015-07-25T05:59:41Z</time>
      </trkpt>
      <trkpt lat="43.01331" lon="7.25543">
        <ele>-0.8240966796875</ele>
        <time>2015-07-25T05:59:56Z</time>
      </trkpt>
      <trkpt lat="43.01292" lon="7.25591">
        <ele>-0.8240966796875</ele>
        <time>2015-07-25T06:00:16Z</time>
      </trkpt>
      <trkpt lat="43.01255" lon="7.25615">
        <ele>0.6180419921875</ele>
        <time>2015-07-25T06:00:29Z</time>
      </trkpt>
      <trkpt lat="43.0119" lon="7.25664">
        <ele>-1.3046875</ele>
        <time>2015-07-25T06:00:53Z</time>
      </trkpt>
      <trkpt lat="43.01166" lon="7.25698">
        <ele>-1.3046875</ele>
        <time>2015-07-25T06:01:06Z</time>
      </trkpt>
      <trkpt lat="43.01109" lon="7.25744">
        <ele>-0.3433837890625</ele>
        <time>2015-07-25T06:01:29Z</time>
      </trkpt>
      <trkpt lat="43.01061" lon="7.25784">
        <ele>-1.7852783203125</ele>
        <time>2015-07-25T06:01:47Z</time>
      </trkpt>
      <trkpt lat="43.01034" lon="7.25827">
        <ele>-1.3046875</ele>
        <time>2015-07-25T06:02:02Z</time>
      </trkpt>
      <trkpt lat="43.01" lon="7.25854">
        <ele>-0.8240966796875</ele>
        <time>2015-07-25T06:02:15Z</time>
      </trkpt>
      <trkpt lat="43.00956" lon="7.259">
        <ele>-1.3046875</ele>
        <time>2015-07-25T06:02:34Z</time>
      </trkpt>
      <trkpt lat="43.00907" lon="7.25943">
        <ele>-0.3433837890625</ele>
        <time>2015-07-25T06:02:54Z</time>
      </trkpt>
      <trkpt lat="43.00879" lon="7.25967">
        <ele>-0.3433837890625</ele>
        <time>2015-07-25T06:03:06Z</time>
      </trkpt>
      <trkpt lat="43.00843" lon="7.26004">
        <ele>-0.8240966796875</ele>
        <time>2015-07-25T06:03:23Z</time>
      </trkpt>
      <trkpt lat="43.00806" lon="7.26034">
        <ele>-0.8240966796875</ele>
        <time>2015-07-25T06:03:38Z</time>
      </trkpt>
      <trkpt lat="43.00768" lon="7.26072">
        <ele>0.137451171875</ele>
        <time>2015-07-25T06:03:55Z</time>
      </trkpt>
      <trkpt lat="43.00737" lon="7.26094">
        <ele>-0.3433837890625</ele>
        <time>2015-07-25T06:04:07Z</time>
      </trkpt>
      <trkpt lat="43.0071" lon="7.26123">
        <ele>-0.3433837890625</ele>
        <time>2015-07-25T06:04:19Z</time>
      </trkpt>
      <trkpt lat="43.00645" lon="7.26177">
        <ele>-0.3433837890625</ele>
        <time>2015-07-25T06:04:45Z</time>
      </trkpt>
      <trkpt lat="43.00613" lon="7.26208">
        <ele>0.137451171875</ele>
        <time>2015-07-25T06:04:59Z</time>
      </trkpt>
      <trkpt lat="43.00584" lon="7.26237">
        <ele>0.137451171875</ele>
        <time>2015-07-25T06:05:12Z</time>
      </trkpt>
      <trkpt lat="43.00552" lon="7.2627">
        <ele>0.137451171875</ele>
        <time>2015-07-25T06:05:26Z</time>
      </trkpt>
      <trkpt lat="43.00499" lon="7.2632">
        <ele>0.137451171875</ele>
        <time>2015-07-25T06:05:51Z</time>
      </trkpt>
      <trkpt lat="43.00448" lon="7.26377">
        <ele>-0.3433837890625</ele>
        <time>2015-07-25T06:06:17Z</time>
      </trkpt>
      <trkpt lat="43.00392" lon="7.26429">
        <ele>0.137451171875</ele>
        <time>2015-07-25T06:06:44Z</time>
      </trkpt>
      <trkpt lat="43.00337" lon="7.26456">
        <ele>0.6180419921875</ele>
        <time>2015-07-25T06:07:06Z</time>
      </trkpt>
      <trkpt lat="43.00307" lon="7.26473">
        <ele>-0.3433837890625</ele>
        <time>2015-07-25T06:07:17Z</time>
      </trkpt>
      <trkpt lat="43.00275" lon="7.26501">
        <ele>0.137451171875</ele>
        <time>2015-07-25T06:07:30Z</time>
      </trkpt>
      <trkpt lat="43.00226" lon="7.2655">
        <ele>-0.3433837890625</ele>
        <time>2015-07-25T06:07:54Z</time>
      </trkpt>
      <trkpt lat="43.00197" lon="7.26578">
        <ele>-0.3433837890625</ele>
        <time>2015-07-25T06:08:08Z</time>
      </trkpt>
      <trkpt lat="43.00174" lon="7.26608">
        <ele>-0.8240966796875</ele>
        <time>2015-07-25T06:08:21Z</time>
      </trkpt>
      <trkpt lat="43.00135" lon="7.26651">
        <ele>-0.3433837890625</ele>
        <time>2015-07-25T06:08:43Z</time>
      </trkpt>
      <trkpt lat="43.00109" lon="7.26678">
        <ele>-0.3433837890625</ele>
        <time>2015-07-25T06:08:58Z</time>
      </trkpt>
      <trkpt lat="43.00077" lon="7.26704">
        <ele>0.137451171875</ele>
        <time>2015-07-25T06:09:13Z</time>
      </trkpt>
      <trkpt lat="43.00022" lon="7.26752">
        <ele>-0.3433837890625</ele>
        <time>2015-07-25T06:09:37Z</time>
      </trkpt>
      <trkpt lat="42.99996" lon="7.26777">
        <ele>-0.8240966796875</ele>
        <time>2015-07-25T06:09:50Z</time>
      </trkpt>
      <trkpt lat="42.99968" lon="7.26801">
        <ele>-0.3433837890625</ele>
        <time>2015-07-25T06:10:03Z</time>
      </trkpt>
      <trkpt lat="42.99936" lon="7.26821">
        <ele>0.137451171875</ele>
        <time>2015-07-25T06:10:15Z</time>
      </trkpt>
      <trkpt lat="42.9987" lon="7.26842">
        <ele>0.6180419921875</ele>
        <time>2015-07-25T06:10:38Z</time>
      </trkpt>
      <trkpt lat="42.99839" lon="7.26851">
        <ele>0.137451171875</ele>
        <time>2015-07-25T06:10:49Z</time>
      </trkpt>
      <trkpt lat="42.99808" lon="7.26879">
        <ele>-0.3433837890625</ele>
        <time>2015-07-25T06:11:03Z</time>
      </trkpt>
      <trkpt lat="42.99777" lon="7.26908">
        <ele>-0.3433837890625</ele>
        <time>2015-07-25T06:11:18Z</time>
      </trkpt>
      <trkpt lat="42.99723" lon="7.26948">
        <ele>-0.3433837890625</ele>
        <time>2015-07-25T06:11:42Z</time>
      </trkpt>
      <trkpt lat="42.99673" lon="7.26989">
        <ele>-0.3433837890625</ele>
        <time>2015-07-25T06:12:05Z</time>
      </trkpt>
      <trkpt lat="42.99626" lon="7.27024">
        <ele>-0.3433837890625</ele>
        <time>2015-07-25T06:12:26Z</time>
      </trkpt>
      <trkpt lat="42.99599" lon="7.27046">
        <ele>-0.3433837890625</ele>
        <time>2015-07-25T06:12:39Z</time>
      </trkpt>
      <trkpt lat="42.99552" lon="7.27086">
        <ele>-0.8240966796875</ele>
        <time>2015-07-25T06:13:04Z</time>
      </trkpt>
      <trkpt lat="42.99523" lon="7.27111">
        <ele>0.137451171875</ele>
        <time>2015-07-25T06:13:17Z</time>
      </trkpt>
      <trkpt lat="42.99493" lon="7.27134">
        <ele>-0.3433837890625</ele>
        <time>2015-07-25T06:13:30Z</time>
      </trkpt>
      <trkpt lat="42.9946" lon="7.27157">
        <ele>-0.3433837890625</ele>
        <time>2015-07-25T06:13:46Z</time>
      </trkpt>
      <trkpt lat="42.99431" lon="7.27184">
        <ele>-0.3433837890625</ele>
        <time>2015-07-25T06:14:00Z</time>
      </trkpt>
      <trkpt lat="42.99403" lon="7.27205">
        <ele>-0.8240966796875</ele>
        <time>2015-07-25T06:14:13Z</time>
      </trkpt>
      <trkpt lat="42.99351" lon="7.27238">
        <ele>0.137451171875</ele>
        <time>2015-07-25T06:14:36Z</time>
      </trkpt>
      <trkpt lat="42.99303" lon="7.27283">
        <ele>0.137451171875</ele>
        <time>2015-07-25T06:15:01Z</time>
      </trkpt>
      <trkpt lat="42.99249" lon="7.27323">
        <ele>-0.3433837890625</ele>
        <time>2015-07-25T06:15:28Z</time>
      </trkpt>
      <trkpt lat="42.99196" lon="7.27368">
        <ele>-0.8240966796875</ele>
        <time>2015-07-25T06:15:52Z</time>
      </trkpt>
      <trkpt lat="42.99168" lon="7.27392">
        <ele>-0.3433837890625</ele>
        <time>2015-07-25T06:16:05Z</time>
      </trkpt>
      <trkpt lat="42.99122" lon="7.27438">
        <ele>-0.8240966796875</ele>
        <time>2015-07-25T06:16:30Z</time>
      </trkpt>
      <trkpt lat="42.99091" lon="7.27471">
        <ele>-0.8240966796875</ele>
        <time>2015-07-25T06:16:46Z</time>
      </trkpt>
      <trkpt lat="42.99052" lon="7.27521">
        <ele>-0.3433837890625</ele>
        <time>2015-07-25T06:17:10Z</time>
      </trkpt>
      <trkpt lat="42.99016" lon="7.27548">
        <ele>-0.3433837890625</ele>
        <time>2015-07-25T06:17:26Z</time>
      </trkpt>
      <trkpt lat="42.98987" lon="7.27577">
        <ele>-0.8240966796875</ele>
        <time>2015-07-25T06:17:41Z</time>
      </trkpt>
      <trkpt lat="42.98962" lon="7.27605">
        <ele>-0.8240966796875</ele>
        <time>2015-07-25T06:17:56Z</time>
      </trkpt>
      <trkpt lat="42.98911" lon="7.27652">
        <ele>-1.3046875</ele>
        <time>2015-07-25T06:18:21Z</time>
      </trkpt>
      <trkpt lat="42.98867" lon="7.27696">
        <ele>-0.8240966796875</ele>
        <time>2015-07-25T06:18:47Z</time>
      </trkpt>
      <trkpt lat="42.98813" lon="7.27738">
        <ele>-0.8240966796875</ele>
        <time>2015-07-25T06:19:13Z</time>
      </trkpt>
      <trkpt lat="42.98783" lon="7.27776">
        <ele>-0.8240966796875</ele>
        <time>2015-07-25T06:19:33Z</time>
      </trkpt>
      <trkpt lat="42.98755" lon="7.27803">
        <ele>-0.8240966796875</ele>
        <time>2015-07-25T06:19:49Z</time>
      </trkpt>
      <trkpt lat="42.98696" lon="7.2785">
        <ele>-0.8240966796875</ele>
        <time>2015-07-25T06:20:21Z</time>
      </trkpt>
      <trkpt lat="42.98668" lon="7.27881">
        <ele>-0.8240966796875</ele>
        <time>2015-07-25T06:20:35Z</time>
      </trkpt>
      <trkpt lat="42.98642" lon="7.27905">
        <ele>-0.8240966796875</ele>
        <time>2015-07-25T06:20:49Z</time>
      </trkpt>
      <trkpt lat="42.98605" lon="7.27939">
        <ele>-0.8240966796875</ele>
        <time>2015-07-25T06:21:11Z</time>
      </trkpt>
      <trkpt lat="42.9855" lon="7.27985">
        <ele>-0.3433837890625</ele>
        <time>2015-07-25T06:21:42Z</time>
      </trkpt>
      <trkpt lat="42.98522" lon="7.2801">
        <ele>-0.3433837890625</ele>
        <time>2015-07-25T06:21:56Z</time>
      </trkpt>
      <trkpt lat="42.98489" lon="7.28037">
        <ele>-0.3433837890625</ele>
        <time>2015-07-25T06:22:11Z</time>
      </trkpt>
      <trkpt lat="42.98461" lon="7.2806">
        <ele>-1.3046875</ele>
        <time>2015-07-25T06:22:24Z</time>
      </trkpt>
      <trkpt lat="42.98434" lon="7.28093">
        <ele>-1.3046875</ele>
        <time>2015-07-25T06:22:40Z</time>
      </trkpt>
      <trkpt lat="42.98389" lon="7.2812">
        <ele>0.137451171875</ele>
        <time>2015-07-25T06:23:01Z</time>
      </trkpt>
      <trkpt lat="42.98337" lon="7.28163">
        <ele>-1.3046875</ele>
        <time>2015-07-25T06:23:26Z</time>
      </trkpt>
      <trkpt lat="42.98305" lon="7.28189">
        <ele>-0.8240966796875</ele>
        <time>2015-07-25T06:23:42Z</time>
      </trkpt>
      <trkpt lat="42.98273" lon="7.2821">
        <ele>-0.8240966796875</ele>
        <time>2015-07-25T06:23:55Z</time>
      </trkpt>
      <trkpt lat="42.98241" lon="7.28243">
        <ele>-1.3046875</ele>
        <time>2015-07-25T06:24:11Z</time>
      </trkpt>
      <trkpt lat="42.98193" lon="7.28283">
        <ele>-0.8240966796875</ele>
        <time>2015-07-25T06:24:34Z</time>
      </trkpt>
      <trkpt lat="42.98165" lon="7.28304">
        <ele>-1.3046875</ele>
        <time>2015-07-25T06:24:48Z</time>
      </trkpt>
      <trkpt lat="42.9813" lon="7.28326">
        <ele>-0.3433837890625</ele>
        <time>2015-07-25T06:25:04Z</time>
      </trkpt>
      <trkpt lat="42.98101" lon="7.28348">
        <ele>-0.8240966796875</ele>
        <time>2015-07-25T06:25:17Z</time>
      </trkpt>
      <trkpt lat="42.98068" lon="7.28375">
        <ele>-0.8240966796875</ele>
        <time>2015-07-25T06:25:32Z</time>
      </trkpt>
      <trkpt lat="42.98019" lon="7.28414">
        <ele>-0.8240966796875</ele>
        <time>2015-07-25T06:25:55Z</time>
      </trkpt>
      <trkpt lat="42.97969" lon="7.2845">
        <ele>-1.3046875</ele>
        <time>2015-07-25T06:26:18Z</time>
      </trkpt>
      <trkpt lat="42.97916" lon="7.28496">
        <ele>-0.8240966796875</ele>
        <time>2015-07-25T06:26:43Z</time>
      </trkpt>
      <trkpt lat="42.97858" lon="7.28534">
        <ele>-1.3046875</ele>
        <time>2015-07-25T06:27:08Z</time>
      </trkpt>
      <trkpt lat="42.97806" lon="7.28573">
        <ele>-1.3046875</ele>
        <time>2015-07-25T06:27:31Z</time>
      </trkpt>
      <trkpt lat="42.97753" lon="7.28627">
        <ele>-0.8240966796875</ele>
        <time>2015-07-25T06:27:58Z</time>
      </trkpt>
      <trkpt lat="42.97697" lon="7.28664">
        <ele>-0.3433837890625</ele>
        <time>2015-07-25T06:28:23Z</time>
      </trkpt>
      <trkpt lat="42.97664" lon="7.28683">
        <ele>-0.3433837890625</ele>
        <time>2015-07-25T06:28:36Z</time>
      </trkpt>
      <trkpt lat="42.97629" lon="7.28707">
        <ele>-0.3433837890625</ele>
        <time>2015-07-25T06:28:49Z</time>
      </trkpt>
      <trkpt lat="42.97602" lon="7.28736">
        <ele>-0.8240966796875</ele>
        <time>2015-07-25T06:29:03Z</time>
      </trkpt>
      <trkpt lat="42.97573" lon="7.28764">
        <ele>-0.3433837890625</ele>
        <time>2015-07-25T06:29:17Z</time>
      </trkpt>
      <trkpt lat="42.97523" lon="7.2879">
        <ele>-0.3433837890625</ele>
        <time>2015-07-25T06:29:38Z</time>
      </trkpt>
      <trkpt lat="42.97489" lon="7.2882">
        <ele>-0.3433837890625</ele>
        <time>2015-07-25T06:29:53Z</time>
      </trkpt>
      <trkpt lat="42.97439" lon="7.28848">
        <ele>-0.3433837890625</ele>
        <time>2015-07-25T06:30:15Z</time>
      </trkpt>
      <trkpt lat="42.9741" lon="7.28872">
        <ele>-0.8240966796875</ele>
        <time>2015-07-25T06:30:27Z</time>
      </trkpt>
      <trkpt lat="42.97366" lon="7.28917">
        <ele>-0.8240966796875</ele>
        <time>2015-07-25T06:30:48Z</time>
      </trkpt>
      <trkpt lat="42.97312" lon="7.28959">
        <ele>-0.3433837890625</ele>
        <time>2015-07-25T06:31:13Z</time>
      </trkpt>
      <trkpt lat="42.97262" lon="7.28996">
        <ele>-0.3433837890625</ele>
        <time>2015-07-25T06:31:35Z</time>
      </trkpt>
      <trkpt lat="42.97233" lon="7.29018">
        <ele>-0.3433837890625</ele>
        <time>2015-07-25T06:31:48Z</time>
      </trkpt>
      <trkpt lat="42.97204" lon="7.29042">
        <ele>-0.3433837890625</ele>
        <time>2015-07-25T06:32:01Z</time>
      </trkpt>
      <trkpt lat="42.97171" lon="7.29053">
        <ele>0.6180419921875</ele>
        <time>2015-07-25T06:32:13Z</time>
      </trkpt>
      <trkpt lat="42.97111" lon="7.29079">
        <ele>-0.3433837890625</ele>
        <time>2015-07-25T06:32:36Z</time>
      </trkpt>
      <trkpt lat="42.97079" lon="7.29104">
        <ele>-0.3433837890625</ele>
        <time>2015-07-25T06:32:48Z</time>
      </trkpt>
      <trkpt lat="42.97029" lon="7.29142">
        <ele>-0.3433837890625</ele>
        <time>2015-07-25T06:33:09Z</time>
      </trkpt>
      <trkpt lat="42.96973" lon="7.2916">
        <ele>0.137451171875</ele>
        <time>2015-07-25T06:33:27Z</time>
      </trkpt>
      <trkpt lat="42.96942" lon="7.29181">
        <ele>0.137451171875</ele>
        <time>2015-07-25T06:33:39Z</time>
      </trkpt>
      <trkpt lat="42.9689" lon="7.29206">
        <ele>-0.3433837890625</ele>
        <time>2015-07-25T06:33:59Z</time>
      </trkpt>
      <trkpt lat="42.96854" lon="7.29236">
        <ele>-0.3433837890625</ele>
        <time>2015-07-25T06:34:14Z</time>
      </trkpt>
      <trkpt lat="42.96823" lon="7.2926">
        <ele>-0.3433837890625</ele>
        <time>2015-07-25T06:34:28Z</time>
      </trkpt>
      <trkpt lat="42.96794" lon="7.29285">
        <ele>-0.3433837890625</ele>
        <time>2015-07-25T06:34:42Z</time>
      </trkpt>
      <trkpt lat="42.96751" lon="7.29328">
        <ele>-0.3433837890625</ele>
        <time>2015-07-25T06:35:03Z</time>
      </trkpt>
      <trkpt lat="42.96723" lon="7.29349">
        <ele>0.137451171875</ele>
        <time>2015-07-25T06:35:16Z</time>
      </trkpt>
      <trkpt lat="42.96693" lon="7.29373">
        <ele>0.137451171875</ele>
        <time>2015-07-25T06:35:29Z</time>
      </trkpt>
      <trkpt lat="42.96648" lon="7.2941">
        <ele>0.6180419921875</ele>
        <time>2015-07-25T06:35:51Z</time>
      </trkpt>
      <trkpt lat="42.96595" lon="7.29448">
        <ele>0.6180419921875</ele>
        <time>2015-07-25T06:36:13Z</time>
      </trkpt>
      <trkpt lat="42.96535" lon="7.29471">
        <ele>1.0986328125</ele>
        <time>2015-07-25T06:36:35Z</time>
      </trkpt>
      <trkpt lat="42.96474" lon="7.29503">
        <ele>0.6180419921875</ele>
        <time>2015-07-25T06:36:57Z</time>
      </trkpt>
      <trkpt lat="42.96429" lon="7.29547">
        <ele>-0.3433837890625</ele>
        <time>2015-07-25T06:37:17Z</time>
      </trkpt>
      <trkpt lat="42.96381" lon="7.29588">
        <ele>0.137451171875</ele>
        <time>2015-07-25T06:37:41Z</time>
      </trkpt>
      <trkpt lat="42.96317" lon="7.29626">
        <ele>0.137451171875</ele>
        <time>2015-07-25T06:38:05Z</time>
      </trkpt>
      <trkpt lat="42.96289" lon="7.29657">
        <ele>0.137451171875</ele>
        <time>2015-07-25T06:38:18Z</time>
      </trkpt>
      <trkpt lat="42.96239" lon="7.29693">
        <ele>0.137451171875</ele>
        <time>2015-07-25T06:38:39Z</time>
      </trkpt>
      <trkpt lat="42.96187" lon="7.29719">
        <ele>0.137451171875</ele>
        <time>2015-07-25T06:39:01Z</time>
      </trkpt>
      <trkpt lat="42.96154" lon="7.29728">
        <ele>0.6180419921875</ele>
        <time>2015-07-25T06:39:14Z</time>
      </trkpt>
      <trkpt lat="42.96095" lon="7.29764">
        <ele>0.137451171875</ele>
        <time>2015-07-25T06:39:39Z</time>
      </trkpt>
      <trkpt lat="42.96069" lon="7.29791">
        <ele>0.6180419921875</ele>
        <time>2015-07-25T06:39:50Z</time>
      </trkpt>
      <trkpt lat="42.96035" lon="7.29824">
        <ele>0.6180419921875</ele>
        <time>2015-07-25T06:40:06Z</time>
      </trkpt>
      <trkpt lat="42.96009" lon="7.29853">
        <ele>0.6180419921875</ele>
        <time>2015-07-25T06:40:18Z</time>
      </trkpt>
      <trkpt lat="42.95975" lon="7.29888">
        <ele>0.6180419921875</ele>
        <time>2015-07-25T06:40:34Z</time>
      </trkpt>
      <trkpt lat="42.95933" lon="7.29929">
        <ele>0.6180419921875</ele>
        <time>2015-07-25T06:40:53Z</time>
      </trkpt>
      <trkpt lat="42.95909" lon="7.29959">
        <ele>0.6180419921875</ele>
        <time>2015-07-25T06:41:06Z</time>
      </trkpt>
      <trkpt lat="42.95853" lon="7.30006">
        <ele>0.6180419921875</ele>
        <time>2015-07-25T06:41:32Z</time>
      </trkpt>
      <trkpt lat="42.95822" lon="7.30046">
        <ele>-0.3433837890625</ele>
        <time>2015-07-25T06:41:49Z</time>
      </trkpt>
      <trkpt lat="42.95795" lon="7.30081">
        <ele>0.6180419921875</ele>
        <time>2015-07-25T06:42:05Z</time>
      </trkpt>
      <trkpt lat="42.95772" lon="7.3011">
        <ele>0.6180419921875</ele>
        <time>2015-07-25T06:42:17Z</time>
      </trkpt>
      <trkpt lat="42.9572" lon="7.30154">
        <ele>0.6180419921875</ele>
        <time>2015-07-25T06:42:40Z</time>
      </trkpt>
      <trkpt lat="42.9567" lon="7.30181">
        <ele>0.6180419921875</ele>
        <time>2015-07-25T06:42:59Z</time>
      </trkpt>
      <trkpt lat="42.95633" lon="7.30207">
        <ele>0.6180419921875</ele>
        <time>2015-07-25T06:43:13Z</time>
      </trkpt>
      <trkpt lat="42.95604" lon="7.30236">
        <ele>0.137451171875</ele>
        <time>2015-07-25T06:43:26Z</time>
      </trkpt>
      <trkpt lat="42.95557" lon="7.30288">
        <ele>0.6180419921875</ele>
        <time>2015-07-25T06:43:51Z</time>
      </trkpt>
      <trkpt lat="42.95519" lon="7.30322">
        <ele>0.137451171875</ele>
        <time>2015-07-25T06:44:08Z</time>
      </trkpt>
      <trkpt lat="42.95481" lon="7.30364">
        <ele>0.137451171875</ele>
        <time>2015-07-25T06:44:28Z</time>
      </trkpt>
      <trkpt lat="42.95446" lon="7.30402">
        <ele>0.137451171875</ele>
        <time>2015-07-25T06:44:46Z</time>
      </trkpt>
      <trkpt lat="42.95419" lon="7.30434">
        <ele>-0.3433837890625</ele>
        <time>2015-07-25T06:45:01Z</time>
      </trkpt>
      <trkpt lat="42.95369" lon="7.30492">
        <ele>0.137451171875</ele>
        <time>2015-07-25T06:45:30Z</time>
      </trkpt>
      <trkpt lat="42.95324" lon="7.30547">
        <ele>0.137451171875</ele>
        <time>2015-07-25T06:45:55Z</time>
      </trkpt>
      <trkpt lat="42.95299" lon="7.30578">
        <ele>-0.3433837890625</ele>
        <time>2015-07-25T06:46:09Z</time>
      </trkpt>
      <trkpt lat="42.95274" lon="7.30607">
        <ele>-0.3433837890625</ele>
        <time>2015-07-25T06:46:22Z</time>
      </trkpt>
      <trkpt lat="42.95217" lon="7.30663">
        <ele>-0.8240966796875</ele>
        <time>2015-07-25T06:46:48Z</time>
      </trkpt>
      <trkpt lat="42.9519" lon="7.30685">
        <ele>0.137451171875</ele>
        <time>2015-07-25T06:47:01Z</time>
      </trkpt>
      <trkpt lat="42.95137" lon="7.30746">
        <ele>-0.3433837890625</ele>
        <time>2015-07-25T06:47:29Z</time>
      </trkpt>
      <trkpt lat="42.95096" lon="7.30804">
        <ele>-0.3433837890625</ele>
        <time>2015-07-25T06:47:58Z</time>
      </trkpt>
      <trkpt lat="42.95071" lon="7.30838">
        <ele>-0.8240966796875</ele>
        <time>2015-07-25T06:48:14Z</time>
      </trkpt>
      <trkpt lat="42.95034" lon="7.30876">
        <ele>-0.8240966796875</ele>
        <time>2015-07-25T06:48:36Z</time>
      </trkpt>
      <trkpt lat="42.94987" lon="7.30933">
        <ele>0.137451171875</ele>
        <time>2015-07-25T06:49:01Z</time>
      </trkpt>
      <trkpt lat="42.94945" lon="7.30988">
        <ele>-0.8240966796875</ele>
        <time>2015-07-25T06:49:26Z</time>
      </trkpt>
      <trkpt lat="42.94901" lon="7.31032">
        <ele>0.6180419921875</ele>
        <time>2015-07-25T06:49:48Z</time>
      </trkpt>
      <trkpt lat="42.94874" lon="7.31065">
        <ele>-0.8240966796875</ele>
        <time>2015-07-25T06:50:04Z</time>
      </trkpt>
      <trkpt lat="42.94838" lon="7.31105">
        <ele>-0.3433837890625</ele>
        <time>2015-07-25T06:50:21Z</time>
      </trkpt>
      <trkpt lat="42.9481" lon="7.31133">
        <ele>-0.3433837890625</ele>
        <time>2015-07-25T06:50:35Z</time>
      </trkpt>
      <trkpt lat="42.94788" lon="7.31165">
        <ele>-0.3433837890625</ele>
        <time>2015-07-25T06:50:48Z</time>
      </trkpt>
      <trkpt lat="42.94749" lon="7.31213">
        <ele>-0.8240966796875</ele>
        <time>2015-07-25T06:51:11Z</time>
      </trkpt>
      <trkpt lat="42.94722" lon="7.31245">
        <ele>-0.3433837890625</ele>
        <time>2015-07-25T06:51:25Z</time>
      </trkpt>
      <trkpt lat="42.94698" lon="7.31279">
        <ele>-0.3433837890625</ele>
        <time>2015-07-25T06:51:41Z</time>
      </trkpt>
      <trkpt lat="42.94664" lon="7.3132">
        <ele>-0.3433837890625</ele>
        <time>2015-07-25T06:52:02Z</time>
      </trkpt>
      <trkpt lat="42.94632" lon="7.31354">
        <ele>-0.8240966796875</ele>
        <time>2015-07-25T06:52:16Z</time>
      </trkpt>
      <trkpt lat="42.94603" lon="7.31384">
        <ele>-0.3433837890625</ele>
        <time>2015-07-25T06:52:30Z</time>
      </trkpt>
      <trkpt lat="42.94562" lon="7.31434">
        <ele>-0.3433837890625</ele>
        <time>2015-07-25T06:52:52Z</time>
      </trkpt>
      <trkpt lat="42.94536" lon="7.31468">
        <ele>-0.3433837890625</ele>
        <time>2015-07-25T06:53:07Z</time>
      </trkpt>
      <trkpt lat="42.94508" lon="7.31503">
        <ele>0.137451171875</ele>
        <time>2015-07-25T06:53:21Z</time>
      </trkpt>
      <trkpt lat="42.9448" lon="7.31529">
        <ele>-0.3433837890625</ele>
        <time>2015-07-25T06:53:34Z</time>
      </trkpt>
      <trkpt lat="42.94453" lon="7.31559">
        <ele>0.137451171875</ele>
        <time>2015-07-25T06:53:47Z</time>
      </trkpt>
      <trkpt lat="42.94418" lon="7.31591">
        <ele>-0.3433837890625</ele>
        <time>2015-07-25T06:54:03Z</time>
      </trkpt>
      <trkpt lat="42.94386" lon="7.3163">
        <ele>0.137451171875</ele>
        <time>2015-07-25T06:54:20Z</time>
      </trkpt>
      <trkpt lat="42.94354" lon="7.31667">
        <ele>-0.3433837890625</ele>
        <time>2015-07-25T06:54:35Z</time>
      </trkpt>
      <trkpt lat="42.94328" lon="7.31705">
        <ele>0.6180419921875</ele>
        <time>2015-07-25T06:54:51Z</time>
      </trkpt>
      <trkpt lat="42.94299" lon="7.31732">
        <ele>-0.3433837890625</ele>
        <time>2015-07-25T06:55:06Z</time>
      </trkpt>
      <trkpt lat="42.94258" lon="7.3178">
        <ele>-0.3433837890625</ele>
        <time>2015-07-25T06:55:28Z</time>
      </trkpt>
      <trkpt lat="42.94229" lon="7.3181">
        <ele>-0.3433837890625</ele>
        <time>2015-07-25T06:55:43Z</time>
      </trkpt>
      <trkpt lat="42.94184" lon="7.31854">
        <ele>0.137451171875</ele>
        <time>2015-07-25T06:56:08Z</time>
      </trkpt>
      <trkpt lat="42.94131" lon="7.31908">
        <ele>0.137451171875</ele>
        <time>2015-07-25T06:56:34Z</time>
      </trkpt>
      <trkpt lat="42.94105" lon="7.3194">
        <ele>0.6180419921875</ele>
        <time>2015-07-25T06:56:47Z</time>
      </trkpt>
      <trkpt lat="42.94077" lon="7.31966">
        <ele>0.6180419921875</ele>
        <time>2015-07-25T06:57:00Z</time>
      </trkpt>
      <trkpt lat="42.94025" lon="7.32021">
        <ele>-0.3433837890625</ele>
        <time>2015-07-25T06:57:25Z</time>
      </trkpt>
      <trkpt lat="42.93978" lon="7.32075">
        <ele>0.137451171875</ele>
        <time>2015-07-25T06:57:51Z</time>
      </trkpt>
      <trkpt lat="42.93952" lon="7.32103">
        <ele>0.6180419921875</ele>
        <time>2015-07-25T06:58:05Z</time>
      </trkpt>
      <trkpt lat="42.93923" lon="7.32128">
        <ele>0.137451171875</ele>
        <time>2015-07-25T06:58:18Z</time>
      </trkpt>
      <trkpt lat="42.9389" lon="7.32174">
        <ele>-0.8240966796875</ele>
        <time>2015-07-25T06:58:38Z</time>
      </trkpt>
      <trkpt lat="42.93841" lon="7.32237">
        <ele>-0.3433837890625</ele>
        <time>2015-07-25T06:59:08Z</time>
      </trkpt>
      <trkpt lat="42.93792" lon="7.32284">
        <ele>-0.3433837890625</ele>
        <time>2015-07-25T06:59:34Z</time>
      </trkpt>
      <trkpt lat="42.9376" lon="7.32318">
        <ele>-0.3433837890625</ele>
        <time>2015-07-25T06:59:50Z</time>
      </trkpt>
      <trkpt lat="42.9373" lon="7.32348">
        <ele>0.137451171875</ele>
        <time>2015-07-25T07:00:05Z</time>
      </trkpt>
      <trkpt lat="42.93684" lon="7.32394">
        <ele>0.137451171875</ele>
        <time>2015-07-25T07:00:27Z</time>
      </trkpt>
      <trkpt lat="42.93627" lon="7.32461">
        <ele>0.137451171875</ele>
        <time>2015-07-25T07:01:00Z</time>
      </trkpt>
      <trkpt lat="42.93594" lon="7.32496">
        <ele>0.137451171875</ele>
        <time>2015-07-25T07:01:16Z</time>
      </trkpt>
      <trkpt lat="42.93545" lon="7.32547">
        <ele>0.137451171875</ele>
        <time>2015-07-25T07:01:39Z</time>
      </trkpt>
      <trkpt lat="42.93522" lon="7.32587">
        <ele>-0.3433837890625</ele>
        <time>2015-07-25T07:01:54Z</time>
      </trkpt>
      <trkpt lat="42.9347" lon="7.32654">
        <ele>0.137451171875</ele>
        <time>2015-07-25T07:02:24Z</time>
      </trkpt>
      <trkpt lat="42.93435" lon="7.32714">
        <ele>-0.3433837890625</ele>
        <time>2015-07-25T07:02:49Z</time>
      </trkpt>
      <trkpt lat="42.93413" lon="7.32747">
        <ele>-0.3433837890625</ele>
        <time>2015-07-25T07:03:03Z</time>
      </trkpt>
      <trkpt lat="42.93388" lon="7.32788">
        <ele>-0.3433837890625</ele>
        <time>2015-07-25T07:03:20Z</time>
      </trkpt>
      <trkpt lat="42.93331" lon="7.32837">
        <ele>0.137451171875</ele>
        <time>2015-07-25T07:03:45Z</time>
      </trkpt>
      <trkpt lat="42.93304" lon="7.32863">
        <ele>0.137451171875</ele>
        <time>2015-07-25T07:03:58Z</time>
      </trkpt>
      <trkpt lat="42.93278" lon="7.32891">
        <ele>0.137451171875</ele>
        <time>2015-07-25T07:04:12Z</time>
      </trkpt>
      <trkpt lat="42.93249" lon="7.32909">
        <ele>0.137451171875</ele>
        <time>2015-07-25T07:04:24Z</time>
      </trkpt>
      <trkpt lat="42.93216" lon="7.32942">
        <ele>-0.3433837890625</ele>
        <time>2015-07-25T07:04:39Z</time>
      </trkpt>
      <trkpt lat="42.93188" lon="7.32984">
        <ele>-0.3433837890625</ele>
        <time>2015-07-25T07:04:53Z</time>
      </trkpt>
      <trkpt lat="42.93135" lon="7.3302">
        <ele>0.137451171875</ele>
        <time>2015-07-25T07:05:16Z</time>
      </trkpt>
      <trkpt lat="42.93107" lon="7.33042">
        <ele>0.137451171875</ele>
        <time>2015-07-25T07:05:28Z</time>
      </trkpt>
      <trkpt lat="42.93074" lon="7.33073">
        <ele>-0.3433837890625</ele>
        <time>2015-07-25T07:05:43Z</time>
      </trkpt>
      <trkpt lat="42.93054" lon="7.33107">
        <ele>-0.3433837890625</ele>
        <time>2015-07-25T07:05:55Z</time>
      </trkpt>
      <trkpt lat="42.93028" lon="7.33143">
        <ele>0.137451171875</ele>
        <time>2015-07-25T07:06:10Z</time>
      </trkpt>
      <trkpt lat="42.92988" lon="7.33206">
        <ele>-0.8240966796875</ele>
        <time>2015-07-25T07:06:36Z</time>
      </trkpt>
      <trkpt lat="42.92951" lon="7.33231">
        <ele>0.137451171875</ele>
        <time>2015-07-25T07:06:50Z</time>
      </trkpt>
      <trkpt lat="42.9292" lon="7.3326">
        <ele>0.137451171875</ele>
        <time>2015-07-25T07:07:04Z</time>
      </trkpt>
      <trkpt lat="42.92893" lon="7.33291">
        <ele>-0.3433837890625</ele>
        <time>2015-07-25T07:07:17Z</time>
      </trkpt>
      <trkpt lat="42.92869" lon="7.33326">
        <ele>-0.3433837890625</ele>
        <time>2015-07-25T07:07:30Z</time>
      </trkpt>
      <trkpt lat="42.92842" lon="7.33368">
        <ele>-0.8240966796875</ele>
        <time>2015-07-25T07:07:44Z</time>
      </trkpt>
      <trkpt lat="42.92817" lon="7.33406">
        <ele>-0.8240966796875</ele>
        <time>2015-07-25T07:07:59Z</time>
      </trkpt>
      <trkpt lat="42.92795" lon="7.33438">
        <ele>-0.8240966796875</ele>
        <time>2015-07-25T07:08:12Z</time>
      </trkpt>
      <trkpt lat="42.92751" lon="7.33507">
        <ele>-0.8240966796875</ele>
        <time>2015-07-25T07:08:38Z</time>
      </trkpt>
      <trkpt lat="42.92724" lon="7.33532">
        <ele>-0.3433837890625</ele>
        <time>2015-07-25T07:08:51Z</time>
      </trkpt>
      <trkpt lat="42.92697" lon="7.33555">
        <ele>-0.3433837890625</ele>
        <time>2015-07-25T07:09:02Z</time>
      </trkpt>
      <trkpt lat="42.92669" lon="7.33584">
        <ele>-0.3433837890625</ele>
        <time>2015-07-25T07:09:15Z</time>
      </trkpt>
      <trkpt lat="42.92642" lon="7.33613">
        <ele>-0.8240966796875</ele>
        <time>2015-07-25T07:09:28Z</time>
      </trkpt>
      <trkpt lat="42.92593" lon="7.33668">
        <ele>-0.3433837890625</ele>
        <time>2015-07-25T07:09:52Z</time>
      </trkpt>
      <trkpt lat="42.92565" lon="7.33703">
        <ele>-0.8240966796875</ele>
        <time>2015-07-25T07:10:05Z</time>
      </trkpt>
      <trkpt lat="42.92529" lon="7.33739">
        <ele>-0.3433837890625</ele>
        <time>2015-07-25T07:10:21Z</time>
      </trkpt>
      <trkpt lat="42.92493" lon="7.33767">
        <ele>-0.8240966796875</ele>
        <time>2015-07-25T07:10:35Z</time>
      </trkpt>
      <trkpt lat="42.92468" lon="7.33805">
        <ele>-0.8240966796875</ele>
        <time>2015-07-25T07:10:49Z</time>
      </trkpt>
      <trkpt lat="42.92444" lon="7.33841">
        <ele>-0.3433837890625</ele>
        <time>2015-07-25T07:11:03Z</time>
      </trkpt>
      <trkpt lat="42.92411" lon="7.33888">
        <ele>-0.8240966796875</ele>
        <time>2015-07-25T07:11:19Z</time>
      </trkpt>
      <trkpt lat="42.92386" lon="7.33924">
        <ele>-1.3046875</ele>
        <time>2015-07-25T07:11:32Z</time>
      </trkpt>
      <trkpt lat="42.92359" lon="7.33959">
        <ele>-0.8240966796875</ele>
        <time>2015-07-25T07:11:46Z</time>
      </trkpt>
      <trkpt lat="42.92327" lon="7.33989">
        <ele>-0.3433837890625</ele>
        <time>2015-07-25T07:12:00Z</time>
      </trkpt>
      <trkpt lat="42.92298" lon="7.3402">
        <ele>-0.8240966796875</ele>
        <time>2015-07-25T07:12:13Z</time>
      </trkpt>
      <trkpt lat="42.92266" lon="7.3404">
        <ele>-0.8240966796875</ele>
        <time>2015-07-25T07:12:25Z</time>
      </trkpt>
      <trkpt lat="42.92243" lon="7.34071">
        <ele>-0.8240966796875</ele>
        <time>2015-07-25T07:12:37Z</time>
      </trkpt>
      <trkpt lat="42.92223" lon="7.3411">
        <ele>-0.8240966796875</ele>
        <time>2015-07-25T07:12:51Z</time>
      </trkpt>
      <trkpt lat="42.92201" lon="7.34145">
        <ele>-0.8240966796875</ele>
        <time>2015-07-25T07:13:05Z</time>
      </trkpt>
      <trkpt lat="42.92181" lon="7.34188">
        <ele>-1.3046875</ele>
        <time>2015-07-25T07:13:20Z</time>
      </trkpt>
      <trkpt lat="42.92156" lon="7.34223">
        <ele>-0.8240966796875</ele>
        <time>2015-07-25T07:13:34Z</time>
      </trkpt>
      <trkpt lat="42.92102" lon="7.34274">
        <ele>-0.3433837890625</ele>
        <time>2015-07-25T07:13:59Z</time>
      </trkpt>
      <trkpt lat="42.92074" lon="7.34297">
        <ele>-0.3433837890625</ele>
        <time>2015-07-25T07:14:12Z</time>
      </trkpt>
      <trkpt lat="42.92038" lon="7.34333">
        <ele>-0.8240966796875</ele>
        <time>2015-07-25T07:14:28Z</time>
      </trkpt>
      <trkpt lat="42.92007" lon="7.34372">
        <ele>-0.8240966796875</ele>
        <time>2015-07-25T07:14:43Z</time>
      </trkpt>
      <trkpt lat="42.91986" lon="7.34417">
        <ele>-1.3046875</ele>
        <time>2015-07-25T07:14:58Z</time>
      </trkpt>
      <trkpt lat="42.91962" lon="7.3445">
        <ele>-0.3433837890625</ele>
        <time>2015-07-25T07:15:12Z</time>
      </trkpt>
      <trkpt lat="42.91933" lon="7.34483">
        <ele>-0.8240966796875</ele>
        <time>2015-07-25T07:15:27Z</time>
      </trkpt>
      <trkpt lat="42.91906" lon="7.34515">
        <ele>-0.3433837890625</ele>
        <time>2015-07-25T07:15:40Z</time>
      </trkpt>
      <trkpt lat="42.91884" lon="7.34547">
        <ele>-0.8240966796875</ele>
        <time>2015-07-25T07:15:52Z</time>
      </trkpt>
      <trkpt lat="42.91858" lon="7.34579">
        <ele>-0.8240966796875</ele>
        <time>2015-07-25T07:16:05Z</time>
      </trkpt>
      <trkpt lat="42.9183" lon="7.34606">
        <ele>-0.3433837890625</ele>
        <time>2015-07-25T07:16:18Z</time>
      </trkpt>
      <trkpt lat="42.91796" lon="7.34645">
        <ele>-0.3433837890625</ele>
        <time>2015-07-25T07:16:33Z</time>
      </trkpt>
      <trkpt lat="42.91769" lon="7.34681">
        <ele>-0.8240966796875</ele>
        <time>2015-07-25T07:16:46Z</time>
      </trkpt>
      <trkpt lat="42.91741" lon="7.34708">
        <ele>-0.3433837890625</ele>
        <time>2015-07-25T07:16:59Z</time>
      </trkpt>
      <trkpt lat="42.91711" lon="7.34745">
        <ele>-0.8240966796875</ele>
        <time>2015-07-25T07:17:14Z</time>
      </trkpt>
      <trkpt lat="42.91687" lon="7.34786">
        <ele>-0.8240966796875</ele>
        <time>2015-07-25T07:17:29Z</time>
      </trkpt>
      <trkpt lat="42.91654" lon="7.3482">
        <ele>-0.3433837890625</ele>
        <time>2015-07-25T07:17:43Z</time>
      </trkpt>
      <trkpt lat="42.91625" lon="7.34854">
        <ele>-1.3046875</ele>
        <time>2015-07-25T07:17:57Z</time>
      </trkpt>
      <trkpt lat="42.91595" lon="7.34885">
        <ele>-0.8240966796875</ele>
        <time>2015-07-25T07:18:12Z</time>
      </trkpt>
      <trkpt lat="42.91569" lon="7.34909">
        <ele>-1.3046875</ele>
        <time>2015-07-25T07:18:25Z</time>
      </trkpt>
      <trkpt lat="42.91541" lon="7.34943">
        <ele>-1.3046875</ele>
        <time>2015-07-25T07:18:39Z</time>
      </trkpt>
      <trkpt lat="42.91513" lon="7.34978">
        <ele>-0.8240966796875</ele>
        <time>2015-07-25T07:18:54Z</time>
      </trkpt>
      <trkpt lat="42.91466" lon="7.35039">
        <ele>-0.3433837890625</ele>
        <time>2015-07-25T07:19:21Z</time>
      </trkpt>
      <trkpt lat="42.91411" lon="7.35101">
        <ele>-0.8240966796875</ele>
        <time>2015-07-25T07:19:48Z</time>
      </trkpt>
      <trkpt lat="42.91386" lon="7.35133">
        <ele>-0.8240966796875</ele>
        <time>2015-07-25T07:20:02Z</time>
      </trkpt>
      <trkpt lat="42.91348" lon="7.35163">
        <ele>-0.8240966796875</ele>
        <time>2015-07-25T07:20:19Z</time>
      </trkpt>
      <trkpt lat="42.91318" lon="7.35195">
        <ele>-0.8240966796875</ele>
        <time>2015-07-25T07:20:34Z</time>
      </trkpt>
      <trkpt lat="42.91263" lon="7.35248">
        <ele>-0.3433837890625</ele>
        <time>2015-07-25T07:20:58Z</time>
      </trkpt>
      <trkpt lat="42.91236" lon="7.35282">
        <ele>-0.3433837890625</ele>
        <time>2015-07-25T07:21:11Z</time>
      </trkpt>
      <trkpt lat="42.91212" lon="7.3532">
        <ele>-0.8240966796875</ele>
        <time>2015-07-25T07:21:24Z</time>
      </trkpt>
      <trkpt lat="42.91181" lon="7.35353">
        <ele>-0.8240966796875</ele>
        <time>2015-07-25T07:21:39Z</time>
      </trkpt>
      <trkpt lat="42.91157" lon="7.35388">
        <ele>-0.8240966796875</ele>
        <time>2015-07-25T07:21:52Z</time>
      </trkpt>
      <trkpt lat="42.91128" lon="7.35418">
        <ele>-0.8240966796875</ele>
        <time>2015-07-25T07:22:05Z</time>
      </trkpt>
      <trkpt lat="42.911" lon="7.35455">
        <ele>-0.8240966796875</ele>
        <time>2015-07-25T07:22:20Z</time>
      </trkpt>
      <trkpt lat="42.91079" lon="7.35494">
        <ele>-0.3433837890625</ele>
        <time>2015-07-25T07:22:33Z</time>
      </trkpt>
      <trkpt lat="42.91037" lon="7.35554">
        <ele>-1.3046875</ele>
        <time>2015-07-25T07:22:59Z</time>
      </trkpt>
      <trkpt lat="42.90982" lon="7.35601">
        <ele>-0.8240966796875</ele>
        <time>2015-07-25T07:23:25Z</time>
      </trkpt>
      <trkpt lat="42.90952" lon="7.35634">
        <ele>-0.8240966796875</ele>
        <time>2015-07-25T07:23:38Z</time>
      </trkpt>
      <trkpt lat="42.90921" lon="7.35663">
        <ele>-0.8240966796875</ele>
        <time>2015-07-25T07:23:51Z</time>
      </trkpt>
      <trkpt lat="42.90888" lon="7.35693">
        <ele>-0.8240966796875</ele>
        <time>2015-07-25T07:24:06Z</time>
      </trkpt>
      <trkpt lat="42.90859" lon="7.35724">
        <ele>-0.8240966796875</ele>
        <time>2015-07-25T07:24:19Z</time>
      </trkpt>
      <trkpt lat="42.90817" lon="7.35786">
        <ele>-1.3046875</ele>
        <time>2015-07-25T07:24:41Z</time>
      </trkpt>
      <trkpt lat="42.90781" lon="7.35828">
        <ele>-0.8240966796875</ele>
        <time>2015-07-25T07:24:57Z</time>
      </trkpt>
      <trkpt lat="42.90755" lon="7.35857">
        <ele>-1.7852783203125</ele>
        <time>2015-07-25T07:25:09Z</time>
      </trkpt>
      <trkpt lat="42.90732" lon="7.35891">
        <ele>-2.2659912109375</ele>
        <time>2015-07-25T07:25:21Z</time>
      </trkpt>
      <trkpt lat="42.90708" lon="7.35933">
        <ele>-1.7852783203125</ele>
        <time>2015-07-25T07:25:37Z</time>
      </trkpt>
      <trkpt lat="42.90678" lon="7.35972">
        <ele>-1.3046875</ele>
        <time>2015-07-25T07:25:52Z</time>
      </trkpt>
      <trkpt lat="42.90652" lon="7.36011">
        <ele>-1.3046875</ele>
        <time>2015-07-25T07:26:05Z</time>
      </trkpt>
      <trkpt lat="42.90621" lon="7.36044">
        <ele>-1.7852783203125</ele>
        <time>2015-07-25T07:26:18Z</time>
      </trkpt>
      <trkpt lat="42.90592" lon="7.3608">
        <ele>-1.3046875</ele>
        <time>2015-07-25T07:26:32Z</time>
      </trkpt>
      <trkpt lat="42.90562" lon="7.36104">
        <ele>-0.8240966796875</ele>
        <time>2015-07-25T07:26:43Z</time>
      </trkpt>
      <trkpt lat="42.90512" lon="7.36156">
        <ele>-1.7852783203125</ele>
        <time>2015-07-25T07:27:05Z</time>
      </trkpt>
      <trkpt lat="42.90484" lon="7.36197">
        <ele>-2.2659912109375</ele>
        <time>2015-07-25T07:27:19Z</time>
      </trkpt>
      <trkpt lat="42.90431" lon="7.36245">
        <ele>-1.3046875</ele>
        <time>2015-07-25T07:27:44Z</time>
      </trkpt>
      <trkpt lat="42.90395" lon="7.36263">
        <ele>-0.8240966796875</ele>
        <time>2015-07-25T07:27:58Z</time>
      </trkpt>
      <trkpt lat="42.90361" lon="7.3629">
        <ele>-1.3046875</ele>
        <time>2015-07-25T07:28:11Z</time>
      </trkpt>
      <trkpt lat="42.90331" lon="7.36323">
        <ele>-1.3046875</ele>
        <time>2015-07-25T07:28:23Z</time>
      </trkpt>
      <trkpt lat="42.90296" lon="7.36354">
        <ele>-1.3046875</ele>
        <time>2015-07-25T07:28:38Z</time>
      </trkpt>
      <trkpt lat="42.90234" lon="7.36406">
        <ele>-1.7852783203125</ele>
        <time>2015-07-25T07:29:04Z</time>
      </trkpt>
      <trkpt lat="42.90202" lon="7.36452">
        <ele>-1.7852783203125</ele>
        <time>2015-07-25T07:29:21Z</time>
      </trkpt>
      <trkpt lat="42.90176" lon="7.36481">
        <ele>-1.7852783203125</ele>
        <time>2015-07-25T07:29:33Z</time>
      </trkpt>
      <trkpt lat="42.90152" lon="7.36511">
        <ele>-1.7852783203125</ele>
        <time>2015-07-25T07:29:44Z</time>
      </trkpt>
      <trkpt lat="42.90106" lon="7.36552">
        <ele>-1.3046875</ele>
        <time>2015-07-25T07:30:03Z</time>
      </trkpt>
      <trkpt lat="42.90076" lon="7.36576">
        <ele>-1.7852783203125</ele>
        <time>2015-07-25T07:30:15Z</time>
      </trkpt>
      <trkpt lat="42.90047" lon="7.36605">
        <ele>-1.7852783203125</ele>
        <time>2015-07-25T07:30:27Z</time>
      </trkpt>
      <trkpt lat="42.90023" lon="7.36639">
        <ele>-1.7852783203125</ele>
        <time>2015-07-25T07:30:39Z</time>
      </trkpt>
      <trkpt lat="42.89997" lon="7.36678">
        <ele>-1.7852783203125</ele>
        <time>2015-07-25T07:30:53Z</time>
      </trkpt>
      <trkpt lat="42.89959" lon="7.36714">
        <ele>-1.7852783203125</ele>
        <time>2015-07-25T07:31:09Z</time>
      </trkpt>
      <trkpt lat="42.89927" lon="7.36746">
        <ele>-1.3046875</ele>
        <time>2015-07-25T07:31:23Z</time>
      </trkpt>
      <trkpt lat="42.89898" lon="7.36771">
        <ele>-1.7852783203125</ele>
        <time>2015-07-25T07:31:34Z</time>
      </trkpt>
      <trkpt lat="42.89873" lon="7.36803">
        <ele>-2.2659912109375</ele>
        <time>2015-07-25T07:31:46Z</time>
      </trkpt>
      <trkpt lat="42.89851" lon="7.36837">
        <ele>-1.7852783203125</ele>
        <time>2015-07-25T07:31:58Z</time>
      </trkpt>
      <trkpt lat="42.89821" lon="7.3687">
        <ele>-1.7852783203125</ele>
        <time>2015-07-25T07:32:12Z</time>
      </trkpt>
      <trkpt lat="42.8979" lon="7.36904">
        <ele>-1.7852783203125</ele>
        <time>2015-07-25T07:32:25Z</time>
      </trkpt>
      <trkpt lat="42.89768" lon="7.3694">
        <ele>-2.2659912109375</ele>
        <time>2015-07-25T07:32:37Z</time>
      </trkpt>
      <trkpt lat="42.89742" lon="7.36971">
        <ele>-1.7852783203125</ele>
        <time>2015-07-25T07:32:49Z</time>
      </trkpt>
      <trkpt lat="42.89708" lon="7.37007">
        <ele>-1.3046875</ele>
        <time>2015-07-25T07:33:03Z</time>
      </trkpt>
      <trkpt lat="42.89661" lon="7.37071">
        <ele>-1.7852783203125</ele>
        <time>2015-07-25T07:33:26Z</time>
      </trkpt>
      <trkpt lat="42.89626" lon="7.37118">
        <ele>-2.2659912109375</ele>
        <time>2015-07-25T07:33:43Z</time>
      </trkpt>
      <trkpt lat="42.89574" lon="7.3718">
        <ele>-1.7852783203125</ele>
        <time>2015-07-25T07:34:07Z</time>
      </trkpt>
      <trkpt lat="42.8955" lon="7.37209">
        <ele>-1.7852783203125</ele>
        <time>2015-07-25T07:34:18Z</time>
      </trkpt>
      <trkpt lat="42.89524" lon="7.37241">
        <ele>-1.7852783203125</ele>
        <time>2015-07-25T07:34:31Z</time>
      </trkpt>
      <trkpt lat="42.89494" lon="7.37274">
        <ele>-1.7852783203125</ele>
        <time>2015-07-25T07:34:45Z</time>
      </trkpt>
      <trkpt lat="42.89461" lon="7.37303">
        <ele>-1.7852783203125</ele>
        <time>2015-07-25T07:34:59Z</time>
      </trkpt>
      <trkpt lat="42.89434" lon="7.37337">
        <ele>-1.7852783203125</ele>
        <time>2015-07-25T07:35:12Z</time>
      </trkpt>
      <trkpt lat="42.89406" lon="7.37368">
        <ele>-1.7852783203125</ele>
        <time>2015-07-25T07:35:26Z</time>
      </trkpt>
      <trkpt lat="42.89383" lon="7.37405">
        <ele>-2.2659912109375</ele>
        <time>2015-07-25T07:35:39Z</time>
      </trkpt>
      <trkpt lat="42.89354" lon="7.37439">
        <ele>-1.7852783203125</ele>
        <time>2015-07-25T07:35:53Z</time>
      </trkpt>
      <trkpt lat="42.89325" lon="7.37479">
        <ele>-1.7852783203125</ele>
        <time>2015-07-25T07:36:08Z</time>
      </trkpt>
      <trkpt lat="42.89292" lon="7.37509">
        <ele>-1.7852783203125</ele>
        <time>2015-07-25T07:36:21Z</time>
      </trkpt>
      <trkpt lat="42.89265" lon="7.37541">
        <ele>-1.7852783203125</ele>
        <time>2015-07-25T07:36:33Z</time>
      </trkpt>
      <trkpt lat="42.89238" lon="7.3758">
        <ele>-2.2659912109375</ele>
        <time>2015-07-25T07:36:47Z</time>
      </trkpt>
      <trkpt lat="42.89192" lon="7.37647">
        <ele>-1.7852783203125</ele>
        <time>2015-07-25T07:37:13Z</time>
      </trkpt>
      <trkpt lat="42.89161" lon="7.37696">
        <ele>-1.7852783203125</ele>
        <time>2015-07-25T07:37:29Z</time>
      </trkpt>
      <trkpt lat="42.89134" lon="7.37729">
        <ele>-1.7852783203125</ele>
        <time>2015-07-25T07:37:41Z</time>
      </trkpt>
      <trkpt lat="42.89105" lon="7.37769">
        <ele>-2.2659912109375</ele>
        <time>2015-07-25T07:37:56Z</time>
      </trkpt>
      <trkpt lat="42.8908" lon="7.37806">
        <ele>-2.7467041015625</ele>
        <time>2015-07-25T07:38:09Z</time>
      </trkpt>
      <trkpt lat="42.8905" lon="7.37845">
        <ele>-1.7852783203125</ele>
        <time>2015-07-25T07:38:23Z</time>
      </trkpt>
      <trkpt lat="42.89016" lon="7.3788">
        <ele>-2.2659912109375</ele>
        <time>2015-07-25T07:38:39Z</time>
      </trkpt>
      <trkpt lat="42.88988" lon="7.37918">
        <ele>-2.2659912109375</ele>
        <time>2015-07-25T07:38:52Z</time>
      </trkpt>
      <trkpt lat="42.88958" lon="7.37954">
        <ele>-2.2659912109375</ele>
        <time>2015-07-25T07:39:07Z</time>
      </trkpt>
      <trkpt lat="42.88933" lon="7.37982">
        <ele>-1.7852783203125</ele>
        <time>2015-07-25T07:39:19Z</time>
      </trkpt>
      <trkpt lat="42.88882" lon="7.38029">
        <ele>-1.7852783203125</ele>
        <time>2015-07-25T07:39:41Z</time>
      </trkpt>
      <trkpt lat="42.88852" lon="7.38064">
        <ele>-2.2659912109375</ele>
        <time>2015-07-25T07:39:56Z</time>
      </trkpt>
      <trkpt lat="42.88824" lon="7.38095">
        <ele>-2.2659912109375</ele>
        <time>2015-07-25T07:40:09Z</time>
      </trkpt>
      <trkpt lat="42.88795" lon="7.38135">
        <ele>-2.7467041015625</ele>
        <time>2015-07-25T07:40:24Z</time>
      </trkpt>
      <trkpt lat="42.88767" lon="7.38169">
        <ele>-2.2659912109375</ele>
        <time>2015-07-25T07:40:38Z</time>
      </trkpt>
      <trkpt lat="42.88711" lon="7.38235">
        <ele>-2.2659912109375</ele>
        <time>2015-07-25T07:41:05Z</time>
      </trkpt>
      <trkpt lat="42.88685" lon="7.3827">
        <ele>-2.2659912109375</ele>
        <time>2015-07-25T07:41:19Z</time>
      </trkpt>
      <trkpt lat="42.88657" lon="7.38301">
        <ele>-2.2659912109375</ele>
        <time>2015-07-25T07:41:32Z</time>
      </trkpt>
      <trkpt lat="42.88618" lon="7.38331">
        <ele>-2.2659912109375</ele>
        <time>2015-07-25T07:41:47Z</time>
      </trkpt>
      <trkpt lat="42.88586" lon="7.38356">
        <ele>-1.7852783203125</ele>
        <time>2015-07-25T07:42:00Z</time>
      </trkpt>
      <trkpt lat="42.88551" lon="7.3839">
        <ele>-2.2659912109375</ele>
        <time>2015-07-25T07:42:15Z</time>
      </trkpt>
      <trkpt lat="42.88521" lon="7.38435">
        <ele>-2.7467041015625</ele>
        <time>2015-07-25T07:42:31Z</time>
      </trkpt>
      <trkpt lat="42.88491" lon="7.38469">
        <ele>-2.2659912109375</ele>
        <time>2015-07-25T07:42:44Z</time>
      </trkpt>
      <trkpt lat="42.88464" lon="7.3851">
        <ele>-2.7467041015625</ele>
        <time>2015-07-25T07:42:59Z</time>
      </trkpt>
      <trkpt lat="42.88441" lon="7.38547">
        <ele>-2.2659912109375</ele>
        <time>2015-07-25T07:43:12Z</time>
      </trkpt>
      <trkpt lat="42.88414" lon="7.38582">
        <ele>-2.7467041015625</ele>
        <time>2015-07-25T07:43:25Z</time>
      </trkpt>
      <trkpt lat="42.8838" lon="7.38603">
        <ele>-1.7852783203125</ele>
        <time>2015-07-25T07:43:38Z</time>
      </trkpt>
      <trkpt lat="42.88346" lon="7.38626">
        <ele>-2.2659912109375</ele>
        <time>2015-07-25T07:43:52Z</time>
      </trkpt>
      <trkpt lat="42.88316" lon="7.3867">
        <ele>-2.2659912109375</ele>
        <time>2015-07-25T07:44:06Z</time>
      </trkpt>
      <trkpt lat="42.8829" lon="7.38707">
        <ele>-2.2659912109375</ele>
        <time>2015-07-25T07:44:18Z</time>
      </trkpt>
      <trkpt lat="42.88255" lon="7.38751">
        <ele>-2.2659912109375</ele>
        <time>2015-07-25T07:44:34Z</time>
      </trkpt>
      <trkpt lat="42.88203" lon="7.38801">
        <ele>-1.7852783203125</ele>
        <time>2015-07-25T07:44:58Z</time>
      </trkpt>
      <trkpt lat="42.88174" lon="7.38822">
        <ele>-2.7467041015625</ele>
        <time>2015-07-25T07:45:11Z</time>
      </trkpt>
      <trkpt lat="42.88144" lon="7.38849">
        <ele>-2.7467041015625</ele>
        <time>2015-07-25T07:45:24Z</time>
      </trkpt>
      <trkpt lat="42.88112" lon="7.38874">
        <ele>-2.2659912109375</ele>
        <time>2015-07-25T07:45:37Z</time>
      </trkpt>
      <trkpt lat="42.88075" lon="7.38906">
        <ele>-2.2659912109375</ele>
        <time>2015-07-25T07:45:52Z</time>
      </trkpt>
      <trkpt lat="42.88046" lon="7.3895">
        <ele>-2.7467041015625</ele>
        <time>2015-07-25T07:46:06Z</time>
      </trkpt>
      <trkpt lat="42.88014" lon="7.38989">
        <ele>-2.2659912109375</ele>
        <time>2015-07-25T07:46:21Z</time>
      </trkpt>
      <trkpt lat="42.87982" lon="7.39019">
        <ele>-2.7467041015625</ele>
        <time>2015-07-25T07:46:36Z</time>
      </trkpt>
      <trkpt lat="42.87958" lon="7.39055">
        <ele>-2.7467041015625</ele>
        <time>2015-07-25T07:46:49Z</time>
      </trkpt>
      <trkpt lat="42.8793" lon="7.39087">
        <ele>-2.2659912109375</ele>
        <time>2015-07-25T07:47:03Z</time>
      </trkpt>
      <trkpt lat="42.87898" lon="7.39119">
        <ele>-1.7852783203125</ele>
        <time>2015-07-25T07:47:18Z</time>
      </trkpt>
      <trkpt lat="42.87867" lon="7.39156">
        <ele>-2.2659912109375</ele>
        <time>2015-07-25T07:47:32Z</time>
      </trkpt>
      <trkpt lat="42.87836" lon="7.39193">
        <ele>-2.2659912109375</ele>
        <time>2015-07-25T07:47:46Z</time>
      </trkpt>
      <trkpt lat="42.87776" lon="7.39247">
        <ele>-2.2659912109375</ele>
        <time>2015-07-25T07:48:11Z</time>
      </trkpt>
      <trkpt lat="42.87745" lon="7.39277">
        <ele>-2.2659912109375</ele>
        <time>2015-07-25T07:48:25Z</time>
      </trkpt>
      <trkpt lat="42.87717" lon="7.3931">
        <ele>-2.7467041015625</ele>
        <time>2015-07-25T07:48:38Z</time>
      </trkpt>
      <trkpt lat="42.87694" lon="7.39344">
        <ele>-2.2659912109375</ele>
        <time>2015-07-25T07:48:52Z</time>
      </trkpt>
      <trkpt lat="42.87666" lon="7.39373">
        <ele>-2.2659912109375</ele>
        <time>2015-07-25T07:49:05Z</time>
      </trkpt>
      <trkpt lat="42.87635" lon="7.39404">
        <ele>-2.2659912109375</ele>
        <time>2015-07-25T07:49:19Z</time>
      </trkpt>
      <trkpt lat="42.87608" lon="7.39443">
        <ele>-2.2659912109375</ele>
        <time>2015-07-25T07:49:34Z</time>
      </trkpt>
      <trkpt lat="42.87554" lon="7.39508">
        <ele>-2.7467041015625</ele>
        <time>2015-07-25T07:50:01Z</time>
      </trkpt>
      <trkpt lat="42.87527" lon="7.39536">
        <ele>-2.2659912109375</ele>
        <time>2015-07-25T07:50:14Z</time>
      </trkpt>
      <trkpt lat="42.87502" lon="7.39563">
        <ele>-1.7852783203125</ele>
        <time>2015-07-25T07:50:26Z</time>
      </trkpt>
      <trkpt lat="42.87451" lon="7.3963">
        <ele>-2.2659912109375</ele>
        <time>2015-07-25T07:50:52Z</time>
      </trkpt>
      <trkpt lat="42.87419" lon="7.39669">
        <ele>-2.7467041015625</ele>
        <time>2015-07-25T07:51:08Z</time>
      </trkpt>
      <trkpt lat="42.87395" lon="7.397">
        <ele>-2.2659912109375</ele>
        <time>2015-07-25T07:51:21Z</time>
      </trkpt>
      <trkpt lat="42.87369" lon="7.39738">
        <ele>-2.2659912109375</ele>
        <time>2015-07-25T07:51:35Z</time>
      </trkpt>
      <trkpt lat="42.87328" lon="7.398">
        <ele>-2.2659912109375</ele>
        <time>2015-07-25T07:51:59Z</time>
      </trkpt>
      <trkpt lat="42.87306" lon="7.3984">
        <ele>-2.2659912109375</ele>
        <time>2015-07-25T07:52:13Z</time>
      </trkpt>
      <trkpt lat="42.87272" lon="7.39885">
        <ele>-2.7467041015625</ele>
        <time>2015-07-25T07:52:30Z</time>
      </trkpt>
      <trkpt lat="42.87245" lon="7.39911">
        <ele>-2.2659912109375</ele>
        <time>2015-07-25T07:52:42Z</time>
      </trkpt>
      <trkpt lat="42.87196" lon="7.39953">
        <ele>-2.2659912109375</ele>
        <time>2015-07-25T07:53:04Z</time>
      </trkpt>
      <trkpt lat="42.87151" lon="7.40007">
        <ele>-2.2659912109375</ele>
        <time>2015-07-25T07:53:28Z</time>
      </trkpt>
      <trkpt lat="42.87127" lon="7.40042">
        <ele>-2.2659912109375</ele>
        <time>2015-07-25T07:53:41Z</time>
      </trkpt>
      <trkpt lat="42.87102" lon="7.40071">
        <ele>-2.7467041015625</ele>
        <time>2015-07-25T07:53:54Z</time>
      </trkpt>
      <trkpt lat="42.87062" lon="7.40112">
        <ele>-2.7467041015625</ele>
        <time>2015-07-25T07:54:11Z</time>
      </trkpt>
      <trkpt lat="42.87035" lon="7.40159">
        <ele>-2.7467041015625</ele>
        <time>2015-07-25T07:54:28Z</time>
      </trkpt>
      <trkpt lat="42.86994" lon="7.40214">
        <ele>-3.227294921875</ele>
        <time>2015-07-25T07:54:52Z</time>
      </trkpt>
      <trkpt lat="42.86965" lon="7.40249">
        <ele>-2.2659912109375</ele>
        <time>2015-07-25T07:55:07Z</time>
      </trkpt>
      <trkpt lat="42.86922" lon="7.40306">
        <ele>-2.7467041015625</ele>
        <time>2015-07-25T07:55:29Z</time>
      </trkpt>
      <trkpt lat="42.86896" lon="7.40336">
        <ele>-2.7467041015625</ele>
        <time>2015-07-25T07:55:42Z</time>
      </trkpt>
      <trkpt lat="42.86862" lon="7.40371">
        <ele>-2.7467041015625</ele>
        <time>2015-07-25T07:55:58Z</time>
      </trkpt>
      <trkpt lat="42.86831" lon="7.40404">
        <ele>-2.7467041015625</ele>
        <time>2015-07-25T07:56:12Z</time>
      </trkpt>
      <trkpt lat="42.86803" lon="7.40437">
        <ele>-3.227294921875</ele>
        <time>2015-07-25T07:56:24Z</time>
      </trkpt>
      <trkpt lat="42.8678" lon="7.40472">
        <ele>-3.227294921875</ele>
        <time>2015-07-25T07:56:36Z</time>
      </trkpt>
      <trkpt lat="42.86747" lon="7.40513">
        <ele>-3.227294921875</ele>
        <time>2015-07-25T07:56:52Z</time>
      </trkpt>
      <trkpt lat="42.86723" lon="7.4055">
        <ele>-3.227294921875</ele>
        <time>2015-07-25T07:57:04Z</time>
      </trkpt>
      <trkpt lat="42.86667" lon="7.40622">
        <ele>-3.227294921875</ele>
        <time>2015-07-25T07:57:33Z</time>
      </trkpt>
      <trkpt lat="42.86643" lon="7.40653">
        <ele>-3.227294921875</ele>
        <time>2015-07-25T07:57:46Z</time>
      </trkpt>
      <trkpt lat="42.86607" lon="7.40695">
        <ele>-3.227294921875</ele>
        <time>2015-07-25T07:58:05Z</time>
      </trkpt>
      <trkpt lat="42.86581" lon="7.40735">
        <ele>-3.227294921875</ele>
        <time>2015-07-25T07:58:19Z</time>
      </trkpt>
      <trkpt lat="42.86551" lon="7.40771">
        <ele>-3.227294921875</ele>
        <time>2015-07-25T07:58:33Z</time>
      </trkpt>
      <trkpt lat="42.8653" lon="7.40804">
        <ele>-2.7467041015625</ele>
        <time>2015-07-25T07:58:45Z</time>
      </trkpt>
      <trkpt lat="42.86495" lon="7.40847">
        <ele>-2.7467041015625</ele>
        <time>2015-07-25T07:59:01Z</time>
      </trkpt>
      <trkpt lat="42.86465" lon="7.40886">
        <ele>-3.227294921875</ele>
        <time>2015-07-25T07:59:14Z</time>
      </trkpt>
      <trkpt lat="42.86433" lon="7.40912">
        <ele>-3.227294921875</ele>
        <time>2015-07-25T07:59:28Z</time>
      </trkpt>
      <trkpt lat="42.86402" lon="7.40941">
        <ele>-3.227294921875</ele>
        <time>2015-07-25T07:59:41Z</time>
      </trkpt>
      <trkpt lat="42.8637" lon="7.40981">
        <ele>-3.227294921875</ele>
        <time>2015-07-25T07:59:55Z</time>
      </trkpt>
      <trkpt lat="42.86342" lon="7.41014">
        <ele>-3.7078857421875</ele>
        <time>2015-07-25T08:00:08Z</time>
      </trkpt>
      <trkpt lat="42.86316" lon="7.41047">
        <ele>-3.7078857421875</ele>
        <time>2015-07-25T08:00:20Z</time>
      </trkpt>
      <trkpt lat="42.86285" lon="7.41091">
        <ele>-2.7467041015625</ele>
        <time>2015-07-25T08:00:37Z</time>
      </trkpt>
      <trkpt lat="42.86236" lon="7.41145">
        <ele>-3.227294921875</ele>
        <time>2015-07-25T08:01:01Z</time>
      </trkpt>
      <trkpt lat="42.86206" lon="7.4118">
        <ele>-3.227294921875</ele>
        <time>2015-07-25T08:01:16Z</time>
      </trkpt>
      <trkpt lat="42.86182" lon="7.41216">
        <ele>-3.227294921875</ele>
        <time>2015-07-25T08:01:29Z</time>
      </trkpt>
      <trkpt lat="42.86152" lon="7.4125">
        <ele>-3.227294921875</ele>
        <time>2015-07-25T08:01:44Z</time>
      </trkpt>
      <trkpt lat="42.86127" lon="7.41276">
        <ele>-3.227294921875</ele>
        <time>2015-07-25T08:01:56Z</time>
      </trkpt>
      <trkpt lat="42.86092" lon="7.41311">
        <ele>-3.227294921875</ele>
        <time>2015-07-25T08:02:11Z</time>
      </trkpt>
      <trkpt lat="42.86064" lon="7.41347">
        <ele>-3.227294921875</ele>
        <time>2015-07-25T08:02:25Z</time>
      </trkpt>
      <trkpt lat="42.86035" lon="7.41395">
        <ele>-2.7467041015625</ele>
        <time>2015-07-25T08:02:40Z</time>
      </trkpt>
      <trkpt lat="42.86009" lon="7.4142">
        <ele>-2.7467041015625</ele>
        <time>2015-07-25T08:02:54Z</time>
      </trkpt>
      <trkpt lat="42.85974" lon="7.41468">
        <ele>-3.227294921875</ele>
        <time>2015-07-25T08:03:12Z</time>
      </trkpt>
      <trkpt lat="42.85952" lon="7.41501">
        <ele>-2.7467041015625</ele>
        <time>2015-07-25T08:03:27Z</time>
      </trkpt>
      <trkpt lat="42.85912" lon="7.41547">
        <ele>-3.227294921875</ele>
        <time>2015-07-25T08:03:49Z</time>
      </trkpt>
      <trkpt lat="42.85889" lon="7.41589">
        <ele>-2.7467041015625</ele>
        <time>2015-07-25T08:04:04Z</time>
      </trkpt>
      <trkpt lat="42.85862" lon="7.41616">
        <ele>-2.7467041015625</ele>
        <time>2015-07-25T08:04:17Z</time>
      </trkpt>
      <trkpt lat="42.85836" lon="7.41644">
        <ele>-2.7467041015625</ele>
        <time>2015-07-25T08:04:29Z</time>
      </trkpt>
      <trkpt lat="42.8581" lon="7.41678">
        <ele>-3.227294921875</ele>
        <time>2015-07-25T08:04:41Z</time>
      </trkpt>
      <trkpt lat="42.85784" lon="7.4171">
        <ele>-2.7467041015625</ele>
        <time>2015-07-25T08:04:54Z</time>
      </trkpt>
      <trkpt lat="42.85761" lon="7.41748">
        <ele>-3.227294921875</ele>
        <time>2015-07-25T08:05:06Z</time>
      </trkpt>
      <trkpt lat="42.85732" lon="7.41786">
        <ele>-3.227294921875</ele>
        <time>2015-07-25T08:05:21Z</time>
      </trkpt>
      <trkpt lat="42.85707" lon="7.41823">
        <ele>-3.227294921875</ele>
        <time>2015-07-25T08:05:34Z</time>
      </trkpt>
      <trkpt lat="42.85676" lon="7.41863">
        <ele>-2.7467041015625</ele>
        <time>2015-07-25T08:05:50Z</time>
      </trkpt>
      <trkpt lat="42.8563" lon="7.41914">
        <ele>-3.227294921875</ele>
        <time>2015-07-25T08:06:15Z</time>
      </trkpt>
      <trkpt lat="42.85607" lon="7.41943">
        <ele>-3.227294921875</ele>
        <time>2015-07-25T08:06:27Z</time>
      </trkpt>
      <trkpt lat="42.85583" lon="7.41973">
        <ele>-3.227294921875</ele>
        <time>2015-07-25T08:06:41Z</time>
      </trkpt>
      <trkpt lat="42.85549" lon="7.42009">
        <ele>-2.7467041015625</ele>
        <time>2015-07-25T08:06:57Z</time>
      </trkpt>
      <trkpt lat="42.85519" lon="7.42044">
        <ele>-3.227294921875</ele>
        <time>2015-07-25T08:07:11Z</time>
      </trkpt>
      <trkpt lat="42.85494" lon="7.4208">
        <ele>-3.227294921875</ele>
        <time>2015-07-25T08:07:23Z</time>
      </trkpt>
      <trkpt lat="42.8544" lon="7.42135">
        <ele>-2.7467041015625</ele>
        <time>2015-07-25T08:07:48Z</time>
      </trkpt>
      <trkpt lat="42.85415" lon="7.42173">
        <ele>-3.227294921875</ele>
        <time>2015-07-25T08:08:01Z</time>
      </trkpt>
      <trkpt lat="42.85389" lon="7.42208">
        <ele>-3.227294921875</ele>
        <time>2015-07-25T08:08:14Z</time>
      </trkpt>
      <trkpt lat="42.85355" lon="7.42267">
        <ele>-2.7467041015625</ele>
        <time>2015-07-25T08:08:38Z</time>
      </trkpt>
      <trkpt lat="42.85313" lon="7.42321">
        <ele>-3.227294921875</ele>
        <time>2015-07-25T08:09:01Z</time>
      </trkpt>
      <trkpt lat="42.85285" lon="7.42361">
        <ele>-3.227294921875</ele>
        <time>2015-07-25T08:09:13Z</time>
      </trkpt>
      <trkpt lat="42.85249" lon="7.42399">
        <ele>-3.227294921875</ele>
        <time>2015-07-25T08:09:28Z</time>
      </trkpt>
      <trkpt lat="42.85207" lon="7.42454">
        <ele>-3.227294921875</ele>
        <time>2015-07-25T08:09:52Z</time>
      </trkpt>
      <trkpt lat="42.85154" lon="7.42517">
        <ele>-3.227294921875</ele>
        <time>2015-07-25T08:10:18Z</time>
      </trkpt>
      <trkpt lat="42.8513" lon="7.42552">
        <ele>-2.7467041015625</ele>
        <time>2015-07-25T08:10:32Z</time>
      </trkpt>
      <trkpt lat="42.85107" lon="7.42584">
        <ele>-3.227294921875</ele>
        <time>2015-07-25T08:10:44Z</time>
      </trkpt>
      <trkpt lat="42.85084" lon="7.42614">
        <ele>-3.227294921875</ele>
        <time>2015-07-25T08:10:56Z</time>
      </trkpt>
      <trkpt lat="42.8506" lon="7.42644">
        <ele>-3.7078857421875</ele>
        <time>2015-07-25T08:11:09Z</time>
      </trkpt>
      <trkpt lat="42.85004" lon="7.42705">
        <ele>-3.7078857421875</ele>
        <time>2015-07-25T08:11:34Z</time>
      </trkpt>
      <trkpt lat="42.84967" lon="7.42754">
        <ele>-3.227294921875</ele>
        <time>2015-07-25T08:11:55Z</time>
      </trkpt>
      <trkpt lat="42.8494" lon="7.42793">
        <ele>-3.7078857421875</ele>
        <time>2015-07-25T08:12:09Z</time>
      </trkpt>
      <trkpt lat="42.8492" lon="7.42829">
        <ele>-3.7078857421875</ele>
        <time>2015-07-25T08:12:21Z</time>
      </trkpt>
      <trkpt lat="42.84889" lon="7.42861">
        <ele>-3.227294921875</ele>
        <time>2015-07-25T08:12:37Z</time>
      </trkpt>
      <trkpt lat="42.8486" lon="7.42893">
        <ele>-3.7078857421875</ele>
        <time>2015-07-25T08:12:52Z</time>
      </trkpt>
      <trkpt lat="42.84836" lon="7.42926">
        <ele>-3.7078857421875</ele>
        <time>2015-07-25T08:13:05Z</time>
      </trkpt>
      <trkpt lat="42.848" lon="7.42963">
        <ele>-3.7078857421875</ele>
        <time>2015-07-25T08:13:23Z</time>
      </trkpt>
      <trkpt lat="42.84772" lon="7.42993">
        <ele>-3.7078857421875</ele>
        <time>2015-07-25T08:13:36Z</time>
      </trkpt>
      <trkpt lat="42.84727" lon="7.43043">
        <ele>-3.7078857421875</ele>
        <time>2015-07-25T08:13:58Z</time>
      </trkpt>
      <trkpt lat="42.84694" lon="7.43077">
        <ele>-4.6693115234375</ele>
        <time>2015-07-25T08:14:14Z</time>
      </trkpt>
      <trkpt lat="42.84647" lon="7.43132">
        <ele>-4.1885986328125</ele>
        <time>2015-07-25T08:14:40Z</time>
      </trkpt>
      <trkpt lat="42.84592" lon="7.43175">
        <ele>-4.1885986328125</ele>
        <time>2015-07-25T08:15:07Z</time>
      </trkpt>
      <trkpt lat="42.84565" lon="7.43199">
        <ele>-3.7078857421875</ele>
        <time>2015-07-25T08:15:17Z</time>
      </trkpt>
      <trkpt lat="42.84534" lon="7.43229">
        <ele>-3.7078857421875</ele>
        <time>2015-07-25T08:15:29Z</time>
      </trkpt>
      <trkpt lat="42.84501" lon="7.43258">
        <ele>-4.1885986328125</ele>
        <time>2015-07-25T08:15:43Z</time>
      </trkpt>
      <trkpt lat="42.84473" lon="7.43283">
        <ele>-4.1885986328125</ele>
        <time>2015-07-25T08:15:56Z</time>
      </trkpt>
      <trkpt lat="42.84446" lon="7.43323">
        <ele>-5.14990234375</ele>
        <time>2015-07-25T08:16:11Z</time>
      </trkpt>
      <trkpt lat="42.84425" lon="7.43358">
        <ele>-4.6693115234375</ele>
        <time>2015-07-25T08:16:24Z</time>
      </trkpt>
      <trkpt lat="42.84402" lon="7.4339">
        <ele>-4.1885986328125</ele>
        <time>2015-07-25T08:16:36Z</time>
      </trkpt>
      <trkpt lat="42.84372" lon="7.43429">
        <ele>-4.1885986328125</ele>
        <time>2015-07-25T08:16:50Z</time>
      </trkpt>
      <trkpt lat="42.84329" lon="7.4348">
        <ele>-4.1885986328125</ele>
        <time>2015-07-25T08:17:08Z</time>
      </trkpt>
      <trkpt lat="42.84298" lon="7.43512">
        <ele>-4.1885986328125</ele>
        <time>2015-07-25T08:17:20Z</time>
      </trkpt>
      <trkpt lat="42.84254" lon="7.43557">
        <ele>-4.6693115234375</ele>
        <time>2015-07-25T08:17:43Z</time>
      </trkpt>
      <trkpt lat="42.84228" lon="7.4359">
        <ele>-4.6693115234375</ele>
        <time>2015-07-25T08:17:56Z</time>
      </trkpt>
      <trkpt lat="42.84204" lon="7.43629">
        <ele>-5.14990234375</ele>
        <time>2015-07-25T08:18:11Z</time>
      </trkpt>
      <trkpt lat="42.84151" lon="7.43688">
        <ele>-4.1885986328125</ele>
        <time>2015-07-25T08:18:38Z</time>
      </trkpt>
      <trkpt lat="42.84125" lon="7.43724">
        <ele>-4.6693115234375</ele>
        <time>2015-07-25T08:18:52Z</time>
      </trkpt>
      <trkpt lat="42.84093" lon="7.43774">
        <ele>-4.6693115234375</ele>
        <time>2015-07-25T08:19:10Z</time>
      </trkpt>
      <trkpt lat="42.84046" lon="7.43831">
        <ele>-4.6693115234375</ele>
        <time>2015-07-25T08:19:32Z</time>
      </trkpt>
      <trkpt lat="42.84008" lon="7.43876">
        <ele>-5.14990234375</ele>
        <time>2015-07-25T08:19:49Z</time>
      </trkpt>
      <trkpt lat="42.83966" lon="7.4394">
        <ele>-4.6693115234375</ele>
        <time>2015-07-25T08:20:14Z</time>
      </trkpt>
      <trkpt lat="42.83941" lon="7.43968">
        <ele>-4.6693115234375</ele>
        <time>2015-07-25T08:20:26Z</time>
      </trkpt>
      <trkpt lat="42.8391" lon="7.44001">
        <ele>-4.6693115234375</ele>
        <time>2015-07-25T08:20:39Z</time>
      </trkpt>
      <trkpt lat="42.83856" lon="7.44054">
        <ele>-4.6693115234375</ele>
        <time>2015-07-25T08:21:03Z</time>
      </trkpt>
      <trkpt lat="42.83831" lon="7.44083">
        <ele>-5.14990234375</ele>
        <time>2015-07-25T08:21:15Z</time>
      </trkpt>
      <trkpt lat="42.83777" lon="7.44141">
        <ele>-5.14990234375</ele>
        <time>2015-07-25T08:21:38Z</time>
      </trkpt>
      <trkpt lat="42.83751" lon="7.44174">
        <ele>-4.6693115234375</ele>
        <time>2015-07-25T08:21:51Z</time>
      </trkpt>
      <trkpt lat="42.83728" lon="7.44205">
        <ele>-4.6693115234375</ele>
        <time>2015-07-25T08:22:03Z</time>
      </trkpt>
      <trkpt lat="42.83698" lon="7.44245">
        <ele>-5.14990234375</ele>
        <time>2015-07-25T08:22:17Z</time>
      </trkpt>
      <trkpt lat="42.83674" lon="7.44283">
        <ele>-5.6304931640625</ele>
        <time>2015-07-25T08:22:30Z</time>
      </trkpt>
      <trkpt lat="42.83649" lon="7.44319">
        <ele>-5.14990234375</ele>
        <time>2015-07-25T08:22:44Z</time>
      </trkpt>
      <trkpt lat="42.83612" lon="7.44365">
        <ele>-4.6693115234375</ele>
        <time>2015-07-25T08:23:02Z</time>
      </trkpt>
      <trkpt lat="42.83575" lon="7.44398">
        <ele>-4.6693115234375</ele>
        <time>2015-07-25T08:23:20Z</time>
      </trkpt>
      <trkpt lat="42.83529" lon="7.44436">
        <ele>-5.6304931640625</ele>
        <time>2015-07-25T08:23:41Z</time>
      </trkpt>
      <trkpt lat="42.8348" lon="7.44507">
        <ele>-4.6693115234375</ele>
        <time>2015-07-25T08:24:09Z</time>
      </trkpt>
      <trkpt lat="42.83444" lon="7.4454">
        <ele>-4.6693115234375</ele>
        <time>2015-07-25T08:24:26Z</time>
      </trkpt>
      <trkpt lat="42.83413" lon="7.44575">
        <ele>-5.14990234375</ele>
        <time>2015-07-25T08:24:41Z</time>
      </trkpt>
      <trkpt lat="42.83372" lon="7.44632">
        <ele>-5.14990234375</ele>
        <time>2015-07-25T08:25:05Z</time>
      </trkpt>
      <trkpt lat="42.83342" lon="7.44677">
        <ele>-4.6693115234375</ele>
        <time>2015-07-25T08:25:18Z</time>
      </trkpt>
      <trkpt lat="42.83312" lon="7.4474">
        <ele>-5.14990234375</ele>
        <time>2015-07-25T08:25:39Z</time>
      </trkpt>
      <trkpt lat="42.83266" lon="7.44784">
        <ele>-4.6693115234375</ele>
        <time>2015-07-25T08:26:03Z</time>
      </trkpt>
      <trkpt lat="42.83236" lon="7.4481">
        <ele>-5.14990234375</ele>
        <time>2015-07-25T08:26:16Z</time>
      </trkpt>
      <trkpt lat="42.8321" lon="7.44841">
        <ele>-5.14990234375</ele>
        <time>2015-07-25T08:26:28Z</time>
      </trkpt>
      <trkpt lat="42.83173" lon="7.44884">
        <ele>-5.14990234375</ele>
        <time>2015-07-25T08:26:42Z</time>
      </trkpt>
      <trkpt lat="42.83132" lon="7.44944">
        <ele>-5.14990234375</ele>
        <time>2015-07-25T08:27:04Z</time>
      </trkpt>
      <trkpt lat="42.83106" lon="7.44982">
        <ele>-5.14990234375</ele>
        <time>2015-07-25T08:27:19Z</time>
      </trkpt>
      <trkpt lat="42.83084" lon="7.45014">
        <ele>-5.14990234375</ele>
        <time>2015-07-25T08:27:32Z</time>
      </trkpt>
      <trkpt lat="42.83043" lon="7.4507">
        <ele>-5.6304931640625</ele>
        <time>2015-07-25T08:27:53Z</time>
      </trkpt>
      <trkpt lat="42.83017" lon="7.45115">
        <ele>-5.6304931640625</ele>
        <time>2015-07-25T08:28:09Z</time>
      </trkpt>
      <trkpt lat="42.82986" lon="7.45157">
        <ele>-5.14990234375</ele>
        <time>2015-07-25T08:28:25Z</time>
      </trkpt>
      <trkpt lat="42.82936" lon="7.45216">
        <ele>-5.14990234375</ele>
        <time>2015-07-25T08:28:51Z</time>
      </trkpt>
      <trkpt lat="42.82903" lon="7.4525">
        <ele>-5.14990234375</ele>
        <time>2015-07-25T08:29:08Z</time>
      </trkpt>
      <trkpt lat="42.82878" lon="7.45283">
        <ele>-5.6304931640625</ele>
        <time>2015-07-25T08:29:21Z</time>
      </trkpt>
      <trkpt lat="42.82849" lon="7.45311">
        <ele>-5.6304931640625</ele>
        <time>2015-07-25T08:29:34Z</time>
      </trkpt>
      <trkpt lat="42.82826" lon="7.45345">
        <ele>-5.6304931640625</ele>
        <time>2015-07-25T08:29:46Z</time>
      </trkpt>
      <trkpt lat="42.82793" lon="7.45382">
        <ele>-5.6304931640625</ele>
        <time>2015-07-25T08:30:03Z</time>
      </trkpt>
      <trkpt lat="42.82772" lon="7.45416">
        <ele>-5.14990234375</ele>
        <time>2015-07-25T08:30:16Z</time>
      </trkpt>
      <trkpt lat="42.82746" lon="7.45443">
        <ele>-5.14990234375</ele>
        <time>2015-07-25T08:30:28Z</time>
      </trkpt>
      <trkpt lat="42.82712" lon="7.45473">
        <ele>-5.14990234375</ele>
        <time>2015-07-25T08:30:43Z</time>
      </trkpt>
      <trkpt lat="42.82683" lon="7.455">
        <ele>-5.14990234375</ele>
        <time>2015-07-25T08:30:55Z</time>
      </trkpt>
      <trkpt lat="42.82647" lon="7.45534">
        <ele>-5.14990234375</ele>
        <time>2015-07-25T08:31:11Z</time>
      </trkpt>
      <trkpt lat="42.82612" lon="7.45568">
        <ele>-5.14990234375</ele>
        <time>2015-07-25T08:31:27Z</time>
      </trkpt>
      <trkpt lat="42.82572" lon="7.45612">
        <ele>-5.6304931640625</ele>
        <time>2015-07-25T08:31:47Z</time>
      </trkpt>
      <trkpt lat="42.82546" lon="7.45647">
        <ele>-4.6693115234375</ele>
        <time>2015-07-25T08:31:59Z</time>
      </trkpt>
      <trkpt lat="42.82517" lon="7.45671">
        <ele>-4.6693115234375</ele>
        <time>2015-07-25T08:32:11Z</time>
      </trkpt>
      <trkpt lat="42.82492" lon="7.45706">
        <ele>-6.1112060546875</ele>
        <time>2015-07-25T08:32:25Z</time>
      </trkpt>
      <trkpt lat="42.82446" lon="7.45756">
        <ele>-5.14990234375</ele>
        <time>2015-07-25T08:32:48Z</time>
      </trkpt>
      <trkpt lat="42.82417" lon="7.45786">
        <ele>-6.1112060546875</ele>
        <time>2015-07-25T08:33:00Z</time>
      </trkpt>
      <trkpt lat="42.82372" lon="7.45834">
        <ele>-5.6304931640625</ele>
        <time>2015-07-25T08:33:22Z</time>
      </trkpt>
      <trkpt lat="42.82323" lon="7.45901">
        <ele>-5.14990234375</ele>
        <time>2015-07-25T08:33:49Z</time>
      </trkpt>
      <trkpt lat="42.82282" lon="7.4595">
        <ele>-6.1112060546875</ele>
        <time>2015-07-25T08:34:11Z</time>
      </trkpt>
      <trkpt lat="42.82225" lon="7.46004">
        <ele>-5.6304931640625</ele>
        <time>2015-07-25T08:34:39Z</time>
      </trkpt>
      <trkpt lat="42.82199" lon="7.4603">
        <ele>-5.14990234375</ele>
        <time>2015-07-25T08:34:52Z</time>
      </trkpt>
      <trkpt lat="42.82154" lon="7.46091">
        <ele>-5.14990234375</ele>
        <time>2015-07-25T08:35:17Z</time>
      </trkpt>
      <trkpt lat="42.82127" lon="7.4613">
        <ele>-5.6304931640625</ele>
        <time>2015-07-25T08:35:30Z</time>
      </trkpt>
      <trkpt lat="42.82088" lon="7.46177">
        <ele>-5.14990234375</ele>
        <time>2015-07-25T08:35:50Z</time>
      </trkpt>
      <trkpt lat="42.82054" lon="7.46203">
        <ele>-5.6304931640625</ele>
        <time>2015-07-25T08:36:03Z</time>
      </trkpt>
      <trkpt lat="42.81995" lon="7.46259">
        <ele>-5.6304931640625</ele>
        <time>2015-07-25T08:36:29Z</time>
      </trkpt>
      <trkpt lat="42.81969" lon="7.46284">
        <ele>-5.6304931640625</ele>
        <time>2015-07-25T08:36:40Z</time>
      </trkpt>
      <trkpt lat="42.81939" lon="7.46312">
        <ele>-5.14990234375</ele>
        <time>2015-07-25T08:36:53Z</time>
      </trkpt>
      <trkpt lat="42.81902" lon="7.46338">
        <ele>-5.14990234375</ele>
        <time>2015-07-25T08:37:08Z</time>
      </trkpt>
      <trkpt lat="42.81871" lon="7.46363">
        <ele>-5.14990234375</ele>
        <time>2015-07-25T08:37:22Z</time>
      </trkpt>
      <trkpt lat="42.81841" lon="7.46393">
        <ele>-5.6304931640625</ele>
        <time>2015-07-25T08:37:36Z</time>
      </trkpt>
      <trkpt lat="42.81813" lon="7.46418">
        <ele>-5.14990234375</ele>
        <time>2015-07-25T08:37:48Z</time>
      </trkpt>
      <trkpt lat="42.81784" lon="7.46454">
        <ele>-5.14990234375</ele>
        <time>2015-07-25T08:38:01Z</time>
      </trkpt>
      <trkpt lat="42.8175" lon="7.4649">
        <ele>-5.14990234375</ele>
        <time>2015-07-25T08:38:17Z</time>
      </trkpt>
      <trkpt lat="42.81724" lon="7.46523">
        <ele>-5.6304931640625</ele>
        <time>2015-07-25T08:38:29Z</time>
      </trkpt>
      <trkpt lat="42.81671" lon="7.46583">
        <ele>-5.6304931640625</ele>
        <time>2015-07-25T08:38:53Z</time>
      </trkpt>
      <trkpt lat="42.81644" lon="7.46607">
        <ele>-5.6304931640625</ele>
        <time>2015-07-25T08:39:06Z</time>
      </trkpt>
      <trkpt lat="42.81618" lon="7.46637">
        <ele>-5.6304931640625</ele>
        <time>2015-07-25T08:39:19Z</time>
      </trkpt>
      <trkpt lat="42.81586" lon="7.46669">
        <ele>-5.14990234375</ele>
        <time>2015-07-25T08:39:33Z</time>
      </trkpt>
      <trkpt lat="42.81529" lon="7.46728">
        <ele>-5.6304931640625</ele>
        <time>2015-07-25T08:40:00Z</time>
      </trkpt>
      <trkpt lat="42.81501" lon="7.46757">
        <ele>-5.6304931640625</ele>
        <time>2015-07-25T08:40:13Z</time>
      </trkpt>
      <trkpt lat="42.81447" lon="7.46807">
        <ele>-5.14990234375</ele>
        <time>2015-07-25T08:40:37Z</time>
      </trkpt>
      <trkpt lat="42.81409" lon="7.46844">
        <ele>-5.6304931640625</ele>
        <time>2015-07-25T08:40:54Z</time>
      </trkpt>
      <trkpt lat="42.81371" lon="7.46884">
        <ele>-5.14990234375</ele>
        <time>2015-07-25T08:41:08Z</time>
      </trkpt>
      <trkpt lat="42.81335" lon="7.46922">
        <ele>-5.14990234375</ele>
        <time>2015-07-25T08:41:23Z</time>
      </trkpt>
      <trkpt lat="42.81278" lon="7.46968">
        <ele>-5.6304931640625</ele>
        <time>2015-07-25T08:41:47Z</time>
      </trkpt>
      <trkpt lat="42.81248" lon="7.47">
        <ele>-5.6304931640625</ele>
        <time>2015-07-25T08:42:00Z</time>
      </trkpt>
      <trkpt lat="42.81219" lon="7.47036">
        <ele>-5.6304931640625</ele>
        <time>2015-07-25T08:42:14Z</time>
      </trkpt>
      <trkpt lat="42.81172" lon="7.47084">
        <ele>-6.1112060546875</ele>
        <time>2015-07-25T08:42:36Z</time>
      </trkpt>
      <trkpt lat="42.81143" lon="7.47115">
        <ele>-6.1112060546875</ele>
        <time>2015-07-25T08:42:49Z</time>
      </trkpt>
      <trkpt lat="42.81115" lon="7.47138">
        <ele>-5.6304931640625</ele>
        <time>2015-07-25T08:43:00Z</time>
      </trkpt>
      <trkpt lat="42.81063" lon="7.47186">
        <ele>-6.1112060546875</ele>
        <time>2015-07-25T08:43:22Z</time>
      </trkpt>
      <trkpt lat="42.81009" lon="7.47236">
        <ele>-5.6304931640625</ele>
        <time>2015-07-25T08:43:46Z</time>
      </trkpt>
      <trkpt lat="42.80948" lon="7.47289">
        <ele>-5.6304931640625</ele>
        <time>2015-07-25T08:44:11Z</time>
      </trkpt>
      <trkpt lat="42.80917" lon="7.47314">
        <ele>-6.1112060546875</ele>
        <time>2015-07-25T08:44:23Z</time>
      </trkpt>
      <trkpt lat="42.80885" lon="7.47339">
        <ele>-6.1112060546875</ele>
        <time>2015-07-25T08:44:37Z</time>
      </trkpt>
      <trkpt lat="42.80839" lon="7.47385">
        <ele>-6.1112060546875</ele>
        <time>2015-07-25T08:44:58Z</time>
      </trkpt>
      <trkpt lat="42.80805" lon="7.47419">
        <ele>-5.6304931640625</ele>
        <time>2015-07-25T08:45:12Z</time>
      </trkpt>
      <trkpt lat="42.80775" lon="7.47446">
        <ele>-6.1112060546875</ele>
        <time>2015-07-25T08:45:24Z</time>
      </trkpt>
      <trkpt lat="42.80736" lon="7.47477">
        <ele>-6.1112060546875</ele>
        <time>2015-07-25T08:45:40Z</time>
      </trkpt>
      <trkpt lat="42.80672" lon="7.4752">
        <ele>-6.1112060546875</ele>
        <time>2015-07-25T08:46:04Z</time>
      </trkpt>
      <trkpt lat="42.80641" lon="7.47548">
        <ele>-5.6304931640625</ele>
        <time>2015-07-25T08:46:17Z</time>
      </trkpt>
      <trkpt lat="42.8061" lon="7.4757">
        <ele>-5.6304931640625</ele>
        <time>2015-07-25T08:46:29Z</time>
      </trkpt>
      <trkpt lat="42.8058" lon="7.47595">
        <ele>-5.6304931640625</ele>
        <time>2015-07-25T08:46:40Z</time>
      </trkpt>
      <trkpt lat="42.80547" lon="7.47624">
        <ele>-5.6304931640625</ele>
        <time>2015-07-25T08:46:54Z</time>
      </trkpt>
      <trkpt lat="42.80511" lon="7.47648">
        <ele>-6.1112060546875</ele>
        <time>2015-07-25T08:47:08Z</time>
      </trkpt>
      <trkpt lat="42.80475" lon="7.47679">
        <ele>-6.1112060546875</ele>
        <time>2015-07-25T08:47:23Z</time>
      </trkpt>
      <trkpt lat="42.80443" lon="7.47705">
        <ele>-6.1112060546875</ele>
        <time>2015-07-25T08:47:36Z</time>
      </trkpt>
      <trkpt lat="42.80411" lon="7.47727">
        <ele>-6.1112060546875</ele>
        <time>2015-07-25T08:47:49Z</time>
      </trkpt>
      <trkpt lat="42.80379" lon="7.47754">
        <ele>-6.1112060546875</ele>
        <time>2015-07-25T08:48:02Z</time>
      </trkpt>
      <trkpt lat="42.80341" lon="7.47779">
        <ele>-6.1112060546875</ele>
        <time>2015-07-25T08:48:17Z</time>
      </trkpt>
      <trkpt lat="42.80303" lon="7.47806">
        <ele>-6.5919189453125</ele>
        <time>2015-07-25T08:48:31Z</time>
      </trkpt>
      <trkpt lat="42.80266" lon="7.47834">
        <ele>-6.1112060546875</ele>
        <time>2015-07-25T08:48:48Z</time>
      </trkpt>
      <trkpt lat="42.80236" lon="7.47858">
        <ele>-6.1112060546875</ele>
        <time>2015-07-25T08:49:00Z</time>
      </trkpt>
      <trkpt lat="42.80207" lon="7.47875">
        <ele>-6.1112060546875</ele>
        <time>2015-07-25T08:49:12Z</time>
      </trkpt>
      <trkpt lat="42.80176" lon="7.47902">
        <ele>-6.1112060546875</ele>
        <time>2015-07-25T08:49:25Z</time>
      </trkpt>
      <trkpt lat="42.80144" lon="7.4792">
        <ele>-6.1112060546875</ele>
        <time>2015-07-25T08:49:35Z</time>
      </trkpt>
      <trkpt lat="42.80111" lon="7.47944">
        <ele>-6.1112060546875</ele>
        <time>2015-07-25T08:49:48Z</time>
      </trkpt>
      <trkpt lat="42.80055" lon="7.47984">
        <ele>-6.1112060546875</ele>
        <time>2015-07-25T08:50:10Z</time>
      </trkpt>
      <trkpt lat="42.80023" lon="7.48013">
        <ele>-6.1112060546875</ele>
        <time>2015-07-25T08:50:23Z</time>
      </trkpt>
      <trkpt lat="42.79993" lon="7.48035">
        <ele>-6.1112060546875</ele>
        <time>2015-07-25T08:50:34Z</time>
      </trkpt>
      <trkpt lat="42.79965" lon="7.48066">
        <ele>-6.1112060546875</ele>
        <time>2015-07-25T08:50:48Z</time>
      </trkpt>
      <trkpt lat="42.79926" lon="7.48096">
        <ele>-6.5919189453125</ele>
        <time>2015-07-25T08:51:04Z</time>
      </trkpt>
      <trkpt lat="42.79897" lon="7.48124">
        <ele>-6.1112060546875</ele>
        <time>2015-07-25T08:51:18Z</time>
      </trkpt>
      <trkpt lat="42.79863" lon="7.48149">
        <ele>-6.1112060546875</ele>
        <time>2015-07-25T08:51:32Z</time>
      </trkpt>
      <trkpt lat="42.79833" lon="7.48179">
        <ele>-6.1112060546875</ele>
        <time>2015-07-25T08:51:44Z</time>
      </trkpt>
      <trkpt lat="42.79807" lon="7.48212">
        <ele>-6.5919189453125</ele>
        <time>2015-07-25T08:51:56Z</time>
      </trkpt>
      <trkpt lat="42.79761" lon="7.48267">
        <ele>-7.072509765625</ele>
        <time>2015-07-25T08:52:21Z</time>
      </trkpt>
      <trkpt lat="42.79738" lon="7.483">
        <ele>-6.5919189453125</ele>
        <time>2015-07-25T08:52:35Z</time>
      </trkpt>
      <trkpt lat="42.7971" lon="7.48333">
        <ele>-7.072509765625</ele>
        <time>2015-07-25T08:52:49Z</time>
      </trkpt>
      <trkpt lat="42.79673" lon="7.48383">
        <ele>-6.5919189453125</ele>
        <time>2015-07-25T08:53:07Z</time>
      </trkpt>
      <trkpt lat="42.79643" lon="7.48444">
        <ele>-7.072509765625</ele>
        <time>2015-07-25T08:53:28Z</time>
      </trkpt>
      <trkpt lat="42.79626" lon="7.48481">
        <ele>-7.072509765625</ele>
        <time>2015-07-25T08:53:41Z</time>
      </trkpt>
      <trkpt lat="42.79601" lon="7.48516">
        <ele>-6.5919189453125</ele>
        <time>2015-07-25T08:53:54Z</time>
      </trkpt>
      <trkpt lat="42.79579" lon="7.48548">
        <ele>-6.1112060546875</ele>
        <time>2015-07-25T08:54:06Z</time>
      </trkpt>
      <trkpt lat="42.7953" lon="7.48602">
        <ele>-6.5919189453125</ele>
        <time>2015-07-25T08:54:30Z</time>
      </trkpt>
      <trkpt lat="42.79497" lon="7.48641">
        <ele>-6.5919189453125</ele>
        <time>2015-07-25T08:54:45Z</time>
      </trkpt>
      <trkpt lat="42.79469" lon="7.4868">
        <ele>-6.5919189453125</ele>
        <time>2015-07-25T08:54:59Z</time>
      </trkpt>
      <trkpt lat="42.7944" lon="7.48717">
        <ele>-6.5919189453125</ele>
        <time>2015-07-25T08:55:13Z</time>
      </trkpt>
      <trkpt lat="42.79407" lon="7.48751">
        <ele>-6.5919189453125</ele>
        <time>2015-07-25T08:55:29Z</time>
      </trkpt>
      <trkpt lat="42.79383" lon="7.48781">
        <ele>-7.072509765625</ele>
        <time>2015-07-25T08:55:42Z</time>
      </trkpt>
      <trkpt lat="42.79356" lon="7.48809">
        <ele>-6.5919189453125</ele>
        <time>2015-07-25T08:55:55Z</time>
      </trkpt>
      <trkpt lat="42.79325" lon="7.48842">
        <ele>-6.5919189453125</ele>
        <time>2015-07-25T08:56:10Z</time>
      </trkpt>
      <trkpt lat="42.79293" lon="7.48872">
        <ele>-6.5919189453125</ele>
        <time>2015-07-25T08:56:24Z</time>
      </trkpt>
      <trkpt lat="42.79264" lon="7.48894">
        <ele>-6.5919189453125</ele>
        <time>2015-07-25T08:56:37Z</time>
      </trkpt>
      <trkpt lat="42.79228" lon="7.48922">
        <ele>-6.5919189453125</ele>
        <time>2015-07-25T08:56:54Z</time>
      </trkpt>
      <trkpt lat="42.79194" lon="7.48945">
        <ele>-6.5919189453125</ele>
        <time>2015-07-25T08:57:07Z</time>
      </trkpt>
      <trkpt lat="42.79164" lon="7.48971">
        <ele>-6.5919189453125</ele>
        <time>2015-07-25T08:57:20Z</time>
      </trkpt>
      <trkpt lat="42.79127" lon="7.48998">
        <ele>-6.5919189453125</ele>
        <time>2015-07-25T08:57:35Z</time>
      </trkpt>
      <trkpt lat="42.79098" lon="7.49025">
        <ele>-6.5919189453125</ele>
        <time>2015-07-25T08:57:48Z</time>
      </trkpt>
      <trkpt lat="42.7905" lon="7.49057">
        <ele>-6.5919189453125</ele>
        <time>2015-07-25T08:58:06Z</time>
      </trkpt>
      <trkpt lat="42.79011" lon="7.49084">
        <ele>-6.5919189453125</ele>
        <time>2015-07-25T08:58:21Z</time>
      </trkpt>
      <trkpt lat="42.78985" lon="7.49108">
        <ele>-6.5919189453125</ele>
        <time>2015-07-25T08:58:33Z</time>
      </trkpt>
      <trkpt lat="42.78952" lon="7.49133">
        <ele>-7.072509765625</ele>
        <time>2015-07-25T08:58:46Z</time>
      </trkpt>
      <trkpt lat="42.78922" lon="7.49158">
        <ele>-6.5919189453125</ele>
        <time>2015-07-25T08:59:00Z</time>
      </trkpt>
      <trkpt lat="42.78892" lon="7.49179">
        <ele>-6.5919189453125</ele>
        <time>2015-07-25T08:59:14Z</time>
      </trkpt>
      <trkpt lat="42.7886" lon="7.49206">
        <ele>-6.1112060546875</ele>
        <time>2015-07-25T08:59:27Z</time>
      </trkpt>
      <trkpt lat="42.78825" lon="7.49232">
        <ele>-6.5919189453125</ele>
        <time>2015-07-25T08:59:42Z</time>
      </trkpt>
      <trkpt lat="42.7879" lon="7.49265">
        <ele>-7.072509765625</ele>
        <time>2015-07-25T08:59:57Z</time>
      </trkpt>
      <trkpt lat="42.78758" lon="7.49287">
        <ele>-6.5919189453125</ele>
        <time>2015-07-25T09:00:10Z</time>
      </trkpt>
      <trkpt lat="42.78723" lon="7.49308">
        <ele>-6.5919189453125</ele>
        <time>2015-07-25T09:00:24Z</time>
      </trkpt>
      <trkpt lat="42.78689" lon="7.49329">
        <ele>-6.5919189453125</ele>
        <time>2015-07-25T09:00:37Z</time>
      </trkpt>
      <trkpt lat="42.78649" lon="7.49355">
        <ele>-7.072509765625</ele>
        <time>2015-07-25T09:00:53Z</time>
      </trkpt>
      <trkpt lat="42.78616" lon="7.4938">
        <ele>-7.5531005859375</ele>
        <time>2015-07-25T09:01:08Z</time>
      </trkpt>
      <trkpt lat="42.78549" lon="7.49437">
        <ele>-6.5919189453125</ele>
        <time>2015-07-25T09:01:35Z</time>
      </trkpt>
      <trkpt lat="42.78512" lon="7.49477">
        <ele>-7.072509765625</ele>
        <time>2015-07-25T09:01:51Z</time>
      </trkpt>
      <trkpt lat="42.78485" lon="7.49516">
        <ele>-7.072509765625</ele>
        <time>2015-07-25T09:02:06Z</time>
      </trkpt>
      <trkpt lat="42.78455" lon="7.49552">
        <ele>-7.072509765625</ele>
        <time>2015-07-25T09:02:21Z</time>
      </trkpt>
      <trkpt lat="42.78412" lon="7.49615">
        <ele>-7.072509765625</ele>
        <time>2015-07-25T09:02:46Z</time>
      </trkpt>
      <trkpt lat="42.78387" lon="7.49643">
        <ele>-7.072509765625</ele>
        <time>2015-07-25T09:02:59Z</time>
      </trkpt>
      <trkpt lat="42.78361" lon="7.49673">
        <ele>-7.072509765625</ele>
        <time>2015-07-25T09:03:12Z</time>
      </trkpt>
      <trkpt lat="42.78329" lon="7.49705">
        <ele>-7.072509765625</ele>
        <time>2015-07-25T09:03:26Z</time>
      </trkpt>
      <trkpt lat="42.78301" lon="7.49732">
        <ele>-7.072509765625</ele>
        <time>2015-07-25T09:03:38Z</time>
      </trkpt>
      <trkpt lat="42.78269" lon="7.49761">
        <ele>-7.072509765625</ele>
        <time>2015-07-25T09:03:52Z</time>
      </trkpt>
      <trkpt lat="42.78241" lon="7.49784">
        <ele>-7.072509765625</ele>
        <time>2015-07-25T09:04:04Z</time>
      </trkpt>
      <trkpt lat="42.78213" lon="7.49813">
        <ele>-6.5919189453125</ele>
        <time>2015-07-25T09:04:16Z</time>
      </trkpt>
      <trkpt lat="42.78176" lon="7.49843">
        <ele>-7.072509765625</ele>
        <time>2015-07-25T09:04:31Z</time>
      </trkpt>
      <trkpt lat="42.78146" lon="7.4987">
        <ele>-7.5531005859375</ele>
        <time>2015-07-25T09:04:43Z</time>
      </trkpt>
      <trkpt lat="42.78109" lon="7.499">
        <ele>-7.072509765625</ele>
        <time>2015-07-25T09:04:58Z</time>
      </trkpt>
      <trkpt lat="42.78079" lon="7.49929">
        <ele>-6.5919189453125</ele>
        <time>2015-07-25T09:05:11Z</time>
      </trkpt>
      <trkpt lat="42.7804" lon="7.4996">
        <ele>-7.5531005859375</ele>
        <time>2015-07-25T09:05:25Z</time>
      </trkpt>
      <trkpt lat="42.7798" lon="7.50001">
        <ele>-7.072509765625</ele>
        <time>2015-07-25T09:05:48Z</time>
      </trkpt>
      <trkpt lat="42.77937" lon="7.50025">
        <ele>-6.5919189453125</ele>
        <time>2015-07-25T09:06:04Z</time>
      </trkpt>
      <trkpt lat="42.77904" lon="7.50047">
        <ele>-7.072509765625</ele>
        <time>2015-07-25T09:06:16Z</time>
      </trkpt>
      <trkpt lat="42.77876" lon="7.50068">
        <ele>-7.072509765625</ele>
        <time>2015-07-25T09:06:27Z</time>
      </trkpt>
      <trkpt lat="42.77849" lon="7.50094">
        <ele>-7.5531005859375</ele>
        <time>2015-07-25T09:06:38Z</time>
      </trkpt>
      <trkpt lat="42.77811" lon="7.50116">
        <ele>-7.5531005859375</ele>
        <time>2015-07-25T09:06:51Z</time>
      </trkpt>
      <trkpt lat="42.77755" lon="7.50168">
        <ele>-7.072509765625</ele>
        <time>2015-07-25T09:07:17Z</time>
      </trkpt>
      <trkpt lat="42.77723" lon="7.50197">
        <ele>-7.5531005859375</ele>
        <time>2015-07-25T09:07:30Z</time>
      </trkpt>
      <trkpt lat="42.77697" lon="7.50228">
        <ele>-7.5531005859375</ele>
        <time>2015-07-25T09:07:43Z</time>
      </trkpt>
      <trkpt lat="42.77647" lon="7.50289">
        <ele>-8.033935546875</ele>
        <time>2015-07-25T09:08:08Z</time>
      </trkpt>
      <trkpt lat="42.77622" lon="7.5032">
        <ele>-8.033935546875</ele>
        <time>2015-07-25T09:08:21Z</time>
      </trkpt>
      <trkpt lat="42.77589" lon="7.50358">
        <ele>-7.5531005859375</ele>
        <time>2015-07-25T09:08:37Z</time>
      </trkpt>
      <trkpt lat="42.77559" lon="7.50391">
        <ele>-7.5531005859375</ele>
        <time>2015-07-25T09:08:51Z</time>
      </trkpt>
      <trkpt lat="42.775" lon="7.50455">
        <ele>-7.5531005859375</ele>
        <time>2015-07-25T09:09:17Z</time>
      </trkpt>
      <trkpt lat="42.77455" lon="7.50497">
        <ele>-7.072509765625</ele>
        <time>2015-07-25T09:09:34Z</time>
      </trkpt>
      <trkpt lat="42.77418" lon="7.50534">
        <ele>-7.5531005859375</ele>
        <time>2015-07-25T09:09:49Z</time>
      </trkpt>
      <trkpt lat="42.77375" lon="7.5059">
        <ele>-7.5531005859375</ele>
        <time>2015-07-25T09:10:11Z</time>
      </trkpt>
      <trkpt lat="42.7735" lon="7.5062">
        <ele>-8.033935546875</ele>
        <time>2015-07-25T09:10:24Z</time>
      </trkpt>
      <trkpt lat="42.77325" lon="7.50648">
        <ele>-7.5531005859375</ele>
        <time>2015-07-25T09:10:36Z</time>
      </trkpt>
      <trkpt lat="42.77289" lon="7.50674">
        <ele>-7.5531005859375</ele>
        <time>2015-07-25T09:10:51Z</time>
      </trkpt>
      <trkpt lat="42.77251" lon="7.50694">
        <ele>-7.5531005859375</ele>
        <time>2015-07-25T09:11:05Z</time>
      </trkpt>
      <trkpt lat="42.77195" lon="7.50742">
        <ele>-8.033935546875</ele>
        <time>2015-07-25T09:11:27Z</time>
      </trkpt>
      <trkpt lat="42.77157" lon="7.50797">
        <ele>-8.033935546875</ele>
        <time>2015-07-25T09:11:50Z</time>
      </trkpt>
      <trkpt lat="42.77109" lon="7.50853">
        <ele>-7.5531005859375</ele>
        <time>2015-07-25T09:12:15Z</time>
      </trkpt>
      <trkpt lat="42.77079" lon="7.50882">
        <ele>-7.072509765625</ele>
        <time>2015-07-25T09:12:30Z</time>
      </trkpt>
      <trkpt lat="42.77045" lon="7.50909">
        <ele>-7.5531005859375</ele>
        <time>2015-07-25T09:12:44Z</time>
      </trkpt>
      <trkpt lat="42.77015" lon="7.50935">
        <ele>-7.072509765625</ele>
        <time>2015-07-25T09:12:57Z</time>
      </trkpt>
      <trkpt lat="42.76982" lon="7.5096">
        <ele>-7.5531005859375</ele>
        <time>2015-07-25T09:13:09Z</time>
      </trkpt>
      <trkpt lat="42.76947" lon="7.50991">
        <ele>-7.5531005859375</ele>
        <time>2015-07-25T09:13:23Z</time>
      </trkpt>
      <trkpt lat="42.76919" lon="7.51013">
        <ele>-7.5531005859375</ele>
        <time>2015-07-25T09:13:34Z</time>
      </trkpt>
      <trkpt lat="42.76883" lon="7.5105">
        <ele>-8.033935546875</ele>
        <time>2015-07-25T09:13:49Z</time>
      </trkpt>
      <trkpt lat="42.76853" lon="7.51084">
        <ele>-7.072509765625</ele>
        <time>2015-07-25T09:14:02Z</time>
      </trkpt>
      <trkpt lat="42.7681" lon="7.51142">
        <ele>-8.033935546875</ele>
        <time>2015-07-25T09:14:25Z</time>
      </trkpt>
      <trkpt lat="42.76784" lon="7.51171">
        <ele>-7.5531005859375</ele>
        <time>2015-07-25T09:14:38Z</time>
      </trkpt>
      <trkpt lat="42.76757" lon="7.51202">
        <ele>-8.033935546875</ele>
        <time>2015-07-25T09:14:51Z</time>
      </trkpt>
      <trkpt lat="42.76729" lon="7.51237">
        <ele>-8.5146484375</ele>
        <time>2015-07-25T09:15:07Z</time>
      </trkpt>
      <trkpt lat="42.767" lon="7.51262">
        <ele>-7.5531005859375</ele>
        <time>2015-07-25T09:15:19Z</time>
      </trkpt>
      <trkpt lat="42.76659" lon="7.51324">
        <ele>-8.033935546875</ele>
        <time>2015-07-25T09:15:44Z</time>
      </trkpt>
      <trkpt lat="42.76633" lon="7.51352">
        <ele>-8.033935546875</ele>
        <time>2015-07-25T09:15:57Z</time>
      </trkpt>
      <trkpt lat="42.76601" lon="7.5138">
        <ele>-7.5531005859375</ele>
        <time>2015-07-25T09:16:10Z</time>
      </trkpt>
      <trkpt lat="42.76563" lon="7.51414">
        <ele>-7.5531005859375</ele>
        <time>2015-07-25T09:16:25Z</time>
      </trkpt>
      <trkpt lat="42.76505" lon="7.51452">
        <ele>-7.5531005859375</ele>
        <time>2015-07-25T09:16:48Z</time>
      </trkpt>
      <trkpt lat="42.76476" lon="7.51481">
        <ele>-7.5531005859375</ele>
        <time>2015-07-25T09:17:00Z</time>
      </trkpt>
      <trkpt lat="42.7643" lon="7.51534">
        <ele>-7.5531005859375</ele>
        <time>2015-07-25T09:17:22Z</time>
      </trkpt>
      <trkpt lat="42.76404" lon="7.51562">
        <ele>-7.5531005859375</ele>
        <time>2015-07-25T09:17:34Z</time>
      </trkpt>
      <trkpt lat="42.76347" lon="7.51616">
        <ele>-7.5531005859375</ele>
        <time>2015-07-25T09:17:57Z</time>
      </trkpt>
      <trkpt lat="42.76313" lon="7.51643">
        <ele>-7.072509765625</ele>
        <time>2015-07-25T09:18:10Z</time>
      </trkpt>
      <trkpt lat="42.76281" lon="7.51675">
        <ele>-8.033935546875</ele>
        <time>2015-07-25T09:18:24Z</time>
      </trkpt>
      <trkpt lat="42.76234" lon="7.51739">
        <ele>-8.033935546875</ele>
        <time>2015-07-25T09:18:50Z</time>
      </trkpt>
      <trkpt lat="42.76198" lon="7.51789">
        <ele>-8.033935546875</ele>
        <time>2015-07-25T09:19:11Z</time>
      </trkpt>
      <trkpt lat="42.76169" lon="7.51828">
        <ele>-8.033935546875</ele>
        <time>2015-07-25T09:19:28Z</time>
      </trkpt>
      <trkpt lat="42.7614" lon="7.51872">
        <ele>-8.5146484375</ele>
        <time>2015-07-25T09:19:45Z</time>
      </trkpt>
      <trkpt lat="42.76105" lon="7.5193">
        <ele>-8.033935546875</ele>
        <time>2015-07-25T09:20:07Z</time>
      </trkpt>
      <trkpt lat="42.76076" lon="7.51961">
        <ele>-7.5531005859375</ele>
        <time>2015-07-25T09:20:20Z</time>
      </trkpt>
      <trkpt lat="42.76021" lon="7.52015">
        <ele>-7.5531005859375</ele>
        <time>2015-07-25T09:20:43Z</time>
      </trkpt>
      <trkpt lat="42.75991" lon="7.52045">
        <ele>-7.5531005859375</ele>
        <time>2015-07-25T09:20:57Z</time>
      </trkpt>
      <trkpt lat="42.75961" lon="7.52074">
        <ele>-8.033935546875</ele>
        <time>2015-07-25T09:21:10Z</time>
      </trkpt>
      <trkpt lat="42.75921" lon="7.52108">
        <ele>-7.072509765625</ele>
        <time>2015-07-25T09:21:26Z</time>
      </trkpt>
      <trkpt lat="42.7587" lon="7.52149">
        <ele>-7.5531005859375</ele>
        <time>2015-07-25T09:21:47Z</time>
      </trkpt>
      <trkpt lat="42.75838" lon="7.52173">
        <ele>-8.033935546875</ele>
        <time>2015-07-25T09:21:59Z</time>
      </trkpt>
      <trkpt lat="42.75809" lon="7.52203">
        <ele>-8.033935546875</ele>
        <time>2015-07-25T09:22:12Z</time>
      </trkpt>
      <trkpt lat="42.75776" lon="7.5223">
        <ele>-7.5531005859375</ele>
        <time>2015-07-25T09:22:25Z</time>
      </trkpt>
      <trkpt lat="42.75747" lon="7.52259">
        <ele>-7.5531005859375</ele>
        <time>2015-07-25T09:22:38Z</time>
      </trkpt>
      <trkpt lat="42.75716" lon="7.52283">
        <ele>-7.5531005859375</ele>
        <time>2015-07-25T09:22:50Z</time>
      </trkpt>
      <trkpt lat="42.75682" lon="7.52306">
        <ele>-8.033935546875</ele>
        <time>2015-07-25T09:23:02Z</time>
      </trkpt>
      <trkpt lat="42.75655" lon="7.52335">
        <ele>-7.5531005859375</ele>
        <time>2015-07-25T09:23:14Z</time>
      </trkpt>
      <trkpt lat="42.75621" lon="7.52358">
        <ele>-8.033935546875</ele>
        <time>2015-07-25T09:23:26Z</time>
      </trkpt>
      <trkpt lat="42.7559" lon="7.52391">
        <ele>-8.033935546875</ele>
        <time>2015-07-25T09:23:38Z</time>
      </trkpt>
      <trkpt lat="42.7554" lon="7.52452">
        <ele>-8.033935546875</ele>
        <time>2015-07-25T09:24:01Z</time>
      </trkpt>
      <trkpt lat="42.75521" lon="7.52493">
        <ele>-8.033935546875</ele>
        <time>2015-07-25T09:24:14Z</time>
      </trkpt>
      <trkpt lat="42.75494" lon="7.52522">
        <ele>-8.5146484375</ele>
        <time>2015-07-25T09:24:25Z</time>
      </trkpt>
      <trkpt lat="42.75471" lon="7.52563">
        <ele>-8.033935546875</ele>
        <time>2015-07-25T09:24:38Z</time>
      </trkpt>
      <trkpt lat="42.75444" lon="7.52599">
        <ele>-8.033935546875</ele>
        <time>2015-07-25T09:24:51Z</time>
      </trkpt>
      <trkpt lat="42.75409" lon="7.52638">
        <ele>-7.072509765625</ele>
        <time>2015-07-25T09:25:05Z</time>
      </trkpt>
      <trkpt lat="42.75384" lon="7.52677">
        <ele>-8.5146484375</ele>
        <time>2015-07-25T09:25:17Z</time>
      </trkpt>
      <trkpt lat="42.75361" lon="7.5271">
        <ele>-8.033935546875</ele>
        <time>2015-07-25T09:25:29Z</time>
      </trkpt>
      <trkpt lat="42.75337" lon="7.52742">
        <ele>-8.033935546875</ele>
        <time>2015-07-25T09:25:40Z</time>
      </trkpt>
      <trkpt lat="42.75289" lon="7.52805">
        <ele>-7.5531005859375</ele>
        <time>2015-07-25T09:26:02Z</time>
      </trkpt>
      <trkpt lat="42.75263" lon="7.5284">
        <ele>-8.033935546875</ele>
        <time>2015-07-25T09:26:15Z</time>
      </trkpt>
      <trkpt lat="42.75237" lon="7.52873">
        <ele>-8.033935546875</ele>
        <time>2015-07-25T09:26:27Z</time>
      </trkpt>
      <trkpt lat="42.7521" lon="7.52907">
        <ele>-7.072509765625</ele>
        <time>2015-07-25T09:26:39Z</time>
      </trkpt>
      <trkpt lat="42.75176" lon="7.52948">
        <ele>-7.5531005859375</ele>
        <time>2015-07-25T09:26:54Z</time>
      </trkpt>
      <trkpt lat="42.75155" lon="7.52981">
        <ele>-8.5146484375</ele>
        <time>2015-07-25T09:27:05Z</time>
      </trkpt>
      <trkpt lat="42.75137" lon="7.53022">
        <ele>-8.5146484375</ele>
        <time>2015-07-25T09:27:18Z</time>
      </trkpt>
      <trkpt lat="42.75109" lon="7.53051">
        <ele>-7.5531005859375</ele>
        <time>2015-07-25T09:27:29Z</time>
      </trkpt>
      <trkpt lat="42.75055" lon="7.53104">
        <ele>-8.033935546875</ele>
        <time>2015-07-25T09:27:52Z</time>
      </trkpt>
      <trkpt lat="42.75012" lon="7.53155">
        <ele>-7.5531005859375</ele>
        <time>2015-07-25T09:28:13Z</time>
      </trkpt>
      <trkpt lat="42.74983" lon="7.53189">
        <ele>-7.5531005859375</ele>
        <time>2015-07-25T09:28:25Z</time>
      </trkpt>
      <trkpt lat="42.74946" lon="7.53218">
        <ele>-8.033935546875</ele>
        <time>2015-07-25T09:28:38Z</time>
      </trkpt>
      <trkpt lat="42.74918" lon="7.53242">
        <ele>-6.5919189453125</ele>
        <time>2015-07-25T09:28:49Z</time>
      </trkpt>
      <trkpt lat="42.7489" lon="7.53267">
        <ele>-8.033935546875</ele>
        <time>2015-07-25T09:29:00Z</time>
      </trkpt>
      <trkpt lat="42.74863" lon="7.53294">
        <ele>-8.033935546875</ele>
        <time>2015-07-25T09:29:11Z</time>
      </trkpt>
      <trkpt lat="42.74815" lon="7.5335">
        <ele>-8.033935546875</ele>
        <time>2015-07-25T09:29:33Z</time>
      </trkpt>
      <trkpt lat="42.74761" lon="7.53419">
        <ele>-8.5146484375</ele>
        <time>2015-07-25T09:29:58Z</time>
      </trkpt>
      <trkpt lat="42.74736" lon="7.53454">
        <ele>-8.5146484375</ele>
        <time>2015-07-25T09:30:11Z</time>
      </trkpt>
      <trkpt lat="42.74712" lon="7.53489">
        <ele>-8.033935546875</ele>
        <time>2015-07-25T09:30:25Z</time>
      </trkpt>
      <trkpt lat="42.74691" lon="7.53533">
        <ele>-8.033935546875</ele>
        <time>2015-07-25T09:30:40Z</time>
      </trkpt>
      <trkpt lat="42.74669" lon="7.5358">
        <ele>-8.9952392578125</ele>
        <time>2015-07-25T09:30:55Z</time>
      </trkpt>
      <trkpt lat="42.74645" lon="7.53618">
        <ele>-8.5146484375</ele>
        <time>2015-07-25T09:31:09Z</time>
      </trkpt>
      <trkpt lat="42.74611" lon="7.53649">
        <ele>-8.033935546875</ele>
        <time>2015-07-25T09:31:22Z</time>
      </trkpt>
      <trkpt lat="42.74582" lon="7.53684">
        <ele>-8.5146484375</ele>
        <time>2015-07-25T09:31:35Z</time>
      </trkpt>
      <trkpt lat="42.74554" lon="7.53709">
        <ele>-7.5531005859375</ele>
        <time>2015-07-25T09:31:47Z</time>
      </trkpt>
      <trkpt lat="42.74516" lon="7.53771">
        <ele>-8.033935546875</ele>
        <time>2015-07-25T09:32:09Z</time>
      </trkpt>
      <trkpt lat="42.74453" lon="7.53804">
        <ele>-7.5531005859375</ele>
        <time>2015-07-25T09:32:32Z</time>
      </trkpt>
      <trkpt lat="42.74427" lon="7.53829">
        <ele>-8.033935546875</ele>
        <time>2015-07-25T09:32:42Z</time>
      </trkpt>
      <trkpt lat="42.74404" lon="7.53861">
        <ele>-8.9952392578125</ele>
        <time>2015-07-25T09:32:54Z</time>
      </trkpt>
      <trkpt lat="42.74374" lon="7.53896">
        <ele>-7.5531005859375</ele>
        <time>2015-07-25T09:33:07Z</time>
      </trkpt>
      <trkpt lat="42.74343" lon="7.53919">
        <ele>-7.5531005859375</ele>
        <time>2015-07-25T09:33:19Z</time>
      </trkpt>
      <trkpt lat="42.74302" lon="7.53945">
        <ele>-7.5531005859375</ele>
        <time>2015-07-25T09:33:32Z</time>
      </trkpt>
      <trkpt lat="42.74276" lon="7.53979">
        <ele>-8.5146484375</ele>
        <time>2015-07-25T09:33:45Z</time>
      </trkpt>
      <trkpt lat="42.74228" lon="7.54024">
        <ele>-8.5146484375</ele>
        <time>2015-07-25T09:34:02Z</time>
      </trkpt>
      <trkpt lat="42.74174" lon="7.54089">
        <ele>-8.033935546875</ele>
        <time>2015-07-25T09:34:28Z</time>
      </trkpt>
      <trkpt lat="42.74142" lon="7.54122">
        <ele>-8.033935546875</ele>
        <time>2015-07-25T09:34:41Z</time>
      </trkpt>
      <trkpt lat="42.74118" lon="7.54155">
        <ele>-8.5146484375</ele>
        <time>2015-07-25T09:34:53Z</time>
      </trkpt>
      <trkpt lat="42.74092" lon="7.54191">
        <ele>-8.5146484375</ele>
        <time>2015-07-25T09:35:07Z</time>
      </trkpt>
      <trkpt lat="42.74067" lon="7.54221">
        <ele>-8.5146484375</ele>
        <time>2015-07-25T09:35:19Z</time>
      </trkpt>
      <trkpt lat="42.74032" lon="7.54251">
        <ele>-8.033935546875</ele>
        <time>2015-07-25T09:35:32Z</time>
      </trkpt>
      <trkpt lat="42.74" lon="7.54287">
        <ele>-8.5146484375</ele>
        <time>2015-07-25T09:35:46Z</time>
      </trkpt>
      <trkpt lat="42.73974" lon="7.54315">
        <ele>-8.033935546875</ele>
        <time>2015-07-25T09:35:58Z</time>
      </trkpt>
      <trkpt lat="42.73926" lon="7.54366">
        <ele>-9.475830078125</ele>
        <time>2015-07-25T09:36:19Z</time>
      </trkpt>
      <trkpt lat="42.73893" lon="7.54405">
        <ele>-8.5146484375</ele>
        <time>2015-07-25T09:36:33Z</time>
      </trkpt>
      <trkpt lat="42.73861" lon="7.54435">
        <ele>-8.5146484375</ele>
        <time>2015-07-25T09:36:46Z</time>
      </trkpt>
      <trkpt lat="42.73801" lon="7.54486">
        <ele>-8.9952392578125</ele>
        <time>2015-07-25T09:37:09Z</time>
      </trkpt>
      <trkpt lat="42.73754" lon="7.54546">
        <ele>-8.9952392578125</ele>
        <time>2015-07-25T09:37:31Z</time>
      </trkpt>
      <trkpt lat="42.73695" lon="7.54599">
        <ele>-8.033935546875</ele>
        <time>2015-07-25T09:37:57Z</time>
      </trkpt>
      <trkpt lat="42.73662" lon="7.5462">
        <ele>-8.033935546875</ele>
        <time>2015-07-25T09:38:08Z</time>
      </trkpt>
      <trkpt lat="42.73631" lon="7.54653">
        <ele>-8.9952392578125</ele>
        <time>2015-07-25T09:38:20Z</time>
      </trkpt>
      <trkpt lat="42.73603" lon="7.54679">
        <ele>-8.5146484375</ele>
        <time>2015-07-25T09:38:30Z</time>
      </trkpt>
      <trkpt lat="42.73573" lon="7.54701">
        <ele>-8.9952392578125</ele>
        <time>2015-07-25T09:38:42Z</time>
      </trkpt>
      <trkpt lat="42.73534" lon="7.54737">
        <ele>-8.9952392578125</ele>
        <time>2015-07-25T09:38:57Z</time>
      </trkpt>
      <trkpt lat="42.73508" lon="7.54775">
        <ele>-8.9952392578125</ele>
        <time>2015-07-25T09:39:10Z</time>
      </trkpt>
      <trkpt lat="42.73476" lon="7.54806">
        <ele>-8.9952392578125</ele>
        <time>2015-07-25T09:39:22Z</time>
      </trkpt>
      <trkpt lat="42.73412" lon="7.54865">
        <ele>-8.9952392578125</ele>
        <time>2015-07-25T09:39:47Z</time>
      </trkpt>
      <trkpt lat="42.73358" lon="7.54916">
        <ele>-8.5146484375</ele>
        <time>2015-07-25T09:40:09Z</time>
      </trkpt>
      <trkpt lat="42.73337" lon="7.54951">
        <ele>-8.5146484375</ele>
        <time>2015-07-25T09:40:21Z</time>
      </trkpt>
      <trkpt lat="42.73302" lon="7.54988">
        <ele>-8.5146484375</ele>
        <time>2015-07-25T09:40:37Z</time>
      </trkpt>
      <trkpt lat="42.73273" lon="7.55014">
        <ele>-8.033935546875</ele>
        <time>2015-07-25T09:40:48Z</time>
      </trkpt>
      <trkpt lat="42.7324" lon="7.55046">
        <ele>-8.9952392578125</ele>
        <time>2015-07-25T09:41:00Z</time>
      </trkpt>
      <trkpt lat="42.73209" lon="7.55075">
        <ele>-8.9952392578125</ele>
        <time>2015-07-25T09:41:12Z</time>
      </trkpt>
      <trkpt lat="42.73173" lon="7.55105">
        <ele>-8.033935546875</ele>
        <time>2015-07-25T09:41:25Z</time>
      </trkpt>
      <trkpt lat="42.73134" lon="7.55134">
        <ele>-8.5146484375</ele>
        <time>2015-07-25T09:41:38Z</time>
      </trkpt>
      <trkpt lat="42.7311" lon="7.55162">
        <ele>-8.5146484375</ele>
        <time>2015-07-25T09:41:50Z</time>
      </trkpt>
      <trkpt lat="42.73085" lon="7.55195">
        <ele>-8.5146484375</ele>
        <time>2015-07-25T09:42:02Z</time>
      </trkpt>
      <trkpt lat="42.73059" lon="7.55228">
        <ele>-8.9952392578125</ele>
        <time>2015-07-25T09:42:14Z</time>
      </trkpt>
      <trkpt lat="42.73026" lon="7.55259">
        <ele>-8.5146484375</ele>
        <time>2015-07-25T09:42:27Z</time>
      </trkpt>
      <trkpt lat="42.72989" lon="7.55288">
        <ele>-8.5146484375</ele>
        <time>2015-07-25T09:42:40Z</time>
      </trkpt>
      <trkpt lat="42.72961" lon="7.55323">
        <ele>-8.9952392578125</ele>
        <time>2015-07-25T09:42:53Z</time>
      </trkpt>
      <trkpt lat="42.72931" lon="7.55359">
        <ele>-8.9952392578125</ele>
        <time>2015-07-25T09:43:07Z</time>
      </trkpt>
      <trkpt lat="42.72899" lon="7.55387">
        <ele>-8.5146484375</ele>
        <time>2015-07-25T09:43:19Z</time>
      </trkpt>
      <trkpt lat="42.72862" lon="7.55411">
        <ele>-8.5146484375</ele>
        <time>2015-07-25T09:43:32Z</time>
      </trkpt>
      <trkpt lat="42.72807" lon="7.55453">
        <ele>-8.033935546875</ele>
        <time>2015-07-25T09:43:52Z</time>
      </trkpt>
      <trkpt lat="42.7278" lon="7.55473">
        <ele>-8.5146484375</ele>
        <time>2015-07-25T09:44:01Z</time>
      </trkpt>
      <trkpt lat="42.72749" lon="7.55512">
        <ele>-8.033935546875</ele>
        <time>2015-07-25T09:44:15Z</time>
      </trkpt>
      <trkpt lat="42.72713" lon="7.55549">
        <ele>-8.5146484375</ele>
        <time>2015-07-25T09:44:29Z</time>
      </trkpt>
      <trkpt lat="42.72683" lon="7.55569">
        <ele>-8.5146484375</ele>
        <time>2015-07-25T09:44:40Z</time>
      </trkpt>
      <trkpt lat="42.72655" lon="7.55596">
        <ele>-8.5146484375</ele>
        <time>2015-07-25T09:44:51Z</time>
      </trkpt>
      <trkpt lat="42.72622" lon="7.55634">
        <ele>-8.033935546875</ele>
        <time>2015-07-25T09:45:03Z</time>
      </trkpt>
      <trkpt lat="42.72594" lon="7.55656">
        <ele>-8.5146484375</ele>
        <time>2015-07-25T09:45:15Z</time>
      </trkpt>
      <trkpt lat="42.72562" lon="7.5568">
        <ele>-8.9952392578125</ele>
        <time>2015-07-25T09:45:27Z</time>
      </trkpt>
      <trkpt lat="42.72496" lon="7.55713">
        <ele>-8.5146484375</ele>
        <time>2015-07-25T09:45:50Z</time>
      </trkpt>
      <trkpt lat="42.7246" lon="7.55746">
        <ele>-8.5146484375</ele>
        <time>2015-07-25T09:46:02Z</time>
      </trkpt>
      <trkpt lat="42.72398" lon="7.55798">
        <ele>-8.9952392578125</ele>
        <time>2015-07-25T09:46:25Z</time>
      </trkpt>
      <trkpt lat="42.72365" lon="7.55831">
        <ele>-8.9952392578125</ele>
        <time>2015-07-25T09:46:38Z</time>
      </trkpt>
      <trkpt lat="42.72342" lon="7.55866">
        <ele>-8.9952392578125</ele>
        <time>2015-07-25T09:46:51Z</time>
      </trkpt>
      <trkpt lat="42.72311" lon="7.55906">
        <ele>-8.9952392578125</ele>
        <time>2015-07-25T09:47:07Z</time>
      </trkpt>
      <trkpt lat="42.72286" lon="7.55947">
        <ele>-9.475830078125</ele>
        <time>2015-07-25T09:47:19Z</time>
      </trkpt>
      <trkpt lat="42.72255" lon="7.55982">
        <ele>-8.9952392578125</ele>
        <time>2015-07-25T09:47:33Z</time>
      </trkpt>
      <trkpt lat="42.72226" lon="7.56009">
        <ele>-9.475830078125</ele>
        <time>2015-07-25T09:47:44Z</time>
      </trkpt>
      <trkpt lat="42.72197" lon="7.56037">
        <ele>-9.95654296875</ele>
        <time>2015-07-25T09:47:56Z</time>
      </trkpt>
      <trkpt lat="42.7216" lon="7.56068">
        <ele>-8.033935546875</ele>
        <time>2015-07-25T09:48:09Z</time>
      </trkpt>
      <trkpt lat="42.72123" lon="7.56094">
        <ele>-8.9952392578125</ele>
        <time>2015-07-25T09:48:22Z</time>
      </trkpt>
      <trkpt lat="42.72083" lon="7.56131">
        <ele>-8.9952392578125</ele>
        <time>2015-07-25T09:48:37Z</time>
      </trkpt>
      <trkpt lat="42.72039" lon="7.56161">
        <ele>-8.5146484375</ele>
        <time>2015-07-25T09:48:53Z</time>
      </trkpt>
      <trkpt lat="42.72007" lon="7.56181">
        <ele>-9.475830078125</ele>
        <time>2015-07-25T09:49:06Z</time>
      </trkpt>
      <trkpt lat="42.7197" lon="7.56209">
        <ele>-9.475830078125</ele>
        <time>2015-07-25T09:49:18Z</time>
      </trkpt>
      <trkpt lat="42.71935" lon="7.56241">
        <ele>-8.9952392578125</ele>
        <time>2015-07-25T09:49:31Z</time>
      </trkpt>
      <trkpt lat="42.71906" lon="7.56269">
        <ele>-9.475830078125</ele>
        <time>2015-07-25T09:49:43Z</time>
      </trkpt>
      <trkpt lat="42.71869" lon="7.56297">
        <ele>-8.5146484375</ele>
        <time>2015-07-25T09:49:56Z</time>
      </trkpt>
      <trkpt lat="42.71833" lon="7.56317">
        <ele>-8.9952392578125</ele>
        <time>2015-07-25T09:50:09Z</time>
      </trkpt>
      <trkpt lat="42.71801" lon="7.56333">
        <ele>-8.5146484375</ele>
        <time>2015-07-25T09:50:20Z</time>
      </trkpt>
      <trkpt lat="42.71766" lon="7.56347">
        <ele>-8.5146484375</ele>
        <time>2015-07-25T09:50:32Z</time>
      </trkpt>
      <trkpt lat="42.71716" lon="7.56374">
        <ele>-8.9952392578125</ele>
        <time>2015-07-25T09:50:47Z</time>
      </trkpt>
      <trkpt lat="42.71687" lon="7.56397">
        <ele>-9.475830078125</ele>
        <time>2015-07-25T09:50:58Z</time>
      </trkpt>
      <trkpt lat="42.71642" lon="7.56428">
        <ele>-8.9952392578125</ele>
        <time>2015-07-25T09:51:13Z</time>
      </trkpt>
      <trkpt lat="42.71586" lon="7.56478">
        <ele>-9.475830078125</ele>
        <time>2015-07-25T09:51:32Z</time>
      </trkpt>
      <trkpt lat="42.71557" lon="7.56504">
        <ele>-9.475830078125</ele>
        <time>2015-07-25T09:51:44Z</time>
      </trkpt>
      <trkpt lat="42.71515" lon="7.56525">
        <ele>-9.475830078125</ele>
        <time>2015-07-25T09:51:59Z</time>
      </trkpt>
      <trkpt lat="42.71482" lon="7.56556">
        <ele>-8.9952392578125</ele>
        <time>2015-07-25T09:52:12Z</time>
      </trkpt>
      <trkpt lat="42.71448" lon="7.56581">
        <ele>-8.9952392578125</ele>
        <time>2015-07-25T09:52:25Z</time>
      </trkpt>
      <trkpt lat="42.71398" lon="7.56606">
        <ele>-9.475830078125</ele>
        <time>2015-07-25T09:52:42Z</time>
      </trkpt>
      <trkpt lat="42.71333" lon="7.56649">
        <ele>-8.9952392578125</ele>
        <time>2015-07-25T09:53:06Z</time>
      </trkpt>
      <trkpt lat="42.71293" lon="7.56683">
        <ele>-9.475830078125</ele>
        <time>2015-07-25T09:53:19Z</time>
      </trkpt>
      <trkpt lat="42.71262" lon="7.56713">
        <ele>-8.9952392578125</ele>
        <time>2015-07-25T09:53:30Z</time>
      </trkpt>
      <trkpt lat="42.71231" lon="7.56728">
        <ele>-8.9952392578125</ele>
        <time>2015-07-25T09:53:41Z</time>
      </trkpt>
      <trkpt lat="42.71192" lon="7.56736">
        <ele>-9.475830078125</ele>
        <time>2015-07-25T09:53:54Z</time>
      </trkpt>
      <trkpt lat="42.71152" lon="7.56771">
        <ele>-9.475830078125</ele>
        <time>2015-07-25T09:54:08Z</time>
      </trkpt>
      <trkpt lat="42.71112" lon="7.56798">
        <ele>-9.475830078125</ele>
        <time>2015-07-25T09:54:21Z</time>
      </trkpt>
      <trkpt lat="42.71079" lon="7.56829">
        <ele>-9.475830078125</ele>
        <time>2015-07-25T09:54:33Z</time>
      </trkpt>
      <trkpt lat="42.7104" lon="7.56844">
        <ele>-8.9952392578125</ele>
        <time>2015-07-25T09:54:46Z</time>
      </trkpt>
      <trkpt lat="42.71008" lon="7.56863">
        <ele>-9.475830078125</ele>
        <time>2015-07-25T09:54:56Z</time>
      </trkpt>
      <trkpt lat="42.70977" lon="7.56894">
        <ele>-9.475830078125</ele>
        <time>2015-07-25T09:55:08Z</time>
      </trkpt>
      <trkpt lat="42.70944" lon="7.56922">
        <ele>-9.475830078125</ele>
        <time>2015-07-25T09:55:21Z</time>
      </trkpt>
      <trkpt lat="42.70916" lon="7.56951">
        <ele>-9.95654296875</ele>
        <time>2015-07-25T09:55:32Z</time>
      </trkpt>
      <trkpt lat="42.70881" lon="7.56978">
        <ele>-9.475830078125</ele>
        <time>2015-07-25T09:55:45Z</time>
      </trkpt>
      <trkpt lat="42.70847" lon="7.57014">
        <ele>-9.95654296875</ele>
        <time>2015-07-25T09:56:00Z</time>
      </trkpt>
      <trkpt lat="42.70795" lon="7.57045">
        <ele>-9.475830078125</ele>
        <time>2015-07-25T09:56:17Z</time>
      </trkpt>
      <trkpt lat="42.70764" lon="7.57074">
        <ele>-9.95654296875</ele>
        <time>2015-07-25T09:56:29Z</time>
      </trkpt>
      <trkpt lat="42.70732" lon="7.57099">
        <ele>-9.475830078125</ele>
        <time>2015-07-25T09:56:39Z</time>
      </trkpt>
      <trkpt lat="42.70709" lon="7.57132">
        <ele>-10.437255859375</ele>
        <time>2015-07-25T09:56:51Z</time>
      </trkpt>
      <trkpt lat="42.70673" lon="7.57168">
        <ele>-9.95654296875</ele>
        <time>2015-07-25T09:57:05Z</time>
      </trkpt>
      <trkpt lat="42.7063" lon="7.57228">
        <ele>-10.437255859375</ele>
        <time>2015-07-25T09:57:29Z</time>
      </trkpt>
      <trkpt lat="42.706" lon="7.57276">
        <ele>-10.437255859375</ele>
        <time>2015-07-25T09:57:46Z</time>
      </trkpt>
      <trkpt lat="42.70563" lon="7.57352">
        <ele>-10.437255859375</ele>
        <time>2015-07-25T09:58:11Z</time>
      </trkpt>
      <trkpt lat="42.70537" lon="7.57391">
        <ele>-10.437255859375</ele>
        <time>2015-07-25T09:58:24Z</time>
      </trkpt>
      <trkpt lat="42.7052" lon="7.57429">
        <ele>-9.95654296875</ele>
        <time>2015-07-25T09:58:36Z</time>
      </trkpt>
      <trkpt lat="42.70499" lon="7.57464">
        <ele>-9.475830078125</ele>
        <time>2015-07-25T09:58:49Z</time>
      </trkpt>
      <trkpt lat="42.70466" lon="7.57528">
        <ele>-10.437255859375</ele>
        <time>2015-07-25T09:59:09Z</time>
      </trkpt>
      <trkpt lat="42.70424" lon="7.57601">
        <ele>-9.95654296875</ele>
        <time>2015-07-25T09:59:35Z</time>
      </trkpt>
      <trkpt lat="42.70397" lon="7.57636">
        <ele>-9.95654296875</ele>
        <time>2015-07-25T09:59:50Z</time>
      </trkpt>
      <trkpt lat="42.70364" lon="7.57664">
        <ele>-9.95654296875</ele>
        <time>2015-07-25T10:00:02Z</time>
      </trkpt>
      <trkpt lat="42.70335" lon="7.57706">
        <ele>-10.437255859375</ele>
        <time>2015-07-25T10:00:16Z</time>
      </trkpt>
      <trkpt lat="42.70315" lon="7.5775">
        <ele>-10.437255859375</ele>
        <time>2015-07-25T10:00:29Z</time>
      </trkpt>
      <trkpt lat="42.70293" lon="7.57799">
        <ele>-9.95654296875</ele>
        <time>2015-07-25T10:00:45Z</time>
      </trkpt>
      <trkpt lat="42.70254" lon="7.57881">
        <ele>-10.437255859375</ele>
        <time>2015-07-25T10:01:13Z</time>
      </trkpt>
      <trkpt lat="42.70235" lon="7.57919">
        <ele>-10.437255859375</ele>
        <time>2015-07-25T10:01:26Z</time>
      </trkpt>
      <trkpt lat="42.70214" lon="7.57957">
        <ele>-9.95654296875</ele>
        <time>2015-07-25T10:01:39Z</time>
      </trkpt>
      <trkpt lat="42.70184" lon="7.57999">
        <ele>-10.917846679688</ele>
        <time>2015-07-25T10:01:55Z</time>
      </trkpt>
      <trkpt lat="42.70163" lon="7.58036">
        <ele>-9.95654296875</ele>
        <time>2015-07-25T10:02:09Z</time>
      </trkpt>
      <trkpt lat="42.70122" lon="7.58101">
        <ele>-10.437255859375</ele>
        <time>2015-07-25T10:02:32Z</time>
      </trkpt>
      <trkpt lat="42.70104" lon="7.58138">
        <ele>-10.437255859375</ele>
        <time>2015-07-25T10:02:45Z</time>
      </trkpt>
      <trkpt lat="42.70068" lon="7.58212">
        <ele>-10.917846679688</ele>
        <time>2015-07-25T10:03:10Z</time>
      </trkpt>
      <trkpt lat="42.70046" lon="7.58252">
        <ele>-10.437255859375</ele>
        <time>2015-07-25T10:03:24Z</time>
      </trkpt>
      <trkpt lat="42.70028" lon="7.58296">
        <ele>-10.917846679688</ele>
        <time>2015-07-25T10:03:39Z</time>
      </trkpt>
      <trkpt lat="42.7001" lon="7.58337">
        <ele>-10.437255859375</ele>
        <time>2015-07-25T10:03:54Z</time>
      </trkpt>
      <trkpt lat="42.69993" lon="7.58373">
        <ele>-10.917846679688</ele>
        <time>2015-07-25T10:04:08Z</time>
      </trkpt>
      <trkpt lat="42.69967" lon="7.58416">
        <ele>-10.437255859375</ele>
        <time>2015-07-25T10:04:23Z</time>
      </trkpt>
      <trkpt lat="42.69909" lon="7.58471">
        <ele>-10.917846679688</ele>
        <time>2015-07-25T10:04:47Z</time>
      </trkpt>
      <trkpt lat="42.69871" lon="7.58534">
        <ele>-10.917846679688</ele>
        <time>2015-07-25T10:05:11Z</time>
      </trkpt>
      <trkpt lat="42.69842" lon="7.58558">
        <ele>-10.437255859375</ele>
        <time>2015-07-25T10:05:23Z</time>
      </trkpt>
      <trkpt lat="42.69809" lon="7.58586">
        <ele>-9.95654296875</ele>
        <time>2015-07-25T10:05:35Z</time>
      </trkpt>
      <trkpt lat="42.6978" lon="7.58622">
        <ele>-10.437255859375</ele>
        <time>2015-07-25T10:05:48Z</time>
      </trkpt>
      <trkpt lat="42.69759" lon="7.58656">
        <ele>-10.437255859375</ele>
        <time>2015-07-25T10:06:00Z</time>
      </trkpt>
      <trkpt lat="42.69706" lon="7.58699">
        <ele>-9.95654296875</ele>
        <time>2015-07-25T10:06:21Z</time>
      </trkpt>
      <trkpt lat="42.69673" lon="7.58724">
        <ele>-10.437255859375</ele>
        <time>2015-07-25T10:06:32Z</time>
      </trkpt>
      <trkpt lat="42.69641" lon="7.58754">
        <ele>-10.437255859375</ele>
        <time>2015-07-25T10:06:45Z</time>
      </trkpt>
      <trkpt lat="42.69611" lon="7.58789">
        <ele>-10.917846679688</ele>
        <time>2015-07-25T10:06:58Z</time>
      </trkpt>
      <trkpt lat="42.69579" lon="7.58824">
        <ele>-10.437255859375</ele>
        <time>2015-07-25T10:07:11Z</time>
      </trkpt>
      <trkpt lat="42.69545" lon="7.58833">
        <ele>-10.917846679688</ele>
        <time>2015-07-25T10:07:23Z</time>
      </trkpt>
      <trkpt lat="42.69516" lon="7.58857">
        <ele>-11.3984375</ele>
        <time>2015-07-25T10:07:35Z</time>
      </trkpt>
      <trkpt lat="42.69484" lon="7.58897">
        <ele>-10.917846679688</ele>
        <time>2015-07-25T10:07:51Z</time>
      </trkpt>
      <trkpt lat="42.69457" lon="7.58937">
        <ele>-10.917846679688</ele>
        <time>2015-07-25T10:08:08Z</time>
      </trkpt>
      <trkpt lat="42.69433" lon="7.5898">
        <ele>-10.917846679688</ele>
        <time>2015-07-25T10:08:26Z</time>
      </trkpt>
      <trkpt lat="42.6941" lon="7.59027">
        <ele>-11.3984375</ele>
        <time>2015-07-25T10:08:48Z</time>
      </trkpt>
      <trkpt lat="42.69389" lon="7.59068">
        <ele>-10.917846679688</ele>
        <time>2015-07-25T10:09:05Z</time>
      </trkpt>
      <trkpt lat="42.6937" lon="7.59108">
        <ele>-10.917846679688</ele>
        <time>2015-07-25T10:09:19Z</time>
      </trkpt>
      <trkpt lat="42.69336" lon="7.59149">
        <ele>-11.3984375</ele>
        <time>2015-07-25T10:09:34Z</time>
      </trkpt>
      <trkpt lat="42.69306" lon="7.59173">
        <ele>-10.917846679688</ele>
        <time>2015-07-25T10:09:46Z</time>
      </trkpt>
      <trkpt lat="42.69281" lon="7.59205">
        <ele>-10.437255859375</ele>
        <time>2015-07-25T10:09:58Z</time>
      </trkpt>
      <trkpt lat="42.69254" lon="7.5923">
        <ele>-10.917846679688</ele>
        <time>2015-07-25T10:10:09Z</time>
      </trkpt>
      <trkpt lat="42.69221" lon="7.59263">
        <ele>-10.917846679688</ele>
        <time>2015-07-25T10:10:23Z</time>
      </trkpt>
      <trkpt lat="42.69196" lon="7.59288">
        <ele>-10.437255859375</ele>
        <time>2015-07-25T10:10:36Z</time>
      </trkpt>
      <trkpt lat="42.69171" lon="7.59315">
        <ele>-10.437255859375</ele>
        <time>2015-07-25T10:10:47Z</time>
      </trkpt>
      <trkpt lat="42.69143" lon="7.59337">
        <ele>-11.3984375</ele>
        <time>2015-07-25T10:10:58Z</time>
      </trkpt>
      <trkpt lat="42.69111" lon="7.59374">
        <ele>-10.437255859375</ele>
        <time>2015-07-25T10:11:14Z</time>
      </trkpt>
      <trkpt lat="42.69079" lon="7.59412">
        <ele>-10.917846679688</ele>
        <time>2015-07-25T10:11:28Z</time>
      </trkpt>
      <trkpt lat="42.69051" lon="7.59449">
        <ele>-10.917846679688</ele>
        <time>2015-07-25T10:11:42Z</time>
      </trkpt>
      <trkpt lat="42.69024" lon="7.59482">
        <ele>-10.917846679688</ele>
        <time>2015-07-25T10:11:54Z</time>
      </trkpt>
      <trkpt lat="42.68991" lon="7.59518">
        <ele>-10.917846679688</ele>
        <time>2015-07-25T10:12:08Z</time>
      </trkpt>
      <trkpt lat="42.68962" lon="7.59549">
        <ele>-10.917846679688</ele>
        <time>2015-07-25T10:12:21Z</time>
      </trkpt>
      <trkpt lat="42.68934" lon="7.59577">
        <ele>-10.437255859375</ele>
        <time>2015-07-25T10:12:34Z</time>
      </trkpt>
      <trkpt lat="42.68892" lon="7.59625">
        <ele>-10.437255859375</ele>
        <time>2015-07-25T10:12:55Z</time>
      </trkpt>
      <trkpt lat="42.68834" lon="7.59675">
        <ele>-10.917846679688</ele>
        <time>2015-07-25T10:13:19Z</time>
      </trkpt>
      <trkpt lat="42.68799" lon="7.59711">
        <ele>-10.917846679688</ele>
        <time>2015-07-25T10:13:34Z</time>
      </trkpt>
      <trkpt lat="42.68756" lon="7.5977">
        <ele>-10.917846679688</ele>
        <time>2015-07-25T10:13:55Z</time>
      </trkpt>
      <trkpt lat="42.68728" lon="7.5981">
        <ele>-11.3984375</ele>
        <time>2015-07-25T10:14:11Z</time>
      </trkpt>
      <trkpt lat="42.68706" lon="7.59844">
        <ele>-10.917846679688</ele>
        <time>2015-07-25T10:14:25Z</time>
      </trkpt>
      <trkpt lat="42.68685" lon="7.59919">
        <ele>-11.3984375</ele>
        <time>2015-07-25T10:14:55Z</time>
      </trkpt>
      <trkpt lat="42.68661" lon="7.59982">
        <ele>-11.3984375</ele>
        <time>2015-07-25T10:15:20Z</time>
      </trkpt>
      <trkpt lat="42.68638" lon="7.60051">
        <ele>-11.879150390625</ele>
        <time>2015-07-25T10:15:43Z</time>
      </trkpt>
      <trkpt lat="42.68621" lon="7.60106">
        <ele>-10.917846679688</ele>
        <time>2015-07-25T10:16:03Z</time>
      </trkpt>
      <trkpt lat="42.68602" lon="7.60175">
        <ele>-11.879150390625</ele>
        <time>2015-07-25T10:16:27Z</time>
      </trkpt>
      <trkpt lat="42.68603" lon="7.6023">
        <ele>-10.917846679688</ele>
        <time>2015-07-25T10:16:46Z</time>
      </trkpt>
      <trkpt lat="42.68603" lon="7.60276">
        <ele>-11.879150390625</ele>
        <time>2015-07-25T10:17:08Z</time>
      </trkpt>
      <trkpt lat="42.68589" lon="7.60345">
        <ele>-11.879150390625</ele>
        <time>2015-07-25T10:17:35Z</time>
      </trkpt>
      <trkpt lat="42.68575" lon="7.60386">
        <ele>-11.3984375</ele>
        <time>2015-07-25T10:17:49Z</time>
      </trkpt>
      <trkpt lat="42.6856" lon="7.60457">
        <ele>-11.879150390625</ele>
        <time>2015-07-25T10:18:14Z</time>
      </trkpt>
      <trkpt lat="42.68544" lon="7.60522">
        <ele>-11.879150390625</ele>
        <time>2015-07-25T10:18:42Z</time>
      </trkpt>
      <trkpt lat="42.68525" lon="7.60594">
        <ele>-11.879150390625</ele>
        <time>2015-07-25T10:19:09Z</time>
      </trkpt>
      <trkpt lat="42.685" lon="7.60645">
        <ele>-11.3984375</ele>
        <time>2015-07-25T10:19:30Z</time>
      </trkpt>
      <trkpt lat="42.6848" lon="7.60689">
        <ele>-11.3984375</ele>
        <time>2015-07-25T10:19:48Z</time>
      </trkpt>
      <trkpt lat="42.68448" lon="7.60758">
        <ele>-11.3984375</ele>
        <time>2015-07-25T10:20:15Z</time>
      </trkpt>
      <trkpt lat="42.68412" lon="7.6082">
        <ele>-11.3984375</ele>
        <time>2015-07-25T10:20:38Z</time>
      </trkpt>
      <trkpt lat="42.68363" lon="7.60876">
        <ele>-10.917846679688</ele>
        <time>2015-07-25T10:21:04Z</time>
      </trkpt>
      <trkpt lat="42.68317" lon="7.60894">
        <ele>-10.917846679688</ele>
        <time>2015-07-25T10:21:21Z</time>
      </trkpt>
      <trkpt lat="42.68292" lon="7.60926">
        <ele>-11.3984375</ele>
        <time>2015-07-25T10:21:34Z</time>
      </trkpt>
      <trkpt lat="42.68279" lon="7.60978">
        <ele>-12.35986328125</ele>
        <time>2015-07-25T10:21:52Z</time>
      </trkpt>
      <trkpt lat="42.68263" lon="7.61043">
        <ele>-11.879150390625</ele>
        <time>2015-07-25T10:22:12Z</time>
      </trkpt>
      <trkpt lat="42.68238" lon="7.61114">
        <ele>-11.3984375</ele>
        <time>2015-07-25T10:22:37Z</time>
      </trkpt>
      <trkpt lat="42.68229" lon="7.61164">
        <ele>-11.879150390625</ele>
        <time>2015-07-25T10:22:56Z</time>
      </trkpt>
      <trkpt lat="42.68221" lon="7.61206">
        <ele>-11.879150390625</ele>
        <time>2015-07-25T10:23:11Z</time>
      </trkpt>
      <trkpt lat="42.68208" lon="7.61275">
        <ele>-11.879150390625</ele>
        <time>2015-07-25T10:23:38Z</time>
      </trkpt>
      <trkpt lat="42.68194" lon="7.6132">
        <ele>-11.3984375</ele>
        <time>2015-07-25T10:23:55Z</time>
      </trkpt>
      <trkpt lat="42.68161" lon="7.61389">
        <ele>-12.35986328125</ele>
        <time>2015-07-25T10:24:23Z</time>
      </trkpt>
      <trkpt lat="42.68138" lon="7.61423">
        <ele>-11.879150390625</ele>
        <time>2015-07-25T10:24:37Z</time>
      </trkpt>
      <trkpt lat="42.68107" lon="7.61458">
        <ele>-11.3984375</ele>
        <time>2015-07-25T10:24:52Z</time>
      </trkpt>
      <trkpt lat="42.6808" lon="7.61492">
        <ele>-11.879150390625</ele>
        <time>2015-07-25T10:25:08Z</time>
      </trkpt>
      <trkpt lat="42.68047" lon="7.61569">
        <ele>-11.879150390625</ele>
        <time>2015-07-25T10:25:37Z</time>
      </trkpt>
      <trkpt lat="42.68034" lon="7.6161">
        <ele>-12.35986328125</ele>
        <time>2015-07-25T10:25:52Z</time>
      </trkpt>
      <trkpt lat="42.68019" lon="7.61652">
        <ele>-12.35986328125</ele>
        <time>2015-07-25T10:26:07Z</time>
      </trkpt>
      <trkpt lat="42.67988" lon="7.6172">
        <ele>-11.879150390625</ele>
        <time>2015-07-25T10:26:36Z</time>
      </trkpt>
      <trkpt lat="42.67953" lon="7.61774">
        <ele>-11.879150390625</ele>
        <time>2015-07-25T10:26:59Z</time>
      </trkpt>
      <trkpt lat="42.67929" lon="7.61809">
        <ele>-11.3984375</ele>
        <time>2015-07-25T10:27:14Z</time>
      </trkpt>
      <trkpt lat="42.67892" lon="7.61862">
        <ele>-11.3984375</ele>
        <time>2015-07-25T10:27:38Z</time>
      </trkpt>
      <trkpt lat="42.67869" lon="7.619">
        <ele>-11.879150390625</ele>
        <time>2015-07-25T10:27:54Z</time>
      </trkpt>
      <trkpt lat="42.67834" lon="7.61949">
        <ele>-10.917846679688</ele>
        <time>2015-07-25T10:28:17Z</time>
      </trkpt>
      <trkpt lat="42.67808" lon="7.61976">
        <ele>-11.3984375</ele>
        <time>2015-07-25T10:28:28Z</time>
      </trkpt>
      <trkpt lat="42.67774" lon="7.62041">
        <ele>-11.879150390625</ele>
        <time>2015-07-25T10:28:55Z</time>
      </trkpt>
      <trkpt lat="42.67759" lon="7.62092">
        <ele>-11.3984375</ele>
        <time>2015-07-25T10:29:14Z</time>
      </trkpt>
      <trkpt lat="42.67741" lon="7.62143">
        <ele>-12.35986328125</ele>
        <time>2015-07-25T10:29:34Z</time>
      </trkpt>
      <trkpt lat="42.67718" lon="7.62208">
        <ele>-12.35986328125</ele>
        <time>2015-07-25T10:29:58Z</time>
      </trkpt>
      <trkpt lat="42.6768" lon="7.62265">
        <ele>-11.879150390625</ele>
        <time>2015-07-25T10:30:23Z</time>
      </trkpt>
      <trkpt lat="42.67672" lon="7.62313">
        <ele>-12.35986328125</ele>
        <time>2015-07-25T10:30:39Z</time>
      </trkpt>
      <trkpt lat="42.67658" lon="7.62353">
        <ele>-11.879150390625</ele>
        <time>2015-07-25T10:30:53Z</time>
      </trkpt>
      <trkpt lat="42.67637" lon="7.62386">
        <ele>-11.879150390625</ele>
        <time>2015-07-25T10:31:06Z</time>
      </trkpt>
      <trkpt lat="42.67603" lon="7.62447">
        <ele>-11.879150390625</ele>
        <time>2015-07-25T10:31:29Z</time>
      </trkpt>
      <trkpt lat="42.67576" lon="7.62509">
        <ele>-12.840454101562</ele>
        <time>2015-07-25T10:31:54Z</time>
      </trkpt>
      <trkpt lat="42.67539" lon="7.62576">
        <ele>-12.35986328125</ele>
        <time>2015-07-25T10:32:20Z</time>
      </trkpt>
      <trkpt lat="42.67522" lon="7.62612">
        <ele>-12.840454101562</ele>
        <time>2015-07-25T10:32:34Z</time>
      </trkpt>
      <trkpt lat="42.67506" lon="7.62651">
        <ele>-12.840454101562</ele>
        <time>2015-07-25T10:32:49Z</time>
      </trkpt>
      <trkpt lat="42.67494" lon="7.62696">
        <ele>-12.840454101562</ele>
        <time>2015-07-25T10:33:05Z</time>
      </trkpt>
      <trkpt lat="42.67473" lon="7.62762">
        <ele>-12.35986328125</ele>
        <time>2015-07-25T10:33:31Z</time>
      </trkpt>
      <trkpt lat="42.67444" lon="7.62831">
        <ele>-12.840454101562</ele>
        <time>2015-07-25T10:33:58Z</time>
      </trkpt>
      <trkpt lat="42.67423" lon="7.62869">
        <ele>-12.840454101562</ele>
        <time>2015-07-25T10:34:12Z</time>
      </trkpt>
      <trkpt lat="42.67401" lon="7.62906">
        <ele>-12.840454101562</ele>
        <time>2015-07-25T10:34:25Z</time>
      </trkpt>
      <trkpt lat="42.67369" lon="7.62976">
        <ele>-12.840454101562</ele>
        <time>2015-07-25T10:34:50Z</time>
      </trkpt>
      <trkpt lat="42.67328" lon="7.63026">
        <ele>-12.840454101562</ele>
        <time>2015-07-25T10:35:12Z</time>
      </trkpt>
      <trkpt lat="42.673" lon="7.63098">
        <ele>-12.840454101562</ele>
        <time>2015-07-25T10:35:39Z</time>
      </trkpt>
      <trkpt lat="42.67285" lon="7.63144">
        <ele>-12.840454101562</ele>
        <time>2015-07-25T10:35:58Z</time>
      </trkpt>
      <trkpt lat="42.67266" lon="7.63178">
        <ele>-12.35986328125</ele>
        <time>2015-07-25T10:36:11Z</time>
      </trkpt>
      <trkpt lat="42.67247" lon="7.63219">
        <ele>-12.840454101562</ele>
        <time>2015-07-25T10:36:26Z</time>
      </trkpt>
      <trkpt lat="42.67224" lon="7.63283">
        <ele>-12.840454101562</ele>
        <time>2015-07-25T10:36:50Z</time>
      </trkpt>
      <trkpt lat="42.67182" lon="7.63334">
        <ele>-12.840454101562</ele>
        <time>2015-07-25T10:37:12Z</time>
      </trkpt>
      <trkpt lat="42.67162" lon="7.63382">
        <ele>-12.840454101562</ele>
        <time>2015-07-25T10:37:30Z</time>
      </trkpt>
      <trkpt lat="42.67132" lon="7.63447">
        <ele>-12.840454101562</ele>
        <time>2015-07-25T10:37:57Z</time>
      </trkpt>
      <trkpt lat="42.67101" lon="7.63503">
        <ele>-12.840454101562</ele>
        <time>2015-07-25T10:38:23Z</time>
      </trkpt>
      <trkpt lat="42.67069" lon="7.63539">
        <ele>-12.840454101562</ele>
        <time>2015-07-25T10:38:40Z</time>
      </trkpt>
      <trkpt lat="42.6704" lon="7.63588">
        <ele>-12.840454101562</ele>
        <time>2015-07-25T10:39:01Z</time>
      </trkpt>
      <trkpt lat="42.67005" lon="7.63642">
        <ele>-13.321044921875</ele>
        <time>2015-07-25T10:39:26Z</time>
      </trkpt>
      <trkpt lat="42.66968" lon="7.63699">
        <ele>-12.35986328125</ele>
        <time>2015-07-25T10:39:51Z</time>
      </trkpt>
      <trkpt lat="42.66929" lon="7.63755">
        <ele>-13.321044921875</ele>
        <time>2015-07-25T10:40:14Z</time>
      </trkpt>
      <trkpt lat="42.669" lon="7.63809">
        <ele>-13.321044921875</ele>
        <time>2015-07-25T10:40:39Z</time>
      </trkpt>
      <trkpt lat="42.66876" lon="7.63838">
        <ele>-12.840454101562</ele>
        <time>2015-07-25T10:40:52Z</time>
      </trkpt>
      <trkpt lat="42.66853" lon="7.6389">
        <ele>-13.321044921875</ele>
        <time>2015-07-25T10:41:13Z</time>
      </trkpt>
      <trkpt lat="42.66817" lon="7.63949">
        <ele>-13.321044921875</ele>
        <time>2015-07-25T10:41:36Z</time>
      </trkpt>
      <trkpt lat="42.6679" lon="7.64019">
        <ele>-12.840454101562</ele>
        <time>2015-07-25T10:42:01Z</time>
      </trkpt>
      <trkpt lat="42.66775" lon="7.64065">
        <ele>-12.35986328125</ele>
        <time>2015-07-25T10:42:20Z</time>
      </trkpt>
      <trkpt lat="42.66731" lon="7.64125">
        <ele>-12.840454101562</ele>
        <time>2015-07-25T10:42:46Z</time>
      </trkpt>
      <trkpt lat="42.66702" lon="7.64176">
        <ele>-13.321044921875</ele>
        <time>2015-07-25T10:43:07Z</time>
      </trkpt>
      <trkpt lat="42.66683" lon="7.64239">
        <ele>-13.321044921875</ele>
        <time>2015-07-25T10:43:31Z</time>
      </trkpt>
      <trkpt lat="42.66652" lon="7.6429">
        <ele>-12.840454101562</ele>
        <time>2015-07-25T10:43:55Z</time>
      </trkpt>
      <trkpt lat="42.66613" lon="7.64355">
        <ele>-13.321044921875</ele>
        <time>2015-07-25T10:44:23Z</time>
      </trkpt>
      <trkpt lat="42.66584" lon="7.64416">
        <ele>-13.321044921875</ele>
        <time>2015-07-25T10:44:47Z</time>
      </trkpt>
      <trkpt lat="42.66555" lon="7.64483">
        <ele>-13.321044921875</ele>
        <time>2015-07-25T10:45:13Z</time>
      </trkpt>
      <trkpt lat="42.6652" lon="7.6453">
        <ele>-13.321044921875</ele>
        <time>2015-07-25T10:45:33Z</time>
      </trkpt>
      <trkpt lat="42.66494" lon="7.64563">
        <ele>-12.840454101562</ele>
        <time>2015-07-25T10:45:47Z</time>
      </trkpt>
      <trkpt lat="42.66445" lon="7.64612">
        <ele>-12.840454101562</ele>
        <time>2015-07-25T10:46:11Z</time>
      </trkpt>
      <trkpt lat="42.66395" lon="7.64652">
        <ele>-12.840454101562</ele>
        <time>2015-07-25T10:46:32Z</time>
      </trkpt>
      <trkpt lat="42.66373" lon="7.64684">
        <ele>-12.840454101562</ele>
        <time>2015-07-25T10:46:44Z</time>
      </trkpt>
      <trkpt lat="42.6633" lon="7.64736">
        <ele>-13.321044921875</ele>
        <time>2015-07-25T10:47:08Z</time>
      </trkpt>
      <trkpt lat="42.66287" lon="7.64786">
        <ele>-12.840454101562</ele>
        <time>2015-07-25T10:47:32Z</time>
      </trkpt>
      <trkpt lat="42.66243" lon="7.64831">
        <ele>-13.321044921875</ele>
        <time>2015-07-25T10:47:54Z</time>
      </trkpt>
      <trkpt lat="42.66218" lon="7.64863">
        <ele>-13.321044921875</ele>
        <time>2015-07-25T10:48:07Z</time>
      </trkpt>
      <trkpt lat="42.66185" lon="7.64899">
        <ele>-12.840454101562</ele>
        <time>2015-07-25T10:48:22Z</time>
      </trkpt>
      <trkpt lat="42.6616" lon="7.64933">
        <ele>-13.8017578125</ele>
        <time>2015-07-25T10:48:35Z</time>
      </trkpt>
      <trkpt lat="42.66121" lon="7.64995">
        <ele>-13.321044921875</ele>
        <time>2015-07-25T10:48:59Z</time>
      </trkpt>
      <trkpt lat="42.66087" lon="7.65036">
        <ele>-13.8017578125</ele>
        <time>2015-07-25T10:49:15Z</time>
      </trkpt>
      <trkpt lat="42.66066" lon="7.65071">
        <ele>-12.840454101562</ele>
        <time>2015-07-25T10:49:26Z</time>
      </trkpt>
      <trkpt lat="42.6602" lon="7.6513">
        <ele>-13.321044921875</ele>
        <time>2015-07-25T10:49:50Z</time>
      </trkpt>
      <trkpt lat="42.65982" lon="7.65176">
        <ele>-13.321044921875</ele>
        <time>2015-07-25T10:50:13Z</time>
      </trkpt>
      <trkpt lat="42.65955" lon="7.6521">
        <ele>-13.8017578125</ele>
        <time>2015-07-25T10:50:27Z</time>
      </trkpt>
      <trkpt lat="42.65908" lon="7.65262">
        <ele>-12.840454101562</ele>
        <time>2015-07-25T10:50:49Z</time>
      </trkpt>
      <trkpt lat="42.65883" lon="7.65293">
        <ele>-13.321044921875</ele>
        <time>2015-07-25T10:51:03Z</time>
      </trkpt>
      <trkpt lat="42.65855" lon="7.65317">
        <ele>-12.840454101562</ele>
        <time>2015-07-25T10:51:16Z</time>
      </trkpt>
      <trkpt lat="42.65831" lon="7.6535">
        <ele>-13.321044921875</ele>
        <time>2015-07-25T10:51:30Z</time>
      </trkpt>
      <trkpt lat="42.65777" lon="7.65401">
        <ele>-13.321044921875</ele>
        <time>2015-07-25T10:51:54Z</time>
      </trkpt>
      <trkpt lat="42.65751" lon="7.65448">
        <ele>-12.840454101562</ele>
        <time>2015-07-25T10:52:12Z</time>
      </trkpt>
      <trkpt lat="42.65705" lon="7.65476">
        <ele>-13.321044921875</ele>
        <time>2015-07-25T10:52:33Z</time>
      </trkpt>
      <trkpt lat="42.65676" lon="7.65512">
        <ele>-12.840454101562</ele>
        <time>2015-07-25T10:52:48Z</time>
      </trkpt>
      <trkpt lat="42.65636" lon="7.65549">
        <ele>-13.321044921875</ele>
        <time>2015-07-25T10:53:04Z</time>
      </trkpt>
      <trkpt lat="42.65592" lon="7.65602">
        <ele>-13.321044921875</ele>
        <time>2015-07-25T10:53:25Z</time>
      </trkpt>
      <trkpt lat="42.65541" lon="7.65665">
        <ele>-13.321044921875</ele>
        <time>2015-07-25T10:53:50Z</time>
      </trkpt>
      <trkpt lat="42.65491" lon="7.6572">
        <ele>-13.321044921875</ele>
        <time>2015-07-25T10:54:16Z</time>
      </trkpt>
      <trkpt lat="42.65467" lon="7.65749">
        <ele>-13.321044921875</ele>
        <time>2015-07-25T10:54:29Z</time>
      </trkpt>
      <trkpt lat="42.65414" lon="7.6581">
        <ele>-13.321044921875</ele>
        <time>2015-07-25T10:54:55Z</time>
      </trkpt>
      <trkpt lat="42.65369" lon="7.65866">
        <ele>-13.321044921875</ele>
        <time>2015-07-25T10:55:21Z</time>
      </trkpt>
      <trkpt lat="42.65341" lon="7.65905">
        <ele>-12.840454101562</ele>
        <time>2015-07-25T10:55:37Z</time>
      </trkpt>
      <trkpt lat="42.65291" lon="7.65965">
        <ele>-13.8017578125</ele>
        <time>2015-07-25T10:56:03Z</time>
      </trkpt>
      <trkpt lat="42.65247" lon="7.66015">
        <ele>-12.35986328125</ele>
        <time>2015-07-25T10:56:25Z</time>
      </trkpt>
      <trkpt lat="42.65203" lon="7.66068">
        <ele>-13.321044921875</ele>
        <time>2015-07-25T10:56:47Z</time>
      </trkpt>
      <trkpt lat="42.65177" lon="7.66098">
        <ele>-13.321044921875</ele>
        <time>2015-07-25T10:56:59Z</time>
      </trkpt>
      <trkpt lat="42.65151" lon="7.66128">
        <ele>-13.321044921875</ele>
        <time>2015-07-25T10:57:10Z</time>
      </trkpt>
      <trkpt lat="42.65109" lon="7.6618">
        <ele>-13.321044921875</ele>
        <time>2015-07-25T10:57:31Z</time>
      </trkpt>
      <trkpt lat="42.65082" lon="7.66207">
        <ele>-12.840454101562</ele>
        <time>2015-07-25T10:57:45Z</time>
      </trkpt>
      <trkpt lat="42.65042" lon="7.66262">
        <ele>-13.321044921875</ele>
        <time>2015-07-25T10:58:07Z</time>
      </trkpt>
      <trkpt lat="42.65009" lon="7.6631">
        <ele>-13.321044921875</ele>
        <time>2015-07-25T10:58:25Z</time>
      </trkpt>
      <trkpt lat="42.64984" lon="7.6634">
        <ele>-13.8017578125</ele>
        <time>2015-07-25T10:58:36Z</time>
      </trkpt>
      <trkpt lat="42.64963" lon="7.66374">
        <ele>-13.8017578125</ele>
        <time>2015-07-25T10:58:47Z</time>
      </trkpt>
      <trkpt lat="42.64943" lon="7.66407">
        <ele>-13.321044921875</ele>
        <time>2015-07-25T10:59:00Z</time>
      </trkpt>
      <trkpt lat="42.64923" lon="7.66441">
        <ele>-13.8017578125</ele>
        <time>2015-07-25T10:59:12Z</time>
      </trkpt>
      <trkpt lat="42.64886" lon="7.66502">
        <ele>-13.8017578125</ele>
        <time>2015-07-25T10:59:37Z</time>
      </trkpt>
      <trkpt lat="42.64863" lon="7.66538">
        <ele>-13.321044921875</ele>
        <time>2015-07-25T10:59:49Z</time>
      </trkpt>
      <trkpt lat="42.64845" lon="7.66576">
        <ele>-14.282470703125</ele>
        <time>2015-07-25T11:00:03Z</time>
      </trkpt>
      <trkpt lat="42.64797" lon="7.66631">
        <ele>-12.35986328125</ele>
        <time>2015-07-25T11:00:26Z</time>
      </trkpt>
      <trkpt lat="42.6477" lon="7.66664">
        <ele>-13.321044921875</ele>
        <time>2015-07-25T11:00:38Z</time>
      </trkpt>
      <trkpt lat="42.64751" lon="7.66699">
        <ele>-12.840454101562</ele>
        <time>2015-07-25T11:00:50Z</time>
      </trkpt>
      <trkpt lat="42.64721" lon="7.66758">
        <ele>-13.8017578125</ele>
        <time>2015-07-25T11:01:13Z</time>
      </trkpt>
      <trkpt lat="42.64698" lon="7.66799">
        <ele>-13.8017578125</ele>
        <time>2015-07-25T11:01:28Z</time>
      </trkpt>
      <trkpt lat="42.64677" lon="7.66831">
        <ele>-13.321044921875</ele>
        <time>2015-07-25T11:01:39Z</time>
      </trkpt>
      <trkpt lat="42.6464" lon="7.66884">
        <ele>-12.840454101562</ele>
        <time>2015-07-25T11:02:00Z</time>
      </trkpt>
      <trkpt lat="42.64607" lon="7.66941">
        <ele>-13.321044921875</ele>
        <time>2015-07-25T11:02:24Z</time>
      </trkpt>
      <trkpt lat="42.64584" lon="7.66974">
        <ele>-12.840454101562</ele>
        <time>2015-07-25T11:02:37Z</time>
      </trkpt>
      <trkpt lat="42.64556" lon="7.67009">
        <ele>-13.321044921875</ele>
        <time>2015-07-25T11:02:50Z</time>
      </trkpt>
      <trkpt lat="42.64527" lon="7.67042">
        <ele>-13.8017578125</ele>
        <time>2015-07-25T11:03:03Z</time>
      </trkpt>
      <trkpt lat="42.64492" lon="7.67074">
        <ele>-13.321044921875</ele>
        <time>2015-07-25T11:03:17Z</time>
      </trkpt>
      <trkpt lat="42.64449" lon="7.67139">
        <ele>-13.8017578125</ele>
        <time>2015-07-25T11:03:40Z</time>
      </trkpt>
      <trkpt lat="42.64427" lon="7.67172">
        <ele>-13.321044921875</ele>
        <time>2015-07-25T11:03:52Z</time>
      </trkpt>
      <trkpt lat="42.64404" lon="7.67205">
        <ele>-12.840454101562</ele>
        <time>2015-07-25T11:04:05Z</time>
      </trkpt>
      <trkpt lat="42.64369" lon="7.67246">
        <ele>-13.321044921875</ele>
        <time>2015-07-25T11:04:22Z</time>
      </trkpt>
      <trkpt lat="42.64339" lon="7.67278">
        <ele>-13.8017578125</ele>
        <time>2015-07-25T11:04:35Z</time>
      </trkpt>
      <trkpt lat="42.64317" lon="7.67312">
        <ele>-14.282470703125</ele>
        <time>2015-07-25T11:04:47Z</time>
      </trkpt>
      <trkpt lat="42.64277" lon="7.67375">
        <ele>-13.8017578125</ele>
        <time>2015-07-25T11:05:11Z</time>
      </trkpt>
      <trkpt lat="42.64245" lon="7.67413">
        <ele>-14.282470703125</ele>
        <time>2015-07-25T11:05:26Z</time>
      </trkpt>
      <trkpt lat="42.64221" lon="7.67447">
        <ele>-13.8017578125</ele>
        <time>2015-07-25T11:05:39Z</time>
      </trkpt>
      <trkpt lat="42.642" lon="7.67483">
        <ele>-13.8017578125</ele>
        <time>2015-07-25T11:05:53Z</time>
      </trkpt>
      <trkpt lat="42.6417" lon="7.67522">
        <ele>-13.8017578125</ele>
        <time>2015-07-25T11:06:10Z</time>
      </trkpt>
      <trkpt lat="42.64142" lon="7.67553">
        <ele>-13.321044921875</ele>
        <time>2015-07-25T11:06:23Z</time>
      </trkpt>
      <trkpt lat="42.64111" lon="7.67586">
        <ele>-13.8017578125</ele>
        <time>2015-07-25T11:06:36Z</time>
      </trkpt>
      <trkpt lat="42.64084" lon="7.67626">
        <ele>-14.282470703125</ele>
        <time>2015-07-25T11:06:49Z</time>
      </trkpt>
      <trkpt lat="42.64061" lon="7.67657">
        <ele>-14.282470703125</ele>
        <time>2015-07-25T11:07:01Z</time>
      </trkpt>
      <trkpt lat="42.64024" lon="7.67716">
        <ele>-14.282470703125</ele>
        <time>2015-07-25T11:07:23Z</time>
      </trkpt>
      <trkpt lat="42.64001" lon="7.67751">
        <ele>-14.282470703125</ele>
        <time>2015-07-25T11:07:36Z</time>
      </trkpt>
      <trkpt lat="42.63967" lon="7.67815">
        <ele>-14.282470703125</ele>
        <time>2015-07-25T11:08:00Z</time>
      </trkpt>
      <trkpt lat="42.63927" lon="7.67868">
        <ele>-14.282470703125</ele>
        <time>2015-07-25T11:08:21Z</time>
      </trkpt>
      <trkpt lat="42.639" lon="7.67899">
        <ele>-13.8017578125</ele>
        <time>2015-07-25T11:08:34Z</time>
      </trkpt>
      <trkpt lat="42.63876" lon="7.67935">
        <ele>-14.282470703125</ele>
        <time>2015-07-25T11:08:46Z</time>
      </trkpt>
      <trkpt lat="42.63844" lon="7.67986">
        <ele>-14.763061523438</ele>
        <time>2015-07-25T11:09:05Z</time>
      </trkpt>
      <trkpt lat="42.6382" lon="7.6802">
        <ele>-14.282470703125</ele>
        <time>2015-07-25T11:09:17Z</time>
      </trkpt>
      <trkpt lat="42.63783" lon="7.68072">
        <ele>-14.282470703125</ele>
        <time>2015-07-25T11:09:38Z</time>
      </trkpt>
      <trkpt lat="42.63739" lon="7.6813">
        <ele>-14.282470703125</ele>
        <time>2015-07-25T11:10:01Z</time>
      </trkpt>
      <trkpt lat="42.6372" lon="7.68165">
        <ele>-14.282470703125</ele>
        <time>2015-07-25T11:10:13Z</time>
      </trkpt>
      <trkpt lat="42.63692" lon="7.68202">
        <ele>-13.8017578125</ele>
        <time>2015-07-25T11:10:27Z</time>
      </trkpt>
      <trkpt lat="42.63662" lon="7.68238">
        <ele>-14.282470703125</ele>
        <time>2015-07-25T11:10:40Z</time>
      </trkpt>
      <trkpt lat="42.63639" lon="7.6827">
        <ele>-14.763061523438</ele>
        <time>2015-07-25T11:10:53Z</time>
      </trkpt>
      <trkpt lat="42.63613" lon="7.68304">
        <ele>-14.282470703125</ele>
        <time>2015-07-25T11:11:06Z</time>
      </trkpt>
      <trkpt lat="42.63566" lon="7.68366">
        <ele>-13.8017578125</ele>
        <time>2015-07-25T11:11:30Z</time>
      </trkpt>
      <trkpt lat="42.63515" lon="7.6843">
        <ele>-14.282470703125</ele>
        <time>2015-07-25T11:11:55Z</time>
      </trkpt>
      <trkpt lat="42.63462" lon="7.68502">
        <ele>-14.282470703125</ele>
        <time>2015-07-25T11:12:22Z</time>
      </trkpt>
      <trkpt lat="42.63439" lon="7.68538">
        <ele>-14.763061523438</ele>
        <time>2015-07-25T11:12:34Z</time>
      </trkpt>
      <trkpt lat="42.63413" lon="7.68567">
        <ele>-14.282470703125</ele>
        <time>2015-07-25T11:12:46Z</time>
      </trkpt>
      <trkpt lat="42.63383" lon="7.68603">
        <ele>-13.8017578125</ele>
        <time>2015-07-25T11:12:59Z</time>
      </trkpt>
      <trkpt lat="42.63353" lon="7.68632">
        <ele>-14.282470703125</ele>
        <time>2015-07-25T11:13:10Z</time>
      </trkpt>
      <trkpt lat="42.63318" lon="7.68669">
        <ele>-13.8017578125</ele>
        <time>2015-07-25T11:13:23Z</time>
      </trkpt>
      <trkpt lat="42.63287" lon="7.68701">
        <ele>-14.282470703125</ele>
        <time>2015-07-25T11:13:35Z</time>
      </trkpt>
      <trkpt lat="42.63255" lon="7.6873">
        <ele>-14.282470703125</ele>
        <time>2015-07-25T11:13:47Z</time>
      </trkpt>
      <trkpt lat="42.63227" lon="7.6875">
        <ele>-14.282470703125</ele>
        <time>2015-07-25T11:13:57Z</time>
      </trkpt>
      <trkpt lat="42.63182" lon="7.68803">
        <ele>-14.763061523438</ele>
        <time>2015-07-25T11:14:16Z</time>
      </trkpt>
      <trkpt lat="42.63156" lon="7.68832">
        <ele>-14.282470703125</ele>
        <time>2015-07-25T11:14:27Z</time>
      </trkpt>
      <trkpt lat="42.63127" lon="7.68859">
        <ele>-14.282470703125</ele>
        <time>2015-07-25T11:14:39Z</time>
      </trkpt>
      <trkpt lat="42.63062" lon="7.68909">
        <ele>-14.763061523438</ele>
        <time>2015-07-25T11:15:03Z</time>
      </trkpt>
      <trkpt lat="42.63025" lon="7.68945">
        <ele>-14.763061523438</ele>
        <time>2015-07-25T11:15:18Z</time>
      </trkpt>
      <trkpt lat="42.62976" lon="7.69006">
        <ele>-15.24365234375</ele>
        <time>2015-07-25T11:15:43Z</time>
      </trkpt>
      <trkpt lat="42.62944" lon="7.69036">
        <ele>-14.763061523438</ele>
        <time>2015-07-25T11:15:57Z</time>
      </trkpt>
      <trkpt lat="42.6291" lon="7.69063">
        <ele>-14.282470703125</ele>
        <time>2015-07-25T11:16:10Z</time>
      </trkpt>
      <trkpt lat="42.62883" lon="7.69097">
        <ele>-14.763061523438</ele>
        <time>2015-07-25T11:16:23Z</time>
      </trkpt>
      <trkpt lat="42.62838" lon="7.69133">
        <ele>-13.8017578125</ele>
        <time>2015-07-25T11:16:42Z</time>
      </trkpt>
      <trkpt lat="42.62789" lon="7.69171">
        <ele>-14.763061523438</ele>
        <time>2015-07-25T11:17:02Z</time>
      </trkpt>
      <trkpt lat="42.62764" lon="7.69199">
        <ele>-15.24365234375</ele>
        <time>2015-07-25T11:17:14Z</time>
      </trkpt>
      <trkpt lat="42.62737" lon="7.69231">
        <ele>-14.763061523438</ele>
        <time>2015-07-25T11:17:27Z</time>
      </trkpt>
      <trkpt lat="42.62704" lon="7.69268">
        <ele>-14.763061523438</ele>
        <time>2015-07-25T11:17:41Z</time>
      </trkpt>
      <trkpt lat="42.62679" lon="7.69301">
        <ele>-14.763061523438</ele>
        <time>2015-07-25T11:17:53Z</time>
      </trkpt>
      <trkpt lat="42.6265" lon="7.69341">
        <ele>-14.763061523438</ele>
        <time>2015-07-25T11:18:08Z</time>
      </trkpt>
      <trkpt lat="42.62614" lon="7.69378">
        <ele>-15.24365234375</ele>
        <time>2015-07-25T11:18:24Z</time>
      </trkpt>
      <trkpt lat="42.62588" lon="7.69409">
        <ele>-15.24365234375</ele>
        <time>2015-07-25T11:18:37Z</time>
      </trkpt>
      <trkpt lat="42.62562" lon="7.69441">
        <ele>-14.763061523438</ele>
        <time>2015-07-25T11:18:50Z</time>
      </trkpt>
      <trkpt lat="42.62524" lon="7.69503">
        <ele>-15.24365234375</ele>
        <time>2015-07-25T11:19:13Z</time>
      </trkpt>
      <trkpt lat="42.62472" lon="7.69564">
        <ele>-14.763061523438</ele>
        <time>2015-07-25T11:19:37Z</time>
      </trkpt>
      <trkpt lat="42.62441" lon="7.69604">
        <ele>-14.282470703125</ele>
        <time>2015-07-25T11:19:52Z</time>
      </trkpt>
      <trkpt lat="42.62408" lon="7.69637">
        <ele>-14.763061523438</ele>
        <time>2015-07-25T11:20:05Z</time>
      </trkpt>
      <trkpt lat="42.62385" lon="7.69666">
        <ele>-14.763061523438</ele>
        <time>2015-07-25T11:20:16Z</time>
      </trkpt>
      <trkpt lat="42.6236" lon="7.69699">
        <ele>-14.282470703125</ele>
        <time>2015-07-25T11:20:28Z</time>
      </trkpt>
      <trkpt lat="42.6233" lon="7.69739">
        <ele>-14.763061523438</ele>
        <time>2015-07-25T11:20:43Z</time>
      </trkpt>
      <trkpt lat="42.62304" lon="7.69778">
        <ele>-14.763061523438</ele>
        <time>2015-07-25T11:20:57Z</time>
      </trkpt>
      <trkpt lat="42.62274" lon="7.69807">
        <ele>-14.282470703125</ele>
        <time>2015-07-25T11:21:09Z</time>
      </trkpt>
      <trkpt lat="42.62253" lon="7.6984">
        <ele>-14.763061523438</ele>
        <time>2015-07-25T11:21:21Z</time>
      </trkpt>
      <trkpt lat="42.62229" lon="7.69875">
        <ele>-14.763061523438</ele>
        <time>2015-07-25T11:21:33Z</time>
      </trkpt>
      <trkpt lat="42.62209" lon="7.69911">
        <ele>-15.24365234375</ele>
        <time>2015-07-25T11:21:46Z</time>
      </trkpt>
      <trkpt lat="42.62185" lon="7.69949">
        <ele>-15.24365234375</ele>
        <time>2015-07-25T11:22:00Z</time>
      </trkpt>
      <trkpt lat="42.62164" lon="7.69991">
        <ele>-14.763061523438</ele>
        <time>2015-07-25T11:22:14Z</time>
      </trkpt>
      <trkpt lat="42.62107" lon="7.70059">
        <ele>-14.763061523438</ele>
        <time>2015-07-25T11:22:43Z</time>
      </trkpt>
      <trkpt lat="42.62077" lon="7.70092">
        <ele>-15.24365234375</ele>
        <time>2015-07-25T11:22:55Z</time>
      </trkpt>
      <trkpt lat="42.62043" lon="7.70124">
        <ele>-15.24365234375</ele>
        <time>2015-07-25T11:23:10Z</time>
      </trkpt>
      <trkpt lat="42.61992" lon="7.70183">
        <ele>-14.763061523438</ele>
        <time>2015-07-25T11:23:33Z</time>
      </trkpt>
      <trkpt lat="42.61958" lon="7.70226">
        <ele>-14.763061523438</ele>
        <time>2015-07-25T11:23:49Z</time>
      </trkpt>
      <trkpt lat="42.61928" lon="7.70268">
        <ele>-14.763061523438</ele>
        <time>2015-07-25T11:24:04Z</time>
      </trkpt>
      <trkpt lat="42.61904" lon="7.703">
        <ele>-15.24365234375</ele>
        <time>2015-07-25T11:24:17Z</time>
      </trkpt>
      <trkpt lat="42.61871" lon="7.70341">
        <ele>-14.282470703125</ele>
        <time>2015-07-25T11:24:31Z</time>
      </trkpt>
      <trkpt lat="42.61846" lon="7.70371">
        <ele>-14.763061523438</ele>
        <time>2015-07-25T11:24:43Z</time>
      </trkpt>
      <trkpt lat="42.61813" lon="7.70399">
        <ele>-14.763061523438</ele>
        <time>2015-07-25T11:24:55Z</time>
      </trkpt>
      <trkpt lat="42.61785" lon="7.70436">
        <ele>-14.763061523438</ele>
        <time>2015-07-25T11:25:07Z</time>
      </trkpt>
      <trkpt lat="42.61753" lon="7.70466">
        <ele>-14.763061523438</ele>
        <time>2015-07-25T11:25:19Z</time>
      </trkpt>
      <trkpt lat="42.61721" lon="7.70489">
        <ele>-14.763061523438</ele>
        <time>2015-07-25T11:25:31Z</time>
      </trkpt>
      <trkpt lat="42.61687" lon="7.7052">
        <ele>-14.763061523438</ele>
        <time>2015-07-25T11:25:45Z</time>
      </trkpt>
      <trkpt lat="42.61658" lon="7.70565">
        <ele>-14.763061523438</ele>
        <time>2015-07-25T11:26:02Z</time>
      </trkpt>
      <trkpt lat="42.6161" lon="7.70619">
        <ele>-14.763061523438</ele>
        <time>2015-07-25T11:26:27Z</time>
      </trkpt>
      <trkpt lat="42.6156" lon="7.70675">
        <ele>-14.282470703125</ele>
        <time>2015-07-25T11:26:53Z</time>
      </trkpt>
      <trkpt lat="42.61531" lon="7.70704">
        <ele>-13.8017578125</ele>
        <time>2015-07-25T11:27:07Z</time>
      </trkpt>
      <trkpt lat="42.61502" lon="7.70743">
        <ele>-14.763061523438</ele>
        <time>2015-07-25T11:27:21Z</time>
      </trkpt>
      <trkpt lat="42.61469" lon="7.70778">
        <ele>-14.282470703125</ele>
        <time>2015-07-25T11:27:35Z</time>
      </trkpt>
      <trkpt lat="42.61431" lon="7.70825">
        <ele>-14.763061523438</ele>
        <time>2015-07-25T11:27:53Z</time>
      </trkpt>
      <trkpt lat="42.61393" lon="7.70893">
        <ele>-14.763061523438</ele>
        <time>2015-07-25T11:28:18Z</time>
      </trkpt>
      <trkpt lat="42.61368" lon="7.70923">
        <ele>-14.763061523438</ele>
        <time>2015-07-25T11:28:30Z</time>
      </trkpt>
      <trkpt lat="42.61325" lon="7.70976">
        <ele>-14.763061523438</ele>
        <time>2015-07-25T11:28:49Z</time>
      </trkpt>
      <trkpt lat="42.61285" lon="7.71021">
        <ele>-15.24365234375</ele>
        <time>2015-07-25T11:29:06Z</time>
      </trkpt>
      <trkpt lat="42.6126" lon="7.71056">
        <ele>-15.24365234375</ele>
        <time>2015-07-25T11:29:19Z</time>
      </trkpt>
      <trkpt lat="42.61237" lon="7.71095">
        <ele>-14.763061523438</ele>
        <time>2015-07-25T11:29:33Z</time>
      </trkpt>
      <trkpt lat="42.61214" lon="7.71128">
        <ele>-14.282470703125</ele>
        <time>2015-07-25T11:29:45Z</time>
      </trkpt>
      <trkpt lat="42.61187" lon="7.71157">
        <ele>-14.282470703125</ele>
        <time>2015-07-25T11:29:58Z</time>
      </trkpt>
      <trkpt lat="42.61157" lon="7.71187">
        <ele>-15.24365234375</ele>
        <time>2015-07-25T11:30:11Z</time>
      </trkpt>
      <trkpt lat="42.6113" lon="7.71223">
        <ele>-14.763061523438</ele>
        <time>2015-07-25T11:30:25Z</time>
      </trkpt>
      <trkpt lat="42.61078" lon="7.71267">
        <ele>-13.8017578125</ele>
        <time>2015-07-25T11:30:45Z</time>
      </trkpt>
      <trkpt lat="42.61044" lon="7.7129">
        <ele>-15.24365234375</ele>
        <time>2015-07-25T11:30:58Z</time>
      </trkpt>
      <trkpt lat="42.61022" lon="7.71327">
        <ele>-15.24365234375</ele>
        <time>2015-07-25T11:31:11Z</time>
      </trkpt>
      <trkpt lat="42.60996" lon="7.71367">
        <ele>-14.763061523438</ele>
        <time>2015-07-25T11:31:25Z</time>
      </trkpt>
      <trkpt lat="42.60941" lon="7.71412">
        <ele>-14.763061523438</ele>
        <time>2015-07-25T11:31:48Z</time>
      </trkpt>
      <trkpt lat="42.60909" lon="7.71444">
        <ele>-14.282470703125</ele>
        <time>2015-07-25T11:32:02Z</time>
      </trkpt>
      <trkpt lat="42.6086" lon="7.71493">
        <ele>-15.24365234375</ele>
        <time>2015-07-25T11:32:23Z</time>
      </trkpt>
      <trkpt lat="42.60825" lon="7.7153">
        <ele>-15.24365234375</ele>
        <time>2015-07-25T11:32:39Z</time>
      </trkpt>
      <trkpt lat="42.60797" lon="7.71564">
        <ele>-14.282470703125</ele>
        <time>2015-07-25T11:32:53Z</time>
      </trkpt>
      <trkpt lat="42.60751" lon="7.71625">
        <ele>-14.763061523438</ele>
        <time>2015-07-25T11:33:16Z</time>
      </trkpt>
      <trkpt lat="42.60709" lon="7.71677">
        <ele>-14.282470703125</ele>
        <time>2015-07-25T11:33:36Z</time>
      </trkpt>
      <trkpt lat="42.60681" lon="7.71712">
        <ele>-14.763061523438</ele>
        <time>2015-07-25T11:33:49Z</time>
      </trkpt>
      <trkpt lat="42.60651" lon="7.71758">
        <ele>-15.24365234375</ele>
        <time>2015-07-25T11:34:06Z</time>
      </trkpt>
      <trkpt lat="42.6062" lon="7.71792">
        <ele>-13.8017578125</ele>
        <time>2015-07-25T11:34:21Z</time>
      </trkpt>
      <trkpt lat="42.60587" lon="7.71817">
        <ele>-14.282470703125</ele>
        <time>2015-07-25T11:34:34Z</time>
      </trkpt>
      <trkpt lat="42.60557" lon="7.71851">
        <ele>-14.282470703125</ele>
        <time>2015-07-25T11:34:48Z</time>
      </trkpt>
      <trkpt lat="42.60534" lon="7.71885">
        <ele>-15.24365234375</ele>
        <time>2015-07-25T11:35:01Z</time>
      </trkpt>
      <trkpt lat="42.60505" lon="7.71921">
        <ele>-14.763061523438</ele>
        <time>2015-07-25T11:35:14Z</time>
      </trkpt>
      <trkpt lat="42.60474" lon="7.71984">
        <ele>-15.24365234375</ele>
        <time>2015-07-25T11:35:33Z</time>
      </trkpt>
      <trkpt lat="42.60441" lon="7.72038">
        <ele>-14.763061523438</ele>
        <time>2015-07-25T11:35:51Z</time>
      </trkpt>
      <trkpt lat="42.60411" lon="7.72078">
        <ele>-14.763061523438</ele>
        <time>2015-07-25T11:36:06Z</time>
      </trkpt>
      <trkpt lat="42.60361" lon="7.72144">
        <ele>-14.763061523438</ele>
        <time>2015-07-25T11:36:30Z</time>
      </trkpt>
      <trkpt lat="42.6032" lon="7.72194">
        <ele>-14.763061523438</ele>
        <time>2015-07-25T11:36:50Z</time>
      </trkpt>
      <trkpt lat="42.60285" lon="7.72239">
        <ele>-14.282470703125</ele>
        <time>2015-07-25T11:37:06Z</time>
      </trkpt>
      <trkpt lat="42.60255" lon="7.72273">
        <ele>-14.763061523438</ele>
        <time>2015-07-25T11:37:20Z</time>
      </trkpt>
      <trkpt lat="42.60229" lon="7.7231">
        <ele>-14.763061523438</ele>
        <time>2015-07-25T11:37:33Z</time>
      </trkpt>
      <trkpt lat="42.60196" lon="7.72378">
        <ele>-14.763061523438</ele>
        <time>2015-07-25T11:37:57Z</time>
      </trkpt>
      <trkpt lat="42.60169" lon="7.72407">
        <ele>-13.321044921875</ele>
        <time>2015-07-25T11:38:08Z</time>
      </trkpt>
      <trkpt lat="42.60143" lon="7.72446">
        <ele>-15.24365234375</ele>
        <time>2015-07-25T11:38:20Z</time>
      </trkpt>
      <trkpt lat="42.60118" lon="7.72475">
        <ele>-14.282470703125</ele>
        <time>2015-07-25T11:38:32Z</time>
      </trkpt>
      <trkpt lat="42.60093" lon="7.72507">
        <ele>-14.763061523438</ele>
        <time>2015-07-25T11:38:44Z</time>
      </trkpt>
      <trkpt lat="42.60069" lon="7.72535">
        <ele>-14.282470703125</ele>
        <time>2015-07-25T11:38:55Z</time>
      </trkpt>
      <trkpt lat="42.60027" lon="7.72602">
        <ele>-14.763061523438</ele>
        <time>2015-07-25T11:39:20Z</time>
      </trkpt>
      <trkpt lat="42.60005" lon="7.72636">
        <ele>-15.24365234375</ele>
        <time>2015-07-25T11:39:33Z</time>
      </trkpt>
      <trkpt lat="42.59983" lon="7.72671">
        <ele>-14.763061523438</ele>
        <time>2015-07-25T11:39:46Z</time>
      </trkpt>
      <trkpt lat="42.59956" lon="7.72708">
        <ele>-14.763061523438</ele>
        <time>2015-07-25T11:39:59Z</time>
      </trkpt>
      <trkpt lat="42.59913" lon="7.72774">
        <ele>-15.724365234375</ele>
        <time>2015-07-25T11:40:24Z</time>
      </trkpt>
      <trkpt lat="42.59887" lon="7.72806">
        <ele>-15.24365234375</ele>
        <time>2015-07-25T11:40:37Z</time>
      </trkpt>
      <trkpt lat="42.59869" lon="7.72845">
        <ele>-15.724365234375</ele>
        <time>2015-07-25T11:40:51Z</time>
      </trkpt>
      <trkpt lat="42.59823" lon="7.72907">
        <ele>-14.763061523438</ele>
        <time>2015-07-25T11:41:15Z</time>
      </trkpt>
      <trkpt lat="42.59792" lon="7.72933">
        <ele>-15.24365234375</ele>
        <time>2015-07-25T11:41:28Z</time>
      </trkpt>
      <trkpt lat="42.59755" lon="7.72975">
        <ele>-15.24365234375</ele>
        <time>2015-07-25T11:41:44Z</time>
      </trkpt>
      <trkpt lat="42.59731" lon="7.7301">
        <ele>-15.24365234375</ele>
        <time>2015-07-25T11:41:56Z</time>
      </trkpt>
      <trkpt lat="42.59707" lon="7.73053">
        <ele>-15.24365234375</ele>
        <time>2015-07-25T11:42:10Z</time>
      </trkpt>
      <trkpt lat="42.59668" lon="7.73115">
        <ele>-14.763061523438</ele>
        <time>2015-07-25T11:42:32Z</time>
      </trkpt>
      <trkpt lat="42.59642" lon="7.73145">
        <ele>-14.763061523438</ele>
        <time>2015-07-25T11:42:44Z</time>
      </trkpt>
      <trkpt lat="42.59609" lon="7.73176">
        <ele>-14.282470703125</ele>
        <time>2015-07-25T11:42:57Z</time>
      </trkpt>
      <trkpt lat="42.59584" lon="7.73218">
        <ele>-14.763061523438</ele>
        <time>2015-07-25T11:43:10Z</time>
      </trkpt>
      <trkpt lat="42.59558" lon="7.73258">
        <ele>-15.724365234375</ele>
        <time>2015-07-25T11:43:24Z</time>
      </trkpt>
      <trkpt lat="42.59534" lon="7.73293">
        <ele>-14.763061523438</ele>
        <time>2015-07-25T11:43:36Z</time>
      </trkpt>
      <trkpt lat="42.59513" lon="7.73329">
        <ele>-15.724365234375</ele>
        <time>2015-07-25T11:43:48Z</time>
      </trkpt>
      <trkpt lat="42.59485" lon="7.73367">
        <ele>-14.763061523438</ele>
        <time>2015-07-25T11:44:01Z</time>
      </trkpt>
      <trkpt lat="42.59455" lon="7.73397">
        <ele>-14.763061523438</ele>
        <time>2015-07-25T11:44:13Z</time>
      </trkpt>
      <trkpt lat="42.59425" lon="7.73432">
        <ele>-14.763061523438</ele>
        <time>2015-07-25T11:44:25Z</time>
      </trkpt>
      <trkpt lat="42.59395" lon="7.7347">
        <ele>-15.24365234375</ele>
        <time>2015-07-25T11:44:39Z</time>
      </trkpt>
      <trkpt lat="42.59363" lon="7.73508">
        <ele>-14.282470703125</ele>
        <time>2015-07-25T11:44:53Z</time>
      </trkpt>
      <trkpt lat="42.59333" lon="7.73537">
        <ele>-14.763061523438</ele>
        <time>2015-07-25T11:45:06Z</time>
      </trkpt>
      <trkpt lat="42.59308" lon="7.7357">
        <ele>-14.763061523438</ele>
        <time>2015-07-25T11:45:18Z</time>
      </trkpt>
      <trkpt lat="42.59279" lon="7.73611">
        <ele>-14.763061523438</ele>
        <time>2015-07-25T11:45:33Z</time>
      </trkpt>
      <trkpt lat="42.59253" lon="7.73637">
        <ele>-15.24365234375</ele>
        <time>2015-07-25T11:45:44Z</time>
      </trkpt>
      <trkpt lat="42.59222" lon="7.73651">
        <ele>-13.8017578125</ele>
        <time>2015-07-25T11:45:54Z</time>
      </trkpt>
      <trkpt lat="42.59189" lon="7.73681">
        <ele>-14.282470703125</ele>
        <time>2015-07-25T11:46:07Z</time>
      </trkpt>
      <trkpt lat="42.59159" lon="7.73716">
        <ele>-14.763061523438</ele>
        <time>2015-07-25T11:46:20Z</time>
      </trkpt>
      <trkpt lat="42.59108" lon="7.73768">
        <ele>-14.282470703125</ele>
        <time>2015-07-25T11:46:41Z</time>
      </trkpt>
      <trkpt lat="42.59049" lon="7.73795">
        <ele>-13.8017578125</ele>
        <time>2015-07-25T11:47:00Z</time>
      </trkpt>
      <trkpt lat="42.59026" lon="7.73831">
        <ele>-15.724365234375</ele>
        <time>2015-07-25T11:47:11Z</time>
      </trkpt>
      <trkpt lat="42.59002" lon="7.73872">
        <ele>-14.763061523438</ele>
        <time>2015-07-25T11:47:23Z</time>
      </trkpt>
      <trkpt lat="42.58976" lon="7.73908">
        <ele>-14.763061523438</ele>
        <time>2015-07-25T11:47:36Z</time>
      </trkpt>
      <trkpt lat="42.58952" lon="7.73941">
        <ele>-14.763061523438</ele>
        <time>2015-07-25T11:47:48Z</time>
      </trkpt>
      <trkpt lat="42.58906" lon="7.74009">
        <ele>-14.763061523438</ele>
        <time>2015-07-25T11:48:11Z</time>
      </trkpt>
      <trkpt lat="42.58883" lon="7.74056">
        <ele>-14.282470703125</ele>
        <time>2015-07-25T11:48:25Z</time>
      </trkpt>
      <trkpt lat="42.58854" lon="7.74097">
        <ele>-14.763061523438</ele>
        <time>2015-07-25T11:48:38Z</time>
      </trkpt>
      <trkpt lat="42.58825" lon="7.74142">
        <ele>-14.763061523438</ele>
        <time>2015-07-25T11:48:52Z</time>
      </trkpt>
      <trkpt lat="42.58805" lon="7.74185">
        <ele>-14.763061523438</ele>
        <time>2015-07-25T11:49:04Z</time>
      </trkpt>
      <trkpt lat="42.58755" lon="7.74252">
        <ele>-15.24365234375</ele>
        <time>2015-07-25T11:49:26Z</time>
      </trkpt>
      <trkpt lat="42.58732" lon="7.74292">
        <ele>-14.282470703125</ele>
        <time>2015-07-25T11:49:39Z</time>
      </trkpt>
      <trkpt lat="42.58707" lon="7.74334">
        <ele>-15.24365234375</ele>
        <time>2015-07-25T11:49:53Z</time>
      </trkpt>
      <trkpt lat="42.58679" lon="7.74375">
        <ele>-14.763061523438</ele>
        <time>2015-07-25T11:50:07Z</time>
      </trkpt>
      <trkpt lat="42.58644" lon="7.74434">
        <ele>-15.24365234375</ele>
        <time>2015-07-25T11:50:27Z</time>
      </trkpt>
      <trkpt lat="42.58614" lon="7.74472">
        <ele>-15.24365234375</ele>
        <time>2015-07-25T11:50:41Z</time>
      </trkpt>
      <trkpt lat="42.58585" lon="7.74514">
        <ele>-14.763061523438</ele>
        <time>2015-07-25T11:50:54Z</time>
      </trkpt>
      <trkpt lat="42.58557" lon="7.74563">
        <ele>-14.763061523438</ele>
        <time>2015-07-25T11:51:09Z</time>
      </trkpt>
      <trkpt lat="42.58537" lon="7.74601">
        <ele>-14.282470703125</ele>
        <time>2015-07-25T11:51:22Z</time>
      </trkpt>
      <trkpt lat="42.58511" lon="7.74642">
        <ele>-15.724365234375</ele>
        <time>2015-07-25T11:51:35Z</time>
      </trkpt>
      <trkpt lat="42.58488" lon="7.74673">
        <ele>-13.8017578125</ele>
        <time>2015-07-25T11:51:46Z</time>
      </trkpt>
      <trkpt lat="42.58455" lon="7.74694">
        <ele>-14.763061523438</ele>
        <time>2015-07-25T11:51:57Z</time>
      </trkpt>
      <trkpt lat="42.58423" lon="7.74763">
        <ele>-14.763061523438</ele>
        <time>2015-07-25T11:52:16Z</time>
      </trkpt>
      <trkpt lat="42.5841" lon="7.74804">
        <ele>-14.763061523438</ele>
        <time>2015-07-25T11:52:27Z</time>
      </trkpt>
      <trkpt lat="42.58391" lon="7.74857">
        <ele>-14.763061523438</ele>
        <time>2015-07-25T11:52:41Z</time>
      </trkpt>
      <trkpt lat="42.58375" lon="7.74903">
        <ele>-14.282470703125</ele>
        <time>2015-07-25T11:52:54Z</time>
      </trkpt>
      <trkpt lat="42.58347" lon="7.74979">
        <ele>-14.763061523438</ele>
        <time>2015-07-25T11:53:19Z</time>
      </trkpt>
      <trkpt lat="42.58331" lon="7.75024">
        <ele>-15.24365234375</ele>
        <time>2015-07-25T11:53:33Z</time>
      </trkpt>
      <trkpt lat="42.58318" lon="7.75072">
        <ele>-14.763061523438</ele>
        <time>2015-07-25T11:53:47Z</time>
      </trkpt>
      <trkpt lat="42.5829" lon="7.75139">
        <ele>-14.763061523438</ele>
        <time>2015-07-25T11:54:07Z</time>
      </trkpt>
      <trkpt lat="42.58257" lon="7.75202">
        <ele>-14.282470703125</ele>
        <time>2015-07-25T11:54:25Z</time>
      </trkpt>
      <trkpt lat="42.58226" lon="7.75252">
        <ele>-13.8017578125</ele>
        <time>2015-07-25T11:54:41Z</time>
      </trkpt>
      <trkpt lat="42.5819" lon="7.75307">
        <ele>-14.763061523438</ele>
        <time>2015-07-25T11:55:01Z</time>
      </trkpt>
      <trkpt lat="42.58159" lon="7.75336">
        <ele>-14.282470703125</ele>
        <time>2015-07-25T11:55:14Z</time>
      </trkpt>
      <trkpt lat="42.58123" lon="7.75331">
        <ele>-13.321044921875</ele>
        <time>2015-07-25T11:55:26Z</time>
      </trkpt>
      <trkpt lat="42.58085" lon="7.75297">
        <ele>-13.8017578125</ele>
        <time>2015-07-25T11:55:53Z</time>
      </trkpt>
      <trkpt lat="42.58051" lon="7.75277">
        <ele>-13.321044921875</ele>
        <time>2015-07-25T11:56:27Z</time>
      </trkpt>
      <trkpt lat="42.58014" lon="7.7527">
        <ele>-13.8017578125</ele>
        <time>2015-07-25T11:56:53Z</time>
      </trkpt>
      <trkpt lat="42.57954" lon="7.75256">
        <ele>-13.8017578125</ele>
        <time>2015-07-25T11:57:20Z</time>
      </trkpt>
      <trkpt lat="42.57903" lon="7.75236">
        <ele>-13.321044921875</ele>
        <time>2015-07-25T11:57:50Z</time>
      </trkpt>
      <trkpt lat="42.57866" lon="7.75226">
        <ele>-13.8017578125</ele>
        <time>2015-07-25T11:58:11Z</time>
      </trkpt>
      <trkpt lat="42.57825" lon="7.75214">
        <ele>-12.840454101562</ele>
        <time>2015-07-25T11:58:34Z</time>
      </trkpt>
      <trkpt lat="42.57769" lon="7.75206">
        <ele>-13.321044921875</ele>
        <time>2015-07-25T11:59:01Z</time>
      </trkpt>
      <trkpt lat="42.57732" lon="7.75194">
        <ele>-12.840454101562</ele>
        <time>2015-07-25T11:59:18Z</time>
      </trkpt>
      <trkpt lat="42.57686" lon="7.75175">
        <ele>-12.840454101562</ele>
        <time>2015-07-25T11:59:40Z</time>
      </trkpt>
      <trkpt lat="42.57636" lon="7.75157">
        <ele>-13.321044921875</ele>
        <time>2015-07-25T12:00:05Z</time>
      </trkpt>
      <trkpt lat="42.57583" lon="7.7514">
        <ele>-13.321044921875</ele>
        <time>2015-07-25T12:00:31Z</time>
      </trkpt>
      <trkpt lat="42.5752" lon="7.75132">
        <ele>-13.321044921875</ele>
        <time>2015-07-25T12:00:56Z</time>
      </trkpt>
      <trkpt lat="42.57449" lon="7.75115">
        <ele>-13.321044921875</ele>
        <time>2015-07-25T12:01:26Z</time>
      </trkpt>
      <trkpt lat="42.57411" lon="7.75102">
        <ele>-12.35986328125</ele>
        <time>2015-07-25T12:01:42Z</time>
      </trkpt>
      <trkpt lat="42.57346" lon="7.75093">
        <ele>-13.321044921875</ele>
        <time>2015-07-25T12:02:05Z</time>
      </trkpt>
      <trkpt lat="42.57304" lon="7.75096">
        <ele>-13.321044921875</ele>
        <time>2015-07-25T12:02:19Z</time>
      </trkpt>
      <trkpt lat="42.57271" lon="7.75096">
        <ele>-12.35986328125</ele>
        <time>2015-07-25T12:02:30Z</time>
      </trkpt>
      <trkpt lat="42.57213" lon="7.75062">
        <ele>-12.840454101562</ele>
        <time>2015-07-25T12:02:58Z</time>
      </trkpt>
      <trkpt lat="42.57168" lon="7.75041">
        <ele>-12.840454101562</ele>
        <time>2015-07-25T12:03:21Z</time>
      </trkpt>
      <trkpt lat="42.57136" lon="7.75036">
        <ele>-14.763061523438</ele>
        <time>2015-07-25T12:04:08Z</time>
      </trkpt>
      <trkpt lat="42.57102" lon="7.75048">
        <ele>-12.840454101562</ele>
        <time>2015-07-25T12:05:00Z</time>
      </trkpt>
      <trkpt lat="42.57043" lon="7.75059">
        <ele>-14.282470703125</ele>
        <time>2015-07-25T12:06:00Z</time>
      </trkpt>
      <trkpt lat="42.5702" lon="7.75103">
        <ele>-15.724365234375</ele>
        <time>2015-07-25T12:06:14Z</time>
      </trkpt>
      <trkpt lat="42.57" lon="7.75144">
        <ele>-15.24365234375</ele>
        <time>2015-07-25T12:06:26Z</time>
      </trkpt>
      <trkpt lat="42.56975" lon="7.75197">
        <ele>-15.24365234375</ele>
        <time>2015-07-25T12:06:43Z</time>
      </trkpt>
      <trkpt lat="42.56955" lon="7.75249">
        <ele>-14.763061523438</ele>
        <time>2015-07-25T12:06:58Z</time>
      </trkpt>
      <trkpt lat="42.56922" lon="7.75302">
        <ele>-16.205200195312</ele>
        <time>2015-07-25T12:07:16Z</time>
      </trkpt>
      <trkpt lat="42.5689" lon="7.75363">
        <ele>-13.8017578125</ele>
        <time>2015-07-25T12:07:35Z</time>
      </trkpt>
      <trkpt lat="42.56855" lon="7.75355">
        <ele>-13.8017578125</ele>
        <time>2015-07-25T12:07:51Z</time>
      </trkpt>
      <trkpt lat="42.56812" lon="7.75343">
        <ele>-13.8017578125</ele>
        <time>2015-07-25T12:08:18Z</time>
      </trkpt>
      <trkpt lat="42.56781" lon="7.75377">
        <ele>-14.282470703125</ele>
        <time>2015-07-25T12:08:31Z</time>
      </trkpt>
      <trkpt lat="42.56756" lon="7.75423">
        <ele>-15.24365234375</ele>
        <time>2015-07-25T12:08:44Z</time>
      </trkpt>
      <trkpt lat="42.56733" lon="7.75478">
        <ele>-15.24365234375</ele>
        <time>2015-07-25T12:09:00Z</time>
      </trkpt>
      <trkpt lat="42.56713" lon="7.75516">
        <ele>-15.24365234375</ele>
        <time>2015-07-25T12:09:11Z</time>
      </trkpt>
      <trkpt lat="42.56678" lon="7.7557">
        <ele>-15.724365234375</ele>
        <time>2015-07-25T12:09:28Z</time>
      </trkpt>
      <trkpt lat="42.56647" lon="7.75604">
        <ele>-13.8017578125</ele>
        <time>2015-07-25T12:09:40Z</time>
      </trkpt>
      <trkpt lat="42.56622" lon="7.75659">
        <ele>-14.763061523438</ele>
        <time>2015-07-25T12:09:56Z</time>
      </trkpt>
      <trkpt lat="42.56605" lon="7.75697">
        <ele>-14.763061523438</ele>
        <time>2015-07-25T12:10:08Z</time>
      </trkpt>
      <trkpt lat="42.56573" lon="7.75741">
        <ele>-13.8017578125</ele>
        <time>2015-07-25T12:10:22Z</time>
      </trkpt>
      <trkpt lat="42.56549" lon="7.75773">
        <ele>-13.8017578125</ele>
        <time>2015-07-25T12:10:33Z</time>
      </trkpt>
      <trkpt lat="42.56524" lon="7.75806">
        <ele>-15.24365234375</ele>
        <time>2015-07-25T12:10:44Z</time>
      </trkpt>
      <trkpt lat="42.56507" lon="7.75845">
        <ele>-14.763061523438</ele>
        <time>2015-07-25T12:10:56Z</time>
      </trkpt>
      <trkpt lat="42.56487" lon="7.75896">
        <ele>-14.282470703125</ele>
        <time>2015-07-25T12:11:10Z</time>
      </trkpt>
      <trkpt lat="42.5647" lon="7.75934">
        <ele>-15.24365234375</ele>
        <time>2015-07-25T12:11:23Z</time>
      </trkpt>
      <trkpt lat="42.5644" lon="7.75978">
        <ele>-14.282470703125</ele>
        <time>2015-07-25T12:11:39Z</time>
      </trkpt>
      <trkpt lat="42.56412" lon="7.76027">
        <ele>-15.24365234375</ele>
        <time>2015-07-25T12:11:54Z</time>
      </trkpt>
      <trkpt lat="42.56392" lon="7.76067">
        <ele>-15.24365234375</ele>
        <time>2015-07-25T12:12:06Z</time>
      </trkpt>
      <trkpt lat="42.56368" lon="7.76105">
        <ele>-14.282470703125</ele>
        <time>2015-07-25T12:12:19Z</time>
      </trkpt>
      <trkpt lat="42.56339" lon="7.76148">
        <ele>-14.763061523438</ele>
        <time>2015-07-25T12:12:33Z</time>
      </trkpt>
      <trkpt lat="42.56296" lon="7.76216">
        <ele>-14.282470703125</ele>
        <time>2015-07-25T12:12:56Z</time>
      </trkpt>
      <trkpt lat="42.5627" lon="7.76254">
        <ele>-14.282470703125</ele>
        <time>2015-07-25T12:13:08Z</time>
      </trkpt>
      <trkpt lat="42.56248" lon="7.76293">
        <ele>-15.24365234375</ele>
        <time>2015-07-25T12:13:20Z</time>
      </trkpt>
      <trkpt lat="42.56218" lon="7.76334">
        <ele>-13.8017578125</ele>
        <time>2015-07-25T12:13:32Z</time>
      </trkpt>
      <trkpt lat="42.56192" lon="7.76366">
        <ele>-13.321044921875</ele>
        <time>2015-07-25T12:13:44Z</time>
      </trkpt>
      <trkpt lat="42.56161" lon="7.76404">
        <ele>-14.763061523438</ele>
        <time>2015-07-25T12:13:57Z</time>
      </trkpt>
      <trkpt lat="42.5613" lon="7.76432">
        <ele>-13.8017578125</ele>
        <time>2015-07-25T12:14:09Z</time>
      </trkpt>
      <trkpt lat="42.56109" lon="7.76468">
        <ele>-14.282470703125</ele>
        <time>2015-07-25T12:14:21Z</time>
      </trkpt>
      <trkpt lat="42.56084" lon="7.76511">
        <ele>-15.24365234375</ele>
        <time>2015-07-25T12:14:34Z</time>
      </trkpt>
      <trkpt lat="42.56063" lon="7.76556">
        <ele>-14.282470703125</ele>
        <time>2015-07-25T12:14:49Z</time>
      </trkpt>
      <trkpt lat="42.56044" lon="7.76596">
        <ele>-14.282470703125</ele>
        <time>2015-07-25T12:15:02Z</time>
      </trkpt>
      <trkpt lat="42.56021" lon="7.76635">
        <ele>-14.282470703125</ele>
        <time>2015-07-25T12:15:16Z</time>
      </trkpt>
      <trkpt lat="42.55987" lon="7.76702">
        <ele>-13.8017578125</ele>
        <time>2015-07-25T12:15:36Z</time>
      </trkpt>
      <trkpt lat="42.55966" lon="7.76747">
        <ele>-13.321044921875</ele>
        <time>2015-07-25T12:15:49Z</time>
      </trkpt>
      <trkpt lat="42.5593" lon="7.7679">
        <ele>-13.8017578125</ele>
        <time>2015-07-25T12:16:03Z</time>
      </trkpt>
      <trkpt lat="42.55896" lon="7.76847">
        <ele>-13.8017578125</ele>
        <time>2015-07-25T12:16:21Z</time>
      </trkpt>
      <trkpt lat="42.55868" lon="7.76925">
        <ele>-14.282470703125</ele>
        <time>2015-07-25T12:16:43Z</time>
      </trkpt>
      <trkpt lat="42.55848" lon="7.76971">
        <ele>-14.763061523438</ele>
        <time>2015-07-25T12:16:57Z</time>
      </trkpt>
      <trkpt lat="42.55834" lon="7.77012">
        <ele>-14.282470703125</ele>
        <time>2015-07-25T12:17:09Z</time>
      </trkpt>
      <trkpt lat="42.558" lon="7.77064">
        <ele>-14.282470703125</ele>
        <time>2015-07-25T12:17:26Z</time>
      </trkpt>
      <trkpt lat="42.55773" lon="7.77103">
        <ele>-13.8017578125</ele>
        <time>2015-07-25T12:17:39Z</time>
      </trkpt>
      <trkpt lat="42.55752" lon="7.7714">
        <ele>-13.321044921875</ele>
        <time>2015-07-25T12:17:51Z</time>
      </trkpt>
      <trkpt lat="42.55722" lon="7.7721">
        <ele>-13.8017578125</ele>
        <time>2015-07-25T12:18:13Z</time>
      </trkpt>
      <trkpt lat="42.55699" lon="7.77241">
        <ele>-14.763061523438</ele>
        <time>2015-07-25T12:18:25Z</time>
      </trkpt>
      <trkpt lat="42.55666" lon="7.77303">
        <ele>-14.763061523438</ele>
        <time>2015-07-25T12:18:44Z</time>
      </trkpt>
      <trkpt lat="42.55629" lon="7.77366">
        <ele>-13.321044921875</ele>
        <time>2015-07-25T12:19:06Z</time>
      </trkpt>
      <trkpt lat="42.55583" lon="7.77439">
        <ele>-13.321044921875</ele>
        <time>2015-07-25T12:19:29Z</time>
      </trkpt>
      <trkpt lat="42.55552" lon="7.77508">
        <ele>-13.8017578125</ele>
        <time>2015-07-25T12:19:50Z</time>
      </trkpt>
      <trkpt lat="42.55522" lon="7.77557">
        <ele>-13.321044921875</ele>
        <time>2015-07-25T12:20:05Z</time>
      </trkpt>
      <trkpt lat="42.55485" lon="7.77608">
        <ele>-14.282470703125</ele>
        <time>2015-07-25T12:20:21Z</time>
      </trkpt>
      <trkpt lat="42.55427" lon="7.77687">
        <ele>-14.282470703125</ele>
        <time>2015-07-25T12:20:47Z</time>
      </trkpt>
      <trkpt lat="42.5539" lon="7.77738">
        <ele>-13.321044921875</ele>
        <time>2015-07-25T12:21:06Z</time>
      </trkpt>
      <trkpt lat="42.55359" lon="7.77772">
        <ele>-14.282470703125</ele>
        <time>2015-07-25T12:21:20Z</time>
      </trkpt>
      <trkpt lat="42.55332" lon="7.77805">
        <ele>-14.282470703125</ele>
        <time>2015-07-25T12:21:32Z</time>
      </trkpt>
      <trkpt lat="42.55297" lon="7.7787">
        <ele>-13.8017578125</ele>
        <time>2015-07-25T12:21:55Z</time>
      </trkpt>
      <trkpt lat="42.55255" lon="7.77926">
        <ele>-13.321044921875</ele>
        <time>2015-07-25T12:22:17Z</time>
      </trkpt>
      <trkpt lat="42.55226" lon="7.77968">
        <ele>-12.35986328125</ele>
        <time>2015-07-25T12:22:32Z</time>
      </trkpt>
      <trkpt lat="42.55192" lon="7.78006">
        <ele>-13.8017578125</ele>
        <time>2015-07-25T12:22:45Z</time>
      </trkpt>
      <trkpt lat="42.55163" lon="7.7804">
        <ele>-13.321044921875</ele>
        <time>2015-07-25T12:22:57Z</time>
      </trkpt>
      <trkpt lat="42.55128" lon="7.78079">
        <ele>-13.8017578125</ele>
        <time>2015-07-25T12:23:11Z</time>
      </trkpt>
      <trkpt lat="42.5509" lon="7.78122">
        <ele>-13.8017578125</ele>
        <time>2015-07-25T12:23:25Z</time>
      </trkpt>
      <trkpt lat="42.55068" lon="7.78155">
        <ele>-13.8017578125</ele>
        <time>2015-07-25T12:23:36Z</time>
      </trkpt>
      <trkpt lat="42.55038" lon="7.78194">
        <ele>-13.321044921875</ele>
        <time>2015-07-25T12:23:50Z</time>
      </trkpt>
      <trkpt lat="42.55007" lon="7.78236">
        <ele>-14.282470703125</ele>
        <time>2015-07-25T12:24:04Z</time>
      </trkpt>
      <trkpt lat="42.5498" lon="7.78274">
        <ele>-13.321044921875</ele>
        <time>2015-07-25T12:24:16Z</time>
      </trkpt>
      <trkpt lat="42.54953" lon="7.78318">
        <ele>-14.282470703125</ele>
        <time>2015-07-25T12:24:28Z</time>
      </trkpt>
      <trkpt lat="42.54916" lon="7.7836">
        <ele>-12.35986328125</ele>
        <time>2015-07-25T12:24:45Z</time>
      </trkpt>
      <trkpt lat="42.5488" lon="7.78399">
        <ele>-13.8017578125</ele>
        <time>2015-07-25T12:25:00Z</time>
      </trkpt>
      <trkpt lat="42.54855" lon="7.78442">
        <ele>-13.321044921875</ele>
        <time>2015-07-25T12:25:11Z</time>
      </trkpt>
      <trkpt lat="42.54841" lon="7.78492">
        <ele>-14.763061523438</ele>
        <time>2015-07-25T12:25:24Z</time>
      </trkpt>
      <trkpt lat="42.54806" lon="7.7856">
        <ele>-13.8017578125</ele>
        <time>2015-07-25T12:25:45Z</time>
      </trkpt>
      <trkpt lat="42.54784" lon="7.78593">
        <ele>-14.282470703125</ele>
        <time>2015-07-25T12:25:55Z</time>
      </trkpt>
      <trkpt lat="42.54763" lon="7.78627">
        <ele>-13.8017578125</ele>
        <time>2015-07-25T12:26:07Z</time>
      </trkpt>
      <trkpt lat="42.54725" lon="7.78673">
        <ele>-14.282470703125</ele>
        <time>2015-07-25T12:26:23Z</time>
      </trkpt>
      <trkpt lat="42.54685" lon="7.78715">
        <ele>-13.8017578125</ele>
        <time>2015-07-25T12:26:38Z</time>
      </trkpt>
      <trkpt lat="42.54647" lon="7.7877">
        <ele>-14.763061523438</ele>
        <time>2015-07-25T12:26:56Z</time>
      </trkpt>
      <trkpt lat="42.54615" lon="7.78808">
        <ele>-13.8017578125</ele>
        <time>2015-07-25T12:27:10Z</time>
      </trkpt>
      <trkpt lat="42.54592" lon="7.78842">
        <ele>-14.282470703125</ele>
        <time>2015-07-25T12:27:22Z</time>
      </trkpt>
      <trkpt lat="42.54565" lon="7.78874">
        <ele>-13.8017578125</ele>
        <time>2015-07-25T12:27:34Z</time>
      </trkpt>
      <trkpt lat="42.5453" lon="7.78911">
        <ele>-12.840454101562</ele>
        <time>2015-07-25T12:27:48Z</time>
      </trkpt>
      <trkpt lat="42.54502" lon="7.78947">
        <ele>-13.321044921875</ele>
        <time>2015-07-25T12:28:01Z</time>
      </trkpt>
      <trkpt lat="42.54475" lon="7.78977">
        <ele>-12.840454101562</ele>
        <time>2015-07-25T12:28:11Z</time>
      </trkpt>
      <trkpt lat="42.54451" lon="7.79008">
        <ele>-14.763061523438</ele>
        <time>2015-07-25T12:28:22Z</time>
      </trkpt>
      <trkpt lat="42.54428" lon="7.79052">
        <ele>-14.763061523438</ele>
        <time>2015-07-25T12:28:36Z</time>
      </trkpt>
      <trkpt lat="42.54404" lon="7.79084">
        <ele>-11.879150390625</ele>
        <time>2015-07-25T12:28:48Z</time>
      </trkpt>
      <trkpt lat="42.54367" lon="7.79129">
        <ele>-14.763061523438</ele>
        <time>2015-07-25T12:29:04Z</time>
      </trkpt>
      <trkpt lat="42.54336" lon="7.79188">
        <ele>-13.8017578125</ele>
        <time>2015-07-25T12:29:19Z</time>
      </trkpt>
      <trkpt lat="42.54306" lon="7.7922">
        <ele>-13.8017578125</ele>
        <time>2015-07-25T12:29:32Z</time>
      </trkpt>
      <trkpt lat="42.54279" lon="7.79255">
        <ele>-13.321044921875</ele>
        <time>2015-07-25T12:29:43Z</time>
      </trkpt>
      <trkpt lat="42.5426" lon="7.7929">
        <ele>-13.8017578125</ele>
        <time>2015-07-25T12:29:53Z</time>
      </trkpt>
      <trkpt lat="42.54236" lon="7.79322">
        <ele>-13.8017578125</ele>
        <time>2015-07-25T12:30:04Z</time>
      </trkpt>
      <trkpt lat="42.54218" lon="7.79356">
        <ele>-12.840454101562</ele>
        <time>2015-07-25T12:30:16Z</time>
      </trkpt>
      <trkpt lat="42.5419" lon="7.79402">
        <ele>-13.8017578125</ele>
        <time>2015-07-25T12:30:30Z</time>
      </trkpt>
      <trkpt lat="42.54168" lon="7.79445">
        <ele>-13.321044921875</ele>
        <time>2015-07-25T12:30:43Z</time>
      </trkpt>
      <trkpt lat="42.54151" lon="7.79483">
        <ele>-14.282470703125</ele>
        <time>2015-07-25T12:30:54Z</time>
      </trkpt>
      <trkpt lat="42.54127" lon="7.79525">
        <ele>-13.321044921875</ele>
        <time>2015-07-25T12:31:07Z</time>
      </trkpt>
      <trkpt lat="42.5409" lon="7.79555">
        <ele>-12.840454101562</ele>
        <time>2015-07-25T12:31:22Z</time>
      </trkpt>
      <trkpt lat="42.54042" lon="7.79613">
        <ele>-12.840454101562</ele>
        <time>2015-07-25T12:31:43Z</time>
      </trkpt>
      <trkpt lat="42.54018" lon="7.79656">
        <ele>-13.321044921875</ele>
        <time>2015-07-25T12:31:57Z</time>
      </trkpt>
      <trkpt lat="42.53997" lon="7.79692">
        <ele>-14.282470703125</ele>
        <time>2015-07-25T12:32:09Z</time>
      </trkpt>
      <trkpt lat="42.53968" lon="7.79737">
        <ele>-13.321044921875</ele>
        <time>2015-07-25T12:32:24Z</time>
      </trkpt>
      <trkpt lat="42.53941" lon="7.79765">
        <ele>-13.321044921875</ele>
        <time>2015-07-25T12:32:36Z</time>
      </trkpt>
      <trkpt lat="42.53914" lon="7.79798">
        <ele>-13.8017578125</ele>
        <time>2015-07-25T12:32:49Z</time>
      </trkpt>
      <trkpt lat="42.53888" lon="7.79845">
        <ele>-13.321044921875</ele>
        <time>2015-07-25T12:33:03Z</time>
      </trkpt>
      <trkpt lat="42.53837" lon="7.79898">
        <ele>-13.8017578125</ele>
        <time>2015-07-25T12:33:21Z</time>
      </trkpt>
      <trkpt lat="42.53812" lon="7.79939">
        <ele>-13.8017578125</ele>
        <time>2015-07-25T12:33:32Z</time>
      </trkpt>
      <trkpt lat="42.53791" lon="7.79974">
        <ele>-11.879150390625</ele>
        <time>2015-07-25T12:33:42Z</time>
      </trkpt>
      <trkpt lat="42.53754" lon="7.80023">
        <ele>-12.840454101562</ele>
        <time>2015-07-25T12:33:57Z</time>
      </trkpt>
      <trkpt lat="42.53733" lon="7.80059">
        <ele>-12.35986328125</ele>
        <time>2015-07-25T12:34:07Z</time>
      </trkpt>
      <trkpt lat="42.53706" lon="7.80081">
        <ele>-13.8017578125</ele>
        <time>2015-07-25T12:34:16Z</time>
      </trkpt>
      <trkpt lat="42.53683" lon="7.8013">
        <ele>-12.840454101562</ele>
        <time>2015-07-25T12:34:29Z</time>
      </trkpt>
      <trkpt lat="42.53661" lon="7.80163">
        <ele>-14.282470703125</ele>
        <time>2015-07-25T12:34:39Z</time>
      </trkpt>
      <trkpt lat="42.53636" lon="7.80219">
        <ele>-13.8017578125</ele>
        <time>2015-07-25T12:34:56Z</time>
      </trkpt>
      <trkpt lat="42.53615" lon="7.80253">
        <ele>-13.321044921875</ele>
        <time>2015-07-25T12:35:07Z</time>
      </trkpt>
      <trkpt lat="42.536" lon="7.80291">
        <ele>-12.840454101562</ele>
        <time>2015-07-25T12:35:18Z</time>
      </trkpt>
      <trkpt lat="42.53577" lon="7.80339">
        <ele>-13.321044921875</ele>
        <time>2015-07-25T12:35:30Z</time>
      </trkpt>
      <trkpt lat="42.53551" lon="7.8038">
        <ele>-13.321044921875</ele>
        <time>2015-07-25T12:35:43Z</time>
      </trkpt>
      <trkpt lat="42.53527" lon="7.8043">
        <ele>-13.321044921875</ele>
        <time>2015-07-25T12:35:56Z</time>
      </trkpt>
      <trkpt lat="42.53507" lon="7.80474">
        <ele>-13.321044921875</ele>
        <time>2015-07-25T12:36:09Z</time>
      </trkpt>
      <trkpt lat="42.5349" lon="7.80515">
        <ele>-13.8017578125</ele>
        <time>2015-07-25T12:36:21Z</time>
      </trkpt>
      <trkpt lat="42.53459" lon="7.80564">
        <ele>-13.321044921875</ele>
        <time>2015-07-25T12:36:35Z</time>
      </trkpt>
      <trkpt lat="42.53441" lon="7.80602">
        <ele>-12.840454101562</ele>
        <time>2015-07-25T12:36:47Z</time>
      </trkpt>
      <trkpt lat="42.53418" lon="7.80644">
        <ele>-13.321044921875</ele>
        <time>2015-07-25T12:36:59Z</time>
      </trkpt>
      <trkpt lat="42.53401" lon="7.80682">
        <ele>-12.35986328125</ele>
        <time>2015-07-25T12:37:11Z</time>
      </trkpt>
      <trkpt lat="42.53381" lon="7.80719">
        <ele>-13.321044921875</ele>
        <time>2015-07-25T12:37:24Z</time>
      </trkpt>
      <trkpt lat="42.53346" lon="7.80758">
        <ele>-12.35986328125</ele>
        <time>2015-07-25T12:37:38Z</time>
      </trkpt>
      <trkpt lat="42.53309" lon="7.80808">
        <ele>-12.35986328125</ele>
        <time>2015-07-25T12:37:54Z</time>
      </trkpt>
      <trkpt lat="42.53277" lon="7.80839">
        <ele>-11.879150390625</ele>
        <time>2015-07-25T12:38:06Z</time>
      </trkpt>
      <trkpt lat="42.53248" lon="7.80874">
        <ele>-12.840454101562</ele>
        <time>2015-07-25T12:38:18Z</time>
      </trkpt>
      <trkpt lat="42.53224" lon="7.80913">
        <ele>-13.8017578125</ele>
        <time>2015-07-25T12:38:31Z</time>
      </trkpt>
      <trkpt lat="42.53188" lon="7.8098">
        <ele>-12.35986328125</ele>
        <time>2015-07-25T12:38:52Z</time>
      </trkpt>
      <trkpt lat="42.53157" lon="7.81019">
        <ele>-12.35986328125</ele>
        <time>2015-07-25T12:39:05Z</time>
      </trkpt>
      <trkpt lat="42.5313" lon="7.81056">
        <ele>-13.321044921875</ele>
        <time>2015-07-25T12:39:17Z</time>
      </trkpt>
      <trkpt lat="42.53104" lon="7.81108">
        <ele>-13.321044921875</ele>
        <time>2015-07-25T12:39:31Z</time>
      </trkpt>
      <trkpt lat="42.53063" lon="7.81186">
        <ele>-12.35986328125</ele>
        <time>2015-07-25T12:39:55Z</time>
      </trkpt>
      <trkpt lat="42.53007" lon="7.81246">
        <ele>-13.321044921875</ele>
        <time>2015-07-25T12:40:17Z</time>
      </trkpt>
      <trkpt lat="42.52974" lon="7.8129">
        <ele>-12.840454101562</ele>
        <time>2015-07-25T12:40:30Z</time>
      </trkpt>
      <trkpt lat="42.52944" lon="7.81313">
        <ele>-11.879150390625</ele>
        <time>2015-07-25T12:40:40Z</time>
      </trkpt>
      <trkpt lat="42.52906" lon="7.81354">
        <ele>-12.840454101562</ele>
        <time>2015-07-25T12:40:55Z</time>
      </trkpt>
      <trkpt lat="42.52874" lon="7.81397">
        <ele>-12.35986328125</ele>
        <time>2015-07-25T12:41:07Z</time>
      </trkpt>
      <trkpt lat="42.52838" lon="7.81441">
        <ele>-12.840454101562</ele>
        <time>2015-07-25T12:41:22Z</time>
      </trkpt>
      <trkpt lat="42.52801" lon="7.81482">
        <ele>-12.840454101562</ele>
        <time>2015-07-25T12:41:37Z</time>
      </trkpt>
      <trkpt lat="42.52768" lon="7.81506">
        <ele>-12.840454101562</ele>
        <time>2015-07-25T12:41:47Z</time>
      </trkpt>
      <trkpt lat="42.52738" lon="7.81548">
        <ele>-12.840454101562</ele>
        <time>2015-07-25T12:42:01Z</time>
      </trkpt>
      <trkpt lat="42.52712" lon="7.81586">
        <ele>-12.840454101562</ele>
        <time>2015-07-25T12:42:13Z</time>
      </trkpt>
      <trkpt lat="42.5268" lon="7.81629">
        <ele>-13.321044921875</ele>
        <time>2015-07-25T12:42:26Z</time>
      </trkpt>
      <trkpt lat="42.52658" lon="7.81682">
        <ele>-13.8017578125</ele>
        <time>2015-07-25T12:42:40Z</time>
      </trkpt>
      <trkpt lat="42.52636" lon="7.81728">
        <ele>-13.321044921875</ele>
        <time>2015-07-25T12:42:52Z</time>
      </trkpt>
      <trkpt lat="42.52616" lon="7.81762">
        <ele>-12.35986328125</ele>
        <time>2015-07-25T12:43:01Z</time>
      </trkpt>
      <trkpt lat="42.52581" lon="7.81815">
        <ele>-12.35986328125</ele>
        <time>2015-07-25T12:43:18Z</time>
      </trkpt>
      <trkpt lat="42.52534" lon="7.81828">
        <ele>-11.879150390625</ele>
        <time>2015-07-25T12:43:32Z</time>
      </trkpt>
      <trkpt lat="42.52509" lon="7.81856">
        <ele>-12.35986328125</ele>
        <time>2015-07-25T12:43:40Z</time>
      </trkpt>
      <trkpt lat="42.52479" lon="7.8189">
        <ele>-12.35986328125</ele>
        <time>2015-07-25T12:43:50Z</time>
      </trkpt>
      <trkpt lat="42.52439" lon="7.81914">
        <ele>-9.475830078125</ele>
        <time>2015-07-25T12:44:05Z</time>
      </trkpt>
      <trkpt lat="42.52396" lon="7.81927">
        <ele>-12.840454101562</ele>
        <time>2015-07-25T12:44:19Z</time>
      </trkpt>
      <trkpt lat="42.52378" lon="7.81964">
        <ele>-12.840454101562</ele>
        <time>2015-07-25T12:44:28Z</time>
      </trkpt>
      <trkpt lat="42.52337" lon="7.82039">
        <ele>-12.840454101562</ele>
        <time>2015-07-25T12:44:49Z</time>
      </trkpt>
      <trkpt lat="42.5231" lon="7.82074">
        <ele>-12.840454101562</ele>
        <time>2015-07-25T12:45:00Z</time>
      </trkpt>
      <trkpt lat="42.52279" lon="7.8213">
        <ele>-11.879150390625</ele>
        <time>2015-07-25T12:45:18Z</time>
      </trkpt>
      <trkpt lat="42.52253" lon="7.82161">
        <ele>-11.3984375</ele>
        <time>2015-07-25T12:45:28Z</time>
      </trkpt>
      <trkpt lat="42.52228" lon="7.82207">
        <ele>-11.3984375</ele>
        <time>2015-07-25T12:45:41Z</time>
      </trkpt>
      <trkpt lat="42.52208" lon="7.82244">
        <ele>-11.3984375</ele>
        <time>2015-07-25T12:45:51Z</time>
      </trkpt>
      <trkpt lat="42.52184" lon="7.8229">
        <ele>-11.879150390625</ele>
        <time>2015-07-25T12:46:04Z</time>
      </trkpt>
      <trkpt lat="42.52159" lon="7.82337">
        <ele>-12.35986328125</ele>
        <time>2015-07-25T12:46:18Z</time>
      </trkpt>
      <trkpt lat="42.52134" lon="7.82381">
        <ele>-11.879150390625</ele>
        <time>2015-07-25T12:46:30Z</time>
      </trkpt>
      <trkpt lat="42.52105" lon="7.82424">
        <ele>-10.917846679688</ele>
        <time>2015-07-25T12:46:43Z</time>
      </trkpt>
      <trkpt lat="42.5208" lon="7.82458">
        <ele>-12.35986328125</ele>
        <time>2015-07-25T12:46:53Z</time>
      </trkpt>
      <trkpt lat="42.52058" lon="7.82498">
        <ele>-11.879150390625</ele>
        <time>2015-07-25T12:47:04Z</time>
      </trkpt>
      <trkpt lat="42.52028" lon="7.82538">
        <ele>-10.917846679688</ele>
        <time>2015-07-25T12:47:16Z</time>
      </trkpt>
      <trkpt lat="42.52003" lon="7.82578">
        <ele>-11.3984375</ele>
        <time>2015-07-25T12:47:28Z</time>
      </trkpt>
      <trkpt lat="42.51959" lon="7.82649">
        <ele>-11.3984375</ele>
        <time>2015-07-25T12:47:51Z</time>
      </trkpt>
      <trkpt lat="42.51924" lon="7.82698">
        <ele>-11.3984375</ele>
        <time>2015-07-25T12:48:07Z</time>
      </trkpt>
      <trkpt lat="42.51894" lon="7.82741">
        <ele>-12.35986328125</ele>
        <time>2015-07-25T12:48:21Z</time>
      </trkpt>
      <trkpt lat="42.5186" lon="7.82784">
        <ele>-10.917846679688</ele>
        <time>2015-07-25T12:48:35Z</time>
      </trkpt>
      <trkpt lat="42.51827" lon="7.82817">
        <ele>-9.95654296875</ele>
        <time>2015-07-25T12:48:47Z</time>
      </trkpt>
      <trkpt lat="42.51787" lon="7.82853">
        <ele>-10.437255859375</ele>
        <time>2015-07-25T12:49:01Z</time>
      </trkpt>
      <trkpt lat="42.51752" lon="7.82885">
        <ele>-11.3984375</ele>
        <time>2015-07-25T12:49:13Z</time>
      </trkpt>
      <trkpt lat="42.51721" lon="7.82928">
        <ele>-10.917846679688</ele>
        <time>2015-07-25T12:49:26Z</time>
      </trkpt>
      <trkpt lat="42.51685" lon="7.83003">
        <ele>-11.3984375</ele>
        <time>2015-07-25T12:49:47Z</time>
      </trkpt>
      <trkpt lat="42.51667" lon="7.83047">
        <ele>-11.3984375</ele>
        <time>2015-07-25T12:49:58Z</time>
      </trkpt>
      <trkpt lat="42.5165" lon="7.83084">
        <ele>-11.879150390625</ele>
        <time>2015-07-25T12:50:09Z</time>
      </trkpt>
      <trkpt lat="42.5161" lon="7.83146">
        <ele>-10.917846679688</ele>
        <time>2015-07-25T12:50:26Z</time>
      </trkpt>
      <trkpt lat="42.51564" lon="7.83221">
        <ele>-10.917846679688</ele>
        <time>2015-07-25T12:50:47Z</time>
      </trkpt>
      <trkpt lat="42.51535" lon="7.83268">
        <ele>-10.437255859375</ele>
        <time>2015-07-25T12:51:00Z</time>
      </trkpt>
      <trkpt lat="42.51503" lon="7.83314">
        <ele>-10.917846679688</ele>
        <time>2015-07-25T12:51:13Z</time>
      </trkpt>
      <trkpt lat="42.51458" lon="7.83375">
        <ele>-10.917846679688</ele>
        <time>2015-07-25T12:51:31Z</time>
      </trkpt>
      <trkpt lat="42.51424" lon="7.83418">
        <ele>-10.437255859375</ele>
        <time>2015-07-25T12:51:43Z</time>
      </trkpt>
      <trkpt lat="42.51384" lon="7.83473">
        <ele>-10.917846679688</ele>
        <time>2015-07-25T12:52:00Z</time>
      </trkpt>
      <trkpt lat="42.51361" lon="7.83512">
        <ele>-8.5146484375</ele>
        <time>2015-07-25T12:52:11Z</time>
      </trkpt>
      <trkpt lat="42.51335" lon="7.83544">
        <ele>-8.9952392578125</ele>
        <time>2015-07-25T12:52:23Z</time>
      </trkpt>
      <trkpt lat="42.51304" lon="7.83574">
        <ele>-10.437255859375</ele>
        <time>2015-07-25T12:52:34Z</time>
      </trkpt>
      <trkpt lat="42.51264" lon="7.83619">
        <ele>-9.475830078125</ele>
        <time>2015-07-25T12:52:48Z</time>
      </trkpt>
      <trkpt lat="42.51242" lon="7.83652">
        <ele>-10.437255859375</ele>
        <time>2015-07-25T12:52:58Z</time>
      </trkpt>
      <trkpt lat="42.51203" lon="7.8371">
        <ele>-8.9952392578125</ele>
        <time>2015-07-25T12:53:16Z</time>
      </trkpt>
      <trkpt lat="42.51159" lon="7.83787">
        <ele>-10.437255859375</ele>
        <time>2015-07-25T12:53:39Z</time>
      </trkpt>
      <trkpt lat="42.51134" lon="7.83823">
        <ele>-8.9952392578125</ele>
        <time>2015-07-25T12:53:50Z</time>
      </trkpt>
      <trkpt lat="42.51096" lon="7.83865">
        <ele>-9.475830078125</ele>
        <time>2015-07-25T12:54:05Z</time>
      </trkpt>
      <trkpt lat="42.51074" lon="7.83903">
        <ele>-11.879150390625</ele>
        <time>2015-07-25T12:54:15Z</time>
      </trkpt>
      <trkpt lat="42.51065" lon="7.83946">
        <ele>-12.840454101562</ele>
        <time>2015-07-25T12:54:27Z</time>
      </trkpt>
      <trkpt lat="42.51033" lon="7.83984">
        <ele>-12.840454101562</ele>
        <time>2015-07-25T12:54:40Z</time>
      </trkpt>
      <trkpt lat="42.51007" lon="7.84016">
        <ele>-12.35986328125</ele>
        <time>2015-07-25T12:54:50Z</time>
      </trkpt>
      <trkpt lat="42.5099" lon="7.84054">
        <ele>-12.35986328125</ele>
        <time>2015-07-25T12:55:00Z</time>
      </trkpt>
      <trkpt lat="42.50964" lon="7.84094">
        <ele>-10.917846679688</ele>
        <time>2015-07-25T12:55:12Z</time>
      </trkpt>
      <trkpt lat="42.50942" lon="7.84138">
        <ele>-12.840454101562</ele>
        <time>2015-07-25T12:55:24Z</time>
      </trkpt>
      <trkpt lat="42.50915" lon="7.84182">
        <ele>-12.35986328125</ele>
        <time>2015-07-25T12:55:36Z</time>
      </trkpt>
      <trkpt lat="42.50873" lon="7.84238">
        <ele>-11.3984375</ele>
        <time>2015-07-25T12:55:51Z</time>
      </trkpt>
      <trkpt lat="42.50847" lon="7.84265">
        <ele>-10.437255859375</ele>
        <time>2015-07-25T12:56:00Z</time>
      </trkpt>
      <trkpt lat="42.50805" lon="7.84318">
        <ele>-12.35986328125</ele>
        <time>2015-07-25T12:56:17Z</time>
      </trkpt>
      <trkpt lat="42.50775" lon="7.84367">
        <ele>-12.35986328125</ele>
        <time>2015-07-25T12:56:32Z</time>
      </trkpt>
      <trkpt lat="42.50756" lon="7.84408">
        <ele>-12.35986328125</ele>
        <time>2015-07-25T12:56:43Z</time>
      </trkpt>
      <trkpt lat="42.50737" lon="7.84448">
        <ele>-11.879150390625</ele>
        <time>2015-07-25T12:56:55Z</time>
      </trkpt>
      <trkpt lat="42.5071" lon="7.84507">
        <ele>-11.879150390625</ele>
        <time>2015-07-25T12:57:13Z</time>
      </trkpt>
      <trkpt lat="42.50688" lon="7.84543">
        <ele>-11.879150390625</ele>
        <time>2015-07-25T12:57:25Z</time>
      </trkpt>
      <trkpt lat="42.5065" lon="7.84604">
        <ele>-11.3984375</ele>
        <time>2015-07-25T12:57:45Z</time>
      </trkpt>
      <trkpt lat="42.50625" lon="7.84641">
        <ele>-11.879150390625</ele>
        <time>2015-07-25T12:57:57Z</time>
      </trkpt>
      <trkpt lat="42.50597" lon="7.84679">
        <ele>-12.35986328125</ele>
        <time>2015-07-25T12:58:10Z</time>
      </trkpt>
      <trkpt lat="42.50576" lon="7.84718">
        <ele>-11.3984375</ele>
        <time>2015-07-25T12:58:21Z</time>
      </trkpt>
      <trkpt lat="42.50537" lon="7.84768">
        <ele>-11.3984375</ele>
        <time>2015-07-25T12:58:38Z</time>
      </trkpt>
      <trkpt lat="42.5051" lon="7.84801">
        <ele>-11.879150390625</ele>
        <time>2015-07-25T12:58:49Z</time>
      </trkpt>
      <trkpt lat="42.5048" lon="7.8485">
        <ele>-11.3984375</ele>
        <time>2015-07-25T12:59:04Z</time>
      </trkpt>
      <trkpt lat="42.50447" lon="7.84892">
        <ele>-11.3984375</ele>
        <time>2015-07-25T12:59:17Z</time>
      </trkpt>
      <trkpt lat="42.50428" lon="7.84932">
        <ele>-11.879150390625</ele>
        <time>2015-07-25T12:59:29Z</time>
      </trkpt>
      <trkpt lat="42.5039" lon="7.85011">
        <ele>-11.879150390625</ele>
        <time>2015-07-25T12:59:52Z</time>
      </trkpt>
      <trkpt lat="42.50358" lon="7.85051">
        <ele>-11.879150390625</ele>
        <time>2015-07-25T13:00:05Z</time>
      </trkpt>
      <trkpt lat="42.50328" lon="7.85088">
        <ele>-11.3984375</ele>
        <time>2015-07-25T13:00:17Z</time>
      </trkpt>
      <trkpt lat="42.50306" lon="7.85132">
        <ele>-12.35986328125</ele>
        <time>2015-07-25T13:00:29Z</time>
      </trkpt>
      <trkpt lat="42.50277" lon="7.85168">
        <ele>-12.35986328125</ele>
        <time>2015-07-25T13:00:41Z</time>
      </trkpt>
      <trkpt lat="42.50254" lon="7.85209">
        <ele>-12.35986328125</ele>
        <time>2015-07-25T13:00:52Z</time>
      </trkpt>
      <trkpt lat="42.50228" lon="7.85237">
        <ele>-9.95654296875</ele>
        <time>2015-07-25T13:01:01Z</time>
      </trkpt>
      <trkpt lat="42.50207" lon="7.85273">
        <ele>-12.35986328125</ele>
        <time>2015-07-25T13:01:13Z</time>
      </trkpt>
      <trkpt lat="42.50184" lon="7.85314">
        <ele>-11.3984375</ele>
        <time>2015-07-25T13:01:25Z</time>
      </trkpt>
      <trkpt lat="42.50164" lon="7.85352">
        <ele>-11.879150390625</ele>
        <time>2015-07-25T13:01:36Z</time>
      </trkpt>
      <trkpt lat="42.50141" lon="7.85397">
        <ele>-11.879150390625</ele>
        <time>2015-07-25T13:01:49Z</time>
      </trkpt>
      <trkpt lat="42.50111" lon="7.85428">
        <ele>-11.879150390625</ele>
        <time>2015-07-25T13:02:01Z</time>
      </trkpt>
      <trkpt lat="42.50076" lon="7.85469">
        <ele>-11.879150390625</ele>
        <time>2015-07-25T13:02:14Z</time>
      </trkpt>
      <trkpt lat="42.50046" lon="7.85513">
        <ele>-12.840454101562</ele>
        <time>2015-07-25T13:02:28Z</time>
      </trkpt>
      <trkpt lat="42.50022" lon="7.85563">
        <ele>-11.879150390625</ele>
        <time>2015-07-25T13:02:42Z</time>
      </trkpt>
      <trkpt lat="42.49993" lon="7.85607">
        <ele>-10.917846679688</ele>
        <time>2015-07-25T13:02:56Z</time>
      </trkpt>
      <trkpt lat="42.4997" lon="7.8564">
        <ele>-10.917846679688</ele>
        <time>2015-07-25T13:03:06Z</time>
      </trkpt>
      <trkpt lat="42.49946" lon="7.85688">
        <ele>-11.879150390625</ele>
        <time>2015-07-25T13:03:20Z</time>
      </trkpt>
      <trkpt lat="42.49923" lon="7.85741">
        <ele>-10.917846679688</ele>
        <time>2015-07-25T13:03:34Z</time>
      </trkpt>
      <trkpt lat="42.49902" lon="7.85798">
        <ele>-11.879150390625</ele>
        <time>2015-07-25T13:03:51Z</time>
      </trkpt>
      <trkpt lat="42.49875" lon="7.85833">
        <ele>-11.3984375</ele>
        <time>2015-07-25T13:04:04Z</time>
      </trkpt>
      <trkpt lat="42.49852" lon="7.85867">
        <ele>-11.3984375</ele>
        <time>2015-07-25T13:04:14Z</time>
      </trkpt>
      <trkpt lat="42.49832" lon="7.85903">
        <ele>-10.917846679688</ele>
        <time>2015-07-25T13:04:25Z</time>
      </trkpt>
      <trkpt lat="42.498" lon="7.85954">
        <ele>-11.879150390625</ele>
        <time>2015-07-25T13:04:40Z</time>
      </trkpt>
      <trkpt lat="42.49768" lon="7.86">
        <ele>-12.35986328125</ele>
        <time>2015-07-25T13:04:55Z</time>
      </trkpt>
      <trkpt lat="42.49742" lon="7.86043">
        <ele>-11.3984375</ele>
        <time>2015-07-25T13:05:07Z</time>
      </trkpt>
      <trkpt lat="42.49702" lon="7.86091">
        <ele>-12.35986328125</ele>
        <time>2015-07-25T13:05:23Z</time>
      </trkpt>
      <trkpt lat="42.49675" lon="7.86134">
        <ele>-11.3984375</ele>
        <time>2015-07-25T13:05:36Z</time>
      </trkpt>
      <trkpt lat="42.49645" lon="7.86175">
        <ele>-11.879150390625</ele>
        <time>2015-07-25T13:05:49Z</time>
      </trkpt>
      <trkpt lat="42.49605" lon="7.86245">
        <ele>-12.35986328125</ele>
        <time>2015-07-25T13:06:09Z</time>
      </trkpt>
      <trkpt lat="42.49581" lon="7.86289">
        <ele>-10.917846679688</ele>
        <time>2015-07-25T13:06:21Z</time>
      </trkpt>
      <trkpt lat="42.49552" lon="7.86334">
        <ele>-11.3984375</ele>
        <time>2015-07-25T13:06:33Z</time>
      </trkpt>
      <trkpt lat="42.49524" lon="7.86369">
        <ele>-11.879150390625</ele>
        <time>2015-07-25T13:06:44Z</time>
      </trkpt>
      <trkpt lat="42.49495" lon="7.86413">
        <ele>-10.437255859375</ele>
        <time>2015-07-25T13:06:56Z</time>
      </trkpt>
      <trkpt lat="42.49458" lon="7.86479">
        <ele>-11.879150390625</ele>
        <time>2015-07-25T13:07:14Z</time>
      </trkpt>
      <trkpt lat="42.49437" lon="7.86519">
        <ele>-12.35986328125</ele>
        <time>2015-07-25T13:07:25Z</time>
      </trkpt>
      <trkpt lat="42.49408" lon="7.86575">
        <ele>-11.879150390625</ele>
        <time>2015-07-25T13:07:40Z</time>
      </trkpt>
      <trkpt lat="42.49387" lon="7.86612">
        <ele>-11.3984375</ele>
        <time>2015-07-25T13:07:51Z</time>
      </trkpt>
      <trkpt lat="42.49361" lon="7.86646">
        <ele>-10.917846679688</ele>
        <time>2015-07-25T13:08:03Z</time>
      </trkpt>
      <trkpt lat="42.49337" lon="7.86686">
        <ele>-11.879150390625</ele>
        <time>2015-07-25T13:08:15Z</time>
      </trkpt>
      <trkpt lat="42.49314" lon="7.86724">
        <ele>-10.437255859375</ele>
        <time>2015-07-25T13:08:26Z</time>
      </trkpt>
      <trkpt lat="42.49278" lon="7.86797">
        <ele>-10.917846679688</ele>
        <time>2015-07-25T13:08:47Z</time>
      </trkpt>
      <trkpt lat="42.49245" lon="7.86831">
        <ele>-10.437255859375</ele>
        <time>2015-07-25T13:08:59Z</time>
      </trkpt>
      <trkpt lat="42.49206" lon="7.86887">
        <ele>-10.437255859375</ele>
        <time>2015-07-25T13:09:17Z</time>
      </trkpt>
      <trkpt lat="42.4918" lon="7.86918">
        <ele>-10.437255859375</ele>
        <time>2015-07-25T13:09:27Z</time>
      </trkpt>
      <trkpt lat="42.49152" lon="7.86952">
        <ele>-11.879150390625</ele>
        <time>2015-07-25T13:09:38Z</time>
      </trkpt>
      <trkpt lat="42.49121" lon="7.86987">
        <ele>-11.3984375</ele>
        <time>2015-07-25T13:09:51Z</time>
      </trkpt>
      <trkpt lat="42.49089" lon="7.87034">
        <ele>-10.437255859375</ele>
        <time>2015-07-25T13:10:04Z</time>
      </trkpt>
      <trkpt lat="42.49057" lon="7.87089">
        <ele>-10.917846679688</ele>
        <time>2015-07-25T13:10:19Z</time>
      </trkpt>
      <trkpt lat="42.49029" lon="7.87128">
        <ele>-11.3984375</ele>
        <time>2015-07-25T13:10:32Z</time>
      </trkpt>
      <trkpt lat="42.49005" lon="7.87167">
        <ele>-10.437255859375</ele>
        <time>2015-07-25T13:10:45Z</time>
      </trkpt>
      <trkpt lat="42.48972" lon="7.87206">
        <ele>-11.3984375</ele>
        <time>2015-07-25T13:11:00Z</time>
      </trkpt>
      <trkpt lat="42.48939" lon="7.87256">
        <ele>-10.437255859375</ele>
        <time>2015-07-25T13:11:17Z</time>
      </trkpt>
      <trkpt lat="42.48905" lon="7.87301">
        <ele>-10.437255859375</ele>
        <time>2015-07-25T13:11:34Z</time>
      </trkpt>
      <trkpt lat="42.48877" lon="7.87325">
        <ele>-10.437255859375</ele>
        <time>2015-07-25T13:11:45Z</time>
      </trkpt>
      <trkpt lat="42.48838" lon="7.87373">
        <ele>-11.879150390625</ele>
        <time>2015-07-25T13:12:01Z</time>
      </trkpt>
      <trkpt lat="42.48794" lon="7.87433">
        <ele>-10.437255859375</ele>
        <time>2015-07-25T13:12:20Z</time>
      </trkpt>
      <trkpt lat="42.4877" lon="7.87466">
        <ele>-10.917846679688</ele>
        <time>2015-07-25T13:12:31Z</time>
      </trkpt>
      <trkpt lat="42.48737" lon="7.87522">
        <ele>-10.917846679688</ele>
        <time>2015-07-25T13:12:50Z</time>
      </trkpt>
      <trkpt lat="42.4871" lon="7.87564">
        <ele>-11.3984375</ele>
        <time>2015-07-25T13:13:03Z</time>
      </trkpt>
      <trkpt lat="42.48685" lon="7.87605">
        <ele>-10.437255859375</ele>
        <time>2015-07-25T13:13:15Z</time>
      </trkpt>
      <trkpt lat="42.48659" lon="7.87641">
        <ele>-11.879150390625</ele>
        <time>2015-07-25T13:13:27Z</time>
      </trkpt>
      <trkpt lat="42.48634" lon="7.87672">
        <ele>-9.475830078125</ele>
        <time>2015-07-25T13:13:37Z</time>
      </trkpt>
      <trkpt lat="42.48605" lon="7.87703">
        <ele>-10.917846679688</ele>
        <time>2015-07-25T13:13:48Z</time>
      </trkpt>
      <trkpt lat="42.48581" lon="7.87731">
        <ele>-11.3984375</ele>
        <time>2015-07-25T13:13:58Z</time>
      </trkpt>
      <trkpt lat="42.48554" lon="7.87755">
        <ele>-9.95654296875</ele>
        <time>2015-07-25T13:14:07Z</time>
      </trkpt>
      <trkpt lat="42.48525" lon="7.87781">
        <ele>-11.879150390625</ele>
        <time>2015-07-25T13:14:18Z</time>
      </trkpt>
      <trkpt lat="42.48484" lon="7.87851">
        <ele>-10.917846679688</ele>
        <time>2015-07-25T13:14:38Z</time>
      </trkpt>
      <trkpt lat="42.48456" lon="7.87887">
        <ele>-10.917846679688</ele>
        <time>2015-07-25T13:14:50Z</time>
      </trkpt>
      <trkpt lat="42.48432" lon="7.87925">
        <ele>-9.95654296875</ele>
        <time>2015-07-25T13:15:01Z</time>
      </trkpt>
      <trkpt lat="42.48391" lon="7.8798">
        <ele>-10.437255859375</ele>
        <time>2015-07-25T13:15:19Z</time>
      </trkpt>
      <trkpt lat="42.48352" lon="7.88033">
        <ele>-10.437255859375</ele>
        <time>2015-07-25T13:15:36Z</time>
      </trkpt>
      <trkpt lat="42.48312" lon="7.88097">
        <ele>-10.917846679688</ele>
        <time>2015-07-25T13:15:57Z</time>
      </trkpt>
      <trkpt lat="42.48286" lon="7.88131">
        <ele>-10.917846679688</ele>
        <time>2015-07-25T13:16:10Z</time>
      </trkpt>
      <trkpt lat="42.48258" lon="7.88181">
        <ele>-10.437255859375</ele>
        <time>2015-07-25T13:16:26Z</time>
      </trkpt>
      <trkpt lat="42.48237" lon="7.88214">
        <ele>-11.3984375</ele>
        <time>2015-07-25T13:16:37Z</time>
      </trkpt>
      <trkpt lat="42.48217" lon="7.88255">
        <ele>-10.917846679688</ele>
        <time>2015-07-25T13:16:49Z</time>
      </trkpt>
      <trkpt lat="42.48189" lon="7.88289">
        <ele>-9.95654296875</ele>
        <time>2015-07-25T13:17:01Z</time>
      </trkpt>
      <trkpt lat="42.48159" lon="7.8832">
        <ele>-10.917846679688</ele>
        <time>2015-07-25T13:17:13Z</time>
      </trkpt>
      <trkpt lat="42.48133" lon="7.88354">
        <ele>-9.475830078125</ele>
        <time>2015-07-25T13:17:24Z</time>
      </trkpt>
      <trkpt lat="42.48098" lon="7.88386">
        <ele>-10.437255859375</ele>
        <time>2015-07-25T13:17:37Z</time>
      </trkpt>
      <trkpt lat="42.48066" lon="7.88416">
        <ele>-9.95654296875</ele>
        <time>2015-07-25T13:17:48Z</time>
      </trkpt>
      <trkpt lat="42.48029" lon="7.88447">
        <ele>-10.437255859375</ele>
        <time>2015-07-25T13:18:01Z</time>
      </trkpt>
      <trkpt lat="42.48004" lon="7.88492">
        <ele>-10.917846679688</ele>
        <time>2015-07-25T13:18:14Z</time>
      </trkpt>
      <trkpt lat="42.47971" lon="7.88543">
        <ele>-9.95654296875</ele>
        <time>2015-07-25T13:18:30Z</time>
      </trkpt>
      <trkpt lat="42.47948" lon="7.88591">
        <ele>-11.879150390625</ele>
        <time>2015-07-25T13:18:44Z</time>
      </trkpt>
      <trkpt lat="42.47928" lon="7.88629">
        <ele>-11.3984375</ele>
        <time>2015-07-25T13:18:55Z</time>
      </trkpt>
      <trkpt lat="42.4791" lon="7.88676">
        <ele>-11.3984375</ele>
        <time>2015-07-25T13:19:08Z</time>
      </trkpt>
      <trkpt lat="42.47888" lon="7.8871">
        <ele>-10.917846679688</ele>
        <time>2015-07-25T13:19:18Z</time>
      </trkpt>
      <trkpt lat="42.47864" lon="7.88756">
        <ele>-10.917846679688</ele>
        <time>2015-07-25T13:19:31Z</time>
      </trkpt>
      <trkpt lat="42.47835" lon="7.88799">
        <ele>-10.437255859375</ele>
        <time>2015-07-25T13:19:45Z</time>
      </trkpt>
      <trkpt lat="42.47809" lon="7.88845">
        <ele>-10.917846679688</ele>
        <time>2015-07-25T13:19:58Z</time>
      </trkpt>
      <trkpt lat="42.47781" lon="7.88882">
        <ele>-10.917846679688</ele>
        <time>2015-07-25T13:20:10Z</time>
      </trkpt>
      <trkpt lat="42.47735" lon="7.88925">
        <ele>-10.437255859375</ele>
        <time>2015-07-25T13:20:27Z</time>
      </trkpt>
      <trkpt lat="42.47697" lon="7.88964">
        <ele>-10.437255859375</ele>
        <time>2015-07-25T13:20:41Z</time>
      </trkpt>
      <trkpt lat="42.47651" lon="7.89007">
        <ele>-11.3984375</ele>
        <time>2015-07-25T13:20:58Z</time>
      </trkpt>
      <trkpt lat="42.4761" lon="7.8907">
        <ele>-10.437255859375</ele>
        <time>2015-07-25T13:21:17Z</time>
      </trkpt>
      <trkpt lat="42.47585" lon="7.89105">
        <ele>-9.475830078125</ele>
        <time>2015-07-25T13:21:28Z</time>
      </trkpt>
      <trkpt lat="42.47559" lon="7.89138">
        <ele>-11.3984375</ele>
        <time>2015-07-25T13:21:38Z</time>
      </trkpt>
      <trkpt lat="42.47531" lon="7.89185">
        <ele>-9.95654296875</ele>
        <time>2015-07-25T13:21:51Z</time>
      </trkpt>
      <trkpt lat="42.47507" lon="7.8922">
        <ele>-9.475830078125</ele>
        <time>2015-07-25T13:22:01Z</time>
      </trkpt>
      <trkpt lat="42.47457" lon="7.89292">
        <ele>-10.437255859375</ele>
        <time>2015-07-25T13:22:23Z</time>
      </trkpt>
      <trkpt lat="42.47436" lon="7.89324">
        <ele>-10.917846679688</ele>
        <time>2015-07-25T13:22:33Z</time>
      </trkpt>
      <trkpt lat="42.47409" lon="7.89351">
        <ele>-9.475830078125</ele>
        <time>2015-07-25T13:22:43Z</time>
      </trkpt>
      <trkpt lat="42.47385" lon="7.89383">
        <ele>-9.475830078125</ele>
        <time>2015-07-25T13:22:52Z</time>
      </trkpt>
      <trkpt lat="42.47345" lon="7.89434">
        <ele>-10.437255859375</ele>
        <time>2015-07-25T13:23:08Z</time>
      </trkpt>
      <trkpt lat="42.47319" lon="7.89458">
        <ele>-8.5146484375</ele>
        <time>2015-07-25T13:23:17Z</time>
      </trkpt>
      <trkpt lat="42.47284" lon="7.89439">
        <ele>-8.5146484375</ele>
        <time>2015-07-25T13:23:40Z</time>
      </trkpt>
      <trkpt lat="42.47242" lon="7.89433">
        <ele>-9.95654296875</ele>
        <time>2015-07-25T13:23:59Z</time>
      </trkpt>
      <trkpt lat="42.4721" lon="7.89509">
        <ele>-11.3984375</ele>
        <time>2015-07-25T13:24:18Z</time>
      </trkpt>
      <trkpt lat="42.47201" lon="7.89553">
        <ele>-12.35986328125</ele>
        <time>2015-07-25T13:24:29Z</time>
      </trkpt>
      <trkpt lat="42.47157" lon="7.89612">
        <ele>-11.879150390625</ele>
        <time>2015-07-25T13:24:47Z</time>
      </trkpt>
      <trkpt lat="42.47139" lon="7.89658">
        <ele>-10.917846679688</ele>
        <time>2015-07-25T13:24:59Z</time>
      </trkpt>
      <trkpt lat="42.47111" lon="7.89717">
        <ele>-9.95654296875</ele>
        <time>2015-07-25T13:25:17Z</time>
      </trkpt>
      <trkpt lat="42.47094" lon="7.89758">
        <ele>-10.437255859375</ele>
        <time>2015-07-25T13:25:28Z</time>
      </trkpt>
      <trkpt lat="42.47079" lon="7.89803">
        <ele>-11.3984375</ele>
        <time>2015-07-25T13:25:41Z</time>
      </trkpt>
      <trkpt lat="42.47065" lon="7.89843">
        <ele>-10.917846679688</ele>
        <time>2015-07-25T13:25:52Z</time>
      </trkpt>
      <trkpt lat="42.47042" lon="7.89887">
        <ele>-9.95654296875</ele>
        <time>2015-07-25T13:26:05Z</time>
      </trkpt>
      <trkpt lat="42.4701" lon="7.89955">
        <ele>-10.437255859375</ele>
        <time>2015-07-25T13:26:23Z</time>
      </trkpt>
      <trkpt lat="42.46985" lon="7.9002">
        <ele>-10.917846679688</ele>
        <time>2015-07-25T13:26:40Z</time>
      </trkpt>
      <trkpt lat="42.4697" lon="7.90059">
        <ele>-11.3984375</ele>
        <time>2015-07-25T13:26:50Z</time>
      </trkpt>
      <trkpt lat="42.46923" lon="7.90131">
        <ele>-10.917846679688</ele>
        <time>2015-07-25T13:27:10Z</time>
      </trkpt>
      <trkpt lat="42.469" lon="7.90172">
        <ele>-9.95654296875</ele>
        <time>2015-07-25T13:27:21Z</time>
      </trkpt>
      <trkpt lat="42.46867" lon="7.90228">
        <ele>-9.95654296875</ele>
        <time>2015-07-25T13:27:37Z</time>
      </trkpt>
      <trkpt lat="42.46838" lon="7.90274">
        <ele>-10.437255859375</ele>
        <time>2015-07-25T13:27:51Z</time>
      </trkpt>
      <trkpt lat="42.46815" lon="7.90324">
        <ele>-11.3984375</ele>
        <time>2015-07-25T13:28:06Z</time>
      </trkpt>
      <trkpt lat="42.46791" lon="7.90363">
        <ele>-10.917846679688</ele>
        <time>2015-07-25T13:28:19Z</time>
      </trkpt>
      <trkpt lat="42.46763" lon="7.90397">
        <ele>-9.95654296875</ele>
        <time>2015-07-25T13:28:30Z</time>
      </trkpt>
      <trkpt lat="42.46731" lon="7.90439">
        <ele>-9.95654296875</ele>
        <time>2015-07-25T13:28:42Z</time>
      </trkpt>
      <trkpt lat="42.46697" lon="7.90474">
        <ele>-9.475830078125</ele>
        <time>2015-07-25T13:28:55Z</time>
      </trkpt>
      <trkpt lat="42.46675" lon="7.90519">
        <ele>-10.917846679688</ele>
        <time>2015-07-25T13:29:06Z</time>
      </trkpt>
      <trkpt lat="42.46641" lon="7.90587">
        <ele>-10.917846679688</ele>
        <time>2015-07-25T13:29:27Z</time>
      </trkpt>
      <trkpt lat="42.4662" lon="7.90626">
        <ele>-10.437255859375</ele>
        <time>2015-07-25T13:29:38Z</time>
      </trkpt>
      <trkpt lat="42.46602" lon="7.90661">
        <ele>-9.95654296875</ele>
        <time>2015-07-25T13:29:48Z</time>
      </trkpt>
      <trkpt lat="42.46581" lon="7.90696">
        <ele>-11.3984375</ele>
        <time>2015-07-25T13:29:58Z</time>
      </trkpt>
      <trkpt lat="42.46545" lon="7.90741">
        <ele>-9.95654296875</ele>
        <time>2015-07-25T13:30:12Z</time>
      </trkpt>
      <trkpt lat="42.46511" lon="7.90784">
        <ele>-9.475830078125</ele>
        <time>2015-07-25T13:30:25Z</time>
      </trkpt>
      <trkpt lat="42.46488" lon="7.90812">
        <ele>-10.917846679688</ele>
        <time>2015-07-25T13:30:34Z</time>
      </trkpt>
      <trkpt lat="42.46458" lon="7.90841">
        <ele>-9.475830078125</ele>
        <time>2015-07-25T13:30:44Z</time>
      </trkpt>
      <trkpt lat="42.46425" lon="7.90873">
        <ele>-9.475830078125</ele>
        <time>2015-07-25T13:30:55Z</time>
      </trkpt>
      <trkpt lat="42.46373" lon="7.90921">
        <ele>-10.437255859375</ele>
        <time>2015-07-25T13:31:13Z</time>
      </trkpt>
      <trkpt lat="42.46339" lon="7.90961">
        <ele>-9.95654296875</ele>
        <time>2015-07-25T13:31:27Z</time>
      </trkpt>
      <trkpt lat="42.46307" lon="7.9101">
        <ele>-10.917846679688</ele>
        <time>2015-07-25T13:31:40Z</time>
      </trkpt>
      <trkpt lat="42.46269" lon="7.91059">
        <ele>-10.437255859375</ele>
        <time>2015-07-25T13:31:55Z</time>
      </trkpt>
      <trkpt lat="42.46238" lon="7.9111">
        <ele>-11.3984375</ele>
        <time>2015-07-25T13:32:09Z</time>
      </trkpt>
      <trkpt lat="42.46199" lon="7.91165">
        <ele>-9.475830078125</ele>
        <time>2015-07-25T13:32:24Z</time>
      </trkpt>
      <trkpt lat="42.46167" lon="7.91221">
        <ele>-9.95654296875</ele>
        <time>2015-07-25T13:32:41Z</time>
      </trkpt>
      <trkpt lat="42.4614" lon="7.91253">
        <ele>-9.95654296875</ele>
        <time>2015-07-25T13:32:51Z</time>
      </trkpt>
      <trkpt lat="42.46116" lon="7.91289">
        <ele>-10.437255859375</ele>
        <time>2015-07-25T13:33:02Z</time>
      </trkpt>
      <trkpt lat="42.46074" lon="7.91345">
        <ele>-9.95654296875</ele>
        <time>2015-07-25T13:33:20Z</time>
      </trkpt>
      <trkpt lat="42.46038" lon="7.91382">
        <ele>-10.437255859375</ele>
        <time>2015-07-25T13:33:33Z</time>
      </trkpt>
      <trkpt lat="42.46002" lon="7.91419">
        <ele>-10.437255859375</ele>
        <time>2015-07-25T13:33:46Z</time>
      </trkpt>
      <trkpt lat="42.45971" lon="7.91441">
        <ele>-7.5531005859375</ele>
        <time>2015-07-25T13:33:56Z</time>
      </trkpt>
      <trkpt lat="42.45932" lon="7.91462">
        <ele>-9.95654296875</ele>
        <time>2015-07-25T13:34:08Z</time>
      </trkpt>
      <trkpt lat="42.45893" lon="7.91508">
        <ele>-10.437255859375</ele>
        <time>2015-07-25T13:34:22Z</time>
      </trkpt>
      <trkpt lat="42.45865" lon="7.91548">
        <ele>-10.437255859375</ele>
        <time>2015-07-25T13:34:34Z</time>
      </trkpt>
      <trkpt lat="42.45832" lon="7.91597">
        <ele>-10.437255859375</ele>
        <time>2015-07-25T13:34:47Z</time>
      </trkpt>
      <trkpt lat="42.45808" lon="7.91637">
        <ele>-9.95654296875</ele>
        <time>2015-07-25T13:34:59Z</time>
      </trkpt>
      <trkpt lat="42.45788" lon="7.91687">
        <ele>-11.879150390625</ele>
        <time>2015-07-25T13:35:13Z</time>
      </trkpt>
      <trkpt lat="42.45772" lon="7.91734">
        <ele>-9.475830078125</ele>
        <time>2015-07-25T13:35:24Z</time>
      </trkpt>
      <trkpt lat="42.45753" lon="7.91775">
        <ele>-12.35986328125</ele>
        <time>2015-07-25T13:35:36Z</time>
      </trkpt>
      <trkpt lat="42.45728" lon="7.91815">
        <ele>-10.437255859375</ele>
        <time>2015-07-25T13:35:48Z</time>
      </trkpt>
      <trkpt lat="42.45696" lon="7.91857">
        <ele>-10.437255859375</ele>
        <time>2015-07-25T13:36:01Z</time>
      </trkpt>
      <trkpt lat="42.45654" lon="7.91917">
        <ele>-11.3984375</ele>
        <time>2015-07-25T13:36:19Z</time>
      </trkpt>
      <trkpt lat="42.45615" lon="7.91965">
        <ele>-9.95654296875</ele>
        <time>2015-07-25T13:36:35Z</time>
      </trkpt>
      <trkpt lat="42.45591" lon="7.92002">
        <ele>-9.475830078125</ele>
        <time>2015-07-25T13:36:45Z</time>
      </trkpt>
      <trkpt lat="42.45565" lon="7.9204">
        <ele>-10.437255859375</ele>
        <time>2015-07-25T13:36:57Z</time>
      </trkpt>
      <trkpt lat="42.45538" lon="7.92084">
        <ele>-11.3984375</ele>
        <time>2015-07-25T13:37:10Z</time>
      </trkpt>
      <trkpt lat="42.45509" lon="7.9213">
        <ele>-10.437255859375</ele>
        <time>2015-07-25T13:37:23Z</time>
      </trkpt>
      <trkpt lat="42.45478" lon="7.92192">
        <ele>-10.437255859375</ele>
        <time>2015-07-25T13:37:41Z</time>
      </trkpt>
      <trkpt lat="42.45459" lon="7.92229">
        <ele>-8.9952392578125</ele>
        <time>2015-07-25T13:37:51Z</time>
      </trkpt>
      <trkpt lat="42.4542" lon="7.92256">
        <ele>-11.3984375</ele>
        <time>2015-07-25T13:38:04Z</time>
      </trkpt>
      <trkpt lat="42.45393" lon="7.9232">
        <ele>-10.437255859375</ele>
        <time>2015-07-25T13:38:20Z</time>
      </trkpt>
      <trkpt lat="42.45373" lon="7.92365">
        <ele>-11.3984375</ele>
        <time>2015-07-25T13:38:34Z</time>
      </trkpt>
      <trkpt lat="42.45348" lon="7.92401">
        <ele>-9.95654296875</ele>
        <time>2015-07-25T13:38:45Z</time>
      </trkpt>
      <trkpt lat="42.45325" lon="7.92454">
        <ele>-10.917846679688</ele>
        <time>2015-07-25T13:38:58Z</time>
      </trkpt>
      <trkpt lat="42.45306" lon="7.92493">
        <ele>-10.917846679688</ele>
        <time>2015-07-25T13:39:09Z</time>
      </trkpt>
      <trkpt lat="42.45286" lon="7.92546">
        <ele>-10.437255859375</ele>
        <time>2015-07-25T13:39:23Z</time>
      </trkpt>
      <trkpt lat="42.45261" lon="7.9259">
        <ele>-10.917846679688</ele>
        <time>2015-07-25T13:39:35Z</time>
      </trkpt>
      <trkpt lat="42.45239" lon="7.92631">
        <ele>-9.95654296875</ele>
        <time>2015-07-25T13:39:46Z</time>
      </trkpt>
      <trkpt lat="42.45211" lon="7.92681">
        <ele>-11.3984375</ele>
        <time>2015-07-25T13:40:00Z</time>
      </trkpt>
      <trkpt lat="42.45196" lon="7.92727">
        <ele>-10.917846679688</ele>
        <time>2015-07-25T13:40:11Z</time>
      </trkpt>
      <trkpt lat="42.45178" lon="7.92766">
        <ele>-9.475830078125</ele>
        <time>2015-07-25T13:40:21Z</time>
      </trkpt>
      <trkpt lat="42.45138" lon="7.92791">
        <ele>-10.437255859375</ele>
        <time>2015-07-25T13:40:33Z</time>
      </trkpt>
      <trkpt lat="42.45099" lon="7.92853">
        <ele>-9.95654296875</ele>
        <time>2015-07-25T13:40:51Z</time>
      </trkpt>
      <trkpt lat="42.45063" lon="7.92923">
        <ele>-11.3984375</ele>
        <time>2015-07-25T13:41:10Z</time>
      </trkpt>
      <trkpt lat="42.45036" lon="7.92981">
        <ele>-9.95654296875</ele>
        <time>2015-07-25T13:41:25Z</time>
      </trkpt>
      <trkpt lat="42.45014" lon="7.93012">
        <ele>-9.475830078125</ele>
        <time>2015-07-25T13:41:34Z</time>
      </trkpt>
      <trkpt lat="42.44988" lon="7.9307">
        <ele>-9.475830078125</ele>
        <time>2015-07-25T13:41:50Z</time>
      </trkpt>
      <trkpt lat="42.44961" lon="7.93107">
        <ele>-10.437255859375</ele>
        <time>2015-07-25T13:42:02Z</time>
      </trkpt>
      <trkpt lat="42.44943" lon="7.93145">
        <ele>-10.917846679688</ele>
        <time>2015-07-25T13:42:13Z</time>
      </trkpt>
      <trkpt lat="42.44913" lon="7.93191">
        <ele>-10.917846679688</ele>
        <time>2015-07-25T13:42:27Z</time>
      </trkpt>
      <trkpt lat="42.44893" lon="7.93234">
        <ele>-10.437255859375</ele>
        <time>2015-07-25T13:42:39Z</time>
      </trkpt>
      <trkpt lat="42.44862" lon="7.93273">
        <ele>-9.475830078125</ele>
        <time>2015-07-25T13:42:52Z</time>
      </trkpt>
      <trkpt lat="42.44827" lon="7.93315">
        <ele>-9.475830078125</ele>
        <time>2015-07-25T13:43:07Z</time>
      </trkpt>
      <trkpt lat="42.44783" lon="7.9336">
        <ele>-10.917846679688</ele>
        <time>2015-07-25T13:43:24Z</time>
      </trkpt>
      <trkpt lat="42.44741" lon="7.93422">
        <ele>-9.95654296875</ele>
        <time>2015-07-25T13:43:42Z</time>
      </trkpt>
      <trkpt lat="42.44709" lon="7.93488">
        <ele>-9.475830078125</ele>
        <time>2015-07-25T13:44:00Z</time>
      </trkpt>
      <trkpt lat="42.44684" lon="7.93546">
        <ele>-9.95654296875</ele>
        <time>2015-07-25T13:44:17Z</time>
      </trkpt>
      <trkpt lat="42.44651" lon="7.93595">
        <ele>-10.437255859375</ele>
        <time>2015-07-25T13:44:32Z</time>
      </trkpt>
      <trkpt lat="42.44625" lon="7.93631">
        <ele>-10.437255859375</ele>
        <time>2015-07-25T13:44:44Z</time>
      </trkpt>
      <trkpt lat="42.44585" lon="7.93699">
        <ele>-11.3984375</ele>
        <time>2015-07-25T13:45:04Z</time>
      </trkpt>
      <trkpt lat="42.44562" lon="7.93748">
        <ele>-9.475830078125</ele>
        <time>2015-07-25T13:45:18Z</time>
      </trkpt>
      <trkpt lat="42.44541" lon="7.93782">
        <ele>-11.3984375</ele>
        <time>2015-07-25T13:45:29Z</time>
      </trkpt>
      <trkpt lat="42.44495" lon="7.93843">
        <ele>-10.437255859375</ele>
        <time>2015-07-25T13:45:47Z</time>
      </trkpt>
      <trkpt lat="42.44463" lon="7.9388">
        <ele>-8.033935546875</ele>
        <time>2015-07-25T13:45:59Z</time>
      </trkpt>
      <trkpt lat="42.44415" lon="7.93938">
        <ele>-9.475830078125</ele>
        <time>2015-07-25T13:46:18Z</time>
      </trkpt>
      <trkpt lat="42.44369" lon="7.94014">
        <ele>-9.475830078125</ele>
        <time>2015-07-25T13:46:40Z</time>
      </trkpt>
      <trkpt lat="42.44346" lon="7.94051">
        <ele>-10.917846679688</ele>
        <time>2015-07-25T13:46:50Z</time>
      </trkpt>
      <trkpt lat="42.44318" lon="7.94081">
        <ele>-8.033935546875</ele>
        <time>2015-07-25T13:47:01Z</time>
      </trkpt>
      <trkpt lat="42.44287" lon="7.94117">
        <ele>-8.9952392578125</ele>
        <time>2015-07-25T13:47:12Z</time>
      </trkpt>
      <trkpt lat="42.44242" lon="7.94187">
        <ele>-10.917846679688</ele>
        <time>2015-07-25T13:47:32Z</time>
      </trkpt>
      <trkpt lat="42.44211" lon="7.9425">
        <ele>-10.917846679688</ele>
        <time>2015-07-25T13:47:50Z</time>
      </trkpt>
      <trkpt lat="42.44185" lon="7.94302">
        <ele>-8.9952392578125</ele>
        <time>2015-07-25T13:48:04Z</time>
      </trkpt>
      <trkpt lat="42.44147" lon="7.94365">
        <ele>-9.95654296875</ele>
        <time>2015-07-25T13:48:20Z</time>
      </trkpt>
      <trkpt lat="42.44116" lon="7.94411">
        <ele>-10.437255859375</ele>
        <time>2015-07-25T13:48:32Z</time>
      </trkpt>
      <trkpt lat="42.44091" lon="7.94456">
        <ele>-10.917846679688</ele>
        <time>2015-07-25T13:48:43Z</time>
      </trkpt>
      <trkpt lat="42.44063" lon="7.945">
        <ele>-9.95654296875</ele>
        <time>2015-07-25T13:48:55Z</time>
      </trkpt>
      <trkpt lat="42.4404" lon="7.9454">
        <ele>-9.475830078125</ele>
        <time>2015-07-25T13:49:05Z</time>
      </trkpt>
      <trkpt lat="42.44013" lon="7.94594">
        <ele>-10.917846679688</ele>
        <time>2015-07-25T13:49:18Z</time>
      </trkpt>
      <trkpt lat="42.43992" lon="7.9465">
        <ele>-9.95654296875</ele>
        <time>2015-07-25T13:49:32Z</time>
      </trkpt>
      <trkpt lat="42.43974" lon="7.94694">
        <ele>-11.3984375</ele>
        <time>2015-07-25T13:49:44Z</time>
      </trkpt>
      <trkpt lat="42.4393" lon="7.94775">
        <ele>-9.95654296875</ele>
        <time>2015-07-25T13:50:06Z</time>
      </trkpt>
      <trkpt lat="42.43904" lon="7.94828">
        <ele>-9.95654296875</ele>
        <time>2015-07-25T13:50:20Z</time>
      </trkpt>
      <trkpt lat="42.43884" lon="7.94861">
        <ele>-8.9952392578125</ele>
        <time>2015-07-25T13:50:30Z</time>
      </trkpt>
      <trkpt lat="42.43845" lon="7.94896">
        <ele>-10.437255859375</ele>
        <time>2015-07-25T13:50:43Z</time>
      </trkpt>
      <trkpt lat="42.43817" lon="7.9494">
        <ele>-10.917846679688</ele>
        <time>2015-07-25T13:50:57Z</time>
      </trkpt>
      <trkpt lat="42.4379" lon="7.94986">
        <ele>-10.917846679688</ele>
        <time>2015-07-25T13:51:12Z</time>
      </trkpt>
      <trkpt lat="42.4377" lon="7.95025">
        <ele>-10.437255859375</ele>
        <time>2015-07-25T13:51:24Z</time>
      </trkpt>
      <trkpt lat="42.4374" lon="7.95067">
        <ele>-10.437255859375</ele>
        <time>2015-07-25T13:51:37Z</time>
      </trkpt>
      <trkpt lat="42.43717" lon="7.95112">
        <ele>-10.917846679688</ele>
        <time>2015-07-25T13:51:49Z</time>
      </trkpt>
      <trkpt lat="42.43695" lon="7.9515">
        <ele>-10.437255859375</ele>
        <time>2015-07-25T13:52:00Z</time>
      </trkpt>
      <trkpt lat="42.43662" lon="7.95195">
        <ele>-10.437255859375</ele>
        <time>2015-07-25T13:52:13Z</time>
      </trkpt>
      <trkpt lat="42.43625" lon="7.95256">
        <ele>-9.95654296875</ele>
        <time>2015-07-25T13:52:30Z</time>
      </trkpt>
      <trkpt lat="42.43599" lon="7.95303">
        <ele>-11.879150390625</ele>
        <time>2015-07-25T13:52:44Z</time>
      </trkpt>
      <trkpt lat="42.43567" lon="7.95363">
        <ele>-10.917846679688</ele>
        <time>2015-07-25T13:53:00Z</time>
      </trkpt>
      <trkpt lat="42.43546" lon="7.95397">
        <ele>-9.95654296875</ele>
        <time>2015-07-25T13:53:11Z</time>
      </trkpt>
      <trkpt lat="42.4352" lon="7.95428">
        <ele>-11.3984375</ele>
        <time>2015-07-25T13:53:21Z</time>
      </trkpt>
      <trkpt lat="42.43477" lon="7.95492">
        <ele>-9.475830078125</ele>
        <time>2015-07-25T13:53:40Z</time>
      </trkpt>
      <trkpt lat="42.43455" lon="7.95527">
        <ele>-10.917846679688</ele>
        <time>2015-07-25T13:53:51Z</time>
      </trkpt>
      <trkpt lat="42.4341" lon="7.95586">
        <ele>-10.917846679688</ele>
        <time>2015-07-25T13:54:09Z</time>
      </trkpt>
      <trkpt lat="42.43385" lon="7.95613">
        <ele>-9.95654296875</ele>
        <time>2015-07-25T13:54:18Z</time>
      </trkpt>
      <trkpt lat="42.43367" lon="7.95648">
        <ele>-10.917846679688</ele>
        <time>2015-07-25T13:54:29Z</time>
      </trkpt>
      <trkpt lat="42.43331" lon="7.95701">
        <ele>-11.3984375</ele>
        <time>2015-07-25T13:54:47Z</time>
      </trkpt>
      <trkpt lat="42.43303" lon="7.9574">
        <ele>-10.437255859375</ele>
        <time>2015-07-25T13:54:58Z</time>
      </trkpt>
      <trkpt lat="42.4328" lon="7.95779">
        <ele>-11.879150390625</ele>
        <time>2015-07-25T13:55:09Z</time>
      </trkpt>
      <trkpt lat="42.4325" lon="7.95802">
        <ele>-9.475830078125</ele>
        <time>2015-07-25T13:55:20Z</time>
      </trkpt>
      <trkpt lat="42.43208" lon="7.95854">
        <ele>-10.437255859375</ele>
        <time>2015-07-25T13:55:37Z</time>
      </trkpt>
      <trkpt lat="42.43171" lon="7.95915">
        <ele>-11.3984375</ele>
        <time>2015-07-25T13:55:55Z</time>
      </trkpt>
      <trkpt lat="42.43144" lon="7.95951">
        <ele>-10.917846679688</ele>
        <time>2015-07-25T13:56:06Z</time>
      </trkpt>
      <trkpt lat="42.43105" lon="7.96009">
        <ele>-12.35986328125</ele>
        <time>2015-07-25T13:56:24Z</time>
      </trkpt>
      <trkpt lat="42.4307" lon="7.96062">
        <ele>-12.35986328125</ele>
        <time>2015-07-25T13:56:40Z</time>
      </trkpt>
      <trkpt lat="42.43036" lon="7.96119">
        <ele>-10.917846679688</ele>
        <time>2015-07-25T13:56:55Z</time>
      </trkpt>
      <trkpt lat="42.43018" lon="7.96157">
        <ele>-10.917846679688</ele>
        <time>2015-07-25T13:57:06Z</time>
      </trkpt>
      <trkpt lat="42.42998" lon="7.962">
        <ele>-10.917846679688</ele>
        <time>2015-07-25T13:57:18Z</time>
      </trkpt>
      <trkpt lat="42.42976" lon="7.96241">
        <ele>-10.917846679688</ele>
        <time>2015-07-25T13:57:30Z</time>
      </trkpt>
      <trkpt lat="42.42955" lon="7.96274">
        <ele>-10.437255859375</ele>
        <time>2015-07-25T13:57:40Z</time>
      </trkpt>
      <trkpt lat="42.42922" lon="7.96317">
        <ele>-9.95654296875</ele>
        <time>2015-07-25T13:57:54Z</time>
      </trkpt>
      <trkpt lat="42.42891" lon="7.96352">
        <ele>-11.3984375</ele>
        <time>2015-07-25T13:58:06Z</time>
      </trkpt>
      <trkpt lat="42.4284" lon="7.96391">
        <ele>-9.95654296875</ele>
        <time>2015-07-25T13:58:24Z</time>
      </trkpt>
      <trkpt lat="42.42812" lon="7.96421">
        <ele>-11.3984375</ele>
        <time>2015-07-25T13:58:35Z</time>
      </trkpt>
      <trkpt lat="42.42773" lon="7.96458">
        <ele>-10.917846679688</ele>
        <time>2015-07-25T13:58:50Z</time>
      </trkpt>
      <trkpt lat="42.42724" lon="7.9651">
        <ele>-9.95654296875</ele>
        <time>2015-07-25T13:59:08Z</time>
      </trkpt>
      <trkpt lat="42.4269" lon="7.9656">
        <ele>-9.95654296875</ele>
        <time>2015-07-25T13:59:24Z</time>
      </trkpt>
      <trkpt lat="42.4267" lon="7.96595">
        <ele>-11.879150390625</ele>
        <time>2015-07-25T13:59:35Z</time>
      </trkpt>
      <trkpt lat="42.42623" lon="7.96672">
        <ele>-10.917846679688</ele>
        <time>2015-07-25T13:59:59Z</time>
      </trkpt>
      <trkpt lat="42.42602" lon="7.96715">
        <ele>-11.3984375</ele>
        <time>2015-07-25T14:00:11Z</time>
      </trkpt>
      <trkpt lat="42.42579" lon="7.9675">
        <ele>-11.3984375</ele>
        <time>2015-07-25T14:00:22Z</time>
      </trkpt>
      <trkpt lat="42.42554" lon="7.96791">
        <ele>-10.917846679688</ele>
        <time>2015-07-25T14:00:34Z</time>
      </trkpt>
      <trkpt lat="42.4253" lon="7.96831">
        <ele>-10.917846679688</ele>
        <time>2015-07-25T14:00:47Z</time>
      </trkpt>
      <trkpt lat="42.42499" lon="7.96877">
        <ele>-10.917846679688</ele>
        <time>2015-07-25T14:01:01Z</time>
      </trkpt>
      <trkpt lat="42.42472" lon="7.96923">
        <ele>-11.3984375</ele>
        <time>2015-07-25T14:01:14Z</time>
      </trkpt>
      <trkpt lat="42.42442" lon="7.96961">
        <ele>-10.917846679688</ele>
        <time>2015-07-25T14:01:27Z</time>
      </trkpt>
      <trkpt lat="42.42421" lon="7.97005">
        <ele>-11.879150390625</ele>
        <time>2015-07-25T14:01:39Z</time>
      </trkpt>
      <trkpt lat="42.42396" lon="7.9705">
        <ele>-11.879150390625</ele>
        <time>2015-07-25T14:01:52Z</time>
      </trkpt>
      <trkpt lat="42.42375" lon="7.97099">
        <ele>-12.35986328125</ele>
        <time>2015-07-25T14:02:06Z</time>
      </trkpt>
      <trkpt lat="42.42353" lon="7.97137">
        <ele>-13.321044921875</ele>
        <time>2015-07-25T14:02:17Z</time>
      </trkpt>
      <trkpt lat="42.42335" lon="7.9718">
        <ele>-12.840454101562</ele>
        <time>2015-07-25T14:02:28Z</time>
      </trkpt>
      <trkpt lat="42.42294" lon="7.97251">
        <ele>-11.879150390625</ele>
        <time>2015-07-25T14:02:48Z</time>
      </trkpt>
      <trkpt lat="42.42269" lon="7.9729">
        <ele>-12.35986328125</ele>
        <time>2015-07-25T14:02:59Z</time>
      </trkpt>
      <trkpt lat="42.42246" lon="7.9732">
        <ele>-11.3984375</ele>
        <time>2015-07-25T14:03:09Z</time>
      </trkpt>
      <trkpt lat="42.42204" lon="7.97383">
        <ele>-10.917846679688</ele>
        <time>2015-07-25T14:03:28Z</time>
      </trkpt>
      <trkpt lat="42.42178" lon="7.97422">
        <ele>-11.3984375</ele>
        <time>2015-07-25T14:03:40Z</time>
      </trkpt>
      <trkpt lat="42.42156" lon="7.97463">
        <ele>-11.879150390625</ele>
        <time>2015-07-25T14:03:52Z</time>
      </trkpt>
      <trkpt lat="42.42133" lon="7.9751">
        <ele>-11.879150390625</ele>
        <time>2015-07-25T14:04:06Z</time>
      </trkpt>
      <trkpt lat="42.42109" lon="7.97547">
        <ele>-11.3984375</ele>
        <time>2015-07-25T14:04:18Z</time>
      </trkpt>
      <trkpt lat="42.42079" lon="7.97607">
        <ele>-11.879150390625</ele>
        <time>2015-07-25T14:04:35Z</time>
      </trkpt>
      <trkpt lat="42.42049" lon="7.97648">
        <ele>-12.35986328125</ele>
        <time>2015-07-25T14:04:48Z</time>
      </trkpt>
      <trkpt lat="42.42027" lon="7.97687">
        <ele>-11.879150390625</ele>
        <time>2015-07-25T14:04:59Z</time>
      </trkpt>
      <trkpt lat="42.42005" lon="7.97729">
        <ele>-10.437255859375</ele>
        <time>2015-07-25T14:05:10Z</time>
      </trkpt>
      <trkpt lat="42.4197" lon="7.97799">
        <ele>-10.917846679688</ele>
        <time>2015-07-25T14:05:30Z</time>
      </trkpt>
      <trkpt lat="42.41934" lon="7.97852">
        <ele>-11.3984375</ele>
        <time>2015-07-25T14:05:45Z</time>
      </trkpt>
      <trkpt lat="42.41883" lon="7.97908">
        <ele>-11.879150390625</ele>
        <time>2015-07-25T14:06:05Z</time>
      </trkpt>
      <trkpt lat="42.41856" lon="7.97942">
        <ele>-11.3984375</ele>
        <time>2015-07-25T14:06:16Z</time>
      </trkpt>
      <trkpt lat="42.41826" lon="7.9798">
        <ele>-10.917846679688</ele>
        <time>2015-07-25T14:06:28Z</time>
      </trkpt>
      <trkpt lat="42.41808" lon="7.98019">
        <ele>-12.35986328125</ele>
        <time>2015-07-25T14:06:40Z</time>
      </trkpt>
      <trkpt lat="42.41788" lon="7.98055">
        <ele>-10.917846679688</ele>
        <time>2015-07-25T14:06:50Z</time>
      </trkpt>
      <trkpt lat="42.41767" lon="7.98088">
        <ele>-12.840454101562</ele>
        <time>2015-07-25T14:07:01Z</time>
      </trkpt>
      <trkpt lat="42.41741" lon="7.98134">
        <ele>-10.437255859375</ele>
        <time>2015-07-25T14:07:15Z</time>
      </trkpt>
      <trkpt lat="42.41688" lon="7.98194">
        <ele>-10.917846679688</ele>
        <time>2015-07-25T14:07:35Z</time>
      </trkpt>
      <trkpt lat="42.41644" lon="7.98248">
        <ele>-9.95654296875</ele>
        <time>2015-07-25T14:07:54Z</time>
      </trkpt>
      <trkpt lat="42.41608" lon="7.98294">
        <ele>-11.3984375</ele>
        <time>2015-07-25T14:08:10Z</time>
      </trkpt>
      <trkpt lat="42.41583" lon="7.98333">
        <ele>-10.917846679688</ele>
        <time>2015-07-25T14:08:22Z</time>
      </trkpt>
      <trkpt lat="42.41557" lon="7.98374">
        <ele>-10.437255859375</ele>
        <time>2015-07-25T14:08:34Z</time>
      </trkpt>
      <trkpt lat="42.4152" lon="7.98436">
        <ele>-11.3984375</ele>
        <time>2015-07-25T14:08:54Z</time>
      </trkpt>
      <trkpt lat="42.41497" lon="7.98473">
        <ele>-10.437255859375</ele>
        <time>2015-07-25T14:09:06Z</time>
      </trkpt>
      <trkpt lat="42.4145" lon="7.98538">
        <ele>-12.35986328125</ele>
        <time>2015-07-25T14:09:27Z</time>
      </trkpt>
      <trkpt lat="42.41424" lon="7.98588">
        <ele>-11.3984375</ele>
        <time>2015-07-25T14:09:39Z</time>
      </trkpt>
      <trkpt lat="42.41392" lon="7.98644">
        <ele>-12.35986328125</ele>
        <time>2015-07-25T14:09:56Z</time>
      </trkpt>
      <trkpt lat="42.41363" lon="7.98693">
        <ele>-10.437255859375</ele>
        <time>2015-07-25T14:10:10Z</time>
      </trkpt>
      <trkpt lat="42.4134" lon="7.98729">
        <ele>-9.95654296875</ele>
        <time>2015-07-25T14:10:20Z</time>
      </trkpt>
      <trkpt lat="42.41322" lon="7.98777">
        <ele>-13.321044921875</ele>
        <time>2015-07-25T14:10:32Z</time>
      </trkpt>
      <trkpt lat="42.41302" lon="7.98825">
        <ele>-11.3984375</ele>
        <time>2015-07-25T14:10:45Z</time>
      </trkpt>
      <trkpt lat="42.41278" lon="7.98869">
        <ele>-9.95654296875</ele>
        <time>2015-07-25T14:10:57Z</time>
      </trkpt>
      <trkpt lat="42.41261" lon="7.98914">
        <ele>-11.879150390625</ele>
        <time>2015-07-25T14:11:10Z</time>
      </trkpt>
      <trkpt lat="42.41222" lon="7.98982">
        <ele>-11.879150390625</ele>
        <time>2015-07-25T14:11:30Z</time>
      </trkpt>
      <trkpt lat="42.41194" lon="7.99015">
        <ele>-11.879150390625</ele>
        <time>2015-07-25T14:11:41Z</time>
      </trkpt>
      <trkpt lat="42.41169" lon="7.99052">
        <ele>-10.437255859375</ele>
        <time>2015-07-25T14:11:52Z</time>
      </trkpt>
      <trkpt lat="42.41135" lon="7.99093">
        <ele>-9.95654296875</ele>
        <time>2015-07-25T14:12:07Z</time>
      </trkpt>
      <trkpt lat="42.4109" lon="7.9911">
        <ele>-11.879150390625</ele>
        <time>2015-07-25T14:12:23Z</time>
      </trkpt>
      <trkpt lat="42.41035" lon="7.99162">
        <ele>-10.917846679688</ele>
        <time>2015-07-25T14:12:45Z</time>
      </trkpt>
      <trkpt lat="42.4101" lon="7.99199">
        <ele>-11.3984375</ele>
        <time>2015-07-25T14:12:56Z</time>
      </trkpt>
      <trkpt lat="42.4096" lon="7.99243">
        <ele>-10.917846679688</ele>
        <time>2015-07-25T14:13:15Z</time>
      </trkpt>
      <trkpt lat="42.40937" lon="7.99274">
        <ele>-10.917846679688</ele>
        <time>2015-07-25T14:13:25Z</time>
      </trkpt>
      <trkpt lat="42.40907" lon="7.9932">
        <ele>-11.3984375</ele>
        <time>2015-07-25T14:13:38Z</time>
      </trkpt>
      <trkpt lat="42.4088" lon="7.99368">
        <ele>-11.879150390625</ele>
        <time>2015-07-25T14:13:52Z</time>
      </trkpt>
      <trkpt lat="42.4085" lon="7.99421">
        <ele>-11.3984375</ele>
        <time>2015-07-25T14:14:07Z</time>
      </trkpt>
      <trkpt lat="42.40825" lon="7.9947">
        <ele>-12.35986328125</ele>
        <time>2015-07-25T14:14:21Z</time>
      </trkpt>
      <trkpt lat="42.40797" lon="7.99525">
        <ele>-9.95654296875</ele>
        <time>2015-07-25T14:14:37Z</time>
      </trkpt>
      <trkpt lat="42.40774" lon="7.99558">
        <ele>-11.3984375</ele>
        <time>2015-07-25T14:14:49Z</time>
      </trkpt>
      <trkpt lat="42.40745" lon="7.99596">
        <ele>-9.95654296875</ele>
        <time>2015-07-25T14:15:02Z</time>
      </trkpt>
      <trkpt lat="42.40718" lon="7.99629">
        <ele>-11.3984375</ele>
        <time>2015-07-25T14:15:13Z</time>
      </trkpt>
      <trkpt lat="42.40691" lon="7.99671">
        <ele>-10.437255859375</ele>
        <time>2015-07-25T14:15:25Z</time>
      </trkpt>
      <trkpt lat="42.40663" lon="7.99703">
        <ele>-11.3984375</ele>
        <time>2015-07-25T14:15:36Z</time>
      </trkpt>
      <trkpt lat="42.40622" lon="7.9975">
        <ele>-11.879150390625</ele>
        <time>2015-07-25T14:15:53Z</time>
      </trkpt>
      <trkpt lat="42.40594" lon="7.99789">
        <ele>-11.879150390625</ele>
        <time>2015-07-25T14:16:05Z</time>
      </trkpt>
      <trkpt lat="42.40566" lon="7.99829">
        <ele>-11.3984375</ele>
        <time>2015-07-25T14:16:18Z</time>
      </trkpt>
      <trkpt lat="42.40542" lon="7.99874">
        <ele>-12.35986328125</ele>
        <time>2015-07-25T14:16:32Z</time>
      </trkpt>
      <trkpt lat="42.40524" lon="7.99909">
        <ele>-11.879150390625</ele>
        <time>2015-07-25T14:16:44Z</time>
      </trkpt>
      <trkpt lat="42.40475" lon="7.99967">
        <ele>-11.3984375</ele>
        <time>2015-07-25T14:17:04Z</time>
      </trkpt>
      <trkpt lat="42.4045" lon="7.99995">
        <ele>-12.35986328125</ele>
        <time>2015-07-25T14:17:14Z</time>
      </trkpt>
      <trkpt lat="42.40412" lon="8.00041">
        <ele>-10.917846679688</ele>
        <time>2015-07-25T14:17:28Z</time>
      </trkpt>
      <trkpt lat="42.40372" lon="8.00079">
        <ele>-11.879150390625</ele>
        <time>2015-07-25T14:17:43Z</time>
      </trkpt>
      <trkpt lat="42.40349" lon="8.00113">
        <ele>-10.917846679688</ele>
        <time>2015-07-25T14:17:54Z</time>
      </trkpt>
      <trkpt lat="42.40312" lon="8.00158">
        <ele>-11.879150390625</ele>
        <time>2015-07-25T14:18:10Z</time>
      </trkpt>
      <trkpt lat="42.40283" lon="8.00211">
        <ele>-12.840454101562</ele>
        <time>2015-07-25T14:18:24Z</time>
      </trkpt>
      <trkpt lat="42.40265" lon="8.00251">
        <ele>-11.3984375</ele>
        <time>2015-07-25T14:18:35Z</time>
      </trkpt>
      <trkpt lat="42.4024" lon="8.00287">
        <ele>-11.879150390625</ele>
        <time>2015-07-25T14:18:46Z</time>
      </trkpt>
      <trkpt lat="42.40204" lon="8.0035">
        <ele>-12.840454101562</ele>
        <time>2015-07-25T14:19:02Z</time>
      </trkpt>
      <trkpt lat="42.40156" lon="8.00433">
        <ele>-11.3984375</ele>
        <time>2015-07-25T14:19:25Z</time>
      </trkpt>
      <trkpt lat="42.4014" lon="8.00472">
        <ele>-11.879150390625</ele>
        <time>2015-07-25T14:19:36Z</time>
      </trkpt>
      <trkpt lat="42.40112" lon="8.00518">
        <ele>-11.3984375</ele>
        <time>2015-07-25T14:19:50Z</time>
      </trkpt>
      <trkpt lat="42.40083" lon="8.00567">
        <ele>-11.879150390625</ele>
        <time>2015-07-25T14:20:05Z</time>
      </trkpt>
      <trkpt lat="42.40056" lon="8.0062">
        <ele>-11.879150390625</ele>
        <time>2015-07-25T14:20:21Z</time>
      </trkpt>
      <trkpt lat="42.4002" lon="8.00671">
        <ele>-11.879150390625</ele>
        <time>2015-07-25T14:20:38Z</time>
      </trkpt>
      <trkpt lat="42.39994" lon="8.00713">
        <ele>-10.917846679688</ele>
        <time>2015-07-25T14:20:50Z</time>
      </trkpt>
      <trkpt lat="42.39963" lon="8.00755">
        <ele>-12.35986328125</ele>
        <time>2015-07-25T14:21:03Z</time>
      </trkpt>
      <trkpt lat="42.39941" lon="8.00798">
        <ele>-11.879150390625</ele>
        <time>2015-07-25T14:21:15Z</time>
      </trkpt>
      <trkpt lat="42.39909" lon="8.00839">
        <ele>-11.3984375</ele>
        <time>2015-07-25T14:21:28Z</time>
      </trkpt>
      <trkpt lat="42.39885" lon="8.00873">
        <ele>-11.3984375</ele>
        <time>2015-07-25T14:21:38Z</time>
      </trkpt>
      <trkpt lat="42.39853" lon="8.00901">
        <ele>-10.917846679688</ele>
        <time>2015-07-25T14:21:51Z</time>
      </trkpt>
      <trkpt lat="42.39823" lon="8.00931">
        <ele>-9.95654296875</ele>
        <time>2015-07-25T14:22:02Z</time>
      </trkpt>
      <trkpt lat="42.39777" lon="8.00978">
        <ele>-11.3984375</ele>
        <time>2015-07-25T14:22:19Z</time>
      </trkpt>
      <trkpt lat="42.39752" lon="8.01015">
        <ele>-11.879150390625</ele>
        <time>2015-07-25T14:22:31Z</time>
      </trkpt>
      <trkpt lat="42.39726" lon="8.01053">
        <ele>-11.3984375</ele>
        <time>2015-07-25T14:22:43Z</time>
      </trkpt>
      <trkpt lat="42.39689" lon="8.01091">
        <ele>-11.3984375</ele>
        <time>2015-07-25T14:22:56Z</time>
      </trkpt>
      <trkpt lat="42.39665" lon="8.0112">
        <ele>-12.35986328125</ele>
        <time>2015-07-25T14:23:06Z</time>
      </trkpt>
      <trkpt lat="42.39631" lon="8.01197">
        <ele>-11.879150390625</ele>
        <time>2015-07-25T14:23:29Z</time>
      </trkpt>
      <trkpt lat="42.39584" lon="8.01232">
        <ele>-10.917846679688</ele>
        <time>2015-07-25T14:23:44Z</time>
      </trkpt>
      <trkpt lat="42.39542" lon="8.01266">
        <ele>-11.879150390625</ele>
        <time>2015-07-25T14:23:59Z</time>
      </trkpt>
      <trkpt lat="42.39498" lon="8.01305">
        <ele>-10.917846679688</ele>
        <time>2015-07-25T14:24:14Z</time>
      </trkpt>
      <trkpt lat="42.39465" lon="8.01335">
        <ele>-11.3984375</ele>
        <time>2015-07-25T14:24:26Z</time>
      </trkpt>
      <trkpt lat="42.39441" lon="8.01368">
        <ele>-10.437255859375</ele>
        <time>2015-07-25T14:24:37Z</time>
      </trkpt>
      <trkpt lat="42.39411" lon="8.01391">
        <ele>-11.879150390625</ele>
        <time>2015-07-25T14:24:47Z</time>
      </trkpt>
      <trkpt lat="42.3938" lon="8.01417">
        <ele>-11.879150390625</ele>
        <time>2015-07-25T14:24:58Z</time>
      </trkpt>
      <trkpt lat="42.39341" lon="8.01456">
        <ele>-10.917846679688</ele>
        <time>2015-07-25T14:25:12Z</time>
      </trkpt>
      <trkpt lat="42.39304" lon="8.01498">
        <ele>-12.840454101562</ele>
        <time>2015-07-25T14:25:27Z</time>
      </trkpt>
      <trkpt lat="42.39276" lon="8.01539">
        <ele>-10.917846679688</ele>
        <time>2015-07-25T14:25:39Z</time>
      </trkpt>
      <trkpt lat="42.39245" lon="8.01569">
        <ele>-11.879150390625</ele>
        <time>2015-07-25T14:25:51Z</time>
      </trkpt>
      <trkpt lat="42.39217" lon="8.01602">
        <ele>-11.879150390625</ele>
        <time>2015-07-25T14:26:02Z</time>
      </trkpt>
      <trkpt lat="42.3918" lon="8.01647">
        <ele>-10.917846679688</ele>
        <time>2015-07-25T14:26:17Z</time>
      </trkpt>
      <trkpt lat="42.39152" lon="8.01675">
        <ele>-11.879150390625</ele>
        <time>2015-07-25T14:26:27Z</time>
      </trkpt>
      <trkpt lat="42.39124" lon="8.01706">
        <ele>-11.879150390625</ele>
        <time>2015-07-25T14:26:38Z</time>
      </trkpt>
      <trkpt lat="42.39093" lon="8.01738">
        <ele>-9.95654296875</ele>
        <time>2015-07-25T14:26:49Z</time>
      </trkpt>
      <trkpt lat="42.39058" lon="8.0176">
        <ele>-11.879150390625</ele>
        <time>2015-07-25T14:27:00Z</time>
      </trkpt>
      <trkpt lat="42.39012" lon="8.01812">
        <ele>-11.879150390625</ele>
        <time>2015-07-25T14:27:18Z</time>
      </trkpt>
      <trkpt lat="42.38982" lon="8.01847">
        <ele>-11.3984375</ele>
        <time>2015-07-25T14:27:30Z</time>
      </trkpt>
      <trkpt lat="42.38954" lon="8.01878">
        <ele>-10.917846679688</ele>
        <time>2015-07-25T14:27:40Z</time>
      </trkpt>
      <trkpt lat="42.38919" lon="8.01903">
        <ele>-11.3984375</ele>
        <time>2015-07-25T14:27:51Z</time>
      </trkpt>
      <trkpt lat="42.38891" lon="8.01929">
        <ele>-10.437255859375</ele>
        <time>2015-07-25T14:28:01Z</time>
      </trkpt>
      <trkpt lat="42.38864" lon="8.01955">
        <ele>-10.437255859375</ele>
        <time>2015-07-25T14:28:10Z</time>
      </trkpt>
      <trkpt lat="42.3884" lon="8.01983">
        <ele>-12.840454101562</ele>
        <time>2015-07-25T14:28:21Z</time>
      </trkpt>
      <trkpt lat="42.38805" lon="8.02031">
        <ele>-10.917846679688</ele>
        <time>2015-07-25T14:28:36Z</time>
      </trkpt>
      <trkpt lat="42.38748" lon="8.02063">
        <ele>-11.3984375</ele>
        <time>2015-07-25T14:28:53Z</time>
      </trkpt>
      <trkpt lat="42.387" lon="8.02099">
        <ele>-11.3984375</ele>
        <time>2015-07-25T14:29:09Z</time>
      </trkpt>
      <trkpt lat="42.38667" lon="8.02135">
        <ele>-11.3984375</ele>
        <time>2015-07-25T14:29:22Z</time>
      </trkpt>
      <trkpt lat="42.38635" lon="8.02165">
        <ele>-11.879150390625</ele>
        <time>2015-07-25T14:29:34Z</time>
      </trkpt>
      <trkpt lat="42.38606" lon="8.02195">
        <ele>-12.840454101562</ele>
        <time>2015-07-25T14:29:46Z</time>
      </trkpt>
      <trkpt lat="42.3857" lon="8.02245">
        <ele>-12.35986328125</ele>
        <time>2015-07-25T14:30:03Z</time>
      </trkpt>
      <trkpt lat="42.38544" lon="8.02284">
        <ele>-12.35986328125</ele>
        <time>2015-07-25T14:30:15Z</time>
      </trkpt>
      <trkpt lat="42.38516" lon="8.0231">
        <ele>-12.35986328125</ele>
        <time>2015-07-25T14:30:26Z</time>
      </trkpt>
      <trkpt lat="42.38481" lon="8.02351">
        <ele>-11.3984375</ele>
        <time>2015-07-25T14:30:39Z</time>
      </trkpt>
      <trkpt lat="42.38457" lon="8.02383">
        <ele>-11.879150390625</ele>
        <time>2015-07-25T14:30:50Z</time>
      </trkpt>
      <trkpt lat="42.3843" lon="8.02417">
        <ele>-11.879150390625</ele>
        <time>2015-07-25T14:31:02Z</time>
      </trkpt>
      <trkpt lat="42.38381" lon="8.02467">
        <ele>-12.35986328125</ele>
        <time>2015-07-25T14:31:20Z</time>
      </trkpt>
      <trkpt lat="42.38351" lon="8.02496">
        <ele>-12.35986328125</ele>
        <time>2015-07-25T14:31:31Z</time>
      </trkpt>
      <trkpt lat="42.38316" lon="8.02537">
        <ele>-11.3984375</ele>
        <time>2015-07-25T14:31:44Z</time>
      </trkpt>
      <trkpt lat="42.38278" lon="8.02565">
        <ele>-10.437255859375</ele>
        <time>2015-07-25T14:31:56Z</time>
      </trkpt>
      <trkpt lat="42.3825" lon="8.02595">
        <ele>-10.917846679688</ele>
        <time>2015-07-25T14:32:07Z</time>
      </trkpt>
      <trkpt lat="42.38214" lon="8.0263">
        <ele>-11.3984375</ele>
        <time>2015-07-25T14:32:20Z</time>
      </trkpt>
      <trkpt lat="42.38179" lon="8.02666">
        <ele>-11.3984375</ele>
        <time>2015-07-25T14:32:33Z</time>
      </trkpt>
      <trkpt lat="42.38137" lon="8.02708">
        <ele>-10.917846679688</ele>
        <time>2015-07-25T14:32:49Z</time>
      </trkpt>
      <trkpt lat="42.38103" lon="8.02741">
        <ele>-10.917846679688</ele>
        <time>2015-07-25T14:33:02Z</time>
      </trkpt>
      <trkpt lat="42.38037" lon="8.02784">
        <ele>-10.917846679688</ele>
        <time>2015-07-25T14:33:23Z</time>
      </trkpt>
      <trkpt lat="42.38001" lon="8.02815">
        <ele>-11.3984375</ele>
        <time>2015-07-25T14:33:36Z</time>
      </trkpt>
      <trkpt lat="42.37966" lon="8.02845">
        <ele>-10.917846679688</ele>
        <time>2015-07-25T14:33:48Z</time>
      </trkpt>
      <trkpt lat="42.37932" lon="8.0287">
        <ele>-10.437255859375</ele>
        <time>2015-07-25T14:34:00Z</time>
      </trkpt>
      <trkpt lat="42.37892" lon="8.02903">
        <ele>-11.879150390625</ele>
        <time>2015-07-25T14:34:14Z</time>
      </trkpt>
      <trkpt lat="42.37867" lon="8.02932">
        <ele>-10.917846679688</ele>
        <time>2015-07-25T14:34:24Z</time>
      </trkpt>
      <trkpt lat="42.37836" lon="8.02968">
        <ele>-10.917846679688</ele>
        <time>2015-07-25T14:34:36Z</time>
      </trkpt>
      <trkpt lat="42.37811" lon="8.02998">
        <ele>-10.917846679688</ele>
        <time>2015-07-25T14:34:46Z</time>
      </trkpt>
      <trkpt lat="42.37777" lon="8.03031">
        <ele>-11.879150390625</ele>
        <time>2015-07-25T14:34:58Z</time>
      </trkpt>
      <trkpt lat="42.37741" lon="8.03066">
        <ele>-10.437255859375</ele>
        <time>2015-07-25T14:35:11Z</time>
      </trkpt>
      <trkpt lat="42.3771" lon="8.03096">
        <ele>-12.840454101562</ele>
        <time>2015-07-25T14:35:23Z</time>
      </trkpt>
      <trkpt lat="42.37684" lon="8.0313">
        <ele>-11.3984375</ele>
        <time>2015-07-25T14:35:33Z</time>
      </trkpt>
      <trkpt lat="42.37641" lon="8.03168">
        <ele>-11.879150390625</ele>
        <time>2015-07-25T14:35:49Z</time>
      </trkpt>
      <trkpt lat="42.37611" lon="8.03191">
        <ele>-10.917846679688</ele>
        <time>2015-07-25T14:35:59Z</time>
      </trkpt>
      <trkpt lat="42.37573" lon="8.03225">
        <ele>-9.95654296875</ele>
        <time>2015-07-25T14:36:13Z</time>
      </trkpt>
      <trkpt lat="42.37541" lon="8.03261">
        <ele>-12.35986328125</ele>
        <time>2015-07-25T14:36:27Z</time>
      </trkpt>
      <trkpt lat="42.37517" lon="8.03295">
        <ele>-11.3984375</ele>
        <time>2015-07-25T14:36:38Z</time>
      </trkpt>
      <trkpt lat="42.37487" lon="8.03339">
        <ele>-13.321044921875</ele>
        <time>2015-07-25T14:36:53Z</time>
      </trkpt>
      <trkpt lat="42.37465" lon="8.03371">
        <ele>-12.840454101562</ele>
        <time>2015-07-25T14:37:04Z</time>
      </trkpt>
      <trkpt lat="42.37436" lon="8.03407">
        <ele>-10.437255859375</ele>
        <time>2015-07-25T14:37:16Z</time>
      </trkpt>
      <trkpt lat="42.37398" lon="8.03427">
        <ele>-10.917846679688</ele>
        <time>2015-07-25T14:37:28Z</time>
      </trkpt>
      <trkpt lat="42.37344" lon="8.03478">
        <ele>-10.437255859375</ele>
        <time>2015-07-25T14:37:47Z</time>
      </trkpt>
      <trkpt lat="42.3731" lon="8.03517">
        <ele>-12.35986328125</ele>
        <time>2015-07-25T14:38:00Z</time>
      </trkpt>
      <trkpt lat="42.3729" lon="8.03552">
        <ele>-12.840454101562</ele>
        <time>2015-07-25T14:38:10Z</time>
      </trkpt>
      <trkpt lat="42.37269" lon="8.03589">
        <ele>-12.35986328125</ele>
        <time>2015-07-25T14:38:20Z</time>
      </trkpt>
      <trkpt lat="42.37241" lon="8.03645">
        <ele>-10.917846679688</ele>
        <time>2015-07-25T14:38:37Z</time>
      </trkpt>
      <trkpt lat="42.37215" lon="8.0368">
        <ele>-12.35986328125</ele>
        <time>2015-07-25T14:38:48Z</time>
      </trkpt>
      <trkpt lat="42.37187" lon="8.03704">
        <ele>-11.3984375</ele>
        <time>2015-07-25T14:38:58Z</time>
      </trkpt>
      <trkpt lat="42.37153" lon="8.03725">
        <ele>-11.3984375</ele>
        <time>2015-07-25T14:39:09Z</time>
      </trkpt>
      <trkpt lat="42.37133" lon="8.03759">
        <ele>-13.321044921875</ele>
        <time>2015-07-25T14:39:19Z</time>
      </trkpt>
      <trkpt lat="42.37078" lon="8.03794">
        <ele>-10.437255859375</ele>
        <time>2015-07-25T14:39:39Z</time>
      </trkpt>
      <trkpt lat="42.37015" lon="8.03837">
        <ele>-12.840454101562</ele>
        <time>2015-07-25T14:40:01Z</time>
      </trkpt>
      <trkpt lat="42.36969" lon="8.03893">
        <ele>-11.3984375</ele>
        <time>2015-07-25T14:40:19Z</time>
      </trkpt>
      <trkpt lat="42.36935" lon="8.03932">
        <ele>-12.35986328125</ele>
        <time>2015-07-25T14:40:32Z</time>
      </trkpt>
      <trkpt lat="42.36907" lon="8.03974">
        <ele>-11.3984375</ele>
        <time>2015-07-25T14:40:45Z</time>
      </trkpt>
      <trkpt lat="42.36877" lon="8.04019">
        <ele>-11.3984375</ele>
        <time>2015-07-25T14:40:58Z</time>
      </trkpt>
      <trkpt lat="42.36851" lon="8.0405">
        <ele>-10.917846679688</ele>
        <time>2015-07-25T14:41:08Z</time>
      </trkpt>
      <trkpt lat="42.368" lon="8.04097">
        <ele>-11.3984375</ele>
        <time>2015-07-25T14:41:26Z</time>
      </trkpt>
      <trkpt lat="42.36774" lon="8.0413">
        <ele>-12.35986328125</ele>
        <time>2015-07-25T14:41:37Z</time>
      </trkpt>
      <trkpt lat="42.36741" lon="8.0419">
        <ele>-11.879150390625</ele>
        <time>2015-07-25T14:41:54Z</time>
      </trkpt>
      <trkpt lat="42.36714" lon="8.04262">
        <ele>-11.879150390625</ele>
        <time>2015-07-25T14:42:13Z</time>
      </trkpt>
      <trkpt lat="42.36693" lon="8.04297">
        <ele>-11.3984375</ele>
        <time>2015-07-25T14:42:24Z</time>
      </trkpt>
      <trkpt lat="42.36668" lon="8.0434">
        <ele>-13.321044921875</ele>
        <time>2015-07-25T14:42:36Z</time>
      </trkpt>
      <trkpt lat="42.36654" lon="8.0438">
        <ele>-13.321044921875</ele>
        <time>2015-07-25T14:42:46Z</time>
      </trkpt>
      <trkpt lat="42.36621" lon="8.04452">
        <ele>-11.879150390625</ele>
        <time>2015-07-25T14:43:06Z</time>
      </trkpt>
      <trkpt lat="42.36596" lon="8.04484">
        <ele>-11.879150390625</ele>
        <time>2015-07-25T14:43:17Z</time>
      </trkpt>
      <trkpt lat="42.36576" lon="8.04526">
        <ele>-11.879150390625</ele>
        <time>2015-07-25T14:43:28Z</time>
      </trkpt>
      <trkpt lat="42.36553" lon="8.04568">
        <ele>-13.321044921875</ele>
        <time>2015-07-25T14:43:40Z</time>
      </trkpt>
      <trkpt lat="42.36532" lon="8.04613">
        <ele>-12.840454101562</ele>
        <time>2015-07-25T14:43:52Z</time>
      </trkpt>
      <trkpt lat="42.36513" lon="8.04646">
        <ele>-12.35986328125</ele>
        <time>2015-07-25T14:44:02Z</time>
      </trkpt>
      <trkpt lat="42.36488" lon="8.04691">
        <ele>-11.879150390625</ele>
        <time>2015-07-25T14:44:15Z</time>
      </trkpt>
      <trkpt lat="42.36456" lon="8.04715">
        <ele>-12.35986328125</ele>
        <time>2015-07-25T14:44:26Z</time>
      </trkpt>
      <trkpt lat="42.36417" lon="8.04768">
        <ele>-12.35986328125</ele>
        <time>2015-07-25T14:44:44Z</time>
      </trkpt>
      <trkpt lat="42.36394" lon="8.04806">
        <ele>-12.35986328125</ele>
        <time>2015-07-25T14:44:57Z</time>
      </trkpt>
      <trkpt lat="42.36353" lon="8.0487">
        <ele>-11.879150390625</ele>
        <time>2015-07-25T14:45:18Z</time>
      </trkpt>
      <trkpt lat="42.36318" lon="8.04917">
        <ele>-11.879150390625</ele>
        <time>2015-07-25T14:45:34Z</time>
      </trkpt>
      <trkpt lat="42.36293" lon="8.04968">
        <ele>-12.35986328125</ele>
        <time>2015-07-25T14:45:49Z</time>
      </trkpt>
      <trkpt lat="42.36271" lon="8.05015">
        <ele>-10.917846679688</ele>
        <time>2015-07-25T14:46:02Z</time>
      </trkpt>
      <trkpt lat="42.36239" lon="8.05064">
        <ele>-12.35986328125</ele>
        <time>2015-07-25T14:46:17Z</time>
      </trkpt>
      <trkpt lat="42.36227" lon="8.05107">
        <ele>-12.840454101562</ele>
        <time>2015-07-25T14:46:28Z</time>
      </trkpt>
      <trkpt lat="42.36204" lon="8.05159">
        <ele>-12.35986328125</ele>
        <time>2015-07-25T14:46:43Z</time>
      </trkpt>
      <trkpt lat="42.36187" lon="8.05197">
        <ele>-11.3984375</ele>
        <time>2015-07-25T14:46:53Z</time>
      </trkpt>
      <trkpt lat="42.36143" lon="8.0524">
        <ele>-12.35986328125</ele>
        <time>2015-07-25T14:47:12Z</time>
      </trkpt>
      <trkpt lat="42.36127" lon="8.05278">
        <ele>-12.35986328125</ele>
        <time>2015-07-25T14:47:22Z</time>
      </trkpt>
      <trkpt lat="42.36098" lon="8.05343">
        <ele>-12.35986328125</ele>
        <time>2015-07-25T14:47:39Z</time>
      </trkpt>
      <trkpt lat="42.3608" lon="8.0538">
        <ele>-12.35986328125</ele>
        <time>2015-07-25T14:47:49Z</time>
      </trkpt>
      <trkpt lat="42.36055" lon="8.05413">
        <ele>-13.321044921875</ele>
        <time>2015-07-25T14:48:00Z</time>
      </trkpt>
      <trkpt lat="42.36037" lon="8.05451">
        <ele>-13.8017578125</ele>
        <time>2015-07-25T14:48:11Z</time>
      </trkpt>
      <trkpt lat="42.36011" lon="8.05502">
        <ele>-10.917846679688</ele>
        <time>2015-07-25T14:48:24Z</time>
      </trkpt>
      <trkpt lat="42.35982" lon="8.05539">
        <ele>-13.321044921875</ele>
        <time>2015-07-25T14:48:37Z</time>
      </trkpt>
      <trkpt lat="42.35955" lon="8.05595">
        <ele>-12.840454101562</ele>
        <time>2015-07-25T14:48:52Z</time>
      </trkpt>
      <trkpt lat="42.35929" lon="8.05638">
        <ele>-11.3984375</ele>
        <time>2015-07-25T14:49:07Z</time>
      </trkpt>
      <trkpt lat="42.35914" lon="8.05698">
        <ele>-11.879150390625</ele>
        <time>2015-07-25T14:49:23Z</time>
      </trkpt>
      <trkpt lat="42.35871" lon="8.05768">
        <ele>-12.35986328125</ele>
        <time>2015-07-25T14:49:45Z</time>
      </trkpt>
      <trkpt lat="42.35832" lon="8.05824">
        <ele>-11.879150390625</ele>
        <time>2015-07-25T14:50:03Z</time>
      </trkpt>
      <trkpt lat="42.35802" lon="8.05863">
        <ele>-10.437255859375</ele>
        <time>2015-07-25T14:50:15Z</time>
      </trkpt>
      <trkpt lat="42.35774" lon="8.05901">
        <ele>-12.35986328125</ele>
        <time>2015-07-25T14:50:28Z</time>
      </trkpt>
      <trkpt lat="42.35737" lon="8.05967">
        <ele>-12.35986328125</ele>
        <time>2015-07-25T14:50:48Z</time>
      </trkpt>
      <trkpt lat="42.35703" lon="8.06014">
        <ele>-10.437255859375</ele>
        <time>2015-07-25T14:51:02Z</time>
      </trkpt>
      <trkpt lat="42.35678" lon="8.0604">
        <ele>-11.3984375</ele>
        <time>2015-07-25T14:51:12Z</time>
      </trkpt>
      <trkpt lat="42.3566" lon="8.06089">
        <ele>-12.35986328125</ele>
        <time>2015-07-25T14:51:25Z</time>
      </trkpt>
      <trkpt lat="42.35619" lon="8.06159">
        <ele>-11.879150390625</ele>
        <time>2015-07-25T14:51:46Z</time>
      </trkpt>
      <trkpt lat="42.35596" lon="8.06191">
        <ele>-12.35986328125</ele>
        <time>2015-07-25T14:51:56Z</time>
      </trkpt>
      <trkpt lat="42.35573" lon="8.06247">
        <ele>-11.879150390625</ele>
        <time>2015-07-25T14:52:10Z</time>
      </trkpt>
      <trkpt lat="42.3555" lon="8.06318">
        <ele>-11.3984375</ele>
        <time>2015-07-25T14:52:31Z</time>
      </trkpt>
      <trkpt lat="42.35528" lon="8.06356">
        <ele>-12.35986328125</ele>
        <time>2015-07-25T14:52:43Z</time>
      </trkpt>
      <trkpt lat="42.35508" lon="8.06396">
        <ele>-11.879150390625</ele>
        <time>2015-07-25T14:52:55Z</time>
      </trkpt>
      <trkpt lat="42.35492" lon="8.06437">
        <ele>-11.879150390625</ele>
        <time>2015-07-25T14:53:07Z</time>
      </trkpt>
      <trkpt lat="42.35474" lon="8.06473">
        <ele>-10.917846679688</ele>
        <time>2015-07-25T14:53:17Z</time>
      </trkpt>
      <trkpt lat="42.35454" lon="8.06519">
        <ele>-10.917846679688</ele>
        <time>2015-07-25T14:53:31Z</time>
      </trkpt>
      <trkpt lat="42.35425" lon="8.06558">
        <ele>-11.879150390625</ele>
        <time>2015-07-25T14:53:45Z</time>
      </trkpt>
      <trkpt lat="42.3538" lon="8.06624">
        <ele>-10.917846679688</ele>
        <time>2015-07-25T14:54:05Z</time>
      </trkpt>
      <trkpt lat="42.35355" lon="8.06672">
        <ele>-11.3984375</ele>
        <time>2015-07-25T14:54:19Z</time>
      </trkpt>
      <trkpt lat="42.35334" lon="8.06708">
        <ele>-10.917846679688</ele>
        <time>2015-07-25T14:54:29Z</time>
      </trkpt>
      <trkpt lat="42.35306" lon="8.06752">
        <ele>-11.879150390625</ele>
        <time>2015-07-25T14:54:43Z</time>
      </trkpt>
      <trkpt lat="42.35282" lon="8.06796">
        <ele>-12.35986328125</ele>
        <time>2015-07-25T14:54:56Z</time>
      </trkpt>
      <trkpt lat="42.35235" lon="8.06863">
        <ele>-11.879150390625</ele>
        <time>2015-07-25T14:55:18Z</time>
      </trkpt>
      <trkpt lat="42.35209" lon="8.06908">
        <ele>-11.3984375</ele>
        <time>2015-07-25T14:55:32Z</time>
      </trkpt>
      <trkpt lat="42.35181" lon="8.06957">
        <ele>-11.3984375</ele>
        <time>2015-07-25T14:55:47Z</time>
      </trkpt>
      <trkpt lat="42.35162" lon="8.07003">
        <ele>-11.879150390625</ele>
        <time>2015-07-25T14:56:00Z</time>
      </trkpt>
      <trkpt lat="42.35141" lon="8.07035">
        <ele>-10.917846679688</ele>
        <time>2015-07-25T14:56:10Z</time>
      </trkpt>
      <trkpt lat="42.35116" lon="8.07067">
        <ele>-10.917846679688</ele>
        <time>2015-07-25T14:56:22Z</time>
      </trkpt>
      <trkpt lat="42.35091" lon="8.07117">
        <ele>-12.35986328125</ele>
        <time>2015-07-25T14:56:37Z</time>
      </trkpt>
      <trkpt lat="42.35069" lon="8.07158">
        <ele>-12.35986328125</ele>
        <time>2015-07-25T14:56:49Z</time>
      </trkpt>
      <trkpt lat="42.35036" lon="8.07228">
        <ele>-12.35986328125</ele>
        <time>2015-07-25T14:57:08Z</time>
      </trkpt>
      <trkpt lat="42.35007" lon="8.07268">
        <ele>-10.437255859375</ele>
        <time>2015-07-25T14:57:21Z</time>
      </trkpt>
      <trkpt lat="42.3498" lon="8.07326">
        <ele>-11.3984375</ele>
        <time>2015-07-25T14:57:37Z</time>
      </trkpt>
      <trkpt lat="42.34949" lon="8.07375">
        <ele>-11.879150390625</ele>
        <time>2015-07-25T14:57:52Z</time>
      </trkpt>
      <trkpt lat="42.34933" lon="8.07417">
        <ele>-11.3984375</ele>
        <time>2015-07-25T14:58:03Z</time>
      </trkpt>
      <trkpt lat="42.34916" lon="8.07459">
        <ele>-11.879150390625</ele>
        <time>2015-07-25T14:58:14Z</time>
      </trkpt>
      <trkpt lat="42.34889" lon="8.07517">
        <ele>-11.879150390625</ele>
        <time>2015-07-25T14:58:33Z</time>
      </trkpt>
      <trkpt lat="42.34873" lon="8.0757">
        <ele>-10.917846679688</ele>
        <time>2015-07-25T14:58:48Z</time>
      </trkpt>
      <trkpt lat="42.34836" lon="8.07623">
        <ele>-10.917846679688</ele>
        <time>2015-07-25T14:59:07Z</time>
      </trkpt>
      <trkpt lat="42.3482" lon="8.07661">
        <ele>-10.437255859375</ele>
        <time>2015-07-25T14:59:18Z</time>
      </trkpt>
      <trkpt lat="42.34782" lon="8.07709">
        <ele>-10.917846679688</ele>
        <time>2015-07-25T14:59:35Z</time>
      </trkpt>
      <trkpt lat="42.34753" lon="8.07779">
        <ele>-11.879150390625</ele>
        <time>2015-07-25T14:59:58Z</time>
      </trkpt>
      <trkpt lat="42.34721" lon="8.07858">
        <ele>-11.879150390625</ele>
        <time>2015-07-25T15:00:21Z</time>
      </trkpt>
      <trkpt lat="42.34701" lon="8.07892">
        <ele>-10.437255859375</ele>
        <time>2015-07-25T15:00:31Z</time>
      </trkpt>
      <trkpt lat="42.34664" lon="8.07968">
        <ele>-10.917846679688</ele>
        <time>2015-07-25T15:00:53Z</time>
      </trkpt>
      <trkpt lat="42.34645" lon="8.08011">
        <ele>-11.879150390625</ele>
        <time>2015-07-25T15:01:05Z</time>
      </trkpt>
      <trkpt lat="42.34623" lon="8.08055">
        <ele>-11.3984375</ele>
        <time>2015-07-25T15:01:17Z</time>
      </trkpt>
      <trkpt lat="42.34601" lon="8.08114">
        <ele>-11.3984375</ele>
        <time>2015-07-25T15:01:32Z</time>
      </trkpt>
      <trkpt lat="42.3458" lon="8.0816">
        <ele>-12.35986328125</ele>
        <time>2015-07-25T15:01:45Z</time>
      </trkpt>
      <trkpt lat="42.34557" lon="8.08211">
        <ele>-10.437255859375</ele>
        <time>2015-07-25T15:02:00Z</time>
      </trkpt>
      <trkpt lat="42.34531" lon="8.08257">
        <ele>-12.35986328125</ele>
        <time>2015-07-25T15:02:14Z</time>
      </trkpt>
      <trkpt lat="42.34506" lon="8.0831">
        <ele>-9.475830078125</ele>
        <time>2015-07-25T15:02:28Z</time>
      </trkpt>
      <trkpt lat="42.34474" lon="8.08363">
        <ele>-10.437255859375</ele>
        <time>2015-07-25T15:02:44Z</time>
      </trkpt>
      <trkpt lat="42.34444" lon="8.08393">
        <ele>-11.3984375</ele>
        <time>2015-07-25T15:02:55Z</time>
      </trkpt>
      <trkpt lat="42.34419" lon="8.08423">
        <ele>-11.3984375</ele>
        <time>2015-07-25T15:03:03Z</time>
      </trkpt>
      <trkpt lat="42.34396" lon="8.08455">
        <ele>-10.437255859375</ele>
        <time>2015-07-25T15:03:12Z</time>
      </trkpt>
      <trkpt lat="42.34366" lon="8.08492">
        <ele>-10.917846679688</ele>
        <time>2015-07-25T15:03:24Z</time>
      </trkpt>
      <trkpt lat="42.34338" lon="8.08534">
        <ele>-11.879150390625</ele>
        <time>2015-07-25T15:03:37Z</time>
      </trkpt>
      <trkpt lat="42.34316" lon="8.08574">
        <ele>-11.3984375</ele>
        <time>2015-07-25T15:03:48Z</time>
      </trkpt>
      <trkpt lat="42.34281" lon="8.0864">
        <ele>-11.3984375</ele>
        <time>2015-07-25T15:04:06Z</time>
      </trkpt>
      <trkpt lat="42.34254" lon="8.08709">
        <ele>-11.879150390625</ele>
        <time>2015-07-25T15:04:23Z</time>
      </trkpt>
      <trkpt lat="42.34226" lon="8.08767">
        <ele>-11.3984375</ele>
        <time>2015-07-25T15:04:39Z</time>
      </trkpt>
      <trkpt lat="42.34207" lon="8.08804">
        <ele>-11.3984375</ele>
        <time>2015-07-25T15:04:49Z</time>
      </trkpt>
      <trkpt lat="42.34187" lon="8.08846">
        <ele>-11.3984375</ele>
        <time>2015-07-25T15:05:00Z</time>
      </trkpt>
      <trkpt lat="42.34161" lon="8.08881">
        <ele>-10.917846679688</ele>
        <time>2015-07-25T15:05:12Z</time>
      </trkpt>
      <trkpt lat="42.34114" lon="8.08937">
        <ele>-9.95654296875</ele>
        <time>2015-07-25T15:05:30Z</time>
      </trkpt>
      <trkpt lat="42.34079" lon="8.08989">
        <ele>-10.917846679688</ele>
        <time>2015-07-25T15:05:47Z</time>
      </trkpt>
      <trkpt lat="42.34039" lon="8.09038">
        <ele>-10.917846679688</ele>
        <time>2015-07-25T15:06:03Z</time>
      </trkpt>
      <trkpt lat="42.34008" lon="8.0909">
        <ele>-11.3984375</ele>
        <time>2015-07-25T15:06:18Z</time>
      </trkpt>
      <trkpt lat="42.33981" lon="8.09123">
        <ele>-10.917846679688</ele>
        <time>2015-07-25T15:06:29Z</time>
      </trkpt>
      <trkpt lat="42.33949" lon="8.0915">
        <ele>-10.437255859375</ele>
        <time>2015-07-25T15:06:40Z</time>
      </trkpt>
      <trkpt lat="42.33908" lon="8.09183">
        <ele>-10.437255859375</ele>
        <time>2015-07-25T15:06:54Z</time>
      </trkpt>
      <trkpt lat="42.33879" lon="8.0921">
        <ele>-11.3984375</ele>
        <time>2015-07-25T15:07:04Z</time>
      </trkpt>
      <trkpt lat="42.33855" lon="8.09244">
        <ele>-11.3984375</ele>
        <time>2015-07-25T15:07:15Z</time>
      </trkpt>
      <trkpt lat="42.33827" lon="8.09287">
        <ele>-10.917846679688</ele>
        <time>2015-07-25T15:07:28Z</time>
      </trkpt>
      <trkpt lat="42.33801" lon="8.09345">
        <ele>-11.3984375</ele>
        <time>2015-07-25T15:07:45Z</time>
      </trkpt>
      <trkpt lat="42.33779" lon="8.0938">
        <ele>-10.917846679688</ele>
        <time>2015-07-25T15:07:57Z</time>
      </trkpt>
      <trkpt lat="42.33749" lon="8.09412">
        <ele>-10.917846679688</ele>
        <time>2015-07-25T15:08:10Z</time>
      </trkpt>
      <trkpt lat="42.33715" lon="8.09454">
        <ele>-10.917846679688</ele>
        <time>2015-07-25T15:08:24Z</time>
      </trkpt>
      <trkpt lat="42.33674" lon="8.09514">
        <ele>-11.3984375</ele>
        <time>2015-07-25T15:08:43Z</time>
      </trkpt>
      <trkpt lat="42.33653" lon="8.09562">
        <ele>-9.95654296875</ele>
        <time>2015-07-25T15:08:56Z</time>
      </trkpt>
      <trkpt lat="42.33621" lon="8.09616">
        <ele>-11.3984375</ele>
        <time>2015-07-25T15:09:12Z</time>
      </trkpt>
      <trkpt lat="42.33588" lon="8.0965">
        <ele>-10.917846679688</ele>
        <time>2015-07-25T15:09:25Z</time>
      </trkpt>
      <trkpt lat="42.3356" lon="8.09694">
        <ele>-10.437255859375</ele>
        <time>2015-07-25T15:09:39Z</time>
      </trkpt>
      <trkpt lat="42.33524" lon="8.09728">
        <ele>-9.95654296875</ele>
        <time>2015-07-25T15:09:53Z</time>
      </trkpt>
      <trkpt lat="42.33501" lon="8.09765">
        <ele>-11.879150390625</ele>
        <time>2015-07-25T15:10:04Z</time>
      </trkpt>
      <trkpt lat="42.33482" lon="8.09808">
        <ele>-10.917846679688</ele>
        <time>2015-07-25T15:10:16Z</time>
      </trkpt>
      <trkpt lat="42.33455" lon="8.09847">
        <ele>-10.917846679688</ele>
        <time>2015-07-25T15:10:28Z</time>
      </trkpt>
      <trkpt lat="42.33431" lon="8.09881">
        <ele>-9.475830078125</ele>
        <time>2015-07-25T15:10:39Z</time>
      </trkpt>
      <trkpt lat="42.33397" lon="8.0993">
        <ele>-11.3984375</ele>
        <time>2015-07-25T15:10:55Z</time>
      </trkpt>
      <trkpt lat="42.33374" lon="8.09989">
        <ele>-12.35986328125</ele>
        <time>2015-07-25T15:11:11Z</time>
      </trkpt>
      <trkpt lat="42.33345" lon="8.10035">
        <ele>-9.95654296875</ele>
        <time>2015-07-25T15:11:26Z</time>
      </trkpt>
      <trkpt lat="42.33321" lon="8.10071">
        <ele>-10.437255859375</ele>
        <time>2015-07-25T15:11:36Z</time>
      </trkpt>
      <trkpt lat="42.33297" lon="8.10128">
        <ele>-10.917846679688</ele>
        <time>2015-07-25T15:11:52Z</time>
      </trkpt>
      <trkpt lat="42.33279" lon="8.10165">
        <ele>-9.95654296875</ele>
        <time>2015-07-25T15:12:02Z</time>
      </trkpt>
      <trkpt lat="42.33253" lon="8.10203">
        <ele>-10.437255859375</ele>
        <time>2015-07-25T15:12:15Z</time>
      </trkpt>
      <trkpt lat="42.3322" lon="8.10246">
        <ele>-10.437255859375</ele>
        <time>2015-07-25T15:12:29Z</time>
      </trkpt>
      <trkpt lat="42.33188" lon="8.10289">
        <ele>-10.437255859375</ele>
        <time>2015-07-25T15:12:43Z</time>
      </trkpt>
      <trkpt lat="42.33151" lon="8.10337">
        <ele>-10.437255859375</ele>
        <time>2015-07-25T15:12:58Z</time>
      </trkpt>
      <trkpt lat="42.33107" lon="8.10404">
        <ele>-9.475830078125</ele>
        <time>2015-07-25T15:13:17Z</time>
      </trkpt>
      <trkpt lat="42.33074" lon="8.1044">
        <ele>-9.95654296875</ele>
        <time>2015-07-25T15:13:30Z</time>
      </trkpt>
      <trkpt lat="42.33052" lon="8.10472">
        <ele>-10.437255859375</ele>
        <time>2015-07-25T15:13:40Z</time>
      </trkpt>
      <trkpt lat="42.33024" lon="8.10518">
        <ele>-10.437255859375</ele>
        <time>2015-07-25T15:13:53Z</time>
      </trkpt>
      <trkpt lat="42.32985" lon="8.10596">
        <ele>-10.917846679688</ele>
        <time>2015-07-25T15:14:15Z</time>
      </trkpt>
      <trkpt lat="42.32965" lon="8.10633">
        <ele>-9.475830078125</ele>
        <time>2015-07-25T15:14:26Z</time>
      </trkpt>
      <trkpt lat="42.32935" lon="8.10678">
        <ele>-10.437255859375</ele>
        <time>2015-07-25T15:14:41Z</time>
      </trkpt>
      <trkpt lat="42.32909" lon="8.10702">
        <ele>-10.437255859375</ele>
        <time>2015-07-25T15:14:51Z</time>
      </trkpt>
      <trkpt lat="42.32886" lon="8.10741">
        <ele>-9.95654296875</ele>
        <time>2015-07-25T15:15:02Z</time>
      </trkpt>
      <trkpt lat="42.32851" lon="8.10782">
        <ele>-9.95654296875</ele>
        <time>2015-07-25T15:15:16Z</time>
      </trkpt>
      <trkpt lat="42.32829" lon="8.1082">
        <ele>-9.95654296875</ele>
        <time>2015-07-25T15:15:28Z</time>
      </trkpt>
      <trkpt lat="42.32786" lon="8.10885">
        <ele>-10.437255859375</ele>
        <time>2015-07-25T15:15:48Z</time>
      </trkpt>
      <trkpt lat="42.32751" lon="8.10921">
        <ele>-9.475830078125</ele>
        <time>2015-07-25T15:16:02Z</time>
      </trkpt>
      <trkpt lat="42.32717" lon="8.10958">
        <ele>-8.5146484375</ele>
        <time>2015-07-25T15:16:16Z</time>
      </trkpt>
      <trkpt lat="42.32675" lon="8.10986">
        <ele>-9.95654296875</ele>
        <time>2015-07-25T15:16:31Z</time>
      </trkpt>
      <trkpt lat="42.32622" lon="8.11041">
        <ele>-9.475830078125</ele>
        <time>2015-07-25T15:16:51Z</time>
      </trkpt>
      <trkpt lat="42.32578" lon="8.11085">
        <ele>-8.9952392578125</ele>
        <time>2015-07-25T15:17:08Z</time>
      </trkpt>
      <trkpt lat="42.32544" lon="8.11116">
        <ele>-9.95654296875</ele>
        <time>2015-07-25T15:17:21Z</time>
      </trkpt>
      <trkpt lat="42.32518" lon="8.1114">
        <ele>-8.9952392578125</ele>
        <time>2015-07-25T15:17:31Z</time>
      </trkpt>
      <trkpt lat="42.32482" lon="8.11184">
        <ele>-8.5146484375</ele>
        <time>2015-07-25T15:17:45Z</time>
      </trkpt>
      <trkpt lat="42.32437" lon="8.1124">
        <ele>-9.475830078125</ele>
        <time>2015-07-25T15:18:04Z</time>
      </trkpt>
      <trkpt lat="42.32403" lon="8.11276">
        <ele>-8.9952392578125</ele>
        <time>2015-07-25T15:18:17Z</time>
      </trkpt>
      <trkpt lat="42.32356" lon="8.1132">
        <ele>-9.475830078125</ele>
        <time>2015-07-25T15:18:36Z</time>
      </trkpt>
      <trkpt lat="42.32333" lon="8.11352">
        <ele>-9.95654296875</ele>
        <time>2015-07-25T15:18:46Z</time>
      </trkpt>
      <trkpt lat="42.32303" lon="8.11389">
        <ele>-8.5146484375</ele>
        <time>2015-07-25T15:18:59Z</time>
      </trkpt>
      <trkpt lat="42.32273" lon="8.11414">
        <ele>-8.033935546875</ele>
        <time>2015-07-25T15:19:10Z</time>
      </trkpt>
      <trkpt lat="42.32232" lon="8.11452">
        <ele>-8.9952392578125</ele>
        <time>2015-07-25T15:19:24Z</time>
      </trkpt>
      <trkpt lat="42.322" lon="8.11485">
        <ele>-9.475830078125</ele>
        <time>2015-07-25T15:19:36Z</time>
      </trkpt>
      <trkpt lat="42.32177" lon="8.11518">
        <ele>-9.95654296875</ele>
        <time>2015-07-25T15:19:47Z</time>
      </trkpt>
      <trkpt lat="42.32149" lon="8.1157">
        <ele>-9.475830078125</ele>
        <time>2015-07-25T15:20:02Z</time>
      </trkpt>
      <trkpt lat="42.32121" lon="8.11601">
        <ele>-8.5146484375</ele>
        <time>2015-07-25T15:20:13Z</time>
      </trkpt>
      <trkpt lat="42.32067" lon="8.11635">
        <ele>-8.5146484375</ele>
        <time>2015-07-25T15:20:32Z</time>
      </trkpt>
      <trkpt lat="42.32002" lon="8.11673">
        <ele>-7.5531005859375</ele>
        <time>2015-07-25T15:20:53Z</time>
      </trkpt>
      <trkpt lat="42.31957" lon="8.117">
        <ele>-8.5146484375</ele>
        <time>2015-07-25T15:21:08Z</time>
      </trkpt>
      <trkpt lat="42.31917" lon="8.11716">
        <ele>-8.5146484375</ele>
        <time>2015-07-25T15:21:22Z</time>
      </trkpt>
      <trkpt lat="42.31886" lon="8.11724">
        <ele>-8.5146484375</ele>
        <time>2015-07-25T15:21:32Z</time>
      </trkpt>
      <trkpt lat="42.31853" lon="8.11753">
        <ele>-7.5531005859375</ele>
        <time>2015-07-25T15:21:43Z</time>
      </trkpt>
      <trkpt lat="42.31798" lon="8.11802">
        <ele>-8.5146484375</ele>
        <time>2015-07-25T15:22:05Z</time>
      </trkpt>
      <trkpt lat="42.31762" lon="8.11819">
        <ele>-8.033935546875</ele>
        <time>2015-07-25T15:22:17Z</time>
      </trkpt>
      <trkpt lat="42.31685" lon="8.11849">
        <ele>-8.5146484375</ele>
        <time>2015-07-25T15:22:41Z</time>
      </trkpt>
      <trkpt lat="42.31651" lon="8.11859">
        <ele>-8.033935546875</ele>
        <time>2015-07-25T15:22:52Z</time>
      </trkpt>
      <trkpt lat="42.31585" lon="8.11871">
        <ele>-8.033935546875</ele>
        <time>2015-07-25T15:23:14Z</time>
      </trkpt>
      <trkpt lat="42.3154" lon="8.11886">
        <ele>-8.033935546875</ele>
        <time>2015-07-25T15:23:28Z</time>
      </trkpt>
      <trkpt lat="42.31487" lon="8.11903">
        <ele>-8.5146484375</ele>
        <time>2015-07-25T15:23:47Z</time>
      </trkpt>
      <trkpt lat="42.3145" lon="8.1192">
        <ele>-7.5531005859375</ele>
        <time>2015-07-25T15:23:59Z</time>
      </trkpt>
      <trkpt lat="42.31416" lon="8.11935">
        <ele>-7.5531005859375</ele>
        <time>2015-07-25T15:24:10Z</time>
      </trkpt>
      <trkpt lat="42.31374" lon="8.11945">
        <ele>-8.033935546875</ele>
        <time>2015-07-25T15:24:24Z</time>
      </trkpt>
      <trkpt lat="42.31305" lon="8.1198">
        <ele>-7.072509765625</ele>
        <time>2015-07-25T15:24:46Z</time>
      </trkpt>
      <trkpt lat="42.3127" lon="8.11994">
        <ele>-8.033935546875</ele>
        <time>2015-07-25T15:24:57Z</time>
      </trkpt>
      <trkpt lat="42.31203" lon="8.12013">
        <ele>-8.033935546875</ele>
        <time>2015-07-25T15:25:19Z</time>
      </trkpt>
      <trkpt lat="42.31166" lon="8.12031">
        <ele>-8.033935546875</ele>
        <time>2015-07-25T15:25:31Z</time>
      </trkpt>
      <trkpt lat="42.31129" lon="8.12054">
        <ele>-8.9952392578125</ele>
        <time>2015-07-25T15:25:44Z</time>
      </trkpt>
      <trkpt lat="42.31078" lon="8.12083">
        <ele>-8.033935546875</ele>
        <time>2015-07-25T15:26:02Z</time>
      </trkpt>
      <trkpt lat="42.3104" lon="8.121">
        <ele>-8.033935546875</ele>
        <time>2015-07-25T15:26:15Z</time>
      </trkpt>
      <trkpt lat="42.31011" lon="8.12122">
        <ele>-8.033935546875</ele>
        <time>2015-07-25T15:26:25Z</time>
      </trkpt>
      <trkpt lat="42.30951" lon="8.12164">
        <ele>-8.033935546875</ele>
        <time>2015-07-25T15:26:47Z</time>
      </trkpt>
      <trkpt lat="42.30909" lon="8.12186">
        <ele>-7.5531005859375</ele>
        <time>2015-07-25T15:27:01Z</time>
      </trkpt>
      <trkpt lat="42.30873" lon="8.12204">
        <ele>-7.072509765625</ele>
        <time>2015-07-25T15:27:13Z</time>
      </trkpt>
      <trkpt lat="42.3083" lon="8.12247">
        <ele>-8.033935546875</ele>
        <time>2015-07-25T15:27:29Z</time>
      </trkpt>
      <trkpt lat="42.30793" lon="8.12287">
        <ele>-7.5531005859375</ele>
        <time>2015-07-25T15:27:44Z</time>
      </trkpt>
      <trkpt lat="42.30756" lon="8.12307">
        <ele>-8.033935546875</ele>
        <time>2015-07-25T15:27:57Z</time>
      </trkpt>
      <trkpt lat="42.30718" lon="8.12327">
        <ele>-7.072509765625</ele>
        <time>2015-07-25T15:28:10Z</time>
      </trkpt>
      <trkpt lat="42.30684" lon="8.12343">
        <ele>-8.033935546875</ele>
        <time>2015-07-25T15:28:22Z</time>
      </trkpt>
      <trkpt lat="42.30639" lon="8.12356">
        <ele>-7.072509765625</ele>
        <time>2015-07-25T15:28:37Z</time>
      </trkpt>
      <trkpt lat="42.30606" lon="8.12371">
        <ele>-7.072509765625</ele>
        <time>2015-07-25T15:28:48Z</time>
      </trkpt>
      <trkpt lat="42.30574" lon="8.1238">
        <ele>-8.5146484375</ele>
        <time>2015-07-25T15:28:59Z</time>
      </trkpt>
      <trkpt lat="42.30524" lon="8.12406">
        <ele>-8.033935546875</ele>
        <time>2015-07-25T15:29:17Z</time>
      </trkpt>
      <trkpt lat="42.30494" lon="8.12421">
        <ele>-7.072509765625</ele>
        <time>2015-07-25T15:29:27Z</time>
      </trkpt>
      <trkpt lat="42.30465" lon="8.12434">
        <ele>-8.5146484375</ele>
        <time>2015-07-25T15:29:38Z</time>
      </trkpt>
      <trkpt lat="42.30431" lon="8.12449">
        <ele>-8.033935546875</ele>
        <time>2015-07-25T15:29:51Z</time>
      </trkpt>
      <trkpt lat="42.30397" lon="8.12473">
        <ele>-6.5919189453125</ele>
        <time>2015-07-25T15:30:04Z</time>
      </trkpt>
      <trkpt lat="42.30367" lon="8.12493">
        <ele>-8.033935546875</ele>
        <time>2015-07-25T15:30:15Z</time>
      </trkpt>
      <trkpt lat="42.30338" lon="8.12513">
        <ele>-8.033935546875</ele>
        <time>2015-07-25T15:30:25Z</time>
      </trkpt>
      <trkpt lat="42.30284" lon="8.12549">
        <ele>-7.5531005859375</ele>
        <time>2015-07-25T15:30:44Z</time>
      </trkpt>
      <trkpt lat="42.30253" lon="8.12567">
        <ele>-8.033935546875</ele>
        <time>2015-07-25T15:30:55Z</time>
      </trkpt>
      <trkpt lat="42.30215" lon="8.12595">
        <ele>-7.5531005859375</ele>
        <time>2015-07-25T15:31:10Z</time>
      </trkpt>
      <trkpt lat="42.30184" lon="8.12619">
        <ele>-7.072509765625</ele>
        <time>2015-07-25T15:31:22Z</time>
      </trkpt>
      <trkpt lat="42.30148" lon="8.12641">
        <ele>-7.5531005859375</ele>
        <time>2015-07-25T15:31:35Z</time>
      </trkpt>
      <trkpt lat="42.30113" lon="8.12662">
        <ele>-7.072509765625</ele>
        <time>2015-07-25T15:31:48Z</time>
      </trkpt>
      <trkpt lat="42.30079" lon="8.12682">
        <ele>-7.5531005859375</ele>
        <time>2015-07-25T15:32:01Z</time>
      </trkpt>
      <trkpt lat="42.30046" lon="8.12706">
        <ele>-8.5146484375</ele>
        <time>2015-07-25T15:32:14Z</time>
      </trkpt>
      <trkpt lat="42.30012" lon="8.12726">
        <ele>-6.5919189453125</ele>
        <time>2015-07-25T15:32:27Z</time>
      </trkpt>
      <trkpt lat="42.29974" lon="8.12739">
        <ele>-6.5919189453125</ele>
        <time>2015-07-25T15:32:43Z</time>
      </trkpt>
      <trkpt lat="42.29944" lon="8.12758">
        <ele>-7.072509765625</ele>
        <time>2015-07-25T15:32:55Z</time>
      </trkpt>
      <trkpt lat="42.29891" lon="8.12797">
        <ele>-7.5531005859375</ele>
        <time>2015-07-25T15:33:16Z</time>
      </trkpt>
      <trkpt lat="42.29838" lon="8.12835">
        <ele>-7.5531005859375</ele>
        <time>2015-07-25T15:33:37Z</time>
      </trkpt>
      <trkpt lat="42.29807" lon="8.12861">
        <ele>-8.033935546875</ele>
        <time>2015-07-25T15:33:50Z</time>
      </trkpt>
      <trkpt lat="42.29768" lon="8.12887">
        <ele>-7.072509765625</ele>
        <time>2015-07-25T15:34:05Z</time>
      </trkpt>
      <trkpt lat="42.29731" lon="8.12907">
        <ele>-7.072509765625</ele>
        <time>2015-07-25T15:34:18Z</time>
      </trkpt>
      <trkpt lat="42.29687" lon="8.12924">
        <ele>-7.072509765625</ele>
        <time>2015-07-25T15:34:34Z</time>
      </trkpt>
      <trkpt lat="42.29655" lon="8.12938">
        <ele>-7.5531005859375</ele>
        <time>2015-07-25T15:34:46Z</time>
      </trkpt>
      <trkpt lat="42.29601" lon="8.12963">
        <ele>-7.5531005859375</ele>
        <time>2015-07-25T15:35:06Z</time>
      </trkpt>
      <trkpt lat="42.29571" lon="8.12985">
        <ele>-7.072509765625</ele>
        <time>2015-07-25T15:35:17Z</time>
      </trkpt>
      <trkpt lat="42.29539" lon="8.13007">
        <ele>-7.5531005859375</ele>
        <time>2015-07-25T15:35:30Z</time>
      </trkpt>
      <trkpt lat="42.29506" lon="8.1303">
        <ele>-8.033935546875</ele>
        <time>2015-07-25T15:35:43Z</time>
      </trkpt>
      <trkpt lat="42.29474" lon="8.13041">
        <ele>-7.5531005859375</ele>
        <time>2015-07-25T15:35:55Z</time>
      </trkpt>
      <trkpt lat="42.29424" lon="8.13059">
        <ele>-7.072509765625</ele>
        <time>2015-07-25T15:36:16Z</time>
      </trkpt>
      <trkpt lat="42.29359" lon="8.131">
        <ele>-6.5919189453125</ele>
        <time>2015-07-25T15:36:40Z</time>
      </trkpt>
      <trkpt lat="42.29322" lon="8.13118">
        <ele>-7.072509765625</ele>
        <time>2015-07-25T15:36:53Z</time>
      </trkpt>
      <trkpt lat="42.29273" lon="8.13141">
        <ele>-6.5919189453125</ele>
        <time>2015-07-25T15:37:10Z</time>
      </trkpt>
      <trkpt lat="42.29236" lon="8.13162">
        <ele>-6.5919189453125</ele>
        <time>2015-07-25T15:37:22Z</time>
      </trkpt>
      <trkpt lat="42.29204" lon="8.13182">
        <ele>-7.072509765625</ele>
        <time>2015-07-25T15:37:34Z</time>
      </trkpt>
      <trkpt lat="42.29171" lon="8.13205">
        <ele>-6.5919189453125</ele>
        <time>2015-07-25T15:37:46Z</time>
      </trkpt>
      <trkpt lat="42.29138" lon="8.13234">
        <ele>-6.5919189453125</ele>
        <time>2015-07-25T15:37:58Z</time>
      </trkpt>
      <trkpt lat="42.29114" lon="8.13263">
        <ele>-6.5919189453125</ele>
        <time>2015-07-25T15:38:08Z</time>
      </trkpt>
      <trkpt lat="42.29089" lon="8.13289">
        <ele>-7.5531005859375</ele>
        <time>2015-07-25T15:38:18Z</time>
      </trkpt>
      <trkpt lat="42.29059" lon="8.13336">
        <ele>-6.5919189453125</ele>
        <time>2015-07-25T15:38:32Z</time>
      </trkpt>
      <trkpt lat="42.29033" lon="8.13385">
        <ele>-9.475830078125</ele>
        <time>2015-07-25T15:38:45Z</time>
      </trkpt>
      <trkpt lat="42.28996" lon="8.13441">
        <ele>-8.033935546875</ele>
        <time>2015-07-25T15:39:03Z</time>
      </trkpt>
      <trkpt lat="42.2897" lon="8.13465">
        <ele>-8.5146484375</ele>
        <time>2015-07-25T15:39:13Z</time>
      </trkpt>
      <trkpt lat="42.28922" lon="8.1352">
        <ele>-7.072509765625</ele>
        <time>2015-07-25T15:39:33Z</time>
      </trkpt>
      <trkpt lat="42.28882" lon="8.13574">
        <ele>-6.5919189453125</ele>
        <time>2015-07-25T15:39:52Z</time>
      </trkpt>
      <trkpt lat="42.2885" lon="8.13622">
        <ele>-8.033935546875</ele>
        <time>2015-07-25T15:40:09Z</time>
      </trkpt>
      <trkpt lat="42.28819" lon="8.13663">
        <ele>-8.5146484375</ele>
        <time>2015-07-25T15:40:24Z</time>
      </trkpt>
      <trkpt lat="42.28793" lon="8.13696">
        <ele>-8.033935546875</ele>
        <time>2015-07-25T15:40:37Z</time>
      </trkpt>
      <trkpt lat="42.28766" lon="8.1373">
        <ele>-7.072509765625</ele>
        <time>2015-07-25T15:40:50Z</time>
      </trkpt>
      <trkpt lat="42.28741" lon="8.13765">
        <ele>-8.5146484375</ele>
        <time>2015-07-25T15:41:03Z</time>
      </trkpt>
      <trkpt lat="42.28719" lon="8.13796">
        <ele>-8.5146484375</ele>
        <time>2015-07-25T15:41:14Z</time>
      </trkpt>
      <trkpt lat="42.28696" lon="8.13827">
        <ele>-7.072509765625</ele>
        <time>2015-07-25T15:41:25Z</time>
      </trkpt>
      <trkpt lat="42.2867" lon="8.13858">
        <ele>-8.5146484375</ele>
        <time>2015-07-25T15:41:38Z</time>
      </trkpt>
      <trkpt lat="42.28624" lon="8.13911">
        <ele>-7.5531005859375</ele>
        <time>2015-07-25T15:42:01Z</time>
      </trkpt>
      <trkpt lat="42.28575" lon="8.13967">
        <ele>-8.033935546875</ele>
        <time>2015-07-25T15:42:25Z</time>
      </trkpt>
      <trkpt lat="42.28546" lon="8.14002">
        <ele>-8.033935546875</ele>
        <time>2015-07-25T15:42:40Z</time>
      </trkpt>
      <trkpt lat="42.28517" lon="8.14037">
        <ele>-6.5919189453125</ele>
        <time>2015-07-25T15:42:55Z</time>
      </trkpt>
      <trkpt lat="42.28485" lon="8.14075">
        <ele>-8.5146484375</ele>
        <time>2015-07-25T15:43:11Z</time>
      </trkpt>
      <trkpt lat="42.28465" lon="8.1412">
        <ele>-7.5531005859375</ele>
        <time>2015-07-25T15:43:25Z</time>
      </trkpt>
      <trkpt lat="42.28441" lon="8.14153">
        <ele>-7.5531005859375</ele>
        <time>2015-07-25T15:43:38Z</time>
      </trkpt>
      <trkpt lat="42.2842" lon="8.14189">
        <ele>-7.5531005859375</ele>
        <time>2015-07-25T15:43:50Z</time>
      </trkpt>
      <trkpt lat="42.28376" lon="8.14248">
        <ele>-6.5919189453125</ele>
        <time>2015-07-25T15:44:13Z</time>
      </trkpt>
      <trkpt lat="42.28351" lon="8.14277">
        <ele>-6.5919189453125</ele>
        <time>2015-07-25T15:44:24Z</time>
      </trkpt>
      <trkpt lat="42.28322" lon="8.1431">
        <ele>-7.072509765625</ele>
        <time>2015-07-25T15:44:36Z</time>
      </trkpt>
      <trkpt lat="42.28294" lon="8.14343">
        <ele>-7.5531005859375</ele>
        <time>2015-07-25T15:44:48Z</time>
      </trkpt>
      <trkpt lat="42.2825" lon="8.14389">
        <ele>-6.5919189453125</ele>
        <time>2015-07-25T15:45:07Z</time>
      </trkpt>
      <trkpt lat="42.28222" lon="8.14419">
        <ele>-7.5531005859375</ele>
        <time>2015-07-25T15:45:18Z</time>
      </trkpt>
      <trkpt lat="42.28192" lon="8.14453">
        <ele>-7.072509765625</ele>
        <time>2015-07-25T15:45:31Z</time>
      </trkpt>
      <trkpt lat="42.28162" lon="8.14484">
        <ele>-7.072509765625</ele>
        <time>2015-07-25T15:45:44Z</time>
      </trkpt>
      <trkpt lat="42.28133" lon="8.14514">
        <ele>-7.072509765625</ele>
        <time>2015-07-25T15:45:57Z</time>
      </trkpt>
      <trkpt lat="42.28104" lon="8.14547">
        <ele>-7.072509765625</ele>
        <time>2015-07-25T15:46:10Z</time>
      </trkpt>
      <trkpt lat="42.2807" lon="8.1458">
        <ele>-5.6304931640625</ele>
        <time>2015-07-25T15:46:23Z</time>
      </trkpt>
      <trkpt lat="42.28045" lon="8.14607">
        <ele>-6.5919189453125</ele>
        <time>2015-07-25T15:46:33Z</time>
      </trkpt>
      <trkpt lat="42.28016" lon="8.14638">
        <ele>-7.5531005859375</ele>
        <time>2015-07-25T15:46:45Z</time>
      </trkpt>
      <trkpt lat="42.2798" lon="8.14678">
        <ele>-6.5919189453125</ele>
        <time>2015-07-25T15:47:01Z</time>
      </trkpt>
      <trkpt lat="42.27953" lon="8.14703">
        <ele>-7.072509765625</ele>
        <time>2015-07-25T15:47:12Z</time>
      </trkpt>
      <trkpt lat="42.27924" lon="8.14738">
        <ele>-8.033935546875</ele>
        <time>2015-07-25T15:47:26Z</time>
      </trkpt>
      <trkpt lat="42.27888" lon="8.14806">
        <ele>-6.5919189453125</ele>
        <time>2015-07-25T15:47:49Z</time>
      </trkpt>
      <trkpt lat="42.27864" lon="8.14836">
        <ele>-7.072509765625</ele>
        <time>2015-07-25T15:48:01Z</time>
      </trkpt>
      <trkpt lat="42.27822" lon="8.1488">
        <ele>-6.5919189453125</ele>
        <time>2015-07-25T15:48:20Z</time>
      </trkpt>
      <trkpt lat="42.27795" lon="8.14911">
        <ele>-7.072509765625</ele>
        <time>2015-07-25T15:48:33Z</time>
      </trkpt>
      <trkpt lat="42.27764" lon="8.14946">
        <ele>-7.072509765625</ele>
        <time>2015-07-25T15:48:47Z</time>
      </trkpt>
      <trkpt lat="42.27731" lon="8.14978">
        <ele>-6.5919189453125</ele>
        <time>2015-07-25T15:49:01Z</time>
      </trkpt>
      <trkpt lat="42.2769" lon="8.15019">
        <ele>-5.6304931640625</ele>
        <time>2015-07-25T15:49:18Z</time>
      </trkpt>
      <trkpt lat="42.27644" lon="8.15063">
        <ele>-5.6304931640625</ele>
        <time>2015-07-25T15:49:36Z</time>
      </trkpt>
      <trkpt lat="42.27611" lon="8.15087">
        <ele>-6.1112060546875</ele>
        <time>2015-07-25T15:49:49Z</time>
      </trkpt>
      <trkpt lat="42.27578" lon="8.15129">
        <ele>-6.1112060546875</ele>
        <time>2015-07-25T15:50:04Z</time>
      </trkpt>
      <trkpt lat="42.27552" lon="8.1517">
        <ele>-6.5919189453125</ele>
        <time>2015-07-25T15:50:18Z</time>
      </trkpt>
      <trkpt lat="42.27518" lon="8.15213">
        <ele>-6.1112060546875</ele>
        <time>2015-07-25T15:50:34Z</time>
      </trkpt>
      <trkpt lat="42.27488" lon="8.15245">
        <ele>-6.5919189453125</ele>
        <time>2015-07-25T15:50:47Z</time>
      </trkpt>
      <trkpt lat="42.27464" lon="8.1528">
        <ele>-6.5919189453125</ele>
        <time>2015-07-25T15:51:00Z</time>
      </trkpt>
      <trkpt lat="42.27443" lon="8.15316">
        <ele>-6.5919189453125</ele>
        <time>2015-07-25T15:51:13Z</time>
      </trkpt>
      <trkpt lat="42.27408" lon="8.1535">
        <ele>-6.1112060546875</ele>
        <time>2015-07-25T15:51:28Z</time>
      </trkpt>
      <trkpt lat="42.27369" lon="8.15404">
        <ele>-6.1112060546875</ele>
        <time>2015-07-25T15:51:47Z</time>
      </trkpt>
      <trkpt lat="42.27344" lon="8.15445">
        <ele>-6.1112060546875</ele>
        <time>2015-07-25T15:52:01Z</time>
      </trkpt>
      <trkpt lat="42.27318" lon="8.15474">
        <ele>-7.072509765625</ele>
        <time>2015-07-25T15:52:13Z</time>
      </trkpt>
      <trkpt lat="42.27292" lon="8.15508">
        <ele>-5.14990234375</ele>
        <time>2015-07-25T15:52:26Z</time>
      </trkpt>
      <trkpt lat="42.27243" lon="8.15556">
        <ele>-5.14990234375</ele>
        <time>2015-07-25T15:52:47Z</time>
      </trkpt>
      <trkpt lat="42.2721" lon="8.15608">
        <ele>-5.14990234375</ele>
        <time>2015-07-25T15:53:04Z</time>
      </trkpt>
      <trkpt lat="42.27172" lon="8.15652">
        <ele>-6.1112060546875</ele>
        <time>2015-07-25T15:53:22Z</time>
      </trkpt>
      <trkpt lat="42.27131" lon="8.15696">
        <ele>-6.1112060546875</ele>
        <time>2015-07-25T15:53:42Z</time>
      </trkpt>
      <trkpt lat="42.27102" lon="8.1573">
        <ele>-5.6304931640625</ele>
        <time>2015-07-25T15:53:55Z</time>
      </trkpt>
      <trkpt lat="42.27071" lon="8.15764">
        <ele>-6.1112060546875</ele>
        <time>2015-07-25T15:54:09Z</time>
      </trkpt>
      <trkpt lat="42.27036" lon="8.15803">
        <ele>-6.5919189453125</ele>
        <time>2015-07-25T15:54:25Z</time>
      </trkpt>
      <trkpt lat="42.27009" lon="8.15833">
        <ele>-5.6304931640625</ele>
        <time>2015-07-25T15:54:38Z</time>
      </trkpt>
      <trkpt lat="42.26975" lon="8.15864">
        <ele>-6.5919189453125</ele>
        <time>2015-07-25T15:54:53Z</time>
      </trkpt>
      <trkpt lat="42.26952" lon="8.15902">
        <ele>-5.6304931640625</ele>
        <time>2015-07-25T15:55:06Z</time>
      </trkpt>
      <trkpt lat="42.26905" lon="8.15963">
        <ele>-5.14990234375</ele>
        <time>2015-07-25T15:55:28Z</time>
      </trkpt>
      <trkpt lat="42.26876" lon="8.1599">
        <ele>-6.1112060546875</ele>
        <time>2015-07-25T15:55:41Z</time>
      </trkpt>
      <trkpt lat="42.26833" lon="8.16048">
        <ele>-5.6304931640625</ele>
        <time>2015-07-25T15:56:05Z</time>
      </trkpt>
      <trkpt lat="42.26779" lon="8.16093">
        <ele>-6.1112060546875</ele>
        <time>2015-07-25T15:56:27Z</time>
      </trkpt>
      <trkpt lat="42.26727" lon="8.16141">
        <ele>-7.072509765625</ele>
        <time>2015-07-25T15:56:49Z</time>
      </trkpt>
      <trkpt lat="42.26698" lon="8.1618">
        <ele>-6.1112060546875</ele>
        <time>2015-07-25T15:57:04Z</time>
      </trkpt>
      <trkpt lat="42.26665" lon="8.16217">
        <ele>-6.5919189453125</ele>
        <time>2015-07-25T15:57:18Z</time>
      </trkpt>
      <trkpt lat="42.26626" lon="8.16255">
        <ele>-5.6304931640625</ele>
        <time>2015-07-25T15:57:33Z</time>
      </trkpt>
      <trkpt lat="42.26604" lon="8.1629">
        <ele>-7.5531005859375</ele>
        <time>2015-07-25T15:57:45Z</time>
      </trkpt>
      <trkpt lat="42.26576" lon="8.16324">
        <ele>-5.14990234375</ele>
        <time>2015-07-25T15:57:57Z</time>
      </trkpt>
      <trkpt lat="42.26538" lon="8.16366">
        <ele>-6.1112060546875</ele>
        <time>2015-07-25T15:58:13Z</time>
      </trkpt>
      <trkpt lat="42.26511" lon="8.16418">
        <ele>-7.5531005859375</ele>
        <time>2015-07-25T15:58:32Z</time>
      </trkpt>
      <trkpt lat="42.26473" lon="8.16455">
        <ele>-6.5919189453125</ele>
        <time>2015-07-25T15:58:50Z</time>
      </trkpt>
      <trkpt lat="42.26447" lon="8.16486">
        <ele>-5.6304931640625</ele>
        <time>2015-07-25T15:59:02Z</time>
      </trkpt>
      <trkpt lat="42.26405" lon="8.16537">
        <ele>-6.1112060546875</ele>
        <time>2015-07-25T15:59:23Z</time>
      </trkpt>
      <trkpt lat="42.2638" lon="8.16572">
        <ele>-5.14990234375</ele>
        <time>2015-07-25T15:59:37Z</time>
      </trkpt>
      <trkpt lat="42.2635" lon="8.16611">
        <ele>-6.1112060546875</ele>
        <time>2015-07-25T15:59:54Z</time>
      </trkpt>
      <trkpt lat="42.26309" lon="8.16665">
        <ele>-5.6304931640625</ele>
        <time>2015-07-25T16:00:18Z</time>
      </trkpt>
      <trkpt lat="42.26278" lon="8.16704">
        <ele>-7.072509765625</ele>
        <time>2015-07-25T16:00:33Z</time>
      </trkpt>
      <trkpt lat="42.26254" lon="8.16734">
        <ele>-5.14990234375</ele>
        <time>2015-07-25T16:00:47Z</time>
      </trkpt>
      <trkpt lat="42.26227" lon="8.16767">
        <ele>-6.1112060546875</ele>
        <time>2015-07-25T16:01:01Z</time>
      </trkpt>
      <trkpt lat="42.26191" lon="8.16805">
        <ele>-5.6304931640625</ele>
        <time>2015-07-25T16:01:18Z</time>
      </trkpt>
      <trkpt lat="42.26163" lon="8.16841">
        <ele>-5.6304931640625</ele>
        <time>2015-07-25T16:01:31Z</time>
      </trkpt>
      <trkpt lat="42.26133" lon="8.16887">
        <ele>-5.14990234375</ele>
        <time>2015-07-25T16:01:47Z</time>
      </trkpt>
      <trkpt lat="42.26087" lon="8.1694">
        <ele>-5.14990234375</ele>
        <time>2015-07-25T16:02:09Z</time>
      </trkpt>
      <trkpt lat="42.26035" lon="8.16993">
        <ele>-5.14990234375</ele>
        <time>2015-07-25T16:02:32Z</time>
      </trkpt>
      <trkpt lat="42.26006" lon="8.17025">
        <ele>-6.1112060546875</ele>
        <time>2015-07-25T16:02:45Z</time>
      </trkpt>
      <trkpt lat="42.25978" lon="8.17057">
        <ele>-6.1112060546875</ele>
        <time>2015-07-25T16:02:58Z</time>
      </trkpt>
      <trkpt lat="42.25946" lon="8.17095">
        <ele>-5.6304931640625</ele>
        <time>2015-07-25T16:03:13Z</time>
      </trkpt>
      <trkpt lat="42.25919" lon="8.17124">
        <ele>-5.6304931640625</ele>
        <time>2015-07-25T16:03:25Z</time>
      </trkpt>
      <trkpt lat="42.25859" lon="8.17199">
        <ele>-4.1885986328125</ele>
        <time>2015-07-25T16:03:50Z</time>
      </trkpt>
      <trkpt lat="42.25823" lon="8.17234">
        <ele>-5.6304931640625</ele>
        <time>2015-07-25T16:04:04Z</time>
      </trkpt>
      <trkpt lat="42.2579" lon="8.1727">
        <ele>-5.6304931640625</ele>
        <time>2015-07-25T16:04:18Z</time>
      </trkpt>
      <trkpt lat="42.25758" lon="8.17303">
        <ele>-4.1885986328125</ele>
        <time>2015-07-25T16:04:31Z</time>
      </trkpt>
      <trkpt lat="42.25732" lon="8.17329">
        <ele>-5.14990234375</ele>
        <time>2015-07-25T16:04:42Z</time>
      </trkpt>
      <trkpt lat="42.25707" lon="8.1736">
        <ele>-5.6304931640625</ele>
        <time>2015-07-25T16:04:54Z</time>
      </trkpt>
      <trkpt lat="42.25679" lon="8.17387">
        <ele>-6.5919189453125</ele>
        <time>2015-07-25T16:05:06Z</time>
      </trkpt>
      <trkpt lat="42.2564" lon="8.17431">
        <ele>-4.6693115234375</ele>
        <time>2015-07-25T16:05:22Z</time>
      </trkpt>
      <trkpt lat="42.25606" lon="8.17471">
        <ele>-5.6304931640625</ele>
        <time>2015-07-25T16:05:39Z</time>
      </trkpt>
      <trkpt lat="42.25562" lon="8.17524">
        <ele>-6.5919189453125</ele>
        <time>2015-07-25T16:06:01Z</time>
      </trkpt>
      <trkpt lat="42.25533" lon="8.17558">
        <ele>-5.6304931640625</ele>
        <time>2015-07-25T16:06:16Z</time>
      </trkpt>
      <trkpt lat="42.25507" lon="8.17589">
        <ele>-6.1112060546875</ele>
        <time>2015-07-25T16:06:29Z</time>
      </trkpt>
      <trkpt lat="42.25476" lon="8.17625">
        <ele>-6.5919189453125</ele>
        <time>2015-07-25T16:06:46Z</time>
      </trkpt>
      <trkpt lat="42.2545" lon="8.17657">
        <ele>-6.1112060546875</ele>
        <time>2015-07-25T16:07:00Z</time>
      </trkpt>
      <trkpt lat="42.25414" lon="8.177">
        <ele>-6.1112060546875</ele>
        <time>2015-07-25T16:07:18Z</time>
      </trkpt>
      <trkpt lat="42.2537" lon="8.17751">
        <ele>-5.6304931640625</ele>
        <time>2015-07-25T16:07:39Z</time>
      </trkpt>
      <trkpt lat="42.25316" lon="8.17811">
        <ele>-5.14990234375</ele>
        <time>2015-07-25T16:08:04Z</time>
      </trkpt>
      <trkpt lat="42.25289" lon="8.17837">
        <ele>-5.14990234375</ele>
        <time>2015-07-25T16:08:15Z</time>
      </trkpt>
      <trkpt lat="42.25261" lon="8.1787">
        <ele>-5.14990234375</ele>
        <time>2015-07-25T16:08:27Z</time>
      </trkpt>
      <trkpt lat="42.25225" lon="8.17911">
        <ele>-5.6304931640625</ele>
        <time>2015-07-25T16:08:44Z</time>
      </trkpt>
      <trkpt lat="42.25173" lon="8.17969">
        <ele>-5.6304931640625</ele>
        <time>2015-07-25T16:09:08Z</time>
      </trkpt>
      <trkpt lat="42.25132" lon="8.18021">
        <ele>-4.6693115234375</ele>
        <time>2015-07-25T16:09:29Z</time>
      </trkpt>
      <trkpt lat="42.25106" lon="8.1805">
        <ele>-5.6304931640625</ele>
        <time>2015-07-25T16:09:41Z</time>
      </trkpt>
      <trkpt lat="42.25055" lon="8.18105">
        <ele>-4.6693115234375</ele>
        <time>2015-07-25T16:10:04Z</time>
      </trkpt>
      <trkpt lat="42.25021" lon="8.18136">
        <ele>-5.14990234375</ele>
        <time>2015-07-25T16:10:17Z</time>
      </trkpt>
      <trkpt lat="42.24994" lon="8.18161">
        <ele>-6.1112060546875</ele>
        <time>2015-07-25T16:10:28Z</time>
      </trkpt>
      <trkpt lat="42.24969" lon="8.18196">
        <ele>-5.14990234375</ele>
        <time>2015-07-25T16:10:40Z</time>
      </trkpt>
      <trkpt lat="42.24943" lon="8.18225">
        <ele>-5.6304931640625</ele>
        <time>2015-07-25T16:10:51Z</time>
      </trkpt>
      <trkpt lat="42.24882" lon="8.18284">
        <ele>-4.6693115234375</ele>
        <time>2015-07-25T16:11:16Z</time>
      </trkpt>
      <trkpt lat="42.24846" lon="8.18322">
        <ele>-6.1112060546875</ele>
        <time>2015-07-25T16:11:32Z</time>
      </trkpt>
      <trkpt lat="42.24805" lon="8.18367">
        <ele>-6.1112060546875</ele>
        <time>2015-07-25T16:11:49Z</time>
      </trkpt>
      <trkpt lat="42.24774" lon="8.18396">
        <ele>-5.14990234375</ele>
        <time>2015-07-25T16:12:01Z</time>
      </trkpt>
      <trkpt lat="42.24726" lon="8.18441">
        <ele>-5.14990234375</ele>
        <time>2015-07-25T16:12:21Z</time>
      </trkpt>
      <trkpt lat="42.24684" lon="8.18492">
        <ele>-6.5919189453125</ele>
        <time>2015-07-25T16:12:39Z</time>
      </trkpt>
      <trkpt lat="42.24651" lon="8.18523">
        <ele>-5.14990234375</ele>
        <time>2015-07-25T16:12:52Z</time>
      </trkpt>
      <trkpt lat="42.24617" lon="8.18564">
        <ele>-5.6304931640625</ele>
        <time>2015-07-25T16:13:06Z</time>
      </trkpt>
      <trkpt lat="42.24598" lon="8.18601">
        <ele>-6.5919189453125</ele>
        <time>2015-07-25T16:13:19Z</time>
      </trkpt>
      <trkpt lat="42.24573" lon="8.18627">
        <ele>-5.6304931640625</ele>
        <time>2015-07-25T16:13:30Z</time>
      </trkpt>
      <trkpt lat="42.2453" lon="8.18666">
        <ele>-6.5919189453125</ele>
        <time>2015-07-25T16:13:49Z</time>
      </trkpt>
      <trkpt lat="42.24492" lon="8.18707">
        <ele>-7.5531005859375</ele>
        <time>2015-07-25T16:14:06Z</time>
      </trkpt>
      <trkpt lat="42.2445" lon="8.18757">
        <ele>-7.5531005859375</ele>
        <time>2015-07-25T16:14:26Z</time>
      </trkpt>
      <trkpt lat="42.24416" lon="8.18793">
        <ele>-7.5531005859375</ele>
        <time>2015-07-25T16:14:42Z</time>
      </trkpt>
      <trkpt lat="42.24381" lon="8.18822">
        <ele>-6.5919189453125</ele>
        <time>2015-07-25T16:14:56Z</time>
      </trkpt>
      <trkpt lat="42.24355" lon="8.18848">
        <ele>-6.5919189453125</ele>
        <time>2015-07-25T16:15:07Z</time>
      </trkpt>
      <trkpt lat="42.24326" lon="8.18879">
        <ele>-6.5919189453125</ele>
        <time>2015-07-25T16:15:20Z</time>
      </trkpt>
      <trkpt lat="42.24276" lon="8.18929">
        <ele>-5.6304931640625</ele>
        <time>2015-07-25T16:15:41Z</time>
      </trkpt>
      <trkpt lat="42.24252" lon="8.1896">
        <ele>-7.072509765625</ele>
        <time>2015-07-25T16:15:53Z</time>
      </trkpt>
      <trkpt lat="42.24227" lon="8.18989">
        <ele>-6.1112060546875</ele>
        <time>2015-07-25T16:16:05Z</time>
      </trkpt>
      <trkpt lat="42.24183" lon="8.19032">
        <ele>-6.5919189453125</ele>
        <time>2015-07-25T16:16:26Z</time>
      </trkpt>
      <trkpt lat="42.24141" lon="8.19073">
        <ele>-5.6304931640625</ele>
        <time>2015-07-25T16:16:45Z</time>
      </trkpt>
      <trkpt lat="42.24113" lon="8.191">
        <ele>-6.1112060546875</ele>
        <time>2015-07-25T16:16:57Z</time>
      </trkpt>
      <trkpt lat="42.24088" lon="8.19127">
        <ele>-7.5531005859375</ele>
        <time>2015-07-25T16:17:08Z</time>
      </trkpt>
      <trkpt lat="42.24041" lon="8.19177">
        <ele>-7.072509765625</ele>
        <time>2015-07-25T16:17:29Z</time>
      </trkpt>
      <trkpt lat="42.24009" lon="8.19213">
        <ele>-6.1112060546875</ele>
        <time>2015-07-25T16:17:43Z</time>
      </trkpt>
      <trkpt lat="42.23963" lon="8.19262">
        <ele>-6.1112060546875</ele>
        <time>2015-07-25T16:18:05Z</time>
      </trkpt>
      <trkpt lat="42.23923" lon="8.19307">
        <ele>-8.033935546875</ele>
        <time>2015-07-25T16:18:23Z</time>
      </trkpt>
      <trkpt lat="42.23905" lon="8.19353">
        <ele>-7.072509765625</ele>
        <time>2015-07-25T16:18:36Z</time>
      </trkpt>
      <trkpt lat="42.23868" lon="8.19405">
        <ele>-6.1112060546875</ele>
        <time>2015-07-25T16:18:55Z</time>
      </trkpt>
      <trkpt lat="42.23823" lon="8.19451">
        <ele>-7.5531005859375</ele>
        <time>2015-07-25T16:19:14Z</time>
      </trkpt>
      <trkpt lat="42.23787" lon="8.19485">
        <ele>-7.5531005859375</ele>
        <time>2015-07-25T16:19:30Z</time>
      </trkpt>
      <trkpt lat="42.23757" lon="8.19516">
        <ele>-5.6304931640625</ele>
        <time>2015-07-25T16:19:44Z</time>
      </trkpt>
      <trkpt lat="42.2373" lon="8.19549">
        <ele>-8.033935546875</ele>
        <time>2015-07-25T16:19:58Z</time>
      </trkpt>
      <trkpt lat="42.23703" lon="8.19576">
        <ele>-7.072509765625</ele>
        <time>2015-07-25T16:20:10Z</time>
      </trkpt>
      <trkpt lat="42.23678" lon="8.19605">
        <ele>-6.5919189453125</ele>
        <time>2015-07-25T16:20:22Z</time>
      </trkpt>
      <trkpt lat="42.23646" lon="8.19634">
        <ele>-7.5531005859375</ele>
        <time>2015-07-25T16:20:37Z</time>
      </trkpt>
      <trkpt lat="42.23613" lon="8.19669">
        <ele>-6.5919189453125</ele>
        <time>2015-07-25T16:20:52Z</time>
      </trkpt>
      <trkpt lat="42.23587" lon="8.19693">
        <ele>-7.072509765625</ele>
        <time>2015-07-25T16:21:03Z</time>
      </trkpt>
      <trkpt lat="42.23537" lon="8.19743">
        <ele>-7.072509765625</ele>
        <time>2015-07-25T16:21:24Z</time>
      </trkpt>
      <trkpt lat="42.23502" lon="8.19785">
        <ele>-6.5919189453125</ele>
        <time>2015-07-25T16:21:40Z</time>
      </trkpt>
      <trkpt lat="42.23477" lon="8.19815">
        <ele>-7.5531005859375</ele>
        <time>2015-07-25T16:21:53Z</time>
      </trkpt>
      <trkpt lat="42.2345" lon="8.1985">
        <ele>-5.6304931640625</ele>
        <time>2015-07-25T16:22:07Z</time>
      </trkpt>
      <trkpt lat="42.23394" lon="8.199">
        <ele>-5.6304931640625</ele>
        <time>2015-07-25T16:22:29Z</time>
      </trkpt>
      <trkpt lat="42.23352" lon="8.19941">
        <ele>-7.072509765625</ele>
        <time>2015-07-25T16:22:48Z</time>
      </trkpt>
      <trkpt lat="42.23315" lon="8.19981">
        <ele>-6.5919189453125</ele>
        <time>2015-07-25T16:23:06Z</time>
      </trkpt>
      <trkpt lat="42.23267" lon="8.20032">
        <ele>-6.5919189453125</ele>
        <time>2015-07-25T16:23:30Z</time>
      </trkpt>
      <trkpt lat="42.23235" lon="8.20066">
        <ele>-8.5146484375</ele>
        <time>2015-07-25T16:23:47Z</time>
      </trkpt>
      <trkpt lat="42.23194" lon="8.20107">
        <ele>-7.072509765625</ele>
        <time>2015-07-25T16:24:07Z</time>
      </trkpt>
      <trkpt lat="42.23168" lon="8.20131">
        <ele>-6.1112060546875</ele>
        <time>2015-07-25T16:24:19Z</time>
      </trkpt>
      <trkpt lat="42.23142" lon="8.20159">
        <ele>-5.6304931640625</ele>
        <time>2015-07-25T16:24:31Z</time>
      </trkpt>
      <trkpt lat="42.23112" lon="8.20185">
        <ele>-7.5531005859375</ele>
        <time>2015-07-25T16:24:44Z</time>
      </trkpt>
      <trkpt lat="42.23065" lon="8.20243">
        <ele>-6.1112060546875</ele>
        <time>2015-07-25T16:25:07Z</time>
      </trkpt>
      <trkpt lat="42.23039" lon="8.20274">
        <ele>-6.1112060546875</ele>
        <time>2015-07-25T16:25:19Z</time>
      </trkpt>
      <trkpt lat="42.2298" lon="8.20338">
        <ele>-6.1112060546875</ele>
        <time>2015-07-25T16:25:44Z</time>
      </trkpt>
      <trkpt lat="42.22947" lon="8.20366">
        <ele>-5.6304931640625</ele>
        <time>2015-07-25T16:25:56Z</time>
      </trkpt>
      <trkpt lat="42.2292" lon="8.20388">
        <ele>-6.1112060546875</ele>
        <time>2015-07-25T16:26:06Z</time>
      </trkpt>
      <trkpt lat="42.2289" lon="8.20424">
        <ele>-7.072509765625</ele>
        <time>2015-07-25T16:26:19Z</time>
      </trkpt>
      <trkpt lat="42.22863" lon="8.20459">
        <ele>-7.072509765625</ele>
        <time>2015-07-25T16:26:31Z</time>
      </trkpt>
      <trkpt lat="42.22829" lon="8.20491">
        <ele>-8.033935546875</ele>
        <time>2015-07-25T16:26:46Z</time>
      </trkpt>
      <trkpt lat="42.22795" lon="8.20533">
        <ele>-5.6304931640625</ele>
        <time>2015-07-25T16:27:01Z</time>
      </trkpt>
      <trkpt lat="42.22761" lon="8.20567">
        <ele>-7.072509765625</ele>
        <time>2015-07-25T16:27:16Z</time>
      </trkpt>
      <trkpt lat="42.22735" lon="8.20594">
        <ele>-7.5531005859375</ele>
        <time>2015-07-25T16:27:28Z</time>
      </trkpt>
      <trkpt lat="42.22697" lon="8.20637">
        <ele>-8.5146484375</ele>
        <time>2015-07-25T16:27:47Z</time>
      </trkpt>
      <trkpt lat="42.22668" lon="8.2069">
        <ele>-8.033935546875</ele>
        <time>2015-07-25T16:28:06Z</time>
      </trkpt>
      <trkpt lat="42.2264" lon="8.20715">
        <ele>-7.072509765625</ele>
        <time>2015-07-25T16:28:19Z</time>
      </trkpt>
      <trkpt lat="42.22612" lon="8.20747">
        <ele>-6.1112060546875</ele>
        <time>2015-07-25T16:28:32Z</time>
      </trkpt>
      <trkpt lat="42.22586" lon="8.20773">
        <ele>-7.072509765625</ele>
        <time>2015-07-25T16:28:44Z</time>
      </trkpt>
      <trkpt lat="42.22558" lon="8.2081">
        <ele>-7.072509765625</ele>
        <time>2015-07-25T16:28:59Z</time>
      </trkpt>
      <trkpt lat="42.22528" lon="8.20844">
        <ele>-7.5531005859375</ele>
        <time>2015-07-25T16:29:13Z</time>
      </trkpt>
      <trkpt lat="42.22502" lon="8.20872">
        <ele>-8.033935546875</ele>
        <time>2015-07-25T16:29:26Z</time>
      </trkpt>
      <trkpt lat="42.22462" lon="8.20925">
        <ele>-6.5919189453125</ele>
        <time>2015-07-25T16:29:46Z</time>
      </trkpt>
      <trkpt lat="42.22418" lon="8.20975">
        <ele>-6.5919189453125</ele>
        <time>2015-07-25T16:30:06Z</time>
      </trkpt>
      <trkpt lat="42.22386" lon="8.21009">
        <ele>-6.5919189453125</ele>
        <time>2015-07-25T16:30:19Z</time>
      </trkpt>
      <trkpt lat="42.22358" lon="8.21042">
        <ele>-8.033935546875</ele>
        <time>2015-07-25T16:30:32Z</time>
      </trkpt>
      <trkpt lat="42.2233" lon="8.2109">
        <ele>-6.1112060546875</ele>
        <time>2015-07-25T16:30:48Z</time>
      </trkpt>
      <trkpt lat="42.22287" lon="8.21122">
        <ele>-7.5531005859375</ele>
        <time>2015-07-25T16:31:04Z</time>
      </trkpt>
      <trkpt lat="42.22256" lon="8.21154">
        <ele>-7.072509765625</ele>
        <time>2015-07-25T16:31:16Z</time>
      </trkpt>
      <trkpt lat="42.2222" lon="8.21187">
        <ele>-6.1112060546875</ele>
        <time>2015-07-25T16:31:29Z</time>
      </trkpt>
      <trkpt lat="42.22187" lon="8.21215">
        <ele>-7.072509765625</ele>
        <time>2015-07-25T16:31:42Z</time>
      </trkpt>
      <trkpt lat="42.22157" lon="8.21244">
        <ele>-7.5531005859375</ele>
        <time>2015-07-25T16:31:54Z</time>
      </trkpt>
      <trkpt lat="42.22122" lon="8.21284">
        <ele>-7.072509765625</ele>
        <time>2015-07-25T16:32:09Z</time>
      </trkpt>
      <trkpt lat="42.22083" lon="8.21323">
        <ele>-7.072509765625</ele>
        <time>2015-07-25T16:32:25Z</time>
      </trkpt>
      <trkpt lat="42.22046" lon="8.21363">
        <ele>-8.033935546875</ele>
        <time>2015-07-25T16:32:41Z</time>
      </trkpt>
      <trkpt lat="42.22005" lon="8.2141">
        <ele>-6.5919189453125</ele>
        <time>2015-07-25T16:33:00Z</time>
      </trkpt>
      <trkpt lat="42.21978" lon="8.21441">
        <ele>-7.072509765625</ele>
        <time>2015-07-25T16:33:12Z</time>
      </trkpt>
      <trkpt lat="42.21948" lon="8.2147">
        <ele>-7.5531005859375</ele>
        <time>2015-07-25T16:33:26Z</time>
      </trkpt>
      <trkpt lat="42.21921" lon="8.21498">
        <ele>-6.1112060546875</ele>
        <time>2015-07-25T16:33:37Z</time>
      </trkpt>
      <trkpt lat="42.21874" lon="8.21535">
        <ele>-8.033935546875</ele>
        <time>2015-07-25T16:33:58Z</time>
      </trkpt>
      <trkpt lat="42.21841" lon="8.2157">
        <ele>-5.6304931640625</ele>
        <time>2015-07-25T16:34:12Z</time>
      </trkpt>
      <trkpt lat="42.21805" lon="8.21606">
        <ele>-7.072509765625</ele>
        <time>2015-07-25T16:34:30Z</time>
      </trkpt>
      <trkpt lat="42.21768" lon="8.21641">
        <ele>-7.5531005859375</ele>
        <time>2015-07-25T16:34:46Z</time>
      </trkpt>
      <trkpt lat="42.21731" lon="8.21685">
        <ele>-6.5919189453125</ele>
        <time>2015-07-25T16:35:05Z</time>
      </trkpt>
      <trkpt lat="42.21706" lon="8.21725">
        <ele>-6.5919189453125</ele>
        <time>2015-07-25T16:35:19Z</time>
      </trkpt>
      <trkpt lat="42.21664" lon="8.21778">
        <ele>-7.072509765625</ele>
        <time>2015-07-25T16:35:40Z</time>
      </trkpt>
      <trkpt lat="42.21637" lon="8.21806">
        <ele>-7.072509765625</ele>
        <time>2015-07-25T16:35:52Z</time>
      </trkpt>
      <trkpt lat="42.21582" lon="8.21858">
        <ele>-7.072509765625</ele>
        <time>2015-07-25T16:36:16Z</time>
      </trkpt>
      <trkpt lat="42.21555" lon="8.21887">
        <ele>-7.5531005859375</ele>
        <time>2015-07-25T16:36:29Z</time>
      </trkpt>
      <trkpt lat="42.21532" lon="8.21918">
        <ele>-7.072509765625</ele>
        <time>2015-07-25T16:36:41Z</time>
      </trkpt>
      <trkpt lat="42.21495" lon="8.21962">
        <ele>-7.5531005859375</ele>
        <time>2015-07-25T16:36:58Z</time>
      </trkpt>
      <trkpt lat="42.21469" lon="8.21994">
        <ele>-6.5919189453125</ele>
        <time>2015-07-25T16:37:10Z</time>
      </trkpt>
      <trkpt lat="42.21431" lon="8.22022">
        <ele>-7.072509765625</ele>
        <time>2015-07-25T16:37:25Z</time>
      </trkpt>
      <trkpt lat="42.21381" lon="8.22066">
        <ele>-7.072509765625</ele>
        <time>2015-07-25T16:37:47Z</time>
      </trkpt>
      <trkpt lat="42.2135" lon="8.22099">
        <ele>-7.5531005859375</ele>
        <time>2015-07-25T16:38:01Z</time>
      </trkpt>
      <trkpt lat="42.21323" lon="8.22132">
        <ele>-5.6304931640625</ele>
        <time>2015-07-25T16:38:14Z</time>
      </trkpt>
      <trkpt lat="42.21292" lon="8.22153">
        <ele>-6.1112060546875</ele>
        <time>2015-07-25T16:38:27Z</time>
      </trkpt>
      <trkpt lat="42.2126" lon="8.22181">
        <ele>-8.033935546875</ele>
        <time>2015-07-25T16:38:41Z</time>
      </trkpt>
      <trkpt lat="42.21219" lon="8.22231">
        <ele>-6.5919189453125</ele>
        <time>2015-07-25T16:39:01Z</time>
      </trkpt>
      <trkpt lat="42.21186" lon="8.22259">
        <ele>-7.072509765625</ele>
        <time>2015-07-25T16:39:16Z</time>
      </trkpt>
      <trkpt lat="42.21162" lon="8.22299">
        <ele>-6.1112060546875</ele>
        <time>2015-07-25T16:39:29Z</time>
      </trkpt>
      <trkpt lat="42.21128" lon="8.22355">
        <ele>-6.1112060546875</ele>
        <time>2015-07-25T16:39:51Z</time>
      </trkpt>
      <trkpt lat="42.21082" lon="8.22399">
        <ele>-6.1112060546875</ele>
        <time>2015-07-25T16:40:13Z</time>
      </trkpt>
      <trkpt lat="42.21037" lon="8.2244">
        <ele>-7.5531005859375</ele>
        <time>2015-07-25T16:40:32Z</time>
      </trkpt>
      <trkpt lat="42.20989" lon="8.22488">
        <ele>-7.072509765625</ele>
        <time>2015-07-25T16:40:52Z</time>
      </trkpt>
      <trkpt lat="42.20956" lon="8.22525">
        <ele>-6.1112060546875</ele>
        <time>2015-07-25T16:41:07Z</time>
      </trkpt>
      <trkpt lat="42.20921" lon="8.22566">
        <ele>-6.1112060546875</ele>
        <time>2015-07-25T16:41:23Z</time>
      </trkpt>
      <trkpt lat="42.20893" lon="8.22593">
        <ele>-7.072509765625</ele>
        <time>2015-07-25T16:41:36Z</time>
      </trkpt>
      <trkpt lat="42.20851" lon="8.22632">
        <ele>-6.5919189453125</ele>
        <time>2015-07-25T16:41:55Z</time>
      </trkpt>
      <trkpt lat="42.20825" lon="8.22665">
        <ele>-8.033935546875</ele>
        <time>2015-07-25T16:42:09Z</time>
      </trkpt>
      <trkpt lat="42.20801" lon="8.22709">
        <ele>-7.072509765625</ele>
        <time>2015-07-25T16:42:25Z</time>
      </trkpt>
      <trkpt lat="42.20777" lon="8.22752">
        <ele>-7.072509765625</ele>
        <time>2015-07-25T16:42:41Z</time>
      </trkpt>
      <trkpt lat="42.20755" lon="8.22787">
        <ele>-6.5919189453125</ele>
        <time>2015-07-25T16:42:55Z</time>
      </trkpt>
      <trkpt lat="42.20741" lon="8.22844">
        <ele>-7.5531005859375</ele>
        <time>2015-07-25T16:43:18Z</time>
      </trkpt>
      <trkpt lat="42.20716" lon="8.22875">
        <ele>-6.5919189453125</ele>
        <time>2015-07-25T16:43:34Z</time>
      </trkpt>
      <trkpt lat="42.20689" lon="8.22897">
        <ele>-6.5919189453125</ele>
        <time>2015-07-25T16:43:46Z</time>
      </trkpt>
      <trkpt lat="42.20657" lon="8.22931">
        <ele>-7.072509765625</ele>
        <time>2015-07-25T16:44:03Z</time>
      </trkpt>
      <trkpt lat="42.2063" lon="8.22976">
        <ele>-8.033935546875</ele>
        <time>2015-07-25T16:44:21Z</time>
      </trkpt>
      <trkpt lat="42.20596" lon="8.23009">
        <ele>-7.072509765625</ele>
        <time>2015-07-25T16:44:38Z</time>
      </trkpt>
      <trkpt lat="42.20559" lon="8.23018">
        <ele>-6.5919189453125</ele>
        <time>2015-07-25T16:44:57Z</time>
      </trkpt>
      <trkpt lat="42.20523" lon="8.23016">
        <ele>-5.14990234375</ele>
        <time>2015-07-25T16:45:17Z</time>
      </trkpt>
      <trkpt lat="42.20487" lon="8.23022">
        <ele>-6.5919189453125</ele>
        <time>2015-07-25T16:45:35Z</time>
      </trkpt>
      <trkpt lat="42.20445" lon="8.23045">
        <ele>-6.5919189453125</ele>
        <time>2015-07-25T16:45:57Z</time>
      </trkpt>
      <trkpt lat="42.20416" lon="8.23036">
        <ele>-7.072509765625</ele>
        <time>2015-07-25T16:46:28Z</time>
      </trkpt>
      <trkpt lat="42.20379" lon="8.23038">
        <ele>-7.072509765625</ele>
        <time>2015-07-25T16:46:54Z</time>
      </trkpt>
      <trkpt lat="42.20346" lon="8.23044">
        <ele>-6.5919189453125</ele>
        <time>2015-07-25T16:47:12Z</time>
      </trkpt>
      <trkpt lat="42.20314" lon="8.23041">
        <ele>-6.5919189453125</ele>
        <time>2015-07-25T16:47:29Z</time>
      </trkpt>
      <trkpt lat="42.20283" lon="8.23037">
        <ele>-5.6304931640625</ele>
        <time>2015-07-25T16:47:49Z</time>
      </trkpt>
      <trkpt lat="42.20248" lon="8.23029">
        <ele>-6.1112060546875</ele>
        <time>2015-07-25T16:48:12Z</time>
      </trkpt>
      <trkpt lat="42.202" lon="8.2306">
        <ele>-6.1112060546875</ele>
        <time>2015-07-25T16:48:42Z</time>
      </trkpt>
      <trkpt lat="42.20167" lon="8.23095">
        <ele>-7.5531005859375</ele>
        <time>2015-07-25T16:48:57Z</time>
      </trkpt>
      <trkpt lat="42.20137" lon="8.23144">
        <ele>-7.072509765625</ele>
        <time>2015-07-25T16:49:13Z</time>
      </trkpt>
      <trkpt lat="42.20121" lon="8.23185">
        <ele>-7.5531005859375</ele>
        <time>2015-07-25T16:49:27Z</time>
      </trkpt>
      <trkpt lat="42.20088" lon="8.23239">
        <ele>-7.072509765625</ele>
        <time>2015-07-25T16:49:49Z</time>
      </trkpt>
      <trkpt lat="42.2006" lon="8.23295">
        <ele>-7.072509765625</ele>
        <time>2015-07-25T16:50:09Z</time>
      </trkpt>
      <trkpt lat="42.20037" lon="8.23337">
        <ele>-8.5146484375</ele>
        <time>2015-07-25T16:50:25Z</time>
      </trkpt>
      <trkpt lat="42.20013" lon="8.23385">
        <ele>-7.5531005859375</ele>
        <time>2015-07-25T16:50:42Z</time>
      </trkpt>
      <trkpt lat="42.1999" lon="8.23423">
        <ele>-8.9952392578125</ele>
        <time>2015-07-25T16:50:57Z</time>
      </trkpt>
      <trkpt lat="42.19961" lon="8.23463">
        <ele>-8.9952392578125</ele>
        <time>2015-07-25T16:51:15Z</time>
      </trkpt>
      <trkpt lat="42.19929" lon="8.23501">
        <ele>-7.072509765625</ele>
        <time>2015-07-25T16:51:30Z</time>
      </trkpt>
      <trkpt lat="42.19902" lon="8.23542">
        <ele>-8.5146484375</ele>
        <time>2015-07-25T16:51:46Z</time>
      </trkpt>
      <trkpt lat="42.19864" lon="8.23612">
        <ele>-7.5531005859375</ele>
        <time>2015-07-25T16:52:11Z</time>
      </trkpt>
      <trkpt lat="42.19833" lon="8.23679">
        <ele>-8.033935546875</ele>
        <time>2015-07-25T16:52:36Z</time>
      </trkpt>
      <trkpt lat="42.19809" lon="8.23719">
        <ele>-6.1112060546875</ele>
        <time>2015-07-25T16:52:51Z</time>
      </trkpt>
      <trkpt lat="42.19772" lon="8.23759">
        <ele>-7.072509765625</ele>
        <time>2015-07-25T16:53:11Z</time>
      </trkpt>
      <trkpt lat="42.19741" lon="8.2379">
        <ele>-8.033935546875</ele>
        <time>2015-07-25T16:53:25Z</time>
      </trkpt>
      <trkpt lat="42.19716" lon="8.23823">
        <ele>-6.1112060546875</ele>
        <time>2015-07-25T16:53:37Z</time>
      </trkpt>
      <trkpt lat="42.19685" lon="8.2386">
        <ele>-7.072509765625</ele>
        <time>2015-07-25T16:53:51Z</time>
      </trkpt>
      <trkpt lat="42.19643" lon="8.23906">
        <ele>-8.033935546875</ele>
        <time>2015-07-25T16:54:11Z</time>
      </trkpt>
      <trkpt lat="42.19617" lon="8.23939">
        <ele>-7.5531005859375</ele>
        <time>2015-07-25T16:54:24Z</time>
      </trkpt>
      <trkpt lat="42.19595" lon="8.23977">
        <ele>-6.5919189453125</ele>
        <time>2015-07-25T16:54:36Z</time>
      </trkpt>
      <trkpt lat="42.19563" lon="8.2402">
        <ele>-7.5531005859375</ele>
        <time>2015-07-25T16:54:53Z</time>
      </trkpt>
      <trkpt lat="42.19541" lon="8.24057">
        <ele>-7.5531005859375</ele>
        <time>2015-07-25T16:55:05Z</time>
      </trkpt>
      <trkpt lat="42.19483" lon="8.2413">
        <ele>-7.5531005859375</ele>
        <time>2015-07-25T16:55:31Z</time>
      </trkpt>
      <trkpt lat="42.1945" lon="8.24159">
        <ele>-7.072509765625</ele>
        <time>2015-07-25T16:55:43Z</time>
      </trkpt>
      <trkpt lat="42.19412" lon="8.24195">
        <ele>-8.033935546875</ele>
        <time>2015-07-25T16:55:58Z</time>
      </trkpt>
      <trkpt lat="42.19373" lon="8.24237">
        <ele>-7.5531005859375</ele>
        <time>2015-07-25T16:56:16Z</time>
      </trkpt>
      <trkpt lat="42.19338" lon="8.24276">
        <ele>-6.1112060546875</ele>
        <time>2015-07-25T16:56:31Z</time>
      </trkpt>
      <trkpt lat="42.19307" lon="8.24303">
        <ele>-8.033935546875</ele>
        <time>2015-07-25T16:56:43Z</time>
      </trkpt>
      <trkpt lat="42.19271" lon="8.24356">
        <ele>-6.1112060546875</ele>
        <time>2015-07-25T16:57:03Z</time>
      </trkpt>
      <trkpt lat="42.1923" lon="8.24384">
        <ele>-8.033935546875</ele>
        <time>2015-07-25T16:57:20Z</time>
      </trkpt>
      <trkpt lat="42.19198" lon="8.24417">
        <ele>-7.072509765625</ele>
        <time>2015-07-25T16:57:34Z</time>
      </trkpt>
      <trkpt lat="42.1917" lon="8.24453">
        <ele>-7.072509765625</ele>
        <time>2015-07-25T16:57:47Z</time>
      </trkpt>
      <trkpt lat="42.19126" lon="8.24503">
        <ele>-6.5919189453125</ele>
        <time>2015-07-25T16:58:08Z</time>
      </trkpt>
      <trkpt lat="42.19098" lon="8.24536">
        <ele>-8.033935546875</ele>
        <time>2015-07-25T16:58:21Z</time>
      </trkpt>
      <trkpt lat="42.19067" lon="8.24573">
        <ele>-6.5919189453125</ele>
        <time>2015-07-25T16:58:37Z</time>
      </trkpt>
      <trkpt lat="42.19038" lon="8.24618">
        <ele>-8.5146484375</ele>
        <time>2015-07-25T16:58:54Z</time>
      </trkpt>
      <trkpt lat="42.19009" lon="8.24663">
        <ele>-8.033935546875</ele>
        <time>2015-07-25T16:59:11Z</time>
      </trkpt>
      <trkpt lat="42.18978" lon="8.24708">
        <ele>-6.5919189453125</ele>
        <time>2015-07-25T16:59:28Z</time>
      </trkpt>
      <trkpt lat="42.18948" lon="8.24771">
        <ele>-7.072509765625</ele>
        <time>2015-07-25T16:59:49Z</time>
      </trkpt>
      <trkpt lat="42.18912" lon="8.24813">
        <ele>-7.072509765625</ele>
        <time>2015-07-25T17:00:06Z</time>
      </trkpt>
      <trkpt lat="42.18875" lon="8.24861">
        <ele>-6.5919189453125</ele>
        <time>2015-07-25T17:00:23Z</time>
      </trkpt>
      <trkpt lat="42.18849" lon="8.24912">
        <ele>-5.6304931640625</ele>
        <time>2015-07-25T17:00:40Z</time>
      </trkpt>
      <trkpt lat="42.18819" lon="8.24936">
        <ele>-8.033935546875</ele>
        <time>2015-07-25T17:00:52Z</time>
      </trkpt>
      <trkpt lat="42.18791" lon="8.24967">
        <ele>-6.5919189453125</ele>
        <time>2015-07-25T17:01:04Z</time>
      </trkpt>
      <trkpt lat="42.18759" lon="8.2501">
        <ele>-6.1112060546875</ele>
        <time>2015-07-25T17:01:20Z</time>
      </trkpt>
      <trkpt lat="42.18729" lon="8.25051">
        <ele>-8.033935546875</ele>
        <time>2015-07-25T17:01:35Z</time>
      </trkpt>
      <trkpt lat="42.18701" lon="8.25097">
        <ele>-7.072509765625</ele>
        <time>2015-07-25T17:01:52Z</time>
      </trkpt>
      <trkpt lat="42.18672" lon="8.25156">
        <ele>-6.5919189453125</ele>
        <time>2015-07-25T17:02:15Z</time>
      </trkpt>
      <trkpt lat="42.1865" lon="8.25186">
        <ele>-8.033935546875</ele>
        <time>2015-07-25T17:02:29Z</time>
      </trkpt>
      <trkpt lat="42.18619" lon="8.25238">
        <ele>-8.033935546875</ele>
        <time>2015-07-25T17:02:51Z</time>
      </trkpt>
      <trkpt lat="42.18588" lon="8.25282">
        <ele>-7.5531005859375</ele>
        <time>2015-07-25T17:03:11Z</time>
      </trkpt>
      <trkpt lat="42.18566" lon="8.25316">
        <ele>-8.033935546875</ele>
        <time>2015-07-25T17:03:25Z</time>
      </trkpt>
      <trkpt lat="42.18528" lon="8.25374">
        <ele>-7.072509765625</ele>
        <time>2015-07-25T17:03:49Z</time>
      </trkpt>
      <trkpt lat="42.18495" lon="8.25429">
        <ele>-7.5531005859375</ele>
        <time>2015-07-25T17:04:12Z</time>
      </trkpt>
      <trkpt lat="42.18469" lon="8.25461">
        <ele>-7.072509765625</ele>
        <time>2015-07-25T17:04:27Z</time>
      </trkpt>
      <trkpt lat="42.18431" lon="8.25501">
        <ele>-7.5531005859375</ele>
        <time>2015-07-25T17:04:46Z</time>
      </trkpt>
      <trkpt lat="42.18397" lon="8.2553">
        <ele>-7.072509765625</ele>
        <time>2015-07-25T17:05:03Z</time>
      </trkpt>
      <trkpt lat="42.18365" lon="8.25556">
        <ele>-7.5531005859375</ele>
        <time>2015-07-25T17:05:18Z</time>
      </trkpt>
      <trkpt lat="42.18336" lon="8.25582">
        <ele>-7.072509765625</ele>
        <time>2015-07-25T17:05:32Z</time>
      </trkpt>
      <trkpt lat="42.18301" lon="8.25607">
        <ele>-6.5919189453125</ele>
        <time>2015-07-25T17:05:47Z</time>
      </trkpt>
      <trkpt lat="42.18271" lon="8.25628">
        <ele>-7.5531005859375</ele>
        <time>2015-07-25T17:05:59Z</time>
      </trkpt>
      <trkpt lat="42.18237" lon="8.25667">
        <ele>-7.5531005859375</ele>
        <time>2015-07-25T17:06:17Z</time>
      </trkpt>
      <trkpt lat="42.18205" lon="8.25705">
        <ele>-7.072509765625</ele>
        <time>2015-07-25T17:06:35Z</time>
      </trkpt>
      <trkpt lat="42.18178" lon="8.25741">
        <ele>-6.5919189453125</ele>
        <time>2015-07-25T17:06:53Z</time>
      </trkpt>
      <trkpt lat="42.18151" lon="8.25772">
        <ele>-7.072509765625</ele>
        <time>2015-07-25T17:07:09Z</time>
      </trkpt>
      <trkpt lat="42.18123" lon="8.25791">
        <ele>-8.033935546875</ele>
        <time>2015-07-25T17:07:22Z</time>
      </trkpt>
      <trkpt lat="42.181" lon="8.25837">
        <ele>-8.033935546875</ele>
        <time>2015-07-25T17:07:39Z</time>
      </trkpt>
      <trkpt lat="42.1809" lon="8.2588">
        <ele>-7.072509765625</ele>
        <time>2015-07-25T17:07:55Z</time>
      </trkpt>
      <trkpt lat="42.18062" lon="8.25901">
        <ele>-6.1112060546875</ele>
        <time>2015-07-25T17:08:07Z</time>
      </trkpt>
      <trkpt lat="42.18023" lon="8.25936">
        <ele>-7.5531005859375</ele>
        <time>2015-07-25T17:08:24Z</time>
      </trkpt>
      <trkpt lat="42.18005" lon="8.25969">
        <ele>-7.072509765625</ele>
        <time>2015-07-25T17:08:35Z</time>
      </trkpt>
      <trkpt lat="42.17974" lon="8.2601">
        <ele>-6.5919189453125</ele>
        <time>2015-07-25T17:08:51Z</time>
      </trkpt>
      <trkpt lat="42.17939" lon="8.26036">
        <ele>-5.6304931640625</ele>
        <time>2015-07-25T17:09:04Z</time>
      </trkpt>
      <trkpt lat="42.17896" lon="8.26072">
        <ele>-5.6304931640625</ele>
        <time>2015-07-25T17:09:22Z</time>
      </trkpt>
      <trkpt lat="42.17845" lon="8.26118">
        <ele>-6.5919189453125</ele>
        <time>2015-07-25T17:09:42Z</time>
      </trkpt>
      <trkpt lat="42.1782" lon="8.26149">
        <ele>-6.5919189453125</ele>
        <time>2015-07-25T17:09:54Z</time>
      </trkpt>
      <trkpt lat="42.17788" lon="8.26182">
        <ele>-6.1112060546875</ele>
        <time>2015-07-25T17:10:09Z</time>
      </trkpt>
      <trkpt lat="42.17758" lon="8.26231">
        <ele>-7.5531005859375</ele>
        <time>2015-07-25T17:10:26Z</time>
      </trkpt>
      <trkpt lat="42.1774" lon="8.26266">
        <ele>-8.033935546875</ele>
        <time>2015-07-25T17:10:38Z</time>
      </trkpt>
      <trkpt lat="42.17715" lon="8.26293">
        <ele>-6.5919189453125</ele>
        <time>2015-07-25T17:10:50Z</time>
      </trkpt>
      <trkpt lat="42.17689" lon="8.26325">
        <ele>-6.5919189453125</ele>
        <time>2015-07-25T17:11:02Z</time>
      </trkpt>
      <trkpt lat="42.17666" lon="8.26357">
        <ele>-8.033935546875</ele>
        <time>2015-07-25T17:11:14Z</time>
      </trkpt>
      <trkpt lat="42.17643" lon="8.26388">
        <ele>-7.072509765625</ele>
        <time>2015-07-25T17:11:26Z</time>
      </trkpt>
      <trkpt lat="42.1761" lon="8.2643">
        <ele>-6.1112060546875</ele>
        <time>2015-07-25T17:11:43Z</time>
      </trkpt>
      <trkpt lat="42.17584" lon="8.26474">
        <ele>-8.033935546875</ele>
        <time>2015-07-25T17:11:59Z</time>
      </trkpt>
      <trkpt lat="42.17559" lon="8.26513">
        <ele>-5.6304931640625</ele>
        <time>2015-07-25T17:12:13Z</time>
      </trkpt>
      <trkpt lat="42.17519" lon="8.26547">
        <ele>-7.072509765625</ele>
        <time>2015-07-25T17:12:31Z</time>
      </trkpt>
      <trkpt lat="42.17495" lon="8.26586">
        <ele>-6.1112060546875</ele>
        <time>2015-07-25T17:12:45Z</time>
      </trkpt>
      <trkpt lat="42.17462" lon="8.2663">
        <ele>-6.5919189453125</ele>
        <time>2015-07-25T17:13:02Z</time>
      </trkpt>
      <trkpt lat="42.17429" lon="8.2668">
        <ele>-6.5919189453125</ele>
        <time>2015-07-25T17:13:20Z</time>
      </trkpt>
      <trkpt lat="42.17409" lon="8.26727">
        <ele>-7.072509765625</ele>
        <time>2015-07-25T17:13:37Z</time>
      </trkpt>
      <trkpt lat="42.17386" lon="8.26756">
        <ele>-6.5919189453125</ele>
        <time>2015-07-25T17:13:50Z</time>
      </trkpt>
      <trkpt lat="42.17363" lon="8.26807">
        <ele>-7.072509765625</ele>
        <time>2015-07-25T17:14:07Z</time>
      </trkpt>
      <trkpt lat="42.17318" lon="8.26868">
        <ele>-7.072509765625</ele>
        <time>2015-07-25T17:14:34Z</time>
      </trkpt>
      <trkpt lat="42.1729" lon="8.26893">
        <ele>-6.1112060546875</ele>
        <time>2015-07-25T17:14:47Z</time>
      </trkpt>
      <trkpt lat="42.17255" lon="8.26937">
        <ele>-8.033935546875</ele>
        <time>2015-07-25T17:15:06Z</time>
      </trkpt>
      <trkpt lat="42.17228" lon="8.26978">
        <ele>-6.1112060546875</ele>
        <time>2015-07-25T17:15:23Z</time>
      </trkpt>
      <trkpt lat="42.17205" lon="8.27007">
        <ele>-8.033935546875</ele>
        <time>2015-07-25T17:15:37Z</time>
      </trkpt>
      <trkpt lat="42.17174" lon="8.27047">
        <ele>-6.5919189453125</ele>
        <time>2015-07-25T17:15:54Z</time>
      </trkpt>
      <trkpt lat="42.17145" lon="8.27098">
        <ele>-6.5919189453125</ele>
        <time>2015-07-25T17:16:13Z</time>
      </trkpt>
      <trkpt lat="42.17126" lon="8.27132">
        <ele>-7.5531005859375</ele>
        <time>2015-07-25T17:16:28Z</time>
      </trkpt>
      <trkpt lat="42.171" lon="8.27169">
        <ele>-8.033935546875</ele>
        <time>2015-07-25T17:16:44Z</time>
      </trkpt>
      <trkpt lat="42.17075" lon="8.27203">
        <ele>-7.072509765625</ele>
        <time>2015-07-25T17:17:00Z</time>
      </trkpt>
      <trkpt lat="42.17037" lon="8.27217">
        <ele>-7.072509765625</ele>
        <time>2015-07-25T17:17:17Z</time>
      </trkpt>
      <trkpt lat="42.17006" lon="8.27238">
        <ele>-6.1112060546875</ele>
        <time>2015-07-25T17:17:30Z</time>
      </trkpt>
      <trkpt lat="42.16976" lon="8.27267">
        <ele>-5.6304931640625</ele>
        <time>2015-07-25T17:17:43Z</time>
      </trkpt>
      <trkpt lat="42.1694" lon="8.27296">
        <ele>-7.072509765625</ele>
        <time>2015-07-25T17:17:57Z</time>
      </trkpt>
      <trkpt lat="42.16905" lon="8.27315">
        <ele>-7.5531005859375</ele>
        <time>2015-07-25T17:18:11Z</time>
      </trkpt>
      <trkpt lat="42.16876" lon="8.27334">
        <ele>-6.5919189453125</ele>
        <time>2015-07-25T17:18:23Z</time>
      </trkpt>
      <trkpt lat="42.16832" lon="8.27388">
        <ele>-6.5919189453125</ele>
        <time>2015-07-25T17:18:48Z</time>
      </trkpt>
      <trkpt lat="42.16776" lon="8.27423">
        <ele>-6.5919189453125</ele>
        <time>2015-07-25T17:19:12Z</time>
      </trkpt>
      <trkpt lat="42.16748" lon="8.27453">
        <ele>-6.1112060546875</ele>
        <time>2015-07-25T17:19:26Z</time>
      </trkpt>
      <trkpt lat="42.16725" lon="8.2749">
        <ele>-7.5531005859375</ele>
        <time>2015-07-25T17:19:41Z</time>
      </trkpt>
      <trkpt lat="42.16688" lon="8.2752">
        <ele>-5.6304931640625</ele>
        <time>2015-07-25T17:19:58Z</time>
      </trkpt>
      <trkpt lat="42.16636" lon="8.27556">
        <ele>-5.6304931640625</ele>
        <time>2015-07-25T17:20:21Z</time>
      </trkpt>
      <trkpt lat="42.16604" lon="8.27572">
        <ele>-8.033935546875</ele>
        <time>2015-07-25T17:20:35Z</time>
      </trkpt>
      <trkpt lat="42.16551" lon="8.2763">
        <ele>-6.1112060546875</ele>
        <time>2015-07-25T17:21:00Z</time>
      </trkpt>
      <trkpt lat="42.16516" lon="8.27668">
        <ele>-7.072509765625</ele>
        <time>2015-07-25T17:21:16Z</time>
      </trkpt>
      <trkpt lat="42.16455" lon="8.27709">
        <ele>-7.072509765625</ele>
        <time>2015-07-25T17:21:41Z</time>
      </trkpt>
      <trkpt lat="42.16415" lon="8.2774">
        <ele>-7.072509765625</ele>
        <time>2015-07-25T17:21:59Z</time>
      </trkpt>
      <trkpt lat="42.16384" lon="8.27777">
        <ele>-7.5531005859375</ele>
        <time>2015-07-25T17:22:16Z</time>
      </trkpt>
      <trkpt lat="42.16348" lon="8.27802">
        <ele>-6.5919189453125</ele>
        <time>2015-07-25T17:22:32Z</time>
      </trkpt>
      <trkpt lat="42.16304" lon="8.27816">
        <ele>-6.5919189453125</ele>
        <time>2015-07-25T17:22:50Z</time>
      </trkpt>
      <trkpt lat="42.16268" lon="8.27843">
        <ele>-7.072509765625</ele>
        <time>2015-07-25T17:23:07Z</time>
      </trkpt>
      <trkpt lat="42.16232" lon="8.27854">
        <ele>-6.5919189453125</ele>
        <time>2015-07-25T17:23:21Z</time>
      </trkpt>
      <trkpt lat="42.16195" lon="8.2787">
        <ele>-6.1112060546875</ele>
        <time>2015-07-25T17:23:37Z</time>
      </trkpt>
      <trkpt lat="42.16167" lon="8.27894">
        <ele>-7.072509765625</ele>
        <time>2015-07-25T17:23:50Z</time>
      </trkpt>
      <trkpt lat="42.16128" lon="8.27934">
        <ele>-6.5919189453125</ele>
        <time>2015-07-25T17:24:09Z</time>
      </trkpt>
      <trkpt lat="42.16092" lon="8.27966">
        <ele>-5.6304931640625</ele>
        <time>2015-07-25T17:24:25Z</time>
      </trkpt>
      <trkpt lat="42.16059" lon="8.27976">
        <ele>-7.072509765625</ele>
        <time>2015-07-25T17:24:38Z</time>
      </trkpt>
      <trkpt lat="42.16019" lon="8.28001">
        <ele>-6.5919189453125</ele>
        <time>2015-07-25T17:24:56Z</time>
      </trkpt>
      <trkpt lat="42.15991" lon="8.28032">
        <ele>-6.5919189453125</ele>
        <time>2015-07-25T17:25:10Z</time>
      </trkpt>
      <trkpt lat="42.15961" lon="8.28052">
        <ele>-6.5919189453125</ele>
        <time>2015-07-25T17:25:23Z</time>
      </trkpt>
      <trkpt lat="42.15921" lon="8.28072">
        <ele>-6.5919189453125</ele>
        <time>2015-07-25T17:25:40Z</time>
      </trkpt>
      <trkpt lat="42.15888" lon="8.2809">
        <ele>-7.072509765625</ele>
        <time>2015-07-25T17:25:54Z</time>
      </trkpt>
      <trkpt lat="42.15854" lon="8.28115">
        <ele>-6.1112060546875</ele>
        <time>2015-07-25T17:26:08Z</time>
      </trkpt>
      <trkpt lat="42.15822" lon="8.28143">
        <ele>-8.5146484375</ele>
        <time>2015-07-25T17:26:22Z</time>
      </trkpt>
      <trkpt lat="42.15794" lon="8.28168">
        <ele>-6.5919189453125</ele>
        <time>2015-07-25T17:26:34Z</time>
      </trkpt>
      <trkpt lat="42.15748" lon="8.28198">
        <ele>-7.072509765625</ele>
        <time>2015-07-25T17:26:53Z</time>
      </trkpt>
      <trkpt lat="42.15717" lon="8.28226">
        <ele>-7.072509765625</ele>
        <time>2015-07-25T17:27:07Z</time>
      </trkpt>
      <trkpt lat="42.15669" lon="8.28259">
        <ele>-6.5919189453125</ele>
        <time>2015-07-25T17:27:27Z</time>
      </trkpt>
      <trkpt lat="42.15624" lon="8.28282">
        <ele>-5.6304931640625</ele>
        <time>2015-07-25T17:27:45Z</time>
      </trkpt>
      <trkpt lat="42.15596" lon="8.28306">
        <ele>-7.072509765625</ele>
        <time>2015-07-25T17:27:56Z</time>
      </trkpt>
      <trkpt lat="42.15556" lon="8.28339">
        <ele>-5.14990234375</ele>
        <time>2015-07-25T17:28:13Z</time>
      </trkpt>
      <trkpt lat="42.15525" lon="8.28356">
        <ele>-7.072509765625</ele>
        <time>2015-07-25T17:28:25Z</time>
      </trkpt>
      <trkpt lat="42.15493" lon="8.28373">
        <ele>-6.5919189453125</ele>
        <time>2015-07-25T17:28:40Z</time>
      </trkpt>
      <trkpt lat="42.15446" lon="8.28404">
        <ele>-6.1112060546875</ele>
        <time>2015-07-25T17:29:00Z</time>
      </trkpt>
      <trkpt lat="42.15407" lon="8.28432">
        <ele>-6.5919189453125</ele>
        <time>2015-07-25T17:29:16Z</time>
      </trkpt>
      <trkpt lat="42.15384" lon="8.28464">
        <ele>-5.6304931640625</ele>
        <time>2015-07-25T17:29:28Z</time>
      </trkpt>
      <trkpt lat="42.15355" lon="8.28489">
        <ele>-6.1112060546875</ele>
        <time>2015-07-25T17:29:41Z</time>
      </trkpt>
      <trkpt lat="42.15323" lon="8.285">
        <ele>-6.5919189453125</ele>
        <time>2015-07-25T17:29:55Z</time>
      </trkpt>
      <trkpt lat="42.15288" lon="8.28518">
        <ele>-5.6304931640625</ele>
        <time>2015-07-25T17:30:10Z</time>
      </trkpt>
      <trkpt lat="42.15261" lon="8.28547">
        <ele>-6.1112060546875</ele>
        <time>2015-07-25T17:30:24Z</time>
      </trkpt>
      <trkpt lat="42.15232" lon="8.2857">
        <ele>-6.1112060546875</ele>
        <time>2015-07-25T17:30:36Z</time>
      </trkpt>
      <trkpt lat="42.15199" lon="8.28586">
        <ele>-4.6693115234375</ele>
        <time>2015-07-25T17:30:48Z</time>
      </trkpt>
      <trkpt lat="42.15149" lon="8.28624">
        <ele>-6.1112060546875</ele>
        <time>2015-07-25T17:31:09Z</time>
      </trkpt>
      <trkpt lat="42.15113" lon="8.28651">
        <ele>-5.6304931640625</ele>
        <time>2015-07-25T17:31:25Z</time>
      </trkpt>
      <trkpt lat="42.15059" lon="8.28678">
        <ele>-6.5919189453125</ele>
        <time>2015-07-25T17:31:48Z</time>
      </trkpt>
      <trkpt lat="42.15028" lon="8.28702">
        <ele>-4.1885986328125</ele>
        <time>2015-07-25T17:32:01Z</time>
      </trkpt>
      <trkpt lat="42.14999" lon="8.28742">
        <ele>-5.6304931640625</ele>
        <time>2015-07-25T17:32:17Z</time>
      </trkpt>
      <trkpt lat="42.1497" lon="8.28765">
        <ele>-5.14990234375</ele>
        <time>2015-07-25T17:32:30Z</time>
      </trkpt>
      <trkpt lat="42.1493" lon="8.28786">
        <ele>-4.1885986328125</ele>
        <time>2015-07-25T17:32:48Z</time>
      </trkpt>
      <trkpt lat="42.14901" lon="8.2881">
        <ele>-4.6693115234375</ele>
        <time>2015-07-25T17:33:03Z</time>
      </trkpt>
      <trkpt lat="42.14871" lon="8.28842">
        <ele>-5.6304931640625</ele>
        <time>2015-07-25T17:33:19Z</time>
      </trkpt>
      <trkpt lat="42.14813" lon="8.28884">
        <ele>-4.1885986328125</ele>
        <time>2015-07-25T17:33:44Z</time>
      </trkpt>
      <trkpt lat="42.14765" lon="8.28914">
        <ele>-4.6693115234375</ele>
        <time>2015-07-25T17:34:05Z</time>
      </trkpt>
      <trkpt lat="42.14728" lon="8.28951">
        <ele>-4.1885986328125</ele>
        <time>2015-07-25T17:34:22Z</time>
      </trkpt>
      <trkpt lat="42.14695" lon="8.28977">
        <ele>-4.6693115234375</ele>
        <time>2015-07-25T17:34:37Z</time>
      </trkpt>
      <trkpt lat="42.14667" lon="8.28998">
        <ele>-4.1885986328125</ele>
        <time>2015-07-25T17:34:48Z</time>
      </trkpt>
      <trkpt lat="42.14632" lon="8.29035">
        <ele>-5.14990234375</ele>
        <time>2015-07-25T17:35:05Z</time>
      </trkpt>
      <trkpt lat="42.14604" lon="8.29068">
        <ele>-4.1885986328125</ele>
        <time>2015-07-25T17:35:18Z</time>
      </trkpt>
      <trkpt lat="42.14577" lon="8.29089">
        <ele>-5.14990234375</ele>
        <time>2015-07-25T17:35:29Z</time>
      </trkpt>
      <trkpt lat="42.14528" lon="8.29116">
        <ele>-4.1885986328125</ele>
        <time>2015-07-25T17:35:48Z</time>
      </trkpt>
      <trkpt lat="42.14499" lon="8.29136">
        <ele>-4.1885986328125</ele>
        <time>2015-07-25T17:36:01Z</time>
      </trkpt>
      <trkpt lat="42.14471" lon="8.29155">
        <ele>-3.7078857421875</ele>
        <time>2015-07-25T17:36:13Z</time>
      </trkpt>
      <trkpt lat="42.1444" lon="8.29175">
        <ele>-5.6304931640625</ele>
        <time>2015-07-25T17:36:27Z</time>
      </trkpt>
      <trkpt lat="42.14396" lon="8.2921">
        <ele>-4.6693115234375</ele>
        <time>2015-07-25T17:36:45Z</time>
      </trkpt>
      <trkpt lat="42.14371" lon="8.29236">
        <ele>-4.1885986328125</ele>
        <time>2015-07-25T17:36:56Z</time>
      </trkpt>
      <trkpt lat="42.14327" lon="8.2927">
        <ele>-3.227294921875</ele>
        <time>2015-07-25T17:37:15Z</time>
      </trkpt>
      <trkpt lat="42.14292" lon="8.29288">
        <ele>-5.14990234375</ele>
        <time>2015-07-25T17:37:29Z</time>
      </trkpt>
      <trkpt lat="42.14237" lon="8.29315">
        <ele>-4.6693115234375</ele>
        <time>2015-07-25T17:37:52Z</time>
      </trkpt>
      <trkpt lat="42.14201" lon="8.29338">
        <ele>-5.6304931640625</ele>
        <time>2015-07-25T17:38:09Z</time>
      </trkpt>
      <trkpt lat="42.14152" lon="8.2938">
        <ele>-3.7078857421875</ele>
        <time>2015-07-25T17:38:33Z</time>
      </trkpt>
      <trkpt lat="42.14093" lon="8.29416">
        <ele>-4.1885986328125</ele>
        <time>2015-07-25T17:38:57Z</time>
      </trkpt>
      <trkpt lat="42.14044" lon="8.29447">
        <ele>-4.6693115234375</ele>
        <time>2015-07-25T17:39:19Z</time>
      </trkpt>
      <trkpt lat="42.1401" lon="8.2947">
        <ele>-2.7467041015625</ele>
        <time>2015-07-25T17:39:35Z</time>
      </trkpt>
      <trkpt lat="42.13975" lon="8.29493">
        <ele>-4.1885986328125</ele>
        <time>2015-07-25T17:39:50Z</time>
      </trkpt>
      <trkpt lat="42.13942" lon="8.29521">
        <ele>-3.7078857421875</ele>
        <time>2015-07-25T17:40:05Z</time>
      </trkpt>
      <trkpt lat="42.13917" lon="8.29549">
        <ele>-4.1885986328125</ele>
        <time>2015-07-25T17:40:18Z</time>
      </trkpt>
      <trkpt lat="42.13866" lon="8.29594">
        <ele>-4.1885986328125</ele>
        <time>2015-07-25T17:40:42Z</time>
      </trkpt>
      <trkpt lat="42.13838" lon="8.29616">
        <ele>-4.1885986328125</ele>
        <time>2015-07-25T17:40:54Z</time>
      </trkpt>
      <trkpt lat="42.13802" lon="8.29649">
        <ele>-4.6693115234375</ele>
        <time>2015-07-25T17:41:10Z</time>
      </trkpt>
      <trkpt lat="42.13772" lon="8.29682">
        <ele>-4.6693115234375</ele>
        <time>2015-07-25T17:41:24Z</time>
      </trkpt>
      <trkpt lat="42.13739" lon="8.297">
        <ele>-4.1885986328125</ele>
        <time>2015-07-25T17:41:36Z</time>
      </trkpt>
      <trkpt lat="42.13703" lon="8.29718">
        <ele>-4.6693115234375</ele>
        <time>2015-07-25T17:41:51Z</time>
      </trkpt>
      <trkpt lat="42.13657" lon="8.2975">
        <ele>-4.6693115234375</ele>
        <time>2015-07-25T17:42:09Z</time>
      </trkpt>
      <trkpt lat="42.13623" lon="8.2977">
        <ele>-4.1885986328125</ele>
        <time>2015-07-25T17:42:23Z</time>
      </trkpt>
      <trkpt lat="42.1357" lon="8.29804">
        <ele>-4.6693115234375</ele>
        <time>2015-07-25T17:42:44Z</time>
      </trkpt>
      <trkpt lat="42.1354" lon="8.29824">
        <ele>-4.1885986328125</ele>
        <time>2015-07-25T17:42:57Z</time>
      </trkpt>
      <trkpt lat="42.13509" lon="8.29847">
        <ele>-4.1885986328125</ele>
        <time>2015-07-25T17:43:11Z</time>
      </trkpt>
      <trkpt lat="42.13477" lon="8.29862">
        <ele>-2.2659912109375</ele>
        <time>2015-07-25T17:43:25Z</time>
      </trkpt>
      <trkpt lat="42.1344" lon="8.29883">
        <ele>-3.227294921875</ele>
        <time>2015-07-25T17:43:41Z</time>
      </trkpt>
      <trkpt lat="42.13382" lon="8.29924">
        <ele>-4.1885986328125</ele>
        <time>2015-07-25T17:44:07Z</time>
      </trkpt>
      <trkpt lat="42.13345" lon="8.29946">
        <ele>-3.7078857421875</ele>
        <time>2015-07-25T17:44:24Z</time>
      </trkpt>
      <trkpt lat="42.13308" lon="8.29968">
        <ele>-3.227294921875</ele>
        <time>2015-07-25T17:44:42Z</time>
      </trkpt>
      <trkpt lat="42.1327" lon="8.29997">
        <ele>-3.227294921875</ele>
        <time>2015-07-25T17:45:01Z</time>
      </trkpt>
      <trkpt lat="42.13242" lon="8.30017">
        <ele>-2.7467041015625</ele>
        <time>2015-07-25T17:45:15Z</time>
      </trkpt>
      <trkpt lat="42.13194" lon="8.30049">
        <ele>-2.7467041015625</ele>
        <time>2015-07-25T17:45:37Z</time>
      </trkpt>
      <trkpt lat="42.13164" lon="8.30066">
        <ele>-3.7078857421875</ele>
        <time>2015-07-25T17:45:49Z</time>
      </trkpt>
      <trkpt lat="42.13134" lon="8.30082">
        <ele>-3.227294921875</ele>
        <time>2015-07-25T17:46:01Z</time>
      </trkpt>
      <trkpt lat="42.13101" lon="8.30098">
        <ele>-2.7467041015625</ele>
        <time>2015-07-25T17:46:15Z</time>
      </trkpt>
      <trkpt lat="42.13062" lon="8.3012">
        <ele>-2.7467041015625</ele>
        <time>2015-07-25T17:46:34Z</time>
      </trkpt>
      <trkpt lat="42.13032" lon="8.30138">
        <ele>-3.7078857421875</ele>
        <time>2015-07-25T17:46:48Z</time>
      </trkpt>
      <trkpt lat="42.13002" lon="8.30156">
        <ele>-3.7078857421875</ele>
        <time>2015-07-25T17:47:00Z</time>
      </trkpt>
      <trkpt lat="42.12959" lon="8.30188">
        <ele>-4.1885986328125</ele>
        <time>2015-07-25T17:47:18Z</time>
      </trkpt>
      <trkpt lat="42.12926" lon="8.30211">
        <ele>-3.227294921875</ele>
        <time>2015-07-25T17:47:31Z</time>
      </trkpt>
      <trkpt lat="42.12883" lon="8.30236">
        <ele>-3.227294921875</ele>
        <time>2015-07-25T17:47:49Z</time>
      </trkpt>
      <trkpt lat="42.12848" lon="8.30256">
        <ele>-3.7078857421875</ele>
        <time>2015-07-25T17:48:04Z</time>
      </trkpt>
      <trkpt lat="42.12808" lon="8.30277">
        <ele>-4.1885986328125</ele>
        <time>2015-07-25T17:48:22Z</time>
      </trkpt>
      <trkpt lat="42.12772" lon="8.30295">
        <ele>-3.227294921875</ele>
        <time>2015-07-25T17:48:37Z</time>
      </trkpt>
      <trkpt lat="42.12716" lon="8.30316">
        <ele>-2.7467041015625</ele>
        <time>2015-07-25T17:48:59Z</time>
      </trkpt>
      <trkpt lat="42.12663" lon="8.30347">
        <ele>-2.7467041015625</ele>
        <time>2015-07-25T17:49:22Z</time>
      </trkpt>
      <trkpt lat="42.12627" lon="8.30369">
        <ele>-2.2659912109375</ele>
        <time>2015-07-25T17:49:37Z</time>
      </trkpt>
      <trkpt lat="42.12597" lon="8.3039">
        <ele>-4.1885986328125</ele>
        <time>2015-07-25T17:49:50Z</time>
      </trkpt>
      <trkpt lat="42.12569" lon="8.30413">
        <ele>-1.7852783203125</ele>
        <time>2015-07-25T17:50:03Z</time>
      </trkpt>
      <trkpt lat="42.12523" lon="8.30446">
        <ele>-3.7078857421875</ele>
        <time>2015-07-25T17:50:25Z</time>
      </trkpt>
      <trkpt lat="42.12484" lon="8.30474">
        <ele>-3.227294921875</ele>
        <time>2015-07-25T17:50:43Z</time>
      </trkpt>
      <trkpt lat="42.12454" lon="8.3049">
        <ele>-2.2659912109375</ele>
        <time>2015-07-25T17:50:56Z</time>
      </trkpt>
      <trkpt lat="42.12409" lon="8.30519">
        <ele>-3.227294921875</ele>
        <time>2015-07-25T17:51:18Z</time>
      </trkpt>
      <trkpt lat="42.12367" lon="8.30547">
        <ele>-0.8240966796875</ele>
        <time>2015-07-25T17:51:35Z</time>
      </trkpt>
      <trkpt lat="42.12332" lon="8.30573">
        <ele>-2.7467041015625</ele>
        <time>2015-07-25T17:51:51Z</time>
      </trkpt>
      <trkpt lat="42.12277" lon="8.30616">
        <ele>-2.7467041015625</ele>
        <time>2015-07-25T17:52:14Z</time>
      </trkpt>
      <trkpt lat="42.12246" lon="8.30639">
        <ele>-3.227294921875</ele>
        <time>2015-07-25T17:52:27Z</time>
      </trkpt>
      <trkpt lat="42.12218" lon="8.3066">
        <ele>-3.227294921875</ele>
        <time>2015-07-25T17:52:39Z</time>
      </trkpt>
      <trkpt lat="42.12178" lon="8.30686">
        <ele>-1.7852783203125</ele>
        <time>2015-07-25T17:52:56Z</time>
      </trkpt>
      <trkpt lat="42.12148" lon="8.30708">
        <ele>-3.227294921875</ele>
        <time>2015-07-25T17:53:09Z</time>
      </trkpt>
      <trkpt lat="42.12105" lon="8.30743">
        <ele>-3.227294921875</ele>
        <time>2015-07-25T17:53:26Z</time>
      </trkpt>
      <trkpt lat="42.12076" lon="8.30787">
        <ele>-2.2659912109375</ele>
        <time>2015-07-25T17:53:42Z</time>
      </trkpt>
      <trkpt lat="42.12047" lon="8.30826">
        <ele>-2.2659912109375</ele>
        <time>2015-07-25T17:53:56Z</time>
      </trkpt>
      <trkpt lat="42.12014" lon="8.30856">
        <ele>-0.8240966796875</ele>
        <time>2015-07-25T17:54:10Z</time>
      </trkpt>
      <trkpt lat="42.11978" lon="8.30881">
        <ele>-3.227294921875</ele>
        <time>2015-07-25T17:54:24Z</time>
      </trkpt>
      <trkpt lat="42.11949" lon="8.30904">
        <ele>-1.3046875</ele>
        <time>2015-07-25T17:54:35Z</time>
      </trkpt>
      <trkpt lat="42.11916" lon="8.30928">
        <ele>-1.7852783203125</ele>
        <time>2015-07-25T17:54:48Z</time>
      </trkpt>
      <trkpt lat="42.11863" lon="8.30959">
        <ele>-2.7467041015625</ele>
        <time>2015-07-25T17:55:09Z</time>
      </trkpt>
      <trkpt lat="42.1181" lon="8.30986">
        <ele>-2.2659912109375</ele>
        <time>2015-07-25T17:55:31Z</time>
      </trkpt>
      <trkpt lat="42.11778" lon="8.31">
        <ele>-2.7467041015625</ele>
        <time>2015-07-25T17:55:45Z</time>
      </trkpt>
      <trkpt lat="42.11749" lon="8.31024">
        <ele>-0.3433837890625</ele>
        <time>2015-07-25T17:55:57Z</time>
      </trkpt>
      <trkpt lat="42.11711" lon="8.31049">
        <ele>-1.3046875</ele>
        <time>2015-07-25T17:56:13Z</time>
      </trkpt>
      <trkpt lat="42.11679" lon="8.31078">
        <ele>-1.3046875</ele>
        <time>2015-07-25T17:56:27Z</time>
      </trkpt>
      <trkpt lat="42.1163" lon="8.31119">
        <ele>-2.7467041015625</ele>
        <time>2015-07-25T17:56:49Z</time>
      </trkpt>
      <trkpt lat="42.11593" lon="8.31149">
        <ele>-0.8240966796875</ele>
        <time>2015-07-25T17:57:06Z</time>
      </trkpt>
      <trkpt lat="42.11562" lon="8.31165">
        <ele>-2.7467041015625</ele>
        <time>2015-07-25T17:57:19Z</time>
      </trkpt>
      <trkpt lat="42.11526" lon="8.31179">
        <ele>-1.7852783203125</ele>
        <time>2015-07-25T17:57:36Z</time>
      </trkpt>
      <trkpt lat="42.11493" lon="8.312">
        <ele>-0.8240966796875</ele>
        <time>2015-07-25T17:57:51Z</time>
      </trkpt>
      <trkpt lat="42.11463" lon="8.31218">
        <ele>-1.7852783203125</ele>
        <time>2015-07-25T17:58:06Z</time>
      </trkpt>
      <trkpt lat="42.11423" lon="8.31242">
        <ele>-1.3046875</ele>
        <time>2015-07-25T17:58:29Z</time>
      </trkpt>
      <trkpt lat="42.11399" lon="8.31272">
        <ele>-1.3046875</ele>
        <time>2015-07-25T17:58:41Z</time>
      </trkpt>
      <trkpt lat="42.1137" lon="8.31307">
        <ele>-3.227294921875</ele>
        <time>2015-07-25T17:58:55Z</time>
      </trkpt>
      <trkpt lat="42.11337" lon="8.31336">
        <ele>-1.3046875</ele>
        <time>2015-07-25T17:59:09Z</time>
      </trkpt>
      <trkpt lat="42.11294" lon="8.31382">
        <ele>-2.2659912109375</ele>
        <time>2015-07-25T17:59:29Z</time>
      </trkpt>
      <trkpt lat="42.11266" lon="8.31415">
        <ele>-0.3433837890625</ele>
        <time>2015-07-25T17:59:42Z</time>
      </trkpt>
      <trkpt lat="42.11241" lon="8.31447">
        <ele>-2.2659912109375</ele>
        <time>2015-07-25T17:59:55Z</time>
      </trkpt>
      <trkpt lat="42.11199" lon="8.31496">
        <ele>-1.7852783203125</ele>
        <time>2015-07-25T18:00:15Z</time>
      </trkpt>
      <trkpt lat="42.11171" lon="8.31538">
        <ele>-1.3046875</ele>
        <time>2015-07-25T18:00:30Z</time>
      </trkpt>
      <trkpt lat="42.11146" lon="8.31573">
        <ele>-2.7467041015625</ele>
        <time>2015-07-25T18:00:44Z</time>
      </trkpt>
      <trkpt lat="42.1112" lon="8.31604">
        <ele>-0.3433837890625</ele>
        <time>2015-07-25T18:00:57Z</time>
      </trkpt>
      <trkpt lat="42.11095" lon="8.31632">
        <ele>-1.3046875</ele>
        <time>2015-07-25T18:01:09Z</time>
      </trkpt>
      <trkpt lat="42.11049" lon="8.31672">
        <ele>-0.3433837890625</ele>
        <time>2015-07-25T18:01:28Z</time>
      </trkpt>
      <trkpt lat="42.11024" lon="8.31705">
        <ele>0.137451171875</ele>
        <time>2015-07-25T18:01:39Z</time>
      </trkpt>
      <trkpt lat="42.10995" lon="8.3174">
        <ele>-1.7852783203125</ele>
        <time>2015-07-25T18:01:53Z</time>
      </trkpt>
      <trkpt lat="42.10967" lon="8.31776">
        <ele>-2.2659912109375</ele>
        <time>2015-07-25T18:02:07Z</time>
      </trkpt>
      <trkpt lat="42.10931" lon="8.31813">
        <ele>-1.3046875</ele>
        <time>2015-07-25T18:02:23Z</time>
      </trkpt>
      <trkpt lat="42.10904" lon="8.31837">
        <ele>-1.3046875</ele>
        <time>2015-07-25T18:02:34Z</time>
      </trkpt>
      <trkpt lat="42.10867" lon="8.31873">
        <ele>-0.3433837890625</ele>
        <time>2015-07-25T18:02:50Z</time>
      </trkpt>
      <trkpt lat="42.10841" lon="8.31897">
        <ele>-1.3046875</ele>
        <time>2015-07-25T18:03:01Z</time>
      </trkpt>
      <trkpt lat="42.10809" lon="8.3193">
        <ele>-1.7852783203125</ele>
        <time>2015-07-25T18:03:17Z</time>
      </trkpt>
      <trkpt lat="42.10751" lon="8.31984">
        <ele>-1.7852783203125</ele>
        <time>2015-07-25T18:03:42Z</time>
      </trkpt>
      <trkpt lat="42.10726" lon="8.32012">
        <ele>-2.2659912109375</ele>
        <time>2015-07-25T18:03:55Z</time>
      </trkpt>
      <trkpt lat="42.10669" lon="8.32067">
        <ele>-2.2659912109375</ele>
        <time>2015-07-25T18:04:22Z</time>
      </trkpt>
      <trkpt lat="42.10633" lon="8.32096">
        <ele>-0.8240966796875</ele>
        <time>2015-07-25T18:04:36Z</time>
      </trkpt>
      <trkpt lat="42.10589" lon="8.32133">
        <ele>-1.7852783203125</ele>
        <time>2015-07-25T18:04:54Z</time>
      </trkpt>
      <trkpt lat="42.10551" lon="8.32167">
        <ele>-2.2659912109375</ele>
        <time>2015-07-25T18:05:10Z</time>
      </trkpt>
      <trkpt lat="42.10516" lon="8.3221">
        <ele>-0.3433837890625</ele>
        <time>2015-07-25T18:05:28Z</time>
      </trkpt>
      <trkpt lat="42.10476" lon="8.32257">
        <ele>-1.7852783203125</ele>
        <time>2015-07-25T18:05:48Z</time>
      </trkpt>
      <trkpt lat="42.10425" lon="8.32308">
        <ele>-1.3046875</ele>
        <time>2015-07-25T18:06:12Z</time>
      </trkpt>
      <trkpt lat="42.10378" lon="8.32352">
        <ele>-1.3046875</ele>
        <time>2015-07-25T18:06:34Z</time>
      </trkpt>
      <trkpt lat="42.10337" lon="8.32388">
        <ele>-1.3046875</ele>
        <time>2015-07-25T18:06:52Z</time>
      </trkpt>
      <trkpt lat="42.10302" lon="8.32419">
        <ele>-0.8240966796875</ele>
        <time>2015-07-25T18:07:08Z</time>
      </trkpt>
      <trkpt lat="42.10273" lon="8.32444">
        <ele>-2.7467041015625</ele>
        <time>2015-07-25T18:07:22Z</time>
      </trkpt>
      <trkpt lat="42.10247" lon="8.32478">
        <ele>-1.3046875</ele>
        <time>2015-07-25T18:07:36Z</time>
      </trkpt>
      <trkpt lat="42.10213" lon="8.32508">
        <ele>-2.7467041015625</ele>
        <time>2015-07-25T18:07:52Z</time>
      </trkpt>
      <trkpt lat="42.10181" lon="8.32537">
        <ele>-0.8240966796875</ele>
        <time>2015-07-25T18:08:06Z</time>
      </trkpt>
      <trkpt lat="42.10141" lon="8.3257">
        <ele>-0.8240966796875</ele>
        <time>2015-07-25T18:08:25Z</time>
      </trkpt>
      <trkpt lat="42.10109" lon="8.32595">
        <ele>-1.7852783203125</ele>
        <time>2015-07-25T18:08:39Z</time>
      </trkpt>
      <trkpt lat="42.10072" lon="8.32624">
        <ele>-1.3046875</ele>
        <time>2015-07-25T18:08:54Z</time>
      </trkpt>
      <trkpt lat="42.1004" lon="8.32646">
        <ele>-0.3433837890625</ele>
        <time>2015-07-25T18:09:07Z</time>
      </trkpt>
      <trkpt lat="42.10008" lon="8.32665">
        <ele>-2.7467041015625</ele>
        <time>2015-07-25T18:09:21Z</time>
      </trkpt>
      <trkpt lat="42.09984" lon="8.32692">
        <ele>-2.2659912109375</ele>
        <time>2015-07-25T18:09:34Z</time>
      </trkpt>
      <trkpt lat="42.09957" lon="8.32716">
        <ele>-1.7852783203125</ele>
        <time>2015-07-25T18:09:46Z</time>
      </trkpt>
      <trkpt lat="42.09929" lon="8.32742">
        <ele>-0.8240966796875</ele>
        <time>2015-07-25T18:09:58Z</time>
      </trkpt>
      <trkpt lat="42.09899" lon="8.32761">
        <ele>-2.7467041015625</ele>
        <time>2015-07-25T18:10:10Z</time>
      </trkpt>
      <trkpt lat="42.0985" lon="8.32794">
        <ele>-1.7852783203125</ele>
        <time>2015-07-25T18:10:30Z</time>
      </trkpt>
      <trkpt lat="42.09819" lon="8.32814">
        <ele>-1.3046875</ele>
        <time>2015-07-25T18:10:42Z</time>
      </trkpt>
      <trkpt lat="42.09781" lon="8.32846">
        <ele>-0.8240966796875</ele>
        <time>2015-07-25T18:10:59Z</time>
      </trkpt>
      <trkpt lat="42.09747" lon="8.32871">
        <ele>-2.2659912109375</ele>
        <time>2015-07-25T18:11:13Z</time>
      </trkpt>
      <trkpt lat="42.09709" lon="8.32898">
        <ele>-1.7852783203125</ele>
        <time>2015-07-25T18:11:28Z</time>
      </trkpt>
      <trkpt lat="42.09675" lon="8.32928">
        <ele>-0.8240966796875</ele>
        <time>2015-07-25T18:11:43Z</time>
      </trkpt>
      <trkpt lat="42.09632" lon="8.32959">
        <ele>-0.8240966796875</ele>
        <time>2015-07-25T18:12:00Z</time>
      </trkpt>
      <trkpt lat="42.09582" lon="8.33009">
        <ele>-2.2659912109375</ele>
        <time>2015-07-25T18:12:24Z</time>
      </trkpt>
      <trkpt lat="42.09531" lon="8.33064">
        <ele>-0.3433837890625</ele>
        <time>2015-07-25T18:12:48Z</time>
      </trkpt>
      <trkpt lat="42.09502" lon="8.3309">
        <ele>-0.3433837890625</ele>
        <time>2015-07-25T18:13:00Z</time>
      </trkpt>
      <trkpt lat="42.09473" lon="8.33114">
        <ele>-2.2659912109375</ele>
        <time>2015-07-25T18:13:13Z</time>
      </trkpt>
      <trkpt lat="42.09429" lon="8.33147">
        <ele>-1.3046875</ele>
        <time>2015-07-25T18:13:31Z</time>
      </trkpt>
      <trkpt lat="42.09393" lon="8.33177">
        <ele>-0.3433837890625</ele>
        <time>2015-07-25T18:13:46Z</time>
      </trkpt>
      <trkpt lat="42.09337" lon="8.33222">
        <ele>-1.7852783203125</ele>
        <time>2015-07-25T18:14:12Z</time>
      </trkpt>
      <trkpt lat="42.09308" lon="8.33247">
        <ele>-0.8240966796875</ele>
        <time>2015-07-25T18:14:24Z</time>
      </trkpt>
      <trkpt lat="42.09269" lon="8.33278">
        <ele>-1.3046875</ele>
        <time>2015-07-25T18:14:40Z</time>
      </trkpt>
      <trkpt lat="42.09235" lon="8.33303">
        <ele>-0.3433837890625</ele>
        <time>2015-07-25T18:14:53Z</time>
      </trkpt>
      <trkpt lat="42.09195" lon="8.33333">
        <ele>-0.3433837890625</ele>
        <time>2015-07-25T18:15:09Z</time>
      </trkpt>
      <trkpt lat="42.09162" lon="8.33361">
        <ele>-2.2659912109375</ele>
        <time>2015-07-25T18:15:22Z</time>
      </trkpt>
      <trkpt lat="42.09126" lon="8.33402">
        <ele>-0.8240966796875</ele>
        <time>2015-07-25T18:15:37Z</time>
      </trkpt>
      <trkpt lat="42.09099" lon="8.33435">
        <ele>-2.2659912109375</ele>
        <time>2015-07-25T18:15:50Z</time>
      </trkpt>
      <trkpt lat="42.09073" lon="8.33464">
        <ele>-1.7852783203125</ele>
        <time>2015-07-25T18:16:02Z</time>
      </trkpt>
      <trkpt lat="42.09045" lon="8.33496">
        <ele>0.137451171875</ele>
        <time>2015-07-25T18:16:16Z</time>
      </trkpt>
      <trkpt lat="42.09017" lon="8.33522">
        <ele>-2.2659912109375</ele>
        <time>2015-07-25T18:16:30Z</time>
      </trkpt>
      <trkpt lat="42.08985" lon="8.33546">
        <ele>0.137451171875</ele>
        <time>2015-07-25T18:16:44Z</time>
      </trkpt>
      <trkpt lat="42.08956" lon="8.33569">
        <ele>-0.3433837890625</ele>
        <time>2015-07-25T18:16:56Z</time>
      </trkpt>
      <trkpt lat="42.08928" lon="8.33596">
        <ele>0.137451171875</ele>
        <time>2015-07-25T18:17:07Z</time>
      </trkpt>
      <trkpt lat="42.08894" lon="8.33622">
        <ele>-1.3046875</ele>
        <time>2015-07-25T18:17:20Z</time>
      </trkpt>
      <trkpt lat="42.08853" lon="8.33652">
        <ele>-0.8240966796875</ele>
        <time>2015-07-25T18:17:36Z</time>
      </trkpt>
      <trkpt lat="42.08809" lon="8.33685">
        <ele>-1.3046875</ele>
        <time>2015-07-25T18:17:53Z</time>
      </trkpt>
      <trkpt lat="42.08777" lon="8.33714">
        <ele>-1.7852783203125</ele>
        <time>2015-07-25T18:18:06Z</time>
      </trkpt>
      <trkpt lat="42.08747" lon="8.3373">
        <ele>-0.3433837890625</ele>
        <time>2015-07-25T18:18:17Z</time>
      </trkpt>
      <trkpt lat="42.08705" lon="8.33755">
        <ele>-0.8240966796875</ele>
        <time>2015-07-25T18:18:34Z</time>
      </trkpt>
      <trkpt lat="42.08678" lon="8.33793">
        <ele>-1.7852783203125</ele>
        <time>2015-07-25T18:18:49Z</time>
      </trkpt>
      <trkpt lat="42.0864" lon="8.33841">
        <ele>-1.3046875</ele>
        <time>2015-07-25T18:19:09Z</time>
      </trkpt>
      <trkpt lat="42.08605" lon="8.33873">
        <ele>-1.3046875</ele>
        <time>2015-07-25T18:19:25Z</time>
      </trkpt>
      <trkpt lat="42.08574" lon="8.3391">
        <ele>-0.3433837890625</ele>
        <time>2015-07-25T18:19:40Z</time>
      </trkpt>
      <trkpt lat="42.08549" lon="8.33945">
        <ele>-2.2659912109375</ele>
        <time>2015-07-25T18:19:54Z</time>
      </trkpt>
      <trkpt lat="42.08522" lon="8.33988">
        <ele>-2.2659912109375</ele>
        <time>2015-07-25T18:20:12Z</time>
      </trkpt>
      <trkpt lat="42.08494" lon="8.3402">
        <ele>0.6180419921875</ele>
        <time>2015-07-25T18:20:26Z</time>
      </trkpt>
      <trkpt lat="42.08461" lon="8.34058">
        <ele>-2.7467041015625</ele>
        <time>2015-07-25T18:20:41Z</time>
      </trkpt>
      <trkpt lat="42.08414" lon="8.34103">
        <ele>-0.8240966796875</ele>
        <time>2015-07-25T18:21:01Z</time>
      </trkpt>
      <trkpt lat="42.08387" lon="8.34126">
        <ele>-2.7467041015625</ele>
        <time>2015-07-25T18:21:12Z</time>
      </trkpt>
      <trkpt lat="42.08363" lon="8.34163">
        <ele>-1.3046875</ele>
        <time>2015-07-25T18:21:25Z</time>
      </trkpt>
      <trkpt lat="42.08337" lon="8.34195">
        <ele>-0.8240966796875</ele>
        <time>2015-07-25T18:21:38Z</time>
      </trkpt>
      <trkpt lat="42.08309" lon="8.34227">
        <ele>-0.8240966796875</ele>
        <time>2015-07-25T18:21:52Z</time>
      </trkpt>
      <trkpt lat="42.08255" lon="8.34279">
        <ele>-0.8240966796875</ele>
        <time>2015-07-25T18:22:17Z</time>
      </trkpt>
      <trkpt lat="42.08214" lon="8.34335">
        <ele>-0.3433837890625</ele>
        <time>2015-07-25T18:22:39Z</time>
      </trkpt>
      <trkpt lat="42.08187" lon="8.34364">
        <ele>-1.7852783203125</ele>
        <time>2015-07-25T18:22:53Z</time>
      </trkpt>
      <trkpt lat="42.08156" lon="8.34401">
        <ele>0.137451171875</ele>
        <time>2015-07-25T18:23:08Z</time>
      </trkpt>
      <trkpt lat="42.08105" lon="8.34453">
        <ele>-0.8240966796875</ele>
        <time>2015-07-25T18:23:34Z</time>
      </trkpt>
      <trkpt lat="42.08069" lon="8.3449">
        <ele>-0.8240966796875</ele>
        <time>2015-07-25T18:23:50Z</time>
      </trkpt>
      <trkpt lat="42.08021" lon="8.34539">
        <ele>0.137451171875</ele>
        <time>2015-07-25T18:24:11Z</time>
      </trkpt>
      <trkpt lat="42.07995" lon="8.34574">
        <ele>-1.3046875</ele>
        <time>2015-07-25T18:24:25Z</time>
      </trkpt>
      <trkpt lat="42.07945" lon="8.34636">
        <ele>-0.8240966796875</ele>
        <time>2015-07-25T18:24:52Z</time>
      </trkpt>
      <trkpt lat="42.07922" lon="8.34678">
        <ele>0.137451171875</ele>
        <time>2015-07-25T18:25:08Z</time>
      </trkpt>
      <trkpt lat="42.07899" lon="8.3471">
        <ele>1.0986328125</ele>
        <time>2015-07-25T18:25:21Z</time>
      </trkpt>
      <trkpt lat="42.07878" lon="8.34743">
        <ele>-1.7852783203125</ele>
        <time>2015-07-25T18:25:35Z</time>
      </trkpt>
      <trkpt lat="42.07857" lon="8.34776">
        <ele>0.137451171875</ele>
        <time>2015-07-25T18:25:48Z</time>
      </trkpt>
      <trkpt lat="42.07825" lon="8.34813">
        <ele>-0.8240966796875</ele>
        <time>2015-07-25T18:26:06Z</time>
      </trkpt>
      <trkpt lat="42.07793" lon="8.34859">
        <ele>0.137451171875</ele>
        <time>2015-07-25T18:26:25Z</time>
      </trkpt>
      <trkpt lat="42.07764" lon="8.34895">
        <ele>0.6180419921875</ele>
        <time>2015-07-25T18:26:41Z</time>
      </trkpt>
      <trkpt lat="42.07734" lon="8.34927">
        <ele>-1.3046875</ele>
        <time>2015-07-25T18:26:56Z</time>
      </trkpt>
      <trkpt lat="42.07707" lon="8.3496">
        <ele>0.137451171875</ele>
        <time>2015-07-25T18:27:10Z</time>
      </trkpt>
      <trkpt lat="42.07683" lon="8.34995">
        <ele>1.0986328125</ele>
        <time>2015-07-25T18:27:23Z</time>
      </trkpt>
      <trkpt lat="42.07662" lon="8.35026">
        <ele>-1.3046875</ele>
        <time>2015-07-25T18:27:35Z</time>
      </trkpt>
      <trkpt lat="42.07628" lon="8.35069">
        <ele>-0.8240966796875</ele>
        <time>2015-07-25T18:27:55Z</time>
      </trkpt>
      <trkpt lat="42.07604" lon="8.35107">
        <ele>1.0986328125</ele>
        <time>2015-07-25T18:28:09Z</time>
      </trkpt>
      <trkpt lat="42.07574" lon="8.35143">
        <ele>0.137451171875</ele>
        <time>2015-07-25T18:28:23Z</time>
      </trkpt>
      <trkpt lat="42.0755" lon="8.35176">
        <ele>-0.8240966796875</ele>
        <time>2015-07-25T18:28:35Z</time>
      </trkpt>
      <trkpt lat="42.07521" lon="8.35216">
        <ele>1.579345703125</ele>
        <time>2015-07-25T18:28:49Z</time>
      </trkpt>
      <trkpt lat="42.07488" lon="8.35258">
        <ele>0.137451171875</ele>
        <time>2015-07-25T18:29:07Z</time>
      </trkpt>
      <trkpt lat="42.0745" lon="8.35298">
        <ele>0.137451171875</ele>
        <time>2015-07-25T18:29:25Z</time>
      </trkpt>
      <trkpt lat="42.07413" lon="8.35341">
        <ele>0.6180419921875</ele>
        <time>2015-07-25T18:29:42Z</time>
      </trkpt>
      <trkpt lat="42.07388" lon="8.35375">
        <ele>0.137451171875</ele>
        <time>2015-07-25T18:29:55Z</time>
      </trkpt>
      <trkpt lat="42.07328" lon="8.35427">
        <ele>0.6180419921875</ele>
        <time>2015-07-25T18:30:22Z</time>
      </trkpt>
      <trkpt lat="42.07292" lon="8.35459">
        <ele>-1.3046875</ele>
        <time>2015-07-25T18:30:38Z</time>
      </trkpt>
      <trkpt lat="42.07265" lon="8.35482">
        <ele>1.579345703125</ele>
        <time>2015-07-25T18:30:50Z</time>
      </trkpt>
      <trkpt lat="42.07215" lon="8.35526">
        <ele>2.5406494140625</ele>
        <time>2015-07-25T18:31:13Z</time>
      </trkpt>
      <trkpt lat="42.07191" lon="8.35558">
        <ele>-0.8240966796875</ele>
        <time>2015-07-25T18:31:25Z</time>
      </trkpt>
      <trkpt lat="42.0716" lon="8.35602">
        <ele>0.137451171875</ele>
        <time>2015-07-25T18:31:42Z</time>
      </trkpt>
      <trkpt lat="42.07128" lon="8.35643">
        <ele>1.0986328125</ele>
        <time>2015-07-25T18:31:57Z</time>
      </trkpt>
      <trkpt lat="42.0708" lon="8.35703">
        <ele>1.579345703125</ele>
        <time>2015-07-25T18:32:23Z</time>
      </trkpt>
      <trkpt lat="42.07043" lon="8.35759">
        <ele>1.579345703125</ele>
        <time>2015-07-25T18:32:45Z</time>
      </trkpt>
      <trkpt lat="42.07018" lon="8.35797">
        <ele>1.579345703125</ele>
        <time>2015-07-25T18:33:02Z</time>
      </trkpt>
      <trkpt lat="42.06995" lon="8.35827">
        <ele>1.579345703125</ele>
        <time>2015-07-25T18:33:16Z</time>
      </trkpt>
      <trkpt lat="42.06963" lon="8.35844">
        <ele>2.06005859375</ele>
        <time>2015-07-25T18:33:31Z</time>
      </trkpt>
      <trkpt lat="42.06936" lon="8.35869">
        <ele>0.6180419921875</ele>
        <time>2015-07-25T18:33:45Z</time>
      </trkpt>
      <trkpt lat="42.06908" lon="8.35918">
        <ele>1.0986328125</ele>
        <time>2015-07-25T18:34:04Z</time>
      </trkpt>
      <trkpt lat="42.06876" lon="8.35961">
        <ele>1.0986328125</ele>
        <time>2015-07-25T18:34:24Z</time>
      </trkpt>
      <trkpt lat="42.06851" lon="8.35993">
        <ele>-0.8240966796875</ele>
        <time>2015-07-25T18:34:38Z</time>
      </trkpt>
      <trkpt lat="42.06827" lon="8.36027">
        <ele>0.6180419921875</ele>
        <time>2015-07-25T18:34:52Z</time>
      </trkpt>
      <trkpt lat="42.06795" lon="8.36073">
        <ele>-0.3433837890625</ele>
        <time>2015-07-25T18:35:12Z</time>
      </trkpt>
      <trkpt lat="42.06772" lon="8.36109">
        <ele>0.137451171875</ele>
        <time>2015-07-25T18:35:28Z</time>
      </trkpt>
      <trkpt lat="42.06747" lon="8.36144">
        <ele>0.137451171875</ele>
        <time>2015-07-25T18:35:44Z</time>
      </trkpt>
      <trkpt lat="42.0672" lon="8.36183">
        <ele>-0.8240966796875</ele>
        <time>2015-07-25T18:36:00Z</time>
      </trkpt>
      <trkpt lat="42.06691" lon="8.3621">
        <ele>0.6180419921875</ele>
        <time>2015-07-25T18:36:13Z</time>
      </trkpt>
      <trkpt lat="42.06664" lon="8.36235">
        <ele>2.06005859375</ele>
        <time>2015-07-25T18:36:25Z</time>
      </trkpt>
      <trkpt lat="42.06611" lon="8.36277">
        <ele>1.0986328125</ele>
        <time>2015-07-25T18:36:48Z</time>
      </trkpt>
      <trkpt lat="42.06578" lon="8.36319">
        <ele>1.0986328125</ele>
        <time>2015-07-25T18:37:05Z</time>
      </trkpt>
      <trkpt lat="42.06541" lon="8.36361">
        <ele>-0.3433837890625</ele>
        <time>2015-07-25T18:37:27Z</time>
      </trkpt>
      <trkpt lat="42.06515" lon="8.36387">
        <ele>0.137451171875</ele>
        <time>2015-07-25T18:37:41Z</time>
      </trkpt>
      <trkpt lat="42.06486" lon="8.36414">
        <ele>0.6180419921875</ele>
        <time>2015-07-25T18:37:56Z</time>
      </trkpt>
      <trkpt lat="42.06457" lon="8.36447">
        <ele>-1.3046875</ele>
        <time>2015-07-25T18:38:12Z</time>
      </trkpt>
      <trkpt lat="42.06421" lon="8.36484">
        <ele>0.137451171875</ele>
        <time>2015-07-25T18:38:31Z</time>
      </trkpt>
      <trkpt lat="42.06391" lon="8.36511">
        <ele>0.137451171875</ele>
        <time>2015-07-25T18:38:45Z</time>
      </trkpt>
      <trkpt lat="42.0636" lon="8.3654">
        <ele>-0.3433837890625</ele>
        <time>2015-07-25T18:38:58Z</time>
      </trkpt>
      <trkpt lat="42.06331" lon="8.36562">
        <ele>0.137451171875</ele>
        <time>2015-07-25T18:39:10Z</time>
      </trkpt>
      <trkpt lat="42.06301" lon="8.36584">
        <ele>0.6180419921875</ele>
        <time>2015-07-25T18:39:22Z</time>
      </trkpt>
      <trkpt lat="42.06272" lon="8.36608">
        <ele>-0.3433837890625</ele>
        <time>2015-07-25T18:39:35Z</time>
      </trkpt>
      <trkpt lat="42.06241" lon="8.36629">
        <ele>0.137451171875</ele>
        <time>2015-07-25T18:39:48Z</time>
      </trkpt>
      <trkpt lat="42.06192" lon="8.36669">
        <ele>1.0986328125</ele>
        <time>2015-07-25T18:40:10Z</time>
      </trkpt>
      <trkpt lat="42.06156" lon="8.36703">
        <ele>0.6180419921875</ele>
        <time>2015-07-25T18:40:26Z</time>
      </trkpt>
      <trkpt lat="42.06125" lon="8.36735">
        <ele>0.137451171875</ele>
        <time>2015-07-25T18:40:40Z</time>
      </trkpt>
      <trkpt lat="42.06097" lon="8.36761">
        <ele>0.137451171875</ele>
        <time>2015-07-25T18:40:53Z</time>
      </trkpt>
      <trkpt lat="42.06071" lon="8.36786">
        <ele>-0.3433837890625</ele>
        <time>2015-07-25T18:41:05Z</time>
      </trkpt>
      <trkpt lat="42.06045" lon="8.36809">
        <ele>2.06005859375</ele>
        <time>2015-07-25T18:41:17Z</time>
      </trkpt>
      <trkpt lat="42.06016" lon="8.36835">
        <ele>-1.7852783203125</ele>
        <time>2015-07-25T18:41:31Z</time>
      </trkpt>
      <trkpt lat="42.05976" lon="8.36889">
        <ele>-1.3046875</ele>
        <time>2015-07-25T18:41:52Z</time>
      </trkpt>
      <trkpt lat="42.0595" lon="8.36923">
        <ele>-0.3433837890625</ele>
        <time>2015-07-25T18:42:06Z</time>
      </trkpt>
      <trkpt lat="42.0592" lon="8.36952">
        <ele>-0.8240966796875</ele>
        <time>2015-07-25T18:42:20Z</time>
      </trkpt>
      <trkpt lat="42.05894" lon="8.36987">
        <ele>-0.8240966796875</ele>
        <time>2015-07-25T18:42:35Z</time>
      </trkpt>
      <trkpt lat="42.05869" lon="8.37014">
        <ele>-0.3433837890625</ele>
        <time>2015-07-25T18:42:47Z</time>
      </trkpt>
      <trkpt lat="42.05823" lon="8.37065">
        <ele>-1.7852783203125</ele>
        <time>2015-07-25T18:43:12Z</time>
      </trkpt>
      <trkpt lat="42.05784" lon="8.37093">
        <ele>-0.3433837890625</ele>
        <time>2015-07-25T18:43:31Z</time>
      </trkpt>
      <trkpt lat="42.05756" lon="8.37124">
        <ele>-1.3046875</ele>
        <time>2015-07-25T18:43:47Z</time>
      </trkpt>
      <trkpt lat="42.0573" lon="8.37164">
        <ele>-1.3046875</ele>
        <time>2015-07-25T18:44:04Z</time>
      </trkpt>
      <trkpt lat="42.05711" lon="8.37199">
        <ele>-1.3046875</ele>
        <time>2015-07-25T18:44:17Z</time>
      </trkpt>
      <trkpt lat="42.05687" lon="8.37231">
        <ele>-0.3433837890625</ele>
        <time>2015-07-25T18:44:31Z</time>
      </trkpt>
      <trkpt lat="42.05657" lon="8.37277">
        <ele>-0.3433837890625</ele>
        <time>2015-07-25T18:44:50Z</time>
      </trkpt>
      <trkpt lat="42.05631" lon="8.37307">
        <ele>-0.8240966796875</ele>
        <time>2015-07-25T18:45:04Z</time>
      </trkpt>
      <trkpt lat="42.05604" lon="8.37338">
        <ele>-0.8240966796875</ele>
        <time>2015-07-25T18:45:18Z</time>
      </trkpt>
      <trkpt lat="42.0558" lon="8.3737">
        <ele>-0.3433837890625</ele>
        <time>2015-07-25T18:45:31Z</time>
      </trkpt>
      <trkpt lat="42.0555" lon="8.37405">
        <ele>-0.3433837890625</ele>
        <time>2015-07-25T18:45:46Z</time>
      </trkpt>
      <trkpt lat="42.05517" lon="8.37448">
        <ele>-1.3046875</ele>
        <time>2015-07-25T18:46:04Z</time>
      </trkpt>
      <trkpt lat="42.05491" lon="8.37486">
        <ele>-1.7852783203125</ele>
        <time>2015-07-25T18:46:20Z</time>
      </trkpt>
      <trkpt lat="42.05444" lon="8.37532">
        <ele>-1.7852783203125</ele>
        <time>2015-07-25T18:46:43Z</time>
      </trkpt>
      <trkpt lat="42.05414" lon="8.37565">
        <ele>-1.3046875</ele>
        <time>2015-07-25T18:46:58Z</time>
      </trkpt>
      <trkpt lat="42.05387" lon="8.37594">
        <ele>-1.3046875</ele>
        <time>2015-07-25T18:47:12Z</time>
      </trkpt>
      <trkpt lat="42.05356" lon="8.37625">
        <ele>0.137451171875</ele>
        <time>2015-07-25T18:47:28Z</time>
      </trkpt>
      <trkpt lat="42.05324" lon="8.37654">
        <ele>-1.7852783203125</ele>
        <time>2015-07-25T18:47:44Z</time>
      </trkpt>
      <trkpt lat="42.05294" lon="8.37683">
        <ele>-1.7852783203125</ele>
        <time>2015-07-25T18:47:58Z</time>
      </trkpt>
      <trkpt lat="42.05263" lon="8.3771">
        <ele>-0.3433837890625</ele>
        <time>2015-07-25T18:48:13Z</time>
      </trkpt>
      <trkpt lat="42.05232" lon="8.37744">
        <ele>-1.7852783203125</ele>
        <time>2015-07-25T18:48:30Z</time>
      </trkpt>
      <trkpt lat="42.052" lon="8.37779">
        <ele>0.137451171875</ele>
        <time>2015-07-25T18:48:48Z</time>
      </trkpt>
      <trkpt lat="42.05156" lon="8.37828">
        <ele>-1.7852783203125</ele>
        <time>2015-07-25T18:49:11Z</time>
      </trkpt>
      <trkpt lat="42.05114" lon="8.37868">
        <ele>-2.7467041015625</ele>
        <time>2015-07-25T18:49:33Z</time>
      </trkpt>
      <trkpt lat="42.05086" lon="8.37899">
        <ele>-1.7852783203125</ele>
        <time>2015-07-25T18:49:48Z</time>
      </trkpt>
      <trkpt lat="42.05058" lon="8.3793">
        <ele>-1.7852783203125</ele>
        <time>2015-07-25T18:50:02Z</time>
      </trkpt>
      <trkpt lat="42.05013" lon="8.37986">
        <ele>-0.8240966796875</ele>
        <time>2015-07-25T18:50:24Z</time>
      </trkpt>
      <trkpt lat="42.04976" lon="8.38022">
        <ele>-2.7467041015625</ele>
        <time>2015-07-25T18:50:42Z</time>
      </trkpt>
      <trkpt lat="42.04951" lon="8.38052">
        <ele>-0.3433837890625</ele>
        <time>2015-07-25T18:50:55Z</time>
      </trkpt>
      <trkpt lat="42.04904" lon="8.38109">
        <ele>-2.2659912109375</ele>
        <time>2015-07-25T18:51:21Z</time>
      </trkpt>
      <trkpt lat="42.04871" lon="8.38151">
        <ele>-0.3433837890625</ele>
        <time>2015-07-25T18:51:38Z</time>
      </trkpt>
      <trkpt lat="42.04821" lon="8.38202">
        <ele>-2.7467041015625</ele>
        <time>2015-07-25T18:52:01Z</time>
      </trkpt>
      <trkpt lat="42.04794" lon="8.38234">
        <ele>-2.2659912109375</ele>
        <time>2015-07-25T18:52:15Z</time>
      </trkpt>
      <trkpt lat="42.04765" lon="8.38261">
        <ele>-2.7467041015625</ele>
        <time>2015-07-25T18:52:29Z</time>
      </trkpt>
      <trkpt lat="42.04719" lon="8.38309">
        <ele>-1.3046875</ele>
        <time>2015-07-25T18:52:51Z</time>
      </trkpt>
      <trkpt lat="42.04675" lon="8.38346">
        <ele>-1.3046875</ele>
        <time>2015-07-25T18:53:10Z</time>
      </trkpt>
      <trkpt lat="42.04636" lon="8.38373">
        <ele>-2.2659912109375</ele>
        <time>2015-07-25T18:53:28Z</time>
      </trkpt>
      <trkpt lat="42.04595" lon="8.3843">
        <ele>-1.7852783203125</ele>
        <time>2015-07-25T18:53:52Z</time>
      </trkpt>
      <trkpt lat="42.04569" lon="8.38462">
        <ele>-1.7852783203125</ele>
        <time>2015-07-25T18:54:08Z</time>
      </trkpt>
      <trkpt lat="42.04535" lon="8.38505">
        <ele>-1.7852783203125</ele>
        <time>2015-07-25T18:54:29Z</time>
      </trkpt>
      <trkpt lat="42.04495" lon="8.38544">
        <ele>-2.2659912109375</ele>
        <time>2015-07-25T18:54:49Z</time>
      </trkpt>
      <trkpt lat="42.04449" lon="8.38592">
        <ele>-2.2659912109375</ele>
        <time>2015-07-25T18:55:11Z</time>
      </trkpt>
      <trkpt lat="42.04422" lon="8.38615">
        <ele>-3.7078857421875</ele>
        <time>2015-07-25T18:55:24Z</time>
      </trkpt>
      <trkpt lat="42.04394" lon="8.3864">
        <ele>-1.3046875</ele>
        <time>2015-07-25T18:55:36Z</time>
      </trkpt>
      <trkpt lat="42.04352" lon="8.38691">
        <ele>-1.7852783203125</ele>
        <time>2015-07-25T18:55:59Z</time>
      </trkpt>
      <trkpt lat="42.04328" lon="8.3872">
        <ele>-1.3046875</ele>
        <time>2015-07-25T18:56:12Z</time>
      </trkpt>
      <trkpt lat="42.04297" lon="8.38749">
        <ele>-2.7467041015625</ele>
        <time>2015-07-25T18:56:27Z</time>
      </trkpt>
      <trkpt lat="42.0425" lon="8.38796">
        <ele>-1.7852783203125</ele>
        <time>2015-07-25T18:56:49Z</time>
      </trkpt>
      <trkpt lat="42.04219" lon="8.38822">
        <ele>-1.3046875</ele>
        <time>2015-07-25T18:57:02Z</time>
      </trkpt>
      <trkpt lat="42.04192" lon="8.38845">
        <ele>-0.3433837890625</ele>
        <time>2015-07-25T18:57:13Z</time>
      </trkpt>
      <trkpt lat="42.04157" lon="8.38882">
        <ele>-2.7467041015625</ele>
        <time>2015-07-25T18:57:29Z</time>
      </trkpt>
      <trkpt lat="42.04106" lon="8.38932">
        <ele>-2.2659912109375</ele>
        <time>2015-07-25T18:57:51Z</time>
      </trkpt>
      <trkpt lat="42.04081" lon="8.38971">
        <ele>-1.3046875</ele>
        <time>2015-07-25T18:58:07Z</time>
      </trkpt>
      <trkpt lat="42.04038" lon="8.39009">
        <ele>-2.7467041015625</ele>
        <time>2015-07-25T18:58:27Z</time>
      </trkpt>
      <trkpt lat="42.04011" lon="8.39034">
        <ele>-2.7467041015625</ele>
        <time>2015-07-25T18:58:40Z</time>
      </trkpt>
      <trkpt lat="42.03984" lon="8.39062">
        <ele>-1.3046875</ele>
        <time>2015-07-25T18:58:54Z</time>
      </trkpt>
      <trkpt lat="42.03931" lon="8.39113">
        <ele>-2.7467041015625</ele>
        <time>2015-07-25T18:59:21Z</time>
      </trkpt>
      <trkpt lat="42.03895" lon="8.39157">
        <ele>-2.7467041015625</ele>
        <time>2015-07-25T18:59:39Z</time>
      </trkpt>
      <trkpt lat="42.03869" lon="8.39181">
        <ele>-2.7467041015625</ele>
        <time>2015-07-25T18:59:51Z</time>
      </trkpt>
      <trkpt lat="42.0384" lon="8.39209">
        <ele>-2.7467041015625</ele>
        <time>2015-07-25T19:00:05Z</time>
      </trkpt>
      <trkpt lat="42.0381" lon="8.39238">
        <ele>-1.7852783203125</ele>
        <time>2015-07-25T19:00:19Z</time>
      </trkpt>
      <trkpt lat="42.03771" lon="8.39275">
        <ele>-0.8240966796875</ele>
        <time>2015-07-25T19:00:37Z</time>
      </trkpt>
      <trkpt lat="42.03734" lon="8.39293">
        <ele>-2.7467041015625</ele>
        <time>2015-07-25T19:00:52Z</time>
      </trkpt>
      <trkpt lat="42.03704" lon="8.39306">
        <ele>-2.2659912109375</ele>
        <time>2015-07-25T19:01:03Z</time>
      </trkpt>
      <trkpt lat="42.03657" lon="8.39345">
        <ele>-2.7467041015625</ele>
        <time>2015-07-25T19:01:24Z</time>
      </trkpt>
      <trkpt lat="42.03604" lon="8.39392">
        <ele>-1.7852783203125</ele>
        <time>2015-07-25T19:01:49Z</time>
      </trkpt>
      <trkpt lat="42.03571" lon="8.3943">
        <ele>-2.2659912109375</ele>
        <time>2015-07-25T19:02:05Z</time>
      </trkpt>
      <trkpt lat="42.03527" lon="8.39482">
        <ele>-2.7467041015625</ele>
        <time>2015-07-25T19:02:28Z</time>
      </trkpt>
      <trkpt lat="42.03498" lon="8.39509">
        <ele>-3.227294921875</ele>
        <time>2015-07-25T19:02:42Z</time>
      </trkpt>
      <trkpt lat="42.03473" lon="8.39537">
        <ele>-0.8240966796875</ele>
        <time>2015-07-25T19:02:53Z</time>
      </trkpt>
      <trkpt lat="42.03428" lon="8.39583">
        <ele>-2.2659912109375</ele>
        <time>2015-07-25T19:03:13Z</time>
      </trkpt>
      <trkpt lat="42.034" lon="8.39611">
        <ele>-2.2659912109375</ele>
        <time>2015-07-25T19:03:26Z</time>
      </trkpt>
      <trkpt lat="42.03371" lon="8.39641">
        <ele>-2.2659912109375</ele>
        <time>2015-07-25T19:03:39Z</time>
      </trkpt>
      <trkpt lat="42.03348" lon="8.39672">
        <ele>-1.3046875</ele>
        <time>2015-07-25T19:03:51Z</time>
      </trkpt>
      <trkpt lat="42.03317" lon="8.39707">
        <ele>-2.2659912109375</ele>
        <time>2015-07-25T19:04:05Z</time>
      </trkpt>
      <trkpt lat="42.03286" lon="8.3974">
        <ele>-2.2659912109375</ele>
        <time>2015-07-25T19:04:19Z</time>
      </trkpt>
      <trkpt lat="42.03257" lon="8.39769">
        <ele>-1.3046875</ele>
        <time>2015-07-25T19:04:33Z</time>
      </trkpt>
      <trkpt lat="42.03218" lon="8.39814">
        <ele>-1.7852783203125</ele>
        <time>2015-07-25T19:04:54Z</time>
      </trkpt>
      <trkpt lat="42.03172" lon="8.39868">
        <ele>-2.2659912109375</ele>
        <time>2015-07-25T19:05:20Z</time>
      </trkpt>
      <trkpt lat="42.03126" lon="8.39922">
        <ele>-3.227294921875</ele>
        <time>2015-07-25T19:05:45Z</time>
      </trkpt>
      <trkpt lat="42.03095" lon="8.39962">
        <ele>-3.227294921875</ele>
        <time>2015-07-25T19:06:03Z</time>
      </trkpt>
      <trkpt lat="42.03063" lon="8.40011">
        <ele>-2.2659912109375</ele>
        <time>2015-07-25T19:06:24Z</time>
      </trkpt>
      <trkpt lat="42.0303" lon="8.40039">
        <ele>-3.227294921875</ele>
        <time>2015-07-25T19:06:41Z</time>
      </trkpt>
      <trkpt lat="42.03004" lon="8.40064">
        <ele>-2.2659912109375</ele>
        <time>2015-07-25T19:06:55Z</time>
      </trkpt>
      <trkpt lat="42.02982" lon="8.40094">
        <ele>-2.7467041015625</ele>
        <time>2015-07-25T19:07:08Z</time>
      </trkpt>
      <trkpt lat="42.02959" lon="8.40126">
        <ele>-1.7852783203125</ele>
        <time>2015-07-25T19:07:22Z</time>
      </trkpt>
      <trkpt lat="42.02923" lon="8.40173">
        <ele>-2.2659912109375</ele>
        <time>2015-07-25T19:07:45Z</time>
      </trkpt>
      <trkpt lat="42.02896" lon="8.40207">
        <ele>-2.7467041015625</ele>
        <time>2015-07-25T19:07:59Z</time>
      </trkpt>
      <trkpt lat="42.02868" lon="8.4024">
        <ele>-2.2659912109375</ele>
        <time>2015-07-25T19:08:13Z</time>
      </trkpt>
      <trkpt lat="42.02843" lon="8.40276">
        <ele>-2.2659912109375</ele>
        <time>2015-07-25T19:08:27Z</time>
      </trkpt>
      <trkpt lat="42.02815" lon="8.40309">
        <ele>-3.227294921875</ele>
        <time>2015-07-25T19:08:43Z</time>
      </trkpt>
      <trkpt lat="42.02792" lon="8.40359">
        <ele>-2.7467041015625</ele>
        <time>2015-07-25T19:09:02Z</time>
      </trkpt>
      <trkpt lat="42.0277" lon="8.40399">
        <ele>-1.7852783203125</ele>
        <time>2015-07-25T19:09:18Z</time>
      </trkpt>
      <trkpt lat="42.02735" lon="8.40449">
        <ele>-2.7467041015625</ele>
        <time>2015-07-25T19:09:41Z</time>
      </trkpt>
      <trkpt lat="42.02714" lon="8.40481">
        <ele>-1.3046875</ele>
        <time>2015-07-25T19:09:55Z</time>
      </trkpt>
      <trkpt lat="42.02687" lon="8.40525">
        <ele>-1.3046875</ele>
        <time>2015-07-25T19:10:14Z</time>
      </trkpt>
      <trkpt lat="42.02652" lon="8.4058">
        <ele>-3.7078857421875</ele>
        <time>2015-07-25T19:10:40Z</time>
      </trkpt>
      <trkpt lat="42.02625" lon="8.40615">
        <ele>-3.227294921875</ele>
        <time>2015-07-25T19:10:57Z</time>
      </trkpt>
      <trkpt lat="42.02596" lon="8.40644">
        <ele>-3.227294921875</ele>
        <time>2015-07-25T19:11:13Z</time>
      </trkpt>
      <trkpt lat="42.02568" lon="8.40668">
        <ele>-3.227294921875</ele>
        <time>2015-07-25T19:11:28Z</time>
      </trkpt>
      <trkpt lat="42.02539" lon="8.40693">
        <ele>-2.2659912109375</ele>
        <time>2015-07-25T19:11:44Z</time>
      </trkpt>
      <trkpt lat="42.02511" lon="8.40726">
        <ele>-2.7467041015625</ele>
        <time>2015-07-25T19:11:59Z</time>
      </trkpt>
      <trkpt lat="42.02487" lon="8.40758">
        <ele>-3.7078857421875</ele>
        <time>2015-07-25T19:12:13Z</time>
      </trkpt>
      <trkpt lat="42.02465" lon="8.40792">
        <ele>-1.7852783203125</ele>
        <time>2015-07-25T19:12:26Z</time>
      </trkpt>
      <trkpt lat="42.02439" lon="8.40828">
        <ele>-1.7852783203125</ele>
        <time>2015-07-25T19:12:42Z</time>
      </trkpt>
      <trkpt lat="42.02416" lon="8.40859">
        <ele>-3.227294921875</ele>
        <time>2015-07-25T19:12:56Z</time>
      </trkpt>
      <trkpt lat="42.02392" lon="8.40892">
        <ele>-1.3046875</ele>
        <time>2015-07-25T19:13:10Z</time>
      </trkpt>
      <trkpt lat="42.02349" lon="8.40947">
        <ele>-1.7852783203125</ele>
        <time>2015-07-25T19:13:35Z</time>
      </trkpt>
      <trkpt lat="42.02327" lon="8.40981">
        <ele>-3.227294921875</ele>
        <time>2015-07-25T19:13:49Z</time>
      </trkpt>
      <trkpt lat="42.02296" lon="8.41023">
        <ele>-3.227294921875</ele>
        <time>2015-07-25T19:14:06Z</time>
      </trkpt>
      <trkpt lat="42.02263" lon="8.4105">
        <ele>-1.7852783203125</ele>
        <time>2015-07-25T19:14:22Z</time>
      </trkpt>
      <trkpt lat="42.02238" lon="8.41076">
        <ele>-2.2659912109375</ele>
        <time>2015-07-25T19:14:34Z</time>
      </trkpt>
      <trkpt lat="42.02194" lon="8.41116">
        <ele>-2.7467041015625</ele>
        <time>2015-07-25T19:14:56Z</time>
      </trkpt>
      <trkpt lat="42.02169" lon="8.41143">
        <ele>-3.227294921875</ele>
        <time>2015-07-25T19:15:09Z</time>
      </trkpt>
      <trkpt lat="42.02142" lon="8.4117">
        <ele>-3.7078857421875</ele>
        <time>2015-07-25T19:15:22Z</time>
      </trkpt>
      <trkpt lat="42.02107" lon="8.41214">
        <ele>-3.7078857421875</ele>
        <time>2015-07-25T19:15:39Z</time>
      </trkpt>
      <trkpt lat="42.02081" lon="8.41248">
        <ele>-2.2659912109375</ele>
        <time>2015-07-25T19:15:54Z</time>
      </trkpt>
      <trkpt lat="42.02046" lon="8.41284">
        <ele>-3.227294921875</ele>
        <time>2015-07-25T19:16:13Z</time>
      </trkpt>
      <trkpt lat="42.0202" lon="8.41314">
        <ele>-2.2659912109375</ele>
        <time>2015-07-25T19:16:27Z</time>
      </trkpt>
      <trkpt lat="42.01993" lon="8.41349">
        <ele>-1.7852783203125</ele>
        <time>2015-07-25T19:16:43Z</time>
      </trkpt>
      <trkpt lat="42.01967" lon="8.4138">
        <ele>-3.227294921875</ele>
        <time>2015-07-25T19:16:58Z</time>
      </trkpt>
      <trkpt lat="42.01942" lon="8.41413">
        <ele>-3.227294921875</ele>
        <time>2015-07-25T19:17:13Z</time>
      </trkpt>
      <trkpt lat="42.01919" lon="8.41443">
        <ele>-3.227294921875</ele>
        <time>2015-07-25T19:17:28Z</time>
      </trkpt>
      <trkpt lat="42.01895" lon="8.41478">
        <ele>-2.7467041015625</ele>
        <time>2015-07-25T19:17:44Z</time>
      </trkpt>
      <trkpt lat="42.01861" lon="8.41531">
        <ele>-3.227294921875</ele>
        <time>2015-07-25T19:18:11Z</time>
      </trkpt>
      <trkpt lat="42.01826" lon="8.41582">
        <ele>-1.7852783203125</ele>
        <time>2015-07-25T19:18:37Z</time>
      </trkpt>
      <trkpt lat="42.01796" lon="8.41627">
        <ele>-1.3046875</ele>
        <time>2015-07-25T19:18:57Z</time>
      </trkpt>
      <trkpt lat="42.01772" lon="8.41657">
        <ele>-3.227294921875</ele>
        <time>2015-07-25T19:19:11Z</time>
      </trkpt>
      <trkpt lat="42.01749" lon="8.4169">
        <ele>-2.2659912109375</ele>
        <time>2015-07-25T19:19:25Z</time>
      </trkpt>
      <trkpt lat="42.01728" lon="8.41722">
        <ele>-3.7078857421875</ele>
        <time>2015-07-25T19:19:39Z</time>
      </trkpt>
      <trkpt lat="42.01704" lon="8.41753">
        <ele>-2.7467041015625</ele>
        <time>2015-07-25T19:19:53Z</time>
      </trkpt>
      <trkpt lat="42.0168" lon="8.4179">
        <ele>-3.227294921875</ele>
        <time>2015-07-25T19:20:08Z</time>
      </trkpt>
      <trkpt lat="42.01655" lon="8.41825">
        <ele>-3.7078857421875</ele>
        <time>2015-07-25T19:20:24Z</time>
      </trkpt>
      <trkpt lat="42.01634" lon="8.41857">
        <ele>-2.2659912109375</ele>
        <time>2015-07-25T19:20:37Z</time>
      </trkpt>
      <trkpt lat="42.01596" lon="8.41902">
        <ele>-4.6693115234375</ele>
        <time>2015-07-25T19:20:58Z</time>
      </trkpt>
      <trkpt lat="42.01565" lon="8.41942">
        <ele>-4.1885986328125</ele>
        <time>2015-07-25T19:21:16Z</time>
      </trkpt>
      <trkpt lat="42.01543" lon="8.41976">
        <ele>-4.1885986328125</ele>
        <time>2015-07-25T19:21:32Z</time>
      </trkpt>
      <trkpt lat="42.01512" lon="8.42017">
        <ele>-4.1885986328125</ele>
        <time>2015-07-25T19:21:52Z</time>
      </trkpt>
      <trkpt lat="42.01487" lon="8.42051">
        <ele>-2.7467041015625</ele>
        <time>2015-07-25T19:22:09Z</time>
      </trkpt>
      <trkpt lat="42.01465" lon="8.42082">
        <ele>-2.2659912109375</ele>
        <time>2015-07-25T19:22:23Z</time>
      </trkpt>
      <trkpt lat="42.01427" lon="8.42131">
        <ele>-4.1885986328125</ele>
        <time>2015-07-25T19:22:49Z</time>
      </trkpt>
      <trkpt lat="42.01403" lon="8.42165">
        <ele>-4.1885986328125</ele>
        <time>2015-07-25T19:23:08Z</time>
      </trkpt>
      <trkpt lat="42.01374" lon="8.42194">
        <ele>-4.6693115234375</ele>
        <time>2015-07-25T19:23:25Z</time>
      </trkpt>
      <trkpt lat="42.01344" lon="8.42237">
        <ele>-3.7078857421875</ele>
        <time>2015-07-25T19:23:44Z</time>
      </trkpt>
      <trkpt lat="42.01319" lon="8.4227">
        <ele>-3.7078857421875</ele>
        <time>2015-07-25T19:24:03Z</time>
      </trkpt>
      <trkpt lat="42.01298" lon="8.42304">
        <ele>-3.227294921875</ele>
        <time>2015-07-25T19:24:22Z</time>
      </trkpt>
      <trkpt lat="42.01273" lon="8.42332">
        <ele>-4.6693115234375</ele>
        <time>2015-07-25T19:24:40Z</time>
      </trkpt>
      <trkpt lat="42.01246" lon="8.4237">
        <ele>-3.227294921875</ele>
        <time>2015-07-25T19:24:58Z</time>
      </trkpt>
      <trkpt lat="42.01216" lon="8.42405">
        <ele>-3.7078857421875</ele>
        <time>2015-07-25T19:25:18Z</time>
      </trkpt>
      <trkpt lat="42.01184" lon="8.42446">
        <ele>-3.227294921875</ele>
        <time>2015-07-25T19:25:39Z</time>
      </trkpt>
      <trkpt lat="42.0116" lon="8.42478">
        <ele>-5.14990234375</ele>
        <time>2015-07-25T19:25:54Z</time>
      </trkpt>
      <trkpt lat="42.01123" lon="8.42527">
        <ele>-4.1885986328125</ele>
        <time>2015-07-25T19:26:19Z</time>
      </trkpt>
      <trkpt lat="42.01099" lon="8.42557">
        <ele>-5.6304931640625</ele>
        <time>2015-07-25T19:26:35Z</time>
      </trkpt>
      <trkpt lat="42.0106" lon="8.42603">
        <ele>-3.227294921875</ele>
        <time>2015-07-25T19:27:01Z</time>
      </trkpt>
      <trkpt lat="42.01018" lon="8.42655">
        <ele>-3.7078857421875</ele>
        <time>2015-07-25T19:27:32Z</time>
      </trkpt>
      <trkpt lat="42.0099" lon="8.42685">
        <ele>-4.1885986328125</ele>
        <time>2015-07-25T19:27:50Z</time>
      </trkpt>
      <trkpt lat="42.00966" lon="8.42719">
        <ele>-5.14990234375</ele>
        <time>2015-07-25T19:28:10Z</time>
      </trkpt>
      <trkpt lat="42.0094" lon="8.4275">
        <ele>-4.6693115234375</ele>
        <time>2015-07-25T19:28:28Z</time>
      </trkpt>
      <trkpt lat="42.00909" lon="8.42788">
        <ele>-5.6304931640625</ele>
        <time>2015-07-25T19:28:52Z</time>
      </trkpt>
      <trkpt lat="42.00884" lon="8.42816">
        <ele>-2.7467041015625</ele>
        <time>2015-07-25T19:29:06Z</time>
      </trkpt>
      <trkpt lat="42.0086" lon="8.42845">
        <ele>-5.14990234375</ele>
        <time>2015-07-25T19:29:22Z</time>
      </trkpt>
      <trkpt lat="42.00829" lon="8.42882">
        <ele>-4.6693115234375</ele>
        <time>2015-07-25T19:29:41Z</time>
      </trkpt>
      <trkpt lat="42.00801" lon="8.42918">
        <ele>-5.14990234375</ele>
        <time>2015-07-25T19:29:59Z</time>
      </trkpt>
      <trkpt lat="42.00753" lon="8.42958">
        <ele>-4.1885986328125</ele>
        <time>2015-07-25T19:30:25Z</time>
      </trkpt>
      <trkpt lat="42.00717" lon="8.42992">
        <ele>-4.6693115234375</ele>
        <time>2015-07-25T19:30:46Z</time>
      </trkpt>
      <trkpt lat="42.0069" lon="8.43024">
        <ele>-4.1885986328125</ele>
        <time>2015-07-25T19:31:02Z</time>
      </trkpt>
      <trkpt lat="42.00659" lon="8.4306">
        <ele>-5.14990234375</ele>
        <time>2015-07-25T19:31:22Z</time>
      </trkpt>
      <trkpt lat="42.00613" lon="8.43112">
        <ele>-4.6693115234375</ele>
        <time>2015-07-25T19:31:51Z</time>
      </trkpt>
      <trkpt lat="42.0058" lon="8.43145">
        <ele>-5.14990234375</ele>
        <time>2015-07-25T19:32:11Z</time>
      </trkpt>
      <trkpt lat="42.00553" lon="8.4317">
        <ele>-5.14990234375</ele>
        <time>2015-07-25T19:32:28Z</time>
      </trkpt>
      <trkpt lat="42.00526" lon="8.43201">
        <ele>-6.1112060546875</ele>
        <time>2015-07-25T19:32:46Z</time>
      </trkpt>
      <trkpt lat="42.00499" lon="8.43229">
        <ele>-4.1885986328125</ele>
        <time>2015-07-25T19:33:02Z</time>
      </trkpt>
      <trkpt lat="42.00472" lon="8.43258">
        <ele>-4.1885986328125</ele>
        <time>2015-07-25T19:33:16Z</time>
      </trkpt>
      <trkpt lat="42.00433" lon="8.433">
        <ele>-5.14990234375</ele>
        <time>2015-07-25T19:33:37Z</time>
      </trkpt>
      <trkpt lat="42.00398" lon="8.43337">
        <ele>-5.6304931640625</ele>
        <time>2015-07-25T19:33:58Z</time>
      </trkpt>
      <trkpt lat="42.00368" lon="8.43369">
        <ele>-5.14990234375</ele>
        <time>2015-07-25T19:34:15Z</time>
      </trkpt>
      <trkpt lat="42.00343" lon="8.43393">
        <ele>-6.5919189453125</ele>
        <time>2015-07-25T19:34:30Z</time>
      </trkpt>
      <trkpt lat="42.00305" lon="8.43445">
        <ele>-4.1885986328125</ele>
        <time>2015-07-25T19:34:55Z</time>
      </trkpt>
      <trkpt lat="42.00273" lon="8.43482">
        <ele>-6.1112060546875</ele>
        <time>2015-07-25T19:35:15Z</time>
      </trkpt>
      <trkpt lat="42.00241" lon="8.43523">
        <ele>-5.14990234375</ele>
        <time>2015-07-25T19:35:38Z</time>
      </trkpt>
      <trkpt lat="42.00212" lon="8.4356">
        <ele>-4.1885986328125</ele>
        <time>2015-07-25T19:36:00Z</time>
      </trkpt>
      <trkpt lat="42.00184" lon="8.43593">
        <ele>-3.7078857421875</ele>
        <time>2015-07-25T19:36:17Z</time>
      </trkpt>
      <trkpt lat="42.00161" lon="8.43625">
        <ele>-2.7467041015625</ele>
        <time>2015-07-25T19:36:32Z</time>
      </trkpt>
      <trkpt lat="42.00128" lon="8.43656">
        <ele>-5.14990234375</ele>
        <time>2015-07-25T19:36:51Z</time>
      </trkpt>
      <trkpt lat="42.00091" lon="8.43672">
        <ele>-1.3046875</ele>
        <time>2015-07-25T19:37:09Z</time>
      </trkpt>
      <trkpt lat="42.00043" lon="8.43711">
        <ele>-5.6304931640625</ele>
        <time>2015-07-25T19:37:34Z</time>
      </trkpt>
      <trkpt lat="42.00006" lon="8.43733">
        <ele>-5.14990234375</ele>
        <time>2015-07-25T19:37:52Z</time>
      </trkpt>
      <trkpt lat="41.99987" lon="8.43774">
        <ele>-6.5919189453125</ele>
        <time>2015-07-25T19:38:10Z</time>
      </trkpt>
      <trkpt lat="41.99964" lon="8.43817">
        <ele>-3.7078857421875</ele>
        <time>2015-07-25T19:38:29Z</time>
      </trkpt>
      <trkpt lat="41.99938" lon="8.43845">
        <ele>-4.6693115234375</ele>
        <time>2015-07-25T19:38:45Z</time>
      </trkpt>
      <trkpt lat="41.99909" lon="8.43871">
        <ele>-6.1112060546875</ele>
        <time>2015-07-25T19:39:01Z</time>
      </trkpt>
      <trkpt lat="41.99877" lon="8.43908">
        <ele>-5.6304931640625</ele>
        <time>2015-07-25T19:39:22Z</time>
      </trkpt>
      <trkpt lat="41.99838" lon="8.43952">
        <ele>-7.5531005859375</ele>
        <time>2015-07-25T19:39:47Z</time>
      </trkpt>
      <trkpt lat="41.99801" lon="8.43989">
        <ele>-6.5919189453125</ele>
        <time>2015-07-25T19:40:10Z</time>
      </trkpt>
      <trkpt lat="41.99768" lon="8.44026">
        <ele>-4.6693115234375</ele>
        <time>2015-07-25T19:40:33Z</time>
      </trkpt>
      <trkpt lat="41.99735" lon="8.44066">
        <ele>-5.6304931640625</ele>
        <time>2015-07-25T19:40:55Z</time>
      </trkpt>
      <trkpt lat="41.9971" lon="8.4409">
        <ele>-4.6693115234375</ele>
        <time>2015-07-25T19:41:08Z</time>
      </trkpt>
      <trkpt lat="41.99683" lon="8.44116">
        <ele>-4.6693115234375</ele>
        <time>2015-07-25T19:41:20Z</time>
      </trkpt>
      <trkpt lat="41.99651" lon="8.44149">
        <ele>-6.1112060546875</ele>
        <time>2015-07-25T19:41:36Z</time>
      </trkpt>
      <trkpt lat="41.99626" lon="8.44178">
        <ele>-6.5919189453125</ele>
        <time>2015-07-25T19:41:50Z</time>
      </trkpt>
      <trkpt lat="41.99603" lon="8.44214">
        <ele>-5.6304931640625</ele>
        <time>2015-07-25T19:42:04Z</time>
      </trkpt>
      <trkpt lat="41.99573" lon="8.44251">
        <ele>-5.6304931640625</ele>
        <time>2015-07-25T19:42:21Z</time>
      </trkpt>
      <trkpt lat="41.99547" lon="8.44286">
        <ele>-5.6304931640625</ele>
        <time>2015-07-25T19:42:36Z</time>
      </trkpt>
      <trkpt lat="41.99507" lon="8.44329">
        <ele>-4.6693115234375</ele>
        <time>2015-07-25T19:42:57Z</time>
      </trkpt>
      <trkpt lat="41.99482" lon="8.44362">
        <ele>-6.5919189453125</ele>
        <time>2015-07-25T19:43:11Z</time>
      </trkpt>
      <trkpt lat="41.99446" lon="8.44394">
        <ele>-7.072509765625</ele>
        <time>2015-07-25T19:43:28Z</time>
      </trkpt>
      <trkpt lat="41.99414" lon="8.44416">
        <ele>-5.6304931640625</ele>
        <time>2015-07-25T19:43:41Z</time>
      </trkpt>
      <trkpt lat="41.99381" lon="8.44437">
        <ele>-6.5919189453125</ele>
        <time>2015-07-25T19:43:55Z</time>
      </trkpt>
      <trkpt lat="41.99326" lon="8.44485">
        <ele>-6.5919189453125</ele>
        <time>2015-07-25T19:44:21Z</time>
      </trkpt>
      <trkpt lat="41.99299" lon="8.4452">
        <ele>-6.1112060546875</ele>
        <time>2015-07-25T19:44:34Z</time>
      </trkpt>
      <trkpt lat="41.99276" lon="8.44553">
        <ele>-6.1112060546875</ele>
        <time>2015-07-25T19:44:46Z</time>
      </trkpt>
      <trkpt lat="41.99237" lon="8.44595">
        <ele>-5.6304931640625</ele>
        <time>2015-07-25T19:45:05Z</time>
      </trkpt>
      <trkpt lat="41.99205" lon="8.4464">
        <ele>-7.5531005859375</ele>
        <time>2015-07-25T19:45:22Z</time>
      </trkpt>
      <trkpt lat="41.9918" lon="8.44678">
        <ele>-6.1112060546875</ele>
        <time>2015-07-25T19:45:36Z</time>
      </trkpt>
      <trkpt lat="41.99156" lon="8.44711">
        <ele>-5.6304931640625</ele>
        <time>2015-07-25T19:45:49Z</time>
      </trkpt>
      <trkpt lat="41.99127" lon="8.44743">
        <ele>-7.5531005859375</ele>
        <time>2015-07-25T19:46:05Z</time>
      </trkpt>
      <trkpt lat="41.99102" lon="8.44775">
        <ele>-5.6304931640625</ele>
        <time>2015-07-25T19:46:19Z</time>
      </trkpt>
      <trkpt lat="41.99079" lon="8.44807">
        <ele>-5.14990234375</ele>
        <time>2015-07-25T19:46:30Z</time>
      </trkpt>
      <trkpt lat="41.99052" lon="8.4484">
        <ele>-7.5531005859375</ele>
        <time>2015-07-25T19:46:44Z</time>
      </trkpt>
      <trkpt lat="41.99023" lon="8.44878">
        <ele>-5.14990234375</ele>
        <time>2015-07-25T19:46:58Z</time>
      </trkpt>
      <trkpt lat="41.99001" lon="8.44909">
        <ele>-5.14990234375</ele>
        <time>2015-07-25T19:47:09Z</time>
      </trkpt>
      <trkpt lat="41.98978" lon="8.44941">
        <ele>-7.072509765625</ele>
        <time>2015-07-25T19:47:23Z</time>
      </trkpt>
      <trkpt lat="41.98941" lon="8.44998">
        <ele>-6.1112060546875</ele>
        <time>2015-07-25T19:47:46Z</time>
      </trkpt>
      <trkpt lat="41.98911" lon="8.4504">
        <ele>-7.5531005859375</ele>
        <time>2015-07-25T19:48:03Z</time>
      </trkpt>
      <trkpt lat="41.98884" lon="8.45075">
        <ele>-4.6693115234375</ele>
        <time>2015-07-25T19:48:17Z</time>
      </trkpt>
      <trkpt lat="41.98842" lon="8.45133">
        <ele>-6.1112060546875</ele>
        <time>2015-07-25T19:48:42Z</time>
      </trkpt>
      <trkpt lat="41.98803" lon="8.45185">
        <ele>-6.5919189453125</ele>
        <time>2015-07-25T19:49:03Z</time>
      </trkpt>
      <trkpt lat="41.98779" lon="8.45219">
        <ele>-6.1112060546875</ele>
        <time>2015-07-25T19:49:18Z</time>
      </trkpt>
      <trkpt lat="41.98754" lon="8.45249">
        <ele>-5.14990234375</ele>
        <time>2015-07-25T19:49:31Z</time>
      </trkpt>
      <trkpt lat="41.9873" lon="8.45284">
        <ele>-7.5531005859375</ele>
        <time>2015-07-25T19:49:46Z</time>
      </trkpt>
      <trkpt lat="41.98692" lon="8.45331">
        <ele>-6.1112060546875</ele>
        <time>2015-07-25T19:50:06Z</time>
      </trkpt>
      <trkpt lat="41.98645" lon="8.45391">
        <ele>-4.6693115234375</ele>
        <time>2015-07-25T19:50:32Z</time>
      </trkpt>
      <trkpt lat="41.98607" lon="8.45442">
        <ele>-5.14990234375</ele>
        <time>2015-07-25T19:50:52Z</time>
      </trkpt>
      <trkpt lat="41.98569" lon="8.45493">
        <ele>-5.14990234375</ele>
        <time>2015-07-25T19:51:13Z</time>
      </trkpt>
      <trkpt lat="41.98544" lon="8.45529">
        <ele>-7.5531005859375</ele>
        <time>2015-07-25T19:51:29Z</time>
      </trkpt>
      <trkpt lat="41.98512" lon="8.45572">
        <ele>-7.072509765625</ele>
        <time>2015-07-25T19:51:47Z</time>
      </trkpt>
      <trkpt lat="41.98487" lon="8.45602">
        <ele>-6.5919189453125</ele>
        <time>2015-07-25T19:52:00Z</time>
      </trkpt>
      <trkpt lat="41.98444" lon="8.45657">
        <ele>-5.6304931640625</ele>
        <time>2015-07-25T19:52:23Z</time>
      </trkpt>
      <trkpt lat="41.98411" lon="8.45705">
        <ele>-6.5919189453125</ele>
        <time>2015-07-25T19:52:42Z</time>
      </trkpt>
      <trkpt lat="41.98388" lon="8.45732">
        <ele>-7.5531005859375</ele>
        <time>2015-07-25T19:52:54Z</time>
      </trkpt>
      <trkpt lat="41.98351" lon="8.45776">
        <ele>-5.6304931640625</ele>
        <time>2015-07-25T19:53:15Z</time>
      </trkpt>
      <trkpt lat="41.98299" lon="8.45843">
        <ele>-5.14990234375</ele>
        <time>2015-07-25T19:53:42Z</time>
      </trkpt>
      <trkpt lat="41.98275" lon="8.45876">
        <ele>-6.5919189453125</ele>
        <time>2015-07-25T19:53:55Z</time>
      </trkpt>
      <trkpt lat="41.98249" lon="8.45905">
        <ele>-6.1112060546875</ele>
        <time>2015-07-25T19:54:08Z</time>
      </trkpt>
      <trkpt lat="41.98226" lon="8.45938">
        <ele>-6.5919189453125</ele>
        <time>2015-07-25T19:54:20Z</time>
      </trkpt>
      <trkpt lat="41.98195" lon="8.45979">
        <ele>-6.1112060546875</ele>
        <time>2015-07-25T19:54:37Z</time>
      </trkpt>
      <trkpt lat="41.9817" lon="8.46007">
        <ele>-6.1112060546875</ele>
        <time>2015-07-25T19:54:50Z</time>
      </trkpt>
      <trkpt lat="41.98132" lon="8.46062">
        <ele>-5.6304931640625</ele>
        <time>2015-07-25T19:55:14Z</time>
      </trkpt>
      <trkpt lat="41.98108" lon="8.46093">
        <ele>-7.5531005859375</ele>
        <time>2015-07-25T19:55:27Z</time>
      </trkpt>
      <trkpt lat="41.98079" lon="8.46128">
        <ele>-8.033935546875</ele>
        <time>2015-07-25T19:55:44Z</time>
      </trkpt>
      <trkpt lat="41.98055" lon="8.46161">
        <ele>-6.1112060546875</ele>
        <time>2015-07-25T19:55:58Z</time>
      </trkpt>
      <trkpt lat="41.98025" lon="8.46198">
        <ele>-6.5919189453125</ele>
        <time>2015-07-25T19:56:13Z</time>
      </trkpt>
      <trkpt lat="41.97988" lon="8.4625">
        <ele>-6.1112060546875</ele>
        <time>2015-07-25T19:56:36Z</time>
      </trkpt>
      <trkpt lat="41.97946" lon="8.46301">
        <ele>-5.6304931640625</ele>
        <time>2015-07-25T19:56:58Z</time>
      </trkpt>
      <trkpt lat="41.97922" lon="8.46334">
        <ele>-6.5919189453125</ele>
        <time>2015-07-25T19:57:12Z</time>
      </trkpt>
      <trkpt lat="41.97891" lon="8.46371">
        <ele>-5.6304931640625</ele>
        <time>2015-07-25T19:57:30Z</time>
      </trkpt>
      <trkpt lat="41.97861" lon="8.46411">
        <ele>-6.5919189453125</ele>
        <time>2015-07-25T19:57:48Z</time>
      </trkpt>
      <trkpt lat="41.97832" lon="8.46441">
        <ele>-7.072509765625</ele>
        <time>2015-07-25T19:58:05Z</time>
      </trkpt>
      <trkpt lat="41.97802" lon="8.46482">
        <ele>-7.5531005859375</ele>
        <time>2015-07-25T19:58:23Z</time>
      </trkpt>
      <trkpt lat="41.97767" lon="8.46524">
        <ele>-7.5531005859375</ele>
        <time>2015-07-25T19:58:44Z</time>
      </trkpt>
      <trkpt lat="41.97722" lon="8.46579">
        <ele>-7.5531005859375</ele>
        <time>2015-07-25T19:59:08Z</time>
      </trkpt>
      <trkpt lat="41.97681" lon="8.46632">
        <ele>-8.033935546875</ele>
        <time>2015-07-25T19:59:31Z</time>
      </trkpt>
      <trkpt lat="41.97651" lon="8.46667">
        <ele>-8.5146484375</ele>
        <time>2015-07-25T19:59:47Z</time>
      </trkpt>
      <trkpt lat="41.97622" lon="8.46702">
        <ele>-8.5146484375</ele>
        <time>2015-07-25T20:00:03Z</time>
      </trkpt>
      <trkpt lat="41.97593" lon="8.46733">
        <ele>-7.5531005859375</ele>
        <time>2015-07-25T20:00:19Z</time>
      </trkpt>
      <trkpt lat="41.97565" lon="8.4677">
        <ele>-8.9952392578125</ele>
        <time>2015-07-25T20:00:35Z</time>
      </trkpt>
      <trkpt lat="41.9754" lon="8.468">
        <ele>-7.5531005859375</ele>
        <time>2015-07-25T20:00:48Z</time>
      </trkpt>
      <trkpt lat="41.97512" lon="8.46835">
        <ele>-7.5531005859375</ele>
        <time>2015-07-25T20:01:02Z</time>
      </trkpt>
      <trkpt lat="41.97477" lon="8.46872">
        <ele>-7.072509765625</ele>
        <time>2015-07-25T20:01:21Z</time>
      </trkpt>
      <trkpt lat="41.97453" lon="8.46902">
        <ele>-8.5146484375</ele>
        <time>2015-07-25T20:01:33Z</time>
      </trkpt>
      <trkpt lat="41.97428" lon="8.46936">
        <ele>-7.072509765625</ele>
        <time>2015-07-25T20:01:47Z</time>
      </trkpt>
      <trkpt lat="41.97399" lon="8.46974">
        <ele>-7.072509765625</ele>
        <time>2015-07-25T20:02:06Z</time>
      </trkpt>
      <trkpt lat="41.97372" lon="8.47012">
        <ele>-8.9952392578125</ele>
        <time>2015-07-25T20:02:22Z</time>
      </trkpt>
      <trkpt lat="41.97347" lon="8.4704">
        <ele>-8.033935546875</ele>
        <time>2015-07-25T20:02:36Z</time>
      </trkpt>
      <trkpt lat="41.97314" lon="8.47076">
        <ele>-8.5146484375</ele>
        <time>2015-07-25T20:02:54Z</time>
      </trkpt>
      <trkpt lat="41.97286" lon="8.47109">
        <ele>-8.5146484375</ele>
        <time>2015-07-25T20:03:10Z</time>
      </trkpt>
      <trkpt lat="41.9726" lon="8.47137">
        <ele>-9.95654296875</ele>
        <time>2015-07-25T20:03:24Z</time>
      </trkpt>
      <trkpt lat="41.97228" lon="8.47179">
        <ele>-9.475830078125</ele>
        <time>2015-07-25T20:03:43Z</time>
      </trkpt>
      <trkpt lat="41.97185" lon="8.47227">
        <ele>-9.475830078125</ele>
        <time>2015-07-25T20:04:05Z</time>
      </trkpt>
      <trkpt lat="41.9716" lon="8.47254">
        <ele>-8.033935546875</ele>
        <time>2015-07-25T20:04:18Z</time>
      </trkpt>
      <trkpt lat="41.97123" lon="8.47301">
        <ele>-9.475830078125</ele>
        <time>2015-07-25T20:04:39Z</time>
      </trkpt>
      <trkpt lat="41.97097" lon="8.47334">
        <ele>-8.5146484375</ele>
        <time>2015-07-25T20:04:56Z</time>
      </trkpt>
      <trkpt lat="41.97065" lon="8.47371">
        <ele>-7.5531005859375</ele>
        <time>2015-07-25T20:05:14Z</time>
      </trkpt>
      <trkpt lat="41.97039" lon="8.47404">
        <ele>-8.9952392578125</ele>
        <time>2015-07-25T20:05:29Z</time>
      </trkpt>
      <trkpt lat="41.97005" lon="8.47453">
        <ele>-8.5146484375</ele>
        <time>2015-07-25T20:05:49Z</time>
      </trkpt>
      <trkpt lat="41.96959" lon="8.47507">
        <ele>-8.033935546875</ele>
        <time>2015-07-25T20:06:15Z</time>
      </trkpt>
      <trkpt lat="41.96919" lon="8.47555">
        <ele>-7.072509765625</ele>
        <time>2015-07-25T20:06:37Z</time>
      </trkpt>
      <trkpt lat="41.9689" lon="8.47586">
        <ele>-7.5531005859375</ele>
        <time>2015-07-25T20:06:53Z</time>
      </trkpt>
      <trkpt lat="41.96859" lon="8.47629">
        <ele>-8.5146484375</ele>
        <time>2015-07-25T20:07:11Z</time>
      </trkpt>
      <trkpt lat="41.96832" lon="8.47657">
        <ele>-8.033935546875</ele>
        <time>2015-07-25T20:07:25Z</time>
      </trkpt>
      <trkpt lat="41.96807" lon="8.47685">
        <ele>-8.9952392578125</ele>
        <time>2015-07-25T20:07:39Z</time>
      </trkpt>
      <trkpt lat="41.96776" lon="8.47719">
        <ele>-8.5146484375</ele>
        <time>2015-07-25T20:07:55Z</time>
      </trkpt>
      <trkpt lat="41.96736" lon="8.47764">
        <ele>-8.5146484375</ele>
        <time>2015-07-25T20:08:16Z</time>
      </trkpt>
      <trkpt lat="41.96713" lon="8.47794">
        <ele>-7.072509765625</ele>
        <time>2015-07-25T20:08:28Z</time>
      </trkpt>
      <trkpt lat="41.96689" lon="8.47824">
        <ele>-8.9952392578125</ele>
        <time>2015-07-25T20:08:41Z</time>
      </trkpt>
      <trkpt lat="41.96664" lon="8.47851">
        <ele>-7.5531005859375</ele>
        <time>2015-07-25T20:08:53Z</time>
      </trkpt>
      <trkpt lat="41.96623" lon="8.47892">
        <ele>-8.5146484375</ele>
        <time>2015-07-25T20:09:15Z</time>
      </trkpt>
      <trkpt lat="41.96597" lon="8.47932">
        <ele>-7.5531005859375</ele>
        <time>2015-07-25T20:09:32Z</time>
      </trkpt>
      <trkpt lat="41.96568" lon="8.47966">
        <ele>-7.5531005859375</ele>
        <time>2015-07-25T20:09:49Z</time>
      </trkpt>
      <trkpt lat="41.96536" lon="8.48">
        <ele>-9.475830078125</ele>
        <time>2015-07-25T20:10:08Z</time>
      </trkpt>
      <trkpt lat="41.96508" lon="8.48035">
        <ele>-6.5919189453125</ele>
        <time>2015-07-25T20:10:23Z</time>
      </trkpt>
      <trkpt lat="41.9647" lon="8.48081">
        <ele>-8.033935546875</ele>
        <time>2015-07-25T20:10:45Z</time>
      </trkpt>
      <trkpt lat="41.96438" lon="8.48122">
        <ele>-6.5919189453125</ele>
        <time>2015-07-25T20:11:03Z</time>
      </trkpt>
      <trkpt lat="41.96397" lon="8.48168">
        <ele>-7.072509765625</ele>
        <time>2015-07-25T20:11:25Z</time>
      </trkpt>
      <trkpt lat="41.96369" lon="8.48202">
        <ele>-7.072509765625</ele>
        <time>2015-07-25T20:11:41Z</time>
      </trkpt>
      <trkpt lat="41.96325" lon="8.4825">
        <ele>-6.5919189453125</ele>
        <time>2015-07-25T20:12:05Z</time>
      </trkpt>
      <trkpt lat="41.9629" lon="8.48292">
        <ele>-7.5531005859375</ele>
        <time>2015-07-25T20:12:25Z</time>
      </trkpt>
      <trkpt lat="41.96266" lon="8.48321">
        <ele>-7.5531005859375</ele>
        <time>2015-07-25T20:12:38Z</time>
      </trkpt>
      <trkpt lat="41.96235" lon="8.48354">
        <ele>-7.072509765625</ele>
        <time>2015-07-25T20:12:55Z</time>
      </trkpt>
      <trkpt lat="41.9619" lon="8.48407">
        <ele>-7.5531005859375</ele>
        <time>2015-07-25T20:13:18Z</time>
      </trkpt>
      <trkpt lat="41.96165" lon="8.48441">
        <ele>-8.033935546875</ele>
        <time>2015-07-25T20:13:33Z</time>
      </trkpt>
      <trkpt lat="41.96139" lon="8.48474">
        <ele>-6.5919189453125</ele>
        <time>2015-07-25T20:13:47Z</time>
      </trkpt>
      <trkpt lat="41.96115" lon="8.48505">
        <ele>-7.5531005859375</ele>
        <time>2015-07-25T20:14:00Z</time>
      </trkpt>
      <trkpt lat="41.96102" lon="8.48521">
        <ele>-6.5919189453125</ele>
        <time>2015-07-25T20:14:08Z</time>
      </trkpt>
      <trkpt lat="41.96085" lon="8.48541">
        <ele>-7.072509765625</ele>
        <time>2015-07-25T20:14:17Z</time>
      </trkpt>
      <trkpt lat="41.96075" lon="8.48554">
        <ele>-9.475830078125</ele>
        <time>2015-07-25T20:14:23Z</time>
      </trkpt>
      <trkpt lat="41.96068" lon="8.48564">
        <ele>-6.5919189453125</ele>
        <time>2015-07-25T20:14:27Z</time>
      </trkpt>
      <trkpt lat="41.9606" lon="8.48572">
        <ele>-7.072509765625</ele>
        <time>2015-07-25T20:14:31Z</time>
      </trkpt>
      <trkpt lat="41.96054" lon="8.48576">
        <ele>-8.033935546875</ele>
        <time>2015-07-25T20:14:34Z</time>
      </trkpt>
      <trkpt lat="41.96051" lon="8.48582">
        <ele>-7.5531005859375</ele>
        <time>2015-07-25T20:14:36Z</time>
      </trkpt>
      <trkpt lat="41.96048" lon="8.48585">
        <ele>-6.1112060546875</ele>
        <time>2015-07-25T20:14:38Z</time>
      </trkpt>
      <trkpt lat="41.96029" lon="8.48605">
        <ele>-7.072509765625</ele>
        <time>2015-07-25T20:14:49Z</time>
      </trkpt>
      <trkpt lat="41.96012" lon="8.48624">
        <ele>-8.5146484375</ele>
        <time>2015-07-25T20:15:00Z</time>
      </trkpt>
      <trkpt lat="41.96006" lon="8.48632">
        <ele>-6.5919189453125</ele>
        <time>2015-07-25T20:15:03Z</time>
      </trkpt>
      <trkpt lat="41.95989" lon="8.48656">
        <ele>-6.1112060546875</ele>
        <time>2015-07-25T20:15:15Z</time>
      </trkpt>
      <trkpt lat="41.9598" lon="8.48667">
        <ele>-8.033935546875</ele>
        <time>2015-07-25T20:15:21Z</time>
      </trkpt>
      <trkpt lat="41.95974" lon="8.48674">
        <ele>-5.6304931640625</ele>
        <time>2015-07-25T20:15:24Z</time>
      </trkpt>
      <trkpt lat="41.95969" lon="8.48679">
        <ele>-7.5531005859375</ele>
        <time>2015-07-25T20:15:27Z</time>
      </trkpt>
      <trkpt lat="41.9595" lon="8.48698">
        <ele>-8.033935546875</ele>
        <time>2015-07-25T20:15:36Z</time>
      </trkpt>
      <trkpt lat="41.95939" lon="8.48718">
        <ele>-7.072509765625</ele>
        <time>2015-07-25T20:15:44Z</time>
      </trkpt>
      <trkpt lat="41.95933" lon="8.48723">
        <ele>-6.5919189453125</ele>
        <time>2015-07-25T20:15:47Z</time>
      </trkpt>
      <trkpt lat="41.95916" lon="8.48747">
        <ele>-7.072509765625</ele>
        <time>2015-07-25T20:15:58Z</time>
      </trkpt>
      <trkpt lat="41.95904" lon="8.48758">
        <ele>-7.5531005859375</ele>
        <time>2015-07-25T20:16:04Z</time>
      </trkpt>
      <trkpt lat="41.95883" lon="8.48784">
        <ele>-5.6304931640625</ele>
        <time>2015-07-25T20:16:15Z</time>
      </trkpt>
      <trkpt lat="41.95877" lon="8.48789">
        <ele>-7.5531005859375</ele>
        <time>2015-07-25T20:16:18Z</time>
      </trkpt>
      <trkpt lat="41.95864" lon="8.48807">
        <ele>-5.6304931640625</ele>
        <time>2015-07-25T20:16:25Z</time>
      </trkpt>
      <trkpt lat="41.95862" lon="8.4881">
        <ele>-7.072509765625</ele>
        <time>2015-07-25T20:16:26Z</time>
      </trkpt>
      <trkpt lat="41.95857" lon="8.48816">
        <ele>-8.5146484375</ele>
        <time>2015-07-25T20:16:29Z</time>
      </trkpt>
      <trkpt lat="41.95851" lon="8.48824">
        <ele>-6.5919189453125</ele>
        <time>2015-07-25T20:16:32Z</time>
      </trkpt>
      <trkpt lat="41.95829" lon="8.48848">
        <ele>-5.6304931640625</ele>
        <time>2015-07-25T20:16:43Z</time>
      </trkpt>
      <trkpt lat="41.95825" lon="8.48852">
        <ele>-7.072509765625</ele>
        <time>2015-07-25T20:16:45Z</time>
      </trkpt>
      <trkpt lat="41.95793" lon="8.48883">
        <ele>-6.1112060546875</ele>
        <time>2015-07-25T20:17:02Z</time>
      </trkpt>
      <trkpt lat="41.95782" lon="8.48899">
        <ele>-7.5531005859375</ele>
        <time>2015-07-25T20:17:09Z</time>
      </trkpt>
      <trkpt lat="41.95775" lon="8.4891">
        <ele>-6.5919189453125</ele>
        <time>2015-07-25T20:17:13Z</time>
      </trkpt>
      <trkpt lat="41.95753" lon="8.48941">
        <ele>-7.5531005859375</ele>
        <time>2015-07-25T20:17:28Z</time>
      </trkpt>
      <trkpt lat="41.95741" lon="8.48962">
        <ele>-7.5531005859375</ele>
        <time>2015-07-25T20:17:36Z</time>
      </trkpt>
      <trkpt lat="41.95733" lon="8.48974">
        <ele>-5.6304931640625</ele>
        <time>2015-07-25T20:17:41Z</time>
      </trkpt>
      <trkpt lat="41.95711" lon="8.49001">
        <ele>-6.5919189453125</ele>
        <time>2015-07-25T20:17:53Z</time>
      </trkpt>
      <trkpt lat="41.95691" lon="8.49024">
        <ele>-7.072509765625</ele>
        <time>2015-07-25T20:18:04Z</time>
      </trkpt>
      <trkpt lat="41.95688" lon="8.49028">
        <ele>-6.1112060546875</ele>
        <time>2015-07-25T20:18:06Z</time>
      </trkpt>
      <trkpt lat="41.95668" lon="8.49052">
        <ele>-5.6304931640625</ele>
        <time>2015-07-25T20:18:16Z</time>
      </trkpt>
      <trkpt lat="41.95662" lon="8.49058">
        <ele>-7.5531005859375</ele>
        <time>2015-07-25T20:18:19Z</time>
      </trkpt>
      <trkpt lat="41.95654" lon="8.49067">
        <ele>-5.6304931640625</ele>
        <time>2015-07-25T20:18:23Z</time>
      </trkpt>
      <trkpt lat="41.95646" lon="8.49075">
        <ele>-7.5531005859375</ele>
        <time>2015-07-25T20:18:27Z</time>
      </trkpt>
      <trkpt lat="41.95625" lon="8.49101">
        <ele>-7.072509765625</ele>
        <time>2015-07-25T20:18:39Z</time>
      </trkpt>
      <trkpt lat="41.95614" lon="8.49113">
        <ele>-7.5531005859375</ele>
        <time>2015-07-25T20:18:44Z</time>
      </trkpt>
      <trkpt lat="41.95602" lon="8.49127">
        <ele>-6.5919189453125</ele>
        <time>2015-07-25T20:18:51Z</time>
      </trkpt>
      <trkpt lat="41.95596" lon="8.49135">
        <ele>-6.1112060546875</ele>
        <time>2015-07-25T20:18:54Z</time>
      </trkpt>
      <trkpt lat="41.95591" lon="8.49139">
        <ele>-7.5531005859375</ele>
        <time>2015-07-25T20:18:56Z</time>
      </trkpt>
      <trkpt lat="41.95579" lon="8.49149">
        <ele>-5.6304931640625</ele>
        <time>2015-07-25T20:19:02Z</time>
      </trkpt>
      <trkpt lat="41.95571" lon="8.49156">
        <ele>-8.5146484375</ele>
        <time>2015-07-25T20:19:06Z</time>
      </trkpt>
      <trkpt lat="41.95558" lon="8.49171">
        <ele>-6.5919189453125</ele>
        <time>2015-07-25T20:19:13Z</time>
      </trkpt>
      <trkpt lat="41.95555" lon="8.49175">
        <ele>-8.5146484375</ele>
        <time>2015-07-25T20:19:16Z</time>
      </trkpt>
      <trkpt lat="41.95546" lon="8.49183">
        <ele>-6.5919189453125</ele>
        <time>2015-07-25T20:19:20Z</time>
      </trkpt>
      <trkpt lat="41.95525" lon="8.49212">
        <ele>-7.5531005859375</ele>
        <time>2015-07-25T20:19:33Z</time>
      </trkpt>
      <trkpt lat="41.95517" lon="8.49223">
        <ele>-7.5531005859375</ele>
        <time>2015-07-25T20:19:38Z</time>
      </trkpt>
      <trkpt lat="41.95488" lon="8.49243">
        <ele>-6.5919189453125</ele>
        <time>2015-07-25T20:19:52Z</time>
      </trkpt>
      <trkpt lat="41.95468" lon="8.49268">
        <ele>-7.5531005859375</ele>
        <time>2015-07-25T20:20:06Z</time>
      </trkpt>
      <trkpt lat="41.95461" lon="8.49274">
        <ele>-7.5531005859375</ele>
        <time>2015-07-25T20:20:10Z</time>
      </trkpt>
      <trkpt lat="41.95454" lon="8.49282">
        <ele>-6.5919189453125</ele>
        <time>2015-07-25T20:20:14Z</time>
      </trkpt>
      <trkpt lat="41.95429" lon="8.49315">
        <ele>-6.5919189453125</ele>
        <time>2015-07-25T20:20:30Z</time>
      </trkpt>
      <trkpt lat="41.95408" lon="8.49337">
        <ele>-7.5531005859375</ele>
        <time>2015-07-25T20:20:41Z</time>
      </trkpt>
      <trkpt lat="41.95404" lon="8.49342">
        <ele>-6.1112060546875</ele>
        <time>2015-07-25T20:20:44Z</time>
      </trkpt>
      <trkpt lat="41.95388" lon="8.4936">
        <ele>-7.5531005859375</ele>
        <time>2015-07-25T20:20:54Z</time>
      </trkpt>
      <trkpt lat="41.9538" lon="8.49382">
        <ele>-6.5919189453125</ele>
        <time>2015-07-25T20:21:03Z</time>
      </trkpt>
      <trkpt lat="41.95361" lon="8.49401">
        <ele>-7.072509765625</ele>
        <time>2015-07-25T20:21:15Z</time>
      </trkpt>
      <trkpt lat="41.95355" lon="8.49406">
        <ele>-5.6304931640625</ele>
        <time>2015-07-25T20:21:18Z</time>
      </trkpt>
      <trkpt lat="41.95337" lon="8.49427">
        <ele>-6.1112060546875</ele>
        <time>2015-07-25T20:21:29Z</time>
      </trkpt>
      <trkpt lat="41.95326" lon="8.49437">
        <ele>-6.1112060546875</ele>
        <time>2015-07-25T20:21:35Z</time>
      </trkpt>
      <trkpt lat="41.95301" lon="8.49451">
        <ele>-7.072509765625</ele>
        <time>2015-07-25T20:21:48Z</time>
      </trkpt>
      <trkpt lat="41.95295" lon="8.49458">
        <ele>-5.6304931640625</ele>
        <time>2015-07-25T20:21:51Z</time>
      </trkpt>
      <trkpt lat="41.95284" lon="8.49461">
        <ele>-7.072509765625</ele>
        <time>2015-07-25T20:21:56Z</time>
      </trkpt>
      <trkpt lat="41.95282" lon="8.49462">
        <ele>-7.072509765625</ele>
        <time>2015-07-25T20:21:57Z</time>
      </trkpt>
      <trkpt lat="41.95267" lon="8.49477">
        <ele>-6.5919189453125</ele>
        <time>2015-07-25T20:22:05Z</time>
      </trkpt>
      <trkpt lat="41.95265" lon="8.49478">
        <ele>-8.033935546875</ele>
        <time>2015-07-25T20:22:06Z</time>
      </trkpt>
      <trkpt lat="41.95259" lon="8.49482">
        <ele>-5.6304931640625</ele>
        <time>2015-07-25T20:22:09Z</time>
      </trkpt>
      <trkpt lat="41.9525" lon="8.49488">
        <ele>-6.1112060546875</ele>
        <time>2015-07-25T20:22:14Z</time>
      </trkpt>
      <trkpt lat="41.95229" lon="8.49506">
        <ele>-7.072509765625</ele>
        <time>2015-07-25T20:22:26Z</time>
      </trkpt>
      <trkpt lat="41.95213" lon="8.4952">
        <ele>-6.1112060546875</ele>
        <time>2015-07-25T20:22:35Z</time>
      </trkpt>
      <trkpt lat="41.9521" lon="8.49524">
        <ele>-7.5531005859375</ele>
        <time>2015-07-25T20:22:37Z</time>
      </trkpt>
      <trkpt lat="41.95189" lon="8.49541">
        <ele>-6.5919189453125</ele>
        <time>2015-07-25T20:22:48Z</time>
      </trkpt>
      <trkpt lat="41.95185" lon="8.49546">
        <ele>-4.6693115234375</ele>
        <time>2015-07-25T20:22:50Z</time>
      </trkpt>
      <trkpt lat="41.95176" lon="8.49551">
        <ele>-7.072509765625</ele>
        <time>2015-07-25T20:22:54Z</time>
      </trkpt>
      <trkpt lat="41.95173" lon="8.49552">
        <ele>-7.072509765625</ele>
        <time>2015-07-25T20:22:55Z</time>
      </trkpt>
      <trkpt lat="41.95169" lon="8.49556">
        <ele>-6.5919189453125</ele>
        <time>2015-07-25T20:22:57Z</time>
      </trkpt>
      <trkpt lat="41.95157" lon="8.49564">
        <ele>-6.1112060546875</ele>
        <time>2015-07-25T20:23:03Z</time>
      </trkpt>
      <trkpt lat="41.95152" lon="8.49566">
        <ele>-6.5919189453125</ele>
        <time>2015-07-25T20:23:06Z</time>
      </trkpt>
      <trkpt lat="41.9514" lon="8.49578">
        <ele>-4.6693115234375</ele>
        <time>2015-07-25T20:23:12Z</time>
      </trkpt>
      <trkpt lat="41.9513" lon="8.49581">
        <ele>-7.5531005859375</ele>
        <time>2015-07-25T20:23:17Z</time>
      </trkpt>
      <trkpt lat="41.95126" lon="8.49585">
        <ele>-5.6304931640625</ele>
        <time>2015-07-25T20:23:19Z</time>
      </trkpt>
      <trkpt lat="41.95116" lon="8.49592">
        <ele>-7.072509765625</ele>
        <time>2015-07-25T20:23:24Z</time>
      </trkpt>
      <trkpt lat="41.9509" lon="8.49618">
        <ele>-6.1112060546875</ele>
        <time>2015-07-25T20:23:38Z</time>
      </trkpt>
      <trkpt lat="41.95067" lon="8.49646">
        <ele>-5.6304931640625</ele>
        <time>2015-07-25T20:23:53Z</time>
      </trkpt>
      <trkpt lat="41.9506" lon="8.49653">
        <ele>-5.6304931640625</ele>
        <time>2015-07-25T20:23:57Z</time>
      </trkpt>
      <trkpt lat="41.95057" lon="8.49655">
        <ele>-7.072509765625</ele>
        <time>2015-07-25T20:24:00Z</time>
      </trkpt>
      <trkpt lat="41.95052" lon="8.49661">
        <ele>-5.6304931640625</ele>
        <time>2015-07-25T20:24:03Z</time>
      </trkpt>
      <trkpt lat="41.95049" lon="8.49664">
        <ele>-4.1885986328125</ele>
        <time>2015-07-25T20:24:04Z</time>
      </trkpt>
      <trkpt lat="41.95045" lon="8.49666">
        <ele>-5.6304931640625</ele>
        <time>2015-07-25T20:24:06Z</time>
      </trkpt>
      <trkpt lat="41.95042" lon="8.4967">
        <ele>-7.072509765625</ele>
        <time>2015-07-25T20:24:08Z</time>
      </trkpt>
      <trkpt lat="41.9503" lon="8.49687">
        <ele>-6.1112060546875</ele>
        <time>2015-07-25T20:24:17Z</time>
      </trkpt>
      <trkpt lat="41.95008" lon="8.49708">
        <ele>-5.6304931640625</ele>
        <time>2015-07-25T20:24:32Z</time>
      </trkpt>
      <trkpt lat="41.95001" lon="8.49715">
        <ele>-5.14990234375</ele>
        <time>2015-07-25T20:24:36Z</time>
      </trkpt>
      <trkpt lat="41.94995" lon="8.49719">
        <ele>-7.072509765625</ele>
        <time>2015-07-25T20:24:40Z</time>
      </trkpt>
      <trkpt lat="41.94983" lon="8.49737">
        <ele>-6.5919189453125</ele>
        <time>2015-07-25T20:24:47Z</time>
      </trkpt>
      <trkpt lat="41.94969" lon="8.49754">
        <ele>-6.1112060546875</ele>
        <time>2015-07-25T20:24:57Z</time>
      </trkpt>
      <trkpt lat="41.94966" lon="8.49759">
        <ele>-6.5919189453125</ele>
        <time>2015-07-25T20:24:59Z</time>
      </trkpt>
      <trkpt lat="41.94964" lon="8.49761">
        <ele>-5.14990234375</ele>
        <time>2015-07-25T20:25:01Z</time>
      </trkpt>
      <trkpt lat="41.94951" lon="8.49773">
        <ele>-5.14990234375</ele>
        <time>2015-07-25T20:25:09Z</time>
      </trkpt>
      <trkpt lat="41.9494" lon="8.4978">
        <ele>-5.14990234375</ele>
        <time>2015-07-25T20:25:15Z</time>
      </trkpt>
      <trkpt lat="41.94915" lon="8.49803">
        <ele>-4.6693115234375</ele>
        <time>2015-07-25T20:25:30Z</time>
      </trkpt>
      <trkpt lat="41.94909" lon="8.49809">
        <ele>-6.5919189453125</ele>
        <time>2015-07-25T20:25:34Z</time>
      </trkpt>
      <trkpt lat="41.94902" lon="8.49816">
        <ele>-4.6693115234375</ele>
        <time>2015-07-25T20:25:38Z</time>
      </trkpt>
      <trkpt lat="41.94899" lon="8.49818">
        <ele>-5.14990234375</ele>
        <time>2015-07-25T20:25:40Z</time>
      </trkpt>
      <trkpt lat="41.94895" lon="8.49819">
        <ele>-7.072509765625</ele>
        <time>2015-07-25T20:25:43Z</time>
      </trkpt>
      <trkpt lat="41.9488" lon="8.49829">
        <ele>-6.5919189453125</ele>
        <time>2015-07-25T20:25:52Z</time>
      </trkpt>
      <trkpt lat="41.94873" lon="8.49835">
        <ele>-4.6693115234375</ele>
        <time>2015-07-25T20:25:56Z</time>
      </trkpt>
      <trkpt lat="41.94868" lon="8.49838">
        <ele>-5.14990234375</ele>
        <time>2015-07-25T20:25:58Z</time>
      </trkpt>
      <trkpt lat="41.94859" lon="8.49846">
        <ele>-6.5919189453125</ele>
        <time>2015-07-25T20:26:04Z</time>
      </trkpt>
      <trkpt lat="41.94856" lon="8.49851">
        <ele>-5.6304931640625</ele>
        <time>2015-07-25T20:26:06Z</time>
      </trkpt>
      <trkpt lat="41.94849" lon="8.49857">
        <ele>-5.6304931640625</ele>
        <time>2015-07-25T20:26:10Z</time>
      </trkpt>
      <trkpt lat="41.94842" lon="8.49864">
        <ele>-6.1112060546875</ele>
        <time>2015-07-25T20:26:15Z</time>
      </trkpt>
      <trkpt lat="41.94834" lon="8.49875">
        <ele>-6.1112060546875</ele>
        <time>2015-07-25T20:26:21Z</time>
      </trkpt>
      <trkpt lat="41.94831" lon="8.49878">
        <ele>-5.6304931640625</ele>
        <time>2015-07-25T20:26:23Z</time>
      </trkpt>
      <trkpt lat="41.94828" lon="8.49879">
        <ele>-4.1885986328125</ele>
        <time>2015-07-25T20:26:25Z</time>
      </trkpt>
      <trkpt lat="41.94817" lon="8.49888">
        <ele>-5.6304931640625</ele>
        <time>2015-07-25T20:26:32Z</time>
      </trkpt>
      <trkpt lat="41.94814" lon="8.4989">
        <ele>-5.6304931640625</ele>
        <time>2015-07-25T20:26:34Z</time>
      </trkpt>
      <trkpt lat="41.94813" lon="8.49892">
        <ele>-6.5919189453125</ele>
        <time>2015-07-25T20:26:36Z</time>
      </trkpt>
      <trkpt lat="41.94802" lon="8.49905">
        <ele>-6.1112060546875</ele>
        <time>2015-07-25T20:26:43Z</time>
      </trkpt>
      <trkpt lat="41.948" lon="8.49906">
        <ele>-6.5919189453125</ele>
        <time>2015-07-25T20:26:44Z</time>
      </trkpt>
      <trkpt lat="41.94796" lon="8.49909">
        <ele>-5.6304931640625</ele>
        <time>2015-07-25T20:26:47Z</time>
      </trkpt>
      <trkpt lat="41.94774" lon="8.4993">
        <ele>-5.6304931640625</ele>
        <time>2015-07-25T20:27:00Z</time>
      </trkpt>
      <trkpt lat="41.94764" lon="8.49939">
        <ele>-5.6304931640625</ele>
        <time>2015-07-25T20:27:07Z</time>
      </trkpt>
      <trkpt lat="41.94758" lon="8.49947">
        <ele>-4.6693115234375</ele>
        <time>2015-07-25T20:27:11Z</time>
      </trkpt>
      <trkpt lat="41.94749" lon="8.49954">
        <ele>-5.6304931640625</ele>
        <time>2015-07-25T20:27:15Z</time>
      </trkpt>
      <trkpt lat="41.9474" lon="8.49964">
        <ele>-4.1885986328125</ele>
        <time>2015-07-25T20:27:22Z</time>
      </trkpt>
      <trkpt lat="41.94725" lon="8.49976">
        <ele>-4.1885986328125</ele>
        <time>2015-07-25T20:27:31Z</time>
      </trkpt>
      <trkpt lat="41.94708" lon="8.49994">
        <ele>-4.6693115234375</ele>
        <time>2015-07-25T20:27:42Z</time>
      </trkpt>
      <trkpt lat="41.947" lon="8.50002">
        <ele>-5.14990234375</ele>
        <time>2015-07-25T20:27:47Z</time>
      </trkpt>
      <trkpt lat="41.94688" lon="8.50016">
        <ele>-5.14990234375</ele>
        <time>2015-07-25T20:27:55Z</time>
      </trkpt>
      <trkpt lat="41.94679" lon="8.50023">
        <ele>-5.14990234375</ele>
        <time>2015-07-25T20:28:00Z</time>
      </trkpt>
      <trkpt lat="41.94665" lon="8.50043">
        <ele>-5.6304931640625</ele>
        <time>2015-07-25T20:28:11Z</time>
      </trkpt>
      <trkpt lat="41.9465" lon="8.50062">
        <ele>-2.2659912109375</ele>
        <time>2015-07-25T20:28:22Z</time>
      </trkpt>
      <trkpt lat="41.94647" lon="8.50067">
        <ele>-4.1885986328125</ele>
        <time>2015-07-25T20:28:25Z</time>
      </trkpt>
      <trkpt lat="41.94642" lon="8.50073">
        <ele>-5.6304931640625</ele>
        <time>2015-07-25T20:28:29Z</time>
      </trkpt>
      <trkpt lat="41.94638" lon="8.50081">
        <ele>-2.7467041015625</ele>
        <time>2015-07-25T20:28:32Z</time>
      </trkpt>
      <trkpt lat="41.94636" lon="8.50086">
        <ele>-4.1885986328125</ele>
        <time>2015-07-25T20:28:34Z</time>
      </trkpt>
      <trkpt lat="41.94621" lon="8.50104">
        <ele>-4.1885986328125</ele>
        <time>2015-07-25T20:28:45Z</time>
      </trkpt>
      <trkpt lat="41.94605" lon="8.50121">
        <ele>-5.6304931640625</ele>
        <time>2015-07-25T20:28:56Z</time>
      </trkpt>
      <trkpt lat="41.94602" lon="8.50123">
        <ele>-5.6304931640625</ele>
        <time>2015-07-25T20:28:58Z</time>
      </trkpt>
      <trkpt lat="41.94597" lon="8.5013">
        <ele>-4.6693115234375</ele>
        <time>2015-07-25T20:29:02Z</time>
      </trkpt>
      <trkpt lat="41.9459" lon="8.50136">
        <ele>-5.6304931640625</ele>
        <time>2015-07-25T20:29:06Z</time>
      </trkpt>
      <trkpt lat="41.94579" lon="8.50145">
        <ele>-5.14990234375</ele>
        <time>2015-07-25T20:29:13Z</time>
      </trkpt>
      <trkpt lat="41.94558" lon="8.50169">
        <ele>-4.6693115234375</ele>
        <time>2015-07-25T20:29:27Z</time>
      </trkpt>
      <trkpt lat="41.94555" lon="8.50172">
        <ele>-6.1112060546875</ele>
        <time>2015-07-25T20:29:30Z</time>
      </trkpt>
      <trkpt lat="41.94554" lon="8.50175">
        <ele>-6.1112060546875</ele>
        <time>2015-07-25T20:29:31Z</time>
      </trkpt>
      <trkpt lat="41.94533" lon="8.50195">
        <ele>-5.6304931640625</ele>
        <time>2015-07-25T20:29:43Z</time>
      </trkpt>
      <trkpt lat="41.94527" lon="8.50199">
        <ele>-3.7078857421875</ele>
        <time>2015-07-25T20:29:46Z</time>
      </trkpt>
      <trkpt lat="41.94524" lon="8.50198">
        <ele>-5.14990234375</ele>
        <time>2015-07-25T20:29:48Z</time>
      </trkpt>
      <trkpt lat="41.94518" lon="8.50204">
        <ele>-5.14990234375</ele>
        <time>2015-07-25T20:29:52Z</time>
      </trkpt>
      <trkpt lat="41.94503" lon="8.50221">
        <ele>-6.5919189453125</ele>
        <time>2015-07-25T20:30:00Z</time>
      </trkpt>
      <trkpt lat="41.94496" lon="8.50228">
        <ele>-4.1885986328125</ele>
        <time>2015-07-25T20:30:04Z</time>
      </trkpt>
      <trkpt lat="41.94487" lon="8.50233">
        <ele>-5.6304931640625</ele>
        <time>2015-07-25T20:30:09Z</time>
      </trkpt>
      <trkpt lat="41.94477" lon="8.50241">
        <ele>-4.1885986328125</ele>
        <time>2015-07-25T20:30:14Z</time>
      </trkpt>
      <trkpt lat="41.94472" lon="8.5025">
        <ele>-5.14990234375</ele>
        <time>2015-07-25T20:30:18Z</time>
      </trkpt>
      <trkpt lat="41.94467" lon="8.50257">
        <ele>-5.14990234375</ele>
        <time>2015-07-25T20:30:21Z</time>
      </trkpt>
      <trkpt lat="41.94461" lon="8.50268">
        <ele>-4.1885986328125</ele>
        <time>2015-07-25T20:30:25Z</time>
      </trkpt>
      <trkpt lat="41.94457" lon="8.50272">
        <ele>-7.5531005859375</ele>
        <time>2015-07-25T20:30:28Z</time>
      </trkpt>
      <trkpt lat="41.94454" lon="8.50277">
        <ele>-2.2659912109375</ele>
        <time>2015-07-25T20:30:30Z</time>
      </trkpt>
      <trkpt lat="41.94451" lon="8.5028">
        <ele>-4.1885986328125</ele>
        <time>2015-07-25T20:30:32Z</time>
      </trkpt>
      <trkpt lat="41.94428" lon="8.50308">
        <ele>-4.1885986328125</ele>
        <time>2015-07-25T20:30:46Z</time>
      </trkpt>
      <trkpt lat="41.94421" lon="8.50313">
        <ele>-5.6304931640625</ele>
        <time>2015-07-25T20:30:50Z</time>
      </trkpt>
      <trkpt lat="41.94416" lon="8.5032">
        <ele>-4.1885986328125</ele>
        <time>2015-07-25T20:30:53Z</time>
      </trkpt>
      <trkpt lat="41.94414" lon="8.50325">
        <ele>-3.227294921875</ele>
        <time>2015-07-25T20:30:54Z</time>
      </trkpt>
      <trkpt lat="41.94409" lon="8.50329">
        <ele>-6.5919189453125</ele>
        <time>2015-07-25T20:30:57Z</time>
      </trkpt>
      <trkpt lat="41.94408" lon="8.50329">
        <ele>-6.5919189453125</ele>
        <time>2015-07-25T20:30:58Z</time>
      </trkpt>
      <trkpt lat="41.94405" lon="8.50336">
        <ele>-5.14990234375</ele>
        <time>2015-07-25T20:31:00Z</time>
      </trkpt>
      <trkpt lat="41.94401" lon="8.50342">
        <ele>-3.7078857421875</ele>
        <time>2015-07-25T20:31:02Z</time>
      </trkpt>
      <trkpt lat="41.94398" lon="8.50345">
        <ele>-5.14990234375</ele>
        <time>2015-07-25T20:31:05Z</time>
      </trkpt>
      <trkpt lat="41.94391" lon="8.50355">
        <ele>-4.1885986328125</ele>
        <time>2015-07-25T20:31:09Z</time>
      </trkpt>
      <trkpt lat="41.94386" lon="8.50362">
        <ele>-5.14990234375</ele>
        <time>2015-07-25T20:31:13Z</time>
      </trkpt>
      <trkpt lat="41.94373" lon="8.50377">
        <ele>-5.14990234375</ele>
        <time>2015-07-25T20:31:21Z</time>
      </trkpt>
      <trkpt lat="41.9437" lon="8.50382">
        <ele>-4.6693115234375</ele>
        <time>2015-07-25T20:31:23Z</time>
      </trkpt>
      <trkpt lat="41.94364" lon="8.50388">
        <ele>-5.14990234375</ele>
        <time>2015-07-25T20:31:27Z</time>
      </trkpt>
      <trkpt lat="41.9436" lon="8.50396">
        <ele>-3.7078857421875</ele>
        <time>2015-07-25T20:31:30Z</time>
      </trkpt>
      <trkpt lat="41.94353" lon="8.50401">
        <ele>-5.6304931640625</ele>
        <time>2015-07-25T20:31:35Z</time>
      </trkpt>
      <trkpt lat="41.94346" lon="8.50412">
        <ele>-3.7078857421875</ele>
        <time>2015-07-25T20:31:39Z</time>
      </trkpt>
      <trkpt lat="41.94339" lon="8.50419">
        <ele>-6.5919189453125</ele>
        <time>2015-07-25T20:31:44Z</time>
      </trkpt>
      <trkpt lat="41.94336" lon="8.50422">
        <ele>-5.14990234375</ele>
        <time>2015-07-25T20:31:46Z</time>
      </trkpt>
      <trkpt lat="41.94333" lon="8.50428">
        <ele>-3.227294921875</ele>
        <time>2015-07-25T20:31:48Z</time>
      </trkpt>
      <trkpt lat="41.94327" lon="8.50434">
        <ele>-4.6693115234375</ele>
        <time>2015-07-25T20:31:51Z</time>
      </trkpt>
      <trkpt lat="41.94308" lon="8.50457">
        <ele>-5.14990234375</ele>
        <time>2015-07-25T20:32:03Z</time>
      </trkpt>
      <trkpt lat="41.94289" lon="8.50484">
        <ele>-3.227294921875</ele>
        <time>2015-07-25T20:32:16Z</time>
      </trkpt>
      <trkpt lat="41.94281" lon="8.50493">
        <ele>-5.14990234375</ele>
        <time>2015-07-25T20:32:21Z</time>
      </trkpt>
      <trkpt lat="41.94277" lon="8.50498">
        <ele>-3.227294921875</ele>
        <time>2015-07-25T20:32:23Z</time>
      </trkpt>
      <trkpt lat="41.94275" lon="8.50499">
        <ele>-3.227294921875</ele>
        <time>2015-07-25T20:32:24Z</time>
      </trkpt>
      <trkpt lat="41.94273" lon="8.505">
        <ele>-4.6693115234375</ele>
        <time>2015-07-25T20:32:26Z</time>
      </trkpt>
      <trkpt lat="41.94268" lon="8.50507">
        <ele>-3.227294921875</ele>
        <time>2015-07-25T20:32:30Z</time>
      </trkpt>
      <trkpt lat="41.94257" lon="8.50523">
        <ele>-2.7467041015625</ele>
        <time>2015-07-25T20:32:37Z</time>
      </trkpt>
      <trkpt lat="41.94249" lon="8.50533">
        <ele>-5.6304931640625</ele>
        <time>2015-07-25T20:32:42Z</time>
      </trkpt>
      <trkpt lat="41.94245" lon="8.50537">
        <ele>-4.1885986328125</ele>
        <time>2015-07-25T20:32:44Z</time>
      </trkpt>
      <trkpt lat="41.94243" lon="8.50543">
        <ele>-2.7467041015625</ele>
        <time>2015-07-25T20:32:46Z</time>
      </trkpt>
      <trkpt lat="41.9424" lon="8.50546">
        <ele>-4.6693115234375</ele>
        <time>2015-07-25T20:32:49Z</time>
      </trkpt>
      <trkpt lat="41.94218" lon="8.50572">
        <ele>-3.227294921875</ele>
        <time>2015-07-25T20:33:04Z</time>
      </trkpt>
      <trkpt lat="41.94217" lon="8.50575">
        <ele>-3.227294921875</ele>
        <time>2015-07-25T20:33:05Z</time>
      </trkpt>
      <trkpt lat="41.94207" lon="8.5059">
        <ele>-4.6693115234375</ele>
        <time>2015-07-25T20:33:10Z</time>
      </trkpt>
      <trkpt lat="41.942" lon="8.50597">
        <ele>-3.7078857421875</ele>
        <time>2015-07-25T20:33:14Z</time>
      </trkpt>
      <trkpt lat="41.94182" lon="8.50617">
        <ele>-3.7078857421875</ele>
        <time>2015-07-25T20:33:25Z</time>
      </trkpt>
      <trkpt lat="41.94161" lon="8.50644">
        <ele>-4.6693115234375</ele>
        <time>2015-07-25T20:33:39Z</time>
      </trkpt>
      <trkpt lat="41.94156" lon="8.50651">
        <ele>-2.7467041015625</ele>
        <time>2015-07-25T20:33:42Z</time>
      </trkpt>
      <trkpt lat="41.94152" lon="8.50654">
        <ele>-3.227294921875</ele>
        <time>2015-07-25T20:33:44Z</time>
      </trkpt>
      <trkpt lat="41.94138" lon="8.50672">
        <ele>-2.7467041015625</ele>
        <time>2015-07-25T20:33:53Z</time>
      </trkpt>
      <trkpt lat="41.94125" lon="8.50688">
        <ele>-3.227294921875</ele>
        <time>2015-07-25T20:34:02Z</time>
      </trkpt>
      <trkpt lat="41.94117" lon="8.50699">
        <ele>-2.7467041015625</ele>
        <time>2015-07-25T20:34:06Z</time>
      </trkpt>
      <trkpt lat="41.94108" lon="8.50709">
        <ele>-3.7078857421875</ele>
        <time>2015-07-25T20:34:12Z</time>
      </trkpt>
      <trkpt lat="41.94102" lon="8.50717">
        <ele>-1.3046875</ele>
        <time>2015-07-25T20:34:14Z</time>
      </trkpt>
      <trkpt lat="41.94098" lon="8.50724">
        <ele>-3.7078857421875</ele>
        <time>2015-07-25T20:34:17Z</time>
      </trkpt>
      <trkpt lat="41.94086" lon="8.50741">
        <ele>-1.3046875</ele>
        <time>2015-07-25T20:34:24Z</time>
      </trkpt>
      <trkpt lat="41.94085" lon="8.50743">
        <ele>-5.14990234375</ele>
        <time>2015-07-25T20:34:25Z</time>
      </trkpt>
      <trkpt lat="41.94083" lon="8.50745">
        <ele>-5.14990234375</ele>
        <time>2015-07-25T20:34:26Z</time>
      </trkpt>
      <trkpt lat="41.94079" lon="8.50749">
        <ele>-3.7078857421875</ele>
        <time>2015-07-25T20:34:28Z</time>
      </trkpt>
      <trkpt lat="41.94067" lon="8.50764">
        <ele>-3.227294921875</ele>
        <time>2015-07-25T20:34:35Z</time>
      </trkpt>
      <trkpt lat="41.94065" lon="8.50765">
        <ele>-3.227294921875</ele>
        <time>2015-07-25T20:34:36Z</time>
      </trkpt>
      <trkpt lat="41.94062" lon="8.50767">
        <ele>-4.6693115234375</ele>
        <time>2015-07-25T20:34:38Z</time>
      </trkpt>
      <trkpt lat="41.94059" lon="8.50771">
        <ele>-2.7467041015625</ele>
        <time>2015-07-25T20:34:40Z</time>
      </trkpt>
      <trkpt lat="41.94048" lon="8.5078">
        <ele>-4.1885986328125</ele>
        <time>2015-07-25T20:34:45Z</time>
      </trkpt>
      <trkpt lat="41.94035" lon="8.50791">
        <ele>-2.7467041015625</ele>
        <time>2015-07-25T20:34:51Z</time>
      </trkpt>
      <trkpt lat="41.94017" lon="8.5081">
        <ele>-2.7467041015625</ele>
        <time>2015-07-25T20:35:01Z</time>
      </trkpt>
      <trkpt lat="41.94012" lon="8.50815">
        <ele>-4.1885986328125</ele>
        <time>2015-07-25T20:35:03Z</time>
      </trkpt>
      <trkpt lat="41.94003" lon="8.50824">
        <ele>-3.7078857421875</ele>
        <time>2015-07-25T20:35:08Z</time>
      </trkpt>
      <trkpt lat="41.93997" lon="8.50832">
        <ele>-2.7467041015625</ele>
        <time>2015-07-25T20:35:11Z</time>
      </trkpt>
      <trkpt lat="41.93969" lon="8.50859">
        <ele>-3.227294921875</ele>
        <time>2015-07-25T20:35:25Z</time>
      </trkpt>
      <trkpt lat="41.93959" lon="8.50869">
        <ele>-2.2659912109375</ele>
        <time>2015-07-25T20:35:30Z</time>
      </trkpt>
      <trkpt lat="41.93948" lon="8.50877">
        <ele>-3.7078857421875</ele>
        <time>2015-07-25T20:35:35Z</time>
      </trkpt>
      <trkpt lat="41.93942" lon="8.50883">
        <ele>-2.2659912109375</ele>
        <time>2015-07-25T20:35:38Z</time>
      </trkpt>
      <trkpt lat="41.93929" lon="8.50898">
        <ele>-4.6693115234375</ele>
        <time>2015-07-25T20:35:45Z</time>
      </trkpt>
      <trkpt lat="41.93924" lon="8.50904">
        <ele>-3.227294921875</ele>
        <time>2015-07-25T20:35:47Z</time>
      </trkpt>
      <trkpt lat="41.93914" lon="8.50916">
        <ele>-5.14990234375</ele>
        <time>2015-07-25T20:35:52Z</time>
      </trkpt>
      <trkpt lat="41.93906" lon="8.50925">
        <ele>-3.7078857421875</ele>
        <time>2015-07-25T20:35:56Z</time>
      </trkpt>
      <trkpt lat="41.93895" lon="8.50932">
        <ele>-4.6693115234375</ele>
        <time>2015-07-25T20:36:01Z</time>
      </trkpt>
      <trkpt lat="41.93889" lon="8.50934">
        <ele>-2.7467041015625</ele>
        <time>2015-07-25T20:36:03Z</time>
      </trkpt>
      <trkpt lat="41.93878" lon="8.50935">
        <ele>-3.7078857421875</ele>
        <time>2015-07-25T20:36:07Z</time>
      </trkpt>
      <trkpt lat="41.93857" lon="8.50952">
        <ele>-6.1112060546875</ele>
        <time>2015-07-25T20:36:17Z</time>
      </trkpt>
      <trkpt lat="41.93852" lon="8.50957">
        <ele>-3.227294921875</ele>
        <time>2015-07-25T20:36:19Z</time>
      </trkpt>
      <trkpt lat="41.93846" lon="8.50962">
        <ele>-4.6693115234375</ele>
        <time>2015-07-25T20:36:22Z</time>
      </trkpt>
      <trkpt lat="41.93838" lon="8.50969">
        <ele>-3.227294921875</ele>
        <time>2015-07-25T20:36:26Z</time>
      </trkpt>
      <trkpt lat="41.93823" lon="8.50983">
        <ele>-4.6693115234375</ele>
        <time>2015-07-25T20:36:33Z</time>
      </trkpt>
      <trkpt lat="41.93817" lon="8.50988">
        <ele>-3.227294921875</ele>
        <time>2015-07-25T20:36:36Z</time>
      </trkpt>
      <trkpt lat="41.93801" lon="8.51">
        <ele>-5.14990234375</ele>
        <time>2015-07-25T20:36:43Z</time>
      </trkpt>
      <trkpt lat="41.93798" lon="8.51004">
        <ele>-3.227294921875</ele>
        <time>2015-07-25T20:36:45Z</time>
      </trkpt>
      <trkpt lat="41.93783" lon="8.51017">
        <ele>-4.6693115234375</ele>
        <time>2015-07-25T20:36:52Z</time>
      </trkpt>
      <trkpt lat="41.93778" lon="8.5102">
        <ele>-2.7467041015625</ele>
        <time>2015-07-25T20:36:54Z</time>
      </trkpt>
      <trkpt lat="41.93776" lon="8.51022">
        <ele>-4.6693115234375</ele>
        <time>2015-07-25T20:36:55Z</time>
      </trkpt>
      <trkpt lat="41.9377" lon="8.5103">
        <ele>-3.227294921875</ele>
        <time>2015-07-25T20:36:58Z</time>
      </trkpt>
      <trkpt lat="41.93768" lon="8.51031">
        <ele>-3.227294921875</ele>
        <time>2015-07-25T20:36:59Z</time>
      </trkpt>
      <trkpt lat="41.93761" lon="8.51034">
        <ele>-3.7078857421875</ele>
        <time>2015-07-25T20:37:02Z</time>
      </trkpt>
      <trkpt lat="41.93735" lon="8.51058">
        <ele>-3.7078857421875</ele>
        <time>2015-07-25T20:37:15Z</time>
      </trkpt>
      <trkpt lat="41.93711" lon="8.51081">
        <ele>-4.1885986328125</ele>
        <time>2015-07-25T20:37:26Z</time>
      </trkpt>
      <trkpt lat="41.93698" lon="8.51093">
        <ele>-4.6693115234375</ele>
        <time>2015-07-25T20:37:32Z</time>
      </trkpt>
      <trkpt lat="41.93689" lon="8.51103">
        <ele>-4.1885986328125</ele>
        <time>2015-07-25T20:37:36Z</time>
      </trkpt>
      <trkpt lat="41.93662" lon="8.5113">
        <ele>-3.7078857421875</ele>
        <time>2015-07-25T20:37:50Z</time>
      </trkpt>
      <trkpt lat="41.93634" lon="8.51156">
        <ele>-4.1885986328125</ele>
        <time>2015-07-25T20:38:04Z</time>
      </trkpt>
      <trkpt lat="41.93608" lon="8.51177">
        <ele>-4.1885986328125</ele>
        <time>2015-07-25T20:38:17Z</time>
      </trkpt>
      <trkpt lat="41.93586" lon="8.51195">
        <ele>-3.7078857421875</ele>
        <time>2015-07-25T20:38:27Z</time>
      </trkpt>
      <trkpt lat="41.93557" lon="8.51224">
        <ele>-4.1885986328125</ele>
        <time>2015-07-25T20:38:41Z</time>
      </trkpt>
      <trkpt lat="41.93543" lon="8.51235">
        <ele>-2.2659912109375</ele>
        <time>2015-07-25T20:38:48Z</time>
      </trkpt>
      <trkpt lat="41.93516" lon="8.51257">
        <ele>-3.7078857421875</ele>
        <time>2015-07-25T20:39:00Z</time>
      </trkpt>
      <trkpt lat="41.93512" lon="8.51262">
        <ele>-4.6693115234375</ele>
        <time>2015-07-25T20:39:02Z</time>
      </trkpt>
      <trkpt lat="41.93505" lon="8.5127">
        <ele>-3.227294921875</ele>
        <time>2015-07-25T20:39:06Z</time>
      </trkpt>
      <trkpt lat="41.93493" lon="8.51279">
        <ele>-4.6693115234375</ele>
        <time>2015-07-25T20:39:11Z</time>
      </trkpt>
      <trkpt lat="41.93484" lon="8.51286">
        <ele>-3.7078857421875</ele>
        <time>2015-07-25T20:39:15Z</time>
      </trkpt>
      <trkpt lat="41.93474" lon="8.51296">
        <ele>-4.6693115234375</ele>
        <time>2015-07-25T20:39:20Z</time>
      </trkpt>
      <trkpt lat="41.9344" lon="8.51319">
        <ele>-5.14990234375</ele>
        <time>2015-07-25T20:39:36Z</time>
      </trkpt>
      <trkpt lat="41.93433" lon="8.51325">
        <ele>-2.7467041015625</ele>
        <time>2015-07-25T20:39:39Z</time>
      </trkpt>
      <trkpt lat="41.9343" lon="8.51326">
        <ele>-3.227294921875</ele>
        <time>2015-07-25T20:39:40Z</time>
      </trkpt>
      <trkpt lat="41.93423" lon="8.5133">
        <ele>-4.6693115234375</ele>
        <time>2015-07-25T20:39:43Z</time>
      </trkpt>
      <trkpt lat="41.93419" lon="8.51335">
        <ele>-3.7078857421875</ele>
        <time>2015-07-25T20:39:45Z</time>
      </trkpt>
      <trkpt lat="41.93388" lon="8.51365">
        <ele>-2.7467041015625</ele>
        <time>2015-07-25T20:39:59Z</time>
      </trkpt>
      <trkpt lat="41.93383" lon="8.51369">
        <ele>-4.1885986328125</ele>
        <time>2015-07-25T20:40:02Z</time>
      </trkpt>
      <trkpt lat="41.93356" lon="8.51383">
        <ele>-3.7078857421875</ele>
        <time>2015-07-25T20:40:14Z</time>
      </trkpt>
      <trkpt lat="41.93332" lon="8.51398">
        <ele>-3.227294921875</ele>
        <time>2015-07-25T20:40:24Z</time>
      </trkpt>
      <trkpt lat="41.93298" lon="8.51425">
        <ele>-2.7467041015625</ele>
        <time>2015-07-25T20:40:39Z</time>
      </trkpt>
      <trkpt lat="41.93272" lon="8.51442">
        <ele>-5.6304931640625</ele>
        <time>2015-07-25T20:40:50Z</time>
      </trkpt>
      <trkpt lat="41.93266" lon="8.51447">
        <ele>-3.7078857421875</ele>
        <time>2015-07-25T20:40:53Z</time>
      </trkpt>
      <trkpt lat="41.93262" lon="8.51449">
        <ele>-2.2659912109375</ele>
        <time>2015-07-25T20:40:55Z</time>
      </trkpt>
      <trkpt lat="41.93258" lon="8.51455">
        <ele>-2.2659912109375</ele>
        <time>2015-07-25T20:40:57Z</time>
      </trkpt>
      <trkpt lat="41.93227" lon="8.51467">
        <ele>-4.6693115234375</ele>
        <time>2015-07-25T20:41:10Z</time>
      </trkpt>
      <trkpt lat="41.93215" lon="8.51475">
        <ele>-2.7467041015625</ele>
        <time>2015-07-25T20:41:15Z</time>
      </trkpt>
      <trkpt lat="41.93212" lon="8.51476">
        <ele>-4.6693115234375</ele>
        <time>2015-07-25T20:41:17Z</time>
      </trkpt>
      <trkpt lat="41.93203" lon="8.51485">
        <ele>-2.2659912109375</ele>
        <time>2015-07-25T20:41:21Z</time>
      </trkpt>
      <trkpt lat="41.93176" lon="8.51502">
        <ele>-2.7467041015625</ele>
        <time>2015-07-25T20:41:34Z</time>
      </trkpt>
      <trkpt lat="41.93146" lon="8.51519">
        <ele>-3.227294921875</ele>
        <time>2015-07-25T20:41:47Z</time>
      </trkpt>
      <trkpt lat="41.93142" lon="8.51523">
        <ele>-2.2659912109375</ele>
        <time>2015-07-25T20:41:49Z</time>
      </trkpt>
      <trkpt lat="41.93126" lon="8.51537">
        <ele>-2.7467041015625</ele>
        <time>2015-07-25T20:41:57Z</time>
      </trkpt>
      <trkpt lat="41.93124" lon="8.51539">
        <ele>-1.7852783203125</ele>
        <time>2015-07-25T20:41:58Z</time>
      </trkpt>
      <trkpt lat="41.93119" lon="8.51541">
        <ele>-4.1885986328125</ele>
        <time>2015-07-25T20:42:00Z</time>
      </trkpt>
      <trkpt lat="41.93097" lon="8.5156">
        <ele>-0.8240966796875</ele>
        <time>2015-07-25T20:42:10Z</time>
      </trkpt>
      <trkpt lat="41.93095" lon="8.51561">
        <ele>-0.8240966796875</ele>
        <time>2015-07-25T20:42:11Z</time>
      </trkpt>
      <trkpt lat="41.93093" lon="8.51562">
        <ele>-2.7467041015625</ele>
        <time>2015-07-25T20:42:12Z</time>
      </trkpt>
      <trkpt lat="41.93056" lon="8.51594">
        <ele>-3.7078857421875</ele>
        <time>2015-07-25T20:42:29Z</time>
      </trkpt>
      <trkpt lat="41.9303" lon="8.51618">
        <ele>-3.227294921875</ele>
        <time>2015-07-25T20:42:41Z</time>
      </trkpt>
      <trkpt lat="41.93002" lon="8.51644">
        <ele>-3.7078857421875</ele>
        <time>2015-07-25T20:42:55Z</time>
      </trkpt>
      <trkpt lat="41.9299" lon="8.51654">
        <ele>-3.7078857421875</ele>
        <time>2015-07-25T20:43:01Z</time>
      </trkpt>
      <trkpt lat="41.92963" lon="8.51683">
        <ele>-2.7467041015625</ele>
        <time>2015-07-25T20:43:14Z</time>
      </trkpt>
      <trkpt lat="41.92935" lon="8.51702">
        <ele>-2.7467041015625</ele>
        <time>2015-07-25T20:43:27Z</time>
      </trkpt>
      <trkpt lat="41.92917" lon="8.51716">
        <ele>-1.3046875</ele>
        <time>2015-07-25T20:43:35Z</time>
      </trkpt>
      <trkpt lat="41.92912" lon="8.51718">
        <ele>-3.7078857421875</ele>
        <time>2015-07-25T20:43:37Z</time>
      </trkpt>
      <trkpt lat="41.92904" lon="8.51725">
        <ele>-1.7852783203125</ele>
        <time>2015-07-25T20:43:41Z</time>
      </trkpt>
      <trkpt lat="41.92897" lon="8.51731">
        <ele>-3.7078857421875</ele>
        <time>2015-07-25T20:43:44Z</time>
      </trkpt>
      <trkpt lat="41.92873" lon="8.51749">
        <ele>-2.2659912109375</ele>
        <time>2015-07-25T20:43:55Z</time>
      </trkpt>
      <trkpt lat="41.9287" lon="8.51751">
        <ele>-2.2659912109375</ele>
        <time>2015-07-25T20:43:56Z</time>
      </trkpt>
      <trkpt lat="41.92846" lon="8.51768">
        <ele>-2.2659912109375</ele>
        <time>2015-07-25T20:44:08Z</time>
      </trkpt>
      <trkpt lat="41.92843" lon="8.51769">
        <ele>-2.2659912109375</ele>
        <time>2015-07-25T20:44:09Z</time>
      </trkpt>
      <trkpt lat="41.92833" lon="8.51774">
        <ele>-4.6693115234375</ele>
        <time>2015-07-25T20:44:14Z</time>
      </trkpt>
      <trkpt lat="41.92822" lon="8.51781">
        <ele>-2.2659912109375</ele>
        <time>2015-07-25T20:44:19Z</time>
      </trkpt>
      <trkpt lat="41.92801" lon="8.51793">
        <ele>-2.2659912109375</ele>
        <time>2015-07-25T20:44:28Z</time>
      </trkpt>
      <trkpt lat="41.92789" lon="8.51804">
        <ele>-2.2659912109375</ele>
        <time>2015-07-25T20:44:34Z</time>
      </trkpt>
      <trkpt lat="41.92767" lon="8.51815">
        <ele>-2.7467041015625</ele>
        <time>2015-07-25T20:44:43Z</time>
      </trkpt>
      <trkpt lat="41.92747" lon="8.5183">
        <ele>-3.227294921875</ele>
        <time>2015-07-25T20:44:52Z</time>
      </trkpt>
      <trkpt lat="41.92742" lon="8.51832">
        <ele>-3.227294921875</ele>
        <time>2015-07-25T20:44:54Z</time>
      </trkpt>
      <trkpt lat="41.92735" lon="8.51839">
        <ele>-2.2659912109375</ele>
        <time>2015-07-25T20:44:57Z</time>
      </trkpt>
      <trkpt lat="41.9273" lon="8.51842">
        <ele>-3.7078857421875</ele>
        <time>2015-07-25T20:45:00Z</time>
      </trkpt>
      <trkpt lat="41.92708" lon="8.51859">
        <ele>-3.7078857421875</ele>
        <time>2015-07-25T20:45:10Z</time>
      </trkpt>
      <trkpt lat="41.92676" lon="8.51884">
        <ele>-2.7467041015625</ele>
        <time>2015-07-25T20:45:25Z</time>
      </trkpt>
      <trkpt lat="41.92648" lon="8.51901">
        <ele>-3.227294921875</ele>
        <time>2015-07-25T20:45:37Z</time>
      </trkpt>
      <trkpt lat="41.92624" lon="8.51921">
        <ele>-1.7852783203125</ele>
        <time>2015-07-25T20:45:48Z</time>
      </trkpt>
      <trkpt lat="41.92621" lon="8.51922">
        <ele>-1.7852783203125</ele>
        <time>2015-07-25T20:45:49Z</time>
      </trkpt>
      <trkpt lat="41.92609" lon="8.51933">
        <ele>-2.7467041015625</ele>
        <time>2015-07-25T20:45:55Z</time>
      </trkpt>
      <trkpt lat="41.92577" lon="8.51956">
        <ele>-1.7852783203125</ele>
        <time>2015-07-25T20:46:09Z</time>
      </trkpt>
      <trkpt lat="41.92575" lon="8.51957">
        <ele>-1.7852783203125</ele>
        <time>2015-07-25T20:46:10Z</time>
      </trkpt>
      <trkpt lat="41.92566" lon="8.51961">
        <ele>-3.7078857421875</ele>
        <time>2015-07-25T20:46:14Z</time>
      </trkpt>
      <trkpt lat="41.92559" lon="8.51966">
        <ele>-2.2659912109375</ele>
        <time>2015-07-25T20:46:17Z</time>
      </trkpt>
      <trkpt lat="41.92529" lon="8.51991">
        <ele>-3.7078857421875</ele>
        <time>2015-07-25T20:46:31Z</time>
      </trkpt>
      <trkpt lat="41.92514" lon="8.52004">
        <ele>-4.1885986328125</ele>
        <time>2015-07-25T20:46:38Z</time>
      </trkpt>
      <trkpt lat="41.92498" lon="8.5202">
        <ele>-3.7078857421875</ele>
        <time>2015-07-25T20:46:45Z</time>
      </trkpt>
      <trkpt lat="41.92486" lon="8.52032">
        <ele>-1.7852783203125</ele>
        <time>2015-07-25T20:46:51Z</time>
      </trkpt>
      <trkpt lat="41.92479" lon="8.52036">
        <ele>-3.7078857421875</ele>
        <time>2015-07-25T20:46:54Z</time>
      </trkpt>
      <trkpt lat="41.92455" lon="8.52052">
        <ele>-3.7078857421875</ele>
        <time>2015-07-25T20:47:04Z</time>
      </trkpt>
      <trkpt lat="41.92443" lon="8.52067">
        <ele>-5.14990234375</ele>
        <time>2015-07-25T20:47:10Z</time>
      </trkpt>
      <trkpt lat="41.92427" lon="8.52078">
        <ele>-2.7467041015625</ele>
        <time>2015-07-25T20:47:17Z</time>
      </trkpt>
      <trkpt lat="41.92416" lon="8.52087">
        <ele>-1.7852783203125</ele>
        <time>2015-07-25T20:47:22Z</time>
      </trkpt>
      <trkpt lat="41.92401" lon="8.52098">
        <ele>-1.7852783203125</ele>
        <time>2015-07-25T20:47:29Z</time>
      </trkpt>
      <trkpt lat="41.92378" lon="8.52118">
        <ele>-3.227294921875</ele>
        <time>2015-07-25T20:47:40Z</time>
      </trkpt>
      <trkpt lat="41.92355" lon="8.52141">
        <ele>-4.1885986328125</ele>
        <time>2015-07-25T20:47:52Z</time>
      </trkpt>
      <trkpt lat="41.92337" lon="8.52159">
        <ele>-2.2659912109375</ele>
        <time>2015-07-25T20:48:01Z</time>
      </trkpt>
      <trkpt lat="41.92303" lon="8.5219">
        <ele>-3.7078857421875</ele>
        <time>2015-07-25T20:48:18Z</time>
      </trkpt>
      <trkpt lat="41.92295" lon="8.52198">
        <ele>-2.2659912109375</ele>
        <time>2015-07-25T20:48:22Z</time>
      </trkpt>
      <trkpt lat="41.92288" lon="8.52203">
        <ele>-2.7467041015625</ele>
        <time>2015-07-25T20:48:25Z</time>
      </trkpt>
      <trkpt lat="41.92285" lon="8.52205">
        <ele>-3.7078857421875</ele>
        <time>2015-07-25T20:48:27Z</time>
      </trkpt>
      <trkpt lat="41.92277" lon="8.52217">
        <ele>-2.7467041015625</ele>
        <time>2015-07-25T20:48:31Z</time>
      </trkpt>
      <trkpt lat="41.92256" lon="8.52236">
        <ele>-2.2659912109375</ele>
        <time>2015-07-25T20:48:41Z</time>
      </trkpt>
      <trkpt lat="41.92255" lon="8.52239">
        <ele>-2.2659912109375</ele>
        <time>2015-07-25T20:48:42Z</time>
      </trkpt>
      <trkpt lat="41.92248" lon="8.52245">
        <ele>-3.227294921875</ele>
        <time>2015-07-25T20:48:45Z</time>
      </trkpt>
      <trkpt lat="41.92247" lon="8.52248">
        <ele>-3.7078857421875</ele>
        <time>2015-07-25T20:48:46Z</time>
      </trkpt>
      <trkpt lat="41.92233" lon="8.52259">
        <ele>-1.7852783203125</ele>
        <time>2015-07-25T20:48:52Z</time>
      </trkpt>
      <trkpt lat="41.92222" lon="8.52268">
        <ele>-4.6693115234375</ele>
        <time>2015-07-25T20:48:57Z</time>
      </trkpt>
      <trkpt lat="41.92203" lon="8.52283">
        <ele>-10.917846679688</ele>
        <time>2015-07-25T20:49:05Z</time>
      </trkpt>
      <trkpt lat="41.922" lon="8.52285">
        <ele>-10.917846679688</ele>
        <time>2015-07-25T20:49:06Z</time>
      </trkpt>
      <trkpt lat="41.92198" lon="8.52288">
        <ele>-5.14990234375</ele>
        <time>2015-07-25T20:49:07Z</time>
      </trkpt>
      <trkpt lat="41.92195" lon="8.5229">
        <ele>-5.14990234375</ele>
        <time>2015-07-25T20:49:08Z</time>
      </trkpt>
      <trkpt lat="41.92189" lon="8.52296">
        <ele>-2.7467041015625</ele>
        <time>2015-07-25T20:49:10Z</time>
      </trkpt>
      <trkpt lat="41.92186" lon="8.52299">
        <ele>2.5406494140625</ele>
        <time>2015-07-25T20:49:11Z</time>
      </trkpt>
      <trkpt lat="41.92187" lon="8.52296">
        <ele>-3.7078857421875</ele>
        <time>2015-07-25T20:49:12Z</time>
      </trkpt>
      <trkpt lat="41.92182" lon="8.52304">
        <ele>-6.1112060546875</ele>
        <time>2015-07-25T20:49:15Z</time>
      </trkpt>
      <trkpt lat="41.92179" lon="8.52306">
        <ele>-2.7467041015625</ele>
        <time>2015-07-25T20:49:16Z</time>
      </trkpt>
      <trkpt lat="41.92177" lon="8.52308">
        <ele>-2.7467041015625</ele>
        <time>2015-07-25T20:49:17Z</time>
      </trkpt>
      <trkpt lat="41.92148" lon="8.52334">
        <ele>-2.7467041015625</ele>
        <time>2015-07-25T20:49:31Z</time>
      </trkpt>
      <trkpt lat="41.92122" lon="8.52356">
        <ele>-3.227294921875</ele>
        <time>2015-07-25T20:49:44Z</time>
      </trkpt>
      <trkpt lat="41.92097" lon="8.52379">
        <ele>-3.227294921875</ele>
        <time>2015-07-25T20:49:57Z</time>
      </trkpt>
      <trkpt lat="41.92087" lon="8.52385">
        <ele>-2.2659912109375</ele>
        <time>2015-07-25T20:50:01Z</time>
      </trkpt>
      <trkpt lat="41.92063" lon="8.52401">
        <ele>-2.2659912109375</ele>
        <time>2015-07-25T20:50:11Z</time>
      </trkpt>
      <trkpt lat="41.92055" lon="8.52406">
        <ele>-3.227294921875</ele>
        <time>2015-07-25T20:50:15Z</time>
      </trkpt>
      <trkpt lat="41.9203" lon="8.52418">
        <ele>-3.7078857421875</ele>
        <time>2015-07-25T20:50:25Z</time>
      </trkpt>
      <trkpt lat="41.92026" lon="8.52422">
        <ele>-2.7467041015625</ele>
        <time>2015-07-25T20:50:27Z</time>
      </trkpt>
      <trkpt lat="41.91999" lon="8.52446">
        <ele>-2.2659912109375</ele>
        <time>2015-07-25T20:50:40Z</time>
      </trkpt>
      <trkpt lat="41.91974" lon="8.52465">
        <ele>-2.7467041015625</ele>
        <time>2015-07-25T20:50:50Z</time>
      </trkpt>
      <trkpt lat="41.91969" lon="8.52468">
        <ele>-4.6693115234375</ele>
        <time>2015-07-25T20:50:52Z</time>
      </trkpt>
      <trkpt lat="41.91962" lon="8.52472">
        <ele>-1.7852783203125</ele>
        <time>2015-07-25T20:50:55Z</time>
      </trkpt>
      <trkpt lat="41.91951" lon="8.52483">
        <ele>-5.6304931640625</ele>
        <time>2015-07-25T20:51:00Z</time>
      </trkpt>
      <trkpt lat="41.91926" lon="8.5251">
        <ele>-2.2659912109375</ele>
        <time>2015-07-25T20:51:14Z</time>
      </trkpt>
      <trkpt lat="41.91908" lon="8.52517">
        <ele>-2.2659912109375</ele>
        <time>2015-07-25T20:51:20Z</time>
      </trkpt>
      <trkpt lat="41.9189" lon="8.52533">
        <ele>-4.1885986328125</ele>
        <time>2015-07-25T20:51:30Z</time>
      </trkpt>
      <trkpt lat="41.9188" lon="8.52542">
        <ele>-2.2659912109375</ele>
        <time>2015-07-25T20:51:34Z</time>
      </trkpt>
      <trkpt lat="41.91852" lon="8.52566">
        <ele>-2.7467041015625</ele>
        <time>2015-07-25T20:51:47Z</time>
      </trkpt>
      <trkpt lat="41.9182" lon="8.52593">
        <ele>-2.7467041015625</ele>
        <time>2015-07-25T20:52:02Z</time>
      </trkpt>
      <trkpt lat="41.91816" lon="8.52596">
        <ele>-3.7078857421875</ele>
        <time>2015-07-25T20:52:04Z</time>
      </trkpt>
      <trkpt lat="41.9181" lon="8.52602">
        <ele>-2.2659912109375</ele>
        <time>2015-07-25T20:52:06Z</time>
      </trkpt>
      <trkpt lat="41.91789" lon="8.52614">
        <ele>-2.2659912109375</ele>
        <time>2015-07-25T20:52:15Z</time>
      </trkpt>
      <trkpt lat="41.91763" lon="8.5264">
        <ele>-2.2659912109375</ele>
        <time>2015-07-25T20:52:28Z</time>
      </trkpt>
      <trkpt lat="41.91761" lon="8.52643">
        <ele>-3.7078857421875</ele>
        <time>2015-07-25T20:52:30Z</time>
      </trkpt>
      <trkpt lat="41.91753" lon="8.52652">
        <ele>-2.7467041015625</ele>
        <time>2015-07-25T20:52:34Z</time>
      </trkpt>
      <trkpt lat="41.91729" lon="8.52671">
        <ele>-2.2659912109375</ele>
        <time>2015-07-25T20:52:47Z</time>
      </trkpt>
      <trkpt lat="41.91707" lon="8.52688">
        <ele>-1.7852783203125</ele>
        <time>2015-07-25T20:52:58Z</time>
      </trkpt>
      <trkpt lat="41.91697" lon="8.52694">
        <ele>-3.227294921875</ele>
        <time>2015-07-25T20:53:02Z</time>
      </trkpt>
      <trkpt lat="41.91691" lon="8.52699">
        <ele>-0.3433837890625</ele>
        <time>2015-07-25T20:53:04Z</time>
      </trkpt>
      <trkpt lat="41.9167" lon="8.52719">
        <ele>-2.2659912109375</ele>
        <time>2015-07-25T20:53:14Z</time>
      </trkpt>
      <trkpt lat="41.91663" lon="8.52726">
        <ele>-1.7852783203125</ele>
        <time>2015-07-25T20:53:18Z</time>
      </trkpt>
      <trkpt lat="41.91633" lon="8.52751">
        <ele>-2.2659912109375</ele>
        <time>2015-07-25T20:53:32Z</time>
      </trkpt>
      <trkpt lat="41.91603" lon="8.52774">
        <ele>-2.7467041015625</ele>
        <time>2015-07-25T20:53:46Z</time>
      </trkpt>
      <trkpt lat="41.91573" lon="8.52811">
        <ele>-2.2659912109375</ele>
        <time>2015-07-25T20:54:02Z</time>
      </trkpt>
      <trkpt lat="41.91548" lon="8.52834">
        <ele>-2.2659912109375</ele>
        <time>2015-07-25T20:54:15Z</time>
      </trkpt>
      <trkpt lat="41.91516" lon="8.52857">
        <ele>-2.2659912109375</ele>
        <time>2015-07-25T20:54:28Z</time>
      </trkpt>
      <trkpt lat="41.91507" lon="8.52866">
        <ele>-0.8240966796875</ele>
        <time>2015-07-25T20:54:32Z</time>
      </trkpt>
      <trkpt lat="41.91487" lon="8.52887">
        <ele>-1.3046875</ele>
        <time>2015-07-25T20:54:42Z</time>
      </trkpt>
      <trkpt lat="41.91464" lon="8.52911">
        <ele>-1.7852783203125</ele>
        <time>2015-07-25T20:54:54Z</time>
      </trkpt>
      <trkpt lat="41.91456" lon="8.52917">
        <ele>-3.227294921875</ele>
        <time>2015-07-25T20:54:58Z</time>
      </trkpt>
      <trkpt lat="41.91447" lon="8.52925">
        <ele>-0.8240966796875</ele>
        <time>2015-07-25T20:55:02Z</time>
      </trkpt>
      <trkpt lat="41.91424" lon="8.52951">
        <ele>-2.2659912109375</ele>
        <time>2015-07-25T20:55:13Z</time>
      </trkpt>
      <trkpt lat="41.91398" lon="8.52975">
        <ele>-0.8240966796875</ele>
        <time>2015-07-25T20:55:24Z</time>
      </trkpt>
      <trkpt lat="41.91393" lon="8.52978">
        <ele>-3.7078857421875</ele>
        <time>2015-07-25T20:55:26Z</time>
      </trkpt>
      <trkpt lat="41.91373" lon="8.52998">
        <ele>-4.1885986328125</ele>
        <time>2015-07-25T20:55:36Z</time>
      </trkpt>
      <trkpt lat="41.91372" lon="8.52999">
        <ele>-4.1885986328125</ele>
        <time>2015-07-25T20:55:37Z</time>
      </trkpt>
      <trkpt lat="41.9136" lon="8.53011">
        <ele>-1.3046875</ele>
        <time>2015-07-25T20:55:43Z</time>
      </trkpt>
      <trkpt lat="41.91336" lon="8.53029">
        <ele>-1.7852783203125</ele>
        <time>2015-07-25T20:55:55Z</time>
      </trkpt>
      <trkpt lat="41.91324" lon="8.53038">
        <ele>-0.8240966796875</ele>
        <time>2015-07-25T20:56:00Z</time>
      </trkpt>
      <trkpt lat="41.9132" lon="8.53042">
        <ele>-1.7852783203125</ele>
        <time>2015-07-25T20:56:02Z</time>
      </trkpt>
      <trkpt lat="41.91304" lon="8.53053">
        <ele>-1.3046875</ele>
        <time>2015-07-25T20:56:09Z</time>
      </trkpt>
      <trkpt lat="41.91294" lon="8.53063">
        <ele>-2.2659912109375</ele>
        <time>2015-07-25T20:56:14Z</time>
      </trkpt>
      <trkpt lat="41.91266" lon="8.53081">
        <ele>-2.7467041015625</ele>
        <time>2015-07-25T20:56:26Z</time>
      </trkpt>
      <trkpt lat="41.9126" lon="8.5309">
        <ele>-1.3046875</ele>
        <time>2015-07-25T20:56:30Z</time>
      </trkpt>
      <trkpt lat="41.91235" lon="8.5311">
        <ele>-0.8240966796875</ele>
        <time>2015-07-25T20:56:41Z</time>
      </trkpt>
      <trkpt lat="41.91229" lon="8.53114">
        <ele>-2.7467041015625</ele>
        <time>2015-07-25T20:56:44Z</time>
      </trkpt>
      <trkpt lat="41.91202" lon="8.53134">
        <ele>-3.7078857421875</ele>
        <time>2015-07-25T20:56:56Z</time>
      </trkpt>
      <trkpt lat="41.91177" lon="8.53154">
        <ele>-3.7078857421875</ele>
        <time>2015-07-25T20:57:07Z</time>
      </trkpt>
      <trkpt lat="41.91171" lon="8.53161">
        <ele>-1.7852783203125</ele>
        <time>2015-07-25T20:57:10Z</time>
      </trkpt>
      <trkpt lat="41.91164" lon="8.53168">
        <ele>0.137451171875</ele>
        <time>2015-07-25T20:57:12Z</time>
      </trkpt>
      <trkpt lat="41.91157" lon="8.5317">
        <ele>-5.14990234375</ele>
        <time>2015-07-25T20:57:15Z</time>
      </trkpt>
      <trkpt lat="41.91149" lon="8.53181">
        <ele>-0.8240966796875</ele>
        <time>2015-07-25T20:57:20Z</time>
      </trkpt>
      <trkpt lat="41.91147" lon="8.53185">
        <ele>-0.8240966796875</ele>
        <time>2015-07-25T20:57:21Z</time>
      </trkpt>
      <trkpt lat="41.91142" lon="8.53192">
        <ele>-3.227294921875</ele>
        <time>2015-07-25T20:57:24Z</time>
      </trkpt>
      <trkpt lat="41.91122" lon="8.53217">
        <ele>-2.7467041015625</ele>
        <time>2015-07-25T20:57:35Z</time>
      </trkpt>
      <trkpt lat="41.9112" lon="8.5322">
        <ele>-1.3046875</ele>
        <time>2015-07-25T20:57:36Z</time>
      </trkpt>
      <trkpt lat="41.91111" lon="8.53225">
        <ele>-2.2659912109375</ele>
        <time>2015-07-25T20:57:40Z</time>
      </trkpt>
      <trkpt lat="41.91085" lon="8.53251">
        <ele>-1.3046875</ele>
        <time>2015-07-25T20:57:52Z</time>
      </trkpt>
      <trkpt lat="41.91083" lon="8.53251">
        <ele>-2.7467041015625</ele>
        <time>2015-07-25T20:57:53Z</time>
      </trkpt>
      <trkpt lat="41.91058" lon="8.5329">
        <ele>-1.7852783203125</ele>
        <time>2015-07-25T20:58:09Z</time>
      </trkpt>
      <trkpt lat="41.91034" lon="8.53321">
        <ele>-2.2659912109375</ele>
        <time>2015-07-25T20:58:22Z</time>
      </trkpt>
      <trkpt lat="41.91027" lon="8.53329">
        <ele>-2.2659912109375</ele>
        <time>2015-07-25T20:58:26Z</time>
      </trkpt>
      <trkpt lat="41.91001" lon="8.53349">
        <ele>-2.7467041015625</ele>
        <time>2015-07-25T20:58:38Z</time>
      </trkpt>
      <trkpt lat="41.90982" lon="8.53366">
        <ele>-2.2659912109375</ele>
        <time>2015-07-25T20:58:47Z</time>
      </trkpt>
      <trkpt lat="41.90954" lon="8.53396">
        <ele>-1.7852783203125</ele>
        <time>2015-07-25T20:59:01Z</time>
      </trkpt>
      <trkpt lat="41.90918" lon="8.53419">
        <ele>-2.2659912109375</ele>
        <time>2015-07-25T20:59:17Z</time>
      </trkpt>
      <trkpt lat="41.90906" lon="8.53429">
        <ele>-0.8240966796875</ele>
        <time>2015-07-25T20:59:22Z</time>
      </trkpt>
      <trkpt lat="41.90902" lon="8.53432">
        <ele>-2.2659912109375</ele>
        <time>2015-07-25T20:59:24Z</time>
      </trkpt>
      <trkpt lat="41.90891" lon="8.53441">
        <ele>-0.8240966796875</ele>
        <time>2015-07-25T20:59:29Z</time>
      </trkpt>
      <trkpt lat="41.90888" lon="8.53444">
        <ele>-2.2659912109375</ele>
        <time>2015-07-25T20:59:31Z</time>
      </trkpt>
      <trkpt lat="41.90883" lon="8.53451">
        <ele>-1.7852783203125</ele>
        <time>2015-07-25T20:59:34Z</time>
      </trkpt>
      <trkpt lat="41.90849" lon="8.53477">
        <ele>-2.2659912109375</ele>
        <time>2015-07-25T20:59:50Z</time>
      </trkpt>
      <trkpt lat="41.9082" lon="8.53506">
        <ele>-1.7852783203125</ele>
        <time>2015-07-25T21:00:04Z</time>
      </trkpt>
      <trkpt lat="41.90816" lon="8.53511">
        <ele>-1.3046875</ele>
        <time>2015-07-25T21:00:06Z</time>
      </trkpt>
      <trkpt lat="41.90812" lon="8.53516">
        <ele>-1.3046875</ele>
        <time>2015-07-25T21:00:08Z</time>
      </trkpt>
      <trkpt lat="41.90793" lon="8.53533">
        <ele>-0.8240966796875</ele>
        <time>2015-07-25T21:00:17Z</time>
      </trkpt>
      <trkpt lat="41.90787" lon="8.53537">
        <ele>-2.2659912109375</ele>
        <time>2015-07-25T21:00:20Z</time>
      </trkpt>
      <trkpt lat="41.90778" lon="8.53542">
        <ele>-2.2659912109375</ele>
        <time>2015-07-25T21:00:24Z</time>
      </trkpt>
      <trkpt lat="41.90771" lon="8.53547">
        <ele>-0.8240966796875</ele>
        <time>2015-07-25T21:00:27Z</time>
      </trkpt>
      <trkpt lat="41.90745" lon="8.53553">
        <ele>-1.7852783203125</ele>
        <time>2015-07-25T21:00:37Z</time>
      </trkpt>
      <trkpt lat="41.90719" lon="8.53571">
        <ele>-2.2659912109375</ele>
        <time>2015-07-25T21:00:49Z</time>
      </trkpt>
      <trkpt lat="41.90692" lon="8.53588">
        <ele>-2.2659912109375</ele>
        <time>2015-07-25T21:01:01Z</time>
      </trkpt>
      <trkpt lat="41.90686" lon="8.53593">
        <ele>-3.7078857421875</ele>
        <time>2015-07-25T21:01:04Z</time>
      </trkpt>
      <trkpt lat="41.90675" lon="8.53601">
        <ele>-0.8240966796875</ele>
        <time>2015-07-25T21:01:08Z</time>
      </trkpt>
      <trkpt lat="41.90672" lon="8.53603">
        <ele>-2.7467041015625</ele>
        <time>2015-07-25T21:01:10Z</time>
      </trkpt>
      <trkpt lat="41.90665" lon="8.53605">
        <ele>-4.6693115234375</ele>
        <time>2015-07-25T21:01:13Z</time>
      </trkpt>
      <trkpt lat="41.90661" lon="8.5361">
        <ele>-3.7078857421875</ele>
        <time>2015-07-25T21:01:15Z</time>
      </trkpt>
      <trkpt lat="41.90651" lon="8.53619">
        <ele>-0.8240966796875</ele>
        <time>2015-07-25T21:01:18Z</time>
      </trkpt>
      <trkpt lat="41.90647" lon="8.53623">
        <ele>-3.227294921875</ele>
        <time>2015-07-25T21:01:20Z</time>
      </trkpt>
      <trkpt lat="41.9064" lon="8.53626">
        <ele>-4.1885986328125</ele>
        <time>2015-07-25T21:01:22Z</time>
      </trkpt>
      <trkpt lat="41.90628" lon="8.53637">
        <ele>-1.7852783203125</ele>
        <time>2015-07-25T21:01:27Z</time>
      </trkpt>
      <trkpt lat="41.90624" lon="8.5364">
        <ele>-2.7467041015625</ele>
        <time>2015-07-25T21:01:29Z</time>
      </trkpt>
      <trkpt lat="41.9062" lon="8.53642">
        <ele>-4.6693115234375</ele>
        <time>2015-07-25T21:01:31Z</time>
      </trkpt>
      <trkpt lat="41.90607" lon="8.53652">
        <ele>-2.7467041015625</ele>
        <time>2015-07-25T21:01:36Z</time>
      </trkpt>
      <trkpt lat="41.906" lon="8.53659">
        <ele>-3.7078857421875</ele>
        <time>2015-07-25T21:01:39Z</time>
      </trkpt>
      <trkpt lat="41.90572" lon="8.53672">
        <ele>-3.7078857421875</ele>
        <time>2015-07-25T21:01:51Z</time>
      </trkpt>
      <trkpt lat="41.90553" lon="8.53691">
        <ele>-2.7467041015625</ele>
        <time>2015-07-25T21:02:00Z</time>
      </trkpt>
      <trkpt lat="41.90549" lon="8.53691">
        <ele>-3.7078857421875</ele>
        <time>2015-07-25T21:02:02Z</time>
      </trkpt>
      <trkpt lat="41.90522" lon="8.53708">
        <ele>-4.6693115234375</ele>
        <time>2015-07-25T21:02:14Z</time>
      </trkpt>
      <trkpt lat="41.90512" lon="8.53718">
        <ele>-2.7467041015625</ele>
        <time>2015-07-25T21:02:18Z</time>
      </trkpt>
      <trkpt lat="41.90504" lon="8.53727">
        <ele>-3.7078857421875</ele>
        <time>2015-07-25T21:02:22Z</time>
      </trkpt>
      <trkpt lat="41.90483" lon="8.53745">
        <ele>-4.6693115234375</ele>
        <time>2015-07-25T21:02:32Z</time>
      </trkpt>
      <trkpt lat="41.90476" lon="8.53753">
        <ele>-2.7467041015625</ele>
        <time>2015-07-25T21:02:36Z</time>
      </trkpt>
      <trkpt lat="41.90464" lon="8.53763">
        <ele>-3.227294921875</ele>
        <time>2015-07-25T21:02:43Z</time>
      </trkpt>
      <trkpt lat="41.9046" lon="8.53766">
        <ele>0.137451171875</ele>
        <time>2015-07-25T21:02:45Z</time>
      </trkpt>
      <trkpt lat="41.90459" lon="8.53768">
        <ele>0.137451171875</ele>
        <time>2015-07-25T21:02:46Z</time>
      </trkpt>
      <trkpt lat="41.90456" lon="8.53772">
        <ele>-1.7852783203125</ele>
        <time>2015-07-25T21:02:48Z</time>
      </trkpt>
      <trkpt lat="41.90448" lon="8.53779">
        <ele>-2.2659912109375</ele>
        <time>2015-07-25T21:02:52Z</time>
      </trkpt>
      <trkpt lat="41.90437" lon="8.53788">
        <ele>-3.7078857421875</ele>
        <time>2015-07-25T21:02:57Z</time>
      </trkpt>
      <trkpt lat="41.90432" lon="8.53793">
        <ele>-2.2659912109375</ele>
        <time>2015-07-25T21:02:59Z</time>
      </trkpt>
      <trkpt lat="41.90417" lon="8.53804">
        <ele>-2.7467041015625</ele>
        <time>2015-07-25T21:03:05Z</time>
      </trkpt>
      <trkpt lat="41.904" lon="8.53821">
        <ele>-1.7852783203125</ele>
        <time>2015-07-25T21:03:14Z</time>
      </trkpt>
      <trkpt lat="41.90386" lon="8.53832">
        <ele>-1.7852783203125</ele>
        <time>2015-07-25T21:03:20Z</time>
      </trkpt>
      <trkpt lat="41.9038" lon="8.53834">
        <ele>-2.7467041015625</ele>
        <time>2015-07-25T21:03:23Z</time>
      </trkpt>
      <trkpt lat="41.90348" lon="8.53859">
        <ele>-1.7852783203125</ele>
        <time>2015-07-25T21:03:37Z</time>
      </trkpt>
      <trkpt lat="41.90345" lon="8.53864">
        <ele>-2.7467041015625</ele>
        <time>2015-07-25T21:03:39Z</time>
      </trkpt>
      <trkpt lat="41.90328" lon="8.53878">
        <ele>-0.8240966796875</ele>
        <time>2015-07-25T21:03:46Z</time>
      </trkpt>
      <trkpt lat="41.90319" lon="8.53883">
        <ele>-3.227294921875</ele>
        <time>2015-07-25T21:03:50Z</time>
      </trkpt>
      <trkpt lat="41.90311" lon="8.5389">
        <ele>-0.3433837890625</ele>
        <time>2015-07-25T21:03:53Z</time>
      </trkpt>
      <trkpt lat="41.90302" lon="8.53894">
        <ele>-2.7467041015625</ele>
        <time>2015-07-25T21:03:57Z</time>
      </trkpt>
      <trkpt lat="41.90289" lon="8.539">
        <ele>-1.3046875</ele>
        <time>2015-07-25T21:04:02Z</time>
      </trkpt>
      <trkpt lat="41.90284" lon="8.53902">
        <ele>-2.7467041015625</ele>
        <time>2015-07-25T21:04:04Z</time>
      </trkpt>
      <trkpt lat="41.9028" lon="8.53905">
        <ele>-2.2659912109375</ele>
        <time>2015-07-25T21:04:06Z</time>
      </trkpt>
      <trkpt lat="41.9027" lon="8.5391">
        <ele>-1.3046875</ele>
        <time>2015-07-25T21:04:10Z</time>
      </trkpt>
      <trkpt lat="41.9023" lon="8.53934">
        <ele>0.6180419921875</ele>
        <time>2015-07-25T21:04:27Z</time>
      </trkpt>
      <trkpt lat="41.90214" lon="8.53944">
        <ele>-1.7852783203125</ele>
        <time>2015-07-25T21:04:34Z</time>
      </trkpt>
      <trkpt lat="41.9021" lon="8.53948">
        <ele>1.0986328125</ele>
        <time>2015-07-25T21:04:36Z</time>
      </trkpt>
      <trkpt lat="41.90208" lon="8.53949">
        <ele>1.0986328125</ele>
        <time>2015-07-25T21:04:37Z</time>
      </trkpt>
      <trkpt lat="41.90183" lon="8.53967">
        <ele>0.6180419921875</ele>
        <time>2015-07-25T21:04:48Z</time>
      </trkpt>
      <trkpt lat="41.9016" lon="8.53983">
        <ele>1.0986328125</ele>
        <time>2015-07-25T21:04:58Z</time>
      </trkpt>
      <trkpt lat="41.90157" lon="8.53985">
        <ele>1.0986328125</ele>
        <time>2015-07-25T21:04:59Z</time>
      </trkpt>
      <trkpt lat="41.90151" lon="8.53988">
        <ele>-1.7852783203125</ele>
        <time>2015-07-25T21:05:02Z</time>
      </trkpt>
      <trkpt lat="41.90146" lon="8.53989">
        <ele>-2.7467041015625</ele>
        <time>2015-07-25T21:05:04Z</time>
      </trkpt>
      <trkpt lat="41.9014" lon="8.53995">
        <ele>-1.3046875</ele>
        <time>2015-07-25T21:05:07Z</time>
      </trkpt>
      <trkpt lat="41.90136" lon="8.54002">
        <ele>-0.3433837890625</ele>
        <time>2015-07-25T21:05:09Z</time>
      </trkpt>
      <trkpt lat="41.90132" lon="8.54006">
        <ele>-1.3046875</ele>
        <time>2015-07-25T21:05:11Z</time>
      </trkpt>
      <trkpt lat="41.90125" lon="8.54015">
        <ele>-2.2659912109375</ele>
        <time>2015-07-25T21:05:16Z</time>
      </trkpt>
      <trkpt lat="41.90122" lon="8.5402">
        <ele>-0.3433837890625</ele>
        <time>2015-07-25T21:05:18Z</time>
      </trkpt>
      <trkpt lat="41.90117" lon="8.54025">
        <ele>-3.227294921875</ele>
        <time>2015-07-25T21:05:21Z</time>
      </trkpt>
      <trkpt lat="41.90094" lon="8.54043">
        <ele>-2.7467041015625</ele>
        <time>2015-07-25T21:05:32Z</time>
      </trkpt>
      <trkpt lat="41.90078" lon="8.54054">
        <ele>-1.3046875</ele>
        <time>2015-07-25T21:05:39Z</time>
      </trkpt>
      <trkpt lat="41.90071" lon="8.54058">
        <ele>-3.227294921875</ele>
        <time>2015-07-25T21:05:42Z</time>
      </trkpt>
      <trkpt lat="41.90063" lon="8.54062">
        <ele>-3.227294921875</ele>
        <time>2015-07-25T21:05:45Z</time>
      </trkpt>
      <trkpt lat="41.90056" lon="8.54071">
        <ele>-1.7852783203125</ele>
        <time>2015-07-25T21:05:48Z</time>
      </trkpt>
      <trkpt lat="41.90053" lon="8.54075">
        <ele>-1.3046875</ele>
        <time>2015-07-25T21:05:49Z</time>
      </trkpt>
      <trkpt lat="41.90047" lon="8.54079">
        <ele>-4.1885986328125</ele>
        <time>2015-07-25T21:05:52Z</time>
      </trkpt>
      <trkpt lat="41.90021" lon="8.54101">
        <ele>-3.227294921875</ele>
        <time>2015-07-25T21:06:04Z</time>
      </trkpt>
      <trkpt lat="41.90009" lon="8.54109">
        <ele>-2.2659912109375</ele>
        <time>2015-07-25T21:06:09Z</time>
      </trkpt>
      <trkpt lat="41.89998" lon="8.54115">
        <ele>-3.7078857421875</ele>
        <time>2015-07-25T21:06:14Z</time>
      </trkpt>
      <trkpt lat="41.89982" lon="8.54125">
        <ele>-3.7078857421875</ele>
        <time>2015-07-25T21:06:21Z</time>
      </trkpt>
      <trkpt lat="41.89965" lon="8.54133">
        <ele>-4.1885986328125</ele>
        <time>2015-07-25T21:06:28Z</time>
      </trkpt>
      <trkpt lat="41.89959" lon="8.54137">
        <ele>-2.2659912109375</ele>
        <time>2015-07-25T21:06:30Z</time>
      </trkpt>
      <trkpt lat="41.89948" lon="8.54143">
        <ele>-3.7078857421875</ele>
        <time>2015-07-25T21:06:35Z</time>
      </trkpt>
      <trkpt lat="41.89918" lon="8.54159">
        <ele>-3.7078857421875</ele>
        <time>2015-07-25T21:06:48Z</time>
      </trkpt>
      <trkpt lat="41.899" lon="8.54171">
        <ele>-4.1885986328125</ele>
        <time>2015-07-25T21:06:56Z</time>
      </trkpt>
      <trkpt lat="41.89891" lon="8.54178">
        <ele>-1.3046875</ele>
        <time>2015-07-25T21:07:00Z</time>
      </trkpt>
      <trkpt lat="41.89883" lon="8.54183">
        <ele>-3.7078857421875</ele>
        <time>2015-07-25T21:07:03Z</time>
      </trkpt>
      <trkpt lat="41.8988" lon="8.54185">
        <ele>-3.7078857421875</ele>
        <time>2015-07-25T21:07:04Z</time>
      </trkpt>
      <trkpt lat="41.89856" lon="8.542">
        <ele>-4.1885986328125</ele>
        <time>2015-07-25T21:07:15Z</time>
      </trkpt>
      <trkpt lat="41.89846" lon="8.54208">
        <ele>-2.2659912109375</ele>
        <time>2015-07-25T21:07:19Z</time>
      </trkpt>
      <trkpt lat="41.89844" lon="8.5421">
        <ele>-1.7852783203125</ele>
        <time>2015-07-25T21:07:20Z</time>
      </trkpt>
      <trkpt lat="41.89838" lon="8.54214">
        <ele>-3.227294921875</ele>
        <time>2015-07-25T21:07:23Z</time>
      </trkpt>
      <trkpt lat="41.89808" lon="8.54232">
        <ele>-3.7078857421875</ele>
        <time>2015-07-25T21:07:36Z</time>
      </trkpt>
      <trkpt lat="41.89798" lon="8.54236">
        <ele>-1.7852783203125</ele>
        <time>2015-07-25T21:07:40Z</time>
      </trkpt>
      <trkpt lat="41.89788" lon="8.5424">
        <ele>-3.227294921875</ele>
        <time>2015-07-25T21:07:44Z</time>
      </trkpt>
      <trkpt lat="41.89764" lon="8.54251">
        <ele>-3.7078857421875</ele>
        <time>2015-07-25T21:07:53Z</time>
      </trkpt>
      <trkpt lat="41.89757" lon="8.54257">
        <ele>-1.7852783203125</ele>
        <time>2015-07-25T21:07:56Z</time>
      </trkpt>
      <trkpt lat="41.89747" lon="8.5426">
        <ele>-4.1885986328125</ele>
        <time>2015-07-25T21:08:00Z</time>
      </trkpt>
      <trkpt lat="41.89738" lon="8.54263">
        <ele>-2.2659912109375</ele>
        <time>2015-07-25T21:08:03Z</time>
      </trkpt>
      <trkpt lat="41.8971" lon="8.54271">
        <ele>-2.2659912109375</ele>
        <time>2015-07-25T21:08:14Z</time>
      </trkpt>
      <trkpt lat="41.89705" lon="8.54273">
        <ele>-3.7078857421875</ele>
        <time>2015-07-25T21:08:16Z</time>
      </trkpt>
      <trkpt lat="41.89692" lon="8.5428">
        <ele>-2.2659912109375</ele>
        <time>2015-07-25T21:08:21Z</time>
      </trkpt>
      <trkpt lat="41.89685" lon="8.54282">
        <ele>-3.227294921875</ele>
        <time>2015-07-25T21:08:24Z</time>
      </trkpt>
      <trkpt lat="41.89676" lon="8.54289">
        <ele>-3.227294921875</ele>
        <time>2015-07-25T21:08:28Z</time>
      </trkpt>
      <trkpt lat="41.89646" lon="8.54311">
        <ele>-2.2659912109375</ele>
        <time>2015-07-25T21:08:40Z</time>
      </trkpt>
      <trkpt lat="41.89641" lon="8.54316">
        <ele>-2.2659912109375</ele>
        <time>2015-07-25T21:08:42Z</time>
      </trkpt>
      <trkpt lat="41.89639" lon="8.54317">
        <ele>-3.7078857421875</ele>
        <time>2015-07-25T21:08:44Z</time>
      </trkpt>
      <trkpt lat="41.89637" lon="8.54318">
        <ele>-3.7078857421875</ele>
        <time>2015-07-25T21:08:45Z</time>
      </trkpt>
      <trkpt lat="41.89626" lon="8.54328">
        <ele>-1.3046875</ele>
        <time>2015-07-25T21:08:49Z</time>
      </trkpt>
      <trkpt lat="41.89618" lon="8.54332">
        <ele>-3.7078857421875</ele>
        <time>2015-07-25T21:08:53Z</time>
      </trkpt>
      <trkpt lat="41.89589" lon="8.54358">
        <ele>-3.227294921875</ele>
        <time>2015-07-25T21:09:06Z</time>
      </trkpt>
      <trkpt lat="41.8957" lon="8.5437">
        <ele>-3.227294921875</ele>
        <time>2015-07-25T21:09:14Z</time>
      </trkpt>
      <trkpt lat="41.89534" lon="8.54396">
        <ele>-4.1885986328125</ele>
        <time>2015-07-25T21:09:30Z</time>
      </trkpt>
      <trkpt lat="41.89531" lon="8.54397">
        <ele>-4.1885986328125</ele>
        <time>2015-07-25T21:09:31Z</time>
      </trkpt>
      <trkpt lat="41.89503" lon="8.54419">
        <ele>-2.7467041015625</ele>
        <time>2015-07-25T21:09:44Z</time>
      </trkpt>
      <trkpt lat="41.89464" lon="8.54441">
        <ele>-3.227294921875</ele>
        <time>2015-07-25T21:10:00Z</time>
      </trkpt>
      <trkpt lat="41.89449" lon="8.54454">
        <ele>-3.7078857421875</ele>
        <time>2015-07-25T21:10:07Z</time>
      </trkpt>
      <trkpt lat="41.89437" lon="8.54464">
        <ele>-1.7852783203125</ele>
        <time>2015-07-25T21:10:12Z</time>
      </trkpt>
      <trkpt lat="41.89431" lon="8.5447">
        <ele>-3.7078857421875</ele>
        <time>2015-07-25T21:10:15Z</time>
      </trkpt>
      <trkpt lat="41.89394" lon="8.54499">
        <ele>-3.7078857421875</ele>
        <time>2015-07-25T21:10:31Z</time>
      </trkpt>
      <trkpt lat="41.89372" lon="8.54515">
        <ele>-2.2659912109375</ele>
        <time>2015-07-25T21:10:41Z</time>
      </trkpt>
      <trkpt lat="41.89336" lon="8.54537">
        <ele>-1.3046875</ele>
        <time>2015-07-25T21:10:56Z</time>
      </trkpt>
      <trkpt lat="41.89329" lon="8.54541">
        <ele>-3.227294921875</ele>
        <time>2015-07-25T21:10:59Z</time>
      </trkpt>
      <trkpt lat="41.89306" lon="8.54561">
        <ele>-3.227294921875</ele>
        <time>2015-07-25T21:11:10Z</time>
      </trkpt>
      <trkpt lat="41.89284" lon="8.54583">
        <ele>-3.227294921875</ele>
        <time>2015-07-25T21:11:20Z</time>
      </trkpt>
      <trkpt lat="41.89266" lon="8.54604">
        <ele>-2.7467041015625</ele>
        <time>2015-07-25T21:11:29Z</time>
      </trkpt>
      <trkpt lat="41.89244" lon="8.54625">
        <ele>-2.2659912109375</ele>
        <time>2015-07-25T21:11:40Z</time>
      </trkpt>
      <trkpt lat="41.89215" lon="8.54649">
        <ele>-2.7467041015625</ele>
        <time>2015-07-25T21:11:54Z</time>
      </trkpt>
      <trkpt lat="41.89196" lon="8.54667">
        <ele>-3.7078857421875</ele>
        <time>2015-07-25T21:12:03Z</time>
      </trkpt>
      <trkpt lat="41.89189" lon="8.54674">
        <ele>-1.7852783203125</ele>
        <time>2015-07-25T21:12:06Z</time>
      </trkpt>
      <trkpt lat="41.89178" lon="8.54682">
        <ele>-3.7078857421875</ele>
        <time>2015-07-25T21:12:11Z</time>
      </trkpt>
      <trkpt lat="41.89175" lon="8.54687">
        <ele>-2.2659912109375</ele>
        <time>2015-07-25T21:12:13Z</time>
      </trkpt>
      <trkpt lat="41.89144" lon="8.54713">
        <ele>-1.3046875</ele>
        <time>2015-07-25T21:12:26Z</time>
      </trkpt>
      <trkpt lat="41.89134" lon="8.54721">
        <ele>-3.227294921875</ele>
        <time>2015-07-25T21:12:31Z</time>
      </trkpt>
      <trkpt lat="41.89131" lon="8.54722">
        <ele>-1.7852783203125</ele>
        <time>2015-07-25T21:12:32Z</time>
      </trkpt>
      <trkpt lat="41.89126" lon="8.54724">
        <ele>-1.3046875</ele>
        <time>2015-07-25T21:12:34Z</time>
      </trkpt>
      <trkpt lat="41.89114" lon="8.54728">
        <ele>-2.2659912109375</ele>
        <time>2015-07-25T21:12:39Z</time>
      </trkpt>
      <trkpt lat="41.89094" lon="8.54739">
        <ele>-3.227294921875</ele>
        <time>2015-07-25T21:12:48Z</time>
      </trkpt>
      <trkpt lat="41.89064" lon="8.54761">
        <ele>-2.7467041015625</ele>
        <time>2015-07-25T21:13:02Z</time>
      </trkpt>
      <trkpt lat="41.89055" lon="8.54768">
        <ele>-0.8240966796875</ele>
        <time>2015-07-25T21:13:06Z</time>
      </trkpt>
      <trkpt lat="41.89051" lon="8.54771">
        <ele>-2.7467041015625</ele>
        <time>2015-07-25T21:13:08Z</time>
      </trkpt>
      <trkpt lat="41.8904" lon="8.54781">
        <ele>-1.7852783203125</ele>
        <time>2015-07-25T21:13:13Z</time>
      </trkpt>
      <trkpt lat="41.8903" lon="8.5479">
        <ele>-3.227294921875</ele>
        <time>2015-07-25T21:13:18Z</time>
      </trkpt>
      <trkpt lat="41.88999" lon="8.54814">
        <ele>-1.7852783203125</ele>
        <time>2015-07-25T21:13:32Z</time>
      </trkpt>
      <trkpt lat="41.88985" lon="8.54826">
        <ele>-1.7852783203125</ele>
        <time>2015-07-25T21:13:39Z</time>
      </trkpt>
      <trkpt lat="41.88962" lon="8.54844">
        <ele>-1.3046875</ele>
        <time>2015-07-25T21:13:48Z</time>
      </trkpt>
      <trkpt lat="41.88958" lon="8.54847">
        <ele>-2.7467041015625</ele>
        <time>2015-07-25T21:13:50Z</time>
      </trkpt>
      <trkpt lat="41.88948" lon="8.54854">
        <ele>-1.7852783203125</ele>
        <time>2015-07-25T21:13:54Z</time>
      </trkpt>
      <trkpt lat="41.88928" lon="8.54863">
        <ele>-1.3046875</ele>
        <time>2015-07-25T21:14:02Z</time>
      </trkpt>
      <trkpt lat="41.88925" lon="8.54865">
        <ele>-1.3046875</ele>
        <time>2015-07-25T21:14:03Z</time>
      </trkpt>
      <trkpt lat="41.8892" lon="8.54867">
        <ele>-3.7078857421875</ele>
        <time>2015-07-25T21:14:06Z</time>
      </trkpt>
      <trkpt lat="41.88911" lon="8.54873">
        <ele>-1.7852783203125</ele>
        <time>2015-07-25T21:14:09Z</time>
      </trkpt>
      <trkpt lat="41.88905" lon="8.54877">
        <ele>-0.8240966796875</ele>
        <time>2015-07-25T21:14:11Z</time>
      </trkpt>
      <trkpt lat="41.88899" lon="8.54879">
        <ele>-4.1885986328125</ele>
        <time>2015-07-25T21:14:14Z</time>
      </trkpt>
      <trkpt lat="41.88892" lon="8.54884">
        <ele>-1.3046875</ele>
        <time>2015-07-25T21:14:17Z</time>
      </trkpt>
      <trkpt lat="41.88869" lon="8.54893">
        <ele>-2.2659912109375</ele>
        <time>2015-07-25T21:14:27Z</time>
      </trkpt>
      <trkpt lat="41.8886" lon="8.54895">
        <ele>-2.7467041015625</ele>
        <time>2015-07-25T21:14:30Z</time>
      </trkpt>
      <trkpt lat="41.88856" lon="8.54899">
        <ele>-1.7852783203125</ele>
        <time>2015-07-25T21:14:32Z</time>
      </trkpt>
      <trkpt lat="41.88826" lon="8.54922">
        <ele>-3.227294921875</ele>
        <time>2015-07-25T21:14:45Z</time>
      </trkpt>
      <trkpt lat="41.88819" lon="8.54927">
        <ele>-3.7078857421875</ele>
        <time>2015-07-25T21:14:48Z</time>
      </trkpt>
      <trkpt lat="41.88814" lon="8.54931">
        <ele>-2.7467041015625</ele>
        <time>2015-07-25T21:14:50Z</time>
      </trkpt>
      <trkpt lat="41.88788" lon="8.54947">
        <ele>-1.7852783203125</ele>
        <time>2015-07-25T21:15:02Z</time>
      </trkpt>
      <trkpt lat="41.88756" lon="8.54965">
        <ele>-2.7467041015625</ele>
        <time>2015-07-25T21:15:15Z</time>
      </trkpt>
      <trkpt lat="41.88753" lon="8.54966">
        <ele>-2.7467041015625</ele>
        <time>2015-07-25T21:15:16Z</time>
      </trkpt>
      <trkpt lat="41.88738" lon="8.54978">
        <ele>-0.8240966796875</ele>
        <time>2015-07-25T21:15:23Z</time>
      </trkpt>
      <trkpt lat="41.88728" lon="8.54981">
        <ele>-3.7078857421875</ele>
        <time>2015-07-25T21:15:27Z</time>
      </trkpt>
      <trkpt lat="41.88721" lon="8.54988">
        <ele>-1.3046875</ele>
        <time>2015-07-25T21:15:30Z</time>
      </trkpt>
      <trkpt lat="41.88694" lon="8.55005">
        <ele>-2.2659912109375</ele>
        <time>2015-07-25T21:15:41Z</time>
      </trkpt>
      <trkpt lat="41.88691" lon="8.55008">
        <ele>0.137451171875</ele>
        <time>2015-07-25T21:15:42Z</time>
      </trkpt>
      <trkpt lat="41.88682" lon="8.55012">
        <ele>-2.7467041015625</ele>
        <time>2015-07-25T21:15:46Z</time>
      </trkpt>
      <trkpt lat="41.88673" lon="8.55018">
        <ele>-1.7852783203125</ele>
        <time>2015-07-25T21:15:50Z</time>
      </trkpt>
      <trkpt lat="41.88647" lon="8.55034">
        <ele>-1.7852783203125</ele>
        <time>2015-07-25T21:16:00Z</time>
      </trkpt>
      <trkpt lat="41.88622" lon="8.5505">
        <ele>-1.3046875</ele>
        <time>2015-07-25T21:16:11Z</time>
      </trkpt>
      <trkpt lat="41.88604" lon="8.5506">
        <ele>-3.227294921875</ele>
        <time>2015-07-25T21:16:19Z</time>
      </trkpt>
      <trkpt lat="41.88585" lon="8.55074">
        <ele>-2.7467041015625</ele>
        <time>2015-07-25T21:16:27Z</time>
      </trkpt>
      <trkpt lat="41.88562" lon="8.55087">
        <ele>-2.7467041015625</ele>
        <time>2015-07-25T21:16:37Z</time>
      </trkpt>
      <trkpt lat="41.88535" lon="8.55104">
        <ele>-3.227294921875</ele>
        <time>2015-07-25T21:16:48Z</time>
      </trkpt>
      <trkpt lat="41.88527" lon="8.5511">
        <ele>-1.7852783203125</ele>
        <time>2015-07-25T21:16:51Z</time>
      </trkpt>
      <trkpt lat="41.88501" lon="8.55124">
        <ele>-2.2659912109375</ele>
        <time>2015-07-25T21:17:03Z</time>
      </trkpt>
      <trkpt lat="41.88473" lon="8.55142">
        <ele>-2.2659912109375</ele>
        <time>2015-07-25T21:17:15Z</time>
      </trkpt>
      <trkpt lat="41.88462" lon="8.55146">
        <ele>-2.2659912109375</ele>
        <time>2015-07-25T21:17:19Z</time>
      </trkpt>
      <trkpt lat="41.88429" lon="8.55164">
        <ele>-2.7467041015625</ele>
        <time>2015-07-25T21:17:33Z</time>
      </trkpt>
      <trkpt lat="41.88396" lon="8.55183">
        <ele>-1.7852783203125</ele>
        <time>2015-07-25T21:17:46Z</time>
      </trkpt>
      <trkpt lat="41.8839" lon="8.55186">
        <ele>-2.7467041015625</ele>
        <time>2015-07-25T21:17:49Z</time>
      </trkpt>
      <trkpt lat="41.88385" lon="8.5519">
        <ele>-1.7852783203125</ele>
        <time>2015-07-25T21:17:51Z</time>
      </trkpt>
      <trkpt lat="41.88354" lon="8.5521">
        <ele>-2.2659912109375</ele>
        <time>2015-07-25T21:18:04Z</time>
      </trkpt>
      <trkpt lat="41.8834" lon="8.55221">
        <ele>-2.2659912109375</ele>
        <time>2015-07-25T21:18:10Z</time>
      </trkpt>
      <trkpt lat="41.88303" lon="8.55238">
        <ele>-1.7852783203125</ele>
        <time>2015-07-25T21:18:25Z</time>
      </trkpt>
      <trkpt lat="41.88278" lon="8.5525">
        <ele>-1.3046875</ele>
        <time>2015-07-25T21:18:35Z</time>
      </trkpt>
      <trkpt lat="41.88255" lon="8.55267">
        <ele>-2.2659912109375</ele>
        <time>2015-07-25T21:18:45Z</time>
      </trkpt>
      <trkpt lat="41.88245" lon="8.55274">
        <ele>-1.3046875</ele>
        <time>2015-07-25T21:18:49Z</time>
      </trkpt>
      <trkpt lat="41.88242" lon="8.55274">
        <ele>-2.7467041015625</ele>
        <time>2015-07-25T21:18:51Z</time>
      </trkpt>
      <trkpt lat="41.88221" lon="8.55285">
        <ele>-2.7467041015625</ele>
        <time>2015-07-25T21:19:00Z</time>
      </trkpt>
      <trkpt lat="41.88214" lon="8.55289">
        <ele>-1.3046875</ele>
        <time>2015-07-25T21:19:03Z</time>
      </trkpt>
      <trkpt lat="41.88199" lon="8.55299">
        <ele>-3.227294921875</ele>
        <time>2015-07-25T21:19:10Z</time>
      </trkpt>
      <trkpt lat="41.88189" lon="8.55306">
        <ele>-0.8240966796875</ele>
        <time>2015-07-25T21:19:14Z</time>
      </trkpt>
      <trkpt lat="41.88184" lon="8.55309">
        <ele>-2.2659912109375</ele>
        <time>2015-07-25T21:19:16Z</time>
      </trkpt>
      <trkpt lat="41.88167" lon="8.55316">
        <ele>-1.3046875</ele>
        <time>2015-07-25T21:19:23Z</time>
      </trkpt>
      <trkpt lat="41.88143" lon="8.55335">
        <ele>-0.3433837890625</ele>
        <time>2015-07-25T21:19:33Z</time>
      </trkpt>
      <trkpt lat="41.88139" lon="8.55336">
        <ele>-2.2659912109375</ele>
        <time>2015-07-25T21:19:35Z</time>
      </trkpt>
      <trkpt lat="41.88125" lon="8.55345">
        <ele>-0.3433837890625</ele>
        <time>2015-07-25T21:19:40Z</time>
      </trkpt>
      <trkpt lat="41.88115" lon="8.55349">
        <ele>-2.7467041015625</ele>
        <time>2015-07-25T21:19:44Z</time>
      </trkpt>
      <trkpt lat="41.88087" lon="8.55367">
        <ele>-2.7467041015625</ele>
        <time>2015-07-25T21:19:56Z</time>
      </trkpt>
      <trkpt lat="41.88085" lon="8.55368">
        <ele>-1.7852783203125</ele>
        <time>2015-07-25T21:19:57Z</time>
      </trkpt>
      <trkpt lat="41.88069" lon="8.55378">
        <ele>-2.2659912109375</ele>
        <time>2015-07-25T21:20:04Z</time>
      </trkpt>
      <trkpt lat="41.88039" lon="8.55394">
        <ele>-3.227294921875</ele>
        <time>2015-07-25T21:20:17Z</time>
      </trkpt>
      <trkpt lat="41.88028" lon="8.55401">
        <ele>-0.8240966796875</ele>
        <time>2015-07-25T21:20:21Z</time>
      </trkpt>
      <trkpt lat="41.88022" lon="8.55404">
        <ele>-2.2659912109375</ele>
        <time>2015-07-25T21:20:24Z</time>
      </trkpt>
      <trkpt lat="41.88003" lon="8.55414">
        <ele>-0.8240966796875</ele>
        <time>2015-07-25T21:20:31Z</time>
      </trkpt>
      <trkpt lat="41.87998" lon="8.55417">
        <ele>-2.2659912109375</ele>
        <time>2015-07-25T21:20:33Z</time>
      </trkpt>
      <trkpt lat="41.87964" lon="8.55438">
        <ele>-2.2659912109375</ele>
        <time>2015-07-25T21:20:48Z</time>
      </trkpt>
      <trkpt lat="41.87943" lon="8.55451">
        <ele>-1.7852783203125</ele>
        <time>2015-07-25T21:20:56Z</time>
      </trkpt>
      <trkpt lat="41.87921" lon="8.55462">
        <ele>-2.2659912109375</ele>
        <time>2015-07-25T21:21:05Z</time>
      </trkpt>
      <trkpt lat="41.87895" lon="8.55476">
        <ele>-3.227294921875</ele>
        <time>2015-07-25T21:21:17Z</time>
      </trkpt>
      <trkpt lat="41.87865" lon="8.55489">
        <ele>-1.3046875</ele>
        <time>2015-07-25T21:21:29Z</time>
      </trkpt>
      <trkpt lat="41.87856" lon="8.55494">
        <ele>-2.7467041015625</ele>
        <time>2015-07-25T21:21:33Z</time>
      </trkpt>
      <trkpt lat="41.87851" lon="8.55497">
        <ele>-2.7467041015625</ele>
        <time>2015-07-25T21:21:35Z</time>
      </trkpt>
      <trkpt lat="41.87847" lon="8.55498">
        <ele>-2.2659912109375</ele>
        <time>2015-07-25T21:21:37Z</time>
      </trkpt>
      <trkpt lat="41.87828" lon="8.55511">
        <ele>-3.227294921875</ele>
        <time>2015-07-25T21:21:45Z</time>
      </trkpt>
      <trkpt lat="41.87805" lon="8.55524">
        <ele>-2.7467041015625</ele>
        <time>2015-07-25T21:21:54Z</time>
      </trkpt>
      <trkpt lat="41.87801" lon="8.55525">
        <ele>-4.1885986328125</ele>
        <time>2015-07-25T21:21:56Z</time>
      </trkpt>
      <trkpt lat="41.87793" lon="8.55533">
        <ele>-0.8240966796875</ele>
        <time>2015-07-25T21:21:59Z</time>
      </trkpt>
      <trkpt lat="41.87778" lon="8.5554">
        <ele>-2.2659912109375</ele>
        <time>2015-07-25T21:22:05Z</time>
      </trkpt>
      <trkpt lat="41.87759" lon="8.55553">
        <ele>-0.8240966796875</ele>
        <time>2015-07-25T21:22:13Z</time>
      </trkpt>
      <trkpt lat="41.87754" lon="8.55556">
        <ele>-2.2659912109375</ele>
        <time>2015-07-25T21:22:15Z</time>
      </trkpt>
      <trkpt lat="41.87738" lon="8.55566">
        <ele>-0.8240966796875</ele>
        <time>2015-07-25T21:22:22Z</time>
      </trkpt>
      <trkpt lat="41.87733" lon="8.55567">
        <ele>-1.7852783203125</ele>
        <time>2015-07-25T21:22:24Z</time>
      </trkpt>
      <trkpt lat="41.87729" lon="8.55569">
        <ele>-3.227294921875</ele>
        <time>2015-07-25T21:22:26Z</time>
      </trkpt>
      <trkpt lat="41.87721" lon="8.55575">
        <ele>-1.3046875</ele>
        <time>2015-07-25T21:22:29Z</time>
      </trkpt>
      <trkpt lat="41.87707" lon="8.55584">
        <ele>-2.7467041015625</ele>
        <time>2015-07-25T21:22:35Z</time>
      </trkpt>
      <trkpt lat="41.87685" lon="8.55597">
        <ele>-2.7467041015625</ele>
        <time>2015-07-25T21:22:44Z</time>
      </trkpt>
      <trkpt lat="41.8768" lon="8.55598">
        <ele>-1.7852783203125</ele>
        <time>2015-07-25T21:22:46Z</time>
      </trkpt>
      <trkpt lat="41.87673" lon="8.55604">
        <ele>-0.8240966796875</ele>
        <time>2015-07-25T21:22:49Z</time>
      </trkpt>
      <trkpt lat="41.87642" lon="8.5562">
        <ele>-2.2659912109375</ele>
        <time>2015-07-25T21:23:01Z</time>
      </trkpt>
      <trkpt lat="41.87608" lon="8.55638">
        <ele>-1.7852783203125</ele>
        <time>2015-07-25T21:23:16Z</time>
      </trkpt>
      <trkpt lat="41.87588" lon="8.55651">
        <ele>-2.2659912109375</ele>
        <time>2015-07-25T21:23:24Z</time>
      </trkpt>
      <trkpt lat="41.87578" lon="8.55658">
        <ele>-2.2659912109375</ele>
        <time>2015-07-25T21:23:28Z</time>
      </trkpt>
      <trkpt lat="41.87556" lon="8.55674">
        <ele>-3.227294921875</ele>
        <time>2015-07-25T21:23:38Z</time>
      </trkpt>
      <trkpt lat="41.87552" lon="8.55675">
        <ele>-1.7852783203125</ele>
        <time>2015-07-25T21:23:40Z</time>
      </trkpt>
      <trkpt lat="41.87546" lon="8.55675">
        <ele>-1.7852783203125</ele>
        <time>2015-07-25T21:23:42Z</time>
      </trkpt>
      <trkpt lat="41.87515" lon="8.55695">
        <ele>-1.7852783203125</ele>
        <time>2015-07-25T21:23:55Z</time>
      </trkpt>
      <trkpt lat="41.87488" lon="8.55707">
        <ele>-2.7467041015625</ele>
        <time>2015-07-25T21:24:06Z</time>
      </trkpt>
      <trkpt lat="41.87478" lon="8.55712">
        <ele>-1.3046875</ele>
        <time>2015-07-25T21:24:10Z</time>
      </trkpt>
      <trkpt lat="41.87469" lon="8.55721">
        <ele>-1.7852783203125</ele>
        <time>2015-07-25T21:24:14Z</time>
      </trkpt>
      <trkpt lat="41.87457" lon="8.55728">
        <ele>-1.3046875</ele>
        <time>2015-07-25T21:24:20Z</time>
      </trkpt>
      <trkpt lat="41.87444" lon="8.55734">
        <ele>-2.2659912109375</ele>
        <time>2015-07-25T21:24:25Z</time>
      </trkpt>
      <trkpt lat="41.87427" lon="8.55744">
        <ele>-1.3046875</ele>
        <time>2015-07-25T21:24:31Z</time>
      </trkpt>
      <trkpt lat="41.87401" lon="8.55757">
        <ele>-1.7852783203125</ele>
        <time>2015-07-25T21:24:42Z</time>
      </trkpt>
      <trkpt lat="41.87379" lon="8.55772">
        <ele>-1.7852783203125</ele>
        <time>2015-07-25T21:24:52Z</time>
      </trkpt>
      <trkpt lat="41.87369" lon="8.55778">
        <ele>-2.2659912109375</ele>
        <time>2015-07-25T21:24:56Z</time>
      </trkpt>
      <trkpt lat="41.87356" lon="8.55787">
        <ele>-0.8240966796875</ele>
        <time>2015-07-25T21:25:02Z</time>
      </trkpt>
      <trkpt lat="41.87342" lon="8.55792">
        <ele>-2.2659912109375</ele>
        <time>2015-07-25T21:25:07Z</time>
      </trkpt>
      <trkpt lat="41.87326" lon="8.55801">
        <ele>-0.8240966796875</ele>
        <time>2015-07-25T21:25:13Z</time>
      </trkpt>
      <trkpt lat="41.87322" lon="8.558">
        <ele>-2.2659912109375</ele>
        <time>2015-07-25T21:25:15Z</time>
      </trkpt>
      <trkpt lat="41.87284" lon="8.55819">
        <ele>-1.3046875</ele>
        <time>2015-07-25T21:25:30Z</time>
      </trkpt>
      <trkpt lat="41.87256" lon="8.55838">
        <ele>-2.2659912109375</ele>
        <time>2015-07-25T21:25:42Z</time>
      </trkpt>
      <trkpt lat="41.87254" lon="8.55839">
        <ele>-2.2659912109375</ele>
        <time>2015-07-25T21:25:43Z</time>
      </trkpt>
      <trkpt lat="41.87247" lon="8.55841">
        <ele>-2.7467041015625</ele>
        <time>2015-07-25T21:25:46Z</time>
      </trkpt>
      <trkpt lat="41.8724" lon="8.55846">
        <ele>-1.3046875</ele>
        <time>2015-07-25T21:25:49Z</time>
      </trkpt>
      <trkpt lat="41.8722" lon="8.55856">
        <ele>-1.7852783203125</ele>
        <time>2015-07-25T21:25:57Z</time>
      </trkpt>
      <trkpt lat="41.87213" lon="8.55861">
        <ele>-1.7852783203125</ele>
        <time>2015-07-25T21:26:00Z</time>
      </trkpt>
      <trkpt lat="41.87208" lon="8.55861">
        <ele>-2.2659912109375</ele>
        <time>2015-07-25T21:26:02Z</time>
      </trkpt>
      <trkpt lat="41.87174" lon="8.55883">
        <ele>-1.7852783203125</ele>
        <time>2015-07-25T21:26:16Z</time>
      </trkpt>
      <trkpt lat="41.87152" lon="8.55893">
        <ele>-2.2659912109375</ele>
        <time>2015-07-25T21:26:25Z</time>
      </trkpt>
      <trkpt lat="41.87128" lon="8.55905">
        <ele>-2.2659912109375</ele>
        <time>2015-07-25T21:26:34Z</time>
      </trkpt>
      <trkpt lat="41.87099" lon="8.55923">
        <ele>-1.7852783203125</ele>
        <time>2015-07-25T21:26:47Z</time>
      </trkpt>
      <trkpt lat="41.87079" lon="8.55936">
        <ele>-0.8240966796875</ele>
        <time>2015-07-25T21:26:55Z</time>
      </trkpt>
      <trkpt lat="41.87069" lon="8.55941">
        <ele>-2.2659912109375</ele>
        <time>2015-07-25T21:26:59Z</time>
      </trkpt>
      <trkpt lat="41.87049" lon="8.55951">
        <ele>-2.7467041015625</ele>
        <time>2015-07-25T21:27:06Z</time>
      </trkpt>
      <trkpt lat="41.87043" lon="8.55955">
        <ele>-1.3046875</ele>
        <time>2015-07-25T21:27:09Z</time>
      </trkpt>
      <trkpt lat="41.87029" lon="8.55963">
        <ele>-1.7852783203125</ele>
        <time>2015-07-25T21:27:15Z</time>
      </trkpt>
      <trkpt lat="41.86998" lon="8.55978">
        <ele>-1.3046875</ele>
        <time>2015-07-25T21:27:27Z</time>
      </trkpt>
      <trkpt lat="41.86993" lon="8.55982">
        <ele>-0.8240966796875</ele>
        <time>2015-07-25T21:27:29Z</time>
      </trkpt>
      <trkpt lat="41.86986" lon="8.55983">
        <ele>-3.227294921875</ele>
        <time>2015-07-25T21:27:32Z</time>
      </trkpt>
      <trkpt lat="41.86961" lon="8.56">
        <ele>-2.7467041015625</ele>
        <time>2015-07-25T21:27:43Z</time>
      </trkpt>
      <trkpt lat="41.86953" lon="8.56005">
        <ele>-1.3046875</ele>
        <time>2015-07-25T21:27:46Z</time>
      </trkpt>
      <trkpt lat="41.86943" lon="8.56013">
        <ele>-2.2659912109375</ele>
        <time>2015-07-25T21:27:50Z</time>
      </trkpt>
      <trkpt lat="41.86937" lon="8.56014">
        <ele>-3.7078857421875</ele>
        <time>2015-07-25T21:27:53Z</time>
      </trkpt>
      <trkpt lat="41.86931" lon="8.56019">
        <ele>-1.7852783203125</ele>
        <time>2015-07-25T21:27:55Z</time>
      </trkpt>
      <trkpt lat="41.86925" lon="8.56024">
        <ele>0.137451171875</ele>
        <time>2015-07-25T21:27:57Z</time>
      </trkpt>
      <trkpt lat="41.86918" lon="8.56028">
        <ele>-2.7467041015625</ele>
        <time>2015-07-25T21:28:00Z</time>
      </trkpt>
      <trkpt lat="41.86914" lon="8.5603">
        <ele>-3.7078857421875</ele>
        <time>2015-07-25T21:28:02Z</time>
      </trkpt>
      <trkpt lat="41.86906" lon="8.56037">
        <ele>-0.8240966796875</ele>
        <time>2015-07-25T21:28:05Z</time>
      </trkpt>
      <trkpt lat="41.86896" lon="8.56042">
        <ele>-1.7852783203125</ele>
        <time>2015-07-25T21:28:09Z</time>
      </trkpt>
      <trkpt lat="41.86893" lon="8.56045">
        <ele>-3.227294921875</ele>
        <time>2015-07-25T21:28:11Z</time>
      </trkpt>
      <trkpt lat="41.86885" lon="8.56049">
        <ele>-1.7852783203125</ele>
        <time>2015-07-25T21:28:14Z</time>
      </trkpt>
      <trkpt lat="41.86877" lon="8.56054">
        <ele>-2.2659912109375</ele>
        <time>2015-07-25T21:28:18Z</time>
      </trkpt>
      <trkpt lat="41.86864" lon="8.56059">
        <ele>-2.7467041015625</ele>
        <time>2015-07-25T21:28:23Z</time>
      </trkpt>
      <trkpt lat="41.86833" lon="8.56077">
        <ele>-1.7852783203125</ele>
        <time>2015-07-25T21:28:36Z</time>
      </trkpt>
      <trkpt lat="41.86809" lon="8.5609">
        <ele>-0.8240966796875</ele>
        <time>2015-07-25T21:28:46Z</time>
      </trkpt>
      <trkpt lat="41.86803" lon="8.56092">
        <ele>-3.7078857421875</ele>
        <time>2015-07-25T21:28:49Z</time>
      </trkpt>
      <trkpt lat="41.86792" lon="8.56097">
        <ele>-1.3046875</ele>
        <time>2015-07-25T21:28:53Z</time>
      </trkpt>
      <trkpt lat="41.86784" lon="8.56105">
        <ele>-1.3046875</ele>
        <time>2015-07-25T21:28:56Z</time>
      </trkpt>
      <trkpt lat="41.8678" lon="8.56107">
        <ele>-3.227294921875</ele>
        <time>2015-07-25T21:28:58Z</time>
      </trkpt>
      <trkpt lat="41.86768" lon="8.56112">
        <ele>-2.2659912109375</ele>
        <time>2015-07-25T21:29:02Z</time>
      </trkpt>
      <trkpt lat="41.86744" lon="8.56124">
        <ele>-0.8240966796875</ele>
        <time>2015-07-25T21:29:12Z</time>
      </trkpt>
      <trkpt lat="41.86716" lon="8.5614">
        <ele>-1.3046875</ele>
        <time>2015-07-25T21:29:24Z</time>
      </trkpt>
      <trkpt lat="41.86694" lon="8.56152">
        <ele>-1.3046875</ele>
        <time>2015-07-25T21:29:32Z</time>
      </trkpt>
      <trkpt lat="41.86666" lon="8.56168">
        <ele>-2.2659912109375</ele>
        <time>2015-07-25T21:29:43Z</time>
      </trkpt>
      <trkpt lat="41.86633" lon="8.56187">
        <ele>-1.7852783203125</ele>
        <time>2015-07-25T21:29:57Z</time>
      </trkpt>
      <trkpt lat="41.86603" lon="8.56202">
        <ele>-1.3046875</ele>
        <time>2015-07-25T21:30:09Z</time>
      </trkpt>
      <trkpt lat="41.86596" lon="8.56203">
        <ele>-2.7467041015625</ele>
        <time>2015-07-25T21:30:12Z</time>
      </trkpt>
      <trkpt lat="41.86566" lon="8.56224">
        <ele>-0.8240966796875</ele>
        <time>2015-07-25T21:30:24Z</time>
      </trkpt>
      <trkpt lat="41.86553" lon="8.56228">
        <ele>-2.2659912109375</ele>
        <time>2015-07-25T21:30:29Z</time>
      </trkpt>
      <trkpt lat="41.86519" lon="8.56247">
        <ele>-2.2659912109375</ele>
        <time>2015-07-25T21:30:43Z</time>
      </trkpt>
      <trkpt lat="41.86517" lon="8.56249">
        <ele>-2.2659912109375</ele>
        <time>2015-07-25T21:30:44Z</time>
      </trkpt>
      <trkpt lat="41.865" lon="8.56257">
        <ele>-2.7467041015625</ele>
        <time>2015-07-25T21:30:51Z</time>
      </trkpt>
      <trkpt lat="41.86496" lon="8.5626">
        <ele>-1.3046875</ele>
        <time>2015-07-25T21:30:53Z</time>
      </trkpt>
      <trkpt lat="41.86462" lon="8.56274">
        <ele>-2.2659912109375</ele>
        <time>2015-07-25T21:31:07Z</time>
      </trkpt>
      <trkpt lat="41.86431" lon="8.5629">
        <ele>-1.3046875</ele>
        <time>2015-07-25T21:31:19Z</time>
      </trkpt>
      <trkpt lat="41.86404" lon="8.56303">
        <ele>-0.8240966796875</ele>
        <time>2015-07-25T21:31:30Z</time>
      </trkpt>
      <trkpt lat="41.86372" lon="8.56318">
        <ele>-1.3046875</ele>
        <time>2015-07-25T21:31:42Z</time>
      </trkpt>
      <trkpt lat="41.86351" lon="8.56331">
        <ele>-0.8240966796875</ele>
        <time>2015-07-25T21:31:51Z</time>
      </trkpt>
      <trkpt lat="41.8634" lon="8.56339">
        <ele>-2.2659912109375</ele>
        <time>2015-07-25T21:31:56Z</time>
      </trkpt>
      <trkpt lat="41.86322" lon="8.5635">
        <ele>-1.3046875</ele>
        <time>2015-07-25T21:32:03Z</time>
      </trkpt>
      <trkpt lat="41.86293" lon="8.56367">
        <ele>-2.7467041015625</ele>
        <time>2015-07-25T21:32:15Z</time>
      </trkpt>
      <trkpt lat="41.8627" lon="8.56378">
        <ele>-2.7467041015625</ele>
        <time>2015-07-25T21:32:24Z</time>
      </trkpt>
      <trkpt lat="41.86263" lon="8.56379">
        <ele>-2.2659912109375</ele>
        <time>2015-07-25T21:32:27Z</time>
      </trkpt>
      <trkpt lat="41.86253" lon="8.56386">
        <ele>0.6180419921875</ele>
        <time>2015-07-25T21:32:30Z</time>
      </trkpt>
      <trkpt lat="41.8625" lon="8.56388">
        <ele>0.6180419921875</ele>
        <time>2015-07-25T21:32:31Z</time>
      </trkpt>
      <trkpt lat="41.86247" lon="8.5639">
        <ele>-1.3046875</ele>
        <time>2015-07-25T21:32:33Z</time>
      </trkpt>
      <trkpt lat="41.86239" lon="8.56393">
        <ele>-1.3046875</ele>
        <time>2015-07-25T21:32:37Z</time>
      </trkpt>
      <trkpt lat="41.86229" lon="8.564">
        <ele>0.137451171875</ele>
        <time>2015-07-25T21:32:41Z</time>
      </trkpt>
      <trkpt lat="41.86219" lon="8.56403">
        <ele>-1.7852783203125</ele>
        <time>2015-07-25T21:32:45Z</time>
      </trkpt>
      <trkpt lat="41.86186" lon="8.56423">
        <ele>-1.3046875</ele>
        <time>2015-07-25T21:32:58Z</time>
      </trkpt>
      <trkpt lat="41.86148" lon="8.56447">
        <ele>-0.8240966796875</ele>
        <time>2015-07-25T21:33:14Z</time>
      </trkpt>
      <trkpt lat="41.86136" lon="8.56454">
        <ele>-0.8240966796875</ele>
        <time>2015-07-25T21:33:19Z</time>
      </trkpt>
      <trkpt lat="41.86113" lon="8.56469">
        <ele>0.137451171875</ele>
        <time>2015-07-25T21:33:29Z</time>
      </trkpt>
      <trkpt lat="41.86105" lon="8.56471">
        <ele>-2.7467041015625</ele>
        <time>2015-07-25T21:33:32Z</time>
      </trkpt>
      <trkpt lat="41.86103" lon="8.56471">
        <ele>-2.7467041015625</ele>
        <time>2015-07-25T21:33:33Z</time>
      </trkpt>
      <trkpt lat="41.86098" lon="8.56475">
        <ele>0.6180419921875</ele>
        <time>2015-07-25T21:33:35Z</time>
      </trkpt>
      <trkpt lat="41.86095" lon="8.56477">
        <ele>0.6180419921875</ele>
        <time>2015-07-25T21:33:36Z</time>
      </trkpt>
      <trkpt lat="41.86084" lon="8.56481">
        <ele>-1.3046875</ele>
        <time>2015-07-25T21:33:40Z</time>
      </trkpt>
      <trkpt lat="41.86051" lon="8.56499">
        <ele>-0.3433837890625</ele>
        <time>2015-07-25T21:33:54Z</time>
      </trkpt>
      <trkpt lat="41.86027" lon="8.56514">
        <ele>-0.8240966796875</ele>
        <time>2015-07-25T21:34:04Z</time>
      </trkpt>
      <trkpt lat="41.8602" lon="8.56519">
        <ele>0.137451171875</ele>
        <time>2015-07-25T21:34:07Z</time>
      </trkpt>
      <trkpt lat="41.86012" lon="8.56521">
        <ele>-1.3046875</ele>
        <time>2015-07-25T21:34:10Z</time>
      </trkpt>
      <trkpt lat="41.85981" lon="8.56537">
        <ele>0.137451171875</ele>
        <time>2015-07-25T21:34:22Z</time>
      </trkpt>
      <trkpt lat="41.85953" lon="8.56551">
        <ele>-0.8240966796875</ele>
        <time>2015-07-25T21:34:34Z</time>
      </trkpt>
      <trkpt lat="41.85924" lon="8.5657">
        <ele>0.6180419921875</ele>
        <time>2015-07-25T21:34:46Z</time>
      </trkpt>
      <trkpt lat="41.85905" lon="8.56581">
        <ele>0.6180419921875</ele>
        <time>2015-07-25T21:34:54Z</time>
      </trkpt>
      <trkpt lat="41.85874" lon="8.56596">
        <ele>0.137451171875</ele>
        <time>2015-07-25T21:35:06Z</time>
      </trkpt>
      <trkpt lat="41.85836" lon="8.56617">
        <ele>-0.8240966796875</ele>
        <time>2015-07-25T21:35:22Z</time>
      </trkpt>
      <trkpt lat="41.85811" lon="8.56629">
        <ele>-1.7852783203125</ele>
        <time>2015-07-25T21:35:32Z</time>
      </trkpt>
      <trkpt lat="41.85801" lon="8.56637">
        <ele>1.579345703125</ele>
        <time>2015-07-25T21:35:36Z</time>
      </trkpt>
      <trkpt lat="41.85792" lon="8.56639">
        <ele>-0.8240966796875</ele>
        <time>2015-07-25T21:35:39Z</time>
      </trkpt>
      <trkpt lat="41.85788" lon="8.56641">
        <ele>-1.3046875</ele>
        <time>2015-07-25T21:35:41Z</time>
      </trkpt>
      <trkpt lat="41.85783" lon="8.56646">
        <ele>0.137451171875</ele>
        <time>2015-07-25T21:35:43Z</time>
      </trkpt>
      <trkpt lat="41.85776" lon="8.56651">
        <ele>1.579345703125</ele>
        <time>2015-07-25T21:35:45Z</time>
      </trkpt>
      <trkpt lat="41.85771" lon="8.56653">
        <ele>-1.7852783203125</ele>
        <time>2015-07-25T21:35:47Z</time>
      </trkpt>
      <trkpt lat="41.85769" lon="8.56652">
        <ele>-1.7852783203125</ele>
        <time>2015-07-25T21:35:48Z</time>
      </trkpt>
      <trkpt lat="41.8576" lon="8.56659">
        <ele>0.6180419921875</ele>
        <time>2015-07-25T21:35:52Z</time>
      </trkpt>
      <trkpt lat="41.85749" lon="8.56668">
        <ele>-0.3433837890625</ele>
        <time>2015-07-25T21:35:57Z</time>
      </trkpt>
      <trkpt lat="41.85722" lon="8.56683">
        <ele>-0.3433837890625</ele>
        <time>2015-07-25T21:36:08Z</time>
      </trkpt>
      <trkpt lat="41.85698" lon="8.56698">
        <ele>-0.8240966796875</ele>
        <time>2015-07-25T21:36:18Z</time>
      </trkpt>
      <trkpt lat="41.85683" lon="8.56705">
        <ele>1.0986328125</ele>
        <time>2015-07-25T21:36:24Z</time>
      </trkpt>
      <trkpt lat="41.85651" lon="8.56721">
        <ele>-0.3433837890625</ele>
        <time>2015-07-25T21:36:37Z</time>
      </trkpt>
      <trkpt lat="41.85622" lon="8.56737">
        <ele>-0.3433837890625</ele>
        <time>2015-07-25T21:36:49Z</time>
      </trkpt>
      <trkpt lat="41.85594" lon="8.56754">
        <ele>0.137451171875</ele>
        <time>2015-07-25T21:37:01Z</time>
      </trkpt>
      <trkpt lat="41.85568" lon="8.56769">
        <ele>0.6180419921875</ele>
        <time>2015-07-25T21:37:12Z</time>
      </trkpt>
      <trkpt lat="41.85534" lon="8.56786">
        <ele>0.137451171875</ele>
        <time>2015-07-25T21:37:25Z</time>
      </trkpt>
      <trkpt lat="41.85508" lon="8.568">
        <ele>0.6180419921875</ele>
        <time>2015-07-25T21:37:36Z</time>
      </trkpt>
      <trkpt lat="41.85475" lon="8.56819">
        <ele>0.137451171875</ele>
        <time>2015-07-25T21:37:50Z</time>
      </trkpt>
      <trkpt lat="41.85473" lon="8.5682">
        <ele>-0.3433837890625</ele>
        <time>2015-07-25T21:37:51Z</time>
      </trkpt>
      <trkpt lat="41.85446" lon="8.5684">
        <ele>-0.8240966796875</ele>
        <time>2015-07-25T21:38:03Z</time>
      </trkpt>
      <trkpt lat="41.85436" lon="8.56847">
        <ele>1.579345703125</ele>
        <time>2015-07-25T21:38:07Z</time>
      </trkpt>
      <trkpt lat="41.85427" lon="8.56852">
        <ele>-0.8240966796875</ele>
        <time>2015-07-25T21:38:11Z</time>
      </trkpt>
      <trkpt lat="41.85419" lon="8.56857">
        <ele>0.6180419921875</ele>
        <time>2015-07-25T21:38:14Z</time>
      </trkpt>
      <trkpt lat="41.8539" lon="8.56874">
        <ele>1.0986328125</ele>
        <time>2015-07-25T21:38:26Z</time>
      </trkpt>
      <trkpt lat="41.85377" lon="8.56882">
        <ele>-0.8240966796875</ele>
        <time>2015-07-25T21:38:32Z</time>
      </trkpt>
      <trkpt lat="41.85369" lon="8.56888">
        <ele>1.579345703125</ele>
        <time>2015-07-25T21:38:35Z</time>
      </trkpt>
      <trkpt lat="41.85359" lon="8.56892">
        <ele>0.137451171875</ele>
        <time>2015-07-25T21:38:38Z</time>
      </trkpt>
      <trkpt lat="41.85346" lon="8.56901">
        <ele>0.6180419921875</ele>
        <time>2015-07-25T21:38:44Z</time>
      </trkpt>
      <trkpt lat="41.85317" lon="8.56919">
        <ele>0.137451171875</ele>
        <time>2015-07-25T21:38:57Z</time>
      </trkpt>
      <trkpt lat="41.85292" lon="8.56935">
        <ele>0.137451171875</ele>
        <time>2015-07-25T21:39:07Z</time>
      </trkpt>
      <trkpt lat="41.85284" lon="8.5694">
        <ele>0.137451171875</ele>
        <time>2015-07-25T21:39:10Z</time>
      </trkpt>
      <trkpt lat="41.85256" lon="8.56958">
        <ele>0.6180419921875</ele>
        <time>2015-07-25T21:39:23Z</time>
      </trkpt>
      <trkpt lat="41.85224" lon="8.56978">
        <ele>0.137451171875</ele>
        <time>2015-07-25T21:39:37Z</time>
      </trkpt>
      <trkpt lat="41.85189" lon="8.57001">
        <ele>0.137451171875</ele>
        <time>2015-07-25T21:39:52Z</time>
      </trkpt>
      <trkpt lat="41.8516" lon="8.57017">
        <ele>-0.8240966796875</ele>
        <time>2015-07-25T21:40:04Z</time>
      </trkpt>
      <trkpt lat="41.85156" lon="8.57021">
        <ele>1.0986328125</ele>
        <time>2015-07-25T21:40:06Z</time>
      </trkpt>
      <trkpt lat="41.85142" lon="8.57028">
        <ele>-1.3046875</ele>
        <time>2015-07-25T21:40:12Z</time>
      </trkpt>
      <trkpt lat="41.85138" lon="8.57033">
        <ele>0.137451171875</ele>
        <time>2015-07-25T21:40:14Z</time>
      </trkpt>
      <trkpt lat="41.85127" lon="8.57041">
        <ele>-0.3433837890625</ele>
        <time>2015-07-25T21:40:19Z</time>
      </trkpt>
      <trkpt lat="41.85099" lon="8.57061">
        <ele>-0.8240966796875</ele>
        <time>2015-07-25T21:40:32Z</time>
      </trkpt>
      <trkpt lat="41.85092" lon="8.57068">
        <ele>1.0986328125</ele>
        <time>2015-07-25T21:40:35Z</time>
      </trkpt>
      <trkpt lat="41.85067" lon="8.57083">
        <ele>2.06005859375</ele>
        <time>2015-07-25T21:40:45Z</time>
      </trkpt>
      <trkpt lat="41.85059" lon="8.57089">
        <ele>-0.3433837890625</ele>
        <time>2015-07-25T21:40:49Z</time>
      </trkpt>
      <trkpt lat="41.85032" lon="8.57105">
        <ele>0.137451171875</ele>
        <time>2015-07-25T21:41:00Z</time>
      </trkpt>
      <trkpt lat="41.85005" lon="8.57122">
        <ele>-0.3433837890625</ele>
        <time>2015-07-25T21:41:12Z</time>
      </trkpt>
      <trkpt lat="41.85001" lon="8.57124">
        <ele>-0.3433837890625</ele>
        <time>2015-07-25T21:41:14Z</time>
      </trkpt>
      <trkpt lat="41.84984" lon="8.57135">
        <ele>-0.3433837890625</ele>
        <time>2015-07-25T21:41:21Z</time>
      </trkpt>
      <trkpt lat="41.84974" lon="8.57141">
        <ele>1.0986328125</ele>
        <time>2015-07-25T21:41:25Z</time>
      </trkpt>
      <trkpt lat="41.84945" lon="8.57159">
        <ele>1.579345703125</ele>
        <time>2015-07-25T21:41:38Z</time>
      </trkpt>
      <trkpt lat="41.8491" lon="8.57177">
        <ele>0.6180419921875</ele>
        <time>2015-07-25T21:41:52Z</time>
      </trkpt>
      <trkpt lat="41.84902" lon="8.57182">
        <ele>-0.8240966796875</ele>
        <time>2015-07-25T21:41:56Z</time>
      </trkpt>
      <trkpt lat="41.84893" lon="8.57186">
        <ele>0.6180419921875</ele>
        <time>2015-07-25T21:42:00Z</time>
      </trkpt>
      <trkpt lat="41.84877" lon="8.57195">
        <ele>-1.3046875</ele>
        <time>2015-07-25T21:42:07Z</time>
      </trkpt>
      <trkpt lat="41.84853" lon="8.5721">
        <ele>-0.3433837890625</ele>
        <time>2015-07-25T21:42:18Z</time>
      </trkpt>
      <trkpt lat="41.84847" lon="8.57216">
        <ele>1.0986328125</ele>
        <time>2015-07-25T21:42:21Z</time>
      </trkpt>
      <trkpt lat="41.84844" lon="8.57218">
        <ele>1.579345703125</ele>
        <time>2015-07-25T21:42:22Z</time>
      </trkpt>
      <trkpt lat="41.84822" lon="8.57231">
        <ele>2.5406494140625</ele>
        <time>2015-07-25T21:42:31Z</time>
      </trkpt>
      <trkpt lat="41.84817" lon="8.57232">
        <ele>0.6180419921875</ele>
        <time>2015-07-25T21:42:33Z</time>
      </trkpt>
      <trkpt lat="41.84814" lon="8.57233">
        <ele>-0.8240966796875</ele>
        <time>2015-07-25T21:42:35Z</time>
      </trkpt>
      <trkpt lat="41.84804" lon="8.5724">
        <ele>2.06005859375</ele>
        <time>2015-07-25T21:42:39Z</time>
      </trkpt>
      <trkpt lat="41.84797" lon="8.57245">
        <ele>0.137451171875</ele>
        <time>2015-07-25T21:42:42Z</time>
      </trkpt>
      <trkpt lat="41.84794" lon="8.57247">
        <ele>0.137451171875</ele>
        <time>2015-07-25T21:42:44Z</time>
      </trkpt>
      <trkpt lat="41.84762" lon="8.57267">
        <ele>-0.3433837890625</ele>
        <time>2015-07-25T21:42:58Z</time>
      </trkpt>
      <trkpt lat="41.8473" lon="8.57286">
        <ele>0.137451171875</ele>
        <time>2015-07-25T21:43:11Z</time>
      </trkpt>
      <trkpt lat="41.84717" lon="8.57295">
        <ele>1.0986328125</ele>
        <time>2015-07-25T21:43:17Z</time>
      </trkpt>
      <trkpt lat="41.84708" lon="8.573">
        <ele>-0.3433837890625</ele>
        <time>2015-07-25T21:43:21Z</time>
      </trkpt>
      <trkpt lat="41.84696" lon="8.57309">
        <ele>2.06005859375</ele>
        <time>2015-07-25T21:43:26Z</time>
      </trkpt>
      <trkpt lat="41.84687" lon="8.57313">
        <ele>-0.8240966796875</ele>
        <time>2015-07-25T21:43:30Z</time>
      </trkpt>
      <trkpt lat="41.84681" lon="8.57318">
        <ele>1.0986328125</ele>
        <time>2015-07-25T21:43:33Z</time>
      </trkpt>
      <trkpt lat="41.84647" lon="8.57338">
        <ele>-0.3433837890625</ele>
        <time>2015-07-25T21:43:48Z</time>
      </trkpt>
      <trkpt lat="41.84633" lon="8.57348">
        <ele>0.6180419921875</ele>
        <time>2015-07-25T21:43:54Z</time>
      </trkpt>
      <trkpt lat="41.8463" lon="8.57352">
        <ele>-0.3433837890625</ele>
        <time>2015-07-25T21:43:56Z</time>
      </trkpt>
      <trkpt lat="41.84603" lon="8.57368">
        <ele>0.6180419921875</ele>
        <time>2015-07-25T21:44:07Z</time>
      </trkpt>
      <trkpt lat="41.8459" lon="8.57376">
        <ele>0.137451171875</ele>
        <time>2015-07-25T21:44:13Z</time>
      </trkpt>
      <trkpt lat="41.84585" lon="8.5738">
        <ele>1.579345703125</ele>
        <time>2015-07-25T21:44:15Z</time>
      </trkpt>
      <trkpt lat="41.84579" lon="8.57387">
        <ele>-0.3433837890625</ele>
        <time>2015-07-25T21:44:18Z</time>
      </trkpt>
      <trkpt lat="41.84577" lon="8.57399">
        <ele>1.0986328125</ele>
        <time>2015-07-25T21:44:22Z</time>
      </trkpt>
      <trkpt lat="41.84576" lon="8.57419">
        <ele>-0.3433837890625</ele>
        <time>2015-07-25T21:44:28Z</time>
      </trkpt>
      <trkpt lat="41.8458" lon="8.57457">
        <ele>0.6180419921875</ele>
        <time>2015-07-25T21:44:40Z</time>
      </trkpt>
      <trkpt lat="41.84591" lon="8.57508">
        <ele>0.6180419921875</ele>
        <time>2015-07-25T21:44:56Z</time>
      </trkpt>
      <trkpt lat="41.84592" lon="8.57518">
        <ele>-0.3433837890625</ele>
        <time>2015-07-25T21:44:59Z</time>
      </trkpt>
      <trkpt lat="41.84593" lon="8.57522">
        <ele>-1.7852783203125</ele>
        <time>2015-07-25T21:45:01Z</time>
      </trkpt>
      <trkpt lat="41.84593" lon="8.57539">
        <ele>0.137451171875</ele>
        <time>2015-07-25T21:45:06Z</time>
      </trkpt>
      <trkpt lat="41.84594" lon="8.57551">
        <ele>-1.7852783203125</ele>
        <time>2015-07-25T21:45:10Z</time>
      </trkpt>
      <trkpt lat="41.84595" lon="8.57562">
        <ele>2.06005859375</ele>
        <time>2015-07-25T21:45:14Z</time>
      </trkpt>
      <trkpt lat="41.84596" lon="8.57566">
        <ele>2.06005859375</ele>
        <time>2015-07-25T21:45:15Z</time>
      </trkpt>
      <trkpt lat="41.84599" lon="8.57604">
        <ele>-0.3433837890625</ele>
        <time>2015-07-25T21:45:27Z</time>
      </trkpt>
      <trkpt lat="41.84599" lon="8.57613">
        <ele>-2.7467041015625</ele>
        <time>2015-07-25T21:45:31Z</time>
      </trkpt>
      <trkpt lat="41.84601" lon="8.57621">
        <ele>-1.3046875</ele>
        <time>2015-07-25T21:45:33Z</time>
      </trkpt>
      <trkpt lat="41.84603" lon="8.57664">
        <ele>0.137451171875</ele>
        <time>2015-07-25T21:45:47Z</time>
      </trkpt>
      <trkpt lat="41.84604" lon="8.57707">
        <ele>0.6180419921875</ele>
        <time>2015-07-25T21:46:00Z</time>
      </trkpt>
      <trkpt lat="41.84604" lon="8.5771">
        <ele>0.6180419921875</ele>
        <time>2015-07-25T21:46:01Z</time>
      </trkpt>
      <trkpt lat="41.84605" lon="8.57722">
        <ele>-0.8240966796875</ele>
        <time>2015-07-25T21:46:04Z</time>
      </trkpt>
      <trkpt lat="41.84606" lon="8.57754">
        <ele>-0.3433837890625</ele>
        <time>2015-07-25T21:46:14Z</time>
      </trkpt>
      <trkpt lat="41.84604" lon="8.57793">
        <ele>0.6180419921875</ele>
        <time>2015-07-25T21:46:26Z</time>
      </trkpt>
      <trkpt lat="41.84604" lon="8.57796">
        <ele>0.6180419921875</ele>
        <time>2015-07-25T21:46:27Z</time>
      </trkpt>
      <trkpt lat="41.84605" lon="8.57832">
        <ele>0.6180419921875</ele>
        <time>2015-07-25T21:46:39Z</time>
      </trkpt>
      <trkpt lat="41.8461" lon="8.57878">
        <ele>0.137451171875</ele>
        <time>2015-07-25T21:46:53Z</time>
      </trkpt>
      <trkpt lat="41.84611" lon="8.57881">
        <ele>0.137451171875</ele>
        <time>2015-07-25T21:46:54Z</time>
      </trkpt>
      <trkpt lat="41.84613" lon="8.57904">
        <ele>0.137451171875</ele>
        <time>2015-07-25T21:47:01Z</time>
      </trkpt>
      <trkpt lat="41.84615" lon="8.57957">
        <ele>0.6180419921875</ele>
        <time>2015-07-25T21:47:18Z</time>
      </trkpt>
      <trkpt lat="41.84622" lon="8.57992">
        <ele>0.137451171875</ele>
        <time>2015-07-25T21:47:30Z</time>
      </trkpt>
      <trkpt lat="41.84623" lon="8.57995">
        <ele>0.137451171875</ele>
        <time>2015-07-25T21:47:31Z</time>
      </trkpt>
      <trkpt lat="41.84624" lon="8.58014">
        <ele>1.0986328125</ele>
        <time>2015-07-25T21:47:36Z</time>
      </trkpt>
      <trkpt lat="41.84627" lon="8.58054">
        <ele>0.137451171875</ele>
        <time>2015-07-25T21:47:49Z</time>
      </trkpt>
      <trkpt lat="41.84629" lon="8.58074">
        <ele>0.6180419921875</ele>
        <time>2015-07-25T21:47:55Z</time>
      </trkpt>
      <trkpt lat="41.8463" lon="8.58112">
        <ele>1.0986328125</ele>
        <time>2015-07-25T21:48:06Z</time>
      </trkpt>
      <trkpt lat="41.84631" lon="8.58128">
        <ele>-0.8240966796875</ele>
        <time>2015-07-25T21:48:11Z</time>
      </trkpt>
      <trkpt lat="41.84632" lon="8.5813">
        <ele>-0.8240966796875</ele>
        <time>2015-07-25T21:48:12Z</time>
      </trkpt>
      <trkpt lat="41.8463" lon="8.58142">
        <ele>0.6180419921875</ele>
        <time>2015-07-25T21:48:15Z</time>
      </trkpt>
      <trkpt lat="41.84629" lon="8.58176">
        <ele>0.137451171875</ele>
        <time>2015-07-25T21:48:26Z</time>
      </trkpt>
      <trkpt lat="41.84629" lon="8.58209">
        <ele>-0.3433837890625</ele>
        <time>2015-07-25T21:48:37Z</time>
      </trkpt>
      <trkpt lat="41.84632" lon="8.58235">
        <ele>0.137451171875</ele>
        <time>2015-07-25T21:48:46Z</time>
      </trkpt>
      <trkpt lat="41.84634" lon="8.58263">
        <ele>-0.3433837890625</ele>
        <time>2015-07-25T21:48:54Z</time>
      </trkpt>
      <trkpt lat="41.84634" lon="8.58266">
        <ele>-0.3433837890625</ele>
        <time>2015-07-25T21:48:55Z</time>
      </trkpt>
      <trkpt lat="41.84637" lon="8.58296">
        <ele>-0.8240966796875</ele>
        <time>2015-07-25T21:49:06Z</time>
      </trkpt>
      <trkpt lat="41.84635" lon="8.58309">
        <ele>0.137451171875</ele>
        <time>2015-07-25T21:49:09Z</time>
      </trkpt>
      <trkpt lat="41.84636" lon="8.58352">
        <ele>1.0986328125</ele>
        <time>2015-07-25T21:49:22Z</time>
      </trkpt>
      <trkpt lat="41.84637" lon="8.58356">
        <ele>1.0986328125</ele>
        <time>2015-07-25T21:49:23Z</time>
      </trkpt>
      <trkpt lat="41.84638" lon="8.58403">
        <ele>-0.3433837890625</ele>
        <time>2015-07-25T21:49:36Z</time>
      </trkpt>
      <trkpt lat="41.8464" lon="8.58433">
        <ele>-1.3046875</ele>
        <time>2015-07-25T21:49:45Z</time>
      </trkpt>
      <trkpt lat="41.8464" lon="8.58443">
        <ele>0.137451171875</ele>
        <time>2015-07-25T21:49:48Z</time>
      </trkpt>
      <trkpt lat="41.84641" lon="8.58456">
        <ele>-0.3433837890625</ele>
        <time>2015-07-25T21:49:53Z</time>
      </trkpt>
      <trkpt lat="41.84646" lon="8.58487">
        <ele>-0.3433837890625</ele>
        <time>2015-07-25T21:50:03Z</time>
      </trkpt>
      <trkpt lat="41.84652" lon="8.58532">
        <ele>-0.8240966796875</ele>
        <time>2015-07-25T21:50:16Z</time>
      </trkpt>
      <trkpt lat="41.84658" lon="8.58561">
        <ele>0.6180419921875</ele>
        <time>2015-07-25T21:50:26Z</time>
      </trkpt>
      <trkpt lat="41.84663" lon="8.58586">
        <ele>1.0986328125</ele>
        <time>2015-07-25T21:50:34Z</time>
      </trkpt>
      <trkpt lat="41.84665" lon="8.58595">
        <ele>-0.8240966796875</ele>
        <time>2015-07-25T21:50:37Z</time>
      </trkpt>
      <trkpt lat="41.8467" lon="8.58635">
        <ele>-0.8240966796875</ele>
        <time>2015-07-25T21:50:49Z</time>
      </trkpt>
      <trkpt lat="41.84674" lon="8.58674">
        <ele>0.137451171875</ele>
        <time>2015-07-25T21:51:00Z</time>
      </trkpt>
      <trkpt lat="41.84675" lon="8.58698">
        <ele>1.579345703125</ele>
        <time>2015-07-25T21:51:07Z</time>
      </trkpt>
      <trkpt lat="41.84676" lon="8.58709">
        <ele>-0.8240966796875</ele>
        <time>2015-07-25T21:51:11Z</time>
      </trkpt>
      <trkpt lat="41.84677" lon="8.58711">
        <ele>-1.7852783203125</ele>
        <time>2015-07-25T21:51:12Z</time>
      </trkpt>
      <trkpt lat="41.84677" lon="8.58727">
        <ele>1.0986328125</ele>
        <time>2015-07-25T21:51:16Z</time>
      </trkpt>
      <trkpt lat="41.84677" lon="8.58742">
        <ele>-1.3046875</ele>
        <time>2015-07-25T21:51:21Z</time>
      </trkpt>
      <trkpt lat="41.84678" lon="8.58757">
        <ele>0.6180419921875</ele>
        <time>2015-07-25T21:51:25Z</time>
      </trkpt>
      <trkpt lat="41.84679" lon="8.58794">
        <ele>-0.3433837890625</ele>
        <time>2015-07-25T21:51:37Z</time>
      </trkpt>
      <trkpt lat="41.84679" lon="8.58818">
        <ele>-0.3433837890625</ele>
        <time>2015-07-25T21:51:44Z</time>
      </trkpt>
      <trkpt lat="41.84681" lon="8.58834">
        <ele>1.0986328125</ele>
        <time>2015-07-25T21:51:49Z</time>
      </trkpt>
      <trkpt lat="41.84682" lon="8.58848">
        <ele>-1.3046875</ele>
        <time>2015-07-25T21:51:54Z</time>
      </trkpt>
      <trkpt lat="41.8468" lon="8.58879">
        <ele>-1.3046875</ele>
        <time>2015-07-25T21:52:04Z</time>
      </trkpt>
      <trkpt lat="41.84681" lon="8.58881">
        <ele>-1.3046875</ele>
        <time>2015-07-25T21:52:05Z</time>
      </trkpt>
      <trkpt lat="41.84683" lon="8.5892">
        <ele>0.6180419921875</ele>
        <time>2015-07-25T21:52:18Z</time>
      </trkpt>
      <trkpt lat="41.84683" lon="8.58924">
        <ele>0.6180419921875</ele>
        <time>2015-07-25T21:52:19Z</time>
      </trkpt>
      <trkpt lat="41.84688" lon="8.58949">
        <ele>-1.3046875</ele>
        <time>2015-07-25T21:52:26Z</time>
      </trkpt>
      <trkpt lat="41.84688" lon="8.58996">
        <ele>-0.8240966796875</ele>
        <time>2015-07-25T21:52:40Z</time>
      </trkpt>
      <trkpt lat="41.84687" lon="8.59039">
        <ele>0.6180419921875</ele>
        <time>2015-07-25T21:52:51Z</time>
      </trkpt>
      <trkpt lat="41.84685" lon="8.59058">
        <ele>-1.3046875</ele>
        <time>2015-07-25T21:52:56Z</time>
      </trkpt>
      <trkpt lat="41.84686" lon="8.59091">
        <ele>-0.8240966796875</ele>
        <time>2015-07-25T21:53:08Z</time>
      </trkpt>
      <trkpt lat="41.84687" lon="8.59137">
        <ele>0.6180419921875</ele>
        <time>2015-07-25T21:53:24Z</time>
      </trkpt>
      <trkpt lat="41.84688" lon="8.59175">
        <ele>0.6180419921875</ele>
        <time>2015-07-25T21:53:33Z</time>
      </trkpt>
      <trkpt lat="41.8469" lon="8.59207">
        <ele>0.6180419921875</ele>
        <time>2015-07-25T21:53:42Z</time>
      </trkpt>
      <trkpt lat="41.84689" lon="8.59221">
        <ele>-1.3046875</ele>
        <time>2015-07-25T21:53:46Z</time>
      </trkpt>
      <trkpt lat="41.84688" lon="8.5925">
        <ele>-1.3046875</ele>
        <time>2015-07-25T21:53:56Z</time>
      </trkpt>
      <trkpt lat="41.84689" lon="8.59285">
        <ele>-0.8240966796875</ele>
        <time>2015-07-25T21:54:07Z</time>
      </trkpt>
      <trkpt lat="41.84692" lon="8.59316">
        <ele>-1.3046875</ele>
        <time>2015-07-25T21:54:17Z</time>
      </trkpt>
      <trkpt lat="41.84693" lon="8.5936">
        <ele>-0.8240966796875</ele>
        <time>2015-07-25T21:54:30Z</time>
      </trkpt>
      <trkpt lat="41.84691" lon="8.59405">
        <ele>0.6180419921875</ele>
        <time>2015-07-25T21:54:44Z</time>
      </trkpt>
      <trkpt lat="41.84691" lon="8.5941">
        <ele>0.6180419921875</ele>
        <time>2015-07-25T21:54:45Z</time>
      </trkpt>
      <trkpt lat="41.8469" lon="8.59423">
        <ele>-1.3046875</ele>
        <time>2015-07-25T21:54:49Z</time>
      </trkpt>
      <trkpt lat="41.84691" lon="8.59454">
        <ele>-0.3433837890625</ele>
        <time>2015-07-25T21:54:59Z</time>
      </trkpt>
      <trkpt lat="41.84694" lon="8.595">
        <ele>-1.3046875</ele>
        <time>2015-07-25T21:55:13Z</time>
      </trkpt>
      <trkpt lat="41.84701" lon="8.59535">
        <ele>-1.3046875</ele>
        <time>2015-07-25T21:55:24Z</time>
      </trkpt>
      <trkpt lat="41.84704" lon="8.59551">
        <ele>0.137451171875</ele>
        <time>2015-07-25T21:55:28Z</time>
      </trkpt>
      <trkpt lat="41.84714" lon="8.59588">
        <ele>-0.3433837890625</ele>
        <time>2015-07-25T21:55:40Z</time>
      </trkpt>
      <trkpt lat="41.84722" lon="8.59617">
        <ele>-0.3433837890625</ele>
        <time>2015-07-25T21:55:49Z</time>
      </trkpt>
      <trkpt lat="41.84735" lon="8.59666">
        <ele>-1.3046875</ele>
        <time>2015-07-25T21:56:05Z</time>
      </trkpt>
      <trkpt lat="41.84736" lon="8.59669">
        <ele>-1.3046875</ele>
        <time>2015-07-25T21:56:06Z</time>
      </trkpt>
      <trkpt lat="41.84737" lon="8.59675">
        <ele>-0.8240966796875</ele>
        <time>2015-07-25T21:56:08Z</time>
      </trkpt>
      <trkpt lat="41.84746" lon="8.59707">
        <ele>-1.7852783203125</ele>
        <time>2015-07-25T21:56:18Z</time>
      </trkpt>
      <trkpt lat="41.84751" lon="8.59728">
        <ele>1.0986328125</ele>
        <time>2015-07-25T21:56:24Z</time>
      </trkpt>
      <trkpt lat="41.84753" lon="8.59733">
        <ele>-0.8240966796875</ele>
        <time>2015-07-25T21:56:26Z</time>
      </trkpt>
      <trkpt lat="41.84758" lon="8.5975">
        <ele>-0.3433837890625</ele>
        <time>2015-07-25T21:56:31Z</time>
      </trkpt>
      <trkpt lat="41.84768" lon="8.59784">
        <ele>0.137451171875</ele>
        <time>2015-07-25T21:56:43Z</time>
      </trkpt>
      <trkpt lat="41.84772" lon="8.59799">
        <ele>-0.8240966796875</ele>
        <time>2015-07-25T21:56:48Z</time>
      </trkpt>
      <trkpt lat="41.84782" lon="8.59836">
        <ele>-0.8240966796875</ele>
        <time>2015-07-25T21:57:00Z</time>
      </trkpt>
      <trkpt lat="41.84794" lon="8.59879">
        <ele>-0.8240966796875</ele>
        <time>2015-07-25T21:57:14Z</time>
      </trkpt>
      <trkpt lat="41.84802" lon="8.59904">
        <ele>0.6180419921875</ele>
        <time>2015-07-25T21:57:22Z</time>
      </trkpt>
      <trkpt lat="41.84804" lon="8.5991">
        <ele>-0.3433837890625</ele>
        <time>2015-07-25T21:57:24Z</time>
      </trkpt>
      <trkpt lat="41.84813" lon="8.59937">
        <ele>-1.7852783203125</ele>
        <time>2015-07-25T21:57:33Z</time>
      </trkpt>
      <trkpt lat="41.84816" lon="8.59948">
        <ele>-0.3433837890625</ele>
        <time>2015-07-25T21:57:36Z</time>
      </trkpt>
      <trkpt lat="41.84823" lon="8.59968">
        <ele>0.137451171875</ele>
        <time>2015-07-25T21:57:43Z</time>
      </trkpt>
      <trkpt lat="41.84835" lon="8.60013">
        <ele>-1.3046875</ele>
        <time>2015-07-25T21:57:56Z</time>
      </trkpt>
      <trkpt lat="41.84849" lon="8.60044">
        <ele>-1.3046875</ele>
        <time>2015-07-25T21:58:07Z</time>
      </trkpt>
      <trkpt lat="41.84858" lon="8.60074">
        <ele>-1.3046875</ele>
        <time>2015-07-25T21:58:17Z</time>
      </trkpt>
      <trkpt lat="41.84863" lon="8.60092">
        <ele>0.137451171875</ele>
        <time>2015-07-25T21:58:22Z</time>
      </trkpt>
      <trkpt lat="41.84873" lon="8.60124">
        <ele>-1.3046875</ele>
        <time>2015-07-25T21:58:35Z</time>
      </trkpt>
      <trkpt lat="41.84874" lon="8.60125">
        <ele>-1.3046875</ele>
        <time>2015-07-25T21:58:36Z</time>
      </trkpt>
      <trkpt lat="41.84887" lon="8.60173">
        <ele>-1.3046875</ele>
        <time>2015-07-25T21:58:50Z</time>
      </trkpt>
      <trkpt lat="41.84893" lon="8.60193">
        <ele>-1.3046875</ele>
        <time>2015-07-25T21:58:57Z</time>
      </trkpt>
      <trkpt lat="41.84903" lon="8.60235">
        <ele>-0.3433837890625</ele>
        <time>2015-07-25T21:59:10Z</time>
      </trkpt>
      <trkpt lat="41.84915" lon="8.60286">
        <ele>-1.3046875</ele>
        <time>2015-07-25T21:59:25Z</time>
      </trkpt>
      <trkpt lat="41.84928" lon="8.60328">
        <ele>-0.8240966796875</ele>
        <time>2015-07-25T21:59:40Z</time>
      </trkpt>
      <trkpt lat="41.84942" lon="8.60373">
        <ele>0.6180419921875</ele>
        <time>2015-07-25T21:59:54Z</time>
      </trkpt>
      <trkpt lat="41.84946" lon="8.60381">
        <ele>-0.8240966796875</ele>
        <time>2015-07-25T21:59:57Z</time>
      </trkpt>
      <trkpt lat="41.8496" lon="8.60426">
        <ele>-0.8240966796875</ele>
        <time>2015-07-25T22:00:12Z</time>
      </trkpt>
      <trkpt lat="41.84976" lon="8.60476">
        <ele>-1.3046875</ele>
        <time>2015-07-25T22:00:29Z</time>
      </trkpt>
      <trkpt lat="41.84991" lon="8.60515">
        <ele>-0.3433837890625</ele>
        <time>2015-07-25T22:00:41Z</time>
      </trkpt>
      <trkpt lat="41.84993" lon="8.60518">
        <ele>-1.7852783203125</ele>
        <time>2015-07-25T22:00:43Z</time>
      </trkpt>
      <trkpt lat="41.85001" lon="8.6055">
        <ele>-0.8240966796875</ele>
        <time>2015-07-25T22:00:54Z</time>
      </trkpt>
      <trkpt lat="41.8501" lon="8.60572">
        <ele>-1.3046875</ele>
        <time>2015-07-25T22:01:02Z</time>
      </trkpt>
      <trkpt lat="41.85022" lon="8.6061">
        <ele>-0.3433837890625</ele>
        <time>2015-07-25T22:01:14Z</time>
      </trkpt>
      <trkpt lat="41.85028" lon="8.6064">
        <ele>-0.3433837890625</ele>
        <time>2015-07-25T22:01:23Z</time>
      </trkpt>
      <trkpt lat="41.85029" lon="8.60648">
        <ele>1.0986328125</ele>
        <time>2015-07-25T22:01:25Z</time>
      </trkpt>
      <trkpt lat="41.85034" lon="8.6066">
        <ele>-1.3046875</ele>
        <time>2015-07-25T22:01:30Z</time>
      </trkpt>
      <trkpt lat="41.85047" lon="8.60708">
        <ele>-0.8240966796875</ele>
        <time>2015-07-25T22:01:45Z</time>
      </trkpt>
      <trkpt lat="41.85054" lon="8.60733">
        <ele>-0.8240966796875</ele>
        <time>2015-07-25T22:01:53Z</time>
      </trkpt>
      <trkpt lat="41.85065" lon="8.6077">
        <ele>-0.3433837890625</ele>
        <time>2015-07-25T22:02:05Z</time>
      </trkpt>
      <trkpt lat="41.85068" lon="8.60776">
        <ele>0.6180419921875</ele>
        <time>2015-07-25T22:02:07Z</time>
      </trkpt>
      <trkpt lat="41.8508" lon="8.60816">
        <ele>-0.8240966796875</ele>
        <time>2015-07-25T22:02:20Z</time>
      </trkpt>
      <trkpt lat="41.85087" lon="8.60839">
        <ele>0.137451171875</ele>
        <time>2015-07-25T22:02:28Z</time>
      </trkpt>
      <trkpt lat="41.851" lon="8.60884">
        <ele>-0.3433837890625</ele>
        <time>2015-07-25T22:02:42Z</time>
      </trkpt>
      <trkpt lat="41.85111" lon="8.60923">
        <ele>-0.3433837890625</ele>
        <time>2015-07-25T22:02:55Z</time>
      </trkpt>
      <trkpt lat="41.85123" lon="8.60968">
        <ele>-0.3433837890625</ele>
        <time>2015-07-25T22:03:09Z</time>
      </trkpt>
      <trkpt lat="41.85132" lon="8.61">
        <ele>-0.8240966796875</ele>
        <time>2015-07-25T22:03:19Z</time>
      </trkpt>
      <trkpt lat="41.85143" lon="8.61039">
        <ele>-0.8240966796875</ele>
        <time>2015-07-25T22:03:31Z</time>
      </trkpt>
      <trkpt lat="41.85156" lon="8.61075">
        <ele>-0.8240966796875</ele>
        <time>2015-07-25T22:03:42Z</time>
      </trkpt>
      <trkpt lat="41.85175" lon="8.61117">
        <ele>-0.3433837890625</ele>
        <time>2015-07-25T22:03:57Z</time>
      </trkpt>
      <trkpt lat="41.85188" lon="8.61163">
        <ele>0.137451171875</ele>
        <time>2015-07-25T22:04:11Z</time>
      </trkpt>
      <trkpt lat="41.85201" lon="8.61205">
        <ele>0.137451171875</ele>
        <time>2015-07-25T22:04:24Z</time>
      </trkpt>
      <trkpt lat="41.85215" lon="8.61245">
        <ele>-1.3046875</ele>
        <time>2015-07-25T22:04:38Z</time>
      </trkpt>
      <trkpt lat="41.85227" lon="8.61284">
        <ele>-1.3046875</ele>
        <time>2015-07-25T22:04:51Z</time>
      </trkpt>
      <trkpt lat="41.8523" lon="8.61293">
        <ele>0.6180419921875</ele>
        <time>2015-07-25T22:04:54Z</time>
      </trkpt>
      <trkpt lat="41.85246" lon="8.6134">
        <ele>-0.3433837890625</ele>
        <time>2015-07-25T22:05:10Z</time>
      </trkpt>
      <trkpt lat="41.85252" lon="8.61366">
        <ele>0.137451171875</ele>
        <time>2015-07-25T22:05:17Z</time>
      </trkpt>
      <trkpt lat="41.85263" lon="8.61405">
        <ele>-0.3433837890625</ele>
        <time>2015-07-25T22:05:29Z</time>
      </trkpt>
      <trkpt lat="41.85265" lon="8.61409">
        <ele>-1.3046875</ele>
        <time>2015-07-25T22:05:31Z</time>
      </trkpt>
      <trkpt lat="41.8528" lon="8.61459">
        <ele>0.137451171875</ele>
        <time>2015-07-25T22:05:46Z</time>
      </trkpt>
      <trkpt lat="41.85281" lon="8.61463">
        <ele>0.137451171875</ele>
        <time>2015-07-25T22:05:47Z</time>
      </trkpt>
      <trkpt lat="41.85295" lon="8.61505">
        <ele>-0.3433837890625</ele>
        <time>2015-07-25T22:06:01Z</time>
      </trkpt>
      <trkpt lat="41.85307" lon="8.61538">
        <ele>-0.3433837890625</ele>
        <time>2015-07-25T22:06:12Z</time>
      </trkpt>
      <trkpt lat="41.85317" lon="8.61579">
        <ele>-0.8240966796875</ele>
        <time>2015-07-25T22:06:24Z</time>
      </trkpt>
      <trkpt lat="41.85329" lon="8.61618">
        <ele>-0.8240966796875</ele>
        <time>2015-07-25T22:06:37Z</time>
      </trkpt>
      <trkpt lat="41.85341" lon="8.61662">
        <ele>-1.7852783203125</ele>
        <time>2015-07-25T22:06:52Z</time>
      </trkpt>
      <trkpt lat="41.85353" lon="8.61697">
        <ele>-1.3046875</ele>
        <time>2015-07-25T22:07:04Z</time>
      </trkpt>
      <trkpt lat="41.85356" lon="8.61704">
        <ele>0.137451171875</ele>
        <time>2015-07-25T22:07:06Z</time>
      </trkpt>
      <trkpt lat="41.85361" lon="8.61716">
        <ele>-1.3046875</ele>
        <time>2015-07-25T22:07:10Z</time>
      </trkpt>
      <trkpt lat="41.85366" lon="8.61732">
        <ele>0.137451171875</ele>
        <time>2015-07-25T22:07:15Z</time>
      </trkpt>
      <trkpt lat="41.85377" lon="8.61771">
        <ele>-0.8240966796875</ele>
        <time>2015-07-25T22:07:27Z</time>
      </trkpt>
      <trkpt lat="41.85393" lon="8.61826">
        <ele>-0.3433837890625</ele>
        <time>2015-07-25T22:07:45Z</time>
      </trkpt>
      <trkpt lat="41.85392" lon="8.61831">
        <ele>-0.8240966796875</ele>
        <time>2015-07-25T22:07:46Z</time>
      </trkpt>
      <trkpt lat="41.85406" lon="8.61875">
        <ele>-0.8240966796875</ele>
        <time>2015-07-25T22:08:01Z</time>
      </trkpt>
      <trkpt lat="41.8542" lon="8.61921">
        <ele>-0.8240966796875</ele>
        <time>2015-07-25T22:08:15Z</time>
      </trkpt>
      <trkpt lat="41.85426" lon="8.61943">
        <ele>-0.8240966796875</ele>
        <time>2015-07-25T22:08:22Z</time>
      </trkpt>
      <trkpt lat="41.85429" lon="8.61949">
        <ele>-0.8240966796875</ele>
        <time>2015-07-25T22:08:25Z</time>
      </trkpt>
      <trkpt lat="41.85445" lon="8.62008">
        <ele>-0.3433837890625</ele>
        <time>2015-07-25T22:08:42Z</time>
      </trkpt>
      <trkpt lat="41.85456" lon="8.62044">
        <ele>-1.3046875</ele>
        <time>2015-07-25T22:08:54Z</time>
      </trkpt>
      <trkpt lat="41.85467" lon="8.62087">
        <ele>-1.3046875</ele>
        <time>2015-07-25T22:09:07Z</time>
      </trkpt>
      <trkpt lat="41.85475" lon="8.62121">
        <ele>-1.3046875</ele>
        <time>2015-07-25T22:09:19Z</time>
      </trkpt>
      <trkpt lat="41.85476" lon="8.62134">
        <ele>0.137451171875</ele>
        <time>2015-07-25T22:09:22Z</time>
      </trkpt>
      <trkpt lat="41.85481" lon="8.62152">
        <ele>-0.8240966796875</ele>
        <time>2015-07-25T22:09:27Z</time>
      </trkpt>
      <trkpt lat="41.85492" lon="8.62186">
        <ele>-0.8240966796875</ele>
        <time>2015-07-25T22:09:38Z</time>
      </trkpt>
      <trkpt lat="41.85497" lon="8.622">
        <ele>0.137451171875</ele>
        <time>2015-07-25T22:09:43Z</time>
      </trkpt>
      <trkpt lat="41.85501" lon="8.62216">
        <ele>-1.3046875</ele>
        <time>2015-07-25T22:09:48Z</time>
      </trkpt>
      <trkpt lat="41.85514" lon="8.62259">
        <ele>-0.8240966796875</ele>
        <time>2015-07-25T22:10:01Z</time>
      </trkpt>
      <trkpt lat="41.85526" lon="8.62294">
        <ele>-1.7852783203125</ele>
        <time>2015-07-25T22:10:11Z</time>
      </trkpt>
      <trkpt lat="41.85538" lon="8.62333">
        <ele>-0.8240966796875</ele>
        <time>2015-07-25T22:10:24Z</time>
      </trkpt>
      <trkpt lat="41.85553" lon="8.62374">
        <ele>0.137451171875</ele>
        <time>2015-07-25T22:10:37Z</time>
      </trkpt>
      <trkpt lat="41.85561" lon="8.6241">
        <ele>-1.3046875</ele>
        <time>2015-07-25T22:10:49Z</time>
      </trkpt>
      <trkpt lat="41.85566" lon="8.62425">
        <ele>0.137451171875</ele>
        <time>2015-07-25T22:10:54Z</time>
      </trkpt>
      <trkpt lat="41.85578" lon="8.62467">
        <ele>0.137451171875</ele>
        <time>2015-07-25T22:11:06Z</time>
      </trkpt>
      <trkpt lat="41.85588" lon="8.62499">
        <ele>1.0986328125</ele>
        <time>2015-07-25T22:11:16Z</time>
      </trkpt>
      <trkpt lat="41.8559" lon="8.62503">
        <ele>-0.3433837890625</ele>
        <time>2015-07-25T22:11:18Z</time>
      </trkpt>
      <trkpt lat="41.85594" lon="8.62516">
        <ele>0.137451171875</ele>
        <time>2015-07-25T22:11:23Z</time>
      </trkpt>
      <trkpt lat="41.85596" lon="8.62523">
        <ele>1.579345703125</ele>
        <time>2015-07-25T22:11:25Z</time>
      </trkpt>
      <trkpt lat="41.85598" lon="8.62529">
        <ele>-0.3433837890625</ele>
        <time>2015-07-25T22:11:27Z</time>
      </trkpt>
      <trkpt lat="41.85607" lon="8.62555">
        <ele>1.0986328125</ele>
        <time>2015-07-25T22:11:36Z</time>
      </trkpt>
      <trkpt lat="41.85612" lon="8.6257">
        <ele>-0.3433837890625</ele>
        <time>2015-07-25T22:11:41Z</time>
      </trkpt>
      <trkpt lat="41.85617" lon="8.62592">
        <ele>1.579345703125</ele>
        <time>2015-07-25T22:11:48Z</time>
      </trkpt>
      <trkpt lat="41.85623" lon="8.62615">
        <ele>-0.3433837890625</ele>
        <time>2015-07-25T22:11:55Z</time>
      </trkpt>
      <trkpt lat="41.85627" lon="8.6263">
        <ele>0.137451171875</ele>
        <time>2015-07-25T22:12:00Z</time>
      </trkpt>
      <trkpt lat="41.85637" lon="8.6267">
        <ele>-0.8240966796875</ele>
        <time>2015-07-25T22:12:13Z</time>
      </trkpt>
      <trkpt lat="41.85642" lon="8.6268">
        <ele>-1.7852783203125</ele>
        <time>2015-07-25T22:12:16Z</time>
      </trkpt>
      <trkpt lat="41.85644" lon="8.62687">
        <ele>-0.3433837890625</ele>
        <time>2015-07-25T22:12:18Z</time>
      </trkpt>
      <trkpt lat="41.85651" lon="8.62727">
        <ele>-0.3433837890625</ele>
        <time>2015-07-25T22:12:30Z</time>
      </trkpt>
      <trkpt lat="41.85665" lon="8.62772">
        <ele>0.137451171875</ele>
        <time>2015-07-25T22:12:45Z</time>
      </trkpt>
      <trkpt lat="41.85681" lon="8.62822">
        <ele>-0.3433837890625</ele>
        <time>2015-07-25T22:13:01Z</time>
      </trkpt>
      <trkpt lat="41.85689" lon="8.62841">
        <ele>0.6180419921875</ele>
        <time>2015-07-25T22:13:07Z</time>
      </trkpt>
      <trkpt lat="41.85701" lon="8.62876">
        <ele>-0.3433837890625</ele>
        <time>2015-07-25T22:13:19Z</time>
      </trkpt>
      <trkpt lat="41.85712" lon="8.62912">
        <ele>0.137451171875</ele>
        <time>2015-07-25T22:13:31Z</time>
      </trkpt>
      <trkpt lat="41.85716" lon="8.62932">
        <ele>-0.8240966796875</ele>
        <time>2015-07-25T22:13:37Z</time>
      </trkpt>
      <trkpt lat="41.85733" lon="8.62978">
        <ele>0.137451171875</ele>
        <time>2015-07-25T22:13:53Z</time>
      </trkpt>
      <trkpt lat="41.85751" lon="8.63034">
        <ele>-0.8240966796875</ele>
        <time>2015-07-25T22:14:10Z</time>
      </trkpt>
      <trkpt lat="41.85767" lon="8.63083">
        <ele>-0.3433837890625</ele>
        <time>2015-07-25T22:14:26Z</time>
      </trkpt>
      <trkpt lat="41.85779" lon="8.63126">
        <ele>0.6180419921875</ele>
        <time>2015-07-25T22:14:40Z</time>
      </trkpt>
      <trkpt lat="41.85792" lon="8.63178">
        <ele>0.137451171875</ele>
        <time>2015-07-25T22:14:56Z</time>
      </trkpt>
      <trkpt lat="41.85807" lon="8.63235">
        <ele>-0.3433837890625</ele>
        <time>2015-07-25T22:15:13Z</time>
      </trkpt>
      <trkpt lat="41.8582" lon="8.63284">
        <ele>0.137451171875</ele>
        <time>2015-07-25T22:15:28Z</time>
      </trkpt>
      <trkpt lat="41.85835" lon="8.63331">
        <ele>0.137451171875</ele>
        <time>2015-07-25T22:15:43Z</time>
      </trkpt>
      <trkpt lat="41.85847" lon="8.63378">
        <ele>0.137451171875</ele>
        <time>2015-07-25T22:15:58Z</time>
      </trkpt>
      <trkpt lat="41.85854" lon="8.63411">
        <ele>0.137451171875</ele>
        <time>2015-07-25T22:16:08Z</time>
      </trkpt>
      <trkpt lat="41.85859" lon="8.6343">
        <ele>-0.8240966796875</ele>
        <time>2015-07-25T22:16:14Z</time>
      </trkpt>
      <trkpt lat="41.85873" lon="8.63481">
        <ele>0.137451171875</ele>
        <time>2015-07-25T22:16:29Z</time>
      </trkpt>
      <trkpt lat="41.85887" lon="8.63525">
        <ele>0.137451171875</ele>
        <time>2015-07-25T22:16:43Z</time>
      </trkpt>
      <trkpt lat="41.859" lon="8.63564">
        <ele>0.6180419921875</ele>
        <time>2015-07-25T22:16:55Z</time>
      </trkpt>
      <trkpt lat="41.85913" lon="8.63604">
        <ele>0.137451171875</ele>
        <time>2015-07-25T22:17:09Z</time>
      </trkpt>
      <trkpt lat="41.85926" lon="8.63649">
        <ele>0.137451171875</ele>
        <time>2015-07-25T22:17:22Z</time>
      </trkpt>
      <trkpt lat="41.85943" lon="8.63692">
        <ele>0.6180419921875</ele>
        <time>2015-07-25T22:17:37Z</time>
      </trkpt>
      <trkpt lat="41.85958" lon="8.6373">
        <ele>0.137451171875</ele>
        <time>2015-07-25T22:17:49Z</time>
      </trkpt>
      <trkpt lat="41.85974" lon="8.63777">
        <ele>0.137451171875</ele>
        <time>2015-07-25T22:18:05Z</time>
      </trkpt>
      <trkpt lat="41.8599" lon="8.63828">
        <ele>0.137451171875</ele>
        <time>2015-07-25T22:18:21Z</time>
      </trkpt>
      <trkpt lat="41.86007" lon="8.63869">
        <ele>0.6180419921875</ele>
        <time>2015-07-25T22:18:35Z</time>
      </trkpt>
      <trkpt lat="41.86022" lon="8.63911">
        <ele>0.6180419921875</ele>
        <time>2015-07-25T22:18:48Z</time>
      </trkpt>
      <trkpt lat="41.86036" lon="8.63966">
        <ele>0.137451171875</ele>
        <time>2015-07-25T22:19:05Z</time>
      </trkpt>
      <trkpt lat="41.86049" lon="8.64007">
        <ele>0.137451171875</ele>
        <time>2015-07-25T22:19:18Z</time>
      </trkpt>
      <trkpt lat="41.86067" lon="8.64051">
        <ele>-0.3433837890625</ele>
        <time>2015-07-25T22:19:32Z</time>
      </trkpt>
      <trkpt lat="41.86087" lon="8.64099">
        <ele>0.6180419921875</ele>
        <time>2015-07-25T22:19:48Z</time>
      </trkpt>
      <trkpt lat="41.86105" lon="8.6414">
        <ele>0.137451171875</ele>
        <time>2015-07-25T22:20:02Z</time>
      </trkpt>
      <trkpt lat="41.86121" lon="8.64179">
        <ele>-0.3433837890625</ele>
        <time>2015-07-25T22:20:15Z</time>
      </trkpt>
      <trkpt lat="41.86138" lon="8.64218">
        <ele>0.137451171875</ele>
        <time>2015-07-25T22:20:28Z</time>
      </trkpt>
      <trkpt lat="41.86152" lon="8.64257">
        <ele>0.137451171875</ele>
        <time>2015-07-25T22:20:41Z</time>
      </trkpt>
      <trkpt lat="41.8617" lon="8.64295">
        <ele>-0.8240966796875</ele>
        <time>2015-07-25T22:20:54Z</time>
      </trkpt>
      <trkpt lat="41.86188" lon="8.64335">
        <ele>-0.8240966796875</ele>
        <time>2015-07-25T22:21:08Z</time>
      </trkpt>
      <trkpt lat="41.86206" lon="8.64386">
        <ele>-0.8240966796875</ele>
        <time>2015-07-25T22:21:25Z</time>
      </trkpt>
      <trkpt lat="41.86221" lon="8.64431">
        <ele>-1.3046875</ele>
        <time>2015-07-25T22:21:39Z</time>
      </trkpt>
      <trkpt lat="41.86222" lon="8.64433">
        <ele>-1.3046875</ele>
        <time>2015-07-25T22:21:40Z</time>
      </trkpt>
      <trkpt lat="41.86237" lon="8.64474">
        <ele>-0.8240966796875</ele>
        <time>2015-07-25T22:21:54Z</time>
      </trkpt>
      <trkpt lat="41.86251" lon="8.64524">
        <ele>0.6180419921875</ele>
        <time>2015-07-25T22:22:09Z</time>
      </trkpt>
      <trkpt lat="41.86264" lon="8.64558">
        <ele>0.137451171875</ele>
        <time>2015-07-25T22:22:21Z</time>
      </trkpt>
      <trkpt lat="41.8628" lon="8.64601">
        <ele>-0.3433837890625</ele>
        <time>2015-07-25T22:22:35Z</time>
      </trkpt>
      <trkpt lat="41.863" lon="8.64647">
        <ele>0.6180419921875</ele>
        <time>2015-07-25T22:22:50Z</time>
      </trkpt>
      <trkpt lat="41.86324" lon="8.64701">
        <ele>0.137451171875</ele>
        <time>2015-07-25T22:23:09Z</time>
      </trkpt>
      <trkpt lat="41.8634" lon="8.64732">
        <ele>0.137451171875</ele>
        <time>2015-07-25T22:23:20Z</time>
      </trkpt>
      <trkpt lat="41.86358" lon="8.6477">
        <ele>-0.3433837890625</ele>
        <time>2015-07-25T22:23:33Z</time>
      </trkpt>
      <trkpt lat="41.86378" lon="8.64815">
        <ele>-0.3433837890625</ele>
        <time>2015-07-25T22:23:48Z</time>
      </trkpt>
      <trkpt lat="41.86394" lon="8.64848">
        <ele>-0.3433837890625</ele>
        <time>2015-07-25T22:24:00Z</time>
      </trkpt>
      <trkpt lat="41.86402" lon="8.64869">
        <ele>-1.3046875</ele>
        <time>2015-07-25T22:24:07Z</time>
      </trkpt>
      <trkpt lat="41.86408" lon="8.64882">
        <ele>0.137451171875</ele>
        <time>2015-07-25T22:24:11Z</time>
      </trkpt>
      <trkpt lat="41.86424" lon="8.64918">
        <ele>-0.3433837890625</ele>
        <time>2015-07-25T22:24:23Z</time>
      </trkpt>
      <trkpt lat="41.86436" lon="8.64951">
        <ele>0.137451171875</ele>
        <time>2015-07-25T22:24:34Z</time>
      </trkpt>
      <trkpt lat="41.86452" lon="8.64996">
        <ele>-1.3046875</ele>
        <time>2015-07-25T22:24:48Z</time>
      </trkpt>
      <trkpt lat="41.86468" lon="8.65042">
        <ele>-1.3046875</ele>
        <time>2015-07-25T22:25:03Z</time>
      </trkpt>
      <trkpt lat="41.86484" lon="8.65085">
        <ele>-1.7852783203125</ele>
        <time>2015-07-25T22:25:16Z</time>
      </trkpt>
      <trkpt lat="41.86495" lon="8.65126">
        <ele>-1.3046875</ele>
        <time>2015-07-25T22:25:28Z</time>
      </trkpt>
      <trkpt lat="41.86507" lon="8.65168">
        <ele>-0.8240966796875</ele>
        <time>2015-07-25T22:25:41Z</time>
      </trkpt>
      <trkpt lat="41.8652" lon="8.65208">
        <ele>-2.2659912109375</ele>
        <time>2015-07-25T22:25:53Z</time>
      </trkpt>
      <trkpt lat="41.86524" lon="8.65228">
        <ele>-0.3433837890625</ele>
        <time>2015-07-25T22:25:58Z</time>
      </trkpt>
      <trkpt lat="41.86533" lon="8.65268">
        <ele>-1.3046875</ele>
        <time>2015-07-25T22:26:09Z</time>
      </trkpt>
      <trkpt lat="41.8654" lon="8.65314">
        <ele>-1.3046875</ele>
        <time>2015-07-25T22:26:22Z</time>
      </trkpt>
      <trkpt lat="41.86551" lon="8.65361">
        <ele>-1.3046875</ele>
        <time>2015-07-25T22:26:36Z</time>
      </trkpt>
      <trkpt lat="41.86563" lon="8.65413">
        <ele>-1.3046875</ele>
        <time>2015-07-25T22:26:51Z</time>
      </trkpt>
      <trkpt lat="41.86579" lon="8.65464">
        <ele>-0.8240966796875</ele>
        <time>2015-07-25T22:27:07Z</time>
      </trkpt>
      <trkpt lat="41.86598" lon="8.65511">
        <ele>-0.8240966796875</ele>
        <time>2015-07-25T22:27:22Z</time>
      </trkpt>
      <trkpt lat="41.86616" lon="8.65552">
        <ele>-0.8240966796875</ele>
        <time>2015-07-25T22:27:36Z</time>
      </trkpt>
      <trkpt lat="41.86635" lon="8.65604">
        <ele>-0.8240966796875</ele>
        <time>2015-07-25T22:27:53Z</time>
      </trkpt>
      <trkpt lat="41.86655" lon="8.6565">
        <ele>-1.3046875</ele>
        <time>2015-07-25T22:28:08Z</time>
      </trkpt>
      <trkpt lat="41.86672" lon="8.65695">
        <ele>-1.3046875</ele>
        <time>2015-07-25T22:28:23Z</time>
      </trkpt>
      <trkpt lat="41.86691" lon="8.65735">
        <ele>-1.3046875</ele>
        <time>2015-07-25T22:28:37Z</time>
      </trkpt>
      <trkpt lat="41.86709" lon="8.65784">
        <ele>-0.8240966796875</ele>
        <time>2015-07-25T22:28:53Z</time>
      </trkpt>
      <trkpt lat="41.86724" lon="8.65825">
        <ele>-1.3046875</ele>
        <time>2015-07-25T22:29:07Z</time>
      </trkpt>
      <trkpt lat="41.86743" lon="8.65876">
        <ele>-0.8240966796875</ele>
        <time>2015-07-25T22:29:23Z</time>
      </trkpt>
      <trkpt lat="41.86767" lon="8.65921">
        <ele>-0.8240966796875</ele>
        <time>2015-07-25T22:29:39Z</time>
      </trkpt>
      <trkpt lat="41.86785" lon="8.65965">
        <ele>-0.8240966796875</ele>
        <time>2015-07-25T22:29:54Z</time>
      </trkpt>
      <trkpt lat="41.86801" lon="8.65998">
        <ele>-1.3046875</ele>
        <time>2015-07-25T22:30:06Z</time>
      </trkpt>
      <trkpt lat="41.86816" lon="8.66039">
        <ele>-0.8240966796875</ele>
        <time>2015-07-25T22:30:19Z</time>
      </trkpt>
      <trkpt lat="41.86841" lon="8.66093">
        <ele>-1.3046875</ele>
        <time>2015-07-25T22:30:38Z</time>
      </trkpt>
      <trkpt lat="41.86853" lon="8.6612">
        <ele>0.6180419921875</ele>
        <time>2015-07-25T22:30:47Z</time>
      </trkpt>
      <trkpt lat="41.86859" lon="8.66133">
        <ele>-2.2659912109375</ele>
        <time>2015-07-25T22:30:52Z</time>
      </trkpt>
      <trkpt lat="41.86861" lon="8.66136">
        <ele>0.6180419921875</ele>
        <time>2015-07-25T22:30:53Z</time>
      </trkpt>
      <trkpt lat="41.86863" lon="8.66139">
        <ele>0.6180419921875</ele>
        <time>2015-07-25T22:30:54Z</time>
      </trkpt>
      <trkpt lat="41.86879" lon="8.66171">
        <ele>-0.8240966796875</ele>
        <time>2015-07-25T22:31:06Z</time>
      </trkpt>
      <trkpt lat="41.86897" lon="8.66227">
        <ele>-1.3046875</ele>
        <time>2015-07-25T22:31:24Z</time>
      </trkpt>
      <trkpt lat="41.86913" lon="8.66266">
        <ele>-0.8240966796875</ele>
        <time>2015-07-25T22:31:37Z</time>
      </trkpt>
      <trkpt lat="41.86932" lon="8.66309">
        <ele>-0.3433837890625</ele>
        <time>2015-07-25T22:31:52Z</time>
      </trkpt>
      <trkpt lat="41.86946" lon="8.66343">
        <ele>-0.3433837890625</ele>
        <time>2015-07-25T22:32:04Z</time>
      </trkpt>
      <trkpt lat="41.86968" lon="8.66386">
        <ele>-0.8240966796875</ele>
        <time>2015-07-25T22:32:20Z</time>
      </trkpt>
      <trkpt lat="41.8699" lon="8.6643">
        <ele>-0.8240966796875</ele>
        <time>2015-07-25T22:32:34Z</time>
      </trkpt>
      <trkpt lat="41.87009" lon="8.66474">
        <ele>-0.3433837890625</ele>
        <time>2015-07-25T22:32:50Z</time>
      </trkpt>
      <trkpt lat="41.87024" lon="8.66508">
        <ele>-0.3433837890625</ele>
        <time>2015-07-25T22:33:02Z</time>
      </trkpt>
      <trkpt lat="41.87045" lon="8.66547">
        <ele>-0.8240966796875</ele>
        <time>2015-07-25T22:33:16Z</time>
      </trkpt>
      <trkpt lat="41.87056" lon="8.66574">
        <ele>-0.3433837890625</ele>
        <time>2015-07-25T22:33:25Z</time>
      </trkpt>
      <trkpt lat="41.87071" lon="8.66617">
        <ele>-0.3433837890625</ele>
        <time>2015-07-25T22:33:40Z</time>
      </trkpt>
      <trkpt lat="41.87087" lon="8.66663">
        <ele>-0.3433837890625</ele>
        <time>2015-07-25T22:33:55Z</time>
      </trkpt>
      <trkpt lat="41.87106" lon="8.66702">
        <ele>-0.8240966796875</ele>
        <time>2015-07-25T22:34:09Z</time>
      </trkpt>
      <trkpt lat="41.87124" lon="8.66738">
        <ele>-0.3433837890625</ele>
        <time>2015-07-25T22:34:22Z</time>
      </trkpt>
      <trkpt lat="41.87137" lon="8.6677">
        <ele>-0.3433837890625</ele>
        <time>2015-07-25T22:34:33Z</time>
      </trkpt>
      <trkpt lat="41.87156" lon="8.66823">
        <ele>0.137451171875</ele>
        <time>2015-07-25T22:34:51Z</time>
      </trkpt>
      <trkpt lat="41.87169" lon="8.66866">
        <ele>-0.3433837890625</ele>
        <time>2015-07-25T22:35:06Z</time>
      </trkpt>
      <trkpt lat="41.87187" lon="8.66907">
        <ele>-0.3433837890625</ele>
        <time>2015-07-25T22:35:20Z</time>
      </trkpt>
      <trkpt lat="41.87208" lon="8.66956">
        <ele>0.137451171875</ele>
        <time>2015-07-25T22:35:36Z</time>
      </trkpt>
      <trkpt lat="41.87224" lon="8.67014">
        <ele>0.137451171875</ele>
        <time>2015-07-25T22:35:55Z</time>
      </trkpt>
      <trkpt lat="41.87245" lon="8.67064">
        <ele>-0.3433837890625</ele>
        <time>2015-07-25T22:36:12Z</time>
      </trkpt>
      <trkpt lat="41.8726" lon="8.67109">
        <ele>-0.8240966796875</ele>
        <time>2015-07-25T22:36:27Z</time>
      </trkpt>
      <trkpt lat="41.8728" lon="8.67156">
        <ele>-0.3433837890625</ele>
        <time>2015-07-25T22:36:43Z</time>
      </trkpt>
      <trkpt lat="41.87306" lon="8.67203">
        <ele>-0.3433837890625</ele>
        <time>2015-07-25T22:37:01Z</time>
      </trkpt>
      <trkpt lat="41.87322" lon="8.67249">
        <ele>0.137451171875</ele>
        <time>2015-07-25T22:37:16Z</time>
      </trkpt>
      <trkpt lat="41.87335" lon="8.67302">
        <ele>-0.3433837890625</ele>
        <time>2015-07-25T22:37:32Z</time>
      </trkpt>
      <trkpt lat="41.8735" lon="8.67349">
        <ele>-0.3433837890625</ele>
        <time>2015-07-25T22:37:47Z</time>
      </trkpt>
      <trkpt lat="41.87364" lon="8.67383">
        <ele>-0.8240966796875</ele>
        <time>2015-07-25T22:37:59Z</time>
      </trkpt>
      <trkpt lat="41.87381" lon="8.67423">
        <ele>0.137451171875</ele>
        <time>2015-07-25T22:38:13Z</time>
      </trkpt>
      <trkpt lat="41.87395" lon="8.67463">
        <ele>-0.3433837890625</ele>
        <time>2015-07-25T22:38:26Z</time>
      </trkpt>
      <trkpt lat="41.87414" lon="8.67509">
        <ele>-0.8240966796875</ele>
        <time>2015-07-25T22:38:42Z</time>
      </trkpt>
      <trkpt lat="41.87432" lon="8.67559">
        <ele>0.137451171875</ele>
        <time>2015-07-25T22:38:58Z</time>
      </trkpt>
      <trkpt lat="41.87443" lon="8.67599">
        <ele>-0.3433837890625</ele>
        <time>2015-07-25T22:39:11Z</time>
      </trkpt>
      <trkpt lat="41.87454" lon="8.67643">
        <ele>0.6180419921875</ele>
        <time>2015-07-25T22:39:25Z</time>
      </trkpt>
      <trkpt lat="41.87474" lon="8.67684">
        <ele>0.137451171875</ele>
        <time>2015-07-25T22:39:40Z</time>
      </trkpt>
      <trkpt lat="41.87489" lon="8.67716">
        <ele>0.137451171875</ele>
        <time>2015-07-25T22:39:52Z</time>
      </trkpt>
      <trkpt lat="41.87511" lon="8.67761">
        <ele>0.137451171875</ele>
        <time>2015-07-25T22:40:08Z</time>
      </trkpt>
      <trkpt lat="41.87532" lon="8.67814">
        <ele>-0.3433837890625</ele>
        <time>2015-07-25T22:40:26Z</time>
      </trkpt>
      <trkpt lat="41.87554" lon="8.67864">
        <ele>-0.3433837890625</ele>
        <time>2015-07-25T22:40:43Z</time>
      </trkpt>
      <trkpt lat="41.8757" lon="8.67901">
        <ele>-0.8240966796875</ele>
        <time>2015-07-25T22:40:56Z</time>
      </trkpt>
      <trkpt lat="41.87592" lon="8.67951">
        <ele>0.137451171875</ele>
        <time>2015-07-25T22:41:13Z</time>
      </trkpt>
      <trkpt lat="41.87609" lon="8.67991">
        <ele>0.137451171875</ele>
        <time>2015-07-25T22:41:27Z</time>
      </trkpt>
      <trkpt lat="41.87635" lon="8.68051">
        <ele>0.137451171875</ele>
        <time>2015-07-25T22:41:47Z</time>
      </trkpt>
      <trkpt lat="41.87639" lon="8.68066">
        <ele>-1.7852783203125</ele>
        <time>2015-07-25T22:41:52Z</time>
      </trkpt>
      <trkpt lat="41.87641" lon="8.68073">
        <ele>0.6180419921875</ele>
        <time>2015-07-25T22:41:54Z</time>
      </trkpt>
      <trkpt lat="41.87644" lon="8.68079">
        <ele>-0.8240966796875</ele>
        <time>2015-07-25T22:41:56Z</time>
      </trkpt>
      <trkpt lat="41.87646" lon="8.68086">
        <ele>0.6180419921875</ele>
        <time>2015-07-25T22:41:58Z</time>
      </trkpt>
      <trkpt lat="41.8765" lon="8.68094">
        <ele>0.137451171875</ele>
        <time>2015-07-25T22:42:01Z</time>
      </trkpt>
      <trkpt lat="41.8766" lon="8.68133">
        <ele>-0.3433837890625</ele>
        <time>2015-07-25T22:42:13Z</time>
      </trkpt>
      <trkpt lat="41.8767" lon="8.68166">
        <ele>0.6180419921875</ele>
        <time>2015-07-25T22:42:24Z</time>
      </trkpt>
      <trkpt lat="41.87676" lon="8.68181">
        <ele>-0.8240966796875</ele>
        <time>2015-07-25T22:42:29Z</time>
      </trkpt>
      <trkpt lat="41.87678" lon="8.68187">
        <ele>1.579345703125</ele>
        <time>2015-07-25T22:42:31Z</time>
      </trkpt>
      <trkpt lat="41.87681" lon="8.68193">
        <ele>-1.3046875</ele>
        <time>2015-07-25T22:42:33Z</time>
      </trkpt>
      <trkpt lat="41.87685" lon="8.68205">
        <ele>0.137451171875</ele>
        <time>2015-07-25T22:42:37Z</time>
      </trkpt>
      <trkpt lat="41.8769" lon="8.6822">
        <ele>-0.8240966796875</ele>
        <time>2015-07-25T22:42:42Z</time>
      </trkpt>
      <trkpt lat="41.87692" lon="8.68226">
        <ele>1.0986328125</ele>
        <time>2015-07-25T22:42:44Z</time>
      </trkpt>
      <trkpt lat="41.87694" lon="8.68232">
        <ele>-1.7852783203125</ele>
        <time>2015-07-25T22:42:46Z</time>
      </trkpt>
      <trkpt lat="41.87694" lon="8.68236">
        <ele>-1.7852783203125</ele>
        <time>2015-07-25T22:42:47Z</time>
      </trkpt>
      <trkpt lat="41.87697" lon="8.68251">
        <ele>0.6180419921875</ele>
        <time>2015-07-25T22:42:52Z</time>
      </trkpt>
      <trkpt lat="41.877" lon="8.68266">
        <ele>-2.2659912109375</ele>
        <time>2015-07-25T22:42:57Z</time>
      </trkpt>
      <trkpt lat="41.87705" lon="8.68296">
        <ele>-2.7467041015625</ele>
        <time>2015-07-25T22:43:06Z</time>
      </trkpt>
      <trkpt lat="41.87707" lon="8.68309">
        <ele>-1.3046875</ele>
        <time>2015-07-25T22:43:10Z</time>
      </trkpt>
      <trkpt lat="41.87722" lon="8.68365">
        <ele>0.6180419921875</ele>
        <time>2015-07-25T22:43:28Z</time>
      </trkpt>
      <trkpt lat="41.87725" lon="8.68374">
        <ele>-0.8240966796875</ele>
        <time>2015-07-25T22:43:31Z</time>
      </trkpt>
      <trkpt lat="41.87742" lon="8.68425">
        <ele>-2.2659912109375</ele>
        <time>2015-07-25T22:43:47Z</time>
      </trkpt>
      <trkpt lat="41.87743" lon="8.68427">
        <ele>-2.2659912109375</ele>
        <time>2015-07-25T22:43:48Z</time>
      </trkpt>
      <trkpt lat="41.87746" lon="8.68437">
        <ele>-0.3433837890625</ele>
        <time>2015-07-25T22:43:51Z</time>
      </trkpt>
      <trkpt lat="41.87778" lon="8.6849">
        <ele>-1.7852783203125</ele>
        <time>2015-07-25T22:44:11Z</time>
      </trkpt>
      <trkpt lat="41.87787" lon="8.68509">
        <ele>1.0986328125</ele>
        <time>2015-07-25T22:44:18Z</time>
      </trkpt>
      <trkpt lat="41.87807" lon="8.68545">
        <ele>-0.3433837890625</ele>
        <time>2015-07-25T22:44:31Z</time>
      </trkpt>
      <trkpt lat="41.87826" lon="8.6859">
        <ele>1.0986328125</ele>
        <time>2015-07-25T22:44:47Z</time>
      </trkpt>
      <trkpt lat="41.87839" lon="8.68627">
        <ele>1.579345703125</ele>
        <time>2015-07-25T22:44:59Z</time>
      </trkpt>
      <trkpt lat="41.87843" lon="8.68639">
        <ele>-1.7852783203125</ele>
        <time>2015-07-25T22:45:03Z</time>
      </trkpt>
      <trkpt lat="41.87844" lon="8.68642">
        <ele>-1.7852783203125</ele>
        <time>2015-07-25T22:45:04Z</time>
      </trkpt>
      <trkpt lat="41.87846" lon="8.68646">
        <ele>0.6180419921875</ele>
        <time>2015-07-25T22:45:06Z</time>
      </trkpt>
      <trkpt lat="41.87866" lon="8.68696">
        <ele>-0.3433837890625</ele>
        <time>2015-07-25T22:45:22Z</time>
      </trkpt>
      <trkpt lat="41.87883" lon="8.68733">
        <ele>-0.8240966796875</ele>
        <time>2015-07-25T22:45:35Z</time>
      </trkpt>
      <trkpt lat="41.87901" lon="8.68786">
        <ele>-0.8240966796875</ele>
        <time>2015-07-25T22:45:52Z</time>
      </trkpt>
      <trkpt lat="41.87909" lon="8.6881">
        <ele>0.137451171875</ele>
        <time>2015-07-25T22:46:00Z</time>
      </trkpt>
      <trkpt lat="41.87923" lon="8.68845">
        <ele>-0.8240966796875</ele>
        <time>2015-07-25T22:46:12Z</time>
      </trkpt>
      <trkpt lat="41.87939" lon="8.68884">
        <ele>-0.8240966796875</ele>
        <time>2015-07-25T22:46:26Z</time>
      </trkpt>
      <trkpt lat="41.87956" lon="8.68925">
        <ele>-0.8240966796875</ele>
        <time>2015-07-25T22:46:40Z</time>
      </trkpt>
      <trkpt lat="41.87978" lon="8.6897">
        <ele>-0.8240966796875</ele>
        <time>2015-07-25T22:46:56Z</time>
      </trkpt>
      <trkpt lat="41.87994" lon="8.69012">
        <ele>-0.8240966796875</ele>
        <time>2015-07-25T22:47:10Z</time>
      </trkpt>
      <trkpt lat="41.88009" lon="8.69053">
        <ele>-0.8240966796875</ele>
        <time>2015-07-25T22:47:24Z</time>
      </trkpt>
      <trkpt lat="41.88021" lon="8.69093">
        <ele>-0.3433837890625</ele>
        <time>2015-07-25T22:47:37Z</time>
      </trkpt>
      <trkpt lat="41.8804" lon="8.69142">
        <ele>-0.3433837890625</ele>
        <time>2015-07-25T22:47:54Z</time>
      </trkpt>
      <trkpt lat="41.88062" lon="8.69199">
        <ele>0.137451171875</ele>
        <time>2015-07-25T22:48:12Z</time>
      </trkpt>
      <trkpt lat="41.88084" lon="8.69249">
        <ele>-0.8240966796875</ele>
        <time>2015-07-25T22:48:29Z</time>
      </trkpt>
      <trkpt lat="41.88102" lon="8.69293">
        <ele>-0.8240966796875</ele>
        <time>2015-07-25T22:48:44Z</time>
      </trkpt>
      <trkpt lat="41.88111" lon="8.69324">
        <ele>-1.3046875</ele>
        <time>2015-07-25T22:48:55Z</time>
      </trkpt>
      <trkpt lat="41.8813" lon="8.69369">
        <ele>-0.8240966796875</ele>
        <time>2015-07-25T22:49:10Z</time>
      </trkpt>
      <trkpt lat="41.88134" lon="8.6938">
        <ele>-1.7852783203125</ele>
        <time>2015-07-25T22:49:14Z</time>
      </trkpt>
      <trkpt lat="41.88148" lon="8.69425">
        <ele>-0.8240966796875</ele>
        <time>2015-07-25T22:49:29Z</time>
      </trkpt>
      <trkpt lat="41.88168" lon="8.6948">
        <ele>-0.8240966796875</ele>
        <time>2015-07-25T22:49:47Z</time>
      </trkpt>
      <trkpt lat="41.88182" lon="8.6952">
        <ele>-1.3046875</ele>
        <time>2015-07-25T22:50:01Z</time>
      </trkpt>
      <trkpt lat="41.88201" lon="8.69568">
        <ele>-0.8240966796875</ele>
        <time>2015-07-25T22:50:17Z</time>
      </trkpt>
      <trkpt lat="41.88219" lon="8.69609">
        <ele>-0.8240966796875</ele>
        <time>2015-07-25T22:50:31Z</time>
      </trkpt>
      <trkpt lat="41.88231" lon="8.69646">
        <ele>-0.8240966796875</ele>
        <time>2015-07-25T22:50:43Z</time>
      </trkpt>
      <trkpt lat="41.88245" lon="8.69687">
        <ele>-1.3046875</ele>
        <time>2015-07-25T22:50:57Z</time>
      </trkpt>
      <trkpt lat="41.88257" lon="8.69726">
        <ele>-0.8240966796875</ele>
        <time>2015-07-25T22:51:09Z</time>
      </trkpt>
      <trkpt lat="41.88275" lon="8.69773">
        <ele>-0.3433837890625</ele>
        <time>2015-07-25T22:51:24Z</time>
      </trkpt>
      <trkpt lat="41.88292" lon="8.69816">
        <ele>-0.8240966796875</ele>
        <time>2015-07-25T22:51:38Z</time>
      </trkpt>
      <trkpt lat="41.88304" lon="8.69849">
        <ele>-0.8240966796875</ele>
        <time>2015-07-25T22:51:49Z</time>
      </trkpt>
      <trkpt lat="41.88317" lon="8.69887">
        <ele>-0.8240966796875</ele>
        <time>2015-07-25T22:52:02Z</time>
      </trkpt>
      <trkpt lat="41.88332" lon="8.69919">
        <ele>-1.3046875</ele>
        <time>2015-07-25T22:52:13Z</time>
      </trkpt>
      <trkpt lat="41.88347" lon="8.69956">
        <ele>-0.8240966796875</ele>
        <time>2015-07-25T22:52:25Z</time>
      </trkpt>
      <trkpt lat="41.8836" lon="8.69991">
        <ele>-0.3433837890625</ele>
        <time>2015-07-25T22:52:39Z</time>
      </trkpt>
      <trkpt lat="41.88371" lon="8.70018">
        <ele>-1.3046875</ele>
        <time>2015-07-25T22:52:49Z</time>
      </trkpt>
      <trkpt lat="41.88385" lon="8.70054">
        <ele>-1.3046875</ele>
        <time>2015-07-25T22:53:00Z</time>
      </trkpt>
      <trkpt lat="41.88399" lon="8.70092">
        <ele>-1.3046875</ele>
        <time>2015-07-25T22:53:13Z</time>
      </trkpt>
      <trkpt lat="41.8841" lon="8.70124">
        <ele>-1.7852783203125</ele>
        <time>2015-07-25T22:53:24Z</time>
      </trkpt>
      <trkpt lat="41.88416" lon="8.70142">
        <ele>-0.8240966796875</ele>
        <time>2015-07-25T22:53:30Z</time>
      </trkpt>
      <trkpt lat="41.88435" lon="8.70176">
        <ele>-1.3046875</ele>
        <time>2015-07-25T22:53:42Z</time>
      </trkpt>
      <trkpt lat="41.8845" lon="8.70214">
        <ele>-0.8240966796875</ele>
        <time>2015-07-25T22:53:54Z</time>
      </trkpt>
      <trkpt lat="41.88462" lon="8.70246">
        <ele>-0.8240966796875</ele>
        <time>2015-07-25T22:54:05Z</time>
      </trkpt>
      <trkpt lat="41.88476" lon="8.70277">
        <ele>-1.3046875</ele>
        <time>2015-07-25T22:54:14Z</time>
      </trkpt>
      <trkpt lat="41.8849" lon="8.70308">
        <ele>-0.3433837890625</ele>
        <time>2015-07-25T22:54:26Z</time>
      </trkpt>
      <trkpt lat="41.88502" lon="8.70332">
        <ele>-0.8240966796875</ele>
        <time>2015-07-25T22:54:35Z</time>
      </trkpt>
      <trkpt lat="41.88511" lon="8.70352">
        <ele>-0.8240966796875</ele>
        <time>2015-07-25T22:54:45Z</time>
      </trkpt>
      <trkpt lat="41.88523" lon="8.70382">
        <ele>-1.7852783203125</ele>
        <time>2015-07-25T22:54:56Z</time>
      </trkpt>
      <trkpt lat="41.88544" lon="8.70433">
        <ele>-0.8240966796875</ele>
        <time>2015-07-25T22:55:11Z</time>
      </trkpt>
      <trkpt lat="41.88555" lon="8.7046">
        <ele>-1.3046875</ele>
        <time>2015-07-25T22:55:22Z</time>
      </trkpt>
      <trkpt lat="41.88571" lon="8.70499">
        <ele>-0.8240966796875</ele>
        <time>2015-07-25T22:55:35Z</time>
      </trkpt>
      <trkpt lat="41.88591" lon="8.70542">
        <ele>-1.3046875</ele>
        <time>2015-07-25T22:55:50Z</time>
      </trkpt>
      <trkpt lat="41.88617" lon="8.70589">
        <ele>-0.8240966796875</ele>
        <time>2015-07-25T22:56:05Z</time>
      </trkpt>
      <trkpt lat="41.88638" lon="8.70631">
        <ele>-1.3046875</ele>
        <time>2015-07-25T22:56:20Z</time>
      </trkpt>
      <trkpt lat="41.88656" lon="8.7068">
        <ele>-0.3433837890625</ele>
        <time>2015-07-25T22:56:36Z</time>
      </trkpt>
      <trkpt lat="41.8867" lon="8.70716">
        <ele>-0.8240966796875</ele>
        <time>2015-07-25T22:56:49Z</time>
      </trkpt>
      <trkpt lat="41.88692" lon="8.70762">
        <ele>-0.8240966796875</ele>
        <time>2015-07-25T22:57:05Z</time>
      </trkpt>
      <trkpt lat="41.88706" lon="8.70803">
        <ele>-0.8240966796875</ele>
        <time>2015-07-25T22:57:19Z</time>
      </trkpt>
      <trkpt lat="41.88725" lon="8.7085">
        <ele>-1.3046875</ele>
        <time>2015-07-25T22:57:35Z</time>
      </trkpt>
      <trkpt lat="41.88749" lon="8.70902">
        <ele>-0.3433837890625</ele>
        <time>2015-07-25T22:57:53Z</time>
      </trkpt>
      <trkpt lat="41.88765" lon="8.70939">
        <ele>-0.8240966796875</ele>
        <time>2015-07-25T22:58:06Z</time>
      </trkpt>
      <trkpt lat="41.88777" lon="8.70974">
        <ele>-1.3046875</ele>
        <time>2015-07-25T22:58:18Z</time>
      </trkpt>
      <trkpt lat="41.88791" lon="8.71011">
        <ele>-0.3433837890625</ele>
        <time>2015-07-25T22:58:30Z</time>
      </trkpt>
      <trkpt lat="41.88805" lon="8.71044">
        <ele>-1.3046875</ele>
        <time>2015-07-25T22:58:42Z</time>
      </trkpt>
      <trkpt lat="41.88819" lon="8.71082">
        <ele>-0.3433837890625</ele>
        <time>2015-07-25T22:58:55Z</time>
      </trkpt>
      <trkpt lat="41.88835" lon="8.71137">
        <ele>-0.8240966796875</ele>
        <time>2015-07-25T22:59:13Z</time>
      </trkpt>
      <trkpt lat="41.88851" lon="8.71187">
        <ele>-0.3433837890625</ele>
        <time>2015-07-25T22:59:29Z</time>
      </trkpt>
      <trkpt lat="41.88871" lon="8.71241">
        <ele>-0.8240966796875</ele>
        <time>2015-07-25T22:59:47Z</time>
      </trkpt>
      <trkpt lat="41.88882" lon="8.71264">
        <ele>-1.3046875</ele>
        <time>2015-07-25T22:59:55Z</time>
      </trkpt>
      <trkpt lat="41.88896" lon="8.71309">
        <ele>-0.8240966796875</ele>
        <time>2015-07-25T23:00:11Z</time>
      </trkpt>
      <trkpt lat="41.88913" lon="8.7136">
        <ele>-0.8240966796875</ele>
        <time>2015-07-25T23:00:28Z</time>
      </trkpt>
      <trkpt lat="41.88927" lon="8.71394">
        <ele>-0.8240966796875</ele>
        <time>2015-07-25T23:00:40Z</time>
      </trkpt>
      <trkpt lat="41.8895" lon="8.71452">
        <ele>-0.8240966796875</ele>
        <time>2015-07-25T23:00:59Z</time>
      </trkpt>
      <trkpt lat="41.88969" lon="8.71506">
        <ele>-0.3433837890625</ele>
        <time>2015-07-25T23:01:17Z</time>
      </trkpt>
      <trkpt lat="41.88993" lon="8.7156">
        <ele>-0.3433837890625</ele>
        <time>2015-07-25T23:01:37Z</time>
      </trkpt>
      <trkpt lat="41.89011" lon="8.71612">
        <ele>-0.3433837890625</ele>
        <time>2015-07-25T23:01:54Z</time>
      </trkpt>
      <trkpt lat="41.89026" lon="8.71653">
        <ele>-0.3433837890625</ele>
        <time>2015-07-25T23:02:08Z</time>
      </trkpt>
      <trkpt lat="41.89049" lon="8.7171">
        <ele>-0.8240966796875</ele>
        <time>2015-07-25T23:02:27Z</time>
      </trkpt>
      <trkpt lat="41.89067" lon="8.71758">
        <ele>-0.8240966796875</ele>
        <time>2015-07-25T23:02:43Z</time>
      </trkpt>
      <trkpt lat="41.89079" lon="8.71798">
        <ele>-0.8240966796875</ele>
        <time>2015-07-25T23:02:56Z</time>
      </trkpt>
      <trkpt lat="41.891" lon="8.71842">
        <ele>-0.8240966796875</ele>
        <time>2015-07-25T23:03:12Z</time>
      </trkpt>
      <trkpt lat="41.89121" lon="8.71874">
        <ele>-0.8240966796875</ele>
        <time>2015-07-25T23:03:25Z</time>
      </trkpt>
      <trkpt lat="41.8914" lon="8.71918">
        <ele>-0.3433837890625</ele>
        <time>2015-07-25T23:03:40Z</time>
      </trkpt>
      <trkpt lat="41.89155" lon="8.71963">
        <ele>0.137451171875</ele>
        <time>2015-07-25T23:03:55Z</time>
      </trkpt>
      <trkpt lat="41.89169" lon="8.72006">
        <ele>-0.8240966796875</ele>
        <time>2015-07-25T23:04:09Z</time>
      </trkpt>
      <trkpt lat="41.8919" lon="8.72049">
        <ele>0.137451171875</ele>
        <time>2015-07-25T23:04:25Z</time>
      </trkpt>
      <trkpt lat="41.89208" lon="8.72097">
        <ele>-0.3433837890625</ele>
        <time>2015-07-25T23:04:42Z</time>
      </trkpt>
      <trkpt lat="41.89225" lon="8.72134">
        <ele>-0.3433837890625</ele>
        <time>2015-07-25T23:04:54Z</time>
      </trkpt>
      <trkpt lat="41.89242" lon="8.72168">
        <ele>-0.3433837890625</ele>
        <time>2015-07-25T23:05:06Z</time>
      </trkpt>
      <trkpt lat="41.89264" lon="8.72221">
        <ele>-0.8240966796875</ele>
        <time>2015-07-25T23:05:24Z</time>
      </trkpt>
      <trkpt lat="41.89285" lon="8.72268">
        <ele>-0.3433837890625</ele>
        <time>2015-07-25T23:05:40Z</time>
      </trkpt>
      <trkpt lat="41.89299" lon="8.72312">
        <ele>-0.3433837890625</ele>
        <time>2015-07-25T23:05:55Z</time>
      </trkpt>
      <trkpt lat="41.89319" lon="8.72363">
        <ele>-0.8240966796875</ele>
        <time>2015-07-25T23:06:12Z</time>
      </trkpt>
      <trkpt lat="41.89335" lon="8.72401">
        <ele>-0.8240966796875</ele>
        <time>2015-07-25T23:06:25Z</time>
      </trkpt>
      <trkpt lat="41.89353" lon="8.72447">
        <ele>-0.3433837890625</ele>
        <time>2015-07-25T23:06:41Z</time>
      </trkpt>
      <trkpt lat="41.89375" lon="8.72492">
        <ele>-0.3433837890625</ele>
        <time>2015-07-25T23:06:56Z</time>
      </trkpt>
      <trkpt lat="41.89392" lon="8.72535">
        <ele>-0.8240966796875</ele>
        <time>2015-07-25T23:07:11Z</time>
      </trkpt>
      <trkpt lat="41.89406" lon="8.72573">
        <ele>-0.8240966796875</ele>
        <time>2015-07-25T23:07:24Z</time>
      </trkpt>
      <trkpt lat="41.89425" lon="8.72623">
        <ele>-0.3433837890625</ele>
        <time>2015-07-25T23:07:41Z</time>
      </trkpt>
      <trkpt lat="41.89442" lon="8.72666">
        <ele>-0.3433837890625</ele>
        <time>2015-07-25T23:07:55Z</time>
      </trkpt>
      <trkpt lat="41.8946" lon="8.72704">
        <ele>0.6180419921875</ele>
        <time>2015-07-25T23:08:10Z</time>
      </trkpt>
      <trkpt lat="41.89479" lon="8.72745">
        <ele>-0.3433837890625</ele>
        <time>2015-07-25T23:08:24Z</time>
      </trkpt>
      <trkpt lat="41.89499" lon="8.72788">
        <ele>-0.3433837890625</ele>
        <time>2015-07-25T23:08:39Z</time>
      </trkpt>
      <trkpt lat="41.89521" lon="8.72835">
        <ele>-0.8240966796875</ele>
        <time>2015-07-25T23:08:55Z</time>
      </trkpt>
      <trkpt lat="41.89538" lon="8.72873">
        <ele>-0.3433837890625</ele>
        <time>2015-07-25T23:09:08Z</time>
      </trkpt>
      <trkpt lat="41.89556" lon="8.72924">
        <ele>0.137451171875</ele>
        <time>2015-07-25T23:09:25Z</time>
      </trkpt>
      <trkpt lat="41.89572" lon="8.72971">
        <ele>-0.3433837890625</ele>
        <time>2015-07-25T23:09:42Z</time>
      </trkpt>
      <trkpt lat="41.89586" lon="8.7301">
        <ele>0.137451171875</ele>
        <time>2015-07-25T23:09:55Z</time>
      </trkpt>
      <trkpt lat="41.89608" lon="8.73053">
        <ele>-0.8240966796875</ele>
        <time>2015-07-25T23:10:10Z</time>
      </trkpt>
      <trkpt lat="41.89618" lon="8.73083">
        <ele>0.137451171875</ele>
        <time>2015-07-25T23:10:22Z</time>
      </trkpt>
      <trkpt lat="41.89643" lon="8.73131">
        <ele>0.137451171875</ele>
        <time>2015-07-25T23:10:36Z</time>
      </trkpt>
      <trkpt lat="41.89662" lon="8.73178">
        <ele>0.137451171875</ele>
        <time>2015-07-25T23:10:52Z</time>
      </trkpt>
      <trkpt lat="41.89676" lon="8.7322">
        <ele>-0.3433837890625</ele>
        <time>2015-07-25T23:11:06Z</time>
      </trkpt>
      <trkpt lat="41.89697" lon="8.73269">
        <ele>0.137451171875</ele>
        <time>2015-07-25T23:11:23Z</time>
      </trkpt>
      <trkpt lat="41.89712" lon="8.73305">
        <ele>0.6180419921875</ele>
        <time>2015-07-25T23:11:35Z</time>
      </trkpt>
      <trkpt lat="41.89723" lon="8.73334">
        <ele>0.137451171875</ele>
        <time>2015-07-25T23:11:46Z</time>
      </trkpt>
      <trkpt lat="41.89746" lon="8.73384">
        <ele>0.6180419921875</ele>
        <time>2015-07-25T23:12:04Z</time>
      </trkpt>
      <trkpt lat="41.8976" lon="8.73423">
        <ele>0.6180419921875</ele>
        <time>2015-07-25T23:12:17Z</time>
      </trkpt>
      <trkpt lat="41.89772" lon="8.73451">
        <ele>1.0986328125</ele>
        <time>2015-07-25T23:12:26Z</time>
      </trkpt>
      <trkpt lat="41.89792" lon="8.73494">
        <ele>-0.3433837890625</ele>
        <time>2015-07-25T23:12:40Z</time>
      </trkpt>
      <trkpt lat="41.89812" lon="8.73545">
        <ele>0.137451171875</ele>
        <time>2015-07-25T23:12:58Z</time>
      </trkpt>
      <trkpt lat="41.89836" lon="8.73601">
        <ele>-0.3433837890625</ele>
        <time>2015-07-25T23:13:17Z</time>
      </trkpt>
      <trkpt lat="41.89857" lon="8.73645">
        <ele>0.137451171875</ele>
        <time>2015-07-25T23:13:31Z</time>
      </trkpt>
      <trkpt lat="41.89872" lon="8.73688">
        <ele>0.137451171875</ele>
        <time>2015-07-25T23:13:46Z</time>
      </trkpt>
      <trkpt lat="41.89888" lon="8.73731">
        <ele>0.6180419921875</ele>
        <time>2015-07-25T23:14:00Z</time>
      </trkpt>
      <trkpt lat="41.89904" lon="8.73771">
        <ele>-0.3433837890625</ele>
        <time>2015-07-25T23:14:14Z</time>
      </trkpt>
      <trkpt lat="41.89917" lon="8.73807">
        <ele>0.6180419921875</ele>
        <time>2015-07-25T23:14:28Z</time>
      </trkpt>
      <trkpt lat="41.8993" lon="8.73842">
        <ele>1.0986328125</ele>
        <time>2015-07-25T23:14:41Z</time>
      </trkpt>
      <trkpt lat="41.8995" lon="8.73881">
        <ele>1.0986328125</ele>
        <time>2015-07-25T23:14:56Z</time>
      </trkpt>
      <trkpt lat="41.89968" lon="8.73927">
        <ele>1.0986328125</ele>
        <time>2015-07-25T23:15:12Z</time>
      </trkpt>
      <trkpt lat="41.8998" lon="8.73958">
        <ele>1.0986328125</ele>
        <time>2015-07-25T23:15:22Z</time>
      </trkpt>
      <trkpt lat="41.90012" lon="8.73993">
        <ele>1.0986328125</ele>
        <time>2015-07-25T23:15:36Z</time>
      </trkpt>
      <trkpt lat="41.9004" lon="8.74016">
        <ele>0.137451171875</ele>
        <time>2015-07-25T23:15:49Z</time>
      </trkpt>
      <trkpt lat="41.90067" lon="8.74052">
        <ele>0.137451171875</ele>
        <time>2015-07-25T23:16:04Z</time>
      </trkpt>
      <trkpt lat="41.90093" lon="8.74087">
        <ele>0.6180419921875</ele>
        <time>2015-07-25T23:16:21Z</time>
      </trkpt>
      <trkpt lat="41.90117" lon="8.7412">
        <ele>0.137451171875</ele>
        <time>2015-07-25T23:16:34Z</time>
      </trkpt>
      <trkpt lat="41.90144" lon="8.74156">
        <ele>-0.3433837890625</ele>
        <time>2015-07-25T23:16:49Z</time>
      </trkpt>
      <trkpt lat="41.90177" lon="8.74192">
        <ele>-0.3433837890625</ele>
        <time>2015-07-25T23:17:05Z</time>
      </trkpt>
      <trkpt lat="41.90201" lon="8.74225">
        <ele>-0.3433837890625</ele>
        <time>2015-07-25T23:17:20Z</time>
      </trkpt>
      <trkpt lat="41.90227" lon="8.7426">
        <ele>-0.3433837890625</ele>
        <time>2015-07-25T23:17:37Z</time>
      </trkpt>
      <trkpt lat="41.90261" lon="8.74295">
        <ele>0.6180419921875</ele>
        <time>2015-07-25T23:17:55Z</time>
      </trkpt>
      <trkpt lat="41.90291" lon="8.74328">
        <ele>-0.3433837890625</ele>
        <time>2015-07-25T23:18:11Z</time>
      </trkpt>
      <trkpt lat="41.90313" lon="8.74356">
        <ele>-0.3433837890625</ele>
        <time>2015-07-25T23:18:25Z</time>
      </trkpt>
      <trkpt lat="41.90338" lon="8.74395">
        <ele>-0.8240966796875</ele>
        <time>2015-07-25T23:18:42Z</time>
      </trkpt>
      <trkpt lat="41.90363" lon="8.74428">
        <ele>-0.3433837890625</ele>
        <time>2015-07-25T23:18:57Z</time>
      </trkpt>
      <trkpt lat="41.90389" lon="8.74461">
        <ele>-0.8240966796875</ele>
        <time>2015-07-25T23:19:13Z</time>
      </trkpt>
      <trkpt lat="41.90415" lon="8.74488">
        <ele>0.137451171875</ele>
        <time>2015-07-25T23:19:25Z</time>
      </trkpt>
      <trkpt lat="41.90437" lon="8.74507">
        <ele>-1.3046875</ele>
        <time>2015-07-25T23:19:37Z</time>
      </trkpt>
      <trkpt lat="41.90463" lon="8.74534">
        <ele>-0.8240966796875</ele>
        <time>2015-07-25T23:19:51Z</time>
      </trkpt>
      <trkpt lat="41.90485" lon="8.74569">
        <ele>-0.8240966796875</ele>
        <time>2015-07-25T23:20:05Z</time>
      </trkpt>
      <trkpt lat="41.90507" lon="8.74604">
        <ele>-0.8240966796875</ele>
        <time>2015-07-25T23:20:19Z</time>
      </trkpt>
      <trkpt lat="41.90533" lon="8.74639">
        <ele>-1.3046875</ele>
        <time>2015-07-25T23:20:36Z</time>
      </trkpt>
      <trkpt lat="41.90558" lon="8.74674">
        <ele>-0.8240966796875</ele>
        <time>2015-07-25T23:20:52Z</time>
      </trkpt>
      <trkpt lat="41.9058" lon="8.74702">
        <ele>-1.3046875</ele>
        <time>2015-07-25T23:21:05Z</time>
      </trkpt>
      <trkpt lat="41.90596" lon="8.74729">
        <ele>-0.8240966796875</ele>
        <time>2015-07-25T23:21:17Z</time>
      </trkpt>
      <trkpt lat="41.90625" lon="8.74768">
        <ele>-1.3046875</ele>
        <time>2015-07-25T23:21:34Z</time>
      </trkpt>
      <trkpt lat="41.90655" lon="8.74808">
        <ele>-0.8240966796875</ele>
        <time>2015-07-25T23:21:51Z</time>
      </trkpt>
      <trkpt lat="41.9068" lon="8.74839">
        <ele>-0.8240966796875</ele>
        <time>2015-07-25T23:22:06Z</time>
      </trkpt>
      <trkpt lat="41.90707" lon="8.7487">
        <ele>-0.8240966796875</ele>
        <time>2015-07-25T23:22:21Z</time>
      </trkpt>
      <trkpt lat="41.90737" lon="8.74905">
        <ele>-0.8240966796875</ele>
        <time>2015-07-25T23:22:38Z</time>
      </trkpt>
      <trkpt lat="41.9077" lon="8.74939">
        <ele>-1.3046875</ele>
        <time>2015-07-25T23:22:55Z</time>
      </trkpt>
      <trkpt lat="41.90795" lon="8.74967">
        <ele>-0.3433837890625</ele>
        <time>2015-07-25T23:23:09Z</time>
      </trkpt>
      <trkpt lat="41.90826" lon="8.75002">
        <ele>-0.8240966796875</ele>
        <time>2015-07-25T23:23:26Z</time>
      </trkpt>
      <trkpt lat="41.90853" lon="8.75033">
        <ele>-0.8240966796875</ele>
        <time>2015-07-25T23:23:42Z</time>
      </trkpt>
      <trkpt lat="41.90883" lon="8.75068">
        <ele>-1.3046875</ele>
        <time>2015-07-25T23:23:57Z</time>
      </trkpt>
      <trkpt lat="41.90891" lon="8.75074">
        <ele>0.6180419921875</ele>
        <time>2015-07-25T23:24:00Z</time>
      </trkpt>
      <trkpt lat="41.90898" lon="8.75088">
        <ele>-2.2659912109375</ele>
        <time>2015-07-25T23:24:07Z</time>
      </trkpt>
      <trkpt lat="41.909" lon="8.7509">
        <ele>1.579345703125</ele>
        <time>2015-07-25T23:24:08Z</time>
      </trkpt>
      <trkpt lat="41.90901" lon="8.7509">
        <ele>-0.8240966796875</ele>
        <time>2015-07-25T23:24:09Z</time>
      </trkpt>
      <trkpt lat="41.90924" lon="8.75117">
        <ele>-1.3046875</ele>
        <time>2015-07-25T23:24:22Z</time>
      </trkpt>
      <trkpt lat="41.90941" lon="8.75146">
        <ele>-0.3433837890625</ele>
        <time>2015-07-25T23:24:36Z</time>
      </trkpt>
      <trkpt lat="41.90962" lon="8.75166">
        <ele>-0.8240966796875</ele>
        <time>2015-07-25T23:24:49Z</time>
      </trkpt>
      <trkpt lat="41.90996" lon="8.75173">
        <ele>-0.3433837890625</ele>
        <time>2015-07-25T23:25:03Z</time>
      </trkpt>
      <trkpt lat="41.91027" lon="8.75168">
        <ele>-0.8240966796875</ele>
        <time>2015-07-25T23:25:17Z</time>
      </trkpt>
      <trkpt lat="41.91058" lon="8.75159">
        <ele>-1.3046875</ele>
        <time>2015-07-25T23:25:32Z</time>
      </trkpt>
      <trkpt lat="41.91095" lon="8.7515">
        <ele>-0.8240966796875</ele>
        <time>2015-07-25T23:25:49Z</time>
      </trkpt>
      <trkpt lat="41.91128" lon="8.75144">
        <ele>-0.8240966796875</ele>
        <time>2015-07-25T23:26:05Z</time>
      </trkpt>
      <trkpt lat="41.9116" lon="8.75138">
        <ele>-0.8240966796875</ele>
        <time>2015-07-25T23:26:19Z</time>
      </trkpt>
      <trkpt lat="41.91197" lon="8.75135">
        <ele>-1.3046875</ele>
        <time>2015-07-25T23:26:36Z</time>
      </trkpt>
      <trkpt lat="41.91229" lon="8.75129">
        <ele>-1.7852783203125</ele>
        <time>2015-07-25T23:26:51Z</time>
      </trkpt>
      <trkpt lat="41.91249" lon="8.75125">
        <ele>-0.8240966796875</ele>
        <time>2015-07-25T23:27:01Z</time>
      </trkpt>
      <trkpt lat="41.91254" lon="8.75125">
        <ele>0.6180419921875</ele>
        <time>2015-07-25T23:27:03Z</time>
      </trkpt>
      <trkpt lat="41.91288" lon="8.75116">
        <ele>-2.2659912109375</ele>
        <time>2015-07-25T23:27:18Z</time>
      </trkpt>
      <trkpt lat="41.9129" lon="8.75116">
        <ele>-2.2659912109375</ele>
        <time>2015-07-25T23:27:19Z</time>
      </trkpt>
      <trkpt lat="41.91293" lon="8.75116">
        <ele>-0.3433837890625</ele>
        <time>2015-07-25T23:27:21Z</time>
      </trkpt>
      <trkpt lat="41.91308" lon="8.75114">
        <ele>1.0986328125</ele>
        <time>2015-07-25T23:27:28Z</time>
      </trkpt>
      <trkpt lat="41.91314" lon="8.75113">
        <ele>-0.8240966796875</ele>
        <time>2015-07-25T23:27:31Z</time>
      </trkpt>
      <trkpt lat="41.91363" lon="8.7511">
        <ele>-0.3433837890625</ele>
        <time>2015-07-25T23:27:51Z</time>
      </trkpt>
      <trkpt lat="41.91394" lon="8.75104">
        <ele>-0.8240966796875</ele>
        <time>2015-07-25T23:28:06Z</time>
      </trkpt>
      <trkpt lat="41.91413" lon="8.75104">
        <ele>-1.3046875</ele>
        <time>2015-07-25T23:28:15Z</time>
      </trkpt>
      <trkpt lat="41.91452" lon="8.75105">
        <ele>-0.3433837890625</ele>
        <time>2015-07-25T23:28:33Z</time>
      </trkpt>
      <trkpt lat="41.91491" lon="8.75107">
        <ele>-0.8240966796875</ele>
        <time>2015-07-25T23:28:50Z</time>
      </trkpt>
      <trkpt lat="41.91532" lon="8.75111">
        <ele>-0.8240966796875</ele>
        <time>2015-07-25T23:29:09Z</time>
      </trkpt>
      <trkpt lat="41.91577" lon="8.75116">
        <ele>-0.8240966796875</ele>
        <time>2015-07-25T23:29:30Z</time>
      </trkpt>
      <trkpt lat="41.91605" lon="8.75112">
        <ele>-0.8240966796875</ele>
        <time>2015-07-25T23:29:42Z</time>
      </trkpt>
      <trkpt lat="41.91641" lon="8.75109">
        <ele>-0.8240966796875</ele>
        <time>2015-07-25T23:29:59Z</time>
      </trkpt>
      <trkpt lat="41.91674" lon="8.75107">
        <ele>-0.8240966796875</ele>
        <time>2015-07-25T23:30:14Z</time>
      </trkpt>
      <trkpt lat="41.91704" lon="8.75108">
        <ele>-0.3433837890625</ele>
        <time>2015-07-25T23:30:27Z</time>
      </trkpt>
      <trkpt lat="41.91749" lon="8.75117">
        <ele>-0.3433837890625</ele>
        <time>2015-07-25T23:30:46Z</time>
      </trkpt>
      <trkpt lat="41.91793" lon="8.75117">
        <ele>-0.3433837890625</ele>
        <time>2015-07-25T23:31:07Z</time>
      </trkpt>
      <trkpt lat="41.91839" lon="8.75112">
        <ele>-0.3433837890625</ele>
        <time>2015-07-25T23:31:27Z</time>
      </trkpt>
      <trkpt lat="41.91869" lon="8.7511">
        <ele>-0.8240966796875</ele>
        <time>2015-07-25T23:31:41Z</time>
      </trkpt>
      <trkpt lat="41.91918" lon="8.75114">
        <ele>-0.3433837890625</ele>
        <time>2015-07-25T23:32:02Z</time>
      </trkpt>
      <trkpt lat="41.91953" lon="8.75118">
        <ele>-0.3433837890625</ele>
        <time>2015-07-25T23:32:18Z</time>
      </trkpt>
      <trkpt lat="41.91997" lon="8.75122">
        <ele>-2.2659912109375</ele>
        <time>2015-07-25T23:32:38Z</time>
      </trkpt>
      <trkpt lat="41.91999" lon="8.75123">
        <ele>-2.2659912109375</ele>
        <time>2015-07-25T23:32:39Z</time>
      </trkpt>
      <trkpt lat="41.92009" lon="8.75124">
        <ele>0.6180419921875</ele>
        <time>2015-07-25T23:32:43Z</time>
      </trkpt>
      <trkpt lat="41.92045" lon="8.75126">
        <ele>-0.8240966796875</ele>
        <time>2015-07-25T23:32:59Z</time>
      </trkpt>
      <trkpt lat="41.921" lon="8.75133">
        <ele>-0.3433837890625</ele>
        <time>2015-07-25T23:33:23Z</time>
      </trkpt>
      <trkpt lat="41.92138" lon="8.75132">
        <ele>-0.8240966796875</ele>
        <time>2015-07-25T23:33:40Z</time>
      </trkpt>
      <trkpt lat="41.92174" lon="8.75132">
        <ele>-0.3433837890625</ele>
        <time>2015-07-25T23:33:56Z</time>
      </trkpt>
      <trkpt lat="41.92206" lon="8.75118">
        <ele>0.6180419921875</ele>
        <time>2015-07-25T23:34:12Z</time>
      </trkpt>
      <trkpt lat="41.92235" lon="8.75105">
        <ele>0.6180419921875</ele>
        <time>2015-07-25T23:34:26Z</time>
      </trkpt>
      <trkpt lat="41.92265" lon="8.7508">
        <ele>0.137451171875</ele>
        <time>2015-07-25T23:34:42Z</time>
      </trkpt>
      <trkpt lat="41.92291" lon="8.75056">
        <ele>-0.3433837890625</ele>
        <time>2015-07-25T23:34:57Z</time>
      </trkpt>
      <trkpt lat="41.92326" lon="8.75037">
        <ele>-0.3433837890625</ele>
        <time>2015-07-25T23:35:15Z</time>
      </trkpt>
      <trkpt lat="41.92351" lon="8.75018">
        <ele>-0.3433837890625</ele>
        <time>2015-07-25T23:35:28Z</time>
      </trkpt>
      <trkpt lat="41.92394" lon="8.74997">
        <ele>-0.8240966796875</ele>
        <time>2015-07-25T23:35:48Z</time>
      </trkpt>
      <trkpt lat="41.9243" lon="8.7499">
        <ele>-0.3433837890625</ele>
        <time>2015-07-25T23:36:04Z</time>
      </trkpt>
      <trkpt lat="41.92467" lon="8.74981">
        <ele>-0.8240966796875</ele>
        <time>2015-07-25T23:36:21Z</time>
      </trkpt>
      <trkpt lat="41.92492" lon="8.74969">
        <ele>-0.8240966796875</ele>
        <time>2015-07-25T23:36:34Z</time>
      </trkpt>
      <trkpt lat="41.92521" lon="8.7496">
        <ele>-0.8240966796875</ele>
        <time>2015-07-25T23:36:47Z</time>
      </trkpt>
      <trkpt lat="41.92543" lon="8.74952">
        <ele>-0.8240966796875</ele>
        <time>2015-07-25T23:36:58Z</time>
      </trkpt>
      <trkpt lat="41.92578" lon="8.74938">
        <ele>-0.3433837890625</ele>
        <time>2015-07-25T23:37:14Z</time>
      </trkpt>
      <trkpt lat="41.92608" lon="8.74924">
        <ele>-0.3433837890625</ele>
        <time>2015-07-25T23:37:30Z</time>
      </trkpt>
      <trkpt lat="41.92642" lon="8.74911">
        <ele>-0.8240966796875</ele>
        <time>2015-07-25T23:37:48Z</time>
      </trkpt>
      <trkpt lat="41.9267" lon="8.74905">
        <ele>-0.8240966796875</ele>
        <time>2015-07-25T23:38:03Z</time>
      </trkpt>
      <trkpt lat="41.92703" lon="8.74891">
        <ele>-0.8240966796875</ele>
        <time>2015-07-25T23:38:21Z</time>
      </trkpt>
      <trkpt lat="41.92729" lon="8.74872">
        <ele>-1.3046875</ele>
        <time>2015-07-25T23:38:37Z</time>
      </trkpt>
      <trkpt lat="41.92738" lon="8.74837">
        <ele>-0.8240966796875</ele>
        <time>2015-07-25T23:38:55Z</time>
      </trkpt>
      <trkpt lat="41.92741" lon="8.74832">
        <ele>-0.3433837890625</ele>
        <time>2015-07-25T23:38:59Z</time>
      </trkpt>
      <trkpt lat="41.92747" lon="8.74817">
        <ele>-0.3433837890625</ele>
        <time>2015-07-25T23:39:11Z</time>
      </trkpt>
      <trkpt lat="41.92751" lon="8.74802">
        <ele>-0.3433837890625</ele>
        <time>2015-07-25T23:39:22Z</time>
      </trkpt>
      <trkpt lat="41.92758" lon="8.74777">
        <ele>0.137451171875</ele>
        <time>2015-07-25T23:39:39Z</time>
      </trkpt>
      <trkpt lat="41.92764" lon="8.74747">
        <ele>-0.3433837890625</ele>
        <time>2015-07-25T23:39:52Z</time>
      </trkpt>
      <trkpt lat="41.92772" lon="8.74714">
        <ele>0.137451171875</ele>
        <time>2015-07-25T23:40:07Z</time>
      </trkpt>
      <trkpt lat="41.92781" lon="8.74687">
        <ele>0.137451171875</ele>
        <time>2015-07-25T23:40:22Z</time>
      </trkpt>
      <trkpt lat="41.92793" lon="8.74661">
        <ele>-0.3433837890625</ele>
        <time>2015-07-25T23:40:39Z</time>
      </trkpt>
      <trkpt lat="41.92805" lon="8.7464">
        <ele>0.137451171875</ele>
        <time>2015-07-25T23:40:53Z</time>
      </trkpt>
      <trkpt lat="41.92816" lon="8.74621">
        <ele>-0.3433837890625</ele>
        <time>2015-07-25T23:41:12Z</time>
      </trkpt>
      <trkpt lat="41.92826" lon="8.74599">
        <ele>0.6180419921875</ele>
        <time>2015-07-25T23:41:29Z</time>
      </trkpt>
      <trkpt lat="41.9284" lon="8.74571">
        <ele>0.137451171875</ele>
        <time>2015-07-25T23:41:45Z</time>
      </trkpt>
      <trkpt lat="41.92852" lon="8.74545">
        <ele>0.6180419921875</ele>
        <time>2015-07-25T23:42:01Z</time>
      </trkpt>
      <trkpt lat="41.92854" lon="8.74543">
        <ele>0.6180419921875</ele>
        <time>2015-07-25T23:42:03Z</time>
      </trkpt>
      <trkpt lat="41.92862" lon="8.74519">
        <ele>0.6180419921875</ele>
        <time>2015-07-25T23:42:18Z</time>
      </trkpt>
      <trkpt lat="41.9288" lon="8.74497">
        <ele>0.6180419921875</ele>
        <time>2015-07-25T23:42:37Z</time>
      </trkpt>
      <trkpt lat="41.92883" lon="8.7449">
        <ele>1.0986328125</ele>
        <time>2015-07-25T23:42:42Z</time>
      </trkpt>
      <trkpt lat="41.92907" lon="8.74451">
        <ele>0.6180419921875</ele>
        <time>2015-07-25T23:43:11Z</time>
      </trkpt>
      <trkpt lat="41.92935" lon="8.74419">
        <ele>0.137451171875</ele>
        <time>2015-07-25T23:43:40Z</time>
      </trkpt>
      <trkpt lat="41.92947" lon="8.74393">
        <ele>0.137451171875</ele>
        <time>2015-07-25T23:43:58Z</time>
      </trkpt>
      <trkpt lat="41.92948" lon="8.7439">
        <ele>0.6180419921875</ele>
        <time>2015-07-25T23:44:15Z</time>
      </trkpt>
      <trkpt lat="41.92944" lon="8.74401">
        <ele>0.137451171875</ele>
        <time>2015-07-25T23:44:41Z</time>
      </trkpt>
      <trkpt lat="41.92932" lon="8.74429">
        <ele>0.137451171875</ele>
        <time>2015-07-25T23:45:29Z</time>
      </trkpt>
      <trkpt lat="41.92932" lon="8.74425">
        <ele>0.137451171875</ele>
        <time>2015-07-25T23:45:59Z</time>
      </trkpt>
      <trkpt lat="41.92945" lon="8.74414">
        <ele>0.6180419921875</ele>
        <time>2015-07-25T23:46:18Z</time>
      </trkpt>
      <trkpt lat="41.92956" lon="8.74396">
        <ele>0.6180419921875</ele>
        <time>2015-07-25T23:46:40Z</time>
      </trkpt>
      <trkpt lat="41.9297" lon="8.74378">
        <ele>0.6180419921875</ele>
        <time>2015-07-25T23:47:24Z</time>
      </trkpt>
      <trkpt lat="41.92969" lon="8.74376">
        <ele>1.0986328125</ele>
        <time>2015-07-25T23:47:51Z</time>
      </trkpt>
      <trkpt lat="41.92965" lon="8.74388">
        <ele>0.6180419921875</ele>
        <time>2015-07-25T23:48:05Z</time>
      </trkpt>
      <trkpt lat="41.92966" lon="8.74398">
        <ele>0.6180419921875</ele>
        <time>2015-07-25T23:48:25Z</time>
      </trkpt>
      <trkpt lat="41.92967" lon="8.74397">
        <ele>0.137451171875</ele>
        <time>2015-07-25T23:48:54Z</time>
      </trkpt>
      <trkpt lat="41.92949" lon="8.74384">
        <ele>0.6180419921875</ele>
        <time>2015-07-25T23:49:22Z</time>
      </trkpt>
      <trkpt lat="41.92937" lon="8.74369">
        <ele>0.6180419921875</ele>
        <time>2015-07-25T23:49:48Z</time>
      </trkpt>
      <trkpt lat="41.92919" lon="8.74369">
        <ele>0.6180419921875</ele>
        <time>2015-07-25T23:50:27Z</time>
      </trkpt>
      <trkpt lat="41.9291" lon="8.74378">
        <ele>1.0986328125</ele>
        <time>2015-07-25T23:50:58Z</time>
      </trkpt>
      <trkpt lat="41.929" lon="8.74383">
        <ele>1.0986328125</ele>
        <time>2015-07-25T23:51:21Z</time>
      </trkpt>
      <trkpt lat="41.92897" lon="8.74393">
        <ele>1.0986328125</ele>
        <time>2015-07-25T23:51:50Z</time>
      </trkpt>
      <trkpt lat="41.92896" lon="8.74376">
        <ele>1.579345703125</ele>
        <time>2015-07-25T23:52:34Z</time>
      </trkpt>
      <trkpt lat="41.92898" lon="8.74363">
        <ele>1.579345703125</ele>
        <time>2015-07-25T23:53:02Z</time>
      </trkpt>
      <trkpt lat="41.92908" lon="8.74325">
        <ele>2.06005859375</ele>
        <time>2015-07-25T23:55:34Z</time>
      </trkpt>
      <trkpt lat="41.92911" lon="8.74315">
        <ele>2.06005859375</ele>
        <time>2015-07-25T23:56:18Z</time>
      </trkpt>
      <trkpt lat="41.92911" lon="8.74313">
        <ele>0.6180419921875</ele>
        <time>2015-07-25T23:56:23Z</time>
      </trkpt>
      <trkpt lat="41.9291" lon="8.74311">
        <ele>2.06005859375</ele>
        <time>2015-07-25T23:56:27Z</time>
      </trkpt>
      <trkpt lat="41.92905" lon="8.74316">
        <ele>2.5406494140625</ele>
        <time>2015-07-25T23:57:45Z</time>
      </trkpt>
      <trkpt lat="41.92905" lon="8.74318">
        <ele>-0.8240966796875</ele>
        <time>2015-07-25T23:57:49Z</time>
      </trkpt>
      <trkpt lat="41.92905" lon="8.74318">
        <ele>2.5406494140625</ele>
        <time>2015-07-25T23:57:50Z</time>
      </trkpt>
      <trkpt lat="41.92905" lon="8.74319">
        <ele>2.5406494140625</ele>
        <time>2015-07-25T23:57:51Z</time>
      </trkpt>
      <trkpt lat="41.92905" lon="8.74319">
        <ele>4.4632568359375</ele>
        <time>2015-07-25T23:57:53Z</time>
      </trkpt>
      <trkpt lat="41.92905" lon="8.7432">
        <ele>2.06005859375</ele>
        <time>2015-07-25T23:57:55Z</time>
      </trkpt>
      <trkpt lat="41.92905" lon="8.7432">
        <ele>0.6180419921875</ele>
        <time>2015-07-25T23:57:58Z</time>
      </trkpt>
      <trkpt lat="41.92905" lon="8.7432">
        <ele>3.021240234375</ele>
        <time>2015-07-25T23:58:00Z</time>
      </trkpt>
      <trkpt lat="41.92906" lon="8.7432">
        <ele>6.3858642578125</ele>
        <time>2015-07-25T23:58:02Z</time>
      </trkpt>
      <trkpt lat="41.92906" lon="8.74321">
        <ele>6.3858642578125</ele>
        <time>2015-07-25T23:58:03Z</time>
      </trkpt>
      <trkpt lat="41.92906" lon="8.74321">
        <ele>3.021240234375</ele>
        <time>2015-07-25T23:58:04Z</time>
      </trkpt>
      <trkpt lat="41.92906" lon="8.74321">
        <ele>3.021240234375</ele>
        <time>2015-07-25T23:58:05Z</time>
      </trkpt>
      <trkpt lat="41.92907" lon="8.74321">
        <ele>5.424560546875</ele>
        <time>2015-07-25T23:58:10Z</time>
      </trkpt>
      <trkpt lat="41.92907" lon="8.74321">
        <ele>3.021240234375</ele>
        <time>2015-07-25T23:58:12Z</time>
      </trkpt>
      <trkpt lat="41.92906" lon="8.74318">
        <ele>-0.3433837890625</ele>
        <time>2015-07-25T23:58:24Z</time>
      </trkpt>
      <trkpt lat="41.92905" lon="8.74318">
        <ele>3.021240234375</ele>
        <time>2015-07-25T23:58:27Z</time>
      </trkpt>
      <trkpt lat="41.92905" lon="8.74318">
        <ele>3.021240234375</ele>
        <time>2015-07-25T23:58:28Z</time>
      </trkpt>
      <trkpt lat="41.92905" lon="8.74318">
        <ele>5.424560546875</ele>
        <time>2015-07-25T23:58:33Z</time>
      </trkpt>
      <trkpt lat="41.92904" lon="8.74318">
        <ele>3.501953125</ele>
        <time>2015-07-25T23:58:35Z</time>
      </trkpt>
      <trkpt lat="41.92905" lon="8.74318">
        <ele>-3.227294921875</ele>
        <time>2015-07-25T23:58:43Z</time>
      </trkpt>
      <trkpt lat="41.92905" lon="8.74318">
        <ele>-3.227294921875</ele>
        <time>2015-07-25T23:58:44Z</time>
      </trkpt>
      <trkpt lat="41.92905" lon="8.74318">
        <ele>0.6180419921875</ele>
        <time>2015-07-25T23:58:45Z</time>
      </trkpt>
      <trkpt lat="41.92905" lon="8.74318">
        <ele>7.34716796875</ele>
        <time>2015-07-25T23:58:46Z</time>
      </trkpt>
      <trkpt lat="41.92905" lon="8.74319">
        <ele>7.34716796875</ele>
        <time>2015-07-25T23:58:47Z</time>
      </trkpt>
      <trkpt lat="41.92905" lon="8.74319">
        <ele>10.231201171875</ele>
        <time>2015-07-25T23:58:49Z</time>
      </trkpt>
      <trkpt lat="41.92904" lon="8.74319">
        <ele>3.021240234375</ele>
        <time>2015-07-25T23:58:50Z</time>
      </trkpt>
      <trkpt lat="41.92904" lon="8.74319">
        <ele>3.021240234375</ele>
        <time>2015-07-25T23:58:51Z</time>
      </trkpt>
      <trkpt lat="41.92904" lon="8.7432">
        <ele>0.137451171875</ele>
        <time>2015-07-25T23:58:58Z</time>
      </trkpt>
      <trkpt lat="41.92904" lon="8.74321">
        <ele>2.06005859375</ele>
        <time>2015-07-25T23:59:00Z</time>
      </trkpt>
      <trkpt lat="41.92905" lon="8.74326">
        <ele>0.6180419921875</ele>
        <time>2015-07-25T23:59:10Z</time>
      </trkpt>
      <trkpt lat="41.92905" lon="8.74327">
        <ele>5.424560546875</ele>
        <time>2015-07-25T23:59:11Z</time>
      </trkpt>
      <trkpt lat="41.92906" lon="8.74327">
        <ele>5.424560546875</ele>
        <time>2015-07-25T23:59:12Z</time>
      </trkpt>
      <trkpt lat="41.92906" lon="8.74326">
        <ele>3.501953125</ele>
        <time>2015-07-25T23:59:14Z</time>
      </trkpt>
      <trkpt lat="41.92906" lon="8.74326">
        <ele>1.579345703125</ele>
        <time>2015-07-25T23:59:17Z</time>
      </trkpt>
      <trkpt lat="41.92906" lon="8.74327">
        <ele>4.94384765625</ele>
        <time>2015-07-25T23:59:20Z</time>
      </trkpt>
      <trkpt lat="41.92906" lon="8.74328">
        <ele>4.94384765625</ele>
        <time>2015-07-25T23:59:21Z</time>
      </trkpt>
      <trkpt lat="41.92906" lon="8.74328">
        <ele>2.5406494140625</ele>
        <time>2015-07-25T23:59:24Z</time>
      </trkpt>
      <trkpt lat="41.92906" lon="8.74329">
        <ele>6.3858642578125</ele>
        <time>2015-07-25T23:59:27Z</time>
      </trkpt>
      <trkpt lat="41.92906" lon="8.74329">
        <ele>6.3858642578125</ele>
        <time>2015-07-25T23:59:28Z</time>
      </trkpt>
      <trkpt lat="41.92906" lon="8.74329">
        <ele>3.501953125</ele>
        <time>2015-07-25T23:59:33Z</time>
      </trkpt>
      <trkpt lat="41.92906" lon="8.74321">
        <ele>3.982666015625</ele>
        <time>2015-07-26T00:00:17Z</time>
      </trkpt>
      <trkpt lat="41.92906" lon="8.74321">
        <ele>3.021240234375</ele>
        <time>2015-07-26T00:00:24Z</time>
      </trkpt>
      <trkpt lat="41.92906" lon="8.7432">
        <ele>5.424560546875</ele>
        <time>2015-07-26T00:00:31Z</time>
      </trkpt>
      <trkpt lat="41.92906" lon="8.7432">
        <ele>2.5406494140625</ele>
        <time>2015-07-26T00:00:33Z</time>
      </trkpt>
      <trkpt lat="41.92908" lon="8.74319">
        <ele>3.501953125</ele>
        <time>2015-07-26T00:00:42Z</time>
      </trkpt>
      <trkpt lat="41.92908" lon="8.74316">
        <ele>2.06005859375</ele>
        <time>2015-07-26T00:00:52Z</time>
      </trkpt>
      <trkpt lat="41.92908" lon="8.74316">
        <ele>3.021240234375</ele>
        <time>2015-07-26T00:00:54Z</time>
      </trkpt>
      <trkpt lat="41.92907" lon="8.74314">
        <ele>4.94384765625</ele>
        <time>2015-07-26T00:00:56Z</time>
      </trkpt>
      <trkpt lat="41.92907" lon="8.74315">
        <ele>3.501953125</ele>
        <time>2015-07-26T00:00:58Z</time>
      </trkpt>
      <trkpt lat="41.92907" lon="8.74316">
        <ele>3.982666015625</ele>
        <time>2015-07-26T00:03:06Z</time>
      </trkpt>
      <trkpt lat="41.92907" lon="8.74317">
        <ele>4.4632568359375</ele>
        <time>2015-07-26T00:06:51Z</time>
      </trkpt>
      <trkpt lat="41.92906" lon="8.74316">
        <ele>3.501953125</ele>
        <time>2015-07-26T00:07:11Z</time>
      </trkpt>
      <trkpt lat="41.92906" lon="8.74316">
        <ele>3.982666015625</ele>
        <time>2015-07-26T00:07:22Z</time>
      </trkpt>
    </trkseg>
  </trk>
</gpx>